<?xml version='1.0' encoding='UTF-8'?><gpx version="1.1" creator="JPX - https://github.com/jenetics/jpx" xmlns="http://www.topografix.com/GPX/1/1"><trk><trkseg><trkpt lat="41.80246396641663" lon="12.30720656712676"><ele>1.9999999999999998</ele><time>2026-03-26T13:51:35Z</time></trkpt><trkpt lat="41.802482530108264" lon="12.307293545864633"><ele>2.0</ele><time>2026-03-26T13:51:36Z</time></trkpt><trkpt lat="41.80252015612779" lon="12.307363762469038"><ele>2.0</ele><time>2026-03-26T13:51:37Z</time></trkpt><trkpt lat="41.802567008034885" lon="12.307437457848746"><ele>2.0</ele><time>2026-03-26T13:51:38Z</time></trkpt><trkpt lat="41.8026192897119" lon="12.307537564114089"><ele>1.9999999999999998</ele><time>2026-03-26T13:51:39Z</time></trkpt><trkpt lat="41.8026769840978" lon="12.307632238220707"><ele>2.0</ele><time>2026-03-26T13:51:40Z</time></trkpt><trkpt lat="41.80271028820561" lon="12.307706261935937"><ele>2.2</ele><time>2026-03-26T13:51:41Z</time></trkpt><trkpt lat="41.80276024617228" lon="12.307833599322956"><ele>2.4000000000000004</ele><time>2026-03-26T13:51:43Z</time></trkpt><trkpt lat="41.802826372454035" lon="12.307975452959814"><ele>2.5999999999999996</ele><time>2026-03-26T13:51:45Z</time></trkpt><trkpt lat="41.80287097374299" lon="12.308063705411916"><ele>2.8</ele><time>2026-03-26T13:51:46Z</time></trkpt><trkpt lat="41.802919801838506" lon="12.308155586733491"><ele>3.0</ele><time>2026-03-26T13:51:47Z</time></trkpt><trkpt lat="41.80296129282914" lon="12.308241319018451"><ele>3.1666666666666665</ele><time>2026-03-26T13:51:48Z</time></trkpt><trkpt lat="41.80300519866011" lon="12.308336734121836"><ele>3.333333333333333</ele><time>2026-03-26T13:51:49Z</time></trkpt><trkpt lat="41.8030500695136" lon="12.308428752700925"><ele>3.5</ele><time>2026-03-26T13:51:50Z</time></trkpt><trkpt lat="41.80309377057984" lon="12.308525337308692"><ele>3.6666666666666665</ele><time>2026-03-26T13:51:51Z</time></trkpt><trkpt lat="41.803129196679656" lon="12.308600542098716"><ele>3.833333333333333</ele><time>2026-03-26T13:51:52Z</time></trkpt><trkpt lat="41.803188748261995" lon="12.30871198703525"><ele>4.0</ele><time>2026-03-26T13:51:54Z</time></trkpt><trkpt lat="41.80324681509259" lon="12.308834335142294"><ele>3.9999999999999996</ele><time>2026-03-26T13:51:56Z</time></trkpt><trkpt lat="41.80328230903876" lon="12.308906738941129"><ele>4.0</ele><time>2026-03-26T13:51:57Z</time></trkpt><trkpt lat="41.80331802681817" lon="12.308982463215433"><ele>4.0</ele><time>2026-03-26T13:51:58Z</time></trkpt><trkpt lat="41.80337743350036" lon="12.30910460464013"><ele>4.0</ele><time>2026-03-26T13:52:00Z</time></trkpt><trkpt lat="41.80343464587183" lon="12.30922326337822"><ele>3.9999999999999996</ele><time>2026-03-26T13:52:02Z</time></trkpt><trkpt lat="41.80348954117845" lon="12.309300189069269"><ele>4.0</ele><time>2026-03-26T13:52:04Z</time></trkpt><trkpt lat="41.80356307120883" lon="12.309307627463262"><ele>3.833333333333333</ele><time>2026-03-26T13:52:06Z</time></trkpt><trkpt lat="41.80364644510961" lon="12.309397395961684"><ele>3.6666666666666665</ele><time>2026-03-26T13:52:08Z</time></trkpt><trkpt lat="41.80366836695253" lon="12.309479204305275"><ele>3.5</ele><time>2026-03-26T13:52:09Z</time></trkpt><trkpt lat="41.803681764391406" lon="12.309571600666061"><ele>3.333333333333333</ele><time>2026-03-26T13:52:10Z</time></trkpt><trkpt lat="41.80369678154716" lon="12.309664234238753"><ele>3.1666666666666665</ele><time>2026-03-26T13:52:11Z</time></trkpt><trkpt lat="41.803777710135144" lon="12.309786829023396"><ele>3.0</ele><time>2026-03-26T13:52:13Z</time></trkpt><trkpt lat="41.803842818351406" lon="12.30984577163353"><ele>3.3333333333333335</ele><time>2026-03-26T13:52:14Z</time></trkpt><trkpt lat="41.803898113182804" lon="12.309929228665"><ele>3.666666666666667</ele><time>2026-03-26T13:52:15Z</time></trkpt><trkpt lat="41.803949663908135" lon="12.310032773069187"><ele>4.0</ele><time>2026-03-26T13:52:16Z</time></trkpt><trkpt lat="41.80399336633489" lon="12.310119776006188"><ele>4.333333333333334</ele><time>2026-03-26T13:52:17Z</time></trkpt><trkpt lat="41.80402837169598" lon="12.31019593902046"><ele>4.666666666666667</ele><time>2026-03-26T13:52:18Z</time></trkpt><trkpt lat="41.804065241636955" lon="12.310264517456167"><ele>5.0</ele><time>2026-03-26T13:52:18.999Z</time></trkpt><trkpt lat="41.80404576310373" lon="12.310383661933303"><ele>5.0</ele><time>2026-03-26T13:52:19.999Z</time></trkpt><trkpt lat="41.80402382675358" lon="12.31049140324988"><ele>5.0</ele><time>2026-03-26T13:52:20.999Z</time></trkpt><trkpt lat="41.8040009116681" lon="12.310602680665282"><ele>5.0</ele><time>2026-03-26T13:52:21.999Z</time></trkpt><trkpt lat="41.803902401322496" lon="12.310694989132934"><ele>5.0</ele><time>2026-03-26T13:52:22.999Z</time></trkpt><trkpt lat="41.80381250967573" lon="12.310790050205448"><ele>5.0</ele><time>2026-03-26T13:52:23.999Z</time></trkpt><trkpt lat="41.80371141108976" lon="12.310886912471792"><ele>4.75</ele><time>2026-03-26T13:52:24.999Z</time></trkpt><trkpt lat="41.803598532043644" lon="12.310992951262119"><ele>4.5</ele><time>2026-03-26T13:52:25.999Z</time></trkpt><trkpt lat="41.80348200855215" lon="12.311102403635926"><ele>4.25</ele><time>2026-03-26T13:52:26.999Z</time></trkpt><trkpt lat="41.803370230052565" lon="12.311212514005996"><ele>4.0</ele><time>2026-03-26T13:52:27.999Z</time></trkpt><trkpt lat="41.80326762907538" lon="12.311316012577427"><ele>3.8000000000000003</ele><time>2026-03-26T13:52:28.999Z</time></trkpt><trkpt lat="41.80317090882275" lon="12.31141379464736"><ele>3.6000000000000005</ele><time>2026-03-26T13:52:29.999Z</time></trkpt><trkpt lat="41.803079677940474" lon="12.31150302568815"><ele>3.4</ele><time>2026-03-26T13:52:30.999Z</time></trkpt><trkpt lat="41.8029981030014" lon="12.311579851945101"><ele>3.2</ele><time>2026-03-26T13:52:31.999Z</time></trkpt><trkpt lat="41.80292666959465" lon="12.3116470722904"><ele>3.0</ele><time>2026-03-26T13:52:32.999Z</time></trkpt><trkpt lat="41.8028685885794" lon="12.3116950076264"><ele>3.0</ele><time>2026-03-26T13:52:33.999Z</time></trkpt><trkpt lat="41.802809861420556" lon="12.311760260654125"><ele>3.0</ele><time>2026-03-26T13:52:35.999Z</time></trkpt><trkpt lat="41.802743087344474" lon="12.311773123654895"><ele>3.0</ele><time>2026-03-26T13:52:37.999Z</time></trkpt><trkpt lat="41.802628261352986" lon="12.311771082882357"><ele>3.0</ele><time>2026-03-26T13:52:43.999Z</time></trkpt><trkpt lat="41.802551836975056" lon="12.31182837233742"><ele>3.0</ele><time>2026-03-26T13:52:45.999Z</time></trkpt><trkpt lat="41.80255338466572" lon="12.311974651148143"><ele>3.0</ele><time>2026-03-26T13:52:47.999Z</time></trkpt><trkpt lat="41.8025910533794" lon="12.312043609353282"><ele>3.0</ele><time>2026-03-26T13:52:48.999Z</time></trkpt><trkpt lat="41.802654568630096" lon="12.312103687763134"><ele>3.0</ele><time>2026-03-26T13:52:49.999Z</time></trkpt><trkpt lat="41.802721685229095" lon="12.312176199804838"><ele>3.0</ele><time>2026-03-26T13:52:50.999Z</time></trkpt><trkpt lat="41.802788416095225" lon="12.312285959959718"><ele>3.0</ele><time>2026-03-26T13:52:51.999Z</time></trkpt><trkpt lat="41.80284843181418" lon="12.31241960328832"><ele>3.0</ele><time>2026-03-26T13:52:52.999Z</time></trkpt><trkpt lat="41.80290790389927" lon="12.312551847762359"><ele>3.3333333333333335</ele><time>2026-03-26T13:52:53.999Z</time></trkpt><trkpt lat="41.80295954508849" lon="12.312660715664437"><ele>3.666666666666667</ele><time>2026-03-26T13:52:54.999Z</time></trkpt><trkpt lat="41.80299891501386" lon="12.312737424686738"><ele>4.0</ele><time>2026-03-26T13:52:55.999Z</time></trkpt><trkpt lat="41.803035885251674" lon="12.312814892440471"><ele>4.333333333333334</ele><time>2026-03-26T13:52:57.999Z</time></trkpt><trkpt lat="41.803071178716664" lon="12.312902962743044"><ele>4.666666666666667</ele><time>2026-03-26T13:53:09.999Z</time></trkpt><trkpt lat="41.803162481464774" lon="12.312845328681437"><ele>5.0</ele><time>2026-03-26T13:53:10.999Z</time></trkpt><trkpt lat="41.803224497457286" lon="12.3127913327152"><ele>5.0</ele><time>2026-03-26T13:53:11.999Z</time></trkpt><trkpt lat="41.803293248819074" lon="12.312713140508555"><ele>5.0</ele><time>2026-03-26T13:53:12.999Z</time></trkpt><trkpt lat="41.803371742713175" lon="12.3126216197664"><ele>5.0</ele><time>2026-03-26T13:53:13.999Z</time></trkpt><trkpt lat="41.80347056690899" lon="12.312527281276143"><ele>5.0</ele><time>2026-03-26T13:53:14.999Z</time></trkpt><trkpt lat="41.8035729783145" lon="12.31243197472917"><ele>5.0</ele><time>2026-03-26T13:53:15.999Z</time></trkpt><trkpt lat="41.80368230737055" lon="12.31232020209991"><ele>4.5</ele><time>2026-03-26T13:53:16.999Z</time></trkpt><trkpt lat="41.8037927291172" lon="12.312199785209913"><ele>4.0</ele><time>2026-03-26T13:53:17.999Z</time></trkpt><trkpt lat="41.80390973979697" lon="12.312076790126333"><ele>3.5</ele><time>2026-03-26T13:53:18.999Z</time></trkpt><trkpt lat="41.80402902358655" lon="12.311953706785411"><ele>3.0</ele><time>2026-03-26T13:53:19.999Z</time></trkpt><trkpt lat="41.80415424582223" lon="12.311829718363095"><ele>3.0</ele><time>2026-03-26T13:53:20.999Z</time></trkpt><trkpt lat="41.80428368125531" lon="12.311707077201884"><ele>3.0</ele><time>2026-03-26T13:53:21.999Z</time></trkpt><trkpt lat="41.804416585232445" lon="12.311590106576066"><ele>3.0</ele><time>2026-03-26T13:53:22.999Z</time></trkpt><trkpt lat="41.80455123596584" lon="12.311462634279277"><ele>2.75</ele><time>2026-03-26T13:53:23.999Z</time></trkpt><trkpt lat="41.80467768309802" lon="12.311341352726485"><ele>2.5</ele><time>2026-03-26T13:53:25Z</time></trkpt><trkpt lat="41.80479270272602" lon="12.311240394828067"><ele>2.25</ele><time>2026-03-26T13:53:26Z</time></trkpt><trkpt lat="41.80490561162142" lon="12.311176386984346"><ele>2.0</ele><time>2026-03-26T13:53:27Z</time></trkpt><trkpt lat="41.80502486577182" lon="12.31115022030422"><ele>2.0</ele><time>2026-03-26T13:53:28Z</time></trkpt><trkpt lat="41.805147807005454" lon="12.311164425529308"><ele>2.0</ele><time>2026-03-26T13:53:29Z</time></trkpt><trkpt lat="41.80527346607111" lon="12.31121383696045"><ele>2.0</ele><time>2026-03-26T13:53:30Z</time></trkpt><trkpt lat="41.805400500323906" lon="12.311291824378808"><ele>2.0</ele><time>2026-03-26T13:53:31Z</time></trkpt><trkpt lat="41.805527721181136" lon="12.311388544500407"><ele>1.6666666666666665</ele><time>2026-03-26T13:53:32Z</time></trkpt><trkpt lat="41.805659641769566" lon="12.311486816595547"><ele>1.3333333333333333</ele><time>2026-03-26T13:53:33Z</time></trkpt><trkpt lat="41.80580277764092" lon="12.3115805811456"><ele>1.0</ele><time>2026-03-26T13:53:34Z</time></trkpt><trkpt lat="41.80594939614445" lon="12.31167814676362"><ele>1.0</ele><time>2026-03-26T13:53:35Z</time></trkpt><trkpt lat="41.80609528143283" lon="12.311783265758072"><ele>1.0</ele><time>2026-03-26T13:53:36Z</time></trkpt><trkpt lat="41.80624137725187" lon="12.311890855750843"><ele>1.0</ele><time>2026-03-26T13:53:37Z</time></trkpt><trkpt lat="41.80638340064881" lon="12.312006167470852"><ele>1.0</ele><time>2026-03-26T13:53:38Z</time></trkpt><trkpt lat="41.80651313616787" lon="12.312141423560199"><ele>1.0</ele><time>2026-03-26T13:53:39Z</time></trkpt><trkpt lat="41.806621290945714" lon="12.312304672394879"><ele>1.0</ele><time>2026-03-26T13:53:40Z</time></trkpt><trkpt lat="41.80671116420726" lon="12.312491599808604"><ele>1.3333333333333333</ele><time>2026-03-26T13:53:41Z</time></trkpt><trkpt lat="41.806791761770704" lon="12.312691970876994"><ele>1.6666666666666665</ele><time>2026-03-26T13:53:42Z</time></trkpt><trkpt lat="41.80687406659544" lon="12.312897498625226"><ele>2.0</ele><time>2026-03-26T13:53:43Z</time></trkpt><trkpt lat="41.80695968440989" lon="12.31310547615278"><ele>2.0</ele><time>2026-03-26T13:53:44Z</time></trkpt><trkpt lat="41.807065086746796" lon="12.313303865385697"><ele>2.0</ele><time>2026-03-26T13:53:45Z</time></trkpt><trkpt lat="41.80715815453147" lon="12.313512817380996"><ele>2.0</ele><time>2026-03-26T13:53:46Z</time></trkpt><trkpt lat="41.8072522583926" lon="12.313724095532244"><ele>2.0</ele><time>2026-03-26T13:53:47Z</time></trkpt><trkpt lat="41.80734732235582" lon="12.313937529266825"><ele>2.0</ele><time>2026-03-26T13:53:48Z</time></trkpt><trkpt lat="41.807428421853146" lon="12.314160712785648"><ele>2.0</ele><time>2026-03-26T13:53:49Z</time></trkpt><trkpt lat="41.80752731331409" lon="12.314372725516838"><ele>2.0</ele><time>2026-03-26T13:53:50Z</time></trkpt><trkpt lat="41.80762315609438" lon="12.314587349241629"><ele>2.0</ele><time>2026-03-26T13:53:51Z</time></trkpt><trkpt lat="41.80771916903201" lon="12.314802053598912"><ele>2.0</ele><time>2026-03-26T13:53:52Z</time></trkpt><trkpt lat="41.80781488862682" lon="12.315018567954231"><ele>2.0</ele><time>2026-03-26T13:53:53Z</time></trkpt><trkpt lat="41.807908658992396" lon="12.315236061123532"><ele>2.0</ele><time>2026-03-26T13:53:54Z</time></trkpt><trkpt lat="41.80800274757621" lon="12.315456129300914"><ele>2.0</ele><time>2026-03-26T13:53:55Z</time></trkpt><trkpt lat="41.808101377128985" lon="12.315675897977645"><ele>2.0</ele><time>2026-03-26T13:53:56Z</time></trkpt><trkpt lat="41.80820191615354" lon="12.31589657411634"><ele>2.0</ele><time>2026-03-26T13:53:57Z</time></trkpt><trkpt lat="41.80829991161395" lon="12.316118665138086"><ele>2.0</ele><time>2026-03-26T13:53:58Z</time></trkpt><trkpt lat="41.808400474569666" lon="12.316343075481731"><ele>2.0</ele><time>2026-03-26T13:53:59Z</time></trkpt><trkpt lat="41.808498500218214" lon="12.316564540453149"><ele>2.0</ele><time>2026-03-26T13:54:00Z</time></trkpt><trkpt lat="41.80859736001504" lon="12.316784842041413"><ele>2.0</ele><time>2026-03-26T13:54:01Z</time></trkpt><trkpt lat="41.808694468452224" lon="12.316998723591153"><ele>2.0</ele><time>2026-03-26T13:54:02Z</time></trkpt><trkpt lat="41.808791887737115" lon="12.317207133457112"><ele>2.0</ele><time>2026-03-26T13:54:03Z</time></trkpt><trkpt lat="41.80889061323949" lon="12.317412827720016"><ele>2.0</ele><time>2026-03-26T13:54:04Z</time></trkpt><trkpt lat="41.80898669059044" lon="12.317620008948454"><ele>2.0</ele><time>2026-03-26T13:54:05Z</time></trkpt><trkpt lat="41.80908449110831" lon="12.31782624211386"><ele>2.0</ele><time>2026-03-26T13:54:06Z</time></trkpt><trkpt lat="41.809182123814026" lon="12.318033845189367"><ele>2.0</ele><time>2026-03-26T13:54:07Z</time></trkpt><trkpt lat="41.80927311886977" lon="12.318233106588925"><ele>2.6666666666666665</ele><time>2026-03-26T13:54:08Z</time></trkpt><trkpt lat="41.80935813205974" lon="12.318414957836826"><ele>3.333333333333333</ele><time>2026-03-26T13:54:09Z</time></trkpt><trkpt lat="41.809439641906316" lon="12.31858808156224"><ele>4.0</ele><time>2026-03-26T13:54:10Z</time></trkpt><trkpt lat="41.80952041253349" lon="12.318763372456514"><ele>4.0</ele><time>2026-03-26T13:54:11Z</time></trkpt><trkpt lat="41.80959852443255" lon="12.318945483231658"><ele>4.0</ele><time>2026-03-26T13:54:12Z</time></trkpt><trkpt lat="41.8096801257737" lon="12.31913632643627"><ele>4.0</ele><time>2026-03-26T13:54:13Z</time></trkpt><trkpt lat="41.809763190754275" lon="12.319333492791163"><ele>4.0</ele><time>2026-03-26T13:54:14Z</time></trkpt><trkpt lat="41.809853098295044" lon="12.319538515040222"><ele>4.0</ele><time>2026-03-26T13:54:15Z</time></trkpt><trkpt lat="41.809943372433686" lon="12.319746173856732"><ele>4.0</ele><time>2026-03-26T13:54:16Z</time></trkpt><trkpt lat="41.81004037175083" lon="12.319955798472728"><ele>3.6666666666666665</ele><time>2026-03-26T13:54:17Z</time></trkpt><trkpt lat="41.81014025869321" lon="12.320166168670767"><ele>3.333333333333333</ele><time>2026-03-26T13:54:18Z</time></trkpt><trkpt lat="41.810235557592705" lon="12.320372073316076"><ele>3.0</ele><time>2026-03-26T13:54:19Z</time></trkpt><trkpt lat="41.81032553601972" lon="12.320564003996013"><ele>3.5</ele><time>2026-03-26T13:54:20Z</time></trkpt><trkpt lat="41.810408243088474" lon="12.320744566811348"><ele>4.0</ele><time>2026-03-26T13:54:21Z</time></trkpt><trkpt lat="41.81048681599226" lon="12.320913230727665"><ele>4.5</ele><time>2026-03-26T13:54:22Z</time></trkpt><trkpt lat="41.81055447434343" lon="12.321068939647517"><ele>5.0</ele><time>2026-03-26T13:54:23Z</time></trkpt><trkpt lat="41.810609242154825" lon="12.321226283568942"><ele>5.0</ele><time>2026-03-26T13:54:24Z</time></trkpt><trkpt lat="41.810628682931046" lon="12.321379559290495"><ele>5.0</ele><time>2026-03-26T13:54:25Z</time></trkpt><trkpt lat="41.81061559512688" lon="12.321529465832398"><ele>5.0</ele><time>2026-03-26T13:54:25.999Z</time></trkpt><trkpt lat="41.810570348172256" lon="12.321664865589705"><ele>5.0</ele><time>2026-03-26T13:54:26.999Z</time></trkpt><trkpt lat="41.81050278002846" lon="12.321763252470351"><ele>5.0</ele><time>2026-03-26T13:54:27.999Z</time></trkpt><trkpt lat="41.81042043943035" lon="12.321823757250217"><ele>4.0</ele><time>2026-03-26T13:54:28.999Z</time></trkpt><trkpt lat="41.810324478535044" lon="12.32185155477982"><ele>3.0</ele><time>2026-03-26T13:54:29.999Z</time></trkpt><trkpt lat="41.81021330914834" lon="12.3218495725372"><ele>2.0</ele><time>2026-03-26T13:54:30.999Z</time></trkpt><trkpt lat="41.81008775815653" lon="12.321829401286102"><ele>1.0</ele><time>2026-03-26T13:54:31.999Z</time></trkpt><trkpt lat="41.80995168575538" lon="12.32180583389703"><ele>0.6666666666666666</ele><time>2026-03-26T13:54:32.999Z</time></trkpt><trkpt lat="41.80980490754131" lon="12.321806872346924"><ele>0.3333333333333333</ele><time>2026-03-26T13:54:33.999Z</time></trkpt><trkpt lat="41.80965283421448" lon="12.321838885869525"><ele>0.0</ele><time>2026-03-26T13:54:34.999Z</time></trkpt><trkpt lat="41.80950503855745" lon="12.321922121571207"><ele>0.0</ele><time>2026-03-26T13:54:35.999Z</time></trkpt><trkpt lat="41.8093574670744" lon="12.322022796465228"><ele>0.0</ele><time>2026-03-26T13:54:36.999Z</time></trkpt><trkpt lat="41.8092077930349" lon="12.322136733722076"><ele>0.0</ele><time>2026-03-26T13:54:37.999Z</time></trkpt><trkpt lat="41.80905997013936" lon="12.322252044825381"><ele>0.0</ele><time>2026-03-26T13:54:38.999Z</time></trkpt><trkpt lat="41.80891465173117" lon="12.322340881109726"><ele>0.0</ele><time>2026-03-26T13:54:39.999Z</time></trkpt><trkpt lat="41.808787080855694" lon="12.32244672558673"><ele>0.0</ele><time>2026-03-26T13:54:40.999Z</time></trkpt><trkpt lat="41.808668052681924" lon="12.322543765459978"><ele>0.0</ele><time>2026-03-26T13:54:41.999Z</time></trkpt><trkpt lat="41.80856261349613" lon="12.322629998727662"><ele>0.8</ele><time>2026-03-26T13:54:42.999Z</time></trkpt><trkpt lat="41.80846884978102" lon="12.32270816804899"><ele>1.6</ele><time>2026-03-26T13:54:43.999Z</time></trkpt><trkpt lat="41.808388937254385" lon="12.322772365374592"><ele>2.4000000000000004</ele><time>2026-03-26T13:54:44.999Z</time></trkpt><trkpt lat="41.80832713267479" lon="12.322845452991446"><ele>3.2</ele><time>2026-03-26T13:54:45.999Z</time></trkpt><trkpt lat="41.808243584493866" lon="12.322872946894565"><ele>4.0</ele><time>2026-03-26T13:54:46.999Z</time></trkpt><trkpt lat="41.80815411173399" lon="12.322854555388291"><ele>4.0</ele><time>2026-03-26T13:54:47.999Z</time></trkpt><trkpt lat="41.80807461733388" lon="12.32281757859925"><ele>3.9999999999999996</ele><time>2026-03-26T13:54:48.999Z</time></trkpt><trkpt lat="41.80800378778298" lon="12.322833217515715"><ele>4.0</ele><time>2026-03-26T13:54:49.999Z</time></trkpt><trkpt lat="41.807950024801386" lon="12.32287920013164"><ele>4.0</ele><time>2026-03-26T13:54:50.999Z</time></trkpt><trkpt lat="41.807913712664664" lon="12.32295004961859"><ele>3.9999999999999996</ele><time>2026-03-26T13:54:51.999Z</time></trkpt><trkpt lat="41.80790225826567" lon="12.323040293965937"><ele>4.0</ele><time>2026-03-26T13:54:52.999Z</time></trkpt><trkpt lat="41.807917300916166" lon="12.3231402969339"><ele>4.0</ele><time>2026-03-26T13:54:53.999Z</time></trkpt><trkpt lat="41.80795941530663" lon="12.323238599365382"><ele>3.6</ele><time>2026-03-26T13:54:54.999Z</time></trkpt><trkpt lat="41.80802333147772" lon="12.323332367084838"><ele>3.2</ele><time>2026-03-26T13:54:55.999Z</time></trkpt><trkpt lat="41.80808939459505" lon="12.32343890518763"><ele>2.8000000000000003</ele><time>2026-03-26T13:54:56.999Z</time></trkpt><trkpt lat="41.80819106070307" lon="12.323514328873499"><ele>2.4000000000000004</ele><time>2026-03-26T13:54:57.999Z</time></trkpt><trkpt lat="41.80827478116857" lon="12.32362779387094"><ele>2.0</ele><time>2026-03-26T13:54:58.999Z</time></trkpt><trkpt lat="41.808347348590246" lon="12.32376928906703"><ele>2.0</ele><time>2026-03-26T13:54:59.999Z</time></trkpt><trkpt lat="41.80841797119617" lon="12.323926975004502"><ele>2.0</ele><time>2026-03-26T13:55:00.999Z</time></trkpt><trkpt lat="41.80849544595382" lon="12.324092652053093"><ele>2.0</ele><time>2026-03-26T13:55:01.999Z</time></trkpt><trkpt lat="41.80857924169446" lon="12.32426800037152"><ele>2.0</ele><time>2026-03-26T13:55:02.999Z</time></trkpt><trkpt lat="41.80866897083714" lon="12.324450827623885"><ele>1.6666666666666665</ele><time>2026-03-26T13:55:03.999Z</time></trkpt><trkpt lat="41.80875991538206" lon="12.324639413584457"><ele>1.3333333333333333</ele><time>2026-03-26T13:55:04.999Z</time></trkpt><trkpt lat="41.80885349401942" lon="12.324836089412607"><ele>1.0</ele><time>2026-03-26T13:55:05.999Z</time></trkpt><trkpt lat="41.80895263318659" lon="12.325037985469791"><ele>1.0</ele><time>2026-03-26T13:55:06.999Z</time></trkpt><trkpt lat="41.80905456874518" lon="12.325244203626324"><ele>1.0</ele><time>2026-03-26T13:55:07.999Z</time></trkpt><trkpt lat="41.809157273312" lon="12.32545506147987"><ele>1.0</ele><time>2026-03-26T13:55:08.999Z</time></trkpt><trkpt lat="41.809260915375404" lon="12.325668287816088"><ele>2.0</ele><time>2026-03-26T13:55:09.999Z</time></trkpt><trkpt lat="41.80936663577231" lon="12.3258847193355"><ele>3.0</ele><time>2026-03-26T13:55:10.999Z</time></trkpt><trkpt lat="41.80947404478564" lon="12.326100944716117"><ele>4.0</ele><time>2026-03-26T13:55:11.999Z</time></trkpt><trkpt lat="41.80958239940767" lon="12.326320652439895"><ele>3.6666666666666665</ele><time>2026-03-26T13:55:12.999Z</time></trkpt><trkpt lat="41.809689285647686" lon="12.326541434483428"><ele>3.333333333333333</ele><time>2026-03-26T13:55:13.999Z</time></trkpt><trkpt lat="41.80979725282556" lon="12.326761384446216"><ele>3.0</ele><time>2026-03-26T13:55:14.999Z</time></trkpt><trkpt lat="41.80990505780552" lon="12.326981765744394"><ele>3.0</ele><time>2026-03-26T13:55:15.999Z</time></trkpt><trkpt lat="41.81001213260968" lon="12.327204333393338"><ele>3.0</ele><time>2026-03-26T13:55:16.999Z</time></trkpt><trkpt lat="41.81011889985208" lon="12.327427917756728"><ele>3.0</ele><time>2026-03-26T13:55:17.999Z</time></trkpt><trkpt lat="41.810225297122365" lon="12.327652763095976"><ele>3.0</ele><time>2026-03-26T13:55:18.999Z</time></trkpt><trkpt lat="41.8103322486977" lon="12.327879645968387"><ele>3.0</ele><time>2026-03-26T13:55:19.999Z</time></trkpt><trkpt lat="41.81044094136109" lon="12.328106144412457"><ele>3.0</ele><time>2026-03-26T13:55:20.999Z</time></trkpt><trkpt lat="41.81055084482757" lon="12.328325860148851"><ele>3.0</ele><time>2026-03-26T13:55:21.999Z</time></trkpt><trkpt lat="41.810658318314296" lon="12.328535031150698"><ele>3.0</ele><time>2026-03-26T13:55:22.999Z</time></trkpt><trkpt lat="41.810759152097894" lon="12.328733722085264"><ele>3.0</ele><time>2026-03-26T13:55:23.999Z</time></trkpt><trkpt lat="41.81085534977218" lon="12.328923777649466"><ele>3.0</ele><time>2026-03-26T13:55:24.999Z</time></trkpt><trkpt lat="41.810950383016895" lon="12.32911167554359"><ele>3.0</ele><time>2026-03-26T13:55:25.999Z</time></trkpt><trkpt lat="41.811045101488745" lon="12.32929952717778"><ele>3.0</ele><time>2026-03-26T13:55:26.999Z</time></trkpt><trkpt lat="41.81114002247919" lon="12.32948883264822"><ele>3.333333333333333</ele><time>2026-03-26T13:55:27.999Z</time></trkpt><trkpt lat="41.81123413923832" lon="12.329681155766277"><ele>3.6666666666666665</ele><time>2026-03-26T13:55:28.999Z</time></trkpt><trkpt lat="41.8113265889148" lon="12.329868573494686"><ele>4.0</ele><time>2026-03-26T13:55:29.999Z</time></trkpt><trkpt lat="41.81140714891929" lon="12.330041863213557"><ele>4.0</ele><time>2026-03-26T13:55:31Z</time></trkpt><trkpt lat="41.811479443906336" lon="12.330195318873288"><ele>4.0</ele><time>2026-03-26T13:55:32Z</time></trkpt><trkpt lat="41.81154256476113" lon="12.33033057338022"><ele>4.0</ele><time>2026-03-26T13:55:33Z</time></trkpt><trkpt lat="41.81159744718113" lon="12.330453430484527"><ele>4.0</ele><time>2026-03-26T13:55:34Z</time></trkpt><trkpt lat="41.81165216571136" lon="12.330566717924887"><ele>3.9999999999999996</ele><time>2026-03-26T13:55:35Z</time></trkpt><trkpt lat="41.81169219176529" lon="12.330657524737719"><ele>4.0</ele><time>2026-03-26T13:55:36Z</time></trkpt><trkpt lat="41.811779819729054" lon="12.330684916216413"><ele>4.0</ele><time>2026-03-26T13:55:37Z</time></trkpt><trkpt lat="41.811850131756515" lon="12.330692105113318"><ele>4.0</ele><time>2026-03-26T13:55:38Z</time></trkpt><trkpt lat="41.81191286912458" lon="12.330667613043413"><ele>3.9999999999999996</ele><time>2026-03-26T13:55:39Z</time></trkpt><trkpt lat="41.81197216750777" lon="12.33060850325912"><ele>4.0</ele><time>2026-03-26T13:55:40Z</time></trkpt><trkpt lat="41.81203118866672" lon="12.330529773399437"><ele>4.0</ele><time>2026-03-26T13:55:41Z</time></trkpt><trkpt lat="41.8120793332302" lon="12.330440591450165"><ele>4.0</ele><time>2026-03-26T13:55:42Z</time></trkpt><trkpt lat="41.8120436958403" lon="12.330267808366079"><ele>4.0</ele><time>2026-03-26T13:55:43Z</time></trkpt><trkpt lat="41.81203672586028" lon="12.330119031985774"><ele>4.0</ele><time>2026-03-26T13:55:44Z</time></trkpt><trkpt lat="41.812030020900245" lon="12.32995262678919"><ele>4.0</ele><time>2026-03-26T13:55:45Z</time></trkpt><trkpt lat="41.81202431114651" lon="12.329772584728376"><ele>4.0</ele><time>2026-03-26T13:55:46Z</time></trkpt><trkpt lat="41.81201449167116" lon="12.329578763649042"><ele>4.0</ele><time>2026-03-26T13:55:47Z</time></trkpt><trkpt lat="41.81200479131724" lon="12.329376404140369"><ele>4.0</ele><time>2026-03-26T13:55:48Z</time></trkpt><trkpt lat="41.81199111624757" lon="12.329163299375248"><ele>4.0</ele><time>2026-03-26T13:55:49Z</time></trkpt><trkpt lat="41.81197535188287" lon="12.328948186880774"><ele>4.0</ele><time>2026-03-26T13:55:50Z</time></trkpt><trkpt lat="41.811959149264744" lon="12.328742949514282"><ele>4.0</ele><time>2026-03-26T13:55:51Z</time></trkpt><trkpt lat="41.811935492010306" lon="12.328553256493741"><ele>4.0</ele><time>2026-03-26T13:55:52Z</time></trkpt><trkpt lat="41.811897622726576" lon="12.328364616598128"><ele>4.0</ele><time>2026-03-26T13:55:53Z</time></trkpt><trkpt lat="41.81183760708325" lon="12.328190863698758"><ele>4.0</ele><time>2026-03-26T13:55:54Z</time></trkpt><trkpt lat="41.811767899254384" lon="12.32803612281448"><ele>4.0</ele><time>2026-03-26T13:55:55Z</time></trkpt><trkpt lat="41.81170601145723" lon="12.327890950320821"><ele>3.6</ele><time>2026-03-26T13:55:56Z</time></trkpt><trkpt lat="41.8116683487817" lon="12.327745015559262"><ele>3.2</ele><time>2026-03-26T13:55:57Z</time></trkpt><trkpt lat="41.811664651206904" lon="12.327600350466353"><ele>2.8000000000000003</ele><time>2026-03-26T13:55:58Z</time></trkpt><trkpt lat="41.81168968898239" lon="12.327465926622834"><ele>2.4000000000000004</ele><time>2026-03-26T13:55:59Z</time></trkpt><trkpt lat="41.81173866132487" lon="12.327359459616831"><ele>2.0</ele><time>2026-03-26T13:56:00Z</time></trkpt><trkpt lat="41.81180776288609" lon="12.32728869982902"><ele>2.2</ele><time>2026-03-26T13:56:01Z</time></trkpt><trkpt lat="41.81189985864485" lon="12.327236116744643"><ele>2.4000000000000004</ele><time>2026-03-26T13:56:02Z</time></trkpt><trkpt lat="41.812004261101244" lon="12.327211738979946"><ele>2.5999999999999996</ele><time>2026-03-26T13:56:03Z</time></trkpt><trkpt lat="41.812097254788014" lon="12.327234844735793"><ele>2.8</ele><time>2026-03-26T13:56:04Z</time></trkpt><trkpt lat="41.812173607213666" lon="12.327296697895367"><ele>3.0</ele><time>2026-03-26T13:56:05Z</time></trkpt><trkpt lat="41.81224167178477" lon="12.327389539289632"><ele>3.0</ele><time>2026-03-26T13:56:06Z</time></trkpt><trkpt lat="41.812290886140126" lon="12.32750842156105"><ele>3.0</ele><time>2026-03-26T13:56:07Z</time></trkpt><trkpt lat="41.81232000730963" lon="12.32764567896714"><ele>3.0</ele><time>2026-03-26T13:56:08Z</time></trkpt><trkpt lat="41.81233440179454" lon="12.327799337970655"><ele>3.0</ele><time>2026-03-26T13:56:09Z</time></trkpt><trkpt lat="41.81234666635762" lon="12.32797757368177"><ele>3.333333333333333</ele><time>2026-03-26T13:56:10Z</time></trkpt><trkpt lat="41.81236562906102" lon="12.328174431861576"><ele>3.6666666666666665</ele><time>2026-03-26T13:56:11Z</time></trkpt><trkpt lat="41.81244419551523" lon="12.32837694104554"><ele>4.0</ele><time>2026-03-26T13:56:12Z</time></trkpt><trkpt lat="41.81246560051708" lon="12.328603977214787"><ele>4.0</ele><time>2026-03-26T13:56:13Z</time></trkpt><trkpt lat="41.812487509282626" lon="12.328841790006614"><ele>4.0</ele><time>2026-03-26T13:56:14Z</time></trkpt><trkpt lat="41.812510172986634" lon="12.329087797432848"><ele>4.0</ele><time>2026-03-26T13:56:15Z</time></trkpt><trkpt lat="41.81253349400342" lon="12.3293416353068"><ele>4.0</ele><time>2026-03-26T13:56:16Z</time></trkpt><trkpt lat="41.812557285322676" lon="12.329603433203571"><ele>4.0</ele><time>2026-03-26T13:56:17Z</time></trkpt><trkpt lat="41.81258161635948" lon="12.329871170108285"><ele>4.0</ele><time>2026-03-26T13:56:18Z</time></trkpt><trkpt lat="41.81260634043741" lon="12.33014323203231"><ele>4.0</ele><time>2026-03-26T13:56:19Z</time></trkpt><trkpt lat="41.8126164275751" lon="12.330423089249983"><ele>4.0</ele><time>2026-03-26T13:56:20Z</time></trkpt><trkpt lat="41.81265743310289" lon="12.330702863705763"><ele>4.0</ele><time>2026-03-26T13:56:21Z</time></trkpt><trkpt lat="41.81268324577123" lon="12.330988689335376"><ele>4.0</ele><time>2026-03-26T13:56:22Z</time></trkpt><trkpt lat="41.81270936441402" lon="12.331277903073484"><ele>4.0</ele><time>2026-03-26T13:56:23Z</time></trkpt><trkpt lat="41.81273540545712" lon="12.331568802318778"><ele>4.0</ele><time>2026-03-26T13:56:24Z</time></trkpt><trkpt lat="41.81276064156188" lon="12.331859558287903"><ele>4.333333333333333</ele><time>2026-03-26T13:56:25Z</time></trkpt><trkpt lat="41.812786172559925" lon="12.332153514426068"><ele>4.666666666666667</ele><time>2026-03-26T13:56:26Z</time></trkpt><trkpt lat="41.81281279904547" lon="12.332448422930865"><ele>5.0</ele><time>2026-03-26T13:56:27Z</time></trkpt><trkpt lat="41.81283937274291" lon="12.332742746754052"><ele>5.0</ele><time>2026-03-26T13:56:28Z</time></trkpt><trkpt lat="41.81286761578687" lon="12.333035640311294"><ele>5.0</ele><time>2026-03-26T13:56:29Z</time></trkpt><trkpt lat="41.81289384358753" lon="12.333331005132019"><ele>5.0</ele><time>2026-03-26T13:56:30Z</time></trkpt><trkpt lat="41.8129206033245" lon="12.333631081241826"><ele>6.0</ele><time>2026-03-26T13:56:31Z</time></trkpt><trkpt lat="41.81294781094935" lon="12.333933930224667"><ele>7.0</ele><time>2026-03-26T13:56:32Z</time></trkpt><trkpt lat="41.81297474075939" lon="12.33423368692302"><ele>7.0</ele><time>2026-03-26T13:56:33Z</time></trkpt><trkpt lat="41.813000753958974" lon="12.334524342526313"><ele>7.0</ele><time>2026-03-26T13:56:33.999Z</time></trkpt><trkpt lat="41.81301052686916" lon="12.334822064968163"><ele>7.0</ele><time>2026-03-26T13:56:34.999Z</time></trkpt><trkpt lat="41.81305382366026" lon="12.335114271528768"><ele>7.0</ele><time>2026-03-26T13:56:35.999Z</time></trkpt><trkpt lat="41.813079923601286" lon="12.335408760561158"><ele>7.0</ele><time>2026-03-26T13:56:36.999Z</time></trkpt><trkpt lat="41.813106326992006" lon="12.335700654033861"><ele>7.0</ele><time>2026-03-26T13:56:37.999Z</time></trkpt><trkpt lat="41.81313162947277" lon="12.335975607561798"><ele>7.0</ele><time>2026-03-26T13:56:38.999Z</time></trkpt><trkpt lat="41.81313916577331" lon="12.33624102808444"><ele>7.0</ele><time>2026-03-26T13:56:39.999Z</time></trkpt><trkpt lat="41.81316267944363" lon="12.336493313260867"><ele>7.0</ele><time>2026-03-26T13:56:40.999Z</time></trkpt><trkpt lat="41.81318418580494" lon="12.33672897970329"><ele>7.0</ele><time>2026-03-26T13:56:41.999Z</time></trkpt><trkpt lat="41.813203749544975" lon="12.336945683318781"><ele>7.0</ele><time>2026-03-26T13:56:42.999Z</time></trkpt><trkpt lat="41.813219083720185" lon="12.337142444801632"><ele>7.0</ele><time>2026-03-26T13:56:43.999Z</time></trkpt><trkpt lat="41.8132292331254" lon="12.337316837519651"><ele>7.0</ele><time>2026-03-26T13:56:44.999Z</time></trkpt><trkpt lat="41.813233524047725" lon="12.337473236405982"><ele>6.833333333333334</ele><time>2026-03-26T13:56:45.999Z</time></trkpt><trkpt lat="41.81323659817794" lon="12.337607881422961"><ele>6.666666666666667</ele><time>2026-03-26T13:56:46.999Z</time></trkpt><trkpt lat="41.813240619904036" lon="12.337718478504542"><ele>6.5</ele><time>2026-03-26T13:56:47.999Z</time></trkpt><trkpt lat="41.8132455849776" lon="12.337804225073468"><ele>6.333333333333334</ele><time>2026-03-26T13:56:48.999Z</time></trkpt><trkpt lat="41.81329945178717" lon="12.337858979775609"><ele>6.166666666666667</ele><time>2026-03-26T13:56:49.999Z</time></trkpt><trkpt lat="41.81331066764621" lon="12.337984148764535"><ele>6.0</ele><time>2026-03-26T13:59:52Z</time></trkpt><trkpt lat="41.813318322760026" lon="12.338069579846346"><ele>6.0</ele><time>2026-03-26T13:59:53Z</time></trkpt><trkpt lat="41.81332775115213" lon="12.338174800696288"><ele>6.0</ele><time>2026-03-26T13:59:54Z</time></trkpt><trkpt lat="41.81333911660766" lon="12.338300244156171"><ele>6.0</ele><time>2026-03-26T13:59:55Z</time></trkpt><trkpt lat="41.8133529750134" lon="12.338452651973506"><ele>6.0</ele><time>2026-03-26T13:59:56Z</time></trkpt><trkpt lat="41.813368496160685" lon="12.338623345775087"><ele>6.0</ele><time>2026-03-26T13:59:57Z</time></trkpt><trkpt lat="41.813385748501396" lon="12.338814828290126"><ele>5.333333333333333</ele><time>2026-03-26T13:59:58Z</time></trkpt><trkpt lat="41.81340493116374" lon="12.339027995637194"><ele>4.666666666666666</ele><time>2026-03-26T13:59:59Z</time></trkpt><trkpt lat="41.813425678625265" lon="12.339258551784901"><ele>4.0</ele><time>2026-03-26T14:00:00Z</time></trkpt><trkpt lat="41.813431974379064" lon="12.339502187305731"><ele>3.6666666666666665</ele><time>2026-03-26T14:00:01Z</time></trkpt><trkpt lat="41.8134600027773" lon="12.339758349007434"><ele>3.333333333333333</ele><time>2026-03-26T14:00:02Z</time></trkpt><trkpt lat="41.81348492957426" lon="12.340026436535727"><ele>3.0</ele><time>2026-03-26T14:00:03Z</time></trkpt><trkpt lat="41.8135103946635" lon="12.340307938641722"><ele>4.666666666666666</ele><time>2026-03-26T14:00:04Z</time></trkpt><trkpt lat="41.813535657171705" lon="12.340598358368997"><ele>6.333333333333333</ele><time>2026-03-26T14:00:05Z</time></trkpt><trkpt lat="41.81356240408231" lon="12.34089602368444"><ele>8.0</ele><time>2026-03-26T14:00:06Z</time></trkpt><trkpt lat="41.81358959294151" lon="12.341195618985042"><ele>6.5</ele><time>2026-03-26T14:00:07Z</time></trkpt><trkpt lat="41.81361846712292" lon="12.341499659859682"><ele>5.0</ele><time>2026-03-26T14:00:08Z</time></trkpt><trkpt lat="41.8136437808113" lon="12.34180567039642"><ele>5.0</ele><time>2026-03-26T14:00:09Z</time></trkpt><trkpt lat="41.813667165124016" lon="12.342115555627954"><ele>5.0</ele><time>2026-03-26T14:00:10Z</time></trkpt><trkpt lat="41.81369292176367" lon="12.342427215079999"><ele>5.5</ele><time>2026-03-26T14:00:11Z</time></trkpt><trkpt lat="41.81372106166217" lon="12.342743588551407"><ele>6.0</ele><time>2026-03-26T14:00:12Z</time></trkpt><trkpt lat="41.81375024309407" lon="12.343059296619272"><ele>6.5</ele><time>2026-03-26T14:00:13Z</time></trkpt><trkpt lat="41.81377927530643" lon="12.34337487955714"><ele>7.0</ele><time>2026-03-26T14:00:14Z</time></trkpt><trkpt lat="41.813808434872854" lon="12.343691244824733"><ele>7.0</ele><time>2026-03-26T14:00:15Z</time></trkpt><trkpt lat="41.813832634000725" lon="12.344007655411879"><ele>7.0</ele><time>2026-03-26T14:00:16Z</time></trkpt><trkpt lat="41.81385991641711" lon="12.34432639717887"><ele>7.0</ele><time>2026-03-26T14:00:17Z</time></trkpt><trkpt lat="41.813885331080186" lon="12.344646670123105"><ele>7.0</ele><time>2026-03-26T14:00:18Z</time></trkpt><trkpt lat="41.8139136238392" lon="12.344970134096954"><ele>6.5</ele><time>2026-03-26T14:00:19Z</time></trkpt><trkpt lat="41.81394388292952" lon="12.345299860254848"><ele>6.0</ele><time>2026-03-26T14:00:20Z</time></trkpt><trkpt lat="41.81397248127858" lon="12.345632921049587"><ele>6.0</ele><time>2026-03-26T14:00:21Z</time></trkpt><trkpt lat="41.8140016672841" lon="12.345968941475414"><ele>6.0</ele><time>2026-03-26T14:00:22Z</time></trkpt><trkpt lat="41.81403408082618" lon="12.346308972439715"><ele>6.5</ele><time>2026-03-26T14:00:23Z</time></trkpt><trkpt lat="41.814066317746764" lon="12.346649246807548"><ele>7.0</ele><time>2026-03-26T14:00:24Z</time></trkpt><trkpt lat="41.81409776099773" lon="12.346990361051306"><ele>7.5</ele><time>2026-03-26T14:00:25Z</time></trkpt><trkpt lat="41.814130778102495" lon="12.347335210932759"><ele>8.0</ele><time>2026-03-26T14:00:26Z</time></trkpt><trkpt lat="41.8141693578504" lon="12.34767779365969"><ele>8.0</ele><time>2026-03-26T14:00:27Z</time></trkpt><trkpt lat="41.81420748780911" lon="12.348022273278657"><ele>8.0</ele><time>2026-03-26T14:00:28Z</time></trkpt><trkpt lat="41.814256666847" lon="12.348373828037442"><ele>6.5</ele><time>2026-03-26T14:00:29Z</time></trkpt><trkpt lat="41.814283959849526" lon="12.348731619390271"><ele>5.0</ele><time>2026-03-26T14:00:30Z</time></trkpt><trkpt lat="41.81432132901074" lon="12.349096474430308"><ele>5.0</ele><time>2026-03-26T14:00:31Z</time></trkpt><trkpt lat="41.814355838046254" lon="12.349462739163314"><ele>5.0</ele><time>2026-03-26T14:00:32Z</time></trkpt><trkpt lat="41.81438866907416" lon="12.349831685871825"><ele>5.5</ele><time>2026-03-26T14:00:33Z</time></trkpt><trkpt lat="41.81441832518061" lon="12.350202645546277"><ele>6.0</ele><time>2026-03-26T14:00:34Z</time></trkpt><trkpt lat="41.814442860451734" lon="12.350572470003263"><ele>6.0</ele><time>2026-03-26T14:00:35Z</time></trkpt><trkpt lat="41.81446839694239" lon="12.350942640088482"><ele>6.0</ele><time>2026-03-26T14:00:36Z</time></trkpt><trkpt lat="41.81449540790338" lon="12.351309018314243"><ele>6.5</ele><time>2026-03-26T14:00:37Z</time></trkpt><trkpt lat="41.81454638733195" lon="12.35167258970036"><ele>7.0</ele><time>2026-03-26T14:00:38Z</time></trkpt><trkpt lat="41.81456582399062" lon="12.35204373924235"><ele>7.0</ele><time>2026-03-26T14:00:39Z</time></trkpt><trkpt lat="41.81460333076221" lon="12.352412379432037"><ele>7.0</ele><time>2026-03-26T14:00:40Z</time></trkpt><trkpt lat="41.81464099503444" lon="12.352781534481846"><ele>6.0</ele><time>2026-03-26T14:00:41Z</time></trkpt><trkpt lat="41.81467737869703" lon="12.353151655735747"><ele>5.0</ele><time>2026-03-26T14:00:42Z</time></trkpt><trkpt lat="41.814712900450516" lon="12.353523389131981"><ele>4.5</ele><time>2026-03-26T14:00:43Z</time></trkpt><trkpt lat="41.81474774990752" lon="12.353894799969988"><ele>4.0</ele><time>2026-03-26T14:00:44Z</time></trkpt><trkpt lat="41.81478375496555" lon="12.35426724045729"><ele>4.0</ele><time>2026-03-26T14:00:45Z</time></trkpt><trkpt lat="41.81481967773898" lon="12.354639269585537"><ele>4.0</ele><time>2026-03-26T14:00:46Z</time></trkpt><trkpt lat="41.814853538243064" lon="12.35501036559355"><ele>4.5</ele><time>2026-03-26T14:00:47Z</time></trkpt><trkpt lat="41.81488811590311" lon="12.35538304131295"><ele>5.0</ele><time>2026-03-26T14:00:48Z</time></trkpt><trkpt lat="41.814922389564096" lon="12.355755971146985"><ele>5.0</ele><time>2026-03-26T14:00:49Z</time></trkpt><trkpt lat="41.81495669385252" lon="12.356126965502458"><ele>5.0</ele><time>2026-03-26T14:00:50Z</time></trkpt><trkpt lat="41.8149898212687" lon="12.356497891774598"><ele>4.5</ele><time>2026-03-26T14:00:50.999Z</time></trkpt><trkpt lat="41.815022225576314" lon="12.356869984885757"><ele>4.0</ele><time>2026-03-26T14:00:51.999Z</time></trkpt><trkpt lat="41.81505395790142" lon="12.357240733994315"><ele>4.0</ele><time>2026-03-26T14:00:52.999Z</time></trkpt><trkpt lat="41.81508686244158" lon="12.357612278149904"><ele>4.0</ele><time>2026-03-26T14:00:53.999Z</time></trkpt><trkpt lat="41.81512244732869" lon="12.35798520599525"><ele>4.5</ele><time>2026-03-26T14:00:54.999Z</time></trkpt><trkpt lat="41.81515708610463" lon="12.358357239267614"><ele>5.0</ele><time>2026-03-26T14:00:55.999Z</time></trkpt><trkpt lat="41.81518919962854" lon="12.35873043513024"><ele>4.5</ele><time>2026-03-26T14:00:56.999Z</time></trkpt><trkpt lat="41.81521993930574" lon="12.359104812250859"><ele>4.0</ele><time>2026-03-26T14:00:57.999Z</time></trkpt><trkpt lat="41.81525150115599" lon="12.359479400012333"><ele>5.0</ele><time>2026-03-26T14:00:58.999Z</time></trkpt><trkpt lat="41.81528654434796" lon="12.359853962299743"><ele>6.0</ele><time>2026-03-26T14:00:59.999Z</time></trkpt><trkpt lat="41.815322200977086" lon="12.36022716549076"><ele>6.0</ele><time>2026-03-26T14:01:00.999Z</time></trkpt><trkpt lat="41.81535870166204" lon="12.360599182885498"><ele>6.0</ele><time>2026-03-26T14:01:01.999Z</time></trkpt><trkpt lat="41.815393990182734" lon="12.360970180742648"><ele>6.0</ele><time>2026-03-26T14:01:02.999Z</time></trkpt><trkpt lat="41.81542495217071" lon="12.361340234315751"><ele>6.0</ele><time>2026-03-26T14:01:03.999Z</time></trkpt><trkpt lat="41.81545458021115" lon="12.361705943853885"><ele>5.5</ele><time>2026-03-26T14:01:04.999Z</time></trkpt><trkpt lat="41.81548725654488" lon="12.362072922599356"><ele>5.0</ele><time>2026-03-26T14:01:05.999Z</time></trkpt><trkpt lat="41.815517284531666" lon="12.362441126395671"><ele>5.0</ele><time>2026-03-26T14:01:06.999Z</time></trkpt><trkpt lat="41.81556678382631" lon="12.362804690147827"><ele>5.0</ele><time>2026-03-26T14:01:07.999Z</time></trkpt><trkpt lat="41.81559986851222" lon="12.3631705060564"><ele>6.0</ele><time>2026-03-26T14:01:08.999Z</time></trkpt><trkpt lat="41.81563318361858" lon="12.363538869746568"><ele>7.0</ele><time>2026-03-26T14:01:09.999Z</time></trkpt><trkpt lat="41.81566640311819" lon="12.363906176337835"><ele>7.0</ele><time>2026-03-26T14:01:10.999Z</time></trkpt><trkpt lat="41.81569888133651" lon="12.364265286566578"><ele>7.0</ele><time>2026-03-26T14:01:11.999Z</time></trkpt><trkpt lat="41.81573098283754" lon="12.364620231467741"><ele>5.5</ele><time>2026-03-26T14:01:12.999Z</time></trkpt><trkpt lat="41.81576295025185" lon="12.364973693755344"><ele>4.0</ele><time>2026-03-26T14:01:13.999Z</time></trkpt><trkpt lat="41.81579495466775" lon="12.365327094213042"><ele>4.5</ele><time>2026-03-26T14:01:14.999Z</time></trkpt><trkpt lat="41.815810823928174" lon="12.365683938653719"><ele>5.0</ele><time>2026-03-26T14:01:15.999Z</time></trkpt><trkpt lat="41.81585148793216" lon="12.366036648353697"><ele>5.0</ele><time>2026-03-26T14:01:16.999Z</time></trkpt><trkpt lat="41.81589149760355" lon="12.366389364911804"><ele>5.0</ele><time>2026-03-26T14:01:17.999Z</time></trkpt><trkpt lat="41.81593123892208" lon="12.366745117311536"><ele>5.0</ele><time>2026-03-26T14:01:18.999Z</time></trkpt><trkpt lat="41.81596766239545" lon="12.36710317179461"><ele>5.0</ele><time>2026-03-26T14:01:19.999Z</time></trkpt><trkpt lat="41.81600191324078" lon="12.367466297683976"><ele>5.0</ele><time>2026-03-26T14:01:20.999Z</time></trkpt><trkpt lat="41.81603432258326" lon="12.367829292217195"><ele>5.0</ele><time>2026-03-26T14:01:21.999Z</time></trkpt><trkpt lat="41.81606822525053" lon="12.36819623849189"><ele>5.0</ele><time>2026-03-26T14:01:22.999Z</time></trkpt><trkpt lat="41.816106898978006" lon="12.368560268738632"><ele>5.0</ele><time>2026-03-26T14:01:23.999Z</time></trkpt><trkpt lat="41.81614407354921" lon="12.368927503817725"><ele>5.5</ele><time>2026-03-26T14:01:24.999Z</time></trkpt><trkpt lat="41.81618187711563" lon="12.369294759423482"><ele>6.0</ele><time>2026-03-26T14:01:25.999Z</time></trkpt><trkpt lat="41.81621605028232" lon="12.369660878423938"><ele>6.0</ele><time>2026-03-26T14:01:26.999Z</time></trkpt><trkpt lat="41.81625200539768" lon="12.370034722166169"><ele>6.0</ele><time>2026-03-26T14:01:27.999Z</time></trkpt><trkpt lat="41.81628291222013" lon="12.370407942272534"><ele>6.0</ele><time>2026-03-26T14:01:28.999Z</time></trkpt><trkpt lat="41.81631393097901" lon="12.370785968732768"><ele>6.0</ele><time>2026-03-26T14:01:29.999Z</time></trkpt><trkpt lat="41.81634489920188" lon="12.371166222551796"><ele>6.0</ele><time>2026-03-26T14:01:30.999Z</time></trkpt><trkpt lat="41.816373023121876" lon="12.37154906301718"><ele>6.0</ele><time>2026-03-26T14:01:31.999Z</time></trkpt><trkpt lat="41.81640011013812" lon="12.371933813551228"><ele>5.0</ele><time>2026-03-26T14:01:32.999Z</time></trkpt><trkpt lat="41.81642343919576" lon="12.372314873011536"><ele>4.0</ele><time>2026-03-26T14:01:33.999Z</time></trkpt><trkpt lat="41.816453868069594" lon="12.372697597832586"><ele>4.5</ele><time>2026-03-26T14:01:34.999Z</time></trkpt><trkpt lat="41.81648994568166" lon="12.373074167139032"><ele>5.0</ele><time>2026-03-26T14:01:35.999Z</time></trkpt><trkpt lat="41.81652431455587" lon="12.37344280073479"><ele>5.0</ele><time>2026-03-26T14:01:36.999Z</time></trkpt><trkpt lat="41.816557259175646" lon="12.373799955517883"><ele>5.0</ele><time>2026-03-26T14:01:37.999Z</time></trkpt><trkpt lat="41.816589169746514" lon="12.374151119006182"><ele>5.5</ele><time>2026-03-26T14:01:38.999Z</time></trkpt><trkpt lat="41.81662221837495" lon="12.374498867319904"><ele>6.0</ele><time>2026-03-26T14:01:39.999Z</time></trkpt><trkpt lat="41.816653807883895" lon="12.374842638787099"><ele>5.0</ele><time>2026-03-26T14:01:40.999Z</time></trkpt><trkpt lat="41.8166846101063" lon="12.375181516853518"><ele>4.0</ele><time>2026-03-26T14:01:41.999Z</time></trkpt><trkpt lat="41.8167156231649" lon="12.375516363159486"><ele>5.5</ele><time>2026-03-26T14:01:42.999Z</time></trkpt><trkpt lat="41.816746693190574" lon="12.375847725202751"><ele>7.0</ele><time>2026-03-26T14:01:43.999Z</time></trkpt><trkpt lat="41.81677466975132" lon="12.376177195620906"><ele>7.5</ele><time>2026-03-26T14:01:44.999Z</time></trkpt><trkpt lat="41.81679910440325" lon="12.376504608847231"><ele>8.0</ele><time>2026-03-26T14:01:45.999Z</time></trkpt><trkpt lat="41.816824753631984" lon="12.37682780412664"><ele>7.0</ele><time>2026-03-26T14:01:46.999Z</time></trkpt><trkpt lat="41.8168555338819" lon="12.377153352779589"><ele>6.0</ele><time>2026-03-26T14:01:48Z</time></trkpt><trkpt lat="41.81689038299584" lon="12.377478942262268"><ele>6.0</ele><time>2026-03-26T14:01:49Z</time></trkpt><trkpt lat="41.8169304133193" lon="12.377809692801579"><ele>6.0</ele><time>2026-03-26T14:01:50Z</time></trkpt><trkpt lat="41.81696783441953" lon="12.378143101455494"><ele>6.0</ele><time>2026-03-26T14:01:51Z</time></trkpt><trkpt lat="41.817003748844236" lon="12.37848184036527"><ele>6.0</ele><time>2026-03-26T14:01:52Z</time></trkpt><trkpt lat="41.81703691563476" lon="12.37882126071003"><ele>6.0</ele><time>2026-03-26T14:01:53Z</time></trkpt><trkpt lat="41.817070752356805" lon="12.379164223210973"><ele>6.0</ele><time>2026-03-26T14:01:54Z</time></trkpt><trkpt lat="41.81710293494271" lon="12.379506672459204"><ele>7.0</ele><time>2026-03-26T14:01:55Z</time></trkpt><trkpt lat="41.817130590247245" lon="12.3798499208761"><ele>8.0</ele><time>2026-03-26T14:01:56Z</time></trkpt><trkpt lat="41.81715218814884" lon="12.380191843265973"><ele>7.5</ele><time>2026-03-26T14:01:57Z</time></trkpt><trkpt lat="41.81717374863602" lon="12.380530363491497"><ele>7.0</ele><time>2026-03-26T14:01:58Z</time></trkpt><trkpt lat="41.81719804643123" lon="12.38086718463776"><ele>7.0</ele><time>2026-03-26T14:01:59Z</time></trkpt><trkpt lat="41.81722737510459" lon="12.381200890205214"><ele>7.0</ele><time>2026-03-26T14:02:00Z</time></trkpt><trkpt lat="41.817259491799405" lon="12.381530177320716"><ele>7.0</ele><time>2026-03-26T14:02:01Z</time></trkpt><trkpt lat="41.81729305018629" lon="12.381857929104376"><ele>7.0</ele><time>2026-03-26T14:02:02Z</time></trkpt><trkpt lat="41.81732251691152" lon="12.382183666988537"><ele>7.0</ele><time>2026-03-26T14:02:03Z</time></trkpt><trkpt lat="41.817351738328036" lon="12.382509433740116"><ele>7.0</ele><time>2026-03-26T14:02:04Z</time></trkpt><trkpt lat="41.81737978127902" lon="12.382830233067386"><ele>7.0</ele><time>2026-03-26T14:02:05Z</time></trkpt><trkpt lat="41.81740887742441" lon="12.383132366007898"><ele>7.0</ele><time>2026-03-26T14:02:06Z</time></trkpt><trkpt lat="41.81743347050388" lon="12.383421015122707"><ele>7.0</ele><time>2026-03-26T14:02:07Z</time></trkpt><trkpt lat="41.81745649494518" lon="12.383695068424684"><ele>6.666666666666667</ele><time>2026-03-26T14:02:08Z</time></trkpt><trkpt lat="41.81747933829264" lon="12.383965417790408"><ele>6.333333333333334</ele><time>2026-03-26T14:02:09Z</time></trkpt><trkpt lat="41.81750386467241" lon="12.384242043705305"><ele>6.0</ele><time>2026-03-26T14:02:10Z</time></trkpt><trkpt lat="41.81752808936306" lon="12.38452644277407"><ele>6.666666666666666</ele><time>2026-03-26T14:02:11Z</time></trkpt><trkpt lat="41.817552920208385" lon="12.384814766975554"><ele>7.333333333333333</ele><time>2026-03-26T14:02:12Z</time></trkpt><trkpt lat="41.81757828756445" lon="12.385107997950513"><ele>8.0</ele><time>2026-03-26T14:02:13Z</time></trkpt><trkpt lat="41.81760242304199" lon="12.385405040905761"><ele>8.5</ele><time>2026-03-26T14:02:14Z</time></trkpt><trkpt lat="41.81762619895573" lon="12.38570793743969"><ele>9.0</ele><time>2026-03-26T14:02:15Z</time></trkpt><trkpt lat="41.81764916013448" lon="12.386012598182322"><ele>8.666666666666666</ele><time>2026-03-26T14:02:16Z</time></trkpt><trkpt lat="41.81766803039277" lon="12.38630221658426"><ele>8.333333333333332</ele><time>2026-03-26T14:02:17Z</time></trkpt><trkpt lat="41.81767983861567" lon="12.386574589383981"><ele>8.0</ele><time>2026-03-26T14:02:18Z</time></trkpt><trkpt lat="41.81768893840575" lon="12.386832628488028"><ele>8.0</ele><time>2026-03-26T14:02:19Z</time></trkpt><trkpt lat="41.81769378483732" lon="12.38707827796652"><ele>8.0</ele><time>2026-03-26T14:02:20Z</time></trkpt><trkpt lat="41.817692657349674" lon="12.387312570193533"><ele>8.0</ele><time>2026-03-26T14:02:21Z</time></trkpt><trkpt lat="41.817682936043404" lon="12.387536068816916"><ele>8.5</ele><time>2026-03-26T14:02:22Z</time></trkpt><trkpt lat="41.8176650810265" lon="12.387742997717787"><ele>9.0</ele><time>2026-03-26T14:02:23Z</time></trkpt><trkpt lat="41.81764257717743" lon="12.38793736047349"><ele>9.5</ele><time>2026-03-26T14:02:24Z</time></trkpt><trkpt lat="41.8176138651675" lon="12.388117273648223"><ele>10.0</ele><time>2026-03-26T14:02:25Z</time></trkpt><trkpt lat="41.81757833875327" lon="12.38830248750662"><ele>10.0</ele><time>2026-03-26T14:02:26Z</time></trkpt><trkpt lat="41.81753606185197" lon="12.388492387754082"><ele>10.0</ele><time>2026-03-26T14:02:27Z</time></trkpt><trkpt lat="41.81748639323362" lon="12.388679854368924"><ele>10.0</ele><time>2026-03-26T14:02:28Z</time></trkpt><trkpt lat="41.817432782675674" lon="12.388856017295383"><ele>10.0</ele><time>2026-03-26T14:02:29Z</time></trkpt><trkpt lat="41.81737526435693" lon="12.389022220064266"><ele>9.75</ele><time>2026-03-26T14:02:30Z</time></trkpt><trkpt lat="41.81730969365102" lon="12.389189131742123"><ele>9.5</ele><time>2026-03-26T14:02:31Z</time></trkpt><trkpt lat="41.817235735229076" lon="12.389363022164027"><ele>9.25</ele><time>2026-03-26T14:02:32Z</time></trkpt><trkpt lat="41.81715562586375" lon="12.389542985927415"><ele>9.0</ele><time>2026-03-26T14:02:33Z</time></trkpt><trkpt lat="41.81707154973216" lon="12.389724004208464"><ele>8.666666666666666</ele><time>2026-03-26T14:02:34Z</time></trkpt><trkpt lat="41.816984651143365" lon="12.389912037248607"><ele>8.333333333333332</ele><time>2026-03-26T14:02:35Z</time></trkpt><trkpt lat="41.81689616073109" lon="12.390103174787127"><ele>8.0</ele><time>2026-03-26T14:02:36Z</time></trkpt><trkpt lat="41.81680636338713" lon="12.390299652496179"><ele>8.0</ele><time>2026-03-26T14:02:37Z</time></trkpt><trkpt lat="41.81671955799014" lon="12.390491483463935"><ele>8.0</ele><time>2026-03-26T14:02:38Z</time></trkpt><trkpt lat="41.81662524453152" lon="12.390690618911789"><ele>8.0</ele><time>2026-03-26T14:02:39Z</time></trkpt><trkpt lat="41.81652587954084" lon="12.390902729045404"><ele>8.333333333333332</ele><time>2026-03-26T14:02:40Z</time></trkpt><trkpt lat="41.816429568850474" lon="12.391115498297836"><ele>8.666666666666666</ele><time>2026-03-26T14:02:41Z</time></trkpt><trkpt lat="41.816337892438085" lon="12.391314798103611"><ele>9.0</ele><time>2026-03-26T14:02:42Z</time></trkpt><trkpt lat="41.816246781460656" lon="12.391500291532607"><ele>8.666666666666666</ele><time>2026-03-26T14:02:43Z</time></trkpt><trkpt lat="41.8161531612704" lon="12.391672696800402"><ele>8.333333333333332</ele><time>2026-03-26T14:02:44Z</time></trkpt><trkpt lat="41.8160585847063" lon="12.391837425367779"><ele>8.0</ele><time>2026-03-26T14:02:45Z</time></trkpt><trkpt lat="41.815959205251595" lon="12.391992653742074"><ele>8.0</ele><time>2026-03-26T14:02:46Z</time></trkpt><trkpt lat="41.815853467765905" lon="12.39213925421285"><ele>8.0</ele><time>2026-03-26T14:02:47Z</time></trkpt><trkpt lat="41.81574660298863" lon="12.392274673645765"><ele>8.0</ele><time>2026-03-26T14:02:48Z</time></trkpt><trkpt lat="41.815634718273095" lon="12.392404496349872"><ele>8.0</ele><time>2026-03-26T14:02:49Z</time></trkpt><trkpt lat="41.815517816523155" lon="12.392535225315443"><ele>8.0</ele><time>2026-03-26T14:02:50Z</time></trkpt><trkpt lat="41.81539659082752" lon="12.392669065070828"><ele>8.0</ele><time>2026-03-26T14:02:51Z</time></trkpt><trkpt lat="41.81527278509186" lon="12.39280804889793"><ele>8.0</ele><time>2026-03-26T14:02:52Z</time></trkpt><trkpt lat="41.81514319359818" lon="12.392953521373373"><ele>8.0</ele><time>2026-03-26T14:02:53Z</time></trkpt><trkpt lat="41.815004932258674" lon="12.393106494374646"><ele>8.0</ele><time>2026-03-26T14:02:54Z</time></trkpt><trkpt lat="41.814860334912154" lon="12.393268877708133"><ele>8.0</ele><time>2026-03-26T14:02:55Z</time></trkpt><trkpt lat="41.81470936308205" lon="12.393446794082674"><ele>8.0</ele><time>2026-03-26T14:02:56Z</time></trkpt><trkpt lat="41.81455450340982" lon="12.393634375108286"><ele>8.0</ele><time>2026-03-26T14:02:57Z</time></trkpt><trkpt lat="41.81439579760457" lon="12.393828618057183"><ele>8.0</ele><time>2026-03-26T14:02:58Z</time></trkpt><trkpt lat="41.814232130502134" lon="12.394030720478773"><ele>9.0</ele><time>2026-03-26T14:02:58.999Z</time></trkpt><trkpt lat="41.8140648972468" lon="12.394239318574197"><ele>10.0</ele><time>2026-03-26T14:02:59.999Z</time></trkpt><trkpt lat="41.813899760182245" lon="12.394454300415655"><ele>10.0</ele><time>2026-03-26T14:03:00.999Z</time></trkpt><trkpt lat="41.813735306127995" lon="12.394687298766453"><ele>10.0</ele><time>2026-03-26T14:03:01.999Z</time></trkpt><trkpt lat="41.81357452128514" lon="12.394924764693492"><ele>10.0</ele><time>2026-03-26T14:03:02.999Z</time></trkpt><trkpt lat="41.813422212101976" lon="12.395150059934217"><ele>10.0</ele><time>2026-03-26T14:03:03.999Z</time></trkpt><trkpt lat="41.813280228040455" lon="12.395358615187488"><ele>10.0</ele><time>2026-03-26T14:03:04.999Z</time></trkpt><trkpt lat="41.813148660370004" lon="12.395553537917225"><ele>11.333333333333334</ele><time>2026-03-26T14:03:05.999Z</time></trkpt><trkpt lat="41.81302652283602" lon="12.395738396608662"><ele>12.666666666666668</ele><time>2026-03-26T14:03:06.999Z</time></trkpt><trkpt lat="41.812910113136695" lon="12.395919659018466"><ele>14.0</ele><time>2026-03-26T14:03:07.999Z</time></trkpt><trkpt lat="41.81280321737722" lon="12.39609146564666"><ele>14.0</ele><time>2026-03-26T14:03:08.999Z</time></trkpt><trkpt lat="41.81270270940342" lon="12.396258714230301"><ele>14.0</ele><time>2026-03-26T14:03:09.999Z</time></trkpt><trkpt lat="41.81261105065846" lon="12.39641970062687"><ele>14.0</ele><time>2026-03-26T14:03:10.999Z</time></trkpt><trkpt lat="41.81252228460394" lon="12.396577291949159"><ele>13.0</ele><time>2026-03-26T14:03:11.999Z</time></trkpt><trkpt lat="41.81242886191861" lon="12.396742117846753"><ele>12.0</ele><time>2026-03-26T14:03:12.999Z</time></trkpt><trkpt lat="41.81233774824176" lon="12.396907725930063"><ele>11.0</ele><time>2026-03-26T14:03:13.999Z</time></trkpt><trkpt lat="41.81225165500145" lon="12.397067150565217"><ele>11.333333333333332</ele><time>2026-03-26T14:03:14.999Z</time></trkpt><trkpt lat="41.81216565543143" lon="12.397229039365374"><ele>11.666666666666666</ele><time>2026-03-26T14:03:15.999Z</time></trkpt><trkpt lat="41.812077238332115" lon="12.397400152304861"><ele>12.0</ele><time>2026-03-26T14:03:16.999Z</time></trkpt><trkpt lat="41.81199190011074" lon="12.39756979954774"><ele>12.0</ele><time>2026-03-26T14:03:17.999Z</time></trkpt><trkpt lat="41.8119171558736" lon="12.39772193470546"><ele>12.0</ele><time>2026-03-26T14:03:18.999Z</time></trkpt><trkpt lat="41.811853181641894" lon="12.397854107456649"><ele>12.0</ele><time>2026-03-26T14:03:19.999Z</time></trkpt><trkpt lat="41.81179532054937" lon="12.397975817203223"><ele>12.0</ele><time>2026-03-26T14:03:20.999Z</time></trkpt><trkpt lat="41.811742386978246" lon="12.398091225694033"><ele>11.4</ele><time>2026-03-26T14:03:21.999Z</time></trkpt><trkpt lat="41.81169068565125" lon="12.398207096982508"><ele>10.799999999999999</ele><time>2026-03-26T14:03:22.999Z</time></trkpt><trkpt lat="41.81163536448707" lon="12.398334919034058"><ele>10.2</ele><time>2026-03-26T14:03:23.999Z</time></trkpt><trkpt lat="41.811580077509475" lon="12.398460291881014"><ele>9.6</ele><time>2026-03-26T14:03:24.999Z</time></trkpt><trkpt lat="41.81153553973272" lon="12.398560077269584"><ele>9.0</ele><time>2026-03-26T14:03:25.999Z</time></trkpt><trkpt lat="41.81147907324492" lon="12.398686405253091"><ele>9.0</ele><time>2026-03-26T14:03:27.999Z</time></trkpt><trkpt lat="41.81144965409133" lon="12.39876183209261"><ele>9.0</ele><time>2026-03-26T14:03:28.999Z</time></trkpt><trkpt lat="41.81141740591735" lon="12.398850256817399"><ele>9.0</ele><time>2026-03-26T14:03:29.999Z</time></trkpt><trkpt lat="41.81137766629849" lon="12.39894787365436"><ele>9.0</ele><time>2026-03-26T14:03:30.999Z</time></trkpt><trkpt lat="41.81133651036768" lon="12.399053330568584"><ele>9.0</ele><time>2026-03-26T14:03:31.999Z</time></trkpt><trkpt lat="41.81129897208715" lon="12.399150237514837"><ele>9.0</ele><time>2026-03-26T14:03:32.999Z</time></trkpt><trkpt lat="41.811264284404544" lon="12.39923714659424"><ele>8.666666666666666</ele><time>2026-03-26T14:03:33.999Z</time></trkpt><trkpt lat="41.8112301088636" lon="12.39932308522932"><ele>8.333333333333334</ele><time>2026-03-26T14:03:34.999Z</time></trkpt><trkpt lat="41.8111915437516" lon="12.399421745899238"><ele>8.0</ele><time>2026-03-26T14:03:35.999Z</time></trkpt><trkpt lat="41.811149629178274" lon="12.399530398204458"><ele>7.666666666666667</ele><time>2026-03-26T14:03:36.999Z</time></trkpt><trkpt lat="41.811109595906814" lon="12.39964260062566"><ele>7.333333333333334</ele><time>2026-03-26T14:03:37.999Z</time></trkpt><trkpt lat="41.81107208406436" lon="12.399744596394333"><ele>7.0</ele><time>2026-03-26T14:03:38.999Z</time></trkpt><trkpt lat="41.81103583481495" lon="12.39983742442653"><ele>6.833333333333334</ele><time>2026-03-26T14:03:39.999Z</time></trkpt><trkpt lat="41.811002017891546" lon="12.399928223894188"><ele>6.666666666666667</ele><time>2026-03-26T14:03:40.999Z</time></trkpt><trkpt lat="41.81096998583544" lon="12.400017902842247"><ele>6.5</ele><time>2026-03-26T14:03:41.999Z</time></trkpt><trkpt lat="41.81094103668016" lon="12.40010035517158"><ele>6.333333333333334</ele><time>2026-03-26T14:03:42.999Z</time></trkpt><trkpt lat="41.81088782548662" lon="12.400255607133916"><ele>6.166666666666667</ele><time>2026-03-26T14:03:44.999Z</time></trkpt><trkpt lat="41.810862040732" lon="12.400344189399224"><ele>6.0</ele><time>2026-03-26T14:03:45.999Z</time></trkpt><trkpt lat="41.81083929959996" lon="12.400425927819875"><ele>6.6</ele><time>2026-03-26T14:03:46.999Z</time></trkpt><trkpt lat="41.810796921692706" lon="12.40058165673575"><ele>7.199999999999999</ele><time>2026-03-26T14:03:48.999Z</time></trkpt><trkpt lat="41.8107752237316" lon="12.400669088268534"><ele>7.800000000000001</ele><time>2026-03-26T14:03:49.999Z</time></trkpt><trkpt lat="41.81075236054918" lon="12.400775032666592"><ele>8.4</ele><time>2026-03-26T14:03:50.999Z</time></trkpt><trkpt lat="41.81072783398417" lon="12.400894218522517"><ele>9.0</ele><time>2026-03-26T14:03:51.999Z</time></trkpt><trkpt lat="41.81070186512123" lon="12.401025803111716"><ele>9.0</ele><time>2026-03-26T14:03:52.999Z</time></trkpt><trkpt lat="41.810677481720234" lon="12.401146026419092"><ele>9.0</ele><time>2026-03-26T14:03:54Z</time></trkpt><trkpt lat="41.81065301541482" lon="12.401258678363801"><ele>9.0</ele><time>2026-03-26T14:03:55Z</time></trkpt><trkpt lat="41.81062760268228" lon="12.401364494906897"><ele>9.0</ele><time>2026-03-26T14:03:56Z</time></trkpt><trkpt lat="41.81059977294527" lon="12.401472957209572"><ele>9.0</ele><time>2026-03-26T14:03:57Z</time></trkpt><trkpt lat="41.810571219375724" lon="12.401587446875288"><ele>9.0</ele><time>2026-03-26T14:03:58Z</time></trkpt><trkpt lat="41.810538720899125" lon="12.401695651388515"><ele>9.0</ele><time>2026-03-26T14:03:59Z</time></trkpt><trkpt lat="41.810508130036105" lon="12.401796975446324"><ele>9.0</ele><time>2026-03-26T14:04:00Z</time></trkpt><trkpt lat="41.810483579845204" lon="12.401885404559984"><ele>9.0</ele><time>2026-03-26T14:04:01Z</time></trkpt><trkpt lat="41.81045699114784" lon="12.402035662854171"><ele>9.0</ele><time>2026-03-26T14:04:03Z</time></trkpt><trkpt lat="41.81044183181103" lon="12.402157273763233"><ele>9.0</ele><time>2026-03-26T14:04:05Z</time></trkpt><trkpt lat="41.81042468617065" lon="12.402292732219603"><ele>8.833333333333334</ele><time>2026-03-26T14:04:07Z</time></trkpt><trkpt lat="41.81041027261463" lon="12.40237714934478"><ele>8.666666666666666</ele><time>2026-03-26T14:04:08Z</time></trkpt><trkpt lat="41.81039154507166" lon="12.402474151368978"><ele>8.5</ele><time>2026-03-26T14:04:09Z</time></trkpt><trkpt lat="41.810365907779065" lon="12.40258739711537"><ele>8.333333333333332</ele><time>2026-03-26T14:04:10Z</time></trkpt><trkpt lat="41.810344065886135" lon="12.402692554665983"><ele>8.166666666666666</ele><time>2026-03-26T14:04:11Z</time></trkpt><trkpt lat="41.810325746378574" lon="12.402790152317275"><ele>8.0</ele><time>2026-03-26T14:04:12Z</time></trkpt><trkpt lat="41.810310599959884" lon="12.402884768029413"><ele>7.999999999999999</ele><time>2026-03-26T14:04:13Z</time></trkpt><trkpt lat="41.810297722810496" lon="12.402971409932237"><ele>8.0</ele><time>2026-03-26T14:04:14Z</time></trkpt><trkpt lat="41.81026911943588" lon="12.403131015613692"><ele>8.0</ele><time>2026-03-26T14:04:16Z</time></trkpt><trkpt lat="41.8102291440168" lon="12.403275560394848"><ele>8.0</ele><time>2026-03-26T14:04:18Z</time></trkpt><trkpt lat="41.81020593581809" lon="12.403360869879517"><ele>7.999999999999999</ele><time>2026-03-26T14:04:19Z</time></trkpt><trkpt lat="41.810179249906746" lon="12.403459195058907"><ele>8.0</ele><time>2026-03-26T14:04:20Z</time></trkpt><trkpt lat="41.81015378016333" lon="12.40355897501021"><ele>8.4</ele><time>2026-03-26T14:04:21Z</time></trkpt><trkpt lat="41.81013269840277" lon="12.403649506333052"><ele>8.8</ele><time>2026-03-26T14:04:22Z</time></trkpt><trkpt lat="41.81011483948608" lon="12.4037337679475"><ele>9.2</ele><time>2026-03-26T14:04:23Z</time></trkpt><trkpt lat="41.81008272331326" lon="12.403887371504464"><ele>9.6</ele><time>2026-03-26T14:04:25Z</time></trkpt><trkpt lat="41.81004793305422" lon="12.404052725642037"><ele>10.0</ele><time>2026-03-26T14:04:27Z</time></trkpt><trkpt lat="41.810025693571944" lon="12.40416339076899"><ele>10.0</ele><time>2026-03-26T14:04:28Z</time></trkpt><trkpt lat="41.809999695612454" lon="12.404287354329275"><ele>10.0</ele><time>2026-03-26T14:04:29Z</time></trkpt><trkpt lat="41.809969501485924" lon="12.404416039850812"><ele>10.0</ele><time>2026-03-26T14:04:30Z</time></trkpt><trkpt lat="41.80994059962094" lon="12.404535640001795"><ele>10.0</ele><time>2026-03-26T14:04:31Z</time></trkpt><trkpt lat="41.809913420518676" lon="12.40466346415429"><ele>10.0</ele><time>2026-03-26T14:04:32Z</time></trkpt><trkpt lat="41.80988398724798" lon="12.404812528075022"><ele>9.75</ele><time>2026-03-26T14:04:33Z</time></trkpt><trkpt lat="41.80985238003004" lon="12.40497463499754"><ele>9.5</ele><time>2026-03-26T14:04:34Z</time></trkpt><trkpt lat="41.80982104420795" lon="12.405133928296808"><ele>9.25</ele><time>2026-03-26T14:04:35Z</time></trkpt><trkpt lat="41.80978927655874" lon="12.405278004133189"><ele>9.0</ele><time>2026-03-26T14:04:36Z</time></trkpt><trkpt lat="41.809762119399736" lon="12.405399072562565"><ele>9.0</ele><time>2026-03-26T14:04:37Z</time></trkpt><trkpt lat="41.80974220152803" lon="12.405496403376214"><ele>9.0</ele><time>2026-03-26T14:04:38Z</time></trkpt><trkpt lat="41.809723984467574" lon="12.405581339016445"><ele>9.0</ele><time>2026-03-26T14:04:39Z</time></trkpt><trkpt lat="41.80970646095213" lon="12.40566452192886"><ele>9.0</ele><time>2026-03-26T14:04:40Z</time></trkpt><trkpt lat="41.80967274865485" lon="12.40582513561254"><ele>9.0</ele><time>2026-03-26T14:04:42Z</time></trkpt><trkpt lat="41.80963718277664" lon="12.405996546475867"><ele>9.0</ele><time>2026-03-26T14:04:44Z</time></trkpt><trkpt lat="41.80961319992806" lon="12.406099848652085"><ele>9.0</ele><time>2026-03-26T14:04:45Z</time></trkpt><trkpt lat="41.80958489486084" lon="12.406213271067783"><ele>9.0</ele><time>2026-03-26T14:04:46Z</time></trkpt><trkpt lat="41.809554762793596" lon="12.406345990007862"><ele>9.0</ele><time>2026-03-26T14:04:47Z</time></trkpt><trkpt lat="41.809525781634164" lon="12.406494455368515"><ele>9.0</ele><time>2026-03-26T14:04:48Z</time></trkpt><trkpt lat="41.80948974216523" lon="12.406656812843757"><ele>8.75</ele><time>2026-03-26T14:04:49Z</time></trkpt><trkpt lat="41.80944407330879" lon="12.406841632831103"><ele>8.5</ele><time>2026-03-26T14:04:50Z</time></trkpt><trkpt lat="41.80940167935449" lon="12.407035372320523"><ele>8.25</ele><time>2026-03-26T14:04:51Z</time></trkpt><trkpt lat="41.80936850956652" lon="12.407225787983776"><ele>8.0</ele><time>2026-03-26T14:04:52Z</time></trkpt><trkpt lat="41.80933624068566" lon="12.407407291388031"><ele>8.0</ele><time>2026-03-26T14:04:53Z</time></trkpt><trkpt lat="41.809300963431724" lon="12.407589297823623"><ele>8.0</ele><time>2026-03-26T14:04:54Z</time></trkpt><trkpt lat="41.809264590177065" lon="12.407776486530018"><ele>8.0</ele><time>2026-03-26T14:04:55Z</time></trkpt><trkpt lat="41.80922565680468" lon="12.407970277390332"><ele>8.0</ele><time>2026-03-26T14:04:56Z</time></trkpt><trkpt lat="41.80918447523577" lon="12.408167477482161"><ele>8.0</ele><time>2026-03-26T14:04:57Z</time></trkpt><trkpt lat="41.809143313547594" lon="12.408369596637653"><ele>8.0</ele><time>2026-03-26T14:04:58Z</time></trkpt><trkpt lat="41.80910209354404" lon="12.408577055016965"><ele>8.0</ele><time>2026-03-26T14:04:59Z</time></trkpt><trkpt lat="41.80906076270978" lon="12.408781583719742"><ele>8.333333333333332</ele><time>2026-03-26T14:04:59.999Z</time></trkpt><trkpt lat="41.80902072939461" lon="12.408984698520571"><ele>8.666666666666666</ele><time>2026-03-26T14:05:00.999Z</time></trkpt><trkpt lat="41.80898173773258" lon="12.409190352898403"><ele>9.0</ele><time>2026-03-26T14:05:01.999Z</time></trkpt><trkpt lat="41.808945464212485" lon="12.409399769095195"><ele>9.0</ele><time>2026-03-26T14:05:02.999Z</time></trkpt><trkpt lat="41.80891035909695" lon="12.40960881848115"><ele>9.0</ele><time>2026-03-26T14:05:03.999Z</time></trkpt><trkpt lat="41.80887585077054" lon="12.409800528840641"><ele>9.0</ele><time>2026-03-26T14:05:04.999Z</time></trkpt><trkpt lat="41.808845135070314" lon="12.409972866657036"><ele>9.0</ele><time>2026-03-26T14:05:05.999Z</time></trkpt><trkpt lat="41.808816746360705" lon="12.41013498561616"><ele>9.0</ele><time>2026-03-26T14:05:06.999Z</time></trkpt><trkpt lat="41.808790812144466" lon="12.410290802398816"><ele>9.0</ele><time>2026-03-26T14:05:07.999Z</time></trkpt><trkpt lat="41.808765068836955" lon="12.41044876885979"><ele>9.0</ele><time>2026-03-26T14:05:08.999Z</time></trkpt><trkpt lat="41.80873547442271" lon="12.41061712706841"><ele>9.0</ele><time>2026-03-26T14:05:09.999Z</time></trkpt><trkpt lat="41.80870320932822" lon="12.410793739610481"><ele>9.0</ele><time>2026-03-26T14:05:10.999Z</time></trkpt><trkpt lat="41.80867446061953" lon="12.410968013189937"><ele>9.0</ele><time>2026-03-26T14:05:11.999Z</time></trkpt><trkpt lat="41.80865219864235" lon="12.411120683323155"><ele>9.0</ele><time>2026-03-26T14:05:12.999Z</time></trkpt><trkpt lat="41.808634805440086" lon="12.411245786605365"><ele>9.0</ele><time>2026-03-26T14:05:13.999Z</time></trkpt><trkpt lat="41.80861475369321" lon="12.411371419830223"><ele>9.0</ele><time>2026-03-26T14:05:14.999Z</time></trkpt><trkpt lat="41.80859416988436" lon="12.411507880433826"><ele>9.0</ele><time>2026-03-26T14:05:15.999Z</time></trkpt><trkpt lat="41.808574755379894" lon="12.411642580256384"><ele>9.0</ele><time>2026-03-26T14:05:16.999Z</time></trkpt><trkpt lat="41.808556840425844" lon="12.411786609367923"><ele>9.0</ele><time>2026-03-26T14:05:17.999Z</time></trkpt><trkpt lat="41.80854067180342" lon="12.411933266820645"><ele>9.0</ele><time>2026-03-26T14:05:18.999Z</time></trkpt><trkpt lat="41.808525951768466" lon="12.412083841473608"><ele>9.0</ele><time>2026-03-26T14:05:19.999Z</time></trkpt><trkpt lat="41.80850500444603" lon="12.412241345683702"><ele>9.2</ele><time>2026-03-26T14:05:20.999Z</time></trkpt><trkpt lat="41.80848237382452" lon="12.412394943653823"><ele>9.4</ele><time>2026-03-26T14:05:21.999Z</time></trkpt><trkpt lat="41.8084635845836" lon="12.412536617996087"><ele>9.6</ele><time>2026-03-26T14:05:22.999Z</time></trkpt><trkpt lat="41.80844507567783" lon="12.41266620784491"><ele>9.8</ele><time>2026-03-26T14:05:23.999Z</time></trkpt><trkpt lat="41.808426706508456" lon="12.412800813885026"><ele>10.0</ele><time>2026-03-26T14:05:24.999Z</time></trkpt><trkpt lat="41.8084053981532" lon="12.412948305223667"><ele>10.5</ele><time>2026-03-26T14:05:25.999Z</time></trkpt><trkpt lat="41.808384350642974" lon="12.413108809247909"><ele>11.0</ele><time>2026-03-26T14:05:26.999Z</time></trkpt><trkpt lat="41.80835915264657" lon="12.413277209481295"><ele>11.5</ele><time>2026-03-26T14:05:27.999Z</time></trkpt><trkpt lat="41.8083319266154" lon="12.413450671823345"><ele>12.0</ele><time>2026-03-26T14:05:28.999Z</time></trkpt><trkpt lat="41.80830422274213" lon="12.41362880725679"><ele>12.0</ele><time>2026-03-26T14:05:29.999Z</time></trkpt><trkpt lat="41.80827867209296" lon="12.413803517648804"><ele>12.0</ele><time>2026-03-26T14:05:30.999Z</time></trkpt><trkpt lat="41.80825463193312" lon="12.41397441505164"><ele>12.0</ele><time>2026-03-26T14:05:31.999Z</time></trkpt><trkpt lat="41.808231975294426" lon="12.414147219182414"><ele>12.0</ele><time>2026-03-26T14:05:32.999Z</time></trkpt><trkpt lat="41.8082094004741" lon="12.414325953841482"><ele>12.75</ele><time>2026-03-26T14:05:33.999Z</time></trkpt><trkpt lat="41.80818378884604" lon="12.414512602891177"><ele>13.5</ele><time>2026-03-26T14:05:34.999Z</time></trkpt><trkpt lat="41.80815618904281" lon="12.414708040540026"><ele>14.25</ele><time>2026-03-26T14:05:35.999Z</time></trkpt><trkpt lat="41.80812859277078" lon="12.414911438014617"><ele>15.0</ele><time>2026-03-26T14:05:36.999Z</time></trkpt><trkpt lat="41.80810059746289" lon="12.415123230890925"><ele>15.0</ele><time>2026-03-26T14:05:37.999Z</time></trkpt><trkpt lat="41.808071271981184" lon="12.41534167430649"><ele>15.0</ele><time>2026-03-26T14:05:38.999Z</time></trkpt><trkpt lat="41.80804128049018" lon="12.415562461713474"><ele>15.0</ele><time>2026-03-26T14:05:39.999Z</time></trkpt><trkpt lat="41.80800983378265" lon="12.415787662315582"><ele>14.0</ele><time>2026-03-26T14:05:40.999Z</time></trkpt><trkpt lat="41.8079762617795" lon="12.416011609603586"><ele>13.0</ele><time>2026-03-26T14:05:41.999Z</time></trkpt><trkpt lat="41.807942649491245" lon="12.416236323095045"><ele>12.0</ele><time>2026-03-26T14:05:42.999Z</time></trkpt><trkpt lat="41.80791003324573" lon="12.416464398640683"><ele>11.333333333333334</ele><time>2026-03-26T14:05:43.999Z</time></trkpt><trkpt lat="41.80787590461911" lon="12.416701252639983"><ele>10.666666666666668</ele><time>2026-03-26T14:05:44.999Z</time></trkpt><trkpt lat="41.807842050848855" lon="12.416946266811673"><ele>10.0</ele><time>2026-03-26T14:05:45.999Z</time></trkpt><trkpt lat="41.807807782057786" lon="12.417195327605672"><ele>7.666666666666667</ele><time>2026-03-26T14:05:46.999Z</time></trkpt><trkpt lat="41.807773109851304" lon="12.417450797938786"><ele>5.333333333333334</ele><time>2026-03-26T14:05:47.999Z</time></trkpt><trkpt lat="41.80773713559329" lon="12.417708507747273"><ele>3.0</ele><time>2026-03-26T14:05:48.999Z</time></trkpt><trkpt lat="41.80769862251527" lon="12.41797022537708"><ele>3.333333333333333</ele><time>2026-03-26T14:05:49.999Z</time></trkpt><trkpt lat="41.80763738583493" lon="12.418224551349226"><ele>3.6666666666666665</ele><time>2026-03-26T14:05:50.999Z</time></trkpt><trkpt lat="41.807585021086865" lon="12.418483184110007"><ele>4.0</ele><time>2026-03-26T14:05:51.999Z</time></trkpt><trkpt lat="41.80758650432913" lon="12.4187638905267"><ele>7.333333333333334</ele><time>2026-03-26T14:05:52.999Z</time></trkpt><trkpt lat="41.80754789006228" lon="12.419032872116258"><ele>10.666666666666668</ele><time>2026-03-26T14:05:53.999Z</time></trkpt><trkpt lat="41.807510176696745" lon="12.419303206084363"><ele>14.0</ele><time>2026-03-26T14:05:54.999Z</time></trkpt><trkpt lat="41.80746978494886" lon="12.41957486460019"><ele>14.333333333333334</ele><time>2026-03-26T14:05:55.999Z</time></trkpt><trkpt lat="41.80742926318498" lon="12.419846163780214"><ele>14.666666666666668</ele><time>2026-03-26T14:05:56.999Z</time></trkpt><trkpt lat="41.80738747380563" lon="12.42011861971401"><ele>15.0</ele><time>2026-03-26T14:05:57.999Z</time></trkpt><trkpt lat="41.80734497978963" lon="12.42039550683448"><ele>16.333333333333332</ele><time>2026-03-26T14:05:58.999Z</time></trkpt><trkpt lat="41.80730303442883" lon="12.420675287601094"><ele>17.666666666666664</ele><time>2026-03-26T14:06:00Z</time></trkpt><trkpt lat="41.80725858341411" lon="12.420955384141028"><ele>19.0</ele><time>2026-03-26T14:06:01Z</time></trkpt><trkpt lat="41.80720813554788" lon="12.421237074813288"><ele>19.666666666666664</ele><time>2026-03-26T14:06:02Z</time></trkpt><trkpt lat="41.80715035650133" lon="12.421521745539"><ele>20.333333333333332</ele><time>2026-03-26T14:06:03Z</time></trkpt><trkpt lat="41.807088306552366" lon="12.421800374776613"><ele>21.0</ele><time>2026-03-26T14:06:04Z</time></trkpt><trkpt lat="41.80702452027777" lon="12.422062784383005"><ele>20.666666666666668</ele><time>2026-03-26T14:06:05Z</time></trkpt><trkpt lat="41.806960668257425" lon="12.422312541866006"><ele>20.333333333333336</ele><time>2026-03-26T14:06:06Z</time></trkpt><trkpt lat="41.806894413006155" lon="12.422556524868245"><ele>20.0</ele><time>2026-03-26T14:06:07Z</time></trkpt><trkpt lat="41.80682471412942" lon="12.422808162704758"><ele>21.666666666666668</ele><time>2026-03-26T14:06:08Z</time></trkpt><trkpt lat="41.806751597983386" lon="12.42306483631628"><ele>23.333333333333336</ele><time>2026-03-26T14:06:09Z</time></trkpt><trkpt lat="41.806674244546414" lon="12.423314664377548"><ele>25.0</ele><time>2026-03-26T14:06:10Z</time></trkpt><trkpt lat="41.806594185592374" lon="12.423556903844856"><ele>25.0</ele><time>2026-03-26T14:06:11Z</time></trkpt><trkpt lat="41.806513342731286" lon="12.423801243931203"><ele>25.0</ele><time>2026-03-26T14:06:12Z</time></trkpt><trkpt lat="41.806431646549086" lon="12.424044974829215"><ele>25.0</ele><time>2026-03-26T14:06:13Z</time></trkpt><trkpt lat="41.806349713091265" lon="12.424292783183848"><ele>25.0</ele><time>2026-03-26T14:06:14Z</time></trkpt><trkpt lat="41.806268433219415" lon="12.42454193179356"><ele>25.0</ele><time>2026-03-26T14:06:15Z</time></trkpt><trkpt lat="41.806188030325" lon="12.424792276125688"><ele>25.0</ele><time>2026-03-26T14:06:16Z</time></trkpt><trkpt lat="41.80610620591785" lon="12.425049809787282"><ele>26.666666666666668</ele><time>2026-03-26T14:06:17Z</time></trkpt><trkpt lat="41.80601694603391" lon="12.425314462305769"><ele>28.333333333333336</ele><time>2026-03-26T14:06:18Z</time></trkpt><trkpt lat="41.805917073668724" lon="12.425584231509566"><ele>30.0</ele><time>2026-03-26T14:06:19Z</time></trkpt><trkpt lat="41.80581273450429" lon="12.42585959152076"><ele>32.0</ele><time>2026-03-26T14:06:20Z</time></trkpt><trkpt lat="41.80570913683222" lon="12.42614565100679"><ele>34.0</ele><time>2026-03-26T14:06:21Z</time></trkpt><trkpt lat="41.80560859150444" lon="12.4264393065231"><ele>34.0</ele><time>2026-03-26T14:06:22Z</time></trkpt><trkpt lat="41.80550852949635" lon="12.426736947985397"><ele>34.0</ele><time>2026-03-26T14:06:23Z</time></trkpt><trkpt lat="41.80540864799689" lon="12.427040079387998"><ele>33.5</ele><time>2026-03-26T14:06:24Z</time></trkpt><trkpt lat="41.80530863667993" lon="12.427347197931477"><ele>33.0</ele><time>2026-03-26T14:06:25Z</time></trkpt><trkpt lat="41.80520845421319" lon="12.427653927298975"><ele>32.5</ele><time>2026-03-26T14:06:26Z</time></trkpt><trkpt lat="41.805102917255155" lon="12.42795979143679"><ele>32.0</ele><time>2026-03-26T14:06:27Z</time></trkpt><trkpt lat="41.804995663968654" lon="12.428265845296586"><ele>32.0</ele><time>2026-03-26T14:06:28Z</time></trkpt><trkpt lat="41.80488895496917" lon="12.428571241818492"><ele>32.0</ele><time>2026-03-26T14:06:29Z</time></trkpt><trkpt lat="41.80478237061211" lon="12.428876240225767"><ele>35.0</ele><time>2026-03-26T14:06:30Z</time></trkpt><trkpt lat="41.8046767956292" lon="12.429180399161842"><ele>38.0</ele><time>2026-03-26T14:06:31Z</time></trkpt><trkpt lat="41.80457328931794" lon="12.429485688613996"><ele>40.0</ele><time>2026-03-26T14:06:32Z</time></trkpt><trkpt lat="41.80447085236469" lon="12.429787469592865"><ele>42.0</ele><time>2026-03-26T14:06:33Z</time></trkpt><trkpt lat="41.80436949851104" lon="12.430082905750876"><ele>42.5</ele><time>2026-03-26T14:06:34Z</time></trkpt><trkpt lat="41.804268714366934" lon="12.430380904663622"><ele>43.0</ele><time>2026-03-26T14:06:35Z</time></trkpt><trkpt lat="41.80416862919732" lon="12.430685442935212"><ele>45.0</ele><time>2026-03-26T14:06:36Z</time></trkpt><trkpt lat="41.80406967196214" lon="12.430987538694854"><ele>47.0</ele><time>2026-03-26T14:06:37Z</time></trkpt><trkpt lat="41.80397204471294" lon="12.431292723434064"><ele>46.5</ele><time>2026-03-26T14:06:38Z</time></trkpt><trkpt lat="41.803875258710804" lon="12.43160169154817"><ele>46.0</ele><time>2026-03-26T14:06:39Z</time></trkpt><trkpt lat="41.803787901793044" lon="12.431916157953824"><ele>47.0</ele><time>2026-03-26T14:06:40Z</time></trkpt><trkpt lat="41.80370891643361" lon="12.43222448264204"><ele>48.0</ele><time>2026-03-26T14:06:41Z</time></trkpt><trkpt lat="41.803634820839015" lon="12.432513776425706"><ele>48.0</ele><time>2026-03-26T14:06:42Z</time></trkpt><trkpt lat="41.80356279040437" lon="12.432789908117991"><ele>48.0</ele><time>2026-03-26T14:06:43Z</time></trkpt><trkpt lat="41.80348709091888" lon="12.433067161178494"><ele>48.0</ele><time>2026-03-26T14:06:44Z</time></trkpt><trkpt lat="41.803410412021556" lon="12.433346460363392"><ele>47.5</ele><time>2026-03-26T14:06:45Z</time></trkpt><trkpt lat="41.80333877506629" lon="12.43363286805948"><ele>47.0</ele><time>2026-03-26T14:06:46Z</time></trkpt><trkpt lat="41.80327391974191" lon="12.433929014864763"><ele>47.0</ele><time>2026-03-26T14:06:47Z</time></trkpt><trkpt lat="41.80321873455847" lon="12.43423342206731"><ele>47.0</ele><time>2026-03-26T14:06:48Z</time></trkpt><trkpt lat="41.80317038042749" lon="12.434543991169607"><ele>47.0</ele><time>2026-03-26T14:06:49Z</time></trkpt><trkpt lat="41.803121362008284" lon="12.434861284329552"><ele>47.0</ele><time>2026-03-26T14:06:50Z</time></trkpt><trkpt lat="41.803073302003355" lon="12.435181724206267"><ele>47.5</ele><time>2026-03-26T14:06:51Z</time></trkpt><trkpt lat="41.80302499653866" lon="12.435503118624922"><ele>48.0</ele><time>2026-03-26T14:06:52Z</time></trkpt><trkpt lat="41.80297769636566" lon="12.4358271688441"><ele>48.0</ele><time>2026-03-26T14:06:53Z</time></trkpt><trkpt lat="41.80293274610103" lon="12.43615122873047"><ele>48.0</ele><time>2026-03-26T14:06:54Z</time></trkpt><trkpt lat="41.802893529134465" lon="12.436459523433937"><ele>48.5</ele><time>2026-03-26T14:06:55Z</time></trkpt><trkpt lat="41.80285800951297" lon="12.43676682231112"><ele>49.0</ele><time>2026-03-26T14:06:56Z</time></trkpt><trkpt lat="41.80282495600364" lon="12.437080546987529"><ele>49.0</ele><time>2026-03-26T14:06:57Z</time></trkpt><trkpt lat="41.80279359297286" lon="12.437398097259642"><ele>49.0</ele><time>2026-03-26T14:06:58Z</time></trkpt><trkpt lat="41.80276068473591" lon="12.437715254140022"><ele>50.0</ele><time>2026-03-26T14:06:59Z</time></trkpt><trkpt lat="41.80272814636753" lon="12.438020996705674"><ele>51.0</ele><time>2026-03-26T14:07:00Z</time></trkpt><trkpt lat="41.802698188532965" lon="12.438312629590053"><ele>51.0</ele><time>2026-03-26T14:07:01Z</time></trkpt><trkpt lat="41.80266692623278" lon="12.43860181800034"><ele>51.0</ele><time>2026-03-26T14:07:02Z</time></trkpt><trkpt lat="41.80263895725884" lon="12.43889710237873"><ele>51.0</ele><time>2026-03-26T14:07:03Z</time></trkpt><trkpt lat="41.8026105363582" lon="12.43919460452463"><ele>49.0</ele><time>2026-03-26T14:07:04Z</time></trkpt><trkpt lat="41.802578360365224" lon="12.439494299131912"><ele>47.0</ele><time>2026-03-26T14:07:05Z</time></trkpt><trkpt lat="41.80254562688796" lon="12.439794847523574"><ele>47.0</ele><time>2026-03-26T14:07:05.999Z</time></trkpt><trkpt lat="41.80251409614961" lon="12.440093479014267"><ele>47.0</ele><time>2026-03-26T14:07:06.999Z</time></trkpt><trkpt lat="41.80248050913771" lon="12.440377793428956"><ele>47.0</ele><time>2026-03-26T14:07:07.999Z</time></trkpt><trkpt lat="41.80244598231394" lon="12.44066283535226"><ele>47.0</ele><time>2026-03-26T14:07:08.999Z</time></trkpt><trkpt lat="41.80241016766852" lon="12.440950779375418"><ele>47.0</ele><time>2026-03-26T14:07:09.999Z</time></trkpt><trkpt lat="41.80237545769106" lon="12.441229492743913"><ele>47.0</ele><time>2026-03-26T14:07:10.999Z</time></trkpt><trkpt lat="41.80234110664826" lon="12.441499480936358"><ele>47.0</ele><time>2026-03-26T14:07:11.999Z</time></trkpt><trkpt lat="41.80230772446791" lon="12.441771079506317"><ele>47.0</ele><time>2026-03-26T14:07:12.999Z</time></trkpt><trkpt lat="41.80227432067338" lon="12.442045940151866"><ele>47.0</ele><time>2026-03-26T14:07:13.999Z</time></trkpt><trkpt lat="41.80223975524441" lon="12.442322849510083"><ele>46.0</ele><time>2026-03-26T14:07:14.999Z</time></trkpt><trkpt lat="41.80220367858427" lon="12.44259876989186"><ele>45.0</ele><time>2026-03-26T14:07:15.999Z</time></trkpt><trkpt lat="41.80216635571437" lon="12.442864582748342"><ele>44.0</ele><time>2026-03-26T14:07:16.999Z</time></trkpt><trkpt lat="41.802130996804564" lon="12.443111630780203"><ele>43.33333333333333</ele><time>2026-03-26T14:07:17.999Z</time></trkpt><trkpt lat="41.80210126411038" lon="12.443333765015463"><ele>42.666666666666664</ele><time>2026-03-26T14:07:18.999Z</time></trkpt><trkpt lat="41.80207331538761" lon="12.44354703071028"><ele>42.0</ele><time>2026-03-26T14:07:19.999Z</time></trkpt><trkpt lat="41.80204854787916" lon="12.44375221827467"><ele>42.333333333333336</ele><time>2026-03-26T14:07:20.999Z</time></trkpt><trkpt lat="41.80202442272489" lon="12.44395400408503"><ele>42.66666666666667</ele><time>2026-03-26T14:07:21.999Z</time></trkpt><trkpt lat="41.80200054233592" lon="12.444154646191121"><ele>43.0</ele><time>2026-03-26T14:07:22.999Z</time></trkpt><trkpt lat="41.80197825947952" lon="12.444349586622762"><ele>43.0</ele><time>2026-03-26T14:07:23.999Z</time></trkpt><trkpt lat="41.80195430309377" lon="12.444547523579194"><ele>43.0</ele><time>2026-03-26T14:07:24.999Z</time></trkpt><trkpt lat="41.80193009941863" lon="12.444751670323855"><ele>43.0</ele><time>2026-03-26T14:07:25.999Z</time></trkpt><trkpt lat="41.801905075025466" lon="12.444957042813202"><ele>43.0</ele><time>2026-03-26T14:07:26.999Z</time></trkpt><trkpt lat="41.80187793337028" lon="12.445156986917187"><ele>43.0</ele><time>2026-03-26T14:07:27.999Z</time></trkpt><trkpt lat="41.801854788966054" lon="12.445349974357331"><ele>43.0</ele><time>2026-03-26T14:07:28.999Z</time></trkpt><trkpt lat="41.80183425803545" lon="12.445548176799962"><ele>43.0</ele><time>2026-03-26T14:07:29.999Z</time></trkpt><trkpt lat="41.80181556769035" lon="12.44576046609637"><ele>43.0</ele><time>2026-03-26T14:07:30.999Z</time></trkpt><trkpt lat="41.80179515428027" lon="12.44598300637465"><ele>43.0</ele><time>2026-03-26T14:07:31.999Z</time></trkpt><trkpt lat="41.801772032147326" lon="12.446214739475195"><ele>43.0</ele><time>2026-03-26T14:07:32.999Z</time></trkpt><trkpt lat="41.801745697579314" lon="12.446460055623017"><ele>43.0</ele><time>2026-03-26T14:07:33.999Z</time></trkpt><trkpt lat="41.801717731062524" lon="12.446716126891781"><ele>43.0</ele><time>2026-03-26T14:07:34.999Z</time></trkpt><trkpt lat="41.801688569111064" lon="12.446967953561916"><ele>43.0</ele><time>2026-03-26T14:07:35.999Z</time></trkpt><trkpt lat="41.80165621263515" lon="12.44720762270797"><ele>44.66666666666667</ele><time>2026-03-26T14:07:36.999Z</time></trkpt><trkpt lat="41.80162651267704" lon="12.447439299117745"><ele>46.333333333333336</ele><time>2026-03-26T14:07:37.999Z</time></trkpt><trkpt lat="41.80159823157612" lon="12.447665391531235"><ele>48.0</ele><time>2026-03-26T14:07:38.999Z</time></trkpt><trkpt lat="41.8015681888934" lon="12.44789677213449"><ele>48.33333333333333</ele><time>2026-03-26T14:07:39.999Z</time></trkpt><trkpt lat="41.80154155628234" lon="12.448133925741233"><ele>48.666666666666664</ele><time>2026-03-26T14:07:40.999Z</time></trkpt><trkpt lat="41.801511654259635" lon="12.448380797658247"><ele>49.0</ele><time>2026-03-26T14:07:41.999Z</time></trkpt><trkpt lat="41.8014792141427" lon="12.448631244174434"><ele>49.666666666666664</ele><time>2026-03-26T14:07:42.999Z</time></trkpt><trkpt lat="41.801447916588266" lon="12.448882724295572"><ele>50.33333333333333</ele><time>2026-03-26T14:07:43.999Z</time></trkpt><trkpt lat="41.80141458854735" lon="12.449118340194387"><ele>51.0</ele><time>2026-03-26T14:07:44.999Z</time></trkpt><trkpt lat="41.80138186181599" lon="12.44933251005472"><ele>51.0</ele><time>2026-03-26T14:07:45.999Z</time></trkpt><trkpt lat="41.80135368826788" lon="12.449517188520934"><ele>51.0</ele><time>2026-03-26T14:07:46.999Z</time></trkpt><trkpt lat="41.80133150725631" lon="12.44967225094855"><ele>51.0</ele><time>2026-03-26T14:07:47.999Z</time></trkpt><trkpt lat="41.80131019396949" lon="12.449810680142347"><ele>51.0</ele><time>2026-03-26T14:07:48.999Z</time></trkpt><trkpt lat="41.80129297068282" lon="12.4499345060264"><ele>51.0</ele><time>2026-03-26T14:07:49.999Z</time></trkpt><trkpt lat="41.801278382938065" lon="12.450042168055155"><ele>51.0</ele><time>2026-03-26T14:07:50.999Z</time></trkpt><trkpt lat="41.80126687290273" lon="12.450132220200098"><ele>51.0</ele><time>2026-03-26T14:07:51.999Z</time></trkpt><trkpt lat="41.80124322792446" lon="12.450294169778939"><ele>51.0</ele><time>2026-03-26T14:07:53.999Z</time></trkpt><trkpt lat="41.8012262159047" lon="12.450387789320537"><ele>51.0</ele><time>2026-03-26T14:07:54.999Z</time></trkpt><trkpt lat="41.80120553690813" lon="12.450491018650533"><ele>51.0</ele><time>2026-03-26T14:07:55.999Z</time></trkpt><trkpt lat="41.80118278022387" lon="12.450607748188334"><ele>51.0</ele><time>2026-03-26T14:07:56.999Z</time></trkpt><trkpt lat="41.80115879999366" lon="12.450742564306276"><ele>51.0</ele><time>2026-03-26T14:07:57.999Z</time></trkpt><trkpt lat="41.80113530100749" lon="12.45089278561515"><ele>51.0</ele><time>2026-03-26T14:07:58.999Z</time></trkpt><trkpt lat="41.80110989980421" lon="12.45105512846366"><ele>51.0</ele><time>2026-03-26T14:07:59.999Z</time></trkpt><trkpt lat="41.8010808741655" lon="12.451225484645375"><ele>51.0</ele><time>2026-03-26T14:08:00.999Z</time></trkpt><trkpt lat="41.80105282317371" lon="12.451403307176781"><ele>51.0</ele><time>2026-03-26T14:08:01.999Z</time></trkpt><trkpt lat="41.80102514230238" lon="12.451583055417688"><ele>51.0</ele><time>2026-03-26T14:08:02.999Z</time></trkpt><trkpt lat="41.80099823551669" lon="12.451770010025419"><ele>51.0</ele><time>2026-03-26T14:08:03.999Z</time></trkpt><trkpt lat="41.80097636323367" lon="12.451962588911934"><ele>50.5</ele><time>2026-03-26T14:08:04.999Z</time></trkpt><trkpt lat="41.80095345925385" lon="12.45215275674878"><ele>50.0</ele><time>2026-03-26T14:08:06Z</time></trkpt><trkpt lat="41.800931361303476" lon="12.45233894225677"><ele>49.5</ele><time>2026-03-26T14:08:07Z</time></trkpt><trkpt lat="41.80091370460487" lon="12.4525193765131"><ele>49.0</ele><time>2026-03-26T14:08:08Z</time></trkpt><trkpt lat="41.80089067098244" lon="12.452687537500507"><ele>49.0</ele><time>2026-03-26T14:08:09Z</time></trkpt><trkpt lat="41.80086367230223" lon="12.452857378411846"><ele>49.0</ele><time>2026-03-26T14:08:10Z</time></trkpt><trkpt lat="41.80083755557109" lon="12.45303482000816"><ele>49.0</ele><time>2026-03-26T14:08:11Z</time></trkpt><trkpt lat="41.80081881766791" lon="12.45321759989423"><ele>49.0</ele><time>2026-03-26T14:08:12Z</time></trkpt><trkpt lat="41.80079917537252" lon="12.453388654487487"><ele>49.0</ele><time>2026-03-26T14:08:13Z</time></trkpt><trkpt lat="41.800774747284976" lon="12.453553949582723"><ele>49.0</ele><time>2026-03-26T14:08:14Z</time></trkpt><trkpt lat="41.800752416075326" lon="12.453709695139947"><ele>49.0</ele><time>2026-03-26T14:08:15Z</time></trkpt><trkpt lat="41.800732060333516" lon="12.453873833909553"><ele>49.0</ele><time>2026-03-26T14:08:16Z</time></trkpt><trkpt lat="41.80070670077668" lon="12.454039709639796"><ele>49.0</ele><time>2026-03-26T14:08:17Z</time></trkpt><trkpt lat="41.80068029326696" lon="12.454198654925982"><ele>49.0</ele><time>2026-03-26T14:08:18Z</time></trkpt><trkpt lat="41.80066748936616" lon="12.45435881569857"><ele>49.0</ele><time>2026-03-26T14:08:19Z</time></trkpt><trkpt lat="41.80064594015687" lon="12.454512357296338"><ele>49.0</ele><time>2026-03-26T14:08:20Z</time></trkpt><trkpt lat="41.80063048822106" lon="12.454660028689347"><ele>49.0</ele><time>2026-03-26T14:08:21Z</time></trkpt><trkpt lat="41.80061375890563" lon="12.454818211445254"><ele>49.0</ele><time>2026-03-26T14:08:22Z</time></trkpt><trkpt lat="41.800590977423425" lon="12.45498651472904"><ele>49.0</ele><time>2026-03-26T14:08:23Z</time></trkpt><trkpt lat="41.800568960528445" lon="12.455165303528076"><ele>49.0</ele><time>2026-03-26T14:08:24Z</time></trkpt><trkpt lat="41.800547852663485" lon="12.455345775332532"><ele>48.75</ele><time>2026-03-26T14:08:25Z</time></trkpt><trkpt lat="41.80052781555181" lon="12.455513804034734"><ele>48.5</ele><time>2026-03-26T14:08:26Z</time></trkpt><trkpt lat="41.800508412749885" lon="12.455671984122995"><ele>48.25</ele><time>2026-03-26T14:08:27Z</time></trkpt><trkpt lat="41.800489781544556" lon="12.455820247145292"><ele>48.0</ele><time>2026-03-26T14:08:28Z</time></trkpt><trkpt lat="41.800470811738094" lon="12.455960254441019"><ele>48.0</ele><time>2026-03-26T14:08:29Z</time></trkpt><trkpt lat="41.80045400895252" lon="12.456089095173905"><ele>48.0</ele><time>2026-03-26T14:08:30Z</time></trkpt><trkpt lat="41.80044079821815" lon="12.456209944352644"><ele>48.0</ele><time>2026-03-26T14:08:31Z</time></trkpt><trkpt lat="41.80042929117415" lon="12.456320526578635"><ele>48.0</ele><time>2026-03-26T14:08:32Z</time></trkpt><trkpt lat="41.8004174868834" lon="12.456421251980018"><ele>48.0</ele><time>2026-03-26T14:08:33Z</time></trkpt><trkpt lat="41.800406967806545" lon="12.456509564296967"><ele>48.0</ele><time>2026-03-26T14:08:34Z</time></trkpt><trkpt lat="41.80039014022618" lon="12.456638565023782"><ele>47.666666666666664</ele><time>2026-03-26T14:08:36Z</time></trkpt><trkpt lat="41.80037952076716" lon="12.456762190745133"><ele>47.333333333333336</ele><time>2026-03-26T14:08:40Z</time></trkpt><trkpt lat="41.80036297044487" lon="12.456867643228206"><ele>47.0</ele><time>2026-03-26T14:09:00Z</time></trkpt><trkpt lat="41.80035364774311" lon="12.456984172011042"><ele>46.66666666666667</ele><time>2026-03-26T14:09:02Z</time></trkpt><trkpt lat="41.800342905510924" lon="12.457097940640336"><ele>46.333333333333336</ele><time>2026-03-26T14:09:04Z</time></trkpt><trkpt lat="41.80031225234821" lon="12.45718313339331"><ele>46.0</ele><time>2026-03-26T14:09:06Z</time></trkpt><trkpt lat="41.80028165449588" lon="12.457278132749707"><ele>46.16666666666667</ele><time>2026-03-26T14:09:08Z</time></trkpt><trkpt lat="41.80027123790322" lon="12.457362335304936"><ele>46.333333333333336</ele><time>2026-03-26T14:09:09Z</time></trkpt><trkpt lat="41.800259248660545" lon="12.45746513242105"><ele>46.5</ele><time>2026-03-26T14:09:10Z</time></trkpt><trkpt lat="41.80024672152378" lon="12.457576349136481"><ele>46.666666666666664</ele><time>2026-03-26T14:09:10.999Z</time></trkpt><trkpt lat="41.80023227827574" lon="12.457693745654076"><ele>46.83333333333333</ele><time>2026-03-26T14:09:11.999Z</time></trkpt><trkpt lat="41.800217892717626" lon="12.457819150496395"><ele>47.0</ele><time>2026-03-26T14:09:12.999Z</time></trkpt><trkpt lat="41.80020398075937" lon="12.45795370198661"><ele>47.0</ele><time>2026-03-26T14:09:13.999Z</time></trkpt><trkpt lat="41.800192477241445" lon="12.458094634665667"><ele>47.0</ele><time>2026-03-26T14:09:14.999Z</time></trkpt><trkpt lat="41.80017879987852" lon="12.45824452284828"><ele>47.0</ele><time>2026-03-26T14:09:15.999Z</time></trkpt><trkpt lat="41.800162168545526" lon="12.458396570610008"><ele>47.0</ele><time>2026-03-26T14:09:16.999Z</time></trkpt><trkpt lat="41.80014315274872" lon="12.458537522504514"><ele>47.0</ele><time>2026-03-26T14:09:17.999Z</time></trkpt><trkpt lat="41.8001256808791" lon="12.458680989716942"><ele>45.75</ele><time>2026-03-26T14:09:18.999Z</time></trkpt><trkpt lat="41.80010973830315" lon="12.458830733788888"><ele>44.5</ele><time>2026-03-26T14:09:19.999Z</time></trkpt><trkpt lat="41.80009240325837" lon="12.458981352895687"><ele>43.25</ele><time>2026-03-26T14:09:20.999Z</time></trkpt><trkpt lat="41.800074451417" lon="12.459139679251598"><ele>42.0</ele><time>2026-03-26T14:09:21.999Z</time></trkpt><trkpt lat="41.800052399730895" lon="12.459308084795472"><ele>42.0</ele><time>2026-03-26T14:09:22.999Z</time></trkpt><trkpt lat="41.80003015887083" lon="12.459485437855102"><ele>42.0</ele><time>2026-03-26T14:09:23.999Z</time></trkpt><trkpt lat="41.80000901232235" lon="12.459670476455491"><ele>42.0</ele><time>2026-03-26T14:09:24.999Z</time></trkpt><trkpt lat="41.79998801506168" lon="12.45986513846697"><ele>42.0</ele><time>2026-03-26T14:09:25.999Z</time></trkpt><trkpt lat="41.79996442835993" lon="12.46006480172708"><ele>40.0</ele><time>2026-03-26T14:09:26.999Z</time></trkpt><trkpt lat="41.799936674002936" lon="12.460268552864559"><ele>38.0</ele><time>2026-03-26T14:09:27.999Z</time></trkpt><trkpt lat="41.799908658075815" lon="12.460483245968367"><ele>36.0</ele><time>2026-03-26T14:09:28.999Z</time></trkpt><trkpt lat="41.79988700867049" lon="12.460708957077582"><ele>34.666666666666664</ele><time>2026-03-26T14:09:29.999Z</time></trkpt><trkpt lat="41.79986672456683" lon="12.460945279270522"><ele>33.33333333333333</ele><time>2026-03-26T14:09:30.999Z</time></trkpt><trkpt lat="41.79984422436996" lon="12.46119102179798"><ele>32.0</ele><time>2026-03-26T14:09:31.999Z</time></trkpt><trkpt lat="41.79981800701446" lon="12.461443831523404"><ele>32.0</ele><time>2026-03-26T14:09:32.999Z</time></trkpt><trkpt lat="41.799787758478416" lon="12.46170352806305"><ele>32.0</ele><time>2026-03-26T14:09:33.999Z</time></trkpt><trkpt lat="41.79975587156909" lon="12.461962612902697"><ele>32.0</ele><time>2026-03-26T14:09:34.999Z</time></trkpt><trkpt lat="41.7997243657548" lon="12.462212035984283"><ele>30.666666666666664</ele><time>2026-03-26T14:09:35.999Z</time></trkpt><trkpt lat="41.79969269141456" lon="12.462450798881926"><ele>29.333333333333336</ele><time>2026-03-26T14:09:36.999Z</time></trkpt><trkpt lat="41.79966335630708" lon="12.462691177811518"><ele>28.0</ele><time>2026-03-26T14:09:37.999Z</time></trkpt><trkpt lat="41.79963299230229" lon="12.462934606630046"><ele>27.0</ele><time>2026-03-26T14:09:38.999Z</time></trkpt><trkpt lat="41.799600688486066" lon="12.463182513286673"><ele>26.0</ele><time>2026-03-26T14:09:39.999Z</time></trkpt><trkpt lat="41.79956599154714" lon="12.463434555119797"><ele>25.0</ele><time>2026-03-26T14:09:40.999Z</time></trkpt><trkpt lat="41.79953207814084" lon="12.463693911895264"><ele>25.0</ele><time>2026-03-26T14:09:41.999Z</time></trkpt><trkpt lat="41.79950336646264" lon="12.463960339556127"><ele>25.0</ele><time>2026-03-26T14:09:42.999Z</time></trkpt><trkpt lat="41.79947565610614" lon="12.464227760634198"><ele>25.0</ele><time>2026-03-26T14:09:43.999Z</time></trkpt><trkpt lat="41.79944811324382" lon="12.464481042415837"><ele>25.0</ele><time>2026-03-26T14:09:44.999Z</time></trkpt><trkpt lat="41.79942254756384" lon="12.464731855232788"><ele>25.0</ele><time>2026-03-26T14:09:45.999Z</time></trkpt><trkpt lat="41.79939334915298" lon="12.464983767572306"><ele>25.0</ele><time>2026-03-26T14:09:46.999Z</time></trkpt><trkpt lat="41.79936261083" lon="12.465232185390605"><ele>25.666666666666668</ele><time>2026-03-26T14:09:47.999Z</time></trkpt><trkpt lat="41.79933069502364" lon="12.465479200288843"><ele>26.333333333333336</ele><time>2026-03-26T14:09:48.999Z</time></trkpt><trkpt lat="41.799301375601075" lon="12.465719909228536"><ele>27.0</ele><time>2026-03-26T14:09:49.999Z</time></trkpt><trkpt lat="41.799273129005954" lon="12.465960654493625"><ele>27.0</ele><time>2026-03-26T14:09:50.999Z</time></trkpt><trkpt lat="41.79924826961585" lon="12.46620426076428"><ele>27.0</ele><time>2026-03-26T14:09:51.999Z</time></trkpt><trkpt lat="41.799222022274115" lon="12.46644677801996"><ele>27.0</ele><time>2026-03-26T14:09:52.999Z</time></trkpt><trkpt lat="41.799196203129604" lon="12.466678474452698"><ele>27.5</ele><time>2026-03-26T14:09:53.999Z</time></trkpt><trkpt lat="41.79917109100894" lon="12.466887223722615"><ele>28.0</ele><time>2026-03-26T14:09:54.999Z</time></trkpt><trkpt lat="41.799148157019665" lon="12.467072482431718"><ele>28.5</ele><time>2026-03-26T14:09:55.999Z</time></trkpt><trkpt lat="41.79912891310786" lon="12.46724719345859"><ele>29.0</ele><time>2026-03-26T14:09:56.999Z</time></trkpt><trkpt lat="41.799110480896964" lon="12.467415818034874"><ele>29.499999999999996</ele><time>2026-03-26T14:09:57.999Z</time></trkpt><trkpt lat="41.79909405594771" lon="12.46756531722989"><ele>30.0</ele><time>2026-03-26T14:09:58.999Z</time></trkpt><trkpt lat="41.799081186107784" lon="12.467684605908033"><ele>30.5</ele><time>2026-03-26T14:09:59.999Z</time></trkpt><trkpt lat="41.79907368826902" lon="12.467775208390288"><ele>31.0</ele><time>2026-03-26T14:10:00.999Z</time></trkpt><trkpt lat="41.79906517480478" lon="12.467861863614745"><ele>31.499999999999996</ele><time>2026-03-26T14:10:01.999Z</time></trkpt><trkpt lat="41.799055319849614" lon="12.467946679325891"><ele>32.0</ele><time>2026-03-26T14:10:02.999Z</time></trkpt><trkpt lat="41.79903489241421" lon="12.468107007567399"><ele>33.2</ele><time>2026-03-26T14:10:04.999Z</time></trkpt><trkpt lat="41.79902618793334" lon="12.468191501250367"><ele>34.400000000000006</ele><time>2026-03-26T14:10:05.999Z</time></trkpt><trkpt lat="41.79900110178995" lon="12.468321158764487"><ele>35.599999999999994</ele><time>2026-03-26T14:10:07.999Z</time></trkpt><trkpt lat="41.798967578862985" lon="12.468447200345144"><ele>36.8</ele><time>2026-03-26T14:10:09.999Z</time></trkpt><trkpt lat="41.79892984967394" lon="12.468620355659583"><ele>38.0</ele><time>2026-03-26T14:10:12Z</time></trkpt><trkpt lat="41.798910293554194" lon="12.468738781750323"><ele>39.75</ele><time>2026-03-26T14:10:13Z</time></trkpt><trkpt lat="41.79889043873997" lon="12.468877634203585"><ele>41.5</ele><time>2026-03-26T14:10:14Z</time></trkpt><trkpt lat="41.7988749683205" lon="12.469032436636752"><ele>43.25</ele><time>2026-03-26T14:10:15Z</time></trkpt><trkpt lat="41.79885807127666" lon="12.469200358601546"><ele>45.0</ele><time>2026-03-26T14:10:16Z</time></trkpt><trkpt lat="41.79883575388604" lon="12.469377047403936"><ele>45.0</ele><time>2026-03-26T14:10:17Z</time></trkpt><trkpt lat="41.79881139941625" lon="12.46956516616504"><ele>45.0</ele><time>2026-03-26T14:10:18Z</time></trkpt><trkpt lat="41.79878868209036" lon="12.469761112197938"><ele>45.0</ele><time>2026-03-26T14:10:19Z</time></trkpt><trkpt lat="41.79876369493235" lon="12.469963822651799"><ele>45.0</ele><time>2026-03-26T14:10:20Z</time></trkpt><trkpt lat="41.79873543221652" lon="12.470167994252325"><ele>46.0</ele><time>2026-03-26T14:10:21Z</time></trkpt><trkpt lat="41.798706947907114" lon="12.470375747568527"><ele>47.0</ele><time>2026-03-26T14:10:22Z</time></trkpt><trkpt lat="41.79868058552451" lon="12.470584533853767"><ele>48.0</ele><time>2026-03-26T14:10:23Z</time></trkpt><trkpt lat="41.79865557818533" lon="12.470799040143254"><ele>48.33333333333333</ele><time>2026-03-26T14:10:24Z</time></trkpt><trkpt lat="41.798629051120486" lon="12.471018142290834"><ele>48.666666666666664</ele><time>2026-03-26T14:10:25Z</time></trkpt><trkpt lat="41.798603618078225" lon="12.471238109677616"><ele>49.0</ele><time>2026-03-26T14:10:26Z</time></trkpt><trkpt lat="41.798577337012" lon="12.471464175686622"><ele>49.666666666666664</ele><time>2026-03-26T14:10:27Z</time></trkpt><trkpt lat="41.79854927511279" lon="12.471694687417045"><ele>50.33333333333333</ele><time>2026-03-26T14:10:28Z</time></trkpt><trkpt lat="41.798522293709446" lon="12.471919936818107"><ele>51.0</ele><time>2026-03-26T14:10:29Z</time></trkpt><trkpt lat="41.798494701995104" lon="12.472147496578813"><ele>51.0</ele><time>2026-03-26T14:10:30Z</time></trkpt><trkpt lat="41.798464926259626" lon="12.472375983694647"><ele>51.0</ele><time>2026-03-26T14:10:31Z</time></trkpt><trkpt lat="41.79843730925346" lon="12.472607096361848"><ele>51.0</ele><time>2026-03-26T14:10:32Z</time></trkpt><trkpt lat="41.79841134731818" lon="12.47283952760749"><ele>50.0</ele><time>2026-03-26T14:10:33Z</time></trkpt><trkpt lat="41.79838385740103" lon="12.473072369584585"><ele>49.0</ele><time>2026-03-26T14:10:34Z</time></trkpt><trkpt lat="41.798358042055334" lon="12.473305093452204"><ele>48.0</ele><time>2026-03-26T14:10:35Z</time></trkpt><trkpt lat="41.79833230958648" lon="12.473542131751367"><ele>48.33333333333333</ele><time>2026-03-26T14:10:36Z</time></trkpt><trkpt lat="41.79830870259045" lon="12.47378019766263"><ele>48.666666666666664</ele><time>2026-03-26T14:10:37Z</time></trkpt><trkpt lat="41.79828305793113" lon="12.474019475372911"><ele>49.0</ele><time>2026-03-26T14:10:38Z</time></trkpt><trkpt lat="41.798256302794684" lon="12.474258030943812"><ele>49.0</ele><time>2026-03-26T14:10:39Z</time></trkpt><trkpt lat="41.79822941313811" lon="12.47449758940713"><ele>49.0</ele><time>2026-03-26T14:10:40Z</time></trkpt><trkpt lat="41.79820152543047" lon="12.474723527554236"><ele>49.0</ele><time>2026-03-26T14:10:41Z</time></trkpt><trkpt lat="41.79817224140226" lon="12.474944860124149"><ele>49.666666666666664</ele><time>2026-03-26T14:10:42Z</time></trkpt><trkpt lat="41.79814179815949" lon="12.475171494463114"><ele>50.33333333333333</ele><time>2026-03-26T14:10:43Z</time></trkpt><trkpt lat="41.79811187077369" lon="12.475402813901646"><ele>51.0</ele><time>2026-03-26T14:10:44Z</time></trkpt><trkpt lat="41.79808789729063" lon="12.475639142404997"><ele>51.33333333333333</ele><time>2026-03-26T14:10:45Z</time></trkpt><trkpt lat="41.79806174389455" lon="12.475877920019265"><ele>51.666666666666664</ele><time>2026-03-26T14:10:46Z</time></trkpt><trkpt lat="41.798035329051544" lon="12.476120854017545"><ele>52.0</ele><time>2026-03-26T14:10:47Z</time></trkpt><trkpt lat="41.79800884262007" lon="12.476368007477015"><ele>50.666666666666664</ele><time>2026-03-26T14:10:48Z</time></trkpt><trkpt lat="41.797982259992516" lon="12.476612286377058"><ele>49.33333333333333</ele><time>2026-03-26T14:10:49Z</time></trkpt><trkpt lat="41.79795388993265" lon="12.47684673928174"><ele>48.0</ele><time>2026-03-26T14:10:50Z</time></trkpt><trkpt lat="41.797922380181724" lon="12.477071969259528"><ele>47.333333333333336</ele><time>2026-03-26T14:10:51Z</time></trkpt><trkpt lat="41.79789155764136" lon="12.47730007324528"><ele>46.66666666666667</ele><time>2026-03-26T14:10:52Z</time></trkpt><trkpt lat="41.79786303329426" lon="12.477533998067159"><ele>46.0</ele><time>2026-03-26T14:10:53Z</time></trkpt><trkpt lat="41.797835359339565" lon="12.477772613796628"><ele>46.66666666666667</ele><time>2026-03-26T14:10:54Z</time></trkpt><trkpt lat="41.79780722184399" lon="12.478011723820355"><ele>47.333333333333336</ele><time>2026-03-26T14:10:55Z</time></trkpt><trkpt lat="41.797777686402924" lon="12.478239593683847"><ele>48.0</ele><time>2026-03-26T14:10:56Z</time></trkpt><trkpt lat="41.79774720597219" lon="12.478460425481815"><ele>48.0</ele><time>2026-03-26T14:10:57Z</time></trkpt><trkpt lat="41.797715987866994" lon="12.47867745082187"><ele>48.0</ele><time>2026-03-26T14:10:58Z</time></trkpt><trkpt lat="41.797687143584874" lon="12.478892293181715"><ele>48.0</ele><time>2026-03-26T14:10:59Z</time></trkpt><trkpt lat="41.797660077947945" lon="12.479097780118622"><ele>48.66666666666667</ele><time>2026-03-26T14:11:00Z</time></trkpt><trkpt lat="41.79763330969745" lon="12.479301815681348"><ele>49.333333333333336</ele><time>2026-03-26T14:11:01Z</time></trkpt><trkpt lat="41.79760797367225" lon="12.479509044553073"><ele>50.0</ele><time>2026-03-26T14:11:02Z</time></trkpt><trkpt lat="41.797583278874384" lon="12.479715187382443"><ele>48.0</ele><time>2026-03-26T14:11:03Z</time></trkpt><trkpt lat="41.79755731148189" lon="12.479912219957106"><ele>46.0</ele><time>2026-03-26T14:11:04Z</time></trkpt><trkpt lat="41.79752964645988" lon="12.48011197386573"><ele>44.0</ele><time>2026-03-26T14:11:05Z</time></trkpt><trkpt lat="41.79750327901269" lon="12.480321100586014"><ele>43.33333333333333</ele><time>2026-03-26T14:11:06Z</time></trkpt><trkpt lat="41.79747606470711" lon="12.480536700705883"><ele>42.666666666666664</ele><time>2026-03-26T14:11:07Z</time></trkpt><trkpt lat="41.79745225166571" lon="12.480749874842227"><ele>42.0</ele><time>2026-03-26T14:11:08Z</time></trkpt><trkpt lat="41.7974251433232" lon="12.480956360506747"><ele>42.0</ele><time>2026-03-26T14:11:09Z</time></trkpt><trkpt lat="41.79739831731052" lon="12.481164498271395"><ele>42.0</ele><time>2026-03-26T14:11:10Z</time></trkpt><trkpt lat="41.79737677450301" lon="12.481359116919402"><ele>42.0</ele><time>2026-03-26T14:11:11Z</time></trkpt><trkpt lat="41.79735436667645" lon="12.48153853919651"><ele>42.0</ele><time>2026-03-26T14:11:12Z</time></trkpt><trkpt lat="41.79733210322364" lon="12.481714388020766"><ele>43.0</ele><time>2026-03-26T14:11:13Z</time></trkpt><trkpt lat="41.79730715813542" lon="12.481896180219668"><ele>44.0</ele><time>2026-03-26T14:11:14Z</time></trkpt><trkpt lat="41.79728070145238" lon="12.482088963737692"><ele>45.0</ele><time>2026-03-26T14:11:15Z</time></trkpt><trkpt lat="41.79725865486402" lon="12.482293081780142"><ele>46.0</ele><time>2026-03-26T14:11:16Z</time></trkpt><trkpt lat="41.79723718153774" lon="12.482504958326857"><ele>46.0</ele><time>2026-03-26T14:11:17Z</time></trkpt><trkpt lat="41.797213447697594" lon="12.482721239704402"><ele>46.0</ele><time>2026-03-26T14:11:17.999Z</time></trkpt><trkpt lat="41.79718918019719" lon="12.482936008816122"><ele>46.0</ele><time>2026-03-26T14:11:18.999Z</time></trkpt><trkpt lat="41.79716481443673" lon="12.483145830040275"><ele>45.66666666666667</ele><time>2026-03-26T14:11:19.999Z</time></trkpt><trkpt lat="41.7971387689318" lon="12.48335394017324"><ele>45.333333333333336</ele><time>2026-03-26T14:11:20.999Z</time></trkpt><trkpt lat="41.7971109629048" lon="12.483565243502888"><ele>45.0</ele><time>2026-03-26T14:11:21.999Z</time></trkpt><trkpt lat="41.797080472495374" lon="12.483780805507555"><ele>45.0</ele><time>2026-03-26T14:11:22.999Z</time></trkpt><trkpt lat="41.797050745685944" lon="12.484000723604003"><ele>45.0</ele><time>2026-03-26T14:11:23.999Z</time></trkpt><trkpt lat="41.797021141243924" lon="12.484231059048781"><ele>45.0</ele><time>2026-03-26T14:11:24.999Z</time></trkpt><trkpt lat="41.79699185911827" lon="12.484448771284807"><ele>45.666666666666664</ele><time>2026-03-26T14:11:25.999Z</time></trkpt><trkpt lat="41.79696152770936" lon="12.484669968929339"><ele>46.33333333333333</ele><time>2026-03-26T14:11:26.999Z</time></trkpt><trkpt lat="41.796936716862696" lon="12.484885915072349"><ele>47.0</ele><time>2026-03-26T14:11:27.999Z</time></trkpt><trkpt lat="41.796913719804486" lon="12.485095852068836"><ele>47.0</ele><time>2026-03-26T14:11:28.999Z</time></trkpt><trkpt lat="41.796889140197266" lon="12.485306894317324"><ele>47.0</ele><time>2026-03-26T14:11:29.999Z</time></trkpt><trkpt lat="41.79686677952824" lon="12.485516386533172"><ele>47.0</ele><time>2026-03-26T14:11:30.999Z</time></trkpt><trkpt lat="41.79684914251561" lon="12.485714302966532"><ele>47.25</ele><time>2026-03-26T14:11:31.999Z</time></trkpt><trkpt lat="41.796835482578075" lon="12.485914131121344"><ele>47.5</ele><time>2026-03-26T14:11:32.999Z</time></trkpt><trkpt lat="41.79682379285855" lon="12.48609319399311"><ele>47.75</ele><time>2026-03-26T14:11:33.999Z</time></trkpt><trkpt lat="41.7967974825404" lon="12.486271294163219"><ele>48.0</ele><time>2026-03-26T14:11:34.999Z</time></trkpt><trkpt lat="41.79677234104085" lon="12.486454344159588"><ele>48.5</ele><time>2026-03-26T14:11:35.999Z</time></trkpt><trkpt lat="41.796747137001354" lon="12.486643337765416"><ele>49.0</ele><time>2026-03-26T14:11:36.999Z</time></trkpt><trkpt lat="41.796723802128845" lon="12.486838937069903"><ele>49.5</ele><time>2026-03-26T14:11:37.999Z</time></trkpt><trkpt lat="41.796700795443705" lon="12.487022111121089"><ele>50.0</ele><time>2026-03-26T14:11:38.999Z</time></trkpt><trkpt lat="41.79668022431939" lon="12.487185370685458"><ele>50.25</ele><time>2026-03-26T14:11:39.999Z</time></trkpt><trkpt lat="41.79666036830374" lon="12.487349696528943"><ele>50.5</ele><time>2026-03-26T14:11:40.999Z</time></trkpt><trkpt lat="41.79663712893907" lon="12.487516343186968"><ele>50.75</ele><time>2026-03-26T14:11:41.999Z</time></trkpt><trkpt lat="41.796609822606825" lon="12.487702568480861"><ele>51.0</ele><time>2026-03-26T14:11:42.999Z</time></trkpt><trkpt lat="41.796585793556844" lon="12.487905249971751"><ele>51.0</ele><time>2026-03-26T14:11:43.999Z</time></trkpt><trkpt lat="41.79656244182937" lon="12.48811974348355"><ele>51.0</ele><time>2026-03-26T14:11:44.999Z</time></trkpt><trkpt lat="41.79653708053424" lon="12.488346443994494"><ele>51.0</ele><time>2026-03-26T14:11:45.999Z</time></trkpt><trkpt lat="41.79650833029639" lon="12.488581470719694"><ele>49.333333333333336</ele><time>2026-03-26T14:11:46.999Z</time></trkpt><trkpt lat="41.79647592925252" lon="12.488825624396094"><ele>47.66666666666667</ele><time>2026-03-26T14:11:47.999Z</time></trkpt><trkpt lat="41.796440897009894" lon="12.489078670259241"><ele>46.0</ele><time>2026-03-26T14:11:48.999Z</time></trkpt><trkpt lat="41.79640734658751" lon="12.489334693119522"><ele>47.0</ele><time>2026-03-26T14:11:49.999Z</time></trkpt><trkpt lat="41.79638391109862" lon="12.48959279235261"><ele>48.0</ele><time>2026-03-26T14:11:50.999Z</time></trkpt><trkpt lat="41.79636065455777" lon="12.489847365660772"><ele>49.0</ele><time>2026-03-26T14:11:51.999Z</time></trkpt><trkpt lat="41.79633452092668" lon="12.490082787877423"><ele>49.0</ele><time>2026-03-26T14:11:52.999Z</time></trkpt><trkpt lat="41.79630636650311" lon="12.49030440675943"><ele>49.0</ele><time>2026-03-26T14:11:53.999Z</time></trkpt><trkpt lat="41.796280674255726" lon="12.490518797938416"><ele>49.0</ele><time>2026-03-26T14:11:54.999Z</time></trkpt><trkpt lat="41.79625390091158" lon="12.490737187357638"><ele>50.666666666666664</ele><time>2026-03-26T14:11:55.999Z</time></trkpt><trkpt lat="41.79622642680225" lon="12.490953236803673"><ele>52.33333333333333</ele><time>2026-03-26T14:11:56.999Z</time></trkpt><trkpt lat="41.79619790945238" lon="12.491164848760855"><ele>54.0</ele><time>2026-03-26T14:11:57.999Z</time></trkpt><trkpt lat="41.796171999098235" lon="12.491384184505296"><ele>54.0</ele><time>2026-03-26T14:11:58.999Z</time></trkpt><trkpt lat="41.796148690285655" lon="12.491581929026788"><ele>54.0</ele><time>2026-03-26T14:11:59.999Z</time></trkpt><trkpt lat="41.79612835904543" lon="12.49176017383109"><ele>54.0</ele><time>2026-03-26T14:12:00.999Z</time></trkpt><trkpt lat="41.796112052909656" lon="12.491923594979248"><ele>54.0</ele><time>2026-03-26T14:12:01.999Z</time></trkpt><trkpt lat="41.796101962980934" lon="12.492081405990277"><ele>53.0</ele><time>2026-03-26T14:12:02.999Z</time></trkpt><trkpt lat="41.796093472248494" lon="12.492238327648746"><ele>52.0</ele><time>2026-03-26T14:12:03.999Z</time></trkpt><trkpt lat="41.79608457973952" lon="12.492412391400034"><ele>51.0</ele><time>2026-03-26T14:12:04.999Z</time></trkpt><trkpt lat="41.796069296376764" lon="12.492607821127068"><ele>50.0</ele><time>2026-03-26T14:12:05.999Z</time></trkpt><trkpt lat="41.79604429149903" lon="12.492824154849403"><ele>51.0</ele><time>2026-03-26T14:12:06.999Z</time></trkpt><trkpt lat="41.79601712830472" lon="12.493057796420988"><ele>52.0</ele><time>2026-03-26T14:12:07.999Z</time></trkpt><trkpt lat="41.79598775368437" lon="12.493306388136887"><ele>53.0</ele><time>2026-03-26T14:12:08.999Z</time></trkpt><trkpt lat="41.79595664124254" lon="12.493568165203612"><ele>54.333333333333336</ele><time>2026-03-26T14:12:09.999Z</time></trkpt><trkpt lat="41.795924269735146" lon="12.493841074416652"><ele>55.66666666666667</ele><time>2026-03-26T14:12:10.999Z</time></trkpt><trkpt lat="41.79589260554501" lon="12.494124993210065"><ele>57.0</ele><time>2026-03-26T14:12:11.999Z</time></trkpt><trkpt lat="41.79586050445223" lon="12.494416649029002"><ele>57.0</ele><time>2026-03-26T14:12:12.999Z</time></trkpt><trkpt lat="41.79582831751533" lon="12.494691359482117"><ele>57.0</ele><time>2026-03-26T14:12:13.999Z</time></trkpt><trkpt lat="41.79579503901247" lon="12.494947290154194"><ele>57.0</ele><time>2026-03-26T14:12:14.999Z</time></trkpt><trkpt lat="41.795759925544054" lon="12.495203841725042"><ele>57.33333333333333</ele><time>2026-03-26T14:12:15.999Z</time></trkpt><trkpt lat="41.795725322186314" lon="12.495461112037566"><ele>57.666666666666664</ele><time>2026-03-26T14:12:16.999Z</time></trkpt><trkpt lat="41.79569254549741" lon="12.495721159522075"><ele>58.0</ele><time>2026-03-26T14:12:18Z</time></trkpt><trkpt lat="41.795660792985785" lon="12.49597439697735"><ele>58.0</ele><time>2026-03-26T14:12:19Z</time></trkpt><trkpt lat="41.79562736422771" lon="12.496213506501123"><ele>58.0</ele><time>2026-03-26T14:12:20Z</time></trkpt><trkpt lat="41.795589471071224" lon="12.496446584654116"><ele>58.0</ele><time>2026-03-26T14:12:21Z</time></trkpt><trkpt lat="41.79555672117662" lon="12.496686241626211"><ele>58.33333333333333</ele><time>2026-03-26T14:12:22Z</time></trkpt><trkpt lat="41.79552926705966" lon="12.496921679490253"><ele>58.66666666666667</ele><time>2026-03-26T14:12:23Z</time></trkpt><trkpt lat="41.795508045008376" lon="12.497138205548843"><ele>59.0</ele><time>2026-03-26T14:12:24Z</time></trkpt><trkpt lat="41.79549049206429" lon="12.497360123206114"><ele>59.0</ele><time>2026-03-26T14:12:25Z</time></trkpt><trkpt lat="41.795471170132714" lon="12.497590838053181"><ele>59.0</ele><time>2026-03-26T14:12:26Z</time></trkpt><trkpt lat="41.79544583976607" lon="12.49782458314326"><ele>59.0</ele><time>2026-03-26T14:12:27Z</time></trkpt><trkpt lat="41.795419528199304" lon="12.49803887925916"><ele>59.25</ele><time>2026-03-26T14:12:28Z</time></trkpt><trkpt lat="41.795393630325314" lon="12.498233793456556"><ele>59.5</ele><time>2026-03-26T14:12:29Z</time></trkpt><trkpt lat="41.795369363405456" lon="12.498421399710283"><ele>59.75</ele><time>2026-03-26T14:12:30Z</time></trkpt><trkpt lat="41.7953444782731" lon="12.498609161392524"><ele>60.0</ele><time>2026-03-26T14:12:31Z</time></trkpt><trkpt lat="41.795316667203714" lon="12.49880351884684"><ele>60.25</ele><time>2026-03-26T14:12:32Z</time></trkpt><trkpt lat="41.795289237291165" lon="12.498995913184723"><ele>60.5</ele><time>2026-03-26T14:12:33Z</time></trkpt><trkpt lat="41.79526192953271" lon="12.499174708366436"><ele>60.75</ele><time>2026-03-26T14:12:34Z</time></trkpt><trkpt lat="41.795237503729034" lon="12.499341123716222"><ele>61.0</ele><time>2026-03-26T14:12:35Z</time></trkpt><trkpt lat="41.79521649765706" lon="12.49950199302441"><ele>60.25</ele><time>2026-03-26T14:12:36Z</time></trkpt><trkpt lat="41.79519563807612" lon="12.499663426131894"><ele>59.5</ele><time>2026-03-26T14:12:37Z</time></trkpt><trkpt lat="41.79517122062031" lon="12.49983180358224"><ele>58.75</ele><time>2026-03-26T14:12:38Z</time></trkpt><trkpt lat="41.79514593332472" lon="12.500007598123501"><ele>58.0</ele><time>2026-03-26T14:12:39Z</time></trkpt><trkpt lat="41.79512485565267" lon="12.500181841855118"><ele>58.25</ele><time>2026-03-26T14:12:40Z</time></trkpt><trkpt lat="41.795105171010704" lon="12.50034477380155"><ele>58.5</ele><time>2026-03-26T14:12:41Z</time></trkpt><trkpt lat="41.79508431393444" lon="12.500499815280925"><ele>58.75</ele><time>2026-03-26T14:12:42Z</time></trkpt><trkpt lat="41.795065573677455" lon="12.500649265857467"><ele>59.0</ele><time>2026-03-26T14:12:43Z</time></trkpt><trkpt lat="41.79504637919228" lon="12.500804673797987"><ele>59.0</ele><time>2026-03-26T14:12:44Z</time></trkpt><trkpt lat="41.795025535321955" lon="12.500968507655383"><ele>59.0</ele><time>2026-03-26T14:12:45Z</time></trkpt><trkpt lat="41.79500446562971" lon="12.501138772452093"><ele>59.0</ele><time>2026-03-26T14:12:46Z</time></trkpt><trkpt lat="41.79498266539422" lon="12.501316381434023"><ele>59.0</ele><time>2026-03-26T14:12:47Z</time></trkpt><trkpt lat="41.7949599775176" lon="12.50149418437942"><ele>59.25</ele><time>2026-03-26T14:12:48Z</time></trkpt><trkpt lat="41.794936920401625" lon="12.501670346413086"><ele>59.5</ele><time>2026-03-26T14:12:49Z</time></trkpt><trkpt lat="41.79491182601255" lon="12.501847305531257"><ele>59.75</ele><time>2026-03-26T14:12:50Z</time></trkpt><trkpt lat="41.7948899068097" lon="12.502019022235022"><ele>60.0</ele><time>2026-03-26T14:12:51Z</time></trkpt><trkpt lat="41.794868383085664" lon="12.502188509520742"><ele>59.5</ele><time>2026-03-26T14:12:52Z</time></trkpt><trkpt lat="41.79484677936747" lon="12.50234670723738"><ele>59.0</ele><time>2026-03-26T14:12:53Z</time></trkpt><trkpt lat="41.79482719623545" lon="12.502502485455276"><ele>58.5</ele><time>2026-03-26T14:12:54Z</time></trkpt><trkpt lat="41.79481184873393" lon="12.5026566601199"><ele>58.0</ele><time>2026-03-26T14:12:55Z</time></trkpt><trkpt lat="41.79479736586247" lon="12.502788030331963"><ele>58.0</ele><time>2026-03-26T14:12:56Z</time></trkpt><trkpt lat="41.79478194884418" lon="12.502906272215577"><ele>58.0</ele><time>2026-03-26T14:12:57Z</time></trkpt><trkpt lat="41.794765768370134" lon="12.50303370841143"><ele>58.0</ele><time>2026-03-26T14:12:58Z</time></trkpt><trkpt lat="41.794752222307416" lon="12.503170346117344"><ele>58.0</ele><time>2026-03-26T14:12:59Z</time></trkpt><trkpt lat="41.79473824958047" lon="12.50329546072462"><ele>58.0</ele><time>2026-03-26T14:13:00Z</time></trkpt><trkpt lat="41.794724105960384" lon="12.50340704182148"><ele>57.33333333333333</ele><time>2026-03-26T14:13:01Z</time></trkpt><trkpt lat="41.79471046635304" lon="12.503499843773506"><ele>56.666666666666664</ele><time>2026-03-26T14:13:02Z</time></trkpt><trkpt lat="41.7947012592736" lon="12.503585518669285"><ele>56.0</ele><time>2026-03-26T14:13:03Z</time></trkpt><trkpt lat="41.79469012530339" lon="12.50367027534295"><ele>55.33333333333333</ele><time>2026-03-26T14:13:04Z</time></trkpt><trkpt lat="41.794671402534654" lon="12.503821551389178"><ele>54.666666666666664</ele><time>2026-03-26T14:13:06Z</time></trkpt><trkpt lat="41.794661414148614" lon="12.503907902279781"><ele>54.0</ele><time>2026-03-26T14:13:08Z</time></trkpt><trkpt lat="41.794650017188964" lon="12.504019333045164"><ele>53.5</ele><time>2026-03-26T14:13:10Z</time></trkpt><trkpt lat="41.79463311321089" lon="12.50418086134195"><ele>53.0</ele><time>2026-03-26T14:13:12Z</time></trkpt><trkpt lat="41.79462305835934" lon="12.504273700305882"><ele>52.5</ele><time>2026-03-26T14:13:13Z</time></trkpt><trkpt lat="41.79461125575403" lon="12.504372962568802"><ele>52.0</ele><time>2026-03-26T14:13:14Z</time></trkpt><trkpt lat="41.79460056328621" lon="12.504469477677429"><ele>51.5</ele><time>2026-03-26T14:13:15Z</time></trkpt><trkpt lat="41.79458260858675" lon="12.504611466976451"><ele>51.0</ele><time>2026-03-26T14:13:17Z</time></trkpt><trkpt lat="41.79455738499264" lon="12.504735277459874"><ele>50.4</ele><time>2026-03-26T14:13:19Z</time></trkpt><trkpt lat="41.794540525188154" lon="12.50482791542146"><ele>49.8</ele><time>2026-03-26T14:13:20Z</time></trkpt><trkpt lat="41.79451877309207" lon="12.504935445685657"><ele>49.199999999999996</ele><time>2026-03-26T14:13:21Z</time></trkpt><trkpt lat="41.794501733865054" lon="12.505063826555613"><ele>48.599999999999994</ele><time>2026-03-26T14:13:22Z</time></trkpt><trkpt lat="41.79448438512572" lon="12.505204403262615"><ele>48.0</ele><time>2026-03-26T14:13:23Z</time></trkpt><trkpt lat="41.79446690099493" lon="12.50535776923953"><ele>49.0</ele><time>2026-03-26T14:13:24Z</time></trkpt><trkpt lat="41.79445017104534" lon="12.50552176648408"><ele>50.0</ele><time>2026-03-26T14:13:25Z</time></trkpt><trkpt lat="41.794429800596966" lon="12.505693196715605"><ele>51.0</ele><time>2026-03-26T14:13:26Z</time></trkpt><trkpt lat="41.79440719513191" lon="12.505871124052335"><ele>52.0</ele><time>2026-03-26T14:13:26.999Z</time></trkpt><trkpt lat="41.794383635263955" lon="12.506058313829527"><ele>52.0</ele><time>2026-03-26T14:13:27.999Z</time></trkpt><trkpt lat="41.79436117612466" lon="12.506250327608845"><ele>52.0</ele><time>2026-03-26T14:13:28.999Z</time></trkpt><trkpt lat="41.794338061813" lon="12.506448811933673"><ele>52.0</ele><time>2026-03-26T14:13:29.999Z</time></trkpt><trkpt lat="41.79431591692635" lon="12.50665117851611"><ele>52.0</ele><time>2026-03-26T14:13:30.999Z</time></trkpt><trkpt lat="41.79429406129332" lon="12.50685548010038"><ele>51.666666666666664</ele><time>2026-03-26T14:13:31.999Z</time></trkpt><trkpt lat="41.794271177026715" lon="12.507064857418467"><ele>51.33333333333333</ele><time>2026-03-26T14:13:32.999Z</time></trkpt><trkpt lat="41.79424708731082" lon="12.507277971791087"><ele>51.0</ele><time>2026-03-26T14:13:33.999Z</time></trkpt><trkpt lat="41.794224838548004" lon="12.507492219499177"><ele>52.0</ele><time>2026-03-26T14:13:34.999Z</time></trkpt><trkpt lat="41.79420411774844" lon="12.507713142535382"><ele>53.0</ele><time>2026-03-26T14:13:35.999Z</time></trkpt><trkpt lat="41.79418491096208" lon="12.507930359930253"><ele>54.0</ele><time>2026-03-26T14:13:36.999Z</time></trkpt><trkpt lat="41.794165558970676" lon="12.508147883129668"><ele>54.33333333333333</ele><time>2026-03-26T14:13:37.999Z</time></trkpt><trkpt lat="41.79414810696591" lon="12.508359219130769"><ele>54.666666666666664</ele><time>2026-03-26T14:13:38.999Z</time></trkpt><trkpt lat="41.79413490658967" lon="12.50856986793804"><ele>55.0</ele><time>2026-03-26T14:13:39.999Z</time></trkpt><trkpt lat="41.7941203254115" lon="12.508777748361274"><ele>56.0</ele><time>2026-03-26T14:13:40.999Z</time></trkpt><trkpt lat="41.7941120076017" lon="12.50895813773932"><ele>57.0</ele><time>2026-03-26T14:13:41.999Z</time></trkpt><trkpt lat="41.79410246347596" lon="12.509120771183566"><ele>58.0</ele><time>2026-03-26T14:13:42.999Z</time></trkpt><trkpt lat="41.79408829184964" lon="12.509286774879511"><ele>59.0</ele><time>2026-03-26T14:13:43.999Z</time></trkpt><trkpt lat="41.794078306588005" lon="12.509462832337022"><ele>60.25</ele><time>2026-03-26T14:13:44.999Z</time></trkpt><trkpt lat="41.79406875320387" lon="12.509645782550296"><ele>61.5</ele><time>2026-03-26T14:13:45.999Z</time></trkpt><trkpt lat="41.79406249211711" lon="12.509839413717135"><ele>62.75</ele><time>2026-03-26T14:13:46.999Z</time></trkpt><trkpt lat="41.79405659019659" lon="12.51004233454283"><ele>64.0</ele><time>2026-03-26T14:13:47.999Z</time></trkpt><trkpt lat="41.794049258938564" lon="12.510251550700566"><ele>65.0</ele><time>2026-03-26T14:13:48.999Z</time></trkpt><trkpt lat="41.79404451358716" lon="12.510466532383788"><ele>66.0</ele><time>2026-03-26T14:13:49.999Z</time></trkpt><trkpt lat="41.79404182096979" lon="12.510690344572042"><ele>67.0</ele><time>2026-03-26T14:13:50.999Z</time></trkpt><trkpt lat="41.794040899133485" lon="12.510917554424784"><ele>67.0</ele><time>2026-03-26T14:13:51.999Z</time></trkpt><trkpt lat="41.7940411673986" lon="12.511152058238205"><ele>67.0</ele><time>2026-03-26T14:13:52.999Z</time></trkpt><trkpt lat="41.79404310906324" lon="12.51138584788559"><ele>67.0</ele><time>2026-03-26T14:13:53.999Z</time></trkpt><trkpt lat="41.794044842904384" lon="12.511621035805677"><ele>67.33333333333333</ele><time>2026-03-26T14:13:54.999Z</time></trkpt><trkpt lat="41.79404854782406" lon="12.511855584649949"><ele>67.66666666666667</ele><time>2026-03-26T14:13:55.999Z</time></trkpt><trkpt lat="41.79405442520277" lon="12.51208954226946"><ele>68.0</ele><time>2026-03-26T14:13:56.999Z</time></trkpt><trkpt lat="41.79406752055082" lon="12.512326151864"><ele>69.33333333333334</ele><time>2026-03-26T14:13:57.999Z</time></trkpt><trkpt lat="41.79408377406865" lon="12.512556373087495"><ele>70.66666666666667</ele><time>2026-03-26T14:13:58.999Z</time></trkpt><trkpt lat="41.79410080572403" lon="12.512789290316865"><ele>72.0</ele><time>2026-03-26T14:13:59.999Z</time></trkpt><trkpt lat="41.79411619754938" lon="12.513022050740656"><ele>72.33333333333333</ele><time>2026-03-26T14:14:00.999Z</time></trkpt><trkpt lat="41.794129392811975" lon="12.51325619700313"><ele>72.66666666666666</ele><time>2026-03-26T14:14:01.999Z</time></trkpt><trkpt lat="41.79414365810527" lon="12.513493485041087"><ele>73.0</ele><time>2026-03-26T14:14:02.999Z</time></trkpt><trkpt lat="41.79416078186934" lon="12.513734305455353"><ele>72.33333333333333</ele><time>2026-03-26T14:14:03.999Z</time></trkpt><trkpt lat="41.79418013096805" lon="12.513973039782043"><ele>71.66666666666667</ele><time>2026-03-26T14:14:04.999Z</time></trkpt><trkpt lat="41.7942002788141" lon="12.514218461121722"><ele>71.0</ele><time>2026-03-26T14:14:05.999Z</time></trkpt><trkpt lat="41.79421067651008" lon="12.514460177341464"><ele>69.66666666666667</ele><time>2026-03-26T14:14:06.999Z</time></trkpt><trkpt lat="41.79422603138771" lon="12.51468993739622"><ele>68.33333333333333</ele><time>2026-03-26T14:14:07.999Z</time></trkpt><trkpt lat="41.7942406188825" lon="12.514914395915643"><ele>67.0</ele><time>2026-03-26T14:14:08.999Z</time></trkpt><trkpt lat="41.794256190656824" lon="12.51512437248706"><ele>67.0</ele><time>2026-03-26T14:14:09.999Z</time></trkpt><trkpt lat="41.794272169481744" lon="12.515322077619656"><ele>67.0</ele><time>2026-03-26T14:14:10.999Z</time></trkpt><trkpt lat="41.79428777027313" lon="12.515514098148437"><ele>67.0</ele><time>2026-03-26T14:14:11.999Z</time></trkpt><trkpt lat="41.79430497679203" lon="12.515710816680455"><ele>67.0</ele><time>2026-03-26T14:14:12.999Z</time></trkpt><trkpt lat="41.794317314885404" lon="12.515892515190455"><ele>67.0</ele><time>2026-03-26T14:14:13.999Z</time></trkpt><trkpt lat="41.79432080978467" lon="12.516060946502153"><ele>67.0</ele><time>2026-03-26T14:14:14.999Z</time></trkpt><trkpt lat="41.79430713171827" lon="12.51621684774513"><ele>67.0</ele><time>2026-03-26T14:14:15.999Z</time></trkpt><trkpt lat="41.79427666803776" lon="12.516373628659943"><ele>67.0</ele><time>2026-03-26T14:14:16.999Z</time></trkpt><trkpt lat="41.79424502058647" lon="12.51652920355119"><ele>67.0</ele><time>2026-03-26T14:14:17.999Z</time></trkpt><trkpt lat="41.79422282483007" lon="12.516672987031882"><ele>67.0</ele><time>2026-03-26T14:14:18.999Z</time></trkpt><trkpt lat="41.79421969767564" lon="12.51681101612876"><ele>67.0</ele><time>2026-03-26T14:14:19.999Z</time></trkpt><trkpt lat="41.79422822132333" lon="12.51693761314066"><ele>67.0</ele><time>2026-03-26T14:14:20.999Z</time></trkpt><trkpt lat="41.794237248603906" lon="12.517059413330921"><ele>67.0</ele><time>2026-03-26T14:14:21.999Z</time></trkpt><trkpt lat="41.79424691349901" lon="12.517177402900034"><ele>67.5</ele><time>2026-03-26T14:14:22.999Z</time></trkpt><trkpt lat="41.7942556117952" lon="12.517300161344942"><ele>68.0</ele><time>2026-03-26T14:14:24Z</time></trkpt><trkpt lat="41.794253919673" lon="12.517407856524523"><ele>68.5</ele><time>2026-03-26T14:14:25Z</time></trkpt><trkpt lat="41.79424383220616" lon="12.517504453824062"><ele>69.0</ele><time>2026-03-26T14:14:26Z</time></trkpt><trkpt lat="41.794257327511396" lon="12.517597389125418"><ele>69.5</ele><time>2026-03-26T14:14:27Z</time></trkpt><trkpt lat="41.79427505838799" lon="12.517703245050916"><ele>70.0</ele><time>2026-03-26T14:14:28Z</time></trkpt><trkpt lat="41.79422178989192" lon="12.517831209829886"><ele>70.33333333333333</ele><time>2026-03-26T14:14:29Z</time></trkpt><trkpt lat="41.79420217282107" lon="12.517930845752252"><ele>70.66666666666666</ele><time>2026-03-26T14:14:30Z</time></trkpt><trkpt lat="41.79417776815269" lon="12.518016871888229"><ele>71.0</ele><time>2026-03-26T14:14:31Z</time></trkpt><trkpt lat="41.79413193041775" lon="12.51814316605229"><ele>71.33333333333333</ele><time>2026-03-26T14:14:33Z</time></trkpt><trkpt lat="41.79407332734765" lon="12.518238032093095"><ele>71.66666666666667</ele><time>2026-03-26T14:14:35Z</time></trkpt><trkpt lat="41.79404043897147" lon="12.518321244494862"><ele>72.0</ele><time>2026-03-26T14:14:37Z</time></trkpt><trkpt lat="41.794189694487045" lon="12.518647025117495"><ele>72.0</ele><time>2026-03-26T14:35:01.999Z</time></trkpt><trkpt lat="41.794222589853135" lon="12.518738300682358"><ele>72.0</ele><time>2026-03-26T14:35:03.999Z</time></trkpt><trkpt lat="41.7943110445448" lon="12.51872410046091"><ele>72.0</ele><time>2026-03-26T14:35:04.999Z</time></trkpt><trkpt lat="41.79436645304021" lon="12.518809587092566"><ele>72.0</ele><time>2026-03-26T14:35:06.999Z</time></trkpt><trkpt lat="41.7944466000819" lon="12.518932450085828"><ele>72.0</ele><time>2026-03-26T14:35:08.999Z</time></trkpt><trkpt lat="41.794445754253566" lon="12.519107198981269"><ele>70.4</ele><time>2026-03-26T14:35:09.999Z</time></trkpt><trkpt lat="41.79444918623609" lon="12.519264642574957"><ele>68.80000000000001</ele><time>2026-03-26T14:35:11.999Z</time></trkpt><trkpt lat="41.7944536901388" lon="12.519411565183919"><ele>67.2</ele><time>2026-03-26T14:35:13.999Z</time></trkpt><trkpt lat="41.79447823045992" lon="12.519550264714407"><ele>65.60000000000001</ele><time>2026-03-26T14:35:15.999Z</time></trkpt><trkpt lat="41.79449604089144" lon="12.519638890884487"><ele>64.0</ele><time>2026-03-26T14:35:16.999Z</time></trkpt><trkpt lat="41.79452552185445" lon="12.519741298887844"><ele>64.0</ele><time>2026-03-26T14:35:17.999Z</time></trkpt><trkpt lat="41.794564744344115" lon="12.519855686680897"><ele>64.0</ele><time>2026-03-26T14:35:18.999Z</time></trkpt><trkpt lat="41.794605422559755" lon="12.519986184571001"><ele>64.0</ele><time>2026-03-26T14:35:19.999Z</time></trkpt><trkpt lat="41.794657062403466" lon="12.52012235154584"><ele>64.0</ele><time>2026-03-26T14:35:20.999Z</time></trkpt><trkpt lat="41.79466386219678" lon="12.520287724912805"><ele>64.0</ele><time>2026-03-26T14:35:22Z</time></trkpt><trkpt lat="41.794684930808266" lon="12.52046115038574"><ele>64.0</ele><time>2026-03-26T14:35:23Z</time></trkpt><trkpt lat="41.79473026985895" lon="12.520631503376908"><ele>64.0</ele><time>2026-03-26T14:35:24Z</time></trkpt><trkpt lat="41.79472081243654" lon="12.520839171886674"><ele>64.0</ele><time>2026-03-26T14:35:25Z</time></trkpt><trkpt lat="41.79473716067282" lon="12.521037521169992"><ele>64.0</ele><time>2026-03-26T14:35:26Z</time></trkpt><trkpt lat="41.7947543681627" lon="12.52123719598696"><ele>64.0</ele><time>2026-03-26T14:35:27Z</time></trkpt><trkpt lat="41.79477115527283" lon="12.521434719457497"><ele>64.0</ele><time>2026-03-26T14:35:28Z</time></trkpt><trkpt lat="41.794789041151105" lon="12.521635205119287"><ele>64.0</ele><time>2026-03-26T14:35:29Z</time></trkpt><trkpt lat="41.7948059424002" lon="12.521837983486726"><ele>64.0</ele><time>2026-03-26T14:35:30Z</time></trkpt><trkpt lat="41.794822419337805" lon="12.522039560626173"><ele>64.0</ele><time>2026-03-26T14:35:31Z</time></trkpt><trkpt lat="41.79484231992838" lon="12.522239117824006"><ele>64.0</ele><time>2026-03-26T14:35:32Z</time></trkpt><trkpt lat="41.79485993499754" lon="12.522428742854197"><ele>64.0</ele><time>2026-03-26T14:35:33Z</time></trkpt><trkpt lat="41.794876151008424" lon="12.522614960729333"><ele>64.0</ele><time>2026-03-26T14:35:34Z</time></trkpt><trkpt lat="41.7948925936773" lon="12.522802063330147"><ele>64.0</ele><time>2026-03-26T14:35:35Z</time></trkpt><trkpt lat="41.79490978911953" lon="12.52298873776852"><ele>64.0</ele><time>2026-03-26T14:35:36Z</time></trkpt><trkpt lat="41.794926673313554" lon="12.523172153140987"><ele>64.0</ele><time>2026-03-26T14:35:37Z</time></trkpt><trkpt lat="41.794948900692084" lon="12.523357531159155"><ele>64.0</ele><time>2026-03-26T14:35:38Z</time></trkpt><trkpt lat="41.794966270557325" lon="12.523532328732161"><ele>64.0</ele><time>2026-03-26T14:35:39Z</time></trkpt><trkpt lat="41.794981529361735" lon="12.523692151957464"><ele>64.0</ele><time>2026-03-26T14:35:40Z</time></trkpt><trkpt lat="41.79499632165482" lon="12.523844114705343"><ele>64.0</ele><time>2026-03-26T14:35:41Z</time></trkpt><trkpt lat="41.7950099543143" lon="12.52399581896932"><ele>64.25</ele><time>2026-03-26T14:35:42Z</time></trkpt><trkpt lat="41.795024162810165" lon="12.524151143513908"><ele>64.5</ele><time>2026-03-26T14:35:43Z</time></trkpt><trkpt lat="41.79503671473169" lon="12.524315774184775"><ele>64.75</ele><time>2026-03-26T14:35:44Z</time></trkpt><trkpt lat="41.7950514055886" lon="12.524491753990235"><ele>65.0</ele><time>2026-03-26T14:35:45Z</time></trkpt><trkpt lat="41.79507047240363" lon="12.524677509051731"><ele>65.66666666666667</ele><time>2026-03-26T14:35:46Z</time></trkpt><trkpt lat="41.7950958867326" lon="12.52487305901752"><ele>66.33333333333333</ele><time>2026-03-26T14:35:47Z</time></trkpt><trkpt lat="41.79512100469981" lon="12.52507794418742"><ele>67.0</ele><time>2026-03-26T14:35:48Z</time></trkpt><trkpt lat="41.79514845990323" lon="12.525288408180653"><ele>65.0</ele><time>2026-03-26T14:35:49Z</time></trkpt><trkpt lat="41.795178961027695" lon="12.525503319630621"><ele>63.0</ele><time>2026-03-26T14:35:50Z</time></trkpt><trkpt lat="41.79521281140232" lon="12.525724145954914"><ele>61.0</ele><time>2026-03-26T14:35:51Z</time></trkpt><trkpt lat="41.79524715585644" lon="12.525947335947373"><ele>61.0</ele><time>2026-03-26T14:35:52Z</time></trkpt><trkpt lat="41.79528391587407" lon="12.526165667778558"><ele>61.0</ele><time>2026-03-26T14:35:53Z</time></trkpt><trkpt lat="41.79532242550901" lon="12.52637182538993"><ele>61.0</ele><time>2026-03-26T14:35:54Z</time></trkpt><trkpt lat="41.79536036040057" lon="12.526562192313213"><ele>60.75</ele><time>2026-03-26T14:35:55Z</time></trkpt><trkpt lat="41.79539658754711" lon="12.526748169209156"><ele>60.5</ele><time>2026-03-26T14:35:56Z</time></trkpt><trkpt lat="41.795433063516626" lon="12.526927768145985"><ele>60.25</ele><time>2026-03-26T14:35:57Z</time></trkpt><trkpt lat="41.79547034621881" lon="12.527108834776097"><ele>60.0</ele><time>2026-03-26T14:35:58Z</time></trkpt><trkpt lat="41.79550591017928" lon="12.527294968038442"><ele>60.75</ele><time>2026-03-26T14:35:59Z</time></trkpt><trkpt lat="41.79554406525443" lon="12.527483925052607"><ele>61.5</ele><time>2026-03-26T14:36:00Z</time></trkpt><trkpt lat="41.795582502207814" lon="12.52767368903003"><ele>62.25</ele><time>2026-03-26T14:36:01Z</time></trkpt><trkpt lat="41.79561965302709" lon="12.527859728303284"><ele>63.0</ele><time>2026-03-26T14:36:02Z</time></trkpt><trkpt lat="41.79565620500276" lon="12.528041275408127"><ele>63.0</ele><time>2026-03-26T14:36:03Z</time></trkpt><trkpt lat="41.795693394829016" lon="12.528224141271263"><ele>63.0</ele><time>2026-03-26T14:36:04Z</time></trkpt><trkpt lat="41.795732576976356" lon="12.52841061246353"><ele>63.0</ele><time>2026-03-26T14:36:05Z</time></trkpt><trkpt lat="41.79577260682175" lon="12.528596577462904"><ele>63.0</ele><time>2026-03-26T14:36:06Z</time></trkpt><trkpt lat="41.79581203445238" lon="12.528785930558934"><ele>62.66666666666667</ele><time>2026-03-26T14:36:07Z</time></trkpt><trkpt lat="41.795852497756776" lon="12.528976378110608"><ele>62.333333333333336</ele><time>2026-03-26T14:36:08Z</time></trkpt><trkpt lat="41.79589332245232" lon="12.529170708426971"><ele>62.0</ele><time>2026-03-26T14:36:09Z</time></trkpt><trkpt lat="41.795936755781035" lon="12.529369185955325"><ele>61.66666666666667</ele><time>2026-03-26T14:36:10Z</time></trkpt><trkpt lat="41.79598089130438" lon="12.529566211099542"><ele>61.33333333333333</ele><time>2026-03-26T14:36:11Z</time></trkpt><trkpt lat="41.79602269853044" lon="12.52975711781487"><ele>61.0</ele><time>2026-03-26T14:36:12Z</time></trkpt><trkpt lat="41.79606316622119" lon="12.52995173117627"><ele>61.666666666666664</ele><time>2026-03-26T14:36:13Z</time></trkpt><trkpt lat="41.796104570481056" lon="12.530150673070299"><ele>62.33333333333333</ele><time>2026-03-26T14:36:14Z</time></trkpt><trkpt lat="41.79614619734362" lon="12.53035229464108"><ele>63.0</ele><time>2026-03-26T14:36:15Z</time></trkpt><trkpt lat="41.79618797447473" lon="12.530548247098714"><ele>63.0</ele><time>2026-03-26T14:36:16Z</time></trkpt><trkpt lat="41.79622841690228" lon="12.530730565487904"><ele>63.0</ele><time>2026-03-26T14:36:17Z</time></trkpt><trkpt lat="41.79626553951051" lon="12.530910806927853"><ele>63.0</ele><time>2026-03-26T14:36:18Z</time></trkpt><trkpt lat="41.79630554023362" lon="12.531095106876545"><ele>63.0</ele><time>2026-03-26T14:36:19Z</time></trkpt><trkpt lat="41.79635262774553" lon="12.531283894958223"><ele>63.0</ele><time>2026-03-26T14:36:20Z</time></trkpt><trkpt lat="41.79640405138849" lon="12.53148505413816"><ele>63.0</ele><time>2026-03-26T14:36:21Z</time></trkpt><trkpt lat="41.796454494278464" lon="12.531697376642898"><ele>63.0</ele><time>2026-03-26T14:36:22Z</time></trkpt><trkpt lat="41.79651285625802" lon="12.531913169555564"><ele>63.66666666666667</ele><time>2026-03-26T14:36:23Z</time></trkpt><trkpt lat="41.79657840742315" lon="12.532137110599955"><ele>64.33333333333334</ele><time>2026-03-26T14:36:24Z</time></trkpt><trkpt lat="41.79663568140251" lon="12.532387146194429"><ele>65.0</ele><time>2026-03-26T14:36:25Z</time></trkpt><trkpt lat="41.79668462679131" lon="12.532640008884224"><ele>66.33333333333334</ele><time>2026-03-26T14:36:26Z</time></trkpt><trkpt lat="41.79673508926842" lon="12.53289028993439"><ele>67.66666666666667</ele><time>2026-03-26T14:36:27Z</time></trkpt><trkpt lat="41.796788034508154" lon="12.533125532520007"><ele>69.0</ele><time>2026-03-26T14:36:28Z</time></trkpt><trkpt lat="41.79684321899726" lon="12.533354940817778"><ele>69.66666666666667</ele><time>2026-03-26T14:36:29Z</time></trkpt><trkpt lat="41.79689800754348" lon="12.533588501459858"><ele>70.33333333333334</ele><time>2026-03-26T14:36:30Z</time></trkpt><trkpt lat="41.79694531664992" lon="12.533828132497097"><ele>71.0</ele><time>2026-03-26T14:36:30.999Z</time></trkpt><trkpt lat="41.79699275216549" lon="12.53406430903523"><ele>71.33333333333334</ele><time>2026-03-26T14:36:31.999Z</time></trkpt><trkpt lat="41.79704370462156" lon="12.53427724632114"><ele>71.66666666666667</ele><time>2026-03-26T14:36:32.999Z</time></trkpt><trkpt lat="41.797092458210194" lon="12.534472335761023"><ele>72.0</ele><time>2026-03-26T14:36:33.999Z</time></trkpt><trkpt lat="41.797134666818565" lon="12.534676219529798"><ele>72.0</ele><time>2026-03-26T14:36:34.999Z</time></trkpt><trkpt lat="41.79717790931841" lon="12.534887491025357"><ele>72.0</ele><time>2026-03-26T14:36:35.999Z</time></trkpt><trkpt lat="41.79722332974835" lon="12.535108708773876"><ele>72.0</ele><time>2026-03-26T14:36:36.999Z</time></trkpt><trkpt lat="41.797272610705996" lon="12.535331610232461"><ele>72.25</ele><time>2026-03-26T14:36:37.999Z</time></trkpt><trkpt lat="41.797325116508006" lon="12.535535307599703"><ele>72.5</ele><time>2026-03-26T14:36:38.999Z</time></trkpt><trkpt lat="41.79736523615609" lon="12.535697768121105"><ele>72.75</ele><time>2026-03-26T14:36:39.999Z</time></trkpt><trkpt lat="41.797396546569125" lon="12.535828637198007"><ele>73.0</ele><time>2026-03-26T14:36:40.999Z</time></trkpt><trkpt lat="41.79743330031344" lon="12.535958007319838"><ele>73.0</ele><time>2026-03-26T14:36:41.999Z</time></trkpt><trkpt lat="41.797472814151206" lon="12.536106402277293"><ele>73.0</ele><time>2026-03-26T14:36:42.999Z</time></trkpt><trkpt lat="41.797512521532006" lon="12.53626570746677"><ele>73.0</ele><time>2026-03-26T14:36:43.999Z</time></trkpt><trkpt lat="41.797565148213565" lon="12.536445485572994"><ele>73.0</ele><time>2026-03-26T14:36:44.999Z</time></trkpt><trkpt lat="41.797610044336565" lon="12.53664473263097"><ele>72.8</ele><time>2026-03-26T14:36:45.999Z</time></trkpt><trkpt lat="41.797628189582696" lon="12.536812104365959"><ele>72.6</ele><time>2026-03-26T14:36:46.999Z</time></trkpt><trkpt lat="41.79764450144118" lon="12.536961136835275"><ele>72.4</ele><time>2026-03-26T14:36:47.999Z</time></trkpt><trkpt lat="41.79765883298163" lon="12.537089089511463"><ele>72.2</ele><time>2026-03-26T14:36:48.999Z</time></trkpt><trkpt lat="41.797669031636424" lon="12.537196145400953"><ele>72.0</ele><time>2026-03-26T14:36:49.999Z</time></trkpt><trkpt lat="41.79768995810235" lon="12.537335325977002"><ele>72.0</ele><time>2026-03-26T14:36:51.999Z</time></trkpt><trkpt lat="41.79770595280052" lon="12.53744844176518"><ele>72.0</ele><time>2026-03-26T14:36:54.999Z</time></trkpt><trkpt lat="41.79772394497659" lon="12.537549420526286"><ele>72.0</ele><time>2026-03-26T14:36:56.999Z</time></trkpt><trkpt lat="41.797745821099134" lon="12.537702367595015"><ele>72.0</ele><time>2026-03-26T14:36:58.999Z</time></trkpt><trkpt lat="41.79777124718116" lon="12.537816260673669"><ele>72.0</ele><time>2026-03-26T14:36:59.999Z</time></trkpt><trkpt lat="41.79780254776043" lon="12.537949952246016"><ele>72.5</ele><time>2026-03-26T14:37:00.999Z</time></trkpt><trkpt lat="41.797835386088714" lon="12.538098061995385"><ele>73.0</ele><time>2026-03-26T14:37:01.999Z</time></trkpt><trkpt lat="41.7978692814885" lon="12.5382519378626"><ele>73.5</ele><time>2026-03-26T14:37:02.999Z</time></trkpt><trkpt lat="41.79790472317506" lon="12.538413490073092"><ele>74.0</ele><time>2026-03-26T14:37:03.999Z</time></trkpt><trkpt lat="41.797941500447514" lon="12.538580707463925"><ele>74.75</ele><time>2026-03-26T14:37:04.999Z</time></trkpt><trkpt lat="41.797977576793585" lon="12.538747940188468"><ele>75.5</ele><time>2026-03-26T14:37:05.999Z</time></trkpt><trkpt lat="41.798010856346885" lon="12.538900392457673"><ele>76.25</ele><time>2026-03-26T14:37:06.999Z</time></trkpt><trkpt lat="41.79804473790167" lon="12.539056246922147"><ele>77.0</ele><time>2026-03-26T14:37:07.999Z</time></trkpt><trkpt lat="41.798081531070586" lon="12.539216818625118"><ele>77.0</ele><time>2026-03-26T14:37:08.999Z</time></trkpt><trkpt lat="41.79812272800253" lon="12.539383674395317"><ele>77.0</ele><time>2026-03-26T14:37:09.999Z</time></trkpt><trkpt lat="41.798164190030256" lon="12.539559470066248"><ele>77.0</ele><time>2026-03-26T14:37:10.999Z</time></trkpt><trkpt lat="41.79820494479837" lon="12.539741662066612"><ele>77.0</ele><time>2026-03-26T14:37:11.999Z</time></trkpt><trkpt lat="41.798245865258366" lon="12.539928226085646"><ele>77.25</ele><time>2026-03-26T14:37:12.999Z</time></trkpt><trkpt lat="41.79828711725641" lon="12.540120265511339"><ele>77.5</ele><time>2026-03-26T14:37:13.999Z</time></trkpt><trkpt lat="41.79832928684563" lon="12.54031268194177"><ele>77.75</ele><time>2026-03-26T14:37:14.999Z</time></trkpt><trkpt lat="41.79837315987136" lon="12.540506204304586"><ele>78.0</ele><time>2026-03-26T14:37:15.999Z</time></trkpt><trkpt lat="41.7984161106736" lon="12.540701712858338"><ele>78.66666666666667</ele><time>2026-03-26T14:37:16.999Z</time></trkpt><trkpt lat="41.79845536820394" lon="12.540897251683894"><ele>79.33333333333334</ele><time>2026-03-26T14:37:17.999Z</time></trkpt><trkpt lat="41.79849539892557" lon="12.541092744591852"><ele>80.0</ele><time>2026-03-26T14:37:18.999Z</time></trkpt><trkpt lat="41.79853912703099" lon="12.541289634353273"><ele>81.0</ele><time>2026-03-26T14:37:19.999Z</time></trkpt><trkpt lat="41.79858170002845" lon="12.54148988896585"><ele>82.0</ele><time>2026-03-26T14:37:20.999Z</time></trkpt><trkpt lat="41.79862093727956" lon="12.541691304760763"><ele>83.0</ele><time>2026-03-26T14:37:21.999Z</time></trkpt><trkpt lat="41.79866505213321" lon="12.541892970025415"><ele>83.66666666666667</ele><time>2026-03-26T14:37:22.999Z</time></trkpt><trkpt lat="41.79871291325375" lon="12.542094490954813"><ele>84.33333333333333</ele><time>2026-03-26T14:37:23.999Z</time></trkpt><trkpt lat="41.79875607645584" lon="12.542297405286305"><ele>85.0</ele><time>2026-03-26T14:37:24.999Z</time></trkpt><trkpt lat="41.79880025458471" lon="12.542503968871586"><ele>85.0</ele><time>2026-03-26T14:37:25.999Z</time></trkpt><trkpt lat="41.79884308140431" lon="12.542711763032576"><ele>85.0</ele><time>2026-03-26T14:37:26.999Z</time></trkpt><trkpt lat="41.798887614155674" lon="12.542920734137963"><ele>85.0</ele><time>2026-03-26T14:37:28Z</time></trkpt><trkpt lat="41.79893203934333" lon="12.543131602458091"><ele>85.66666666666666</ele><time>2026-03-26T14:37:29Z</time></trkpt><trkpt lat="41.79897845671495" lon="12.543343866237427"><ele>86.33333333333333</ele><time>2026-03-26T14:37:30Z</time></trkpt><trkpt lat="41.79902462117616" lon="12.543556793222328"><ele>87.0</ele><time>2026-03-26T14:37:31Z</time></trkpt><trkpt lat="41.79907111852891" lon="12.543769474230052"><ele>87.0</ele><time>2026-03-26T14:37:32Z</time></trkpt><trkpt lat="41.79911626035611" lon="12.543982446280948"><ele>87.0</ele><time>2026-03-26T14:37:33Z</time></trkpt><trkpt lat="41.79916148990758" lon="12.544196158082311"><ele>87.0</ele><time>2026-03-26T14:37:34Z</time></trkpt><trkpt lat="41.79920734209662" lon="12.544411169843062"><ele>86.33333333333333</ele><time>2026-03-26T14:37:35Z</time></trkpt><trkpt lat="41.79925313126246" lon="12.544627045479503"><ele>85.66666666666666</ele><time>2026-03-26T14:37:36Z</time></trkpt><trkpt lat="41.799299615886326" lon="12.544843676598154"><ele>85.0</ele><time>2026-03-26T14:37:37Z</time></trkpt><trkpt lat="41.79934709692576" lon="12.5450613521609"><ele>85.0</ele><time>2026-03-26T14:37:38Z</time></trkpt><trkpt lat="41.79939463322428" lon="12.545278546284402"><ele>85.0</ele><time>2026-03-26T14:37:39Z</time></trkpt><trkpt lat="41.79944141346515" lon="12.545498199628867"><ele>85.0</ele><time>2026-03-26T14:37:40Z</time></trkpt><trkpt lat="41.7994887069027" lon="12.545719010722191"><ele>84.66666666666666</ele><time>2026-03-26T14:37:41Z</time></trkpt><trkpt lat="41.79953824120514" lon="12.545941587337166"><ele>84.33333333333333</ele><time>2026-03-26T14:37:42Z</time></trkpt><trkpt lat="41.79958576770068" lon="12.546162712714802"><ele>84.0</ele><time>2026-03-26T14:37:43Z</time></trkpt><trkpt lat="41.79963315276506" lon="12.54637876219464"><ele>84.0</ele><time>2026-03-26T14:37:44Z</time></trkpt><trkpt lat="41.7996809261644" lon="12.546586994416593"><ele>84.0</ele><time>2026-03-26T14:37:45Z</time></trkpt><trkpt lat="41.799727251843066" lon="12.546792682921524"><ele>84.0</ele><time>2026-03-26T14:37:46Z</time></trkpt><trkpt lat="41.799772557527966" lon="12.547001291016713"><ele>82.66666666666667</ele><time>2026-03-26T14:37:47Z</time></trkpt><trkpt lat="41.79981514751554" lon="12.547214183828535"><ele>81.33333333333334</ele><time>2026-03-26T14:37:48Z</time></trkpt><trkpt lat="41.79986234222258" lon="12.547430510452166"><ele>80.0</ele><time>2026-03-26T14:37:49Z</time></trkpt><trkpt lat="41.79990848853422" lon="12.547647502759315"><ele>80.0</ele><time>2026-03-26T14:37:50Z</time></trkpt><trkpt lat="41.79995568929902" lon="12.54785361658873"><ele>80.0</ele><time>2026-03-26T14:37:51Z</time></trkpt><trkpt lat="41.80000012877788" lon="12.548041329353547"><ele>80.0</ele><time>2026-03-26T14:37:52Z</time></trkpt><trkpt lat="41.80004047813496" lon="12.548194140435609"><ele>80.0</ele><time>2026-03-26T14:37:53Z</time></trkpt><trkpt lat="41.800072332375876" lon="12.548324939065166"><ele>79.5</ele><time>2026-03-26T14:37:54Z</time></trkpt><trkpt lat="41.800096230418255" lon="12.548438793147083"><ele>79.0</ele><time>2026-03-26T14:37:55Z</time></trkpt><trkpt lat="41.80012201275363" lon="12.548541923785956"><ele>78.5</ele><time>2026-03-26T14:37:56Z</time></trkpt><trkpt lat="41.800147127265305" lon="12.548643869579788"><ele>78.0</ele><time>2026-03-26T14:37:57Z</time></trkpt><trkpt lat="41.80017332206388" lon="12.548757460338031"><ele>77.5</ele><time>2026-03-26T14:37:58Z</time></trkpt><trkpt lat="41.80020021505481" lon="12.548876743618205"><ele>77.0</ele><time>2026-03-26T14:37:59Z</time></trkpt><trkpt lat="41.80022622606436" lon="12.54898921459549"><ele>76.8</ele><time>2026-03-26T14:38:00Z</time></trkpt><trkpt lat="41.800252889984144" lon="12.54910129440643"><ele>76.6</ele><time>2026-03-26T14:38:01Z</time></trkpt><trkpt lat="41.800281929259214" lon="12.549221421279183"><ele>76.39999999999999</ele><time>2026-03-26T14:38:02Z</time></trkpt><trkpt lat="41.80031311954632" lon="12.549354644016743"><ele>76.2</ele><time>2026-03-26T14:38:03Z</time></trkpt><trkpt lat="41.80034638615595" lon="12.549500161372272"><ele>76.0</ele><time>2026-03-26T14:38:04Z</time></trkpt><trkpt lat="41.800383595782854" lon="12.549653704504811"><ele>75.75</ele><time>2026-03-26T14:38:05Z</time></trkpt><trkpt lat="41.80042333516452" lon="12.54981427992543"><ele>75.5</ele><time>2026-03-26T14:38:06Z</time></trkpt><trkpt lat="41.80046280043476" lon="12.549981318526333"><ele>75.25</ele><time>2026-03-26T14:38:07Z</time></trkpt><trkpt lat="41.80050543212122" lon="12.550155676600586"><ele>75.0</ele><time>2026-03-26T14:38:08Z</time></trkpt><trkpt lat="41.80055819625202" lon="12.550336943977634"><ele>75.33333333333333</ele><time>2026-03-26T14:38:09Z</time></trkpt><trkpt lat="41.800614944224755" lon="12.550524563957213"><ele>75.66666666666666</ele><time>2026-03-26T14:38:10Z</time></trkpt><trkpt lat="41.80067547555259" lon="12.550720349902344"><ele>76.0</ele><time>2026-03-26T14:38:11Z</time></trkpt><trkpt lat="41.80073996005309" lon="12.55092320426579"><ele>76.0</ele><time>2026-03-26T14:38:12Z</time></trkpt><trkpt lat="41.80080729045881" lon="12.551129449630618"><ele>76.0</ele><time>2026-03-26T14:38:13Z</time></trkpt><trkpt lat="41.800872841715375" lon="12.551326527969694"><ele>76.0</ele><time>2026-03-26T14:38:14Z</time></trkpt><trkpt lat="41.80093574913402" lon="12.551515259666797"><ele>76.25</ele><time>2026-03-26T14:38:15Z</time></trkpt><trkpt lat="41.80099630430237" lon="12.551696438037407"><ele>76.5</ele><time>2026-03-26T14:38:16Z</time></trkpt><trkpt lat="41.801056711379466" lon="12.551875401010477"><ele>76.75</ele><time>2026-03-26T14:38:17Z</time></trkpt><trkpt lat="41.80111859893704" lon="12.552055734370484"><ele>77.0</ele><time>2026-03-26T14:38:18Z</time></trkpt><trkpt lat="41.801182329462314" lon="12.552237788044149"><ele>76.33333333333334</ele><time>2026-03-26T14:38:19Z</time></trkpt><trkpt lat="41.80124891585871" lon="12.552428231729127"><ele>75.66666666666667</ele><time>2026-03-26T14:38:20Z</time></trkpt><trkpt lat="41.8013207269676" lon="12.552625396417707"><ele>75.0</ele><time>2026-03-26T14:38:21Z</time></trkpt><trkpt lat="41.80139654797065" lon="12.552828718865355"><ele>74.66666666666667</ele><time>2026-03-26T14:38:22Z</time></trkpt><trkpt lat="41.801474553255744" lon="12.553037939170403"><ele>74.33333333333334</ele><time>2026-03-26T14:38:23Z</time></trkpt><trkpt lat="41.80155366884045" lon="12.553251654543722"><ele>74.0</ele><time>2026-03-26T14:38:24Z</time></trkpt><trkpt lat="41.801637015374304" lon="12.5534662981895"><ele>74.0</ele><time>2026-03-26T14:38:25Z</time></trkpt><trkpt lat="41.80172329107927" lon="12.55368145207779"><ele>74.0</ele><time>2026-03-26T14:38:26Z</time></trkpt><trkpt lat="41.801810864759425" lon="12.553896733315337"><ele>74.0</ele><time>2026-03-26T14:38:27Z</time></trkpt><trkpt lat="41.8018970993158" lon="12.554104891527652"><ele>75.33333333333334</ele><time>2026-03-26T14:38:28Z</time></trkpt><trkpt lat="41.80198115936582" lon="12.554304632626092"><ele>76.66666666666667</ele><time>2026-03-26T14:38:29Z</time></trkpt><trkpt lat="41.80206823633544" lon="12.554498917239878"><ele>78.0</ele><time>2026-03-26T14:38:30Z</time></trkpt><trkpt lat="41.80215537992517" lon="12.554694116867566"><ele>78.0</ele><time>2026-03-26T14:38:31Z</time></trkpt><trkpt lat="41.80224224600455" lon="12.554891819521186"><ele>78.0</ele><time>2026-03-26T14:38:32Z</time></trkpt><trkpt lat="41.80233242022078" lon="12.555087155843482"><ele>78.0</ele><time>2026-03-26T14:38:33Z</time></trkpt><trkpt lat="41.8024231605239" lon="12.555284525612501"><ele>77.66666666666667</ele><time>2026-03-26T14:38:34Z</time></trkpt><trkpt lat="41.80251719462274" lon="12.555479801242512"><ele>77.33333333333334</ele><time>2026-03-26T14:38:35Z</time></trkpt><trkpt lat="41.80260725332216" lon="12.55566681749659"><ele>77.0</ele><time>2026-03-26T14:38:36Z</time></trkpt><trkpt lat="41.80269456439803" lon="12.555846645050183"><ele>77.0</ele><time>2026-03-26T14:38:37Z</time></trkpt><trkpt lat="41.80278094977783" lon="12.556021339548488"><ele>77.0</ele><time>2026-03-26T14:38:38Z</time></trkpt><trkpt lat="41.80286790326191" lon="12.556192680078933"><ele>77.0</ele><time>2026-03-26T14:38:39Z</time></trkpt><trkpt lat="41.802952791028765" lon="12.556355160380605"><ele>77.0</ele><time>2026-03-26T14:38:40Z</time></trkpt><trkpt lat="41.80303321780731" lon="12.556508221906299"><ele>77.0</ele><time>2026-03-26T14:38:41Z</time></trkpt><trkpt lat="41.80311305738129" lon="12.556658757959042"><ele>77.0</ele><time>2026-03-26T14:38:42Z</time></trkpt><trkpt lat="41.80319302421717" lon="12.556810030782517"><ele>77.0</ele><time>2026-03-26T14:38:43Z</time></trkpt><trkpt lat="41.80327486137653" lon="12.556961775108476"><ele>77.25</ele><time>2026-03-26T14:38:43.999Z</time></trkpt><trkpt lat="41.803358954812495" lon="12.557113852849897"><ele>77.5</ele><time>2026-03-26T14:38:44.999Z</time></trkpt><trkpt lat="41.80344450585441" lon="12.557268412663067"><ele>77.75</ele><time>2026-03-26T14:38:45.999Z</time></trkpt><trkpt lat="41.803531277331544" lon="12.55742262030607"><ele>78.0</ele><time>2026-03-26T14:38:46.999Z</time></trkpt><trkpt lat="41.80361855493632" lon="12.557581638138483"><ele>78.66666666666667</ele><time>2026-03-26T14:38:47.999Z</time></trkpt><trkpt lat="41.80370691629634" lon="12.557742242342597"><ele>79.33333333333334</ele><time>2026-03-26T14:38:48.999Z</time></trkpt><trkpt lat="41.80380007392399" lon="12.557905469616182"><ele>80.0</ele><time>2026-03-26T14:38:49.999Z</time></trkpt><trkpt lat="41.80389301253578" lon="12.558075126762175"><ele>80.0</ele><time>2026-03-26T14:38:50.999Z</time></trkpt><trkpt lat="41.803988266869986" lon="12.558247784584237"><ele>80.0</ele><time>2026-03-26T14:38:51.999Z</time></trkpt><trkpt lat="41.8040886524291" lon="12.558422168707068"><ele>80.0</ele><time>2026-03-26T14:38:52.999Z</time></trkpt><trkpt lat="41.804188489236196" lon="12.558597117016618"><ele>80.66666666666667</ele><time>2026-03-26T14:38:53.999Z</time></trkpt><trkpt lat="41.80428959209094" lon="12.5587711851564"><ele>81.33333333333333</ele><time>2026-03-26T14:38:54.999Z</time></trkpt><trkpt lat="41.80439186435518" lon="12.55894933921894"><ele>82.0</ele><time>2026-03-26T14:38:55.999Z</time></trkpt><trkpt lat="41.8044949124835" lon="12.559127610807517"><ele>83.66666666666666</ele><time>2026-03-26T14:38:56.999Z</time></trkpt><trkpt lat="41.80459728184658" lon="12.55930946002939"><ele>85.33333333333333</ele><time>2026-03-26T14:38:57.999Z</time></trkpt><trkpt lat="41.80470020036129" lon="12.55949422894009"><ele>87.0</ele><time>2026-03-26T14:38:58.999Z</time></trkpt><trkpt lat="41.80480441875377" lon="12.559679022863145"><ele>87.0</ele><time>2026-03-26T14:38:59.999Z</time></trkpt><trkpt lat="41.8049096630097" lon="12.559864953305143"><ele>87.0</ele><time>2026-03-26T14:39:00.999Z</time></trkpt><trkpt lat="41.80501727220499" lon="12.56005266786563"><ele>87.0</ele><time>2026-03-26T14:39:01.999Z</time></trkpt><trkpt lat="41.80512602597831" lon="12.56024369410986"><ele>87.0</ele><time>2026-03-26T14:39:02.999Z</time></trkpt><trkpt lat="41.80523741693448" lon="12.560436004706094"><ele>87.0</ele><time>2026-03-26T14:39:03.999Z</time></trkpt><trkpt lat="41.80535210948453" lon="12.560629441780554"><ele>87.0</ele><time>2026-03-26T14:39:04.999Z</time></trkpt><trkpt lat="41.80546843647496" lon="12.560821738273866"><ele>87.0</ele><time>2026-03-26T14:39:05.999Z</time></trkpt><trkpt lat="41.80558515517495" lon="12.561013721458389"><ele>87.0</ele><time>2026-03-26T14:39:06.999Z</time></trkpt><trkpt lat="41.80569783785298" lon="12.561199296742494"><ele>87.0</ele><time>2026-03-26T14:39:07.999Z</time></trkpt><trkpt lat="41.80580582644061" lon="12.561379234588788"><ele>87.66666666666667</ele><time>2026-03-26T14:39:08.999Z</time></trkpt><trkpt lat="41.80591132095451" lon="12.561552121112507"><ele>88.33333333333334</ele><time>2026-03-26T14:39:09.999Z</time></trkpt><trkpt lat="41.80600435814968" lon="12.561797621128193"><ele>89.0</ele><time>2026-03-26T14:39:10.999Z</time></trkpt><trkpt lat="41.80610675172009" lon="12.561980044239746"><ele>90.33333333333334</ele><time>2026-03-26T14:39:11.999Z</time></trkpt><trkpt lat="41.806210431764576" lon="12.56216475783408"><ele>91.66666666666667</ele><time>2026-03-26T14:39:12.999Z</time></trkpt><trkpt lat="41.806312075780625" lon="12.56234584532897"><ele>93.0</ele><time>2026-03-26T14:39:13.999Z</time></trkpt><trkpt lat="41.806405676279425" lon="12.562512602522348"><ele>93.0</ele><time>2026-03-26T14:39:14.999Z</time></trkpt><trkpt lat="41.80649725142374" lon="12.562675487507963"><ele>93.0</ele><time>2026-03-26T14:39:15.999Z</time></trkpt><trkpt lat="41.80659426365604" lon="12.562847543913545"><ele>93.0</ele><time>2026-03-26T14:39:16.999Z</time></trkpt><trkpt lat="41.80669393826761" lon="12.563024460882323"><ele>93.66666666666667</ele><time>2026-03-26T14:39:17.999Z</time></trkpt><trkpt lat="41.80679317286698" lon="12.563200698070686"><ele>94.33333333333334</ele><time>2026-03-26T14:39:18.999Z</time></trkpt><trkpt lat="41.80689132563118" lon="12.563375338092666"><ele>95.0</ele><time>2026-03-26T14:39:19.999Z</time></trkpt><trkpt lat="41.80698751764916" lon="12.563546956618298"><ele>97.33333333333334</ele><time>2026-03-26T14:39:20.999Z</time></trkpt><trkpt lat="41.807087247550015" lon="12.563724887184843"><ele>99.66666666666667</ele><time>2026-03-26T14:39:21.999Z</time></trkpt><trkpt lat="41.80718837454735" lon="12.563905310317883"><ele>102.0</ele><time>2026-03-26T14:39:22.999Z</time></trkpt><trkpt lat="41.807289216501864" lon="12.564084675812765"><ele>102.0</ele><time>2026-03-26T14:39:23.999Z</time></trkpt><trkpt lat="41.807393963070794" lon="12.564270978669295"><ele>102.0</ele><time>2026-03-26T14:39:24.999Z</time></trkpt><trkpt lat="41.807497657830986" lon="12.564455586698992"><ele>102.0</ele><time>2026-03-26T14:39:25.999Z</time></trkpt><trkpt lat="41.80759261841585" lon="12.564624080955078"><ele>102.75</ele><time>2026-03-26T14:39:26.999Z</time></trkpt><trkpt lat="41.80768331655902" lon="12.564785012122108"><ele>103.5</ele><time>2026-03-26T14:39:27.999Z</time></trkpt><trkpt lat="41.80775890653299" lon="12.564919135943695"><ele>104.25</ele><time>2026-03-26T14:39:28.999Z</time></trkpt><trkpt lat="41.80784056121391" lon="12.56506402071024"><ele>105.0</ele><time>2026-03-26T14:39:29.999Z</time></trkpt><trkpt lat="41.80793515692723" lon="12.565231867582776"><ele>104.66666666666666</ele><time>2026-03-26T14:39:30.999Z</time></trkpt><trkpt lat="41.80802669680696" lon="12.565394292265145"><ele>104.33333333333333</ele><time>2026-03-26T14:39:31.999Z</time></trkpt><trkpt lat="41.808119103405275" lon="12.565558254824845"><ele>104.0</ele><time>2026-03-26T14:39:32.999Z</time></trkpt><trkpt lat="41.80821332732889" lon="12.565725441976255"><ele>91.0</ele><time>2026-03-26T14:39:34.02Z</time></trkpt><trkpt lat="41.809485430705244" lon="12.56783236084284"><ele>87.0</ele><time>2026-03-26T14:39:37.701Z</time></trkpt><trkpt lat="41.8099747787814" lon="12.568695526225659"><ele>83.0</ele><time>2026-03-26T14:39:38.701Z</time></trkpt><trkpt lat="41.81046003968512" lon="12.569561900293186"><ele>87.0</ele><time>2026-03-26T14:39:39.7Z</time></trkpt><trkpt lat="41.81070409853547" lon="12.568811408754842"><ele>89.0</ele><time>2026-03-26T14:39:42.699Z</time></trkpt><trkpt lat="41.81022838608653" lon="12.567932437595472"><ele>91.0</ele><time>2026-03-26T14:39:43.701Z</time></trkpt><trkpt lat="41.80975280957791" lon="12.567055534522343"><ele>101.0</ele><time>2026-03-26T14:39:44.701Z</time></trkpt><trkpt lat="41.80927525538099" lon="12.566180584865139"><ele>103.0</ele><time>2026-03-26T14:39:45.701Z</time></trkpt><trkpt lat="41.8087979362148" lon="12.56530566054078"><ele>102.0</ele><time>2026-03-26T14:39:46.7Z</time></trkpt><trkpt lat="41.80832040553884" lon="12.564430398116814"><ele>99.0</ele><time>2026-03-26T14:39:47.701Z</time></trkpt><trkpt lat="41.807843321292005" lon="12.563555933453028"><ele>91.0</ele><time>2026-03-26T14:39:48.7Z</time></trkpt><trkpt lat="41.807374599687" lon="12.562671885533165"><ele>89.0</ele><time>2026-03-26T14:39:49.701Z</time></trkpt><trkpt lat="41.80689602134477" lon="12.561800271605568"><ele>89.0</ele><time>2026-03-26T14:39:50.699Z</time></trkpt><trkpt lat="41.80641480680519" lon="12.560927602233216"><ele>87.0</ele><time>2026-03-26T14:39:51.7Z</time></trkpt><trkpt lat="41.80593001792217" lon="12.560059777854816"><ele>88.0</ele><time>2026-03-26T14:39:52.7Z</time></trkpt><trkpt lat="41.805447878619866" lon="12.559189321912791"><ele>88.0</ele><time>2026-03-26T14:39:53.7Z</time></trkpt><trkpt lat="41.804971351459" lon="12.558313346504065"><ele>83.0</ele><time>2026-03-26T14:39:54.7Z</time></trkpt><trkpt lat="41.810896317230196" lon="12.570204906935516"><ele>83.5</ele><time>2026-03-26T14:40:01Z</time></trkpt><trkpt lat="41.8109892468207" lon="12.57037005520984"><ele>84.0</ele><time>2026-03-26T14:40:02Z</time></trkpt><trkpt lat="41.81088894225121" lon="12.570436605595068"><ele>84.5</ele><time>2026-03-26T14:40:03Z</time></trkpt><trkpt lat="41.81096582903865" lon="12.57057732110328"><ele>85.0</ele><time>2026-03-26T14:40:04Z</time></trkpt><trkpt lat="41.81104274981976" lon="12.570716184333863"><ele>85.0</ele><time>2026-03-26T14:40:05Z</time></trkpt><trkpt lat="41.81112190979318" lon="12.570861742562185"><ele>85.0</ele><time>2026-03-26T14:40:06Z</time></trkpt><trkpt lat="41.811201887964465" lon="12.571019251881536"><ele>85.0</ele><time>2026-03-26T14:40:07Z</time></trkpt><trkpt lat="41.81129194399142" lon="12.571183010024736"><ele>85.0</ele><time>2026-03-26T14:40:08Z</time></trkpt><trkpt lat="41.81138682770204" lon="12.571351346703693"><ele>84.66666666666666</ele><time>2026-03-26T14:40:09Z</time></trkpt><trkpt lat="41.81147986087237" lon="12.57153007431725"><ele>84.33333333333333</ele><time>2026-03-26T14:40:10Z</time></trkpt><trkpt lat="41.81157432225515" lon="12.571703861387768"><ele>84.0</ele><time>2026-03-26T14:40:11Z</time></trkpt><trkpt lat="41.81167538034288" lon="12.571882560691359"><ele>84.5</ele><time>2026-03-26T14:40:12Z</time></trkpt><trkpt lat="41.81177655388555" lon="12.572059790087794"><ele>85.0</ele><time>2026-03-26T14:40:13Z</time></trkpt><trkpt lat="41.81197821813581" lon="12.572385480034646"><ele>84.33333333333333</ele><time>2026-03-26T14:40:15Z</time></trkpt><trkpt lat="41.81207621561845" lon="12.57254058902215"><ele>83.66666666666667</ele><time>2026-03-26T14:40:16Z</time></trkpt><trkpt lat="41.81217458398901" lon="12.57270363744063"><ele>83.0</ele><time>2026-03-26T14:40:17Z</time></trkpt><trkpt lat="41.8122738437977" lon="12.572864599065227"><ele>84.33333333333334</ele><time>2026-03-26T14:40:18Z</time></trkpt><trkpt lat="41.812377395818295" lon="12.573026876074616"><ele>85.66666666666667</ele><time>2026-03-26T14:40:19Z</time></trkpt><trkpt lat="41.81251045104446" lon="12.573208905990995"><ele>87.0</ele><time>2026-03-26T14:40:20Z</time></trkpt><trkpt lat="41.8126052557974" lon="12.57336137500707"><ele>87.0</ele><time>2026-03-26T14:40:21Z</time></trkpt><trkpt lat="41.81271840365207" lon="12.573509474812742"><ele>87.0</ele><time>2026-03-26T14:40:22Z</time></trkpt><trkpt lat="41.81283716846637" lon="12.573663924486773"><ele>87.0</ele><time>2026-03-26T14:40:23Z</time></trkpt><trkpt lat="41.81295482307982" lon="12.573817243836716"><ele>87.0</ele><time>2026-03-26T14:40:24Z</time></trkpt><trkpt lat="41.81307673989784" lon="12.573963869811049"><ele>87.0</ele><time>2026-03-26T14:40:25Z</time></trkpt><trkpt lat="41.81320527805962" lon="12.574101015610028"><ele>87.0</ele><time>2026-03-26T14:40:26Z</time></trkpt><trkpt lat="41.81333377073758" lon="12.574235534793834"><ele>87.0</ele><time>2026-03-26T14:40:27Z</time></trkpt><trkpt lat="41.81346473059752" lon="12.574374377221018"><ele>87.0</ele><time>2026-03-26T14:40:28Z</time></trkpt><trkpt lat="41.81360041856999" lon="12.57450364730842"><ele>87.0</ele><time>2026-03-26T14:40:29Z</time></trkpt><trkpt lat="41.81375083878602" lon="12.574630899227962"><ele>86.5</ele><time>2026-03-26T14:40:30Z</time></trkpt><trkpt lat="41.813829633452464" lon="12.574719820891563"><ele>86.0</ele><time>2026-03-26T14:40:31Z</time></trkpt><trkpt lat="41.813940613004185" lon="12.574805658403136"><ele>85.5</ele><time>2026-03-26T14:40:32Z</time></trkpt><trkpt lat="41.81404496936143" lon="12.574899064247465"><ele>85.0</ele><time>2026-03-26T14:40:33Z</time></trkpt><trkpt lat="41.81415597246527" lon="12.574985417710407"><ele>85.0</ele><time>2026-03-26T14:40:34Z</time></trkpt><trkpt lat="41.81425472914035" lon="12.575062689000031"><ele>85.0</ele><time>2026-03-26T14:40:35Z</time></trkpt><trkpt lat="41.81434751055665" lon="12.575138017594492"><ele>85.0</ele><time>2026-03-26T14:40:36Z</time></trkpt><trkpt lat="41.814439162887155" lon="12.575203684616895"><ele>85.0</ele><time>2026-03-26T14:40:37Z</time></trkpt><trkpt lat="41.814513904420664" lon="12.575260243638672"><ele>85.0</ele><time>2026-03-26T14:40:37.999Z</time></trkpt><trkpt lat="41.814579961822226" lon="12.57530942767927"><ele>85.66666666666666</ele><time>2026-03-26T14:40:38.999Z</time></trkpt><trkpt lat="41.81465164850557" lon="12.5753620035973"><ele>86.33333333333333</ele><time>2026-03-26T14:40:39.999Z</time></trkpt><trkpt lat="41.81472285658646" lon="12.575414384456522"><ele>87.0</ele><time>2026-03-26T14:40:40.999Z</time></trkpt><trkpt lat="41.814800967272106" lon="12.575469485719871"><ele>87.66666666666667</ele><time>2026-03-26T14:40:41.999Z</time></trkpt><trkpt lat="41.81488395395259" lon="12.575529132416843"><ele>88.33333333333334</ele><time>2026-03-26T14:40:42.999Z</time></trkpt><trkpt lat="41.814966315361964" lon="12.575594873878366"><ele>89.0</ele><time>2026-03-26T14:40:43.999Z</time></trkpt><trkpt lat="41.81503561928273" lon="12.575653775458035"><ele>89.0</ele><time>2026-03-26T14:40:44.999Z</time></trkpt><trkpt lat="41.81510310929093" lon="12.575708890148055"><ele>89.0</ele><time>2026-03-26T14:40:45.999Z</time></trkpt><trkpt lat="41.81517983269885" lon="12.575767166212586"><ele>89.0</ele><time>2026-03-26T14:40:46.999Z</time></trkpt><trkpt lat="41.815266430956555" lon="12.575825510417788"><ele>89.0</ele><time>2026-03-26T14:40:47.999Z</time></trkpt><trkpt lat="41.815363406915125" lon="12.575887372450184"><ele>89.0</ele><time>2026-03-26T14:40:48.999Z</time></trkpt><trkpt lat="41.81547129156068" lon="12.575947001709629"><ele>88.75</ele><time>2026-03-26T14:40:49.999Z</time></trkpt><trkpt lat="41.81558880453092" lon="12.576015003353918"><ele>88.5</ele><time>2026-03-26T14:40:50.999Z</time></trkpt><trkpt lat="41.81571200247114" lon="12.57609295592834"><ele>88.25</ele><time>2026-03-26T14:40:51.999Z</time></trkpt><trkpt lat="41.8158403206862" lon="12.576180459581328"><ele>88.0</ele><time>2026-03-26T14:40:52.999Z</time></trkpt><trkpt lat="41.81597373755418" lon="12.57627129107376"><ele>88.33333333333333</ele><time>2026-03-26T14:40:53.999Z</time></trkpt><trkpt lat="41.81611087150158" lon="12.576365395580332"><ele>88.66666666666667</ele><time>2026-03-26T14:40:54.999Z</time></trkpt><trkpt lat="41.816250336499344" lon="12.576461627630799"><ele>89.0</ele><time>2026-03-26T14:40:55.999Z</time></trkpt><trkpt lat="41.81639604600614" lon="12.576559697766381"><ele>89.0</ele><time>2026-03-26T14:40:56.999Z</time></trkpt><trkpt lat="41.81654618957685" lon="12.57665939934263"><ele>89.0</ele><time>2026-03-26T14:40:57.999Z</time></trkpt><trkpt lat="41.816698961652" lon="12.576759966606737"><ele>89.0</ele><time>2026-03-26T14:40:58.999Z</time></trkpt><trkpt lat="41.81685399542433" lon="12.576863489652286"><ele>89.0</ele><time>2026-03-26T14:40:59.999Z</time></trkpt><trkpt lat="41.81700935386155" lon="12.576970118658089"><ele>89.0</ele><time>2026-03-26T14:41:00.999Z</time></trkpt><trkpt lat="41.81716518268104" lon="12.577077335456844"><ele>89.0</ele><time>2026-03-26T14:41:01.999Z</time></trkpt><trkpt lat="41.817326779273294" lon="12.57718347251805"><ele>89.0</ele><time>2026-03-26T14:41:02.999Z</time></trkpt><trkpt lat="41.81748472330758" lon="12.577289343622365"><ele>89.0</ele><time>2026-03-26T14:41:03.999Z</time></trkpt><trkpt lat="41.8176494181159" lon="12.57739440247712"><ele>89.0</ele><time>2026-03-26T14:41:04.999Z</time></trkpt><trkpt lat="41.817816142344654" lon="12.577501928885"><ele>89.0</ele><time>2026-03-26T14:41:05.999Z</time></trkpt><trkpt lat="41.817980300427635" lon="12.577610899349873"><ele>89.0</ele><time>2026-03-26T14:41:06.999Z</time></trkpt><trkpt lat="41.81815249137616" lon="12.577722088072173"><ele>89.0</ele><time>2026-03-26T14:41:07.999Z</time></trkpt><trkpt lat="41.81832359741424" lon="12.577832604287225"><ele>87.66666666666667</ele><time>2026-03-26T14:41:08.999Z</time></trkpt><trkpt lat="41.81849903549607" lon="12.577950198908562"><ele>86.33333333333333</ele><time>2026-03-26T14:41:09.999Z</time></trkpt><trkpt lat="41.81867840988811" lon="12.578065376469656"><ele>85.0</ele><time>2026-03-26T14:41:10.999Z</time></trkpt><trkpt lat="41.81885431125019" lon="12.578187880537136"><ele>85.0</ele><time>2026-03-26T14:41:11.999Z</time></trkpt><trkpt lat="41.819035397109815" lon="12.578305391486747"><ele>85.0</ele><time>2026-03-26T14:41:12.999Z</time></trkpt><trkpt lat="41.81921624748107" lon="12.578425631818297"><ele>85.0</ele><time>2026-03-26T14:41:13.999Z</time></trkpt><trkpt lat="41.81939931550174" lon="12.578547774357254"><ele>85.33333333333333</ele><time>2026-03-26T14:41:14.999Z</time></trkpt><trkpt lat="41.81958752252627" lon="12.578666621210818"><ele>85.66666666666667</ele><time>2026-03-26T14:41:15.999Z</time></trkpt><trkpt lat="41.81977023988154" lon="12.578788073052369"><ele>86.0</ele><time>2026-03-26T14:41:16.999Z</time></trkpt><trkpt lat="41.81995183870389" lon="12.578908987302434"><ele>86.0</ele><time>2026-03-26T14:41:17.999Z</time></trkpt><trkpt lat="41.820122340168275" lon="12.579026214982271"><ele>86.0</ele><time>2026-03-26T14:41:18.999Z</time></trkpt><trkpt lat="41.820287801462705" lon="12.579136142430265"><ele>86.0</ele><time>2026-03-26T14:41:19.999Z</time></trkpt><trkpt lat="41.82045160879366" lon="12.579244217155175"><ele>85.33333333333334</ele><time>2026-03-26T14:41:20.999Z</time></trkpt><trkpt lat="41.8206118435064" lon="12.57935764642477"><ele>84.66666666666667</ele><time>2026-03-26T14:41:21.999Z</time></trkpt><trkpt lat="41.82077326575671" lon="12.579469644004206"><ele>84.0</ele><time>2026-03-26T14:41:22.999Z</time></trkpt><trkpt lat="41.82093484341292" lon="12.57958566489945"><ele>83.66666666666667</ele><time>2026-03-26T14:41:23.999Z</time></trkpt><trkpt lat="41.821095478292406" lon="12.579699549236452"><ele>83.33333333333334</ele><time>2026-03-26T14:41:24.999Z</time></trkpt><trkpt lat="41.82125462698778" lon="12.579812969576869"><ele>83.0</ele><time>2026-03-26T14:41:25.999Z</time></trkpt><trkpt lat="41.82142049673096" lon="12.579924688800263"><ele>83.0</ele><time>2026-03-26T14:41:26.999Z</time></trkpt><trkpt lat="41.82158637583961" lon="12.580035952122795"><ele>83.0</ele><time>2026-03-26T14:41:27.999Z</time></trkpt><trkpt lat="41.82175321100802" lon="12.580144618311486"><ele>83.0</ele><time>2026-03-26T14:41:28.999Z</time></trkpt><trkpt lat="41.8219212966131" lon="12.580255219104478"><ele>83.33333333333334</ele><time>2026-03-26T14:41:29.999Z</time></trkpt><trkpt lat="41.82209119279246" lon="12.580365598324422"><ele>83.66666666666667</ele><time>2026-03-26T14:41:30.999Z</time></trkpt><trkpt lat="41.822256536538156" lon="12.580479571681483"><ele>84.0</ele><time>2026-03-26T14:41:31.999Z</time></trkpt><trkpt lat="41.822422014647735" lon="12.580591484516441"><ele>84.0</ele><time>2026-03-26T14:41:32.999Z</time></trkpt><trkpt lat="41.82257955643626" lon="12.580696111621048"><ele>84.0</ele><time>2026-03-26T14:41:33.999Z</time></trkpt><trkpt lat="41.82273192181955" lon="12.580799541886776"><ele>84.0</ele><time>2026-03-26T14:41:34.999Z</time></trkpt><trkpt lat="41.82288493257878" lon="12.580898433133672"><ele>83.66666666666667</ele><time>2026-03-26T14:41:35.999Z</time></trkpt><trkpt lat="41.82303770134613" lon="12.580993067155609"><ele>83.33333333333334</ele><time>2026-03-26T14:41:36.999Z</time></trkpt><trkpt lat="41.82317938843364" lon="12.581083815642526"><ele>83.0</ele><time>2026-03-26T14:41:37.999Z</time></trkpt><trkpt lat="41.82332470741143" lon="12.581170134414325"><ele>83.0</ele><time>2026-03-26T14:41:39Z</time></trkpt><trkpt lat="41.82346640994814" lon="12.581265690072907"><ele>83.0</ele><time>2026-03-26T14:41:40Z</time></trkpt><trkpt lat="41.82361178628751" lon="12.581355822783916"><ele>83.0</ele><time>2026-03-26T14:41:41Z</time></trkpt><trkpt lat="41.82376442390405" lon="12.5814508683133"><ele>83.0</ele><time>2026-03-26T14:41:42Z</time></trkpt><trkpt lat="41.82392452842125" lon="12.581549648800802"><ele>83.0</ele><time>2026-03-26T14:41:43Z</time></trkpt><trkpt lat="41.8240881549685" lon="12.581654726021277"><ele>83.0</ele><time>2026-03-26T14:41:44Z</time></trkpt><trkpt lat="41.824253801270295" lon="12.581763679584768"><ele>83.0</ele><time>2026-03-26T14:41:45Z</time></trkpt><trkpt lat="41.82442790951831" lon="12.581876535829267"><ele>83.0</ele><time>2026-03-26T14:41:46Z</time></trkpt><trkpt lat="41.82460309890437" lon="12.581990176361144"><ele>83.0</ele><time>2026-03-26T14:41:47Z</time></trkpt><trkpt lat="41.82478423522496" lon="12.582107238306515"><ele>83.0</ele><time>2026-03-26T14:41:48Z</time></trkpt><trkpt lat="41.82496804648083" lon="12.582224321507914"><ele>83.0</ele><time>2026-03-26T14:41:49Z</time></trkpt><trkpt lat="41.82515502757449" lon="12.582346276049533"><ele>83.0</ele><time>2026-03-26T14:41:50Z</time></trkpt><trkpt lat="41.82534530993668" lon="12.582468424837103"><ele>82.33333333333334</ele><time>2026-03-26T14:41:51Z</time></trkpt><trkpt lat="41.82553801297312" lon="12.58259066294236"><ele>81.66666666666667</ele><time>2026-03-26T14:41:52Z</time></trkpt><trkpt lat="41.82573238876026" lon="12.582717064563692"><ele>81.0</ele><time>2026-03-26T14:41:53Z</time></trkpt><trkpt lat="41.82592772191787" lon="12.582844333363818"><ele>81.33333333333333</ele><time>2026-03-26T14:41:54Z</time></trkpt><trkpt lat="41.826124813920565" lon="12.582970175837493"><ele>81.66666666666666</ele><time>2026-03-26T14:41:55Z</time></trkpt><trkpt lat="41.826320503423126" lon="12.583097495658311"><ele>82.0</ele><time>2026-03-26T14:41:56Z</time></trkpt><trkpt lat="41.826514189267805" lon="12.583227018307351"><ele>82.0</ele><time>2026-03-26T14:41:57Z</time></trkpt><trkpt lat="41.8267021906069" lon="12.583351690724694"><ele>82.0</ele><time>2026-03-26T14:41:58Z</time></trkpt><trkpt lat="41.82688724132778" lon="12.583476159697009"><ele>82.0</ele><time>2026-03-26T14:41:59Z</time></trkpt><trkpt lat="41.82707513609359" lon="12.583597942610458"><ele>81.66666666666666</ele><time>2026-03-26T14:42:00Z</time></trkpt><trkpt lat="41.827262380421324" lon="12.583715847041853"><ele>81.33333333333333</ele><time>2026-03-26T14:42:01Z</time></trkpt><trkpt lat="41.827451416104815" lon="12.583832010911006"><ele>81.0</ele><time>2026-03-26T14:42:02Z</time></trkpt><trkpt lat="41.82764323044994" lon="12.583950921620799"><ele>81.33333333333333</ele><time>2026-03-26T14:42:03Z</time></trkpt><trkpt lat="41.82783322411268" lon="12.58406871606813"><ele>81.66666666666666</ele><time>2026-03-26T14:42:04Z</time></trkpt><trkpt lat="41.82802638303269" lon="12.584187477386056"><ele>82.0</ele><time>2026-03-26T14:42:05Z</time></trkpt><trkpt lat="41.828220829754535" lon="12.584303885602049"><ele>82.0</ele><time>2026-03-26T14:42:06Z</time></trkpt><trkpt lat="41.828414616310944" lon="12.584415007648952"><ele>82.0</ele><time>2026-03-26T14:42:07Z</time></trkpt><trkpt lat="41.828604657467444" lon="12.584527191929912"><ele>82.0</ele><time>2026-03-26T14:42:08Z</time></trkpt><trkpt lat="41.828791149041244" lon="12.584638455829845"><ele>82.0</ele><time>2026-03-26T14:42:09Z</time></trkpt><trkpt lat="41.82897581595572" lon="12.584749912840424"><ele>82.0</ele><time>2026-03-26T14:42:10Z</time></trkpt><trkpt lat="41.82916001373752" lon="12.584861882141135"><ele>82.0</ele><time>2026-03-26T14:42:11Z</time></trkpt><trkpt lat="41.829345402027286" lon="12.584976474120776"><ele>81.33333333333333</ele><time>2026-03-26T14:42:12Z</time></trkpt><trkpt lat="41.82953500789922" lon="12.58509424238276"><ele>80.66666666666667</ele><time>2026-03-26T14:42:13Z</time></trkpt><trkpt lat="41.82971974949985" lon="12.585217898653928"><ele>80.0</ele><time>2026-03-26T14:42:14Z</time></trkpt><trkpt lat="41.82991090963353" lon="12.585342322984692"><ele>80.0</ele><time>2026-03-26T14:42:15Z</time></trkpt><trkpt lat="41.83010213764396" lon="12.585473313682314"><ele>80.0</ele><time>2026-03-26T14:42:16Z</time></trkpt><trkpt lat="41.83029314195788" lon="12.585607562938831"><ele>80.0</ele><time>2026-03-26T14:42:17Z</time></trkpt><trkpt lat="41.830485493374105" lon="12.58574006539873"><ele>80.0</ele><time>2026-03-26T14:42:18Z</time></trkpt><trkpt lat="41.830678877686516" lon="12.585875451145977"><ele>80.0</ele><time>2026-03-26T14:42:19Z</time></trkpt><trkpt lat="41.830868385664246" lon="12.586008786106067"><ele>80.0</ele><time>2026-03-26T14:42:20Z</time></trkpt><trkpt lat="41.8310451468098" lon="12.586133314419738"><ele>79.33333333333334</ele><time>2026-03-26T14:42:21Z</time></trkpt><trkpt lat="41.83122225309451" lon="12.586254325703264"><ele>78.66666666666667</ele><time>2026-03-26T14:42:22Z</time></trkpt><trkpt lat="41.83136675581182" lon="12.586456920678073"><ele>78.0</ele><time>2026-03-26T14:42:23Z</time></trkpt><trkpt lat="41.83154348071979" lon="12.586576820958237"><ele>78.0</ele><time>2026-03-26T14:42:24Z</time></trkpt><trkpt lat="41.831711600893186" lon="12.586690879595944"><ele>78.0</ele><time>2026-03-26T14:42:25Z</time></trkpt><trkpt lat="41.83187996688339" lon="12.586799695299426"><ele>78.0</ele><time>2026-03-26T14:42:26Z</time></trkpt><trkpt lat="41.83207481666152" lon="12.586834247141665"><ele>77.66666666666667</ele><time>2026-03-26T14:42:27Z</time></trkpt><trkpt lat="41.83224325413908" lon="12.586948588901537"><ele>77.33333333333334</ele><time>2026-03-26T14:42:28Z</time></trkpt><trkpt lat="41.832414577064434" lon="12.587059542400297"><ele>77.0</ele><time>2026-03-26T14:42:29Z</time></trkpt><trkpt lat="41.83258342854823" lon="12.587171063607459"><ele>75.66666666666667</ele><time>2026-03-26T14:42:30Z</time></trkpt><trkpt lat="41.832751894071095" lon="12.58727678979902"><ele>74.33333333333333</ele><time>2026-03-26T14:42:31Z</time></trkpt><trkpt lat="41.83292020029318" lon="12.587380708878936"><ele>73.0</ele><time>2026-03-26T14:42:32Z</time></trkpt><trkpt lat="41.83307836324782" lon="12.587478916910085"><ele>73.0</ele><time>2026-03-26T14:42:33Z</time></trkpt><trkpt lat="41.833225061421004" lon="12.587568170437066"><ele>73.0</ele><time>2026-03-26T14:42:34Z</time></trkpt><trkpt lat="41.833367331165086" lon="12.587652295670928"><ele>73.0</ele><time>2026-03-26T14:42:35Z</time></trkpt><trkpt lat="41.833509231564555" lon="12.587734888673543"><ele>72.33333333333333</ele><time>2026-03-26T14:42:36Z</time></trkpt><trkpt lat="41.833651742189616" lon="12.58782299475738"><ele>71.66666666666667</ele><time>2026-03-26T14:42:37Z</time></trkpt><trkpt lat="41.83379766336312" lon="12.587922347556216"><ele>71.0</ele><time>2026-03-26T14:42:38Z</time></trkpt><trkpt lat="41.83394474455573" lon="12.588029874319002"><ele>71.0</ele><time>2026-03-26T14:42:39Z</time></trkpt><trkpt lat="41.83409649825244" lon="12.588138905533915"><ele>71.0</ele><time>2026-03-26T14:42:40Z</time></trkpt><trkpt lat="41.83424760327036" lon="12.588244968993404"><ele>71.0</ele><time>2026-03-26T14:42:41Z</time></trkpt><trkpt lat="41.83439968997963" lon="12.588350814217726"><ele>71.66666666666667</ele><time>2026-03-26T14:42:42Z</time></trkpt><trkpt lat="41.83455382380818" lon="12.588456867039364"><ele>72.33333333333333</ele><time>2026-03-26T14:42:43Z</time></trkpt><trkpt lat="41.83470992709544" lon="12.588569413146422"><ele>73.0</ele><time>2026-03-26T14:42:44Z</time></trkpt><trkpt lat="41.83486639245759" lon="12.588682737712597"><ele>73.33333333333333</ele><time>2026-03-26T14:42:45Z</time></trkpt><trkpt lat="41.835020891593004" lon="12.588794524778283"><ele>73.66666666666667</ele><time>2026-03-26T14:42:46Z</time></trkpt><trkpt lat="41.835175315944284" lon="12.588904522157119"><ele>74.0</ele><time>2026-03-26T14:42:47Z</time></trkpt><trkpt lat="41.83532839465637" lon="12.58900752056589"><ele>74.0</ele><time>2026-03-26T14:42:48Z</time></trkpt><trkpt lat="41.83547341339162" lon="12.589101446979393"><ele>74.0</ele><time>2026-03-26T14:42:49Z</time></trkpt><trkpt lat="41.835612908018355" lon="12.589192127947001"><ele>74.0</ele><time>2026-03-26T14:42:50Z</time></trkpt><trkpt lat="41.83574789127378" lon="12.589279520672175"><ele>74.0</ele><time>2026-03-26T14:42:51Z</time></trkpt><trkpt lat="41.83587389949012" lon="12.589358475916967"><ele>74.0</ele><time>2026-03-26T14:42:52Z</time></trkpt><trkpt lat="41.83598503325616" lon="12.589428368709118"><ele>74.0</ele><time>2026-03-26T14:42:53Z</time></trkpt><trkpt lat="41.836085118837815" lon="12.589486206757822"><ele>74.0</ele><time>2026-03-26T14:42:54Z</time></trkpt><trkpt lat="41.83617214564781" lon="12.589538970129892"><ele>74.5</ele><time>2026-03-26T14:42:55Z</time></trkpt><trkpt lat="41.836253628793806" lon="12.589587932542605"><ele>75.0</ele><time>2026-03-26T14:42:56Z</time></trkpt><trkpt lat="41.83632591668664" lon="12.589630399276563"><ele>75.5</ele><time>2026-03-26T14:42:57Z</time></trkpt><trkpt lat="41.83639326718796" lon="12.589670838032575"><ele>76.0</ele><time>2026-03-26T14:42:58Z</time></trkpt><trkpt lat="41.836451934178996" lon="12.589703929529835"><ele>76.5</ele><time>2026-03-26T14:42:59Z</time></trkpt><trkpt lat="41.836528796160444" lon="12.589743515504658"><ele>77.0</ele><time>2026-03-26T14:43:00.999Z</time></trkpt><trkpt lat="41.836608981640964" lon="12.589797699061817"><ele>77.0</ele><time>2026-03-26T14:43:04.999Z</time></trkpt><trkpt lat="41.83666926832358" lon="12.589836576919105"><ele>77.0</ele><time>2026-03-26T14:43:06.999Z</time></trkpt><trkpt lat="41.83675536326747" lon="12.589890381161442"><ele>77.0</ele><time>2026-03-26T14:43:08.999Z</time></trkpt><trkpt lat="41.83683606825288" lon="12.589942068513217"><ele>77.0</ele><time>2026-03-26T14:43:10.999Z</time></trkpt><trkpt lat="41.83692521236274" lon="12.59001680549512"><ele>77.0</ele><time>2026-03-26T14:43:12.999Z</time></trkpt><trkpt lat="41.83698032910377" lon="12.590070273596012"><ele>77.0</ele><time>2026-03-26T14:43:13.999Z</time></trkpt><trkpt lat="41.837051718873035" lon="12.59011999608156"><ele>77.0</ele><time>2026-03-26T14:43:14.999Z</time></trkpt><trkpt lat="41.837139458948556" lon="12.590176981439342"><ele>77.0</ele><time>2026-03-26T14:43:15.999Z</time></trkpt><trkpt lat="41.837246870345574" lon="12.590230735103352"><ele>77.0</ele><time>2026-03-26T14:43:16.999Z</time></trkpt><trkpt lat="41.83735791899464" lon="12.590289800487783"><ele>77.0</ele><time>2026-03-26T14:43:17.999Z</time></trkpt><trkpt lat="41.8374569768545" lon="12.590344987933634"><ele>77.0</ele><time>2026-03-26T14:43:18.999Z</time></trkpt><trkpt lat="41.83754295395288" lon="12.590392870300038"><ele>76.83333333333334</ele><time>2026-03-26T14:43:19.999Z</time></trkpt><trkpt lat="41.837618685043864" lon="12.59043869877913"><ele>76.66666666666667</ele><time>2026-03-26T14:43:20.999Z</time></trkpt><trkpt lat="41.837677519182115" lon="12.590472100841009"><ele>76.5</ele><time>2026-03-26T14:43:21.999Z</time></trkpt><trkpt lat="41.837766944484954" lon="12.590514089798113"><ele>76.33333333333333</ele><time>2026-03-26T14:43:23.999Z</time></trkpt><trkpt lat="41.837834457814466" lon="12.590536611791851"><ele>76.16666666666666</ele><time>2026-03-26T14:43:25.999Z</time></trkpt><trkpt lat="41.837922150089554" lon="12.590575650408715"><ele>76.0</ele><time>2026-03-26T14:43:27.999Z</time></trkpt><trkpt lat="41.83797920222958" lon="12.590612456861436"><ele>75.25</ele><time>2026-03-26T14:43:28.999Z</time></trkpt><trkpt lat="41.83810735267241" lon="12.590682245380789"><ele>74.5</ele><time>2026-03-26T14:43:30.999Z</time></trkpt><trkpt lat="41.83818907889767" lon="12.59073238896994"><ele>73.75</ele><time>2026-03-26T14:43:31.999Z</time></trkpt><trkpt lat="41.83828335150279" lon="12.590799207112543"><ele>73.0</ele><time>2026-03-26T14:43:32.999Z</time></trkpt><trkpt lat="41.83839471352052" lon="12.590868155397194"><ele>73.0</ele><time>2026-03-26T14:43:33.999Z</time></trkpt><trkpt lat="41.83851723839111" lon="12.590939471231064"><ele>73.0</ele><time>2026-03-26T14:43:34.999Z</time></trkpt><trkpt lat="41.83864636686842" lon="12.5910118827397"><ele>73.0</ele><time>2026-03-26T14:43:35.999Z</time></trkpt><trkpt lat="41.83876602282664" lon="12.591081685681992"><ele>73.0</ele><time>2026-03-26T14:43:36.999Z</time></trkpt><trkpt lat="41.838880064564364" lon="12.591146971975334"><ele>73.25</ele><time>2026-03-26T14:43:37.999Z</time></trkpt><trkpt lat="41.83898953041333" lon="12.591206824069149"><ele>73.5</ele><time>2026-03-26T14:43:38.999Z</time></trkpt><trkpt lat="41.83909398668471" lon="12.5912666755404"><ele>73.75</ele><time>2026-03-26T14:43:39.999Z</time></trkpt><trkpt lat="41.83919724314381" lon="12.59132685933183"><ele>74.0</ele><time>2026-03-26T14:43:40.999Z</time></trkpt><trkpt lat="41.839301219397235" lon="12.591388006774082"><ele>74.16666666666667</ele><time>2026-03-26T14:43:41.999Z</time></trkpt><trkpt lat="41.83940249848585" lon="12.591445596931898"><ele>74.33333333333334</ele><time>2026-03-26T14:43:42.999Z</time></trkpt><trkpt lat="41.839488598501525" lon="12.591493080406162"><ele>74.5</ele><time>2026-03-26T14:43:43.999Z</time></trkpt><trkpt lat="41.83955677486832" lon="12.591531208519417"><ele>74.66666666666667</ele><time>2026-03-26T14:43:45Z</time></trkpt><trkpt lat="41.83961967213382" lon="12.591568889075369"><ele>74.83333333333333</ele><time>2026-03-26T14:43:46Z</time></trkpt><trkpt lat="41.8396847886252" lon="12.591611354073093"><ele>75.0</ele><time>2026-03-26T14:43:47Z</time></trkpt><trkpt lat="41.83974789571404" lon="12.591659440465905"><ele>75.0</ele><time>2026-03-26T14:43:48Z</time></trkpt><trkpt lat="41.83982983709106" lon="12.59171621805311"><ele>75.0</ele><time>2026-03-26T14:43:49Z</time></trkpt><trkpt lat="41.83992998213088" lon="12.591771768902246"><ele>75.0</ele><time>2026-03-26T14:43:50Z</time></trkpt><trkpt lat="41.840042018192364" lon="12.591826479872681"><ele>75.0</ele><time>2026-03-26T14:43:51Z</time></trkpt><trkpt lat="41.84015516274682" lon="12.59188572738238"><ele>75.0</ele><time>2026-03-26T14:43:52Z</time></trkpt><trkpt lat="41.84026947074883" lon="12.591950022525346"><ele>75.4</ele><time>2026-03-26T14:43:53Z</time></trkpt><trkpt lat="41.84037705192377" lon="12.592009056584384"><ele>75.8</ele><time>2026-03-26T14:43:54Z</time></trkpt><trkpt lat="41.840484429411205" lon="12.592064643246983"><ele>76.2</ele><time>2026-03-26T14:43:55Z</time></trkpt><trkpt lat="41.840584903339995" lon="12.592121334017536"><ele>76.6</ele><time>2026-03-26T14:43:56Z</time></trkpt><trkpt lat="41.84068047806043" lon="12.592176183096168"><ele>77.0</ele><time>2026-03-26T14:43:57Z</time></trkpt><trkpt lat="41.84076984333674" lon="12.592229096292572"><ele>77.0</ele><time>2026-03-26T14:43:58Z</time></trkpt><trkpt lat="41.84086960184367" lon="12.592285554790063"><ele>77.0</ele><time>2026-03-26T14:43:59Z</time></trkpt><trkpt lat="41.840983458657" lon="12.592341754848949"><ele>77.0</ele><time>2026-03-26T14:44:00Z</time></trkpt><trkpt lat="41.84111546570349" lon="12.592399507450109"><ele>77.0</ele><time>2026-03-26T14:44:01Z</time></trkpt><trkpt lat="41.841258348970655" lon="12.592459746684716"><ele>76.25</ele><time>2026-03-26T14:44:02Z</time></trkpt><trkpt lat="41.84139208865423" lon="12.59251638017799"><ele>75.5</ele><time>2026-03-26T14:44:03Z</time></trkpt><trkpt lat="41.841511110426374" lon="12.592569643971574"><ele>74.75</ele><time>2026-03-26T14:44:04Z</time></trkpt><trkpt lat="41.841622754218726" lon="12.592622492330818"><ele>74.0</ele><time>2026-03-26T14:44:05Z</time></trkpt><trkpt lat="41.84173794935563" lon="12.592677363400956"><ele>74.0</ele><time>2026-03-26T14:44:06Z</time></trkpt><trkpt lat="41.84185710472056" lon="12.592737488706247"><ele>74.0</ele><time>2026-03-26T14:44:07Z</time></trkpt><trkpt lat="41.8419767157412" lon="12.592801784321997"><ele>74.0</ele><time>2026-03-26T14:44:08Z</time></trkpt><trkpt lat="41.84209498312838" lon="12.592866575477402"><ele>74.0</ele><time>2026-03-26T14:44:09Z</time></trkpt><trkpt lat="41.8422123592965" lon="12.59293215309845"><ele>74.0</ele><time>2026-03-26T14:44:10Z</time></trkpt><trkpt lat="41.84233851131313" lon="12.593004766991054"><ele>74.0</ele><time>2026-03-26T14:44:11Z</time></trkpt><trkpt lat="41.84247021483469" lon="12.593087412678917"><ele>74.0</ele><time>2026-03-26T14:44:12Z</time></trkpt><trkpt lat="41.842610985652854" lon="12.59317460001059"><ele>74.0</ele><time>2026-03-26T14:44:13Z</time></trkpt><trkpt lat="41.84276321491462" lon="12.593265035780046"><ele>73.66666666666667</ele><time>2026-03-26T14:44:14Z</time></trkpt><trkpt lat="41.842924799653325" lon="12.593354170379595"><ele>73.33333333333333</ele><time>2026-03-26T14:44:15Z</time></trkpt><trkpt lat="41.84309096605619" lon="12.59344943047681"><ele>73.0</ele><time>2026-03-26T14:44:16Z</time></trkpt><trkpt lat="41.84326253119735" lon="12.593546451746583"><ele>73.0</ele><time>2026-03-26T14:44:17Z</time></trkpt><trkpt lat="41.84343852537195" lon="12.593643278644558"><ele>73.0</ele><time>2026-03-26T14:44:18Z</time></trkpt><trkpt lat="41.84361401421425" lon="12.593740797117619"><ele>73.0</ele><time>2026-03-26T14:44:19Z</time></trkpt><trkpt lat="41.84378682251086" lon="12.593841355358885"><ele>72.0</ele><time>2026-03-26T14:44:20Z</time></trkpt><trkpt lat="41.84396262268185" lon="12.593941694887299"><ele>71.0</ele><time>2026-03-26T14:44:21Z</time></trkpt><trkpt lat="41.84414045339263" lon="12.594040941259788"><ele>70.0</ele><time>2026-03-26T14:44:22Z</time></trkpt><trkpt lat="41.844320223778276" lon="12.594141130163159"><ele>69.66666666666666</ele><time>2026-03-26T14:44:23Z</time></trkpt><trkpt lat="41.844500263165074" lon="12.594243041355588"><ele>69.33333333333333</ele><time>2026-03-26T14:44:24Z</time></trkpt><trkpt lat="41.84468058386421" lon="12.59434322558214"><ele>69.0</ele><time>2026-03-26T14:44:25Z</time></trkpt><trkpt lat="41.84486073457278" lon="12.594443301816533"><ele>69.66666666666667</ele><time>2026-03-26T14:44:26Z</time></trkpt><trkpt lat="41.84504094819294" lon="12.5945439552166"><ele>70.33333333333334</ele><time>2026-03-26T14:44:27Z</time></trkpt><trkpt lat="41.84522397155016" lon="12.59464492228084"><ele>71.0</ele><time>2026-03-26T14:44:28Z</time></trkpt><trkpt lat="41.84540779927058" lon="12.594747863644294"><ele>71.0</ele><time>2026-03-26T14:44:29Z</time></trkpt><trkpt lat="41.845595438016574" lon="12.594851311909924"><ele>71.0</ele><time>2026-03-26T14:44:30Z</time></trkpt><trkpt lat="41.84578481566618" lon="12.594955958226983"><ele>71.0</ele><time>2026-03-26T14:44:31Z</time></trkpt><trkpt lat="41.845976952796434" lon="12.595060939109546"><ele>71.66666666666667</ele><time>2026-03-26T14:44:32Z</time></trkpt><trkpt lat="41.846170397526976" lon="12.595163465617023"><ele>72.33333333333333</ele><time>2026-03-26T14:44:33Z</time></trkpt><trkpt lat="41.846365065056816" lon="12.595264136236363"><ele>73.0</ele><time>2026-03-26T14:44:34Z</time></trkpt><trkpt lat="41.84655382720217" lon="12.595358529728697"><ele>73.0</ele><time>2026-03-26T14:44:35Z</time></trkpt><trkpt lat="41.84674234068224" lon="12.595451659069246"><ele>73.0</ele><time>2026-03-26T14:44:36Z</time></trkpt><trkpt lat="41.84693240603859" lon="12.595541032993133"><ele>73.0</ele><time>2026-03-26T14:44:37Z</time></trkpt><trkpt lat="41.84712550784751" lon="12.595628701972204"><ele>72.66666666666666</ele><time>2026-03-26T14:44:38Z</time></trkpt><trkpt lat="41.84732164997135" lon="12.595715944424924"><ele>72.33333333333333</ele><time>2026-03-26T14:44:39Z</time></trkpt><trkpt lat="41.847519367561915" lon="12.595802343554734"><ele>72.0</ele><time>2026-03-26T14:44:40Z</time></trkpt><trkpt lat="41.847707701817676" lon="12.595881708143539"><ele>71.0</ele><time>2026-03-26T14:44:41Z</time></trkpt><trkpt lat="41.84788976792666" lon="12.595955060003996"><ele>70.0</ele><time>2026-03-26T14:44:42Z</time></trkpt><trkpt lat="41.84806484760624" lon="12.596022254789068"><ele>69.0</ele><time>2026-03-26T14:44:43Z</time></trkpt><trkpt lat="41.84823615530539" lon="12.596087828961144"><ele>69.0</ele><time>2026-03-26T14:44:44Z</time></trkpt><trkpt lat="41.84840711193426" lon="12.596150124195393"><ele>69.0</ele><time>2026-03-26T14:44:45Z</time></trkpt><trkpt lat="41.848583499283784" lon="12.596215232832229"><ele>69.0</ele><time>2026-03-26T14:44:46Z</time></trkpt><trkpt lat="41.8487658494352" lon="12.596266470659003"><ele>69.33333333333333</ele><time>2026-03-26T14:44:47Z</time></trkpt><trkpt lat="41.84895305109177" lon="12.596323292093793"><ele>69.66666666666666</ele><time>2026-03-26T14:44:48Z</time></trkpt><trkpt lat="41.84914127804247" lon="12.596379732124785"><ele>70.0</ele><time>2026-03-26T14:44:49Z</time></trkpt><trkpt lat="41.849330336815214" lon="12.596436421549221"><ele>70.0</ele><time>2026-03-26T14:44:50Z</time></trkpt><trkpt lat="41.84952131765586" lon="12.596551584642151"><ele>70.0</ele><time>2026-03-26T14:44:51Z</time></trkpt><trkpt lat="41.849727872913455" lon="12.596620545198984"><ele>70.0</ele><time>2026-03-26T14:44:52Z</time></trkpt><trkpt lat="41.84994169668443" lon="12.596687619357954"><ele>68.33333333333333</ele><time>2026-03-26T14:44:53Z</time></trkpt><trkpt lat="41.850159931243766" lon="12.596751056569975"><ele>66.66666666666667</ele><time>2026-03-26T14:44:54Z</time></trkpt><trkpt lat="41.850375556487336" lon="12.59681643186023"><ele>65.0</ele><time>2026-03-26T14:44:55Z</time></trkpt><trkpt lat="41.85057868179377" lon="12.596875508332811"><ele>65.0</ele><time>2026-03-26T14:44:56Z</time></trkpt><trkpt lat="41.850779227704024" lon="12.596936417617314"><ele>65.0</ele><time>2026-03-26T14:44:57Z</time></trkpt><trkpt lat="41.850973506567975" lon="12.59699536464973"><ele>65.0</ele><time>2026-03-26T14:44:58Z</time></trkpt><trkpt lat="41.85116991947795" lon="12.597055414734498"><ele>65.33333333333334</ele><time>2026-03-26T14:44:59Z</time></trkpt><trkpt lat="41.8513595639761" lon="12.597114409746645"><ele>65.66666666666667</ele><time>2026-03-26T14:45:00Z</time></trkpt><trkpt lat="41.85153843492346" lon="12.597175022214692"><ele>66.0</ele><time>2026-03-26T14:45:01Z</time></trkpt><trkpt lat="41.85170302655676" lon="12.59724695392695"><ele>66.25</ele><time>2026-03-26T14:45:02Z</time></trkpt><trkpt lat="41.85184710202492" lon="12.597314725992138"><ele>66.5</ele><time>2026-03-26T14:45:03Z</time></trkpt><trkpt lat="41.851973025014956" lon="12.597382505735983"><ele>66.75</ele><time>2026-03-26T14:45:04Z</time></trkpt><trkpt lat="41.85208378219578" lon="12.597457988946646"><ele>67.0</ele><time>2026-03-26T14:45:05Z</time></trkpt><trkpt lat="41.85218166470755" lon="12.597551601365872"><ele>67.0</ele><time>2026-03-26T14:45:06Z</time></trkpt><trkpt lat="41.852259417975624" lon="12.597662206928923"><ele>67.0</ele><time>2026-03-26T14:45:07Z</time></trkpt><trkpt lat="41.8523282597021" lon="12.597788070884324"><ele>67.0</ele><time>2026-03-26T14:45:08Z</time></trkpt><trkpt lat="41.85237358139227" lon="12.59794004136348"><ele>67.0</ele><time>2026-03-26T14:45:08.999Z</time></trkpt><trkpt lat="41.852401982984055" lon="12.598110880590628"><ele>67.0</ele><time>2026-03-26T14:45:09.999Z</time></trkpt><trkpt lat="41.85241473937075" lon="12.598293573917326"><ele>67.0</ele><time>2026-03-26T14:45:10.999Z</time></trkpt><trkpt lat="41.85241696409001" lon="12.598486882494896"><ele>67.0</ele><time>2026-03-26T14:45:11.999Z</time></trkpt><trkpt lat="41.85239885521618" lon="12.598689391148733"><ele>67.0</ele><time>2026-03-26T14:45:12.999Z</time></trkpt><trkpt lat="41.85236311290739" lon="12.598894313651433"><ele>68.33333333333333</ele><time>2026-03-26T14:45:13.999Z</time></trkpt><trkpt lat="41.85231466780165" lon="12.599084451702623"><ele>69.66666666666667</ele><time>2026-03-26T14:45:14.999Z</time></trkpt><trkpt lat="41.852260166564186" lon="12.59930304178887"><ele>71.0</ele><time>2026-03-26T14:45:15.999Z</time></trkpt><trkpt lat="41.85220212206657" lon="12.599525858167834"><ele>71.33333333333334</ele><time>2026-03-26T14:45:16.999Z</time></trkpt><trkpt lat="41.85213959306946" lon="12.599737853181757"><ele>71.66666666666667</ele><time>2026-03-26T14:45:17.999Z</time></trkpt><trkpt lat="41.85208008159575" lon="12.5999371084101"><ele>72.0</ele><time>2026-03-26T14:45:18.999Z</time></trkpt><trkpt lat="41.852023677604734" lon="12.600125007631714"><ele>72.0</ele><time>2026-03-26T14:45:19.999Z</time></trkpt><trkpt lat="41.85196657148705" lon="12.60031222654996"><ele>72.0</ele><time>2026-03-26T14:45:20.999Z</time></trkpt><trkpt lat="41.85190834072854" lon="12.600507629242646"><ele>72.0</ele><time>2026-03-26T14:45:21.999Z</time></trkpt><trkpt lat="41.851847078472325" lon="12.600706720921927"><ele>71.0</ele><time>2026-03-26T14:45:22.999Z</time></trkpt><trkpt lat="41.85178103068858" lon="12.600912918367191"><ele>70.0</ele><time>2026-03-26T14:45:23.999Z</time></trkpt><trkpt lat="41.85171117674069" lon="12.601128087841307"><ele>69.0</ele><time>2026-03-26T14:45:24.999Z</time></trkpt><trkpt lat="41.8516360427466" lon="12.601347565694207"><ele>68.33333333333333</ele><time>2026-03-26T14:45:25.999Z</time></trkpt><trkpt lat="41.85156109913896" lon="12.601571764447957"><ele>67.66666666666666</ele><time>2026-03-26T14:45:26.999Z</time></trkpt><trkpt lat="41.851482643100724" lon="12.601798822455235"><ele>67.0</ele><time>2026-03-26T14:45:27.999Z</time></trkpt><trkpt lat="41.85140312482451" lon="12.602027532899518"><ele>65.66666666666666</ele><time>2026-03-26T14:45:28.999Z</time></trkpt><trkpt lat="41.85132165618782" lon="12.6022602686456"><ele>64.33333333333333</ele><time>2026-03-26T14:45:29.999Z</time></trkpt><trkpt lat="41.85123881758637" lon="12.602496902831492"><ele>63.0</ele><time>2026-03-26T14:45:30.999Z</time></trkpt><trkpt lat="41.851154763675574" lon="12.60273763712975"><ele>63.0</ele><time>2026-03-26T14:45:31.999Z</time></trkpt><trkpt lat="41.85107041755148" lon="12.60298341553168"><ele>63.0</ele><time>2026-03-26T14:45:32.999Z</time></trkpt><trkpt lat="41.85098567892519" lon="12.603226857973317"><ele>63.0</ele><time>2026-03-26T14:45:33.999Z</time></trkpt><trkpt lat="41.85090119873318" lon="12.603467496582613"><ele>64.66666666666667</ele><time>2026-03-26T14:45:34.999Z</time></trkpt><trkpt lat="41.85081599430354" lon="12.603706358193223"><ele>66.33333333333334</ele><time>2026-03-26T14:45:35.999Z</time></trkpt><trkpt lat="41.850728087481" lon="12.603946520300923"><ele>68.0</ele><time>2026-03-26T14:45:36.999Z</time></trkpt><trkpt lat="41.85063983170623" lon="12.604188562380891"><ele>68.0</ele><time>2026-03-26T14:45:37.999Z</time></trkpt><trkpt lat="41.850553060786865" lon="12.604433265197889"><ele>68.0</ele><time>2026-03-26T14:45:38.999Z</time></trkpt><trkpt lat="41.85046448853734" lon="12.604678763061958"><ele>68.0</ele><time>2026-03-26T14:45:39.999Z</time></trkpt><trkpt lat="41.850377581094236" lon="12.604925835977836"><ele>68.33333333333334</ele><time>2026-03-26T14:45:40.999Z</time></trkpt><trkpt lat="41.85029115630888" lon="12.605171950814025"><ele>68.66666666666667</ele><time>2026-03-26T14:45:41.999Z</time></trkpt><trkpt lat="41.85020476173581" lon="12.605415998280263"><ele>69.0</ele><time>2026-03-26T14:45:42.999Z</time></trkpt><trkpt lat="41.850119013112966" lon="12.605659830274009"><ele>69.0</ele><time>2026-03-26T14:45:43.999Z</time></trkpt><trkpt lat="41.85003196304918" lon="12.605902324604799"><ele>69.0</ele><time>2026-03-26T14:45:44.999Z</time></trkpt><trkpt lat="41.849942784518284" lon="12.606142650012986"><ele>69.0</ele><time>2026-03-26T14:45:45.999Z</time></trkpt><trkpt lat="41.849849769733126" lon="12.606379215648476"><ele>69.0</ele><time>2026-03-26T14:45:46.999Z</time></trkpt><trkpt lat="41.849756608997886" lon="12.60661976040044"><ele>69.0</ele><time>2026-03-26T14:45:47.999Z</time></trkpt><trkpt lat="41.84966774302053" lon="12.606855613229055"><ele>69.0</ele><time>2026-03-26T14:45:48.999Z</time></trkpt><trkpt lat="41.849581219401465" lon="12.60708821675642"><ele>69.0</ele><time>2026-03-26T14:45:49.999Z</time></trkpt><trkpt lat="41.84949477375403" lon="12.607325341543932"><ele>69.0</ele><time>2026-03-26T14:45:51Z</time></trkpt><trkpt lat="41.84940812214319" lon="12.607565569714858"><ele>69.0</ele><time>2026-03-26T14:45:52Z</time></trkpt><trkpt lat="41.849321406702465" lon="12.607806456798007"><ele>69.33333333333333</ele><time>2026-03-26T14:45:53Z</time></trkpt><trkpt lat="41.84923711388399" lon="12.608038155372057"><ele>69.66666666666666</ele><time>2026-03-26T14:45:54Z</time></trkpt><trkpt lat="41.84915300672146" lon="12.608271822483601"><ele>70.0</ele><time>2026-03-26T14:45:55Z</time></trkpt><trkpt lat="41.849067547898066" lon="12.608507224248866"><ele>71.33333333333333</ele><time>2026-03-26T14:45:56Z</time></trkpt><trkpt lat="41.84898300442209" lon="12.60874801573874"><ele>72.66666666666667</ele><time>2026-03-26T14:45:57Z</time></trkpt><trkpt lat="41.848898582311804" lon="12.608993923351717"><ele>74.0</ele><time>2026-03-26T14:45:58Z</time></trkpt><trkpt lat="41.84880833694696" lon="12.6092468455945"><ele>74.66666666666667</ele><time>2026-03-26T14:45:59Z</time></trkpt><trkpt lat="41.848714633012456" lon="12.609502920140047"><ele>75.33333333333333</ele><time>2026-03-26T14:46:00Z</time></trkpt><trkpt lat="41.84862141385617" lon="12.609761224365098"><ele>76.0</ele><time>2026-03-26T14:46:01Z</time></trkpt><trkpt lat="41.8485281097541" lon="12.610018012578163"><ele>76.0</ele><time>2026-03-26T14:46:02Z</time></trkpt><trkpt lat="41.84843463915441" lon="12.610274701257548"><ele>76.0</ele><time>2026-03-26T14:46:03Z</time></trkpt><trkpt lat="41.84834125271474" lon="12.610532861524302"><ele>76.0</ele><time>2026-03-26T14:46:04Z</time></trkpt><trkpt lat="41.848247432798836" lon="12.610790389904471"><ele>76.0</ele><time>2026-03-26T14:46:05Z</time></trkpt><trkpt lat="41.84815215983235" lon="12.611052366084602"><ele>76.0</ele><time>2026-03-26T14:46:06Z</time></trkpt><trkpt lat="41.848054875474396" lon="12.611322422261921"><ele>76.0</ele><time>2026-03-26T14:46:07Z</time></trkpt><trkpt lat="41.84795618148996" lon="12.611597919029183"><ele>73.5</ele><time>2026-03-26T14:46:08Z</time></trkpt><trkpt lat="41.84785364320938" lon="12.611876143007343"><ele>71.0</ele><time>2026-03-26T14:46:09Z</time></trkpt><trkpt lat="41.847751132034965" lon="12.612156321881438"><ele>72.0</ele><time>2026-03-26T14:46:10Z</time></trkpt><trkpt lat="41.84764915936425" lon="12.612436929369833"><ele>73.0</ele><time>2026-03-26T14:46:11Z</time></trkpt><trkpt lat="41.84754748850015" lon="12.612714191385214"><ele>72.33333333333333</ele><time>2026-03-26T14:46:12Z</time></trkpt><trkpt lat="41.84744985052871" lon="12.612982895439464"><ele>71.66666666666667</ele><time>2026-03-26T14:46:13Z</time></trkpt><trkpt lat="41.84735468701565" lon="12.613243220687519"><ele>71.0</ele><time>2026-03-26T14:46:14Z</time></trkpt><trkpt lat="41.8472596588083" lon="12.613505936045808"><ele>71.33333333333334</ele><time>2026-03-26T14:46:15Z</time></trkpt><trkpt lat="41.84716609214316" lon="12.613766439078368"><ele>71.66666666666667</ele><time>2026-03-26T14:46:16Z</time></trkpt><trkpt lat="41.84707367852898" lon="12.614028908280122"><ele>72.0</ele><time>2026-03-26T14:46:17Z</time></trkpt><trkpt lat="41.84698351697402" lon="12.614278105305948"><ele>72.0</ele><time>2026-03-26T14:46:18Z</time></trkpt><trkpt lat="41.84689639664663" lon="12.614520764732726"><ele>72.0</ele><time>2026-03-26T14:46:19Z</time></trkpt><trkpt lat="41.84680710009374" lon="12.614763791643675"><ele>72.0</ele><time>2026-03-26T14:46:20Z</time></trkpt><trkpt lat="41.846717260084965" lon="12.615009776504092"><ele>72.33333333333333</ele><time>2026-03-26T14:46:21Z</time></trkpt><trkpt lat="41.84662803830282" lon="12.615258686646698"><ele>72.66666666666666</ele><time>2026-03-26T14:46:22Z</time></trkpt><trkpt lat="41.8465365495553" lon="12.615515710523322"><ele>73.0</ele><time>2026-03-26T14:46:23Z</time></trkpt><trkpt lat="41.846443921907884" lon="12.615775322506646"><ele>73.66666666666666</ele><time>2026-03-26T14:46:24Z</time></trkpt><trkpt lat="41.846350755808075" lon="12.616034260135224"><ele>74.33333333333333</ele><time>2026-03-26T14:46:25Z</time></trkpt><trkpt lat="41.84625646054845" lon="12.616292209518644"><ele>75.0</ele><time>2026-03-26T14:46:26Z</time></trkpt><trkpt lat="41.846163132261076" lon="12.616554366830124"><ele>74.66666666666667</ele><time>2026-03-26T14:46:27Z</time></trkpt><trkpt lat="41.84606763411111" lon="12.616815465681157"><ele>74.33333333333334</ele><time>2026-03-26T14:46:28Z</time></trkpt><trkpt lat="41.84597207733796" lon="12.617079255497856"><ele>74.0</ele><time>2026-03-26T14:46:29Z</time></trkpt><trkpt lat="41.8458749222791" lon="12.617345793282436"><ele>74.0</ele><time>2026-03-26T14:46:30Z</time></trkpt><trkpt lat="41.845777278153314" lon="12.61761437461629"><ele>74.0</ele><time>2026-03-26T14:46:31Z</time></trkpt><trkpt lat="41.84567983268143" lon="12.61788307463003"><ele>74.0</ele><time>2026-03-26T14:46:32Z</time></trkpt><trkpt lat="41.845580745158294" lon="12.618155470446734"><ele>74.0</ele><time>2026-03-26T14:46:33Z</time></trkpt><trkpt lat="41.84548086275437" lon="12.618432477852343"><ele>74.0</ele><time>2026-03-26T14:46:34Z</time></trkpt><trkpt lat="41.84538096101506" lon="12.618709154642884"><ele>73.5</ele><time>2026-03-26T14:46:35Z</time></trkpt><trkpt lat="41.845280761436655" lon="12.618988042747565"><ele>73.0</ele><time>2026-03-26T14:46:36Z</time></trkpt><trkpt lat="41.84518144069666" lon="12.619266458281892"><ele>72.5</ele><time>2026-03-26T14:46:37Z</time></trkpt><trkpt lat="41.8450826879065" lon="12.619545118070578"><ele>72.0</ele><time>2026-03-26T14:46:38Z</time></trkpt><trkpt lat="41.8449859065188" lon="12.619823945676508"><ele>72.0</ele><time>2026-03-26T14:46:39Z</time></trkpt><trkpt lat="41.84488973834858" lon="12.620106336299745"><ele>72.0</ele><time>2026-03-26T14:46:40Z</time></trkpt><trkpt lat="41.84479263488096" lon="12.620390752611282"><ele>74.0</ele><time>2026-03-26T14:46:41Z</time></trkpt><trkpt lat="41.844694478644875" lon="12.620668757170247"><ele>76.0</ele><time>2026-03-26T14:46:42Z</time></trkpt><trkpt lat="41.844597299420286" lon="12.620945115184064"><ele>77.5</ele><time>2026-03-26T14:46:43Z</time></trkpt><trkpt lat="41.844501842093344" lon="12.621219195912646"><ele>79.0</ele><time>2026-03-26T14:46:44Z</time></trkpt><trkpt lat="41.84440754639241" lon="12.621495275003161"><ele>79.0</ele><time>2026-03-26T14:46:45Z</time></trkpt><trkpt lat="41.844311688178614" lon="12.62176847137314"><ele>79.0</ele><time>2026-03-26T14:46:46Z</time></trkpt><trkpt lat="41.84421781850854" lon="12.622043215236852"><ele>78.5</ele><time>2026-03-26T14:46:47Z</time></trkpt><trkpt lat="41.84412101984826" lon="12.622315602729142"><ele>78.0</ele><time>2026-03-26T14:46:48Z</time></trkpt><trkpt lat="41.84401646235755" lon="12.622587862371613"><ele>77.5</ele><time>2026-03-26T14:46:49Z</time></trkpt><trkpt lat="41.84391179708186" lon="12.622864639101953"><ele>77.0</ele><time>2026-03-26T14:46:50Z</time></trkpt><trkpt lat="41.84380247788143" lon="12.623139301411989"><ele>77.0</ele><time>2026-03-26T14:46:51Z</time></trkpt><trkpt lat="41.843692721875" lon="12.623417343781714"><ele>77.0</ele><time>2026-03-26T14:46:52Z</time></trkpt><trkpt lat="41.843585011316144" lon="12.62369919884761"><ele>76.5</ele><time>2026-03-26T14:46:53Z</time></trkpt><trkpt lat="41.84348096171639" lon="12.623987404364799"><ele>76.0</ele><time>2026-03-26T14:46:54Z</time></trkpt><trkpt lat="41.84338077344661" lon="12.62428044884275"><ele>77.0</ele><time>2026-03-26T14:46:55Z</time></trkpt><trkpt lat="41.843277642502805" lon="12.62457849920125"><ele>78.0</ele><time>2026-03-26T14:46:56Z</time></trkpt><trkpt lat="41.843173862047884" lon="12.624881952532725"><ele>78.0</ele><time>2026-03-26T14:46:57Z</time></trkpt><trkpt lat="41.84306758223203" lon="12.625185012140433"><ele>78.0</ele><time>2026-03-26T14:46:58Z</time></trkpt><trkpt lat="41.84296033906087" lon="12.62548824630215"><ele>77.5</ele><time>2026-03-26T14:46:59Z</time></trkpt><trkpt lat="41.842852636823814" lon="12.625789933594206"><ele>77.0</ele><time>2026-03-26T14:47:00Z</time></trkpt><trkpt lat="41.84274586201814" lon="12.626094218166594"><ele>79.0</ele><time>2026-03-26T14:47:01Z</time></trkpt><trkpt lat="41.84264110615303" lon="12.6263955755666"><ele>81.0</ele><time>2026-03-26T14:47:02Z</time></trkpt><trkpt lat="41.842533810291854" lon="12.626697022327267"><ele>81.5</ele><time>2026-03-26T14:47:03Z</time></trkpt><trkpt lat="41.842425549956936" lon="12.62699756486066"><ele>82.0</ele><time>2026-03-26T14:47:04Z</time></trkpt><trkpt lat="41.84231784392257" lon="12.627294196077454"><ele>82.0</ele><time>2026-03-26T14:47:05Z</time></trkpt><trkpt lat="41.842212465686366" lon="12.627591786119806"><ele>82.0</ele><time>2026-03-26T14:47:06Z</time></trkpt><trkpt lat="41.84210684083874" lon="12.627887240087412"><ele>81.5</ele><time>2026-03-26T14:47:07Z</time></trkpt><trkpt lat="41.841999258002616" lon="12.628180807790073"><ele>81.0</ele><time>2026-03-26T14:47:08Z</time></trkpt><trkpt lat="41.841890708592516" lon="12.628474990164436"><ele>81.5</ele><time>2026-03-26T14:47:09Z</time></trkpt><trkpt lat="41.84178293066156" lon="12.628772136970532"><ele>82.0</ele><time>2026-03-26T14:47:09.999Z</time></trkpt><trkpt lat="41.841675078767416" lon="12.629068137638772"><ele>82.0</ele><time>2026-03-26T14:47:10.999Z</time></trkpt><trkpt lat="41.84156863928816" lon="12.62936469427512"><ele>82.0</ele><time>2026-03-26T14:47:11.999Z</time></trkpt><trkpt lat="41.84146203339237" lon="12.62966365617605"><ele>82.5</ele><time>2026-03-26T14:47:12.999Z</time></trkpt><trkpt lat="41.84135378144769" lon="12.629964818299976"><ele>83.0</ele><time>2026-03-26T14:47:13.999Z</time></trkpt><trkpt lat="41.84124266667634" lon="12.630267717311634"><ele>83.0</ele><time>2026-03-26T14:47:14.999Z</time></trkpt><trkpt lat="41.841130705200044" lon="12.630574154589684"><ele>83.0</ele><time>2026-03-26T14:47:15.999Z</time></trkpt><trkpt lat="41.8410180514999" lon="12.630883931478964"><ele>84.0</ele><time>2026-03-26T14:47:16.999Z</time></trkpt><trkpt lat="41.84090799897196" lon="12.631189734224199"><ele>85.0</ele><time>2026-03-26T14:47:17.999Z</time></trkpt><trkpt lat="41.840802532312125" lon="12.6314866275097"><ele>85.0</ele><time>2026-03-26T14:47:18.999Z</time></trkpt><trkpt lat="41.840704155679184" lon="12.631765961063362"><ele>85.0</ele><time>2026-03-26T14:47:19.999Z</time></trkpt><trkpt lat="41.84060377480746" lon="12.632043444748323"><ele>84.5</ele><time>2026-03-26T14:47:20.999Z</time></trkpt><trkpt lat="41.84049978139428" lon="12.632324799886508"><ele>84.0</ele><time>2026-03-26T14:47:21.999Z</time></trkpt><trkpt lat="41.840395901860354" lon="12.632610331234547"><ele>86.0</ele><time>2026-03-26T14:47:22.999Z</time></trkpt><trkpt lat="41.84029277747027" lon="12.632894939938344"><ele>88.0</ele><time>2026-03-26T14:47:23.999Z</time></trkpt><trkpt lat="41.8401898319943" lon="12.633182244294302"><ele>88.5</ele><time>2026-03-26T14:47:24.999Z</time></trkpt><trkpt lat="41.84008546445734" lon="12.633470871608687"><ele>89.0</ele><time>2026-03-26T14:47:25.999Z</time></trkpt><trkpt lat="41.83998099050305" lon="12.63376334314742"><ele>89.5</ele><time>2026-03-26T14:47:26.999Z</time></trkpt><trkpt lat="41.83987488672953" lon="12.63405831290972"><ele>90.0</ele><time>2026-03-26T14:47:27.999Z</time></trkpt><trkpt lat="41.83976762910609" lon="12.634357487305804"><ele>92.5</ele><time>2026-03-26T14:47:28.999Z</time></trkpt><trkpt lat="41.839658748282886" lon="12.634658357963382"><ele>95.0</ele><time>2026-03-26T14:47:29.999Z</time></trkpt><trkpt lat="41.83954856159472" lon="12.634961997668993"><ele>95.0</ele><time>2026-03-26T14:47:30.999Z</time></trkpt><trkpt lat="41.839438008845015" lon="12.635267287708048"><ele>95.0</ele><time>2026-03-26T14:47:31.999Z</time></trkpt><trkpt lat="41.83932886785763" lon="12.635568947685057"><ele>95.0</ele><time>2026-03-26T14:47:32.999Z</time></trkpt><trkpt lat="41.839220914957764" lon="12.635865480289999"><ele>95.0</ele><time>2026-03-26T14:47:33.999Z</time></trkpt><trkpt lat="41.839113211953695" lon="12.636159425687385"><ele>96.0</ele><time>2026-03-26T14:47:34.999Z</time></trkpt><trkpt lat="41.839003196493586" lon="12.636453476309201"><ele>97.0</ele><time>2026-03-26T14:47:35.999Z</time></trkpt><trkpt lat="41.83889362476197" lon="12.636741668375468"><ele>97.5</ele><time>2026-03-26T14:47:36.999Z</time></trkpt><trkpt lat="41.83878883962863" lon="12.637038070895478"><ele>98.0</ele><time>2026-03-26T14:47:37.999Z</time></trkpt><trkpt lat="41.83868546419037" lon="12.637335040318893"><ele>98.0</ele><time>2026-03-26T14:47:38.999Z</time></trkpt><trkpt lat="41.838579643756084" lon="12.637633473726963"><ele>98.0</ele><time>2026-03-26T14:47:39.999Z</time></trkpt><trkpt lat="41.838473804046615" lon="12.637932200310068"><ele>100.0</ele><time>2026-03-26T14:47:40.999Z</time></trkpt><trkpt lat="41.83836720845523" lon="12.638228877886817"><ele>102.0</ele><time>2026-03-26T14:47:41.999Z</time></trkpt><trkpt lat="41.838260876782414" lon="12.638523086696475"><ele>102.5</ele><time>2026-03-26T14:47:42.999Z</time></trkpt><trkpt lat="41.838154005013614" lon="12.638816882355714"><ele>103.0</ele><time>2026-03-26T14:47:43.999Z</time></trkpt><trkpt lat="41.83805077816796" lon="12.63910669303043"><ele>103.0</ele><time>2026-03-26T14:47:44.999Z</time></trkpt><trkpt lat="41.83794514293026" lon="12.6393968406804"><ele>103.0</ele><time>2026-03-26T14:47:45.999Z</time></trkpt><trkpt lat="41.837839543582355" lon="12.639688265567408"><ele>103.0</ele><time>2026-03-26T14:47:46.999Z</time></trkpt><trkpt lat="41.83773309364354" lon="12.639981257967712"><ele>103.0</ele><time>2026-03-26T14:47:47.999Z</time></trkpt><trkpt lat="41.83762767781601" lon="12.640275846244172"><ele>104.0</ele><time>2026-03-26T14:47:48.999Z</time></trkpt><trkpt lat="41.837521320029715" lon="12.64057304854784"><ele>105.0</ele><time>2026-03-26T14:47:49.999Z</time></trkpt><trkpt lat="41.8374115976024" lon="12.64087148295443"><ele>106.0</ele><time>2026-03-26T14:47:50.999Z</time></trkpt><trkpt lat="41.837302935711456" lon="12.641167721167056"><ele>107.0</ele><time>2026-03-26T14:47:51.999Z</time></trkpt><trkpt lat="41.83719486772458" lon="12.641463203070266"><ele>107.0</ele><time>2026-03-26T14:47:52.999Z</time></trkpt><trkpt lat="41.837088749747366" lon="12.64175708439835"><ele>107.0</ele><time>2026-03-26T14:47:53.999Z</time></trkpt><trkpt lat="41.83698302228386" lon="12.642048429270108"><ele>107.5</ele><time>2026-03-26T14:47:54.999Z</time></trkpt><trkpt lat="41.83687593898266" lon="12.642342447402081"><ele>108.0</ele><time>2026-03-26T14:47:55.999Z</time></trkpt><trkpt lat="41.83676953557118" lon="12.64263721166564"><ele>106.0</ele><time>2026-03-26T14:47:57Z</time></trkpt><trkpt lat="41.836663235682124" lon="12.64292934347333"><ele>104.0</ele><time>2026-03-26T14:47:58Z</time></trkpt><trkpt lat="41.83656150615003" lon="12.643202261979045"><ele>104.0</ele><time>2026-03-26T14:47:59Z</time></trkpt><trkpt lat="41.83646732592379" lon="12.64345948654233"><ele>104.0</ele><time>2026-03-26T14:48:00Z</time></trkpt><trkpt lat="41.83637700048749" lon="12.643703983139247"><ele>104.0</ele><time>2026-03-26T14:48:01Z</time></trkpt><trkpt lat="41.83628815672549" lon="12.643945033929096"><ele>103.33333333333333</ele><time>2026-03-26T14:48:02Z</time></trkpt><trkpt lat="41.83619606860363" lon="12.644202265317313"><ele>102.66666666666666</ele><time>2026-03-26T14:48:03Z</time></trkpt><trkpt lat="41.83610149928593" lon="12.644467890924785"><ele>102.0</ele><time>2026-03-26T14:48:04Z</time></trkpt><trkpt lat="41.83600266787007" lon="12.644740524936141"><ele>104.0</ele><time>2026-03-26T14:48:05Z</time></trkpt><trkpt lat="41.835902258858574" lon="12.64501724925255"><ele>106.0</ele><time>2026-03-26T14:48:06Z</time></trkpt><trkpt lat="41.83579979468593" lon="12.645294002039748"><ele>105.0</ele><time>2026-03-26T14:48:07Z</time></trkpt><trkpt lat="41.8356980341033" lon="12.645571408439858"><ele>104.0</ele><time>2026-03-26T14:48:08Z</time></trkpt><trkpt lat="41.835594768445375" lon="12.645850343835003"><ele>104.0</ele><time>2026-03-26T14:48:09Z</time></trkpt><trkpt lat="41.83549275124186" lon="12.646123938577148"><ele>104.0</ele><time>2026-03-26T14:48:10Z</time></trkpt><trkpt lat="41.83539399768942" lon="12.646392222716807"><ele>104.33333333333333</ele><time>2026-03-26T14:48:11Z</time></trkpt><trkpt lat="41.835296497190754" lon="12.64666072915215"><ele>104.66666666666666</ele><time>2026-03-26T14:48:12Z</time></trkpt><trkpt lat="41.83520099644562" lon="12.646926888946071"><ele>105.0</ele><time>2026-03-26T14:48:13Z</time></trkpt><trkpt lat="41.83510983514192" lon="12.647178002759038"><ele>106.33333333333334</ele><time>2026-03-26T14:48:14Z</time></trkpt><trkpt lat="41.83502128133143" lon="12.647421970646485"><ele>107.66666666666667</ele><time>2026-03-26T14:48:15Z</time></trkpt><trkpt lat="41.83493744693869" lon="12.64765374253147"><ele>109.0</ele><time>2026-03-26T14:48:16Z</time></trkpt><trkpt lat="41.83485560915747" lon="12.647883176097087"><ele>109.66666666666667</ele><time>2026-03-26T14:48:17Z</time></trkpt><trkpt lat="41.834772228563644" lon="12.64811229328555"><ele>110.33333333333334</ele><time>2026-03-26T14:48:18Z</time></trkpt><trkpt lat="41.8346925574158" lon="12.648330231830244"><ele>111.0</ele><time>2026-03-26T14:48:19Z</time></trkpt><trkpt lat="41.83461534547909" lon="12.648540874320211"><ele>112.66666666666666</ele><time>2026-03-26T14:48:20Z</time></trkpt><trkpt lat="41.83453776946731" lon="12.64875240371591"><ele>114.33333333333333</ele><time>2026-03-26T14:48:21Z</time></trkpt><trkpt lat="41.834458200714714" lon="12.648965916533633"><ele>116.0</ele><time>2026-03-26T14:48:22Z</time></trkpt><trkpt lat="41.8343785182591" lon="12.649177638665366"><ele>116.0</ele><time>2026-03-26T14:48:23Z</time></trkpt><trkpt lat="41.834300533104155" lon="12.649381532522662"><ele>116.0</ele><time>2026-03-26T14:48:24Z</time></trkpt><trkpt lat="41.83422576263364" lon="12.649568857396533"><ele>116.0</ele><time>2026-03-26T14:48:25Z</time></trkpt><trkpt lat="41.8341542002666" lon="12.649736422829985"><ele>115.75</ele><time>2026-03-26T14:48:26Z</time></trkpt><trkpt lat="41.834085780683466" lon="12.649895825791619"><ele>115.5</ele><time>2026-03-26T14:48:27Z</time></trkpt><trkpt lat="41.834018669242255" lon="12.650047680459386"><ele>115.25</ele><time>2026-03-26T14:48:28Z</time></trkpt><trkpt lat="41.83395429526552" lon="12.6501875184655"><ele>115.0</ele><time>2026-03-26T14:48:29Z</time></trkpt><trkpt lat="41.8338931039816" lon="12.65031346973725"><ele>115.0</ele><time>2026-03-26T14:48:30Z</time></trkpt><trkpt lat="41.83383785425028" lon="12.650425321773819"><ele>115.0</ele><time>2026-03-26T14:48:31Z</time></trkpt><trkpt lat="41.833783260326534" lon="12.650534137863527"><ele>115.0</ele><time>2026-03-26T14:48:32Z</time></trkpt><trkpt lat="41.83372730954865" lon="12.650634203039878"><ele>115.0</ele><time>2026-03-26T14:48:33Z</time></trkpt><trkpt lat="41.83367106458069" lon="12.65073418425578"><ele>115.0</ele><time>2026-03-26T14:48:34Z</time></trkpt><trkpt lat="41.83362242383389" lon="12.650825298374762"><ele>115.0</ele><time>2026-03-26T14:48:35Z</time></trkpt><trkpt lat="41.833566360413116" lon="12.650886811383984"><ele>115.0</ele><time>2026-03-26T14:48:36Z</time></trkpt><trkpt lat="41.83347679219555" lon="12.650993110603652"><ele>115.0</ele><time>2026-03-26T14:48:38Z</time></trkpt><trkpt lat="41.83338278781637" lon="12.651112109076786"><ele>115.0</ele><time>2026-03-26T14:48:40Z</time></trkpt><trkpt lat="41.833338428284584" lon="12.651177288979845"><ele>115.0</ele><time>2026-03-26T14:48:41Z</time></trkpt><trkpt lat="41.83325755726228" lon="12.651303592867569"><ele>115.8</ele><time>2026-03-26T14:48:43Z</time></trkpt><trkpt lat="41.83320019600135" lon="12.651416975228779"><ele>116.6</ele><time>2026-03-26T14:48:45Z</time></trkpt><trkpt lat="41.83315225810477" lon="12.651523928971287"><ele>117.4</ele><time>2026-03-26T14:48:47Z</time></trkpt><trkpt lat="41.83309963207402" lon="12.651657825402856"><ele>118.2</ele><time>2026-03-26T14:48:49Z</time></trkpt><trkpt lat="41.833068028618996" lon="12.651746926401723"><ele>119.0</ele><time>2026-03-26T14:48:50Z</time></trkpt><trkpt lat="41.833032227981185" lon="12.651849583616483"><ele>118.80000000000001</ele><time>2026-03-26T14:48:51Z</time></trkpt><trkpt lat="41.832994358082466" lon="12.651961784129458"><ele>118.60000000000001</ele><time>2026-03-26T14:48:52Z</time></trkpt><trkpt lat="41.832957452935354" lon="12.652084104556055"><ele>118.4</ele><time>2026-03-26T14:48:53Z</time></trkpt><trkpt lat="41.83293110375545" lon="12.65220393201549"><ele>118.2</ele><time>2026-03-26T14:48:54Z</time></trkpt><trkpt lat="41.83289992883815" lon="12.652319384743908"><ele>118.0</ele><time>2026-03-26T14:48:55Z</time></trkpt><trkpt lat="41.8328470142741" lon="12.652435933310974"><ele>118.0</ele><time>2026-03-26T14:48:56Z</time></trkpt><trkpt lat="41.832793586557315" lon="12.652563914524688"><ele>118.0</ele><time>2026-03-26T14:48:57Z</time></trkpt><trkpt lat="41.832744324363134" lon="12.652701291232047"><ele>118.0</ele><time>2026-03-26T14:48:58Z</time></trkpt><trkpt lat="41.83270035515939" lon="12.652845827904844"><ele>118.0</ele><time>2026-03-26T14:48:59Z</time></trkpt><trkpt lat="41.83266195504731" lon="12.653001405478124"><ele>118.25</ele><time>2026-03-26T14:49:00Z</time></trkpt><trkpt lat="41.832631398751474" lon="12.65316653672903"><ele>118.5</ele><time>2026-03-26T14:49:01Z</time></trkpt><trkpt lat="41.83260849908818" lon="12.653324719519443"><ele>118.75</ele><time>2026-03-26T14:49:02Z</time></trkpt><trkpt lat="41.83258856949291" lon="12.653472532436423"><ele>119.0</ele><time>2026-03-26T14:49:03Z</time></trkpt><trkpt lat="41.83256819410195" lon="12.653604188462893"><ele>118.6</ele><time>2026-03-26T14:49:04Z</time></trkpt><trkpt lat="41.83254693515521" lon="12.653727000246166"><ele>118.2</ele><time>2026-03-26T14:49:05Z</time></trkpt><trkpt lat="41.8325210283916" lon="12.65384986091377"><ele>117.79999999999998</ele><time>2026-03-26T14:49:06Z</time></trkpt><trkpt lat="41.83248718796676" lon="12.653980245724691"><ele>117.39999999999999</ele><time>2026-03-26T14:49:07Z</time></trkpt><trkpt lat="41.832447228754134" lon="12.654117531797864"><ele>117.0</ele><time>2026-03-26T14:49:08Z</time></trkpt><trkpt lat="41.83240706190463" lon="12.654250775060033"><ele>117.0</ele><time>2026-03-26T14:49:09Z</time></trkpt><trkpt lat="41.83237172508486" lon="12.654362160730404"><ele>116.99999999999999</ele><time>2026-03-26T14:49:10Z</time></trkpt><trkpt lat="41.832333605170824" lon="12.654466073910164"><ele>116.99999999999999</ele><time>2026-03-26T14:49:11Z</time></trkpt><trkpt lat="41.83228703191101" lon="12.654570380251366"><ele>117.0</ele><time>2026-03-26T14:49:12Z</time></trkpt><trkpt lat="41.83223418777996" lon="12.654674121846202"><ele>117.0</ele><time>2026-03-26T14:49:13Z</time></trkpt><trkpt lat="41.8321753339205" lon="12.654771454955794"><ele>117.66666666666667</ele><time>2026-03-26T14:49:14Z</time></trkpt><trkpt lat="41.83211548700632" lon="12.654858230862454"><ele>118.33333333333334</ele><time>2026-03-26T14:49:15Z</time></trkpt><trkpt lat="41.832048038254655" lon="12.654940025861148"><ele>119.0</ele><time>2026-03-26T14:49:16Z</time></trkpt><trkpt lat="41.83197858341582" lon="12.655004928495936"><ele>119.66666666666667</ele><time>2026-03-26T14:49:17Z</time></trkpt><trkpt lat="41.83191096664213" lon="12.655055657656911"><ele>120.33333333333334</ele><time>2026-03-26T14:49:18Z</time></trkpt><trkpt lat="41.831840526246815" lon="12.655109093077426"><ele>121.0</ele><time>2026-03-26T14:49:19Z</time></trkpt><trkpt lat="41.831772850026475" lon="12.655171300577937"><ele>121.8</ele><time>2026-03-26T14:49:20Z</time></trkpt><trkpt lat="41.8317113486436" lon="12.655252727524715"><ele>122.6</ele><time>2026-03-26T14:49:21Z</time></trkpt><trkpt lat="41.83165214594181" lon="12.655348816498233"><ele>123.4</ele><time>2026-03-26T14:49:21.999Z</time></trkpt><trkpt lat="41.831595882785706" lon="12.655458336142296"><ele>124.2</ele><time>2026-03-26T14:49:22.999Z</time></trkpt><trkpt lat="41.83155328133443" lon="12.655566719358301"><ele>125.0</ele><time>2026-03-26T14:49:23.999Z</time></trkpt><trkpt lat="41.83151926914077" lon="12.655686423996475"><ele>125.8</ele><time>2026-03-26T14:49:24.999Z</time></trkpt><trkpt lat="41.831479935088076" lon="12.65581219105484"><ele>126.6</ele><time>2026-03-26T14:49:25.999Z</time></trkpt><trkpt lat="41.83142586286627" lon="12.655948116628721"><ele>127.4</ele><time>2026-03-26T14:49:26.999Z</time></trkpt><trkpt lat="41.83137138487928" lon="12.656088520721392"><ele>128.2</ele><time>2026-03-26T14:49:27.999Z</time></trkpt><trkpt lat="41.83132416120752" lon="12.656215487355693"><ele>129.0</ele><time>2026-03-26T14:49:28.999Z</time></trkpt><trkpt lat="41.83128583851218" lon="12.656323433801605"><ele>129.66666666666666</ele><time>2026-03-26T14:49:29.999Z</time></trkpt><trkpt lat="41.83125621821364" lon="12.656421972722962"><ele>130.33333333333334</ele><time>2026-03-26T14:49:30.999Z</time></trkpt><trkpt lat="41.83123165140408" lon="12.656515724520167"><ele>131.0</ele><time>2026-03-26T14:49:31.999Z</time></trkpt><trkpt lat="41.831211024140984" lon="12.656598212767703"><ele>131.66666666666669</ele><time>2026-03-26T14:49:32.999Z</time></trkpt><trkpt lat="41.831178656493165" lon="12.656747228281372"><ele>132.33333333333334</ele><time>2026-03-26T14:49:34.999Z</time></trkpt><trkpt lat="41.83115898904357" lon="12.65683665830045"><ele>133.0</ele><time>2026-03-26T14:49:35.999Z</time></trkpt><trkpt lat="41.83112926317522" lon="12.656934476106485"><ele>132.8</ele><time>2026-03-26T14:49:36.999Z</time></trkpt><trkpt lat="41.83109310156415" lon="12.657038208681907"><ele>132.60000000000002</ele><time>2026-03-26T14:49:37.999Z</time></trkpt><trkpt lat="41.83105875392978" lon="12.657137781631512"><ele>132.39999999999998</ele><time>2026-03-26T14:49:38.999Z</time></trkpt><trkpt lat="41.8310289944236" lon="12.657224246138998"><ele>132.2</ele><time>2026-03-26T14:49:39.999Z</time></trkpt><trkpt lat="41.830986142204665" lon="12.657372053368208"><ele>132.0</ele><time>2026-03-26T14:49:41.999Z</time></trkpt><trkpt lat="41.830974111361556" lon="12.657502834206324"><ele>132.0</ele><time>2026-03-26T14:49:43.999Z</time></trkpt><trkpt lat="41.83098080763896" lon="12.657601713661126"><ele>132.0</ele><time>2026-03-26T14:49:45.999Z</time></trkpt><trkpt lat="41.83095024026627" lon="12.657697872156076"><ele>132.0</ele><time>2026-03-26T14:49:48.999Z</time></trkpt><trkpt lat="41.83087444867042" lon="12.657772920000202"><ele>132.0</ele><time>2026-03-26T14:52:01.999Z</time></trkpt><trkpt lat="41.83085097014714" lon="12.65793837322609"><ele>132.0</ele><time>2026-03-26T14:52:03.999Z</time></trkpt><trkpt lat="41.830839935649784" lon="12.658031147880168"><ele>132.0</ele><time>2026-03-26T14:52:04.999Z</time></trkpt><trkpt lat="41.830868245105044" lon="12.658139106352262"><ele>131.79999999999998</ele><time>2026-03-26T14:52:05.999Z</time></trkpt><trkpt lat="41.83086547071563" lon="12.658253184759033"><ele>131.6</ele><time>2026-03-26T14:52:06.999Z</time></trkpt><trkpt lat="41.830864106467445" lon="12.658376782711636"><ele>131.39999999999998</ele><time>2026-03-26T14:52:07.999Z</time></trkpt><trkpt lat="41.83085819747085" lon="12.658506318480322"><ele>131.2</ele><time>2026-03-26T14:52:09Z</time></trkpt><trkpt lat="41.83084512219697" lon="12.658646610671415"><ele>131.0</ele><time>2026-03-26T14:52:10Z</time></trkpt><trkpt lat="41.83081954124256" lon="12.658790198837082"><ele>130.25</ele><time>2026-03-26T14:52:11Z</time></trkpt><trkpt lat="41.83078497177588" lon="12.658934910499788"><ele>129.5</ele><time>2026-03-26T14:52:12Z</time></trkpt><trkpt lat="41.83076757640247" lon="12.659092161850008"><ele>128.75</ele><time>2026-03-26T14:52:13Z</time></trkpt><trkpt lat="41.83068789841454" lon="12.659235556646156"><ele>128.0</ele><time>2026-03-26T14:52:14Z</time></trkpt><trkpt lat="41.830631311342486" lon="12.659399953583314"><ele>128.0</ele><time>2026-03-26T14:52:15Z</time></trkpt><trkpt lat="41.83056901943581" lon="12.659579846329411"><ele>128.0</ele><time>2026-03-26T14:52:16Z</time></trkpt><trkpt lat="41.83049851601346" lon="12.659773035835224"><ele>128.0</ele><time>2026-03-26T14:52:17Z</time></trkpt><trkpt lat="41.830422477076084" lon="12.659981498481923"><ele>128.0</ele><time>2026-03-26T14:52:18Z</time></trkpt><trkpt lat="41.83034311924182" lon="12.660205183303844"><ele>128.0</ele><time>2026-03-26T14:52:19Z</time></trkpt><trkpt lat="41.830256718383296" lon="12.660449511383893"><ele>128.0</ele><time>2026-03-26T14:52:20Z</time></trkpt><trkpt lat="41.83016406506353" lon="12.660707627952439"><ele>129.0</ele><time>2026-03-26T14:52:21Z</time></trkpt><trkpt lat="41.83006717283413" lon="12.660978247359488"><ele>130.0</ele><time>2026-03-26T14:52:22Z</time></trkpt><trkpt lat="41.82997344038447" lon="12.66125196623954"><ele>131.0</ele><time>2026-03-26T14:52:23Z</time></trkpt><trkpt lat="41.82988238036226" lon="12.66150501393121"><ele>132.66666666666666</ele><time>2026-03-26T14:52:24Z</time></trkpt><trkpt lat="41.82979974883861" lon="12.661739785914904"><ele>134.33333333333334</ele><time>2026-03-26T14:52:25Z</time></trkpt><trkpt lat="41.82972190832934" lon="12.66196090503384"><ele>136.0</ele><time>2026-03-26T14:52:26Z</time></trkpt><trkpt lat="41.829641778526934" lon="12.662188361922956"><ele>138.33333333333334</ele><time>2026-03-26T14:52:27Z</time></trkpt><trkpt lat="41.829560831338476" lon="12.662421604003036"><ele>140.66666666666666</ele><time>2026-03-26T14:52:28Z</time></trkpt><trkpt lat="41.82947807360336" lon="12.662661930828657"><ele>143.0</ele><time>2026-03-26T14:52:29Z</time></trkpt><trkpt lat="41.82939210231165" lon="12.66290431662072"><ele>144.66666666666666</ele><time>2026-03-26T14:52:30Z</time></trkpt><trkpt lat="41.82930658463656" lon="12.663142122094635"><ele>146.33333333333334</ele><time>2026-03-26T14:52:31Z</time></trkpt><trkpt lat="41.82922403805612" lon="12.663374354181505"><ele>148.0</ele><time>2026-03-26T14:52:32Z</time></trkpt><trkpt lat="41.82914421258167" lon="12.663600960676884"><ele>149.0</ele><time>2026-03-26T14:52:33Z</time></trkpt><trkpt lat="41.8290645164754" lon="12.663827779851204"><ele>150.0</ele><time>2026-03-26T14:52:34Z</time></trkpt><trkpt lat="41.828980657105" lon="12.664063417802076"><ele>151.0</ele><time>2026-03-26T14:52:35Z</time></trkpt><trkpt lat="41.8288941939984" lon="12.664304736221927"><ele>151.0</ele><time>2026-03-26T14:52:36Z</time></trkpt><trkpt lat="41.82880561543931" lon="12.664551816673498"><ele>151.0</ele><time>2026-03-26T14:52:37Z</time></trkpt><trkpt lat="41.82871614337963" lon="12.664802495878384"><ele>151.0</ele><time>2026-03-26T14:52:38Z</time></trkpt><trkpt lat="41.82862540883689" lon="12.665054917627254"><ele>150.0</ele><time>2026-03-26T14:52:39Z</time></trkpt><trkpt lat="41.82853431070651" lon="12.665309456149755"><ele>149.0</ele><time>2026-03-26T14:52:40Z</time></trkpt><trkpt lat="41.82844191042343" lon="12.66556407752685"><ele>148.0</ele><time>2026-03-26T14:52:41Z</time></trkpt><trkpt lat="41.828349288425244" lon="12.665816371775064"><ele>150.0</ele><time>2026-03-26T14:52:42Z</time></trkpt><trkpt lat="41.82826064745259" lon="12.666063229080178"><ele>152.0</ele><time>2026-03-26T14:52:43Z</time></trkpt><trkpt lat="41.82817110045129" lon="12.666309032179523"><ele>154.0</ele><time>2026-03-26T14:52:44Z</time></trkpt><trkpt lat="41.828079824041424" lon="12.666553089666628"><ele>154.66666666666669</ele><time>2026-03-26T14:52:45Z</time></trkpt><trkpt lat="41.82798891697232" lon="12.666799165731485"><ele>155.33333333333334</ele><time>2026-03-26T14:52:46Z</time></trkpt><trkpt lat="41.82789603091384" lon="12.66705031109175"><ele>156.0</ele><time>2026-03-26T14:52:47Z</time></trkpt><trkpt lat="41.82780384094934" lon="12.667313933454851"><ele>156.0</ele><time>2026-03-26T14:52:48Z</time></trkpt><trkpt lat="41.82771066386318" lon="12.667574811644487"><ele>156.0</ele><time>2026-03-26T14:52:49Z</time></trkpt><trkpt lat="41.82761570681659" lon="12.667843483541027"><ele>156.0</ele><time>2026-03-26T14:52:50Z</time></trkpt><trkpt lat="41.827516842233415" lon="12.6681157907424"><ele>161.5</ele><time>2026-03-26T14:52:51Z</time></trkpt><trkpt lat="41.827418923637545" lon="12.668387885817602"><ele>167.0</ele><time>2026-03-26T14:52:52Z</time></trkpt><trkpt lat="41.8273223806346" lon="12.668669905093422"><ele>168.5</ele><time>2026-03-26T14:52:53Z</time></trkpt><trkpt lat="41.8272249622475" lon="12.668951341495456"><ele>170.0</ele><time>2026-03-26T14:52:54Z</time></trkpt><trkpt lat="41.827132340950186" lon="12.669218222821305"><ele>171.33333333333331</ele><time>2026-03-26T14:52:55Z</time></trkpt><trkpt lat="41.82704732947812" lon="12.669476277980662"><ele>172.66666666666666</ele><time>2026-03-26T14:52:56Z</time></trkpt><trkpt lat="41.82696244663222" lon="12.66972884735363"><ele>174.0</ele><time>2026-03-26T14:52:57Z</time></trkpt><trkpt lat="41.826873567484796" lon="12.669978864624719"><ele>175.0</ele><time>2026-03-26T14:52:58Z</time></trkpt><trkpt lat="41.82678290945197" lon="12.670234698522894"><ele>176.0</ele><time>2026-03-26T14:52:59Z</time></trkpt><trkpt lat="41.82668839240491" lon="12.670491724297742"><ele>177.0</ele><time>2026-03-26T14:53:00Z</time></trkpt><trkpt lat="41.826594980568224" lon="12.67074725063563"><ele>178.66666666666666</ele><time>2026-03-26T14:53:01Z</time></trkpt><trkpt lat="41.826508157334644" lon="12.671003010887627"><ele>180.33333333333331</ele><time>2026-03-26T14:53:02Z</time></trkpt><trkpt lat="41.82642681839742" lon="12.671254123862496"><ele>182.0</ele><time>2026-03-26T14:53:03Z</time></trkpt><trkpt lat="41.826351444848804" lon="12.671504106935032"><ele>183.33333333333331</ele><time>2026-03-26T14:53:04Z</time></trkpt><trkpt lat="41.82628003956673" lon="12.671754096220937"><ele>184.66666666666666</ele><time>2026-03-26T14:53:05Z</time></trkpt><trkpt lat="41.826212348645086" lon="12.672011504086237"><ele>186.0</ele><time>2026-03-26T14:53:06Z</time></trkpt><trkpt lat="41.826148252238546" lon="12.67227972331172"><ele>187.33333333333334</ele><time>2026-03-26T14:53:07Z</time></trkpt><trkpt lat="41.82609101636608" lon="12.67254897847085"><ele>188.66666666666669</ele><time>2026-03-26T14:53:08Z</time></trkpt><trkpt lat="41.826039060257436" lon="12.67281566154131"><ele>190.0</ele><time>2026-03-26T14:53:09Z</time></trkpt><trkpt lat="41.82599397634644" lon="12.673077789101262"><ele>192.33333333333334</ele><time>2026-03-26T14:53:10Z</time></trkpt><trkpt lat="41.825955214814435" lon="12.673335366716218"><ele>194.66666666666669</ele><time>2026-03-26T14:53:11Z</time></trkpt><trkpt lat="41.825923091614165" lon="12.673593888617875"><ele>197.0</ele><time>2026-03-26T14:53:12Z</time></trkpt><trkpt lat="41.825895663683816" lon="12.673856015722086"><ele>197.66666666666669</ele><time>2026-03-26T14:53:13Z</time></trkpt><trkpt lat="41.825876055053776" lon="12.674120607362772"><ele>198.33333333333331</ele><time>2026-03-26T14:53:14Z</time></trkpt><trkpt lat="41.82585930203895" lon="12.674388892945938"><ele>199.0</ele><time>2026-03-26T14:53:15Z</time></trkpt><trkpt lat="41.82584712590044" lon="12.674660085434459"><ele>199.0</ele><time>2026-03-26T14:53:16Z</time></trkpt><trkpt lat="41.825840427911416" lon="12.67493047435061"><ele>199.0</ele><time>2026-03-26T14:53:17Z</time></trkpt><trkpt lat="41.82584260358189" lon="12.675203362569421"><ele>199.0</ele><time>2026-03-26T14:53:18Z</time></trkpt><trkpt lat="41.825850023097395" lon="12.675476438733348"><ele>199.0</ele><time>2026-03-26T14:53:19Z</time></trkpt><trkpt lat="41.825860228133024" lon="12.675744004174076"><ele>199.0</ele><time>2026-03-26T14:53:20Z</time></trkpt><trkpt lat="41.82587631418906" lon="12.676005166748682"><ele>199.0</ele><time>2026-03-26T14:53:21Z</time></trkpt><trkpt lat="41.82589576144667" lon="12.676259721390913"><ele>198.0</ele><time>2026-03-26T14:53:22Z</time></trkpt><trkpt lat="41.82592130032471" lon="12.676513219034847"><ele>197.0</ele><time>2026-03-26T14:53:23Z</time></trkpt><trkpt lat="41.82595363394879" lon="12.676764883399782"><ele>196.0</ele><time>2026-03-26T14:53:24Z</time></trkpt><trkpt lat="41.82599422088135" lon="12.677016771462046"><ele>196.0</ele><time>2026-03-26T14:53:25Z</time></trkpt><trkpt lat="41.82603395935359" lon="12.677271640654517"><ele>196.0</ele><time>2026-03-26T14:53:26Z</time></trkpt><trkpt lat="41.82607810558391" lon="12.677529480944283"><ele>196.0</ele><time>2026-03-26T14:53:27Z</time></trkpt><trkpt lat="41.82612723481944" lon="12.6777910104721"><ele>197.66666666666666</ele><time>2026-03-26T14:53:28Z</time></trkpt><trkpt lat="41.82618166192516" lon="12.67805682951326"><ele>199.33333333333331</ele><time>2026-03-26T14:53:29Z</time></trkpt><trkpt lat="41.826236324640504" lon="12.678327881769077"><ele>201.0</ele><time>2026-03-26T14:53:30Z</time></trkpt><trkpt lat="41.82629145883371" lon="12.67859827485782"><ele>202.0</ele><time>2026-03-26T14:53:31Z</time></trkpt><trkpt lat="41.82634789011957" lon="12.67886730135599"><ele>203.0</ele><time>2026-03-26T14:53:32Z</time></trkpt><trkpt lat="41.82640593928573" lon="12.679138574555862"><ele>204.0</ele><time>2026-03-26T14:53:33Z</time></trkpt><trkpt lat="41.82646311353155" lon="12.679411399830414"><ele>205.0</ele><time>2026-03-26T14:53:34Z</time></trkpt><trkpt lat="41.82652103259192" lon="12.679683741329898"><ele>206.0</ele><time>2026-03-26T14:53:35Z</time></trkpt><trkpt lat="41.82658143413325" lon="12.679962921307794"><ele>207.0</ele><time>2026-03-26T14:53:35.999Z</time></trkpt><trkpt lat="41.82663900945078" lon="12.680244571958792"><ele>206.66666666666669</ele><time>2026-03-26T14:53:36.999Z</time></trkpt><trkpt lat="41.8266996207904" lon="12.680531143499588"><ele>206.33333333333334</ele><time>2026-03-26T14:53:37.999Z</time></trkpt><trkpt lat="41.82676148483087" lon="12.680820582976136"><ele>206.0</ele><time>2026-03-26T14:53:38.999Z</time></trkpt><trkpt lat="41.826823537570604" lon="12.681112409095366"><ele>202.0</ele><time>2026-03-26T14:53:39.999Z</time></trkpt><trkpt lat="41.82688718067484" lon="12.681407006176546"><ele>198.0</ele><time>2026-03-26T14:53:40.999Z</time></trkpt><trkpt lat="41.82695143014514" lon="12.681706938339524"><ele>201.5</ele><time>2026-03-26T14:53:41.999Z</time></trkpt><trkpt lat="41.827015669327714" lon="12.682007323551124"><ele>205.0</ele><time>2026-03-26T14:53:42.999Z</time></trkpt><trkpt lat="41.827079072744425" lon="12.682308007055193"><ele>205.0</ele><time>2026-03-26T14:53:43.999Z</time></trkpt><trkpt lat="41.8271413924626" lon="12.682610941370589"><ele>205.0</ele><time>2026-03-26T14:53:44.999Z</time></trkpt><trkpt lat="41.82720366898943" lon="12.682913312541398"><ele>205.0</ele><time>2026-03-26T14:53:45.999Z</time></trkpt><trkpt lat="41.82726784694282" lon="12.683217482316564"><ele>205.0</ele><time>2026-03-26T14:53:46.999Z</time></trkpt><trkpt lat="41.827334092392356" lon="12.683524150529465"><ele>205.0</ele><time>2026-03-26T14:53:47.999Z</time></trkpt><trkpt lat="41.82739964542378" lon="12.683834864901037"><ele>205.0</ele><time>2026-03-26T14:53:48.999Z</time></trkpt><trkpt lat="41.82746357912137" lon="12.684149341668384"><ele>206.5</ele><time>2026-03-26T14:53:49.999Z</time></trkpt><trkpt lat="41.82753041016641" lon="12.684469694429598"><ele>208.0</ele><time>2026-03-26T14:53:50.999Z</time></trkpt><trkpt lat="41.82759716520819" lon="12.684793243192976"><ele>205.0</ele><time>2026-03-26T14:53:51.999Z</time></trkpt><trkpt lat="41.82766494202733" lon="12.685121002136052"><ele>202.0</ele><time>2026-03-26T14:53:52.999Z</time></trkpt><trkpt lat="41.827736078701335" lon="12.685452429074667"><ele>202.0</ele><time>2026-03-26T14:53:53.999Z</time></trkpt><trkpt lat="41.8278072747903" lon="12.685787851373073"><ele>202.0</ele><time>2026-03-26T14:53:54.999Z</time></trkpt><trkpt lat="41.827880553129404" lon="12.686129511768844"><ele>202.0</ele><time>2026-03-26T14:53:55.999Z</time></trkpt><trkpt lat="41.82795305968873" lon="12.686472445865277"><ele>202.0</ele><time>2026-03-26T14:53:56.999Z</time></trkpt><trkpt lat="41.82802268178524" lon="12.68681544278648"><ele>201.0</ele><time>2026-03-26T14:53:57.999Z</time></trkpt><trkpt lat="41.828092228471114" lon="12.687162487120041"><ele>200.0</ele><time>2026-03-26T14:53:58.999Z</time></trkpt><trkpt lat="41.82816300199728" lon="12.687508755865675"><ele>200.0</ele><time>2026-03-26T14:53:59.999Z</time></trkpt><trkpt lat="41.82823561003283" lon="12.687863259376988"><ele>200.0</ele><time>2026-03-26T14:54:00.999Z</time></trkpt><trkpt lat="41.82831112542217" lon="12.688215705138251"><ele>200.0</ele><time>2026-03-26T14:54:01.999Z</time></trkpt><trkpt lat="41.82838707561799" lon="12.688567588203561"><ele>200.0</ele><time>2026-03-26T14:54:02.999Z</time></trkpt><trkpt lat="41.82846155750179" lon="12.688918999554447"><ele>200.5</ele><time>2026-03-26T14:54:03.999Z</time></trkpt><trkpt lat="41.82853089030933" lon="12.68927110442247"><ele>201.0</ele><time>2026-03-26T14:54:04.999Z</time></trkpt><trkpt lat="41.82859319957044" lon="12.689622372456585"><ele>201.0</ele><time>2026-03-26T14:54:05.999Z</time></trkpt><trkpt lat="41.82865515306921" lon="12.689972777711354"><ele>201.0</ele><time>2026-03-26T14:54:06.999Z</time></trkpt><trkpt lat="41.828717411912315" lon="12.690324388283077"><ele>204.0</ele><time>2026-03-26T14:54:07.999Z</time></trkpt><trkpt lat="41.828778526146785" lon="12.690673151760633"><ele>207.0</ele><time>2026-03-26T14:54:08.999Z</time></trkpt><trkpt lat="41.82883419504371" lon="12.691021663378045"><ele>210.5</ele><time>2026-03-26T14:54:09.999Z</time></trkpt><trkpt lat="41.828882426054925" lon="12.691371107463857"><ele>214.0</ele><time>2026-03-26T14:54:10.999Z</time></trkpt><trkpt lat="41.82892477776481" lon="12.691723831994803"><ele>216.5</ele><time>2026-03-26T14:54:11.999Z</time></trkpt><trkpt lat="41.828964631901975" lon="12.692078064958627"><ele>219.0</ele><time>2026-03-26T14:54:12.999Z</time></trkpt><trkpt lat="41.8289984821806" lon="12.69243369677411"><ele>219.5</ele><time>2026-03-26T14:54:13.999Z</time></trkpt><trkpt lat="41.829028636647415" lon="12.69279302509732"><ele>220.0</ele><time>2026-03-26T14:54:15Z</time></trkpt><trkpt lat="41.829054909375074" lon="12.693151530216825"><ele>220.0</ele><time>2026-03-26T14:54:16Z</time></trkpt><trkpt lat="41.82907355104711" lon="12.693513223206319"><ele>220.0</ele><time>2026-03-26T14:54:17Z</time></trkpt><trkpt lat="41.829086926798176" lon="12.693873845786287"><ele>219.5</ele><time>2026-03-26T14:54:18Z</time></trkpt><trkpt lat="41.829096911863815" lon="12.694234269171702"><ele>219.0</ele><time>2026-03-26T14:54:19Z</time></trkpt><trkpt lat="41.829102237052155" lon="12.694596757798909"><ele>219.0</ele><time>2026-03-26T14:54:20Z</time></trkpt><trkpt lat="41.829102297846795" lon="12.694959324563946"><ele>219.0</ele><time>2026-03-26T14:54:21Z</time></trkpt><trkpt lat="41.829096627545006" lon="12.69532494524546"><ele>221.0</ele><time>2026-03-26T14:54:22Z</time></trkpt><trkpt lat="41.829083135584405" lon="12.6956893723606"><ele>223.0</ele><time>2026-03-26T14:54:23Z</time></trkpt><trkpt lat="41.829063531549615" lon="12.696053402025587"><ele>226.5</ele><time>2026-03-26T14:54:24Z</time></trkpt><trkpt lat="41.82903911140647" lon="12.6964177962093"><ele>230.0</ele><time>2026-03-26T14:54:25Z</time></trkpt><trkpt lat="41.82900805420128" lon="12.696781566623677"><ele>232.5</ele><time>2026-03-26T14:54:26Z</time></trkpt><trkpt lat="41.828972144600584" lon="12.697144319803098"><ele>235.0</ele><time>2026-03-26T14:54:27Z</time></trkpt><trkpt lat="41.8289299737476" lon="12.697506842701761"><ele>235.5</ele><time>2026-03-26T14:54:28Z</time></trkpt><trkpt lat="41.828884543321585" lon="12.697869690868375"><ele>236.0</ele><time>2026-03-26T14:54:29Z</time></trkpt><trkpt lat="41.82884045360777" lon="12.698230838446454"><ele>239.5</ele><time>2026-03-26T14:54:30Z</time></trkpt><trkpt lat="41.82879213351167" lon="12.698597075235387"><ele>243.0</ele><time>2026-03-26T14:54:31Z</time></trkpt><trkpt lat="41.82874528975643" lon="12.698965843948335"><ele>243.0</ele><time>2026-03-26T14:54:32Z</time></trkpt><trkpt lat="41.828699031960596" lon="12.699336589798637"><ele>243.0</ele><time>2026-03-26T14:54:33Z</time></trkpt><trkpt lat="41.82865340004622" lon="12.699709073110606"><ele>245.0</ele><time>2026-03-26T14:54:34Z</time></trkpt><trkpt lat="41.8286099987135" lon="12.700081704334975"><ele>247.0</ele><time>2026-03-26T14:54:35Z</time></trkpt><trkpt lat="41.82856472355662" lon="12.700454543480829"><ele>248.5</ele><time>2026-03-26T14:54:36Z</time></trkpt><trkpt lat="41.828519838102665" lon="12.700825749978595"><ele>250.0</ele><time>2026-03-26T14:54:37Z</time></trkpt><trkpt lat="41.82847594564183" lon="12.701192377790095"><ele>255.0</ele><time>2026-03-26T14:54:38Z</time></trkpt><trkpt lat="41.82843140399364" lon="12.70155373741451"><ele>260.0</ele><time>2026-03-26T14:54:39Z</time></trkpt><trkpt lat="41.82838793236366" lon="12.701915091164922"><ele>260.0</ele><time>2026-03-26T14:54:40Z</time></trkpt><trkpt lat="41.82834518725516" lon="12.702275386832968"><ele>260.0</ele><time>2026-03-26T14:54:41Z</time></trkpt><trkpt lat="41.82830081810861" lon="12.70263526838152"><ele>259.5</ele><time>2026-03-26T14:54:42Z</time></trkpt><trkpt lat="41.82825717533367" lon="12.702994342554062"><ele>259.0</ele><time>2026-03-26T14:54:43Z</time></trkpt><trkpt lat="41.82821037463317" lon="12.703349891160286"><ele>260.5</ele><time>2026-03-26T14:54:44Z</time></trkpt><trkpt lat="41.82816512913164" lon="12.703706885152716"><ele>262.0</ele><time>2026-03-26T14:54:45Z</time></trkpt><trkpt lat="41.828118810243346" lon="12.704060837600423"><ele>262.0</ele><time>2026-03-26T14:54:46Z</time></trkpt><trkpt lat="41.82806669055174" lon="12.704412287980999"><ele>262.0</ele><time>2026-03-26T14:54:47Z</time></trkpt><trkpt lat="41.82801512892175" lon="12.704765249281158"><ele>261.5</ele><time>2026-03-26T14:54:48Z</time></trkpt><trkpt lat="41.82796366387151" lon="12.705117527288852"><ele>261.0</ele><time>2026-03-26T14:54:49Z</time></trkpt><trkpt lat="41.82791280547876" lon="12.705467834282816"><ele>261.5</ele><time>2026-03-26T14:54:50Z</time></trkpt><trkpt lat="41.827865356228685" lon="12.705819293852967"><ele>262.0</ele><time>2026-03-26T14:54:51Z</time></trkpt><trkpt lat="41.82781802156789" lon="12.706170809013091"><ele>262.0</ele><time>2026-03-26T14:54:52Z</time></trkpt><trkpt lat="41.82777304129627" lon="12.706520090104238"><ele>262.0</ele><time>2026-03-26T14:54:53Z</time></trkpt><trkpt lat="41.827727363963845" lon="12.706872290976737"><ele>264.5</ele><time>2026-03-26T14:54:54Z</time></trkpt><trkpt lat="41.827682735311924" lon="12.707222942744133"><ele>267.0</ele><time>2026-03-26T14:54:55Z</time></trkpt><trkpt lat="41.82763712689292" lon="12.70756944733749"><ele>270.0</ele><time>2026-03-26T14:54:56Z</time></trkpt><trkpt lat="41.82759371672117" lon="12.707919261859995"><ele>273.0</ele><time>2026-03-26T14:54:57Z</time></trkpt><trkpt lat="41.827551658602395" lon="12.708267584240417"><ele>274.5</ele><time>2026-03-26T14:54:58Z</time></trkpt><trkpt lat="41.82751060985172" lon="12.708616320212947"><ele>276.0</ele><time>2026-03-26T14:54:59Z</time></trkpt><trkpt lat="41.82747128828256" lon="12.708965353656456"><ele>276.0</ele><time>2026-03-26T14:55:00Z</time></trkpt><trkpt lat="41.82742955192826" lon="12.709316124203202"><ele>276.0</ele><time>2026-03-26T14:55:01Z</time></trkpt><trkpt lat="41.82738550502253" lon="12.709668888074432"><ele>276.0</ele><time>2026-03-26T14:55:02Z</time></trkpt><trkpt lat="41.82733933944061" lon="12.71002368897501"><ele>276.0</ele><time>2026-03-26T14:55:03Z</time></trkpt><trkpt lat="41.82729373059162" lon="12.710380270746812"><ele>273.0</ele><time>2026-03-26T14:55:04Z</time></trkpt><trkpt lat="41.82724829435202" lon="12.710742264908893"><ele>270.0</ele><time>2026-03-26T14:55:05Z</time></trkpt><trkpt lat="41.82720177351074" lon="12.711109239863084"><ele>270.0</ele><time>2026-03-26T14:55:06Z</time></trkpt><trkpt lat="41.82715653550618" lon="12.711476449321035"><ele>270.0</ele><time>2026-03-26T14:55:07Z</time></trkpt><trkpt lat="41.82710783828555" lon="12.711845607220162"><ele>273.0</ele><time>2026-03-26T14:55:08Z</time></trkpt><trkpt lat="41.827055975114696" lon="12.712212858494608"><ele>276.0</ele><time>2026-03-26T14:55:09Z</time></trkpt><trkpt lat="41.82700194418381" lon="12.7125754489831"><ele>276.0</ele><time>2026-03-26T14:55:10Z</time></trkpt><trkpt lat="41.82694841345728" lon="12.712936355622674"><ele>276.0</ele><time>2026-03-26T14:55:11Z</time></trkpt><trkpt lat="41.82689352629507" lon="12.713295038972854"><ele>278.0</ele><time>2026-03-26T14:55:12Z</time></trkpt><trkpt lat="41.82684579862052" lon="12.71365289067245"><ele>280.0</ele><time>2026-03-26T14:55:13Z</time></trkpt><trkpt lat="41.82679632998639" lon="12.714012743859124"><ele>280.0</ele><time>2026-03-26T14:55:14Z</time></trkpt><trkpt lat="41.82674770182194" lon="12.714371761315373"><ele>280.0</ele><time>2026-03-26T14:55:15Z</time></trkpt><trkpt lat="41.826700124916314" lon="12.714729350768968"><ele>280.5</ele><time>2026-03-26T14:55:16Z</time></trkpt><trkpt lat="41.82665428725357" lon="12.715090272021602"><ele>281.0</ele><time>2026-03-26T14:55:17Z</time></trkpt><trkpt lat="41.82660615005528" lon="12.715450246735388"><ele>281.0</ele><time>2026-03-26T14:55:18Z</time></trkpt><trkpt lat="41.826558861074126" lon="12.715814076632304"><ele>281.0</ele><time>2026-03-26T14:55:19Z</time></trkpt><trkpt lat="41.8265107194331" lon="12.7161783292693"><ele>279.5</ele><time>2026-03-26T14:55:20Z</time></trkpt><trkpt lat="41.82646322765498" lon="12.7165443842032"><ele>278.0</ele><time>2026-03-26T14:55:21Z</time></trkpt><trkpt lat="41.826416827694665" lon="12.716910722045938"><ele>274.0</ele><time>2026-03-26T14:55:22Z</time></trkpt><trkpt lat="41.82637006562106" lon="12.717281988888613"><ele>270.0</ele><time>2026-03-26T14:55:23Z</time></trkpt><trkpt lat="41.82632423539985" lon="12.717650543321202"><ele>269.5</ele><time>2026-03-26T14:55:24Z</time></trkpt><trkpt lat="41.82627890497279" lon="12.718022072504414"><ele>269.0</ele><time>2026-03-26T14:55:25Z</time></trkpt><trkpt lat="41.826232065632325" lon="12.718392807738013"><ele>268.0</ele><time>2026-03-26T14:55:26Z</time></trkpt><trkpt lat="41.826185909466744" lon="12.71876274657354"><ele>267.0</ele><time>2026-03-26T14:55:27Z</time></trkpt><trkpt lat="41.826141427898" lon="12.719135765521454"><ele>267.5</ele><time>2026-03-26T14:55:28Z</time></trkpt><trkpt lat="41.826103044603364" lon="12.719507937714702"><ele>268.0</ele><time>2026-03-26T14:55:29Z</time></trkpt><trkpt lat="41.826068847454856" lon="12.719883800958442"><ele>269.0</ele><time>2026-03-26T14:55:30Z</time></trkpt><trkpt lat="41.82604070896602" lon="12.720259523029231"><ele>270.0</ele><time>2026-03-26T14:55:31Z</time></trkpt><trkpt lat="41.82601585909045" lon="12.720632887696459"><ele>270.0</ele><time>2026-03-26T14:55:32Z</time></trkpt><trkpt lat="41.8259931383876" lon="12.721001636608202"><ele>270.0</ele><time>2026-03-26T14:55:33Z</time></trkpt><trkpt lat="41.82597846828993" lon="12.721376264530916"><ele>276.5</ele><time>2026-03-26T14:55:34Z</time></trkpt><trkpt lat="41.82596302605882" lon="12.721744479193008"><ele>283.0</ele><time>2026-03-26T14:55:35Z</time></trkpt><trkpt lat="41.825957159997586" lon="12.722112057922946"><ele>286.5</ele><time>2026-03-26T14:55:36Z</time></trkpt><trkpt lat="41.82595236045252" lon="12.722483688482376"><ele>290.0</ele><time>2026-03-26T14:55:37Z</time></trkpt><trkpt lat="41.82595495912945" lon="12.722855191284"><ele>290.0</ele><time>2026-03-26T14:55:38Z</time></trkpt><trkpt lat="41.82595578831866" lon="12.723232495418385"><ele>290.0</ele><time>2026-03-26T14:55:39Z</time></trkpt><trkpt lat="41.82596201191083" lon="12.723612108535644"><ele>287.0</ele><time>2026-03-26T14:55:39.999Z</time></trkpt><trkpt lat="41.82597311187063" lon="12.723997098439881"><ele>284.0</ele><time>2026-03-26T14:55:40.999Z</time></trkpt><trkpt lat="41.8259851724154" lon="12.724382005945712"><ele>280.5</ele><time>2026-03-26T14:55:41.999Z</time></trkpt><trkpt lat="41.82600406057501" lon="12.72477141435907"><ele>277.0</ele><time>2026-03-26T14:55:42.999Z</time></trkpt><trkpt lat="41.826023250852536" lon="12.72516501881812"><ele>281.0</ele><time>2026-03-26T14:55:43.999Z</time></trkpt><trkpt lat="41.82604413402851" lon="12.725557151309149"><ele>285.0</ele><time>2026-03-26T14:55:44.999Z</time></trkpt><trkpt lat="41.826068446490055" lon="12.725947306628242"><ele>287.5</ele><time>2026-03-26T14:55:45.999Z</time></trkpt><trkpt lat="41.826096633364685" lon="12.726336215169528"><ele>290.0</ele><time>2026-03-26T14:55:46.999Z</time></trkpt><trkpt lat="41.826129110062645" lon="12.726723064115479"><ele>286.0</ele><time>2026-03-26T14:55:47.999Z</time></trkpt><trkpt lat="41.82616638085062" lon="12.727107531359957"><ele>282.0</ele><time>2026-03-26T14:55:48.999Z</time></trkpt><trkpt lat="41.8262067182344" lon="12.727490061077928"><ele>279.0</ele><time>2026-03-26T14:55:49.999Z</time></trkpt><trkpt lat="41.826246999531406" lon="12.727873786735993"><ele>276.0</ele><time>2026-03-26T14:55:50.999Z</time></trkpt><trkpt lat="41.82628803010959" lon="12.728255488223237"><ele>278.0</ele><time>2026-03-26T14:55:51.999Z</time></trkpt><trkpt lat="41.82632796772726" lon="12.728635731193195"><ele>280.0</ele><time>2026-03-26T14:55:52.999Z</time></trkpt><trkpt lat="41.82636913795408" lon="12.729015488514111"><ele>282.5</ele><time>2026-03-26T14:55:53.999Z</time></trkpt><trkpt lat="41.82640912408259" lon="12.729395228589752"><ele>285.0</ele><time>2026-03-26T14:55:54.999Z</time></trkpt><trkpt lat="41.826448150506806" lon="12.729773937000427"><ele>285.0</ele><time>2026-03-26T14:55:55.999Z</time></trkpt><trkpt lat="41.82648857393512" lon="12.73015356345424"><ele>285.0</ele><time>2026-03-26T14:55:56.999Z</time></trkpt><trkpt lat="41.8265260545785" lon="12.730528986774434"><ele>284.5</ele><time>2026-03-26T14:55:57.999Z</time></trkpt><trkpt lat="41.82656232476842" lon="12.730902142292978"><ele>284.0</ele><time>2026-03-26T14:55:58.999Z</time></trkpt><trkpt lat="41.8265973912337" lon="12.73127153565764"><ele>283.5</ele><time>2026-03-26T14:55:59.999Z</time></trkpt><trkpt lat="41.82663412414072" lon="12.731644218104083"><ele>283.0</ele><time>2026-03-26T14:56:00.999Z</time></trkpt><trkpt lat="41.82667128968385" lon="12.732015569125158"><ele>284.5</ele><time>2026-03-26T14:56:01.999Z</time></trkpt><trkpt lat="41.826710843326" lon="12.732387628983275"><ele>286.0</ele><time>2026-03-26T14:56:02.999Z</time></trkpt><trkpt lat="41.82675020480881" lon="12.73275901884908"><ele>285.0</ele><time>2026-03-26T14:56:03.999Z</time></trkpt><trkpt lat="41.826788050324986" lon="12.733129103799005"><ele>284.0</ele><time>2026-03-26T14:56:04.999Z</time></trkpt><trkpt lat="41.826826582573105" lon="12.733500773839268"><ele>285.5</ele><time>2026-03-26T14:56:05.999Z</time></trkpt><trkpt lat="41.826860027292696" lon="12.733870131484379"><ele>287.0</ele><time>2026-03-26T14:56:06.999Z</time></trkpt><trkpt lat="41.826887748864365" lon="12.734240470442172"><ele>286.5</ele><time>2026-03-26T14:56:07.999Z</time></trkpt><trkpt lat="41.826909635985615" lon="12.734612339073498"><ele>286.0</ele><time>2026-03-26T14:56:08.999Z</time></trkpt><trkpt lat="41.82692412402758" lon="12.73498631315715"><ele>285.5</ele><time>2026-03-26T14:56:09.999Z</time></trkpt><trkpt lat="41.82692723148936" lon="12.73535574299089"><ele>285.0</ele><time>2026-03-26T14:56:10.999Z</time></trkpt><trkpt lat="41.82691726451173" lon="12.73571876367803"><ele>283.0</ele><time>2026-03-26T14:56:11.999Z</time></trkpt><trkpt lat="41.82689545413951" lon="12.736073142811236"><ele>281.0</ele><time>2026-03-26T14:56:12.999Z</time></trkpt><trkpt lat="41.82686098833595" lon="12.736416019305864"><ele>281.0</ele><time>2026-03-26T14:56:13.999Z</time></trkpt><trkpt lat="41.826818181491774" lon="12.736755561992519"><ele>281.0</ele><time>2026-03-26T14:56:14.999Z</time></trkpt><trkpt lat="41.826771459803304" lon="12.737096932395088"><ele>286.0</ele><time>2026-03-26T14:56:15.999Z</time></trkpt><trkpt lat="41.826712390804" lon="12.737439004652868"><ele>291.0</ele><time>2026-03-26T14:56:16.999Z</time></trkpt><trkpt lat="41.82664334464439" lon="12.737779851105554"><ele>291.0</ele><time>2026-03-26T14:56:17.999Z</time></trkpt><trkpt lat="41.826564939601404" lon="12.738118474668598"><ele>291.0</ele><time>2026-03-26T14:56:18.999Z</time></trkpt><trkpt lat="41.82648018479537" lon="12.7384569970884"><ele>291.0</ele><time>2026-03-26T14:56:19.999Z</time></trkpt><trkpt lat="41.82639297087387" lon="12.738799389926093"><ele>291.0</ele><time>2026-03-26T14:56:21Z</time></trkpt><trkpt lat="41.826307310743175" lon="12.739143381789876"><ele>292.5</ele><time>2026-03-26T14:56:22Z</time></trkpt><trkpt lat="41.8262232419773" lon="12.739484693939772"><ele>294.0</ele><time>2026-03-26T14:56:23Z</time></trkpt><trkpt lat="41.82613757970113" lon="12.739821697616865"><ele>294.0</ele><time>2026-03-26T14:56:24Z</time></trkpt><trkpt lat="41.82605184330285" lon="12.740152551522891"><ele>294.0</ele><time>2026-03-26T14:56:25Z</time></trkpt><trkpt lat="41.82596800002144" lon="12.740486776642182"><ele>301.0</ele><time>2026-03-26T14:56:26Z</time></trkpt><trkpt lat="41.825883360729755" lon="12.74082405813562"><ele>308.0</ele><time>2026-03-26T14:56:27Z</time></trkpt><trkpt lat="41.82579795919628" lon="12.74116349933632"><ele>308.0</ele><time>2026-03-26T14:56:28Z</time></trkpt><trkpt lat="41.82571322639525" lon="12.74150626350188"><ele>308.0</ele><time>2026-03-26T14:56:29Z</time></trkpt><trkpt lat="41.82562731224227" lon="12.741851501140303"><ele>308.5</ele><time>2026-03-26T14:56:30Z</time></trkpt><trkpt lat="41.82554250587378" lon="12.742197579401777"><ele>309.0</ele><time>2026-03-26T14:56:31Z</time></trkpt><trkpt lat="41.82545687838697" lon="12.74254282750437"><ele>305.5</ele><time>2026-03-26T14:56:32Z</time></trkpt><trkpt lat="41.82537152981186" lon="12.742887873814626"><ele>302.0</ele><time>2026-03-26T14:56:33Z</time></trkpt><trkpt lat="41.82528672584326" lon="12.7432332606808"><ele>302.0</ele><time>2026-03-26T14:56:34Z</time></trkpt><trkpt lat="41.82520371608638" lon="12.743578848072165"><ele>302.0</ele><time>2026-03-26T14:56:35Z</time></trkpt><trkpt lat="41.82512086357489" lon="12.743926334534496"><ele>302.0</ele><time>2026-03-26T14:56:36Z</time></trkpt><trkpt lat="41.82503615377733" lon="12.744276942111007"><ele>302.0</ele><time>2026-03-26T14:56:37Z</time></trkpt><trkpt lat="41.82494815588821" lon="12.744625017918823"><ele>304.0</ele><time>2026-03-26T14:56:38Z</time></trkpt><trkpt lat="41.824861222567236" lon="12.744973278496367"><ele>306.0</ele><time>2026-03-26T14:56:39Z</time></trkpt><trkpt lat="41.82477441242822" lon="12.745323980204677"><ele>307.5</ele><time>2026-03-26T14:56:40Z</time></trkpt><trkpt lat="41.8246867725888" lon="12.745673938419568"><ele>309.0</ele><time>2026-03-26T14:56:41Z</time></trkpt><trkpt lat="41.82459809843596" lon="12.7460207740386"><ele>310.0</ele><time>2026-03-26T14:56:42Z</time></trkpt><trkpt lat="41.82451261627465" lon="12.746355498769722"><ele>311.0</ele><time>2026-03-26T14:56:43Z</time></trkpt><trkpt lat="41.824431649986046" lon="12.74667041513094"><ele>311.0</ele><time>2026-03-26T14:56:44Z</time></trkpt><trkpt lat="41.824350407487415" lon="12.746985819413391"><ele>311.0</ele><time>2026-03-26T14:56:45Z</time></trkpt><trkpt lat="41.82427207972084" lon="12.747296539241226"><ele>312.6666666666667</ele><time>2026-03-26T14:56:46Z</time></trkpt><trkpt lat="41.82419633004289" lon="12.747589560023359"><ele>314.3333333333333</ele><time>2026-03-26T14:56:47Z</time></trkpt><trkpt lat="41.82412279506945" lon="12.747864366137238"><ele>316.0</ele><time>2026-03-26T14:56:48Z</time></trkpt><trkpt lat="41.824053655757126" lon="12.748130892481042"><ele>316.3333333333333</ele><time>2026-03-26T14:56:49Z</time></trkpt><trkpt lat="41.82398552033436" lon="12.748399373356273"><ele>316.6666666666667</ele><time>2026-03-26T14:56:50Z</time></trkpt><trkpt lat="41.823918425572764" lon="12.74866714367098"><ele>317.0</ele><time>2026-03-26T14:56:51Z</time></trkpt><trkpt lat="41.823853206350854" lon="12.748922245240516"><ele>317.0</ele><time>2026-03-26T14:56:52Z</time></trkpt><trkpt lat="41.82379326973915" lon="12.749165348316161"><ele>317.0</ele><time>2026-03-26T14:56:53Z</time></trkpt><trkpt lat="41.823735188017174" lon="12.749395471695204"><ele>317.0</ele><time>2026-03-26T14:56:54Z</time></trkpt><trkpt lat="41.823677776212236" lon="12.749626580281133"><ele>316.6666666666667</ele><time>2026-03-26T14:56:55Z</time></trkpt><trkpt lat="41.82362066083672" lon="12.749857246124572"><ele>316.3333333333333</ele><time>2026-03-26T14:56:56Z</time></trkpt><trkpt lat="41.82356252520358" lon="12.750095374734883"><ele>316.0</ele><time>2026-03-26T14:56:57Z</time></trkpt><trkpt lat="41.8235068944668" lon="12.750332990122853"><ele>316.66666666666663</ele><time>2026-03-26T14:56:58Z</time></trkpt><trkpt lat="41.82345136345521" lon="12.750563587943843"><ele>317.3333333333333</ele><time>2026-03-26T14:56:59Z</time></trkpt><trkpt lat="41.82339657099199" lon="12.750787251362787"><ele>318.0</ele><time>2026-03-26T14:57:00Z</time></trkpt><trkpt lat="41.82333941842557" lon="12.751009193721906"><ele>317.3333333333333</ele><time>2026-03-26T14:57:01Z</time></trkpt><trkpt lat="41.823283481604136" lon="12.751233195271007"><ele>316.66666666666663</ele><time>2026-03-26T14:57:02Z</time></trkpt><trkpt lat="41.823228528959525" lon="12.751459831569143"><ele>316.0</ele><time>2026-03-26T14:57:03Z</time></trkpt><trkpt lat="41.82317365096857" lon="12.75168848385774"><ele>316.3333333333333</ele><time>2026-03-26T14:57:04Z</time></trkpt><trkpt lat="41.823117509467" lon="12.75192217153352"><ele>316.6666666666667</ele><time>2026-03-26T14:57:05Z</time></trkpt><trkpt lat="41.82305968817666" lon="12.752160364454502"><ele>317.0</ele><time>2026-03-26T14:57:06Z</time></trkpt><trkpt lat="41.82300153053908" lon="12.75240445603445"><ele>317.0</ele><time>2026-03-26T14:57:07Z</time></trkpt><trkpt lat="41.8229431608577" lon="12.75265109116978"><ele>317.0</ele><time>2026-03-26T14:57:08Z</time></trkpt><trkpt lat="41.82288203113647" lon="12.752903396529176"><ele>317.0</ele><time>2026-03-26T14:57:09Z</time></trkpt><trkpt lat="41.82281897215148" lon="12.75316090036494"><ele>317.33333333333337</ele><time>2026-03-26T14:57:10Z</time></trkpt><trkpt lat="41.822753794430525" lon="12.753424948951249"><ele>317.6666666666667</ele><time>2026-03-26T14:57:11Z</time></trkpt><trkpt lat="41.82268628400221" lon="12.753693358702284"><ele>318.0</ele><time>2026-03-26T14:57:12Z</time></trkpt><trkpt lat="41.82261769015332" lon="12.753966694442438"><ele>320.0</ele><time>2026-03-26T14:57:13Z</time></trkpt><trkpt lat="41.82254667382104" lon="12.754248890078436"><ele>322.0</ele><time>2026-03-26T14:57:14Z</time></trkpt><trkpt lat="41.82247633410033" lon="12.754534882009375"><ele>324.0</ele><time>2026-03-26T14:57:15Z</time></trkpt><trkpt lat="41.82240528573589" lon="12.754830172867447"><ele>324.0</ele><time>2026-03-26T14:57:16Z</time></trkpt><trkpt lat="41.822331614706776" lon="12.755130535076939"><ele>324.0</ele><time>2026-03-26T14:57:17Z</time></trkpt><trkpt lat="41.82225634564296" lon="12.7554367282158"><ele>323.5</ele><time>2026-03-26T14:57:18Z</time></trkpt><trkpt lat="41.82217917348657" lon="12.755749255983021"><ele>323.0</ele><time>2026-03-26T14:57:19Z</time></trkpt><trkpt lat="41.822100341871945" lon="12.756065758671257"><ele>321.0</ele><time>2026-03-26T14:57:20Z</time></trkpt><trkpt lat="41.82201976760247" lon="12.756383307343944"><ele>319.0</ele><time>2026-03-26T14:57:21Z</time></trkpt><trkpt lat="41.82193845254254" lon="12.75670224224201"><ele>320.5</ele><time>2026-03-26T14:57:22Z</time></trkpt><trkpt lat="41.82185780740066" lon="12.757015793237219"><ele>322.0</ele><time>2026-03-26T14:57:23Z</time></trkpt><trkpt lat="41.82177961156767" lon="12.757323803988735"><ele>323.0</ele><time>2026-03-26T14:57:24Z</time></trkpt><trkpt lat="41.82170172330626" lon="12.757635947886461"><ele>324.0</ele><time>2026-03-26T14:57:25Z</time></trkpt><trkpt lat="41.8216241211445" lon="12.757948973609684"><ele>324.0</ele><time>2026-03-26T14:57:26Z</time></trkpt><trkpt lat="41.82154674799078" lon="12.758262408707031"><ele>324.0</ele><time>2026-03-26T14:57:27Z</time></trkpt><trkpt lat="41.82146970448013" lon="12.758574410350967"><ele>324.0</ele><time>2026-03-26T14:57:28Z</time></trkpt><trkpt lat="41.82139336943122" lon="12.758876191507287"><ele>324.0</ele><time>2026-03-26T14:57:29Z</time></trkpt><trkpt lat="41.82131925146035" lon="12.759163234583728"><ele>324.3333333333333</ele><time>2026-03-26T14:57:30Z</time></trkpt><trkpt lat="41.82124918268021" lon="12.759435083177673"><ele>324.66666666666663</ele><time>2026-03-26T14:57:31Z</time></trkpt><trkpt lat="41.821183113015564" lon="12.75969813882811"><ele>325.0</ele><time>2026-03-26T14:57:32Z</time></trkpt><trkpt lat="41.82111923444946" lon="12.759958971036795"><ele>324.3333333333333</ele><time>2026-03-26T14:57:33Z</time></trkpt><trkpt lat="41.821055197463636" lon="12.760214243394012"><ele>323.6666666666667</ele><time>2026-03-26T14:57:34Z</time></trkpt><trkpt lat="41.82099365977101" lon="12.760462509659153"><ele>323.0</ele><time>2026-03-26T14:57:35Z</time></trkpt><trkpt lat="41.82093459731472" lon="12.760704666609321"><ele>324.33333333333337</ele><time>2026-03-26T14:57:36Z</time></trkpt><trkpt lat="41.820875634282004" lon="12.760949375117525"><ele>325.6666666666667</ele><time>2026-03-26T14:57:37Z</time></trkpt><trkpt lat="41.82081502616733" lon="12.761193947647003"><ele>327.0</ele><time>2026-03-26T14:57:38Z</time></trkpt><trkpt lat="41.82075112015556" lon="12.761442013407656"><ele>327.3333333333333</ele><time>2026-03-26T14:57:39Z</time></trkpt><trkpt lat="41.82068581434803" lon="12.7616992005782"><ele>327.66666666666663</ele><time>2026-03-26T14:57:40Z</time></trkpt><trkpt lat="41.820619529941865" lon="12.761965325757645"><ele>328.0</ele><time>2026-03-26T14:57:41Z</time></trkpt><trkpt lat="41.82055393210103" lon="12.762230980338769"><ele>328.0</ele><time>2026-03-26T14:57:42Z</time></trkpt><trkpt lat="41.82048641989881" lon="12.762497062174743"><ele>328.0</ele><time>2026-03-26T14:57:43Z</time></trkpt><trkpt lat="41.820420298272076" lon="12.762763944418422"><ele>328.0</ele><time>2026-03-26T14:57:44Z</time></trkpt><trkpt lat="41.82035226696224" lon="12.763032207818299"><ele>328.0</ele><time>2026-03-26T14:57:45Z</time></trkpt><trkpt lat="41.82028501366327" lon="12.763305344615588"><ele>328.0</ele><time>2026-03-26T14:57:45.999Z</time></trkpt><trkpt lat="41.82021483748606" lon="12.763581523136427"><ele>328.0</ele><time>2026-03-26T14:57:46.999Z</time></trkpt><trkpt lat="41.82014315529858" lon="12.763861604273806"><ele>328.5</ele><time>2026-03-26T14:57:47.999Z</time></trkpt><trkpt lat="41.82006686732244" lon="12.764151026747909"><ele>329.0</ele><time>2026-03-26T14:57:48.999Z</time></trkpt><trkpt lat="41.819987506814044" lon="12.764443350773089"><ele>329.0</ele><time>2026-03-26T14:57:49.999Z</time></trkpt><trkpt lat="41.819908997318684" lon="12.764742603458622"><ele>329.0</ele><time>2026-03-26T14:57:50.999Z</time></trkpt><trkpt lat="41.819832225839065" lon="12.76504722670706"><ele>327.5</ele><time>2026-03-26T14:57:51.999Z</time></trkpt><trkpt lat="41.8197529161893" lon="12.765355729133129"><ele>326.0</ele><time>2026-03-26T14:57:52.999Z</time></trkpt><trkpt lat="41.819674687456185" lon="12.765664050229791"><ele>326.0</ele><time>2026-03-26T14:57:53.999Z</time></trkpt><trkpt lat="41.819598325280396" lon="12.765968091713894"><ele>326.0</ele><time>2026-03-26T14:57:54.999Z</time></trkpt><trkpt lat="41.81952302311478" lon="12.766268643300538"><ele>325.0</ele><time>2026-03-26T14:57:55.999Z</time></trkpt><trkpt lat="41.81944907099135" lon="12.766561128358493"><ele>324.0</ele><time>2026-03-26T14:57:56.999Z</time></trkpt><trkpt lat="41.819377563178755" lon="12.766842377496777"><ele>325.6666666666667</ele><time>2026-03-26T14:57:57.999Z</time></trkpt><trkpt lat="41.81930686920992" lon="12.76711460906284"><ele>327.33333333333337</ele><time>2026-03-26T14:57:58.999Z</time></trkpt><trkpt lat="41.8192386464419" lon="12.76737569434547"><ele>329.0</ele><time>2026-03-26T14:57:59.999Z</time></trkpt><trkpt lat="41.819174501695564" lon="12.76762578944478"><ele>329.33333333333337</ele><time>2026-03-26T14:58:00.999Z</time></trkpt><trkpt lat="41.81911285903842" lon="12.76787670253223"><ele>329.6666666666667</ele><time>2026-03-26T14:58:01.999Z</time></trkpt><trkpt lat="41.819049912424106" lon="12.768131455175658"><ele>330.0</ele><time>2026-03-26T14:58:02.999Z</time></trkpt><trkpt lat="41.81898728892275" lon="12.768393413969562"><ele>329.3333333333333</ele><time>2026-03-26T14:58:03.999Z</time></trkpt><trkpt lat="41.818922584393775" lon="12.768659948386796"><ele>328.66666666666663</ele><time>2026-03-26T14:58:04.999Z</time></trkpt><trkpt lat="41.818857503143896" lon="12.768921849428226"><ele>328.0</ele><time>2026-03-26T14:58:05.999Z</time></trkpt><trkpt lat="41.818796442679954" lon="12.76917884252867"><ele>327.3333333333333</ele><time>2026-03-26T14:58:06.999Z</time></trkpt><trkpt lat="41.81873663468793" lon="12.769436566580914"><ele>326.6666666666667</ele><time>2026-03-26T14:58:07.999Z</time></trkpt><trkpt lat="41.818679893947625" lon="12.769695905158539"><ele>326.0</ele><time>2026-03-26T14:58:08.999Z</time></trkpt><trkpt lat="41.81862743841799" lon="12.769945925775236"><ele>326.0</ele><time>2026-03-26T14:58:09.999Z</time></trkpt><trkpt lat="41.81858024912356" lon="12.770196206598067"><ele>326.0</ele><time>2026-03-26T14:58:10.999Z</time></trkpt><trkpt lat="41.81853498864667" lon="12.770442075743087"><ele>326.0</ele><time>2026-03-26T14:58:11.999Z</time></trkpt><trkpt lat="41.818493887325005" lon="12.770678338325709"><ele>328.33333333333337</ele><time>2026-03-26T14:58:12.999Z</time></trkpt><trkpt lat="41.81845484849704" lon="12.77091689585519"><ele>330.6666666666667</ele><time>2026-03-26T14:58:13.999Z</time></trkpt><trkpt lat="41.818418057757576" lon="12.77115160782213"><ele>333.0</ele><time>2026-03-26T14:58:14.999Z</time></trkpt><trkpt lat="41.81838595658255" lon="12.771388015499582"><ele>334.0</ele><time>2026-03-26T14:58:15.999Z</time></trkpt><trkpt lat="41.81835855238241" lon="12.771626068987015"><ele>335.0</ele><time>2026-03-26T14:58:16.999Z</time></trkpt><trkpt lat="41.818333470551345" lon="12.771871493396224"><ele>336.0</ele><time>2026-03-26T14:58:17.999Z</time></trkpt><trkpt lat="41.81830954564527" lon="12.772124622041988"><ele>336.0</ele><time>2026-03-26T14:58:18.999Z</time></trkpt><trkpt lat="41.81828347892695" lon="12.772368865630954"><ele>336.0</ele><time>2026-03-26T14:58:19.999Z</time></trkpt><trkpt lat="41.818255269149496" lon="12.77262310472134"><ele>336.0</ele><time>2026-03-26T14:58:20.999Z</time></trkpt><trkpt lat="41.818229045753604" lon="12.77288220450762"><ele>336.0</ele><time>2026-03-26T14:58:21.999Z</time></trkpt><trkpt lat="41.81820828926171" lon="12.773152203937347"><ele>336.0</ele><time>2026-03-26T14:58:22.999Z</time></trkpt><trkpt lat="41.8181923468323" lon="12.773405536816716"><ele>336.0</ele><time>2026-03-26T14:58:23.999Z</time></trkpt><trkpt lat="41.818179074008114" lon="12.773650157706639"><ele>336.0</ele><time>2026-03-26T14:58:24.999Z</time></trkpt><trkpt lat="41.81816981866414" lon="12.773887155041791"><ele>336.0</ele><time>2026-03-26T14:58:25.999Z</time></trkpt><trkpt lat="41.81816257845668" lon="12.774126661080933"><ele>336.0</ele><time>2026-03-26T14:58:27Z</time></trkpt><trkpt lat="41.818158273292724" lon="12.774364474770767"><ele>336.6666666666667</ele><time>2026-03-26T14:58:28Z</time></trkpt><trkpt lat="41.81815643823664" lon="12.774601965423802"><ele>337.33333333333337</ele><time>2026-03-26T14:58:29Z</time></trkpt><trkpt lat="41.81815719138934" lon="12.774842915774594"><ele>338.0</ele><time>2026-03-26T14:58:30Z</time></trkpt><trkpt lat="41.818157623039234" lon="12.775090637648505"><ele>338.33333333333337</ele><time>2026-03-26T14:58:31Z</time></trkpt><trkpt lat="41.81815469359911" lon="12.775335268034375"><ele>338.6666666666667</ele><time>2026-03-26T14:58:32Z</time></trkpt><trkpt lat="41.818152106174495" lon="12.775581723386994"><ele>339.0</ele><time>2026-03-26T14:58:33Z</time></trkpt><trkpt lat="41.81814954806321" lon="12.775832569177329"><ele>339.3333333333333</ele><time>2026-03-26T14:58:34Z</time></trkpt><trkpt lat="41.81814597169107" lon="12.776090036295653"><ele>339.66666666666663</ele><time>2026-03-26T14:58:35Z</time></trkpt><trkpt lat="41.818141438013186" lon="12.776352861649181"><ele>340.0</ele><time>2026-03-26T14:58:36Z</time></trkpt><trkpt lat="41.81813595934773" lon="12.77661923838638"><ele>341.3333333333333</ele><time>2026-03-26T14:58:37Z</time></trkpt><trkpt lat="41.81813214961761" lon="12.77689370790387"><ele>342.6666666666667</ele><time>2026-03-26T14:58:38Z</time></trkpt><trkpt lat="41.81812821086305" lon="12.777174835293186"><ele>344.0</ele><time>2026-03-26T14:58:39Z</time></trkpt><trkpt lat="41.81812591474212" lon="12.777459408149328"><ele>345.0</ele><time>2026-03-26T14:58:40Z</time></trkpt><trkpt lat="41.818123733508976" lon="12.777743587076051"><ele>346.0</ele><time>2026-03-26T14:58:41Z</time></trkpt><trkpt lat="41.81812137346427" lon="12.7780277368713"><ele>347.0</ele><time>2026-03-26T14:58:42Z</time></trkpt><trkpt lat="41.818116877177445" lon="12.778311446263784"><ele>346.33333333333337</ele><time>2026-03-26T14:58:43Z</time></trkpt><trkpt lat="41.818112981666495" lon="12.778594069058796"><ele>345.6666666666667</ele><time>2026-03-26T14:58:44Z</time></trkpt><trkpt lat="41.818108510401295" lon="12.778870972086194"><ele>345.0</ele><time>2026-03-26T14:58:45Z</time></trkpt><trkpt lat="41.81810664938105" lon="12.779150359766458"><ele>344.0</ele><time>2026-03-26T14:58:46Z</time></trkpt><trkpt lat="41.81810536761905" lon="12.779428481774529"><ele>343.0</ele><time>2026-03-26T14:58:47Z</time></trkpt><trkpt lat="41.81810315697157" lon="12.779684769382529"><ele>342.0</ele><time>2026-03-26T14:58:48Z</time></trkpt><trkpt lat="41.818100657812586" lon="12.77992229937961"><ele>342.0</ele><time>2026-03-26T14:58:49Z</time></trkpt><trkpt lat="41.81809815238126" lon="12.780153200019013"><ele>342.0</ele><time>2026-03-26T14:58:50Z</time></trkpt><trkpt lat="41.818094318637584" lon="12.780383015904476"><ele>342.0</ele><time>2026-03-26T14:58:51Z</time></trkpt><trkpt lat="41.818088818241755" lon="12.780602932279363"><ele>342.3333333333333</ele><time>2026-03-26T14:58:52Z</time></trkpt><trkpt lat="41.81808488933358" lon="12.780826900673187"><ele>342.66666666666663</ele><time>2026-03-26T14:58:53Z</time></trkpt><trkpt lat="41.81807854956623" lon="12.78106245471306"><ele>343.0</ele><time>2026-03-26T14:58:54Z</time></trkpt><trkpt lat="41.8180719556915" lon="12.781310464069557"><ele>344.0</ele><time>2026-03-26T14:58:55Z</time></trkpt><trkpt lat="41.818066643648685" lon="12.78157243558216"><ele>345.0</ele><time>2026-03-26T14:58:56Z</time></trkpt><trkpt lat="41.8180623966702" lon="12.781843929897189"><ele>346.0</ele><time>2026-03-26T14:58:57Z</time></trkpt><trkpt lat="41.81805955531802" lon="12.782125257468772"><ele>346.0</ele><time>2026-03-26T14:58:58Z</time></trkpt><trkpt lat="41.8180569442741" lon="12.7824168752569"><ele>346.0</ele><time>2026-03-26T14:58:59Z</time></trkpt><trkpt lat="41.81805240552154" lon="12.782712098770874"><ele>346.0</ele><time>2026-03-26T14:59:00Z</time></trkpt><trkpt lat="41.8180463496771" lon="12.783011550679104"><ele>346.0</ele><time>2026-03-26T14:59:01Z</time></trkpt><trkpt lat="41.81804067268226" lon="12.783316069649251"><ele>346.0</ele><time>2026-03-26T14:59:02Z</time></trkpt><trkpt lat="41.81803665004659" lon="12.78362349465635"><ele>345.5</ele><time>2026-03-26T14:59:03Z</time></trkpt><trkpt lat="41.818032184199865" lon="12.783933710515111"><ele>345.0</ele><time>2026-03-26T14:59:04Z</time></trkpt><trkpt lat="41.81802686423201" lon="12.784248228883339"><ele>344.0</ele><time>2026-03-26T14:59:05Z</time></trkpt><trkpt lat="41.81801925411063" lon="12.784565512048463"><ele>343.0</ele><time>2026-03-26T14:59:06Z</time></trkpt><trkpt lat="41.818012610412865" lon="12.78488594708894"><ele>342.0</ele><time>2026-03-26T14:59:07Z</time></trkpt><trkpt lat="41.818007344361206" lon="12.785202875987476"><ele>341.0</ele><time>2026-03-26T14:59:08Z</time></trkpt><trkpt lat="41.818003681125234" lon="12.785518056193329"><ele>341.0</ele><time>2026-03-26T14:59:09Z</time></trkpt><trkpt lat="41.817997096116926" lon="12.78583220111258"><ele>341.0</ele><time>2026-03-26T14:59:10Z</time></trkpt><trkpt lat="41.81799078877357" lon="12.786150124941953"><ele>340.0</ele><time>2026-03-26T14:59:11Z</time></trkpt><trkpt lat="41.81798419691893" lon="12.786473115248572"><ele>339.0</ele><time>2026-03-26T14:59:12Z</time></trkpt><trkpt lat="41.81797641755875" lon="12.786798566484196"><ele>337.5</ele><time>2026-03-26T14:59:13Z</time></trkpt><trkpt lat="41.8179693694757" lon="12.787124394176447"><ele>336.0</ele><time>2026-03-26T14:59:14Z</time></trkpt><trkpt lat="41.81796296688808" lon="12.787451509901588"><ele>335.5</ele><time>2026-03-26T14:59:15Z</time></trkpt><trkpt lat="41.81795710186976" lon="12.787780777315321"><ele>335.0</ele><time>2026-03-26T14:59:16Z</time></trkpt><trkpt lat="41.81795105492544" lon="12.788111530726498"><ele>335.0</ele><time>2026-03-26T14:59:17Z</time></trkpt><trkpt lat="41.81793692172667" lon="12.788444392011499"><ele>335.0</ele><time>2026-03-26T14:59:18Z</time></trkpt><trkpt lat="41.817910684957766" lon="12.788780293533584"><ele>339.5</ele><time>2026-03-26T14:59:19Z</time></trkpt><trkpt lat="41.81787716575295" lon="12.789118983943743"><ele>344.0</ele><time>2026-03-26T14:59:20Z</time></trkpt><trkpt lat="41.817835514201455" lon="12.789455232602323"><ele>347.0</ele><time>2026-03-26T14:59:21Z</time></trkpt><trkpt lat="41.817788477965166" lon="12.789792183950182"><ele>350.0</ele><time>2026-03-26T14:59:22Z</time></trkpt><trkpt lat="41.81773500307332" lon="12.790121135716749"><ele>350.0</ele><time>2026-03-26T14:59:23Z</time></trkpt><trkpt lat="41.817675588730076" lon="12.790439027381673"><ele>350.0</ele><time>2026-03-26T14:59:24Z</time></trkpt><trkpt lat="41.817611659859594" lon="12.790753675371477"><ele>346.5</ele><time>2026-03-26T14:59:25Z</time></trkpt><trkpt lat="41.81754016841516" lon="12.791064658823245"><ele>343.0</ele><time>2026-03-26T14:59:26Z</time></trkpt><trkpt lat="41.81746477084291" lon="12.791376300027544"><ele>343.0</ele><time>2026-03-26T14:59:27Z</time></trkpt><trkpt lat="41.81738471843619" lon="12.791687382038969"><ele>343.0</ele><time>2026-03-26T14:59:28Z</time></trkpt><trkpt lat="41.81729619823648" lon="12.791996922341658"><ele>342.0</ele><time>2026-03-26T14:59:29Z</time></trkpt><trkpt lat="41.817196904352535" lon="12.792302384015676"><ele>341.0</ele><time>2026-03-26T14:59:30Z</time></trkpt><trkpt lat="41.81708671467785" lon="12.792609748581505"><ele>338.0</ele><time>2026-03-26T14:59:31Z</time></trkpt><trkpt lat="41.816964223603186" lon="12.792915999718803"><ele>335.0</ele><time>2026-03-26T14:59:32Z</time></trkpt><trkpt lat="41.81683132258315" lon="12.793217923073742"><ele>335.0</ele><time>2026-03-26T14:59:33Z</time></trkpt><trkpt lat="41.81669088468012" lon="12.793518584880484"><ele>335.0</ele><time>2026-03-26T14:59:34Z</time></trkpt><trkpt lat="41.81654667010228" lon="12.793821678224775"><ele>335.0</ele><time>2026-03-26T14:59:35Z</time></trkpt><trkpt lat="41.81639798642367" lon="12.794123138184627"><ele>335.0</ele><time>2026-03-26T14:59:36Z</time></trkpt><trkpt lat="41.81624629331861" lon="12.794428275748052"><ele>335.5</ele><time>2026-03-26T14:59:37Z</time></trkpt><trkpt lat="41.81609188081989" lon="12.794729514876021"><ele>336.0</ele><time>2026-03-26T14:59:38Z</time></trkpt><trkpt lat="41.81593519353999" lon="12.795031074056075"><ele>339.0</ele><time>2026-03-26T14:59:39Z</time></trkpt><trkpt lat="41.81577885671452" lon="12.795332556654182"><ele>342.0</ele><time>2026-03-26T14:59:40Z</time></trkpt><trkpt lat="41.8156213226296" lon="12.795636252241355"><ele>342.0</ele><time>2026-03-26T14:59:41Z</time></trkpt><trkpt lat="41.815462817304436" lon="12.795940195546173"><ele>342.0</ele><time>2026-03-26T14:59:42Z</time></trkpt><trkpt lat="41.81530381726684" lon="12.796245937387049"><ele>345.5</ele><time>2026-03-26T14:59:43Z</time></trkpt><trkpt lat="41.81514276367234" lon="12.796552534075786"><ele>349.0</ele><time>2026-03-26T14:59:44Z</time></trkpt><trkpt lat="41.81498118919757" lon="12.79686624788935"><ele>349.0</ele><time>2026-03-26T14:59:45Z</time></trkpt><trkpt lat="41.814820937608715" lon="12.79718799411246"><ele>349.0</ele><time>2026-03-26T14:59:46Z</time></trkpt><trkpt lat="41.81465977620124" lon="12.7975137863538"><ele>348.5</ele><time>2026-03-26T14:59:47Z</time></trkpt><trkpt lat="41.814497212838006" lon="12.7978450637944"><ele>348.0</ele><time>2026-03-26T14:59:48Z</time></trkpt><trkpt lat="41.81433177778487" lon="12.7981772206005"><ele>348.0</ele><time>2026-03-26T14:59:49Z</time></trkpt><trkpt lat="41.8141639385743" lon="12.798510726616753"><ele>348.0</ele><time>2026-03-26T14:59:50Z</time></trkpt><trkpt lat="41.81399324534322" lon="12.798843830529435"><ele>348.0</ele><time>2026-03-26T14:59:51Z</time></trkpt><trkpt lat="41.81381985578903" lon="12.799176978778059"><ele>348.0</ele><time>2026-03-26T14:59:52Z</time></trkpt><trkpt lat="41.813647598081396" lon="12.799510299031152"><ele>347.5</ele><time>2026-03-26T14:59:53Z</time></trkpt><trkpt lat="41.81347540158406" lon="12.799845064797104"><ele>347.0</ele><time>2026-03-26T14:59:54Z</time></trkpt><trkpt lat="41.813304290288954" lon="12.80018094098618"><ele>343.5</ele><time>2026-03-26T14:59:54.999Z</time></trkpt><trkpt lat="41.81313320722641" lon="12.800517444079338"><ele>340.0</ele><time>2026-03-26T14:59:55.999Z</time></trkpt><trkpt lat="41.81296078636325" lon="12.800850349780752"><ele>337.5</ele><time>2026-03-26T14:59:56.999Z</time></trkpt><trkpt lat="41.81278834182882" lon="12.801184497777339"><ele>335.0</ele><time>2026-03-26T14:59:57.999Z</time></trkpt><trkpt lat="41.81261532144359" lon="12.801517536167642"><ele>333.0</ele><time>2026-03-26T14:59:58.999Z</time></trkpt><trkpt lat="41.812442140967434" lon="12.801850713490794"><ele>331.0</ele><time>2026-03-26T14:59:59.999Z</time></trkpt><trkpt lat="41.81226778819215" lon="12.802185180097156"><ele>331.0</ele><time>2026-03-26T15:00:00.999Z</time></trkpt><trkpt lat="41.81209406377844" lon="12.8025194594632"><ele>331.0</ele><time>2026-03-26T15:00:01.999Z</time></trkpt><trkpt lat="41.811920114029455" lon="12.802854814635667"><ele>330.0</ele><time>2026-03-26T15:00:02.999Z</time></trkpt><trkpt lat="41.81174572039868" lon="12.803191207390926"><ele>329.0</ele><time>2026-03-26T15:00:03.999Z</time></trkpt><trkpt lat="41.81157064873737" lon="12.803525461849347"><ele>327.0</ele><time>2026-03-26T15:00:04.999Z</time></trkpt><trkpt lat="41.81139431852128" lon="12.803863227536379"><ele>325.0</ele><time>2026-03-26T15:00:05.999Z</time></trkpt><trkpt lat="41.81121740808497" lon="12.804199374867457"><ele>326.5</ele><time>2026-03-26T15:00:06.999Z</time></trkpt><trkpt lat="41.8110387208304" lon="12.804533178114054"><ele>328.0</ele><time>2026-03-26T15:00:07.999Z</time></trkpt><trkpt lat="41.81085973805843" lon="12.804866820565858"><ele>327.5</ele><time>2026-03-26T15:00:08.999Z</time></trkpt><trkpt lat="41.810681856723726" lon="12.805198720445802"><ele>327.0</ele><time>2026-03-26T15:00:09.999Z</time></trkpt><trkpt lat="41.81050182403241" lon="12.805527537052434"><ele>327.0</ele><time>2026-03-26T15:00:10.999Z</time></trkpt><trkpt lat="41.810329867742524" lon="12.805858318998782"><ele>327.0</ele><time>2026-03-26T15:00:11.999Z</time></trkpt><trkpt lat="41.81015895680628" lon="12.806187498069988"><ele>329.0</ele><time>2026-03-26T15:00:12.999Z</time></trkpt><trkpt lat="41.80998914832531" lon="12.806514613393368"><ele>331.0</ele><time>2026-03-26T15:00:13.999Z</time></trkpt><trkpt lat="41.809824690853404" lon="12.806840276219232"><ele>331.5</ele><time>2026-03-26T15:00:14.999Z</time></trkpt><trkpt lat="41.80966485522878" lon="12.807162296136177"><ele>332.0</ele><time>2026-03-26T15:00:15.999Z</time></trkpt><trkpt lat="41.80950489267727" lon="12.807486879634157"><ele>331.5</ele><time>2026-03-26T15:00:16.999Z</time></trkpt><trkpt lat="41.80934267096205" lon="12.807808784483846"><ele>331.0</ele><time>2026-03-26T15:00:17.999Z</time></trkpt><trkpt lat="41.809181106669236" lon="12.808129507066566"><ele>334.0</ele><time>2026-03-26T15:00:18.999Z</time></trkpt><trkpt lat="41.809021298745286" lon="12.808450736904675"><ele>337.0</ele><time>2026-03-26T15:00:19.999Z</time></trkpt><trkpt lat="41.80885724215633" lon="12.808768099415126"><ele>338.5</ele><time>2026-03-26T15:00:20.999Z</time></trkpt><trkpt lat="41.80869095610094" lon="12.809084478783312"><ele>340.0</ele><time>2026-03-26T15:00:21.999Z</time></trkpt><trkpt lat="41.808526059308086" lon="12.809401665923055"><ele>343.0</ele><time>2026-03-26T15:00:22.999Z</time></trkpt><trkpt lat="41.808361985596285" lon="12.80972047725609"><ele>346.0</ele><time>2026-03-26T15:00:23.999Z</time></trkpt><trkpt lat="41.80819937866271" lon="12.81004153575403"><ele>346.0</ele><time>2026-03-26T15:00:24.999Z</time></trkpt><trkpt lat="41.80803586868813" lon="12.81036126627795"><ele>346.0</ele><time>2026-03-26T15:00:25.999Z</time></trkpt><trkpt lat="41.80786902891558" lon="12.810679725886656"><ele>346.5</ele><time>2026-03-26T15:00:26.999Z</time></trkpt><trkpt lat="41.80769989558383" lon="12.810999116903375"><ele>347.0</ele><time>2026-03-26T15:00:27.999Z</time></trkpt><trkpt lat="41.80752653364455" lon="12.811316888265837"><ele>347.0</ele><time>2026-03-26T15:00:28.999Z</time></trkpt><trkpt lat="41.80734394153352" lon="12.811626677935191"><ele>347.0</ele><time>2026-03-26T15:00:29.999Z</time></trkpt><trkpt lat="41.80715599334764" lon="12.81193211425758"><ele>347.0</ele><time>2026-03-26T15:00:30.999Z</time></trkpt><trkpt lat="41.80696618678174" lon="12.812237153970008"><ele>347.0</ele><time>2026-03-26T15:00:31.999Z</time></trkpt><trkpt lat="41.80677095269823" lon="12.812545608250574"><ele>349.0</ele><time>2026-03-26T15:00:33Z</time></trkpt><trkpt lat="41.806586649602956" lon="12.812859996191468"><ele>351.0</ele><time>2026-03-26T15:00:34Z</time></trkpt><trkpt lat="41.80641048443596" lon="12.813176870741845"><ele>352.0</ele><time>2026-03-26T15:00:35Z</time></trkpt><trkpt lat="41.80623803783724" lon="12.81349966902099"><ele>353.0</ele><time>2026-03-26T15:00:36Z</time></trkpt><trkpt lat="41.80606985403917" lon="12.813823677009447"><ele>354.0</ele><time>2026-03-26T15:00:37Z</time></trkpt><trkpt lat="41.80590342274021" lon="12.814146677083652"><ele>355.0</ele><time>2026-03-26T15:00:38Z</time></trkpt><trkpt lat="41.80574016471014" lon="12.814470268562749"><ele>355.0</ele><time>2026-03-26T15:00:39Z</time></trkpt><trkpt lat="41.80557836427502" lon="12.814794003082968"><ele>355.0</ele><time>2026-03-26T15:00:40Z</time></trkpt><trkpt lat="41.8054171294144" lon="12.815116498158828"><ele>355.5</ele><time>2026-03-26T15:00:41Z</time></trkpt><trkpt lat="41.805255478753864" lon="12.81543796517511"><ele>356.0</ele><time>2026-03-26T15:00:42Z</time></trkpt><trkpt lat="41.80509285879696" lon="12.815758898817398"><ele>357.5</ele><time>2026-03-26T15:00:43Z</time></trkpt><trkpt lat="41.804931121598216" lon="12.8160819112915"><ele>359.0</ele><time>2026-03-26T15:00:44Z</time></trkpt><trkpt lat="41.80476834461242" lon="12.816404712702216"><ele>359.0</ele><time>2026-03-26T15:00:45Z</time></trkpt><trkpt lat="41.80460406901881" lon="12.816727112668918"><ele>359.0</ele><time>2026-03-26T15:00:46Z</time></trkpt><trkpt lat="41.80443905731596" lon="12.817051367818143"><ele>360.5</ele><time>2026-03-26T15:00:47Z</time></trkpt><trkpt lat="41.804276519709845" lon="12.817376150767702"><ele>362.0</ele><time>2026-03-26T15:00:48Z</time></trkpt><trkpt lat="41.80412201597858" lon="12.81768463160627"><ele>362.0</ele><time>2026-03-26T15:00:49Z</time></trkpt><trkpt lat="41.80397145777088" lon="12.817992504112619"><ele>362.0</ele><time>2026-03-26T15:00:50Z</time></trkpt><trkpt lat="41.80382204247348" lon="12.818303032702003"><ele>361.0</ele><time>2026-03-26T15:00:51Z</time></trkpt><trkpt lat="41.80367119646662" lon="12.818614899496815"><ele>360.0</ele><time>2026-03-26T15:00:52Z</time></trkpt><trkpt lat="41.803519747576445" lon="12.818928317795063"><ele>361.5</ele><time>2026-03-26T15:00:53Z</time></trkpt><trkpt lat="41.80336652289391" lon="12.819241726526725"><ele>363.0</ele><time>2026-03-26T15:00:54Z</time></trkpt><trkpt lat="41.803209992006714" lon="12.819559844521502"><ele>363.0</ele><time>2026-03-26T15:00:55Z</time></trkpt><trkpt lat="41.803051168276674" lon="12.819878741708"><ele>363.0</ele><time>2026-03-26T15:00:56Z</time></trkpt><trkpt lat="41.80288988617339" lon="12.820196853187081"><ele>363.0</ele><time>2026-03-26T15:00:57Z</time></trkpt><trkpt lat="41.80272362564493" lon="12.820520471624205"><ele>363.0</ele><time>2026-03-26T15:00:58Z</time></trkpt><trkpt lat="41.80255530437588" lon="12.820846754040847"><ele>357.0</ele><time>2026-03-26T15:00:59Z</time></trkpt><trkpt lat="41.802385121447436" lon="12.821179333621098"><ele>351.0</ele><time>2026-03-26T15:01:00Z</time></trkpt><trkpt lat="41.802213265637086" lon="12.821512843511801"><ele>348.0</ele><time>2026-03-26T15:01:01Z</time></trkpt><trkpt lat="41.80203814741087" lon="12.821849561455672"><ele>345.0</ele><time>2026-03-26T15:01:02Z</time></trkpt><trkpt lat="41.80186313087005" lon="12.822185332201439"><ele>346.5</ele><time>2026-03-26T15:01:03Z</time></trkpt><trkpt lat="41.8016888207049" lon="12.822526371107632"><ele>348.0</ele><time>2026-03-26T15:01:04Z</time></trkpt><trkpt lat="41.80151203993394" lon="12.822866926708512"><ele>348.0</ele><time>2026-03-26T15:01:05Z</time></trkpt><trkpt lat="41.80133483197371" lon="12.823207517615502"><ele>348.0</ele><time>2026-03-26T15:01:06Z</time></trkpt><trkpt lat="41.80115791653173" lon="12.823544741669028"><ele>351.5</ele><time>2026-03-26T15:01:07Z</time></trkpt><trkpt lat="41.800978652643906" lon="12.823885703272284"><ele>355.0</ele><time>2026-03-26T15:01:08Z</time></trkpt><trkpt lat="41.80080104993979" lon="12.824225595404444"><ele>356.0</ele><time>2026-03-26T15:01:09Z</time></trkpt><trkpt lat="41.80062257868573" lon="12.824563014611053"><ele>357.0</ele><time>2026-03-26T15:01:10Z</time></trkpt><trkpt lat="41.80044383812519" lon="12.824899348572341"><ele>358.5</ele><time>2026-03-26T15:01:11Z</time></trkpt><trkpt lat="41.80026665541052" lon="12.825238123249676"><ele>360.0</ele><time>2026-03-26T15:01:12Z</time></trkpt><trkpt lat="41.80008946804073" lon="12.825577478147336"><ele>360.0</ele><time>2026-03-26T15:01:13Z</time></trkpt><trkpt lat="41.799913954816994" lon="12.825917785822504"><ele>360.0</ele><time>2026-03-26T15:01:14Z</time></trkpt><trkpt lat="41.79973890252321" lon="12.82625887858739"><ele>361.0</ele><time>2026-03-26T15:01:15Z</time></trkpt><trkpt lat="41.79956198652967" lon="12.826600484802018"><ele>362.0</ele><time>2026-03-26T15:01:16Z</time></trkpt><trkpt lat="41.799384480449454" lon="12.826937770517942"><ele>364.0</ele><time>2026-03-26T15:01:17Z</time></trkpt><trkpt lat="41.79920757448085" lon="12.827275798535238"><ele>366.0</ele><time>2026-03-26T15:01:18Z</time></trkpt><trkpt lat="41.799030855408844" lon="12.827613058277372"><ele>367.0</ele><time>2026-03-26T15:01:19Z</time></trkpt><trkpt lat="41.7988527967678" lon="12.827950637626287"><ele>368.0</ele><time>2026-03-26T15:01:20Z</time></trkpt><trkpt lat="41.79867735288372" lon="12.828286951345074"><ele>369.0</ele><time>2026-03-26T15:01:21Z</time></trkpt><trkpt lat="41.798504679722285" lon="12.828620487355115"><ele>370.0</ele><time>2026-03-26T15:01:22Z</time></trkpt><trkpt lat="41.798331741810905" lon="12.828952259248481"><ele>371.0</ele><time>2026-03-26T15:01:23Z</time></trkpt><trkpt lat="41.798159604248" lon="12.829282100827372"><ele>372.0</ele><time>2026-03-26T15:01:24Z</time></trkpt><trkpt lat="41.79798865842548" lon="12.829616258549153"><ele>372.5</ele><time>2026-03-26T15:01:25Z</time></trkpt><trkpt lat="41.7978157458078" lon="12.829949288645587"><ele>373.0</ele><time>2026-03-26T15:01:26Z</time></trkpt><trkpt lat="41.79764623006407" lon="12.83028174379902"><ele>373.0</ele><time>2026-03-26T15:01:27Z</time></trkpt><trkpt lat="41.79747496648146" lon="12.830616241596942"><ele>373.0</ele><time>2026-03-26T15:01:28Z</time></trkpt><trkpt lat="41.79730245869526" lon="12.83094897274711"><ele>371.5</ele><time>2026-03-26T15:01:29Z</time></trkpt><trkpt lat="41.79713212345728" lon="12.831282214741483"><ele>370.0</ele><time>2026-03-26T15:01:30Z</time></trkpt><trkpt lat="41.79696152895361" lon="12.831614737772679"><ele>367.0</ele><time>2026-03-26T15:01:31Z</time></trkpt><trkpt lat="41.79678900096177" lon="12.831951464699815"><ele>364.0</ele><time>2026-03-26T15:01:32Z</time></trkpt><trkpt lat="41.79661993304308" lon="12.832286656347707"><ele>364.0</ele><time>2026-03-26T15:01:33Z</time></trkpt><trkpt lat="41.79645211633562" lon="12.832617991037274"><ele>364.0</ele><time>2026-03-26T15:01:34Z</time></trkpt><trkpt lat="41.79628457884485" lon="12.832943923093517"><ele>362.5</ele><time>2026-03-26T15:01:35Z</time></trkpt><trkpt lat="41.796118235251335" lon="12.833267500165368"><ele>361.0</ele><time>2026-03-26T15:01:36Z</time></trkpt><trkpt lat="41.79595703815781" lon="12.833585797756351"><ele>361.0</ele><time>2026-03-26T15:01:37Z</time></trkpt><trkpt lat="41.79579774057484" lon="12.833899488773039"><ele>361.0</ele><time>2026-03-26T15:01:38Z</time></trkpt><trkpt lat="41.79563518119711" lon="12.834208573630136"><ele>363.5</ele><time>2026-03-26T15:01:39Z</time></trkpt><trkpt lat="41.79547078452633" lon="12.834515180828607"><ele>366.0</ele><time>2026-03-26T15:01:40Z</time></trkpt><trkpt lat="41.79530797694083" lon="12.834824084685788"><ele>368.5</ele><time>2026-03-26T15:01:41Z</time></trkpt><trkpt lat="41.79514206445648" lon="12.8351339663614"><ele>371.0</ele><time>2026-03-26T15:01:42Z</time></trkpt><trkpt lat="41.79497824708318" lon="12.835442608578868"><ele>371.0</ele><time>2026-03-26T15:01:43Z</time></trkpt><trkpt lat="41.794813886835385" lon="12.835751374062886"><ele>371.0</ele><time>2026-03-26T15:01:44Z</time></trkpt><trkpt lat="41.79464812980091" lon="12.836061636921032"><ele>371.0</ele><time>2026-03-26T15:01:45Z</time></trkpt><trkpt lat="41.79447950260038" lon="12.836369441918963"><ele>371.0</ele><time>2026-03-26T15:01:46Z</time></trkpt><trkpt lat="41.79430865230258" lon="12.836674052715592"><ele>370.5</ele><time>2026-03-26T15:01:47Z</time></trkpt><trkpt lat="41.79413736530776" lon="12.836978073166756"><ele>370.0</ele><time>2026-03-26T15:01:48Z</time></trkpt><trkpt lat="41.79396798936441" lon="12.837281394843055"><ele>370.0</ele><time>2026-03-26T15:01:49Z</time></trkpt><trkpt lat="41.793805554992254" lon="12.837575540261987"><ele>370.0</ele><time>2026-03-26T15:01:50Z</time></trkpt><trkpt lat="41.793650730872905" lon="12.837857930406273"><ele>367.0</ele><time>2026-03-26T15:01:51Z</time></trkpt><trkpt lat="41.79349773673036" lon="12.838126203718199"><ele>364.0</ele><time>2026-03-26T15:01:52Z</time></trkpt><trkpt lat="41.79335034290926" lon="12.838383837112127"><ele>365.3333333333333</ele><time>2026-03-26T15:01:53Z</time></trkpt><trkpt lat="41.79321361350307" lon="12.838627271009232"><ele>366.6666666666667</ele><time>2026-03-26T15:01:54Z</time></trkpt><trkpt lat="41.79308272102724" lon="12.838861760357302"><ele>368.0</ele><time>2026-03-26T15:01:55Z</time></trkpt><trkpt lat="41.79295544933361" lon="12.83908744115766"><ele>369.0</ele><time>2026-03-26T15:01:56Z</time></trkpt><trkpt lat="41.792827238027115" lon="12.839312398738508"><ele>370.0</ele><time>2026-03-26T15:01:57Z</time></trkpt><trkpt lat="41.79269435180962" lon="12.839539939818412"><ele>371.0</ele><time>2026-03-26T15:01:58Z</time></trkpt><trkpt lat="41.792558053432174" lon="12.83977422557047"><ele>365.0</ele><time>2026-03-26T15:01:59Z</time></trkpt><trkpt lat="41.79242063862212" lon="12.840016035402087"><ele>359.0</ele><time>2026-03-26T15:02:00Z</time></trkpt><trkpt lat="41.792282149501624" lon="12.84026424081303"><ele>358.0</ele><time>2026-03-26T15:02:01Z</time></trkpt><trkpt lat="41.7921428377619" lon="12.840514126832119"><ele>357.0</ele><time>2026-03-26T15:02:02Z</time></trkpt><trkpt lat="41.79200528367248" lon="12.84076425904702"><ele>355.0</ele><time>2026-03-26T15:02:03Z</time></trkpt><trkpt lat="41.79186651307495" lon="12.841013464893834"><ele>353.0</ele><time>2026-03-26T15:02:04Z</time></trkpt><trkpt lat="41.79172684015867" lon="12.841260912069817"><ele>353.0</ele><time>2026-03-26T15:02:05Z</time></trkpt><trkpt lat="41.79158810094116" lon="12.841506351691251"><ele>353.0</ele><time>2026-03-26T15:02:06Z</time></trkpt><trkpt lat="41.791451010618886" lon="12.841746888391537"><ele>352.0</ele><time>2026-03-26T15:02:06.999Z</time></trkpt><trkpt lat="41.79131587954704" lon="12.841985585104123"><ele>351.0</ele><time>2026-03-26T15:02:07.999Z</time></trkpt><trkpt lat="41.79118066312219" lon="12.842224834237584"><ele>350.0</ele><time>2026-03-26T15:02:08.999Z</time></trkpt><trkpt lat="41.791044450072675" lon="12.842466926662292"><ele>351.5</ele><time>2026-03-26T15:02:09.999Z</time></trkpt><trkpt lat="41.79090825918347" lon="12.84271278227097"><ele>353.0</ele><time>2026-03-26T15:02:10.999Z</time></trkpt><trkpt lat="41.790765667725594" lon="12.84296812510188"><ele>353.0</ele><time>2026-03-26T15:02:11.999Z</time></trkpt><trkpt lat="41.790619246304516" lon="12.843227400216279"><ele>353.0</ele><time>2026-03-26T15:02:12.999Z</time></trkpt><trkpt lat="41.79046725878129" lon="12.843494688514628"><ele>351.0</ele><time>2026-03-26T15:02:13.999Z</time></trkpt><trkpt lat="41.79031252791577" lon="12.843771501600278"><ele>349.0</ele><time>2026-03-26T15:02:14.999Z</time></trkpt><trkpt lat="41.79015972420085" lon="12.844053486342547"><ele>353.5</ele><time>2026-03-26T15:02:15.999Z</time></trkpt><trkpt lat="41.79000878835668" lon="12.844332379499246"><ele>358.0</ele><time>2026-03-26T15:02:16.999Z</time></trkpt><trkpt lat="41.789857583882956" lon="12.844609608049405"><ele>358.0</ele><time>2026-03-26T15:02:17.999Z</time></trkpt><trkpt lat="41.7897049258538" lon="12.844883912973968"><ele>358.0</ele><time>2026-03-26T15:02:18.999Z</time></trkpt><trkpt lat="41.789552861966925" lon="12.845159747186015"><ele>358.0</ele><time>2026-03-26T15:02:19.999Z</time></trkpt><trkpt lat="41.78940014076169" lon="12.845436946357013"><ele>358.0</ele><time>2026-03-26T15:02:20.999Z</time></trkpt><trkpt lat="41.789244931297176" lon="12.845713589581287"><ele>358.5</ele><time>2026-03-26T15:02:21.999Z</time></trkpt><trkpt lat="41.78908678306058" lon="12.845992195661882"><ele>359.0</ele><time>2026-03-26T15:02:22.999Z</time></trkpt><trkpt lat="41.788925221242586" lon="12.846272367285478"><ele>359.0</ele><time>2026-03-26T15:02:23.999Z</time></trkpt><trkpt lat="41.788769327302674" lon="12.846555735114453"><ele>359.0</ele><time>2026-03-26T15:02:24.999Z</time></trkpt><trkpt lat="41.78860922606266" lon="12.846839280060646"><ele>360.5</ele><time>2026-03-26T15:02:25.999Z</time></trkpt><trkpt lat="41.788446558328836" lon="12.84712364866915"><ele>362.0</ele><time>2026-03-26T15:02:26.999Z</time></trkpt><trkpt lat="41.78828266309319" lon="12.847411663991968"><ele>357.5</ele><time>2026-03-26T15:02:27.999Z</time></trkpt><trkpt lat="41.788116881268046" lon="12.847703081764397"><ele>353.0</ele><time>2026-03-26T15:02:28.999Z</time></trkpt><trkpt lat="41.787948407680226" lon="12.847998732286774"><ele>353.0</ele><time>2026-03-26T15:02:29.999Z</time></trkpt><trkpt lat="41.787778017243085" lon="12.848298534043737"><ele>353.0</ele><time>2026-03-26T15:02:30.999Z</time></trkpt><trkpt lat="41.78760472460419" lon="12.848605431762978"><ele>351.5</ele><time>2026-03-26T15:02:31.999Z</time></trkpt><trkpt lat="41.787429268899075" lon="12.848914025887105"><ele>350.0</ele><time>2026-03-26T15:02:32.999Z</time></trkpt><trkpt lat="41.78725220217011" lon="12.849226349780567"><ele>350.5</ele><time>2026-03-26T15:02:33.999Z</time></trkpt><trkpt lat="41.787075314155935" lon="12.849544391899293"><ele>351.0</ele><time>2026-03-26T15:02:34.999Z</time></trkpt><trkpt lat="41.786896995021785" lon="12.849863742650033"><ele>348.5</ele><time>2026-03-26T15:02:35.999Z</time></trkpt><trkpt lat="41.78671449302009" lon="12.85018328073683"><ele>346.0</ele><time>2026-03-26T15:02:36.999Z</time></trkpt><trkpt lat="41.78652743100291" lon="12.850501893395453"><ele>346.0</ele><time>2026-03-26T15:02:37.999Z</time></trkpt><trkpt lat="41.78633610021575" lon="12.850818457128657"><ele>346.0</ele><time>2026-03-26T15:02:39Z</time></trkpt><trkpt lat="41.78614633671973" lon="12.85113663495541"><ele>344.5</ele><time>2026-03-26T15:02:40Z</time></trkpt><trkpt lat="41.7859565242096" lon="12.851456312429974"><ele>343.0</ele><time>2026-03-26T15:02:41Z</time></trkpt><trkpt lat="41.785768720167205" lon="12.851776390514875"><ele>342.5</ele><time>2026-03-26T15:02:42Z</time></trkpt><trkpt lat="41.78558225099367" lon="12.852099155410976"><ele>342.0</ele><time>2026-03-26T15:02:43Z</time></trkpt><trkpt lat="41.78540058437017" lon="12.852420133059825"><ele>343.5</ele><time>2026-03-26T15:02:44Z</time></trkpt><trkpt lat="41.785222670711306" lon="12.852739353428852"><ele>345.0</ele><time>2026-03-26T15:02:45Z</time></trkpt><trkpt lat="41.78504322483025" lon="12.853057171645153"><ele>349.0</ele><time>2026-03-26T15:02:46Z</time></trkpt><trkpt lat="41.78486349713052" lon="12.85337341928593"><ele>353.0</ele><time>2026-03-26T15:02:47Z</time></trkpt><trkpt lat="41.784682946058425" lon="12.853693986904686"><ele>356.0</ele><time>2026-03-26T15:02:48Z</time></trkpt><trkpt lat="41.78450106797668" lon="12.854013073109918"><ele>359.0</ele><time>2026-03-26T15:02:49Z</time></trkpt><trkpt lat="41.784316950440434" lon="12.854334134564402"><ele>360.0</ele><time>2026-03-26T15:02:50Z</time></trkpt><trkpt lat="41.78413234683947" lon="12.854659635053501"><ele>361.0</ele><time>2026-03-26T15:02:51Z</time></trkpt><trkpt lat="41.78394492403568" lon="12.85499073668074"><ele>363.5</ele><time>2026-03-26T15:02:52Z</time></trkpt><trkpt lat="41.783757872112" lon="12.855325525552594"><ele>366.0</ele><time>2026-03-26T15:02:53Z</time></trkpt><trkpt lat="41.78356931074212" lon="12.855660540134243"><ele>365.0</ele><time>2026-03-26T15:02:54Z</time></trkpt><trkpt lat="41.783379524171664" lon="12.855998360577386"><ele>364.0</ele><time>2026-03-26T15:02:55Z</time></trkpt><trkpt lat="41.783188337024654" lon="12.85633751049644"><ele>364.0</ele><time>2026-03-26T15:02:56Z</time></trkpt><trkpt lat="41.78299715576575" lon="12.856678131592325"><ele>364.0</ele><time>2026-03-26T15:02:57Z</time></trkpt><trkpt lat="41.78280620304121" lon="12.857017466002084"><ele>363.5</ele><time>2026-03-26T15:02:58Z</time></trkpt><trkpt lat="41.782613275412395" lon="12.857357806718188"><ele>363.0</ele><time>2026-03-26T15:02:59Z</time></trkpt><trkpt lat="41.782420812071" lon="12.857695238887356"><ele>358.5</ele><time>2026-03-26T15:03:00Z</time></trkpt><trkpt lat="41.78223366709197" lon="12.858026372898888"><ele>354.0</ele><time>2026-03-26T15:03:01Z</time></trkpt><trkpt lat="41.782052192515806" lon="12.85835018790003"><ele>354.5</ele><time>2026-03-26T15:03:02Z</time></trkpt><trkpt lat="41.78188341654505" lon="12.858665735916325"><ele>355.0</ele><time>2026-03-26T15:03:03Z</time></trkpt><trkpt lat="41.78171995118022" lon="12.858980027262747"><ele>359.5</ele><time>2026-03-26T15:03:04Z</time></trkpt><trkpt lat="41.781559518353674" lon="12.859296377165153"><ele>364.0</ele><time>2026-03-26T15:03:05Z</time></trkpt><trkpt lat="41.78140431622761" lon="12.859615560935321"><ele>364.0</ele><time>2026-03-26T15:03:06Z</time></trkpt><trkpt lat="41.78125451009205" lon="12.859937621916975"><ele>364.0</ele><time>2026-03-26T15:03:07Z</time></trkpt><trkpt lat="41.781105662805686" lon="12.860259062086238"><ele>362.0</ele><time>2026-03-26T15:03:08Z</time></trkpt><trkpt lat="41.78095995182648" lon="12.860586063054457"><ele>360.0</ele><time>2026-03-26T15:03:09Z</time></trkpt><trkpt lat="41.78081751282682" lon="12.86091449533691"><ele>359.5</ele><time>2026-03-26T15:03:10Z</time></trkpt><trkpt lat="41.780677281819344" lon="12.861241673672684"><ele>359.0</ele><time>2026-03-26T15:03:11Z</time></trkpt><trkpt lat="41.780538872519735" lon="12.861570343679844"><ele>359.5</ele><time>2026-03-26T15:03:12Z</time></trkpt><trkpt lat="41.78040227024583" lon="12.861908279091248"><ele>360.0</ele><time>2026-03-26T15:03:13Z</time></trkpt><trkpt lat="41.78026851932492" lon="12.86225169046347"><ele>360.0</ele><time>2026-03-26T15:03:14Z</time></trkpt><trkpt lat="41.78013774621267" lon="12.862604123280144"><ele>360.0</ele><time>2026-03-26T15:03:15Z</time></trkpt><trkpt lat="41.78001090527427" lon="12.862964700659392"><ele>360.5</ele><time>2026-03-26T15:03:16Z</time></trkpt><trkpt lat="41.77988745726132" lon="12.863329671905477"><ele>361.0</ele><time>2026-03-26T15:03:17Z</time></trkpt><trkpt lat="41.77976620041488" lon="12.863688827838141"><ele>361.0</ele><time>2026-03-26T15:03:18Z</time></trkpt><trkpt lat="41.77965232362729" lon="12.864032651030222"><ele>361.0</ele><time>2026-03-26T15:03:19Z</time></trkpt><trkpt lat="41.779540904294194" lon="12.864377771992102"><ele>360.5</ele><time>2026-03-26T15:03:20Z</time></trkpt><trkpt lat="41.77943420178043" lon="12.86472343883544"><ele>360.0</ele><time>2026-03-26T15:03:21Z</time></trkpt><trkpt lat="41.77933029561935" lon="12.865070424209046"><ele>358.0</ele><time>2026-03-26T15:03:22Z</time></trkpt><trkpt lat="41.77922905974087" lon="12.865410235278851"><ele>356.0</ele><time>2026-03-26T15:03:23Z</time></trkpt><trkpt lat="41.77913489704006" lon="12.865741876285927"><ele>354.0</ele><time>2026-03-26T15:03:24Z</time></trkpt><trkpt lat="41.779045784152366" lon="12.866072692846947"><ele>352.0</ele><time>2026-03-26T15:03:25Z</time></trkpt><trkpt lat="41.7789589388264" lon="12.866407898073101"><ele>352.0</ele><time>2026-03-26T15:03:26Z</time></trkpt><trkpt lat="41.77887331831397" lon="12.866746531303242"><ele>352.0</ele><time>2026-03-26T15:03:27Z</time></trkpt><trkpt lat="41.77878929354021" lon="12.867090404133538"><ele>352.5</ele><time>2026-03-26T15:03:28Z</time></trkpt><trkpt lat="41.77870634521327" lon="12.867433513358565"><ele>353.0</ele><time>2026-03-26T15:03:29Z</time></trkpt><trkpt lat="41.778628109473274" lon="12.867768048379405"><ele>353.0</ele><time>2026-03-26T15:03:30Z</time></trkpt><trkpt lat="41.778554640600696" lon="12.868098303622718"><ele>353.0</ele><time>2026-03-26T15:03:31Z</time></trkpt><trkpt lat="41.778481825847436" lon="12.868435176149982"><ele>349.5</ele><time>2026-03-26T15:03:32Z</time></trkpt><trkpt lat="41.778407090066956" lon="12.868776087934215"><ele>346.0</ele><time>2026-03-26T15:03:33Z</time></trkpt><trkpt lat="41.77833119558423" lon="12.869117604209709"><ele>347.0</ele><time>2026-03-26T15:03:34Z</time></trkpt><trkpt lat="41.77825524920975" lon="12.869456185578859"><ele>348.0</ele><time>2026-03-26T15:03:35Z</time></trkpt><trkpt lat="41.7781820574009" lon="12.869782376240504"><ele>348.0</ele><time>2026-03-26T15:03:36Z</time></trkpt><trkpt lat="41.778111662417075" lon="12.870096072888431"><ele>348.0</ele><time>2026-03-26T15:03:37Z</time></trkpt><trkpt lat="41.778045243950444" lon="12.870396317014768"><ele>347.5</ele><time>2026-03-26T15:03:38Z</time></trkpt><trkpt lat="41.77798025642435" lon="12.870695802865834"><ele>347.0</ele><time>2026-03-26T15:03:39Z</time></trkpt><trkpt lat="41.77791485982266" lon="12.871001871495187"><ele>345.5</ele><time>2026-03-26T15:03:40Z</time></trkpt><trkpt lat="41.777850322698086" lon="12.871315060126205"><ele>344.0</ele><time>2026-03-26T15:03:41Z</time></trkpt><trkpt lat="41.77778392149492" lon="12.871630935507088"><ele>342.0</ele><time>2026-03-26T15:03:42Z</time></trkpt><trkpt lat="41.77771505120992" lon="12.871951457013862"><ele>340.0</ele><time>2026-03-26T15:03:43Z</time></trkpt><trkpt lat="41.77764464229876" lon="12.87227620323508"><ele>339.0</ele><time>2026-03-26T15:03:44Z</time></trkpt><trkpt lat="41.777572332143556" lon="12.872600534008155"><ele>338.0</ele><time>2026-03-26T15:03:45Z</time></trkpt><trkpt lat="41.777499372026746" lon="12.872930572174576"><ele>338.0</ele><time>2026-03-26T15:03:46Z</time></trkpt><trkpt lat="41.77742661207671" lon="12.873261930222318"><ele>338.0</ele><time>2026-03-26T15:03:47Z</time></trkpt><trkpt lat="41.777353566025695" lon="12.873599904207609"><ele>342.0</ele><time>2026-03-26T15:03:48Z</time></trkpt><trkpt lat="41.77728200996008" lon="12.873931446854407"><ele>346.0</ele><time>2026-03-26T15:03:49Z</time></trkpt><trkpt lat="41.777211000122435" lon="12.874248395025626"><ele>347.5</ele><time>2026-03-26T15:03:50Z</time></trkpt><trkpt lat="41.77714154397512" lon="12.87455933289124"><ele>349.0</ele><time>2026-03-26T15:03:51Z</time></trkpt><trkpt lat="41.77707100816985" lon="12.874872471739753"><ele>349.5</ele><time>2026-03-26T15:03:52Z</time></trkpt><trkpt lat="41.77700150442427" lon="12.875187103930783"><ele>350.0</ele><time>2026-03-26T15:03:53Z</time></trkpt><trkpt lat="41.77693391813176" lon="12.875495621010584"><ele>350.0</ele><time>2026-03-26T15:03:54Z</time></trkpt><trkpt lat="41.77686777006406" lon="12.87581026048773"><ele>350.0</ele><time>2026-03-26T15:03:55Z</time></trkpt><trkpt lat="41.776801543093256" lon="12.87613189489015"><ele>346.0</ele><time>2026-03-26T15:03:56Z</time></trkpt><trkpt lat="41.77673520731925" lon="12.876456113398463"><ele>342.0</ele><time>2026-03-26T15:03:57Z</time></trkpt><trkpt lat="41.77666745215529" lon="12.876787262709792"><ele>342.0</ele><time>2026-03-26T15:03:58Z</time></trkpt><trkpt lat="41.77659767835969" lon="12.877121123765141"><ele>342.0</ele><time>2026-03-26T15:03:59Z</time></trkpt><trkpt lat="41.77652742238168" lon="12.877459314996566"><ele>342.5</ele><time>2026-03-26T15:04:00Z</time></trkpt><trkpt lat="41.776455057830454" lon="12.877803068153701"><ele>343.0</ele><time>2026-03-26T15:04:01Z</time></trkpt><trkpt lat="41.776380796876005" lon="12.878150250182948"><ele>343.5</ele><time>2026-03-26T15:04:02Z</time></trkpt><trkpt lat="41.77630467852777" lon="12.878495969199976"><ele>344.0</ele><time>2026-03-26T15:04:03Z</time></trkpt><trkpt lat="41.7762274626557" lon="12.878845387671591"><ele>344.0</ele><time>2026-03-26T15:04:04Z</time></trkpt><trkpt lat="41.776149338391185" lon="12.87919707549453"><ele>344.0</ele><time>2026-03-26T15:04:05Z</time></trkpt><trkpt lat="41.776071739944385" lon="12.8795546963131"><ele>341.5</ele><time>2026-03-26T15:04:06Z</time></trkpt><trkpt lat="41.7759927785851" lon="12.87991667325902"><ele>339.0</ele><time>2026-03-26T15:04:07Z</time></trkpt><trkpt lat="41.77591226923103" lon="12.88028099574955"><ele>339.0</ele><time>2026-03-26T15:04:08Z</time></trkpt><trkpt lat="41.77583162506165" lon="12.880650624818182"><ele>339.0</ele><time>2026-03-26T15:04:09Z</time></trkpt><trkpt lat="41.77575128005713" lon="12.881023210192456"><ele>339.0</ele><time>2026-03-26T15:04:10Z</time></trkpt><trkpt lat="41.77567060101773" lon="12.881398491726925"><ele>339.0</ele><time>2026-03-26T15:04:11Z</time></trkpt><trkpt lat="41.775588862530256" lon="12.881777647386118"><ele>339.5</ele><time>2026-03-26T15:04:12Z</time></trkpt><trkpt lat="41.775504000569455" lon="12.882157920971496"><ele>340.0</ele><time>2026-03-26T15:04:12.999Z</time></trkpt><trkpt lat="41.775419807927804" lon="12.882539028728104"><ele>339.5</ele><time>2026-03-26T15:04:13.999Z</time></trkpt><trkpt lat="41.77533817111339" lon="12.882918603636126"><ele>339.0</ele><time>2026-03-26T15:04:14.999Z</time></trkpt><trkpt lat="41.77525703390095" lon="12.88329669284916"><ele>337.0</ele><time>2026-03-26T15:04:15.999Z</time></trkpt><trkpt lat="41.77517546290732" lon="12.883673134383741"><ele>335.0</ele><time>2026-03-26T15:04:16.999Z</time></trkpt><trkpt lat="41.77509250326192" lon="12.884049999319492"><ele>332.5</ele><time>2026-03-26T15:04:17.999Z</time></trkpt><trkpt lat="41.7750097178953" lon="12.884430447038454"><ele>330.0</ele><time>2026-03-26T15:04:18.999Z</time></trkpt><trkpt lat="41.7749268969701" lon="12.88481170357701"><ele>328.0</ele><time>2026-03-26T15:04:19.999Z</time></trkpt><trkpt lat="41.774841968916824" lon="12.885193936889825"><ele>326.0</ele><time>2026-03-26T15:04:20.999Z</time></trkpt><trkpt lat="41.77475551377296" lon="12.885573577236343"><ele>324.5</ele><time>2026-03-26T15:04:21.999Z</time></trkpt><trkpt lat="41.77466774117378" lon="12.885953357056415"><ele>323.0</ele><time>2026-03-26T15:04:22.999Z</time></trkpt><trkpt lat="41.774579268472394" lon="12.88633460737251"><ele>323.0</ele><time>2026-03-26T15:04:23.999Z</time></trkpt><trkpt lat="41.77449218489319" lon="12.886716252748244"><ele>323.0</ele><time>2026-03-26T15:04:24.999Z</time></trkpt><trkpt lat="41.77440642596773" lon="12.887096939211789"><ele>323.0</ele><time>2026-03-26T15:04:25.999Z</time></trkpt><trkpt lat="41.77432164668372" lon="12.887475289932777"><ele>323.0</ele><time>2026-03-26T15:04:26.999Z</time></trkpt><trkpt lat="41.77423724060866" lon="12.887852233888454"><ele>324.0</ele><time>2026-03-26T15:04:27.999Z</time></trkpt><trkpt lat="41.7741546524063" lon="12.888222951451501"><ele>325.0</ele><time>2026-03-26T15:04:28.999Z</time></trkpt><trkpt lat="41.77407411797861" lon="12.888590320649522"><ele>325.0</ele><time>2026-03-26T15:04:29.999Z</time></trkpt><trkpt lat="41.7739945364684" lon="12.888960067675397"><ele>325.0</ele><time>2026-03-26T15:04:30.999Z</time></trkpt><trkpt lat="41.77391514968822" lon="12.889331147919838"><ele>324.5</ele><time>2026-03-26T15:04:31.999Z</time></trkpt><trkpt lat="41.7738342726054" lon="12.88970317066227"><ele>324.0</ele><time>2026-03-26T15:04:32.999Z</time></trkpt><trkpt lat="41.77375038730899" lon="12.890072417284665"><ele>322.5</ele><time>2026-03-26T15:04:33.999Z</time></trkpt><trkpt lat="41.773669974028344" lon="12.890445689217682"><ele>321.0</ele><time>2026-03-26T15:04:34.999Z</time></trkpt><trkpt lat="41.773587220209315" lon="12.89081895556896"><ele>321.5</ele><time>2026-03-26T15:04:35.999Z</time></trkpt><trkpt lat="41.773505000126015" lon="12.891193496646718"><ele>322.0</ele><time>2026-03-26T15:04:36.999Z</time></trkpt><trkpt lat="41.77342138571465" lon="12.891570891332428"><ele>320.0</ele><time>2026-03-26T15:04:37.999Z</time></trkpt><trkpt lat="41.77333863894652" lon="12.891946211944406"><ele>318.0</ele><time>2026-03-26T15:04:38.999Z</time></trkpt><trkpt lat="41.77325517879564" lon="12.892323426265113"><ele>317.0</ele><time>2026-03-26T15:04:39.999Z</time></trkpt><trkpt lat="41.77316986626014" lon="12.892700647944206"><ele>316.0</ele><time>2026-03-26T15:04:40.999Z</time></trkpt><trkpt lat="41.773084562636434" lon="12.893078254783276"><ele>315.0</ele><time>2026-03-26T15:04:41.999Z</time></trkpt><trkpt lat="41.77300322456316" lon="12.893455480917675"><ele>314.0</ele><time>2026-03-26T15:04:42.999Z</time></trkpt><trkpt lat="41.77291720251909" lon="12.893837971451878"><ele>314.0</ele><time>2026-03-26T15:04:44Z</time></trkpt><trkpt lat="41.77283325661348" lon="12.894219074915862"><ele>314.0</ele><time>2026-03-26T15:04:45Z</time></trkpt><trkpt lat="41.77274902287174" lon="12.89460197881525"><ele>316.5</ele><time>2026-03-26T15:04:46Z</time></trkpt><trkpt lat="41.77266441727375" lon="12.894986112983057"><ele>319.0</ele><time>2026-03-26T15:04:47Z</time></trkpt><trkpt lat="41.772579127543494" lon="12.895372224767781"><ele>319.0</ele><time>2026-03-26T15:04:48Z</time></trkpt><trkpt lat="41.7724940809307" lon="12.89576078750337"><ele>319.0</ele><time>2026-03-26T15:04:49Z</time></trkpt><trkpt lat="41.772408553218625" lon="12.896147276996002"><ele>316.5</ele><time>2026-03-26T15:04:50Z</time></trkpt><trkpt lat="41.772322470004426" lon="12.896536455272093"><ele>314.0</ele><time>2026-03-26T15:04:51Z</time></trkpt><trkpt lat="41.77223692794804" lon="12.896926642008477"><ele>313.0</ele><time>2026-03-26T15:04:52Z</time></trkpt><trkpt lat="41.77215158530159" lon="12.897316687205453"><ele>312.0</ele><time>2026-03-26T15:04:53Z</time></trkpt><trkpt lat="41.772066553030555" lon="12.897707751150145"><ele>311.5</ele><time>2026-03-26T15:04:54Z</time></trkpt><trkpt lat="41.77198059996242" lon="12.898100211854777"><ele>311.0</ele><time>2026-03-26T15:04:55Z</time></trkpt><trkpt lat="41.77189576746615" lon="12.898490224065359"><ele>313.5</ele><time>2026-03-26T15:04:56Z</time></trkpt><trkpt lat="41.77181138222464" lon="12.89888086092948"><ele>316.0</ele><time>2026-03-26T15:04:57Z</time></trkpt><trkpt lat="41.7717258420559" lon="12.899271964026761"><ele>316.5</ele><time>2026-03-26T15:04:58Z</time></trkpt><trkpt lat="41.77164048966523" lon="12.899662878658194"><ele>317.0</ele><time>2026-03-26T15:04:59Z</time></trkpt><trkpt lat="41.77155300513945" lon="12.900052924334824"><ele>316.5</ele><time>2026-03-26T15:05:00Z</time></trkpt><trkpt lat="41.771465028730624" lon="12.900443398356709"><ele>316.0</ele><time>2026-03-26T15:05:01Z</time></trkpt><trkpt lat="41.77137548303052" lon="12.900831072397509"><ele>314.5</ele><time>2026-03-26T15:05:02Z</time></trkpt><trkpt lat="41.771287444258455" lon="12.901222213561608"><ele>313.0</ele><time>2026-03-26T15:05:03Z</time></trkpt><trkpt lat="41.771200150537155" lon="12.901612248763628"><ele>312.0</ele><time>2026-03-26T15:05:04Z</time></trkpt><trkpt lat="41.771116543264334" lon="12.902000123156421"><ele>311.0</ele><time>2026-03-26T15:05:05Z</time></trkpt><trkpt lat="41.771032515197724" lon="12.902389266000096"><ele>309.5</ele><time>2026-03-26T15:05:06Z</time></trkpt><trkpt lat="41.77094717705527" lon="12.90277688869155"><ele>308.0</ele><time>2026-03-26T15:05:07Z</time></trkpt><trkpt lat="41.77085824932633" lon="12.903160386965057"><ele>306.5</ele><time>2026-03-26T15:05:08Z</time></trkpt><trkpt lat="41.77077094751584" lon="12.903544895533853"><ele>305.0</ele><time>2026-03-26T15:05:09Z</time></trkpt><trkpt lat="41.77068699212843" lon="12.903934050414692"><ele>303.5</ele><time>2026-03-26T15:05:10Z</time></trkpt><trkpt lat="41.77060075939307" lon="12.904321469135201"><ele>302.0</ele><time>2026-03-26T15:05:11Z</time></trkpt><trkpt lat="41.770512805599765" lon="12.9047097763085"><ele>300.0</ele><time>2026-03-26T15:05:12Z</time></trkpt><trkpt lat="41.770426386329135" lon="12.905097805465413"><ele>298.0</ele><time>2026-03-26T15:05:13Z</time></trkpt><trkpt lat="41.770341792176836" lon="12.905486159692858"><ele>298.0</ele><time>2026-03-26T15:05:14Z</time></trkpt><trkpt lat="41.770257455231935" lon="12.905874785642537"><ele>298.0</ele><time>2026-03-26T15:05:15Z</time></trkpt><trkpt lat="41.77017145715" lon="12.906264706263459"><ele>300.0</ele><time>2026-03-26T15:05:16Z</time></trkpt><trkpt lat="41.77008563663755" lon="12.906653048056896"><ele>302.0</ele><time>2026-03-26T15:05:17Z</time></trkpt><trkpt lat="41.769998001303264" lon="12.907036543902988"><ele>302.0</ele><time>2026-03-26T15:05:18Z</time></trkpt><trkpt lat="41.769911390869446" lon="12.907420215141343"><ele>302.0</ele><time>2026-03-26T15:05:19Z</time></trkpt><trkpt lat="41.76982424570425" lon="12.907800839601029"><ele>299.5</ele><time>2026-03-26T15:05:20Z</time></trkpt><trkpt lat="41.76973370816665" lon="12.908181967942904"><ele>297.0</ele><time>2026-03-26T15:05:21Z</time></trkpt><trkpt lat="41.76964259203299" lon="12.90856184322721"><ele>297.0</ele><time>2026-03-26T15:05:22Z</time></trkpt><trkpt lat="41.7695541998849" lon="12.908945544487967"><ele>297.0</ele><time>2026-03-26T15:05:23Z</time></trkpt><trkpt lat="41.769465651030885" lon="12.909330933138211"><ele>297.0</ele><time>2026-03-26T15:05:24Z</time></trkpt><trkpt lat="41.769379307994555" lon="12.90971812139453"><ele>297.0</ele><time>2026-03-26T15:05:25Z</time></trkpt><trkpt lat="41.76929302364493" lon="12.910105013096546"><ele>297.0</ele><time>2026-03-26T15:05:26Z</time></trkpt><trkpt lat="41.76920757470374" lon="12.910495249979622"><ele>297.0</ele><time>2026-03-26T15:05:27Z</time></trkpt><trkpt lat="41.76912221599366" lon="12.910885123272683"><ele>297.0</ele><time>2026-03-26T15:05:28Z</time></trkpt><trkpt lat="41.76903676716019" lon="12.91127729291131"><ele>297.0</ele><time>2026-03-26T15:05:29Z</time></trkpt><trkpt lat="41.768950783236654" lon="12.911673882556618"><ele>299.5</ele><time>2026-03-26T15:05:30Z</time></trkpt><trkpt lat="41.76886329535393" lon="12.912069232756513"><ele>302.0</ele><time>2026-03-26T15:05:31Z</time></trkpt><trkpt lat="41.768775334642946" lon="12.912467452176909"><ele>302.5</ele><time>2026-03-26T15:05:32Z</time></trkpt><trkpt lat="41.76868721102012" lon="12.912867939144116"><ele>303.0</ele><time>2026-03-26T15:05:33Z</time></trkpt><trkpt lat="41.76859911678968" lon="12.913269147446627"><ele>296.5</ele><time>2026-03-26T15:05:34Z</time></trkpt><trkpt lat="41.7685113744177" lon="12.913671859458761"><ele>290.0</ele><time>2026-03-26T15:05:35Z</time></trkpt><trkpt lat="41.76842387460035" lon="12.914074962010476"><ele>290.0</ele><time>2026-03-26T15:05:36Z</time></trkpt><trkpt lat="41.768335520913155" lon="12.914477758371303"><ele>290.0</ele><time>2026-03-26T15:05:37Z</time></trkpt><trkpt lat="41.76824835027979" lon="12.914880186281723"><ele>289.5</ele><time>2026-03-26T15:05:38Z</time></trkpt><trkpt lat="41.76816033655526" lon="12.915284747750153"><ele>289.0</ele><time>2026-03-26T15:05:39Z</time></trkpt><trkpt lat="41.76807134742373" lon="12.915687006185133"><ele>289.5</ele><time>2026-03-26T15:05:40Z</time></trkpt><trkpt lat="41.76798217514144" lon="12.916088794223937"><ele>290.0</ele><time>2026-03-26T15:05:41Z</time></trkpt><trkpt lat="41.76789308682093" lon="12.916490567971076"><ele>289.0</ele><time>2026-03-26T15:05:42Z</time></trkpt><trkpt lat="41.76780454966511" lon="12.916892628883282"><ele>288.0</ele><time>2026-03-26T15:05:43Z</time></trkpt><trkpt lat="41.767714596447824" lon="12.91729669439409"><ele>287.0</ele><time>2026-03-26T15:05:44Z</time></trkpt><trkpt lat="41.76762490524867" lon="12.917702198825896"><ele>286.0</ele><time>2026-03-26T15:05:45Z</time></trkpt><trkpt lat="41.767535359994085" lon="12.918107922012789"><ele>285.5</ele><time>2026-03-26T15:05:46Z</time></trkpt><trkpt lat="41.767446656238405" lon="12.918512109054301"><ele>285.0</ele><time>2026-03-26T15:05:47Z</time></trkpt><trkpt lat="41.76735967525576" lon="12.918916393047132"><ele>284.5</ele><time>2026-03-26T15:05:48Z</time></trkpt><trkpt lat="41.7672723842366" lon="12.919319773359511"><ele>284.0</ele><time>2026-03-26T15:05:49Z</time></trkpt><trkpt lat="41.76718492964425" lon="12.919722385105322"><ele>283.0</ele><time>2026-03-26T15:05:49.999Z</time></trkpt><trkpt lat="41.76709614261659" lon="12.920126990623965"><ele>282.0</ele><time>2026-03-26T15:05:50.999Z</time></trkpt><trkpt lat="41.767004639181884" lon="12.920527079884168"><ele>283.0</ele><time>2026-03-26T15:05:51.999Z</time></trkpt><trkpt lat="41.76691549817657" lon="12.920930781057773"><ele>284.0</ele><time>2026-03-26T15:05:52.999Z</time></trkpt><trkpt lat="41.766826300015616" lon="12.92132935489736"><ele>283.5</ele><time>2026-03-26T15:05:53.999Z</time></trkpt><trkpt lat="41.76673802181463" lon="12.92172371976917"><ele>283.0</ele><time>2026-03-26T15:05:54.999Z</time></trkpt><trkpt lat="41.766654139533614" lon="12.922112510733118"><ele>283.0</ele><time>2026-03-26T15:05:55.999Z</time></trkpt><trkpt lat="41.76656696606242" lon="12.922499027167884"><ele>283.0</ele><time>2026-03-26T15:05:56.999Z</time></trkpt><trkpt lat="41.766481055303046" lon="12.922882777933939"><ele>283.0</ele><time>2026-03-26T15:05:57.999Z</time></trkpt><trkpt lat="41.7663951696187" lon="12.923266410299023"><ele>283.0</ele><time>2026-03-26T15:05:58.999Z</time></trkpt><trkpt lat="41.76630828876708" lon="12.92364996902848"><ele>283.0</ele><time>2026-03-26T15:05:59.999Z</time></trkpt><trkpt lat="41.76622385475261" lon="12.92403147956595"><ele>283.0</ele><time>2026-03-26T15:06:00.999Z</time></trkpt><trkpt lat="41.76614432095594" lon="12.924412678763257"><ele>284.5</ele><time>2026-03-26T15:06:01.999Z</time></trkpt><trkpt lat="41.76606453100087" lon="12.924788616218521"><ele>286.0</ele><time>2026-03-26T15:06:02.999Z</time></trkpt><trkpt lat="41.765983612481506" lon="12.925160331594345"><ele>286.0</ele><time>2026-03-26T15:06:03.999Z</time></trkpt><trkpt lat="41.76590310386749" lon="12.925519406792596"><ele>286.0</ele><time>2026-03-26T15:06:04.999Z</time></trkpt><trkpt lat="41.76582993115026" lon="12.925866184957885"><ele>284.0</ele><time>2026-03-26T15:06:05.999Z</time></trkpt><trkpt lat="41.765753978661564" lon="12.92620880952571"><ele>282.0</ele><time>2026-03-26T15:06:06.999Z</time></trkpt><trkpt lat="41.765676569532566" lon="12.926549880464286"><ele>280.0</ele><time>2026-03-26T15:06:07.999Z</time></trkpt><trkpt lat="41.76559658920728" lon="12.926893332990696"><ele>278.0</ele><time>2026-03-26T15:06:08.999Z</time></trkpt><trkpt lat="41.76551617459941" lon="12.927239001773206"><ele>276.0</ele><time>2026-03-26T15:06:09.999Z</time></trkpt><trkpt lat="41.76543708546241" lon="12.927587147875904"><ele>274.0</ele><time>2026-03-26T15:06:10.999Z</time></trkpt><trkpt lat="41.76535848935491" lon="12.92794213559248"><ele>274.0</ele><time>2026-03-26T15:06:11.999Z</time></trkpt><trkpt lat="41.76527930620351" lon="12.928300752934817"><ele>274.0</ele><time>2026-03-26T15:06:12.999Z</time></trkpt><trkpt lat="41.765198869457315" lon="12.928663596767443"><ele>273.0</ele><time>2026-03-26T15:06:13.999Z</time></trkpt><trkpt lat="41.76511865567784" lon="12.929030452025435"><ele>272.0</ele><time>2026-03-26T15:06:14.999Z</time></trkpt><trkpt lat="41.76503669429059" lon="12.929402673991481"><ele>272.0</ele><time>2026-03-26T15:06:15.999Z</time></trkpt><trkpt lat="41.764953656592525" lon="12.929777440330172"><ele>272.0</ele><time>2026-03-26T15:06:16.999Z</time></trkpt><trkpt lat="41.76487012315957" lon="12.930156640924745"><ele>271.5</ele><time>2026-03-26T15:06:17.999Z</time></trkpt><trkpt lat="41.76478646997645" lon="12.930537338793993"><ele>271.0</ele><time>2026-03-26T15:06:18.999Z</time></trkpt><trkpt lat="41.7647029366104" lon="12.930920869091194"><ele>270.5</ele><time>2026-03-26T15:06:19.999Z</time></trkpt><trkpt lat="41.76461846066357" lon="12.931305568771801"><ele>270.0</ele><time>2026-03-26T15:06:20.999Z</time></trkpt><trkpt lat="41.764533650462035" lon="12.931694674444584"><ele>271.5</ele><time>2026-03-26T15:06:21.999Z</time></trkpt><trkpt lat="41.76444740442755" lon="12.932086595619307"><ele>273.0</ele><time>2026-03-26T15:06:22.999Z</time></trkpt><trkpt lat="41.7643608227559" lon="12.932480838620393"><ele>274.5</ele><time>2026-03-26T15:06:23.998Z</time></trkpt><trkpt lat="41.764273636071835" lon="12.932873931712358"><ele>276.0</ele><time>2026-03-26T15:06:24.998Z</time></trkpt><trkpt lat="41.76418579220081" lon="12.933265539010193"><ele>276.0</ele><time>2026-03-26T15:06:25.998Z</time></trkpt><trkpt lat="41.76410141892427" lon="12.933655046416746"><ele>276.0</ele><time>2026-03-26T15:06:26.998Z</time></trkpt><trkpt lat="41.76402280651376" lon="12.934042196744157"><ele>275.0</ele><time>2026-03-26T15:06:27.998Z</time></trkpt><trkpt lat="41.76394329828565" lon="12.934425171705547"><ele>274.0</ele><time>2026-03-26T15:06:28.998Z</time></trkpt><trkpt lat="41.76386509100887" lon="12.934806930814597"><ele>274.0</ele><time>2026-03-26T15:06:29.998Z</time></trkpt><trkpt lat="41.7637871297272" lon="12.935187150175393"><ele>274.0</ele><time>2026-03-26T15:06:30.998Z</time></trkpt><trkpt lat="41.76370790654086" lon="12.935565977058268"><ele>274.5</ele><time>2026-03-26T15:06:31.998Z</time></trkpt><trkpt lat="41.7636271629061" lon="12.93594559223182"><ele>275.0</ele><time>2026-03-26T15:06:32.998Z</time></trkpt><trkpt lat="41.763545273325" lon="12.936323596028723"><ele>272.5</ele><time>2026-03-26T15:06:33.998Z</time></trkpt><trkpt lat="41.76346247497149" lon="12.936699426580883"><ele>270.0</ele><time>2026-03-26T15:06:34.998Z</time></trkpt><trkpt lat="41.763379559660684" lon="12.937075142879959"><ele>270.0</ele><time>2026-03-26T15:06:35.998Z</time></trkpt><trkpt lat="41.763296207263814" lon="12.937450837274396"><ele>270.0</ele><time>2026-03-26T15:06:36.998Z</time></trkpt><trkpt lat="41.76321344280816" lon="12.937828681686717"><ele>270.0</ele><time>2026-03-26T15:06:37.998Z</time></trkpt><trkpt lat="41.76313034070545" lon="12.938207664787896"><ele>270.0</ele><time>2026-03-26T15:06:38.998Z</time></trkpt><trkpt lat="41.76304743536388" lon="12.938586360048905"><ele>269.0</ele><time>2026-03-26T15:06:39.998Z</time></trkpt><trkpt lat="41.762963799426345" lon="12.938961197699953"><ele>268.0</ele><time>2026-03-26T15:06:40.998Z</time></trkpt><trkpt lat="41.762882379850744" lon="12.939324876686516"><ele>267.5</ele><time>2026-03-26T15:06:41.998Z</time></trkpt><trkpt lat="41.76280346049144" lon="12.939682513334532"><ele>267.0</ele><time>2026-03-26T15:06:42.998Z</time></trkpt><trkpt lat="41.76272817787859" lon="12.940025733734618"><ele>264.0</ele><time>2026-03-26T15:06:43.998Z</time></trkpt><trkpt lat="41.762653795951806" lon="12.940362038008264"><ele>261.0</ele><time>2026-03-26T15:06:44.998Z</time></trkpt><trkpt lat="41.76257834071379" lon="12.940697537728214"><ele>260.5</ele><time>2026-03-26T15:06:45.998Z</time></trkpt><trkpt lat="41.76250173534898" lon="12.941032664520543"><ele>260.0</ele><time>2026-03-26T15:06:46.998Z</time></trkpt><trkpt lat="41.762426470627226" lon="12.941372759725597"><ele>260.0</ele><time>2026-03-26T15:06:47.998Z</time></trkpt><trkpt lat="41.76235082290248" lon="12.941724972145837"><ele>260.0</ele><time>2026-03-26T15:06:48.998Z</time></trkpt><trkpt lat="41.762273254561705" lon="12.94208405563939"><ele>260.0</ele><time>2026-03-26T15:06:50Z</time></trkpt><trkpt lat="41.76219633592583" lon="12.942436452709495"><ele>260.0</ele><time>2026-03-26T15:06:51Z</time></trkpt><trkpt lat="41.76212058355592" lon="12.942782728809048"><ele>260.0</ele><time>2026-03-26T15:06:52Z</time></trkpt><trkpt lat="41.76204276488683" lon="12.943133455904757"><ele>260.0</ele><time>2026-03-26T15:06:53Z</time></trkpt><trkpt lat="41.76196081594744" lon="12.943484631666141"><ele>260.0</ele><time>2026-03-26T15:06:54Z</time></trkpt><trkpt lat="41.76187507875243" lon="12.943843587255591"><ele>260.0</ele><time>2026-03-26T15:06:55Z</time></trkpt><trkpt lat="41.76178605273729" lon="12.944203350346305"><ele>262.5</ele><time>2026-03-26T15:06:56Z</time></trkpt><trkpt lat="41.7616996206703" lon="12.944566986501851"><ele>265.0</ele><time>2026-03-26T15:06:57Z</time></trkpt><trkpt lat="41.76161778842887" lon="12.944935448122074"><ele>264.5</ele><time>2026-03-26T15:06:58Z</time></trkpt><trkpt lat="41.761538689898074" lon="12.945297974591726"><ele>264.0</ele><time>2026-03-26T15:06:59Z</time></trkpt><trkpt lat="41.761461722457675" lon="12.945652159578596"><ele>264.0</ele><time>2026-03-26T15:07:00Z</time></trkpt><trkpt lat="41.76138622693195" lon="12.945998943817067"><ele>264.0</ele><time>2026-03-26T15:07:01Z</time></trkpt><trkpt lat="41.76131104104067" lon="12.946344797136367"><ele>264.0</ele><time>2026-03-26T15:07:02Z</time></trkpt><trkpt lat="41.76123641999653" lon="12.946691800828964"><ele>264.0</ele><time>2026-03-26T15:07:03Z</time></trkpt><trkpt lat="41.761160468125524" lon="12.9470394412959"><ele>264.5</ele><time>2026-03-26T15:07:04Z</time></trkpt><trkpt lat="41.76108302024901" lon="12.947390524108354"><ele>265.0</ele><time>2026-03-26T15:07:04.999Z</time></trkpt><trkpt lat="41.76100273565256" lon="12.947736498536122"><ele>260.5</ele><time>2026-03-26T15:07:05.999Z</time></trkpt><trkpt lat="41.76092364656298" lon="12.948076808494362"><ele>256.0</ele><time>2026-03-26T15:07:06.999Z</time></trkpt><trkpt lat="41.760844108115485" lon="12.948418925835314"><ele>255.0</ele><time>2026-03-26T15:07:07.999Z</time></trkpt><trkpt lat="41.760766639299554" lon="12.948761491058523"><ele>254.0</ele><time>2026-03-26T15:07:08.999Z</time></trkpt><trkpt lat="41.76068712121801" lon="12.949108143107525"><ele>252.0</ele><time>2026-03-26T15:07:09.999Z</time></trkpt><trkpt lat="41.76060666550379" lon="12.94945406198657"><ele>250.0</ele><time>2026-03-26T15:07:10.999Z</time></trkpt><trkpt lat="41.76053059315108" lon="12.949800845013373"><ele>246.5</ele><time>2026-03-26T15:07:11.999Z</time></trkpt><trkpt lat="41.76045327727464" lon="12.950147354177014"><ele>243.0</ele><time>2026-03-26T15:07:12.999Z</time></trkpt><trkpt lat="41.760376350675884" lon="12.950496115998563"><ele>243.0</ele><time>2026-03-26T15:07:13.999Z</time></trkpt><trkpt lat="41.76030023464024" lon="12.950838824097058"><ele>243.0</ele><time>2026-03-26T15:07:14.999Z</time></trkpt><trkpt lat="41.76022791771521" lon="12.951171675895983"><ele>243.5</ele><time>2026-03-26T15:07:15.999Z</time></trkpt><trkpt lat="41.76015309323404" lon="12.951507539692983"><ele>244.0</ele><time>2026-03-26T15:07:16.999Z</time></trkpt><trkpt lat="41.760077701090474" lon="12.951846247264674"><ele>244.0</ele><time>2026-03-26T15:07:17.999Z</time></trkpt><trkpt lat="41.76000132111184" lon="12.952186035907568"><ele>244.0</ele><time>2026-03-26T15:07:18.999Z</time></trkpt><trkpt lat="41.7599251201383" lon="12.952532623891473"><ele>245.0</ele><time>2026-03-26T15:07:19.999Z</time></trkpt><trkpt lat="41.759848399561605" lon="12.952882668534185"><ele>246.0</ele><time>2026-03-26T15:07:20.999Z</time></trkpt><trkpt lat="41.75977188709637" lon="12.95323838779677"><ele>248.5</ele><time>2026-03-26T15:07:21.999Z</time></trkpt><trkpt lat="41.759693918912895" lon="12.953595484970805"><ele>251.0</ele><time>2026-03-26T15:07:22.999Z</time></trkpt><trkpt lat="41.75961483407544" lon="12.953953368685633"><ele>252.5</ele><time>2026-03-26T15:07:23.999Z</time></trkpt><trkpt lat="41.7595352416804" lon="12.954313483872758"><ele>254.0</ele><time>2026-03-26T15:07:24.999Z</time></trkpt><trkpt lat="41.759455084723854" lon="12.9546729915522"><ele>254.0</ele><time>2026-03-26T15:07:25.999Z</time></trkpt><trkpt lat="41.75937631718609" lon="12.955028678048949"><ele>254.0</ele><time>2026-03-26T15:07:26.999Z</time></trkpt><trkpt lat="41.75929773916944" lon="12.955383426977017"><ele>249.0</ele><time>2026-03-26T15:07:27.999Z</time></trkpt><trkpt lat="41.759216287751386" lon="12.955742101258583"><ele>244.0</ele><time>2026-03-26T15:07:28.999Z</time></trkpt><trkpt lat="41.759133391068694" lon="12.956102453735719"><ele>244.0</ele><time>2026-03-26T15:07:29.999Z</time></trkpt><trkpt lat="41.75904941925218" lon="12.956458889121615"><ele>244.0</ele><time>2026-03-26T15:07:30.999Z</time></trkpt><trkpt lat="41.758965158586015" lon="12.956811521673986"><ele>243.0</ele><time>2026-03-26T15:07:31.999Z</time></trkpt><trkpt lat="41.75888325193574" lon="12.957161757777895"><ele>242.0</ele><time>2026-03-26T15:07:32.999Z</time></trkpt><trkpt lat="41.75880085217145" lon="12.957513651390354"><ele>241.5</ele><time>2026-03-26T15:07:33.999Z</time></trkpt><trkpt lat="41.75871852039624" lon="12.9578672993394"><ele>241.0</ele><time>2026-03-26T15:07:34.999Z</time></trkpt><trkpt lat="41.75863697972402" lon="12.958221443513063"><ele>242.5</ele><time>2026-03-26T15:07:35.999Z</time></trkpt><trkpt lat="41.758555711987746" lon="12.958574941571557"><ele>244.0</ele><time>2026-03-26T15:07:36.999Z</time></trkpt><trkpt lat="41.758476186865934" lon="12.958929818112848"><ele>244.0</ele><time>2026-03-26T15:07:37.999Z</time></trkpt><trkpt lat="41.758399365012764" lon="12.959284348503417"><ele>244.0</ele><time>2026-03-26T15:07:38.999Z</time></trkpt><trkpt lat="41.75832477680491" lon="12.95963767722444"><ele>244.0</ele><time>2026-03-26T15:07:39.999Z</time></trkpt><trkpt lat="41.758250918699005" lon="12.95999142152061"><ele>244.0</ele><time>2026-03-26T15:07:40.999Z</time></trkpt><trkpt lat="41.7581790608414" lon="12.960345263870106"><ele>245.0</ele><time>2026-03-26T15:07:41.999Z</time></trkpt><trkpt lat="41.75810720766821" lon="12.960701841296265"><ele>246.0</ele><time>2026-03-26T15:07:42.999Z</time></trkpt><trkpt lat="41.75803500874855" lon="12.961054318973687"><ele>246.0</ele><time>2026-03-26T15:07:43.999Z</time></trkpt><trkpt lat="41.75795995837034" lon="12.961408362624528"><ele>246.0</ele><time>2026-03-26T15:07:44.999Z</time></trkpt><trkpt lat="41.75788060518437" lon="12.96175692087727"><ele>245.0</ele><time>2026-03-26T15:07:45.999Z</time></trkpt><trkpt lat="41.75780126197914" lon="12.9621023751824"><ele>244.0</ele><time>2026-03-26T15:07:46.999Z</time></trkpt><trkpt lat="41.75771967372227" lon="12.962438035821165"><ele>247.0</ele><time>2026-03-26T15:07:47.999Z</time></trkpt><trkpt lat="41.7576337497195" lon="12.962769243289667"><ele>250.0</ele><time>2026-03-26T15:07:48.999Z</time></trkpt><trkpt lat="41.757546612623194" lon="12.963107636048507"><ele>248.5</ele><time>2026-03-26T15:07:49.999Z</time></trkpt><trkpt lat="41.75745779028028" lon="12.96344863647295"><ele>247.0</ele><time>2026-03-26T15:07:50.999Z</time></trkpt><trkpt lat="41.757365885088895" lon="12.963792220960421"><ele>247.0</ele><time>2026-03-26T15:07:51.999Z</time></trkpt><trkpt lat="41.757274044119356" lon="12.964131528272175"><ele>247.0</ele><time>2026-03-26T15:07:52.999Z</time></trkpt><trkpt lat="41.757179994350764" lon="12.96447101480486"><ele>243.5</ele><time>2026-03-26T15:07:53.999Z</time></trkpt><trkpt lat="41.75708563697253" lon="12.96480627049644"><ele>240.0</ele><time>2026-03-26T15:07:54.999Z</time></trkpt><trkpt lat="41.7569899350566" lon="12.965138515043622"><ele>241.0</ele><time>2026-03-26T15:07:55.999Z</time></trkpt><trkpt lat="41.756891900030375" lon="12.965472786449551"><ele>242.0</ele><time>2026-03-26T15:07:56.999Z</time></trkpt><trkpt lat="41.756793673355745" lon="12.965807938722618"><ele>242.0</ele><time>2026-03-26T15:07:57.999Z</time></trkpt><trkpt lat="41.756696826951995" lon="12.966144854500323"><ele>242.0</ele><time>2026-03-26T15:07:58.999Z</time></trkpt><trkpt lat="41.75660219235293" lon="12.966477096674769"><ele>239.5</ele><time>2026-03-26T15:07:59.999Z</time></trkpt><trkpt lat="41.75651270694426" lon="12.966797198350646"><ele>237.0</ele><time>2026-03-26T15:08:00.999Z</time></trkpt><trkpt lat="41.75642401056714" lon="12.9671142807166"><ele>237.0</ele><time>2026-03-26T15:08:01.999Z</time></trkpt><trkpt lat="41.75633270643376" lon="12.967431261016477"><ele>237.0</ele><time>2026-03-26T15:08:02.999Z</time></trkpt><trkpt lat="41.75623932694466" lon="12.967749477388498"><ele>232.0</ele><time>2026-03-26T15:08:03.999Z</time></trkpt><trkpt lat="41.75614674732863" lon="12.968068128503498"><ele>227.0</ele><time>2026-03-26T15:08:04.999Z</time></trkpt><trkpt lat="41.756056547470166" lon="12.968389466511042"><ele>229.5</ele><time>2026-03-26T15:08:05.999Z</time></trkpt><trkpt lat="41.755966100060036" lon="12.968712717434322"><ele>232.0</ele><time>2026-03-26T15:08:06.999Z</time></trkpt><trkpt lat="41.75587282972004" lon="12.969039102581291"><ele>232.5</ele><time>2026-03-26T15:08:07.999Z</time></trkpt><trkpt lat="41.75577595057881" lon="12.969366891423645"><ele>233.0</ele><time>2026-03-26T15:08:08.999Z</time></trkpt><trkpt lat="41.755677639608955" lon="12.969699084718956"><ele>230.0</ele><time>2026-03-26T15:08:09.999Z</time></trkpt><trkpt lat="41.755577658675605" lon="12.970036525041216"><ele>227.0</ele><time>2026-03-26T15:08:10.999Z</time></trkpt><trkpt lat="41.755477293944615" lon="12.970373290066679"><ele>227.0</ele><time>2026-03-26T15:08:11.999Z</time></trkpt><trkpt lat="41.755376961764256" lon="12.970708021182006"><ele>227.0</ele><time>2026-03-26T15:08:12.999Z</time></trkpt><trkpt lat="41.755279121962324" lon="12.971042079758389"><ele>233.0</ele><time>2026-03-26T15:08:13.999Z</time></trkpt><trkpt lat="41.75517994525693" lon="12.971379145354618"><ele>239.0</ele><time>2026-03-26T15:08:14.999Z</time></trkpt><trkpt lat="41.75508102664354" lon="12.9717187098704"><ele>239.0</ele><time>2026-03-26T15:08:15.999Z</time></trkpt><trkpt lat="41.754983494753915" lon="12.972057726980784"><ele>239.0</ele><time>2026-03-26T15:08:16.999Z</time></trkpt><trkpt lat="41.75488780770216" lon="12.972398176705754"><ele>235.0</ele><time>2026-03-26T15:08:17.999Z</time></trkpt><trkpt lat="41.75479240475957" lon="12.972739175688446"><ele>231.0</ele><time>2026-03-26T15:08:18.999Z</time></trkpt><trkpt lat="41.754695822836545" lon="12.973077725567554"><ele>225.5</ele><time>2026-03-26T15:08:19.999Z</time></trkpt><trkpt lat="41.754601459352074" lon="12.973409109023144"><ele>220.0</ele><time>2026-03-26T15:08:20.999Z</time></trkpt><trkpt lat="41.75450624656047" lon="12.973741511492003"><ele>220.0</ele><time>2026-03-26T15:08:21.999Z</time></trkpt><trkpt lat="41.7544104179327" lon="12.974074241337357"><ele>220.0</ele><time>2026-03-26T15:08:22.999Z</time></trkpt><trkpt lat="41.754313499097925" lon="12.97441076816022"><ele>221.0</ele><time>2026-03-26T15:08:23.999Z</time></trkpt><trkpt lat="41.75421434582435" lon="12.97474759110994"><ele>222.0</ele><time>2026-03-26T15:08:24.999Z</time></trkpt><trkpt lat="41.75411362932408" lon="12.975086128170371"><ele>219.5</ele><time>2026-03-26T15:08:25.999Z</time></trkpt><trkpt lat="41.754015063164715" lon="12.975426681827146"><ele>217.0</ele><time>2026-03-26T15:08:26.999Z</time></trkpt><trkpt lat="41.75391733608451" lon="12.975765170915368"><ele>216.0</ele><time>2026-03-26T15:08:27.998Z</time></trkpt><trkpt lat="41.75382173463447" lon="12.97610345000991"><ele>215.0</ele><time>2026-03-26T15:08:28.998Z</time></trkpt><trkpt lat="41.753724458755954" lon="12.976442676475438"><ele>214.0</ele><time>2026-03-26T15:08:29.998Z</time></trkpt><trkpt lat="41.75362498621555" lon="12.976786423159417"><ele>213.0</ele><time>2026-03-26T15:08:30.998Z</time></trkpt><trkpt lat="41.7535229685529" lon="12.97713408869644"><ele>218.5</ele><time>2026-03-26T15:08:31.998Z</time></trkpt><trkpt lat="41.75341862168822" lon="12.977483003262245"><ele>224.0</ele><time>2026-03-26T15:08:32.998Z</time></trkpt><trkpt lat="41.7533133205279" lon="12.977837284335722"><ele>226.0</ele><time>2026-03-26T15:08:33.998Z</time></trkpt><trkpt lat="41.753207187355976" lon="12.978198487046193"><ele>228.0</ele><time>2026-03-26T15:08:34.998Z</time></trkpt><trkpt lat="41.753101040777715" lon="12.978563754430894"><ele>228.5</ele><time>2026-03-26T15:08:35.998Z</time></trkpt><trkpt lat="41.752995368018055" lon="12.978928846225674"><ele>229.0</ele><time>2026-03-26T15:08:36.998Z</time></trkpt><trkpt lat="41.75288795763278" lon="12.979293444292946"><ele>229.0</ele><time>2026-03-26T15:08:37.998Z</time></trkpt><trkpt lat="41.75278435629378" lon="12.9796568213944"><ele>229.0</ele><time>2026-03-26T15:08:38.998Z</time></trkpt><trkpt lat="41.75268151615631" lon="12.98001645432793"><ele>227.5</ele><time>2026-03-26T15:08:39.998Z</time></trkpt><trkpt lat="41.752577315736296" lon="12.980376015415764"><ele>226.0</ele><time>2026-03-26T15:08:40.998Z</time></trkpt><trkpt lat="41.75247321922511" lon="12.980733145471929"><ele>223.0</ele><time>2026-03-26T15:08:41.998Z</time></trkpt><trkpt lat="41.752368793098746" lon="12.981091312868363"><ele>220.0</ele><time>2026-03-26T15:08:42.998Z</time></trkpt><trkpt lat="41.75226512769329" lon="12.981446955450501"><ele>214.5</ele><time>2026-03-26T15:08:43.998Z</time></trkpt><trkpt lat="41.75216193411462" lon="12.98180479509359"><ele>209.0</ele><time>2026-03-26T15:08:44.998Z</time></trkpt><trkpt lat="41.75205932208406" lon="12.982160625798409"><ele>209.0</ele><time>2026-03-26T15:08:45.998Z</time></trkpt><trkpt lat="41.7519573237149" lon="12.982512780662988"><ele>209.0</ele><time>2026-03-26T15:08:46.998Z</time></trkpt><trkpt lat="41.75185696671903" lon="12.982863716650014"><ele>210.5</ele><time>2026-03-26T15:08:47.998Z</time></trkpt><trkpt lat="41.75175734403627" lon="12.98320889133598"><ele>212.0</ele><time>2026-03-26T15:08:48.998Z</time></trkpt><trkpt lat="41.75165946258873" lon="12.98354946327124"><ele>212.0</ele><time>2026-03-26T15:08:49.998Z</time></trkpt><trkpt lat="41.75156073099324" lon="12.983890685112073"><ele>212.0</ele><time>2026-03-26T15:08:50.998Z</time></trkpt><trkpt lat="41.75146033868147" lon="12.984229445595723"><ele>211.5</ele><time>2026-03-26T15:08:51.998Z</time></trkpt><trkpt lat="41.751360903750935" lon="12.98457211246587"><ele>211.0</ele><time>2026-03-26T15:08:52.998Z</time></trkpt><trkpt lat="41.75126246027335" lon="12.984916944904441"><ele>210.0</ele><time>2026-03-26T15:08:53.998Z</time></trkpt><trkpt lat="41.751164011100556" lon="12.985264769801272"><ele>209.0</ele><time>2026-03-26T15:08:54.998Z</time></trkpt><trkpt lat="41.751064838273656" lon="12.98561511778613"><ele>209.0</ele><time>2026-03-26T15:08:55.999Z</time></trkpt><trkpt lat="41.75096648813438" lon="12.985963709621412"><ele>209.0</ele><time>2026-03-26T15:08:56.999Z</time></trkpt><trkpt lat="41.75086877595902" lon="12.986308804169488"><ele>209.0</ele><time>2026-03-26T15:08:57.999Z</time></trkpt><trkpt lat="41.75077120119747" lon="12.98665248582394"><ele>209.0</ele><time>2026-03-26T15:08:58.999Z</time></trkpt><trkpt lat="41.750677296322074" lon="12.986987162919611"><ele>210.0</ele><time>2026-03-26T15:08:59.999Z</time></trkpt><trkpt lat="41.75058339879709" lon="12.9873152012556"><ele>211.0</ele><time>2026-03-26T15:09:00.999Z</time></trkpt><trkpt lat="41.75048868407894" lon="12.987643659489098"><ele>211.5</ele><time>2026-03-26T15:09:01.999Z</time></trkpt><trkpt lat="41.75039307393256" lon="12.987970631216264"><ele>212.0</ele><time>2026-03-26T15:09:02.999Z</time></trkpt><trkpt lat="41.750298116501234" lon="12.98829767696219"><ele>214.0</ele><time>2026-03-26T15:09:03.999Z</time></trkpt><trkpt lat="41.750206421771495" lon="12.988618817983742"><ele>216.0</ele><time>2026-03-26T15:09:04.999Z</time></trkpt><trkpt lat="41.750122074638675" lon="12.988928224323022"><ele>220.5</ele><time>2026-03-26T15:09:05.999Z</time></trkpt><trkpt lat="41.75004017218143" lon="12.98922764486417"><ele>225.0</ele><time>2026-03-26T15:09:06.999Z</time></trkpt><trkpt lat="41.7499534579413" lon="12.98952730869611"><ele>225.0</ele><time>2026-03-26T15:09:07.999Z</time></trkpt><trkpt lat="41.749865741832124" lon="12.98983069295881"><ele>225.0</ele><time>2026-03-26T15:09:08.999Z</time></trkpt><trkpt lat="41.74977670228427" lon="12.990137724717313"><ele>227.5</ele><time>2026-03-26T15:09:09.999Z</time></trkpt><trkpt lat="41.749688206188985" lon="12.990446217824672"><ele>230.0</ele><time>2026-03-26T15:09:10.999Z</time></trkpt><trkpt lat="41.749604597168435" lon="12.990759911916665"><ele>229.5</ele><time>2026-03-26T15:09:11.999Z</time></trkpt><trkpt lat="41.74952923075144" lon="12.991082975646703"><ele>229.0</ele><time>2026-03-26T15:09:12.999Z</time></trkpt><trkpt lat="41.74945764031436" lon="12.991417090049081"><ele>226.0</ele><time>2026-03-26T15:09:13.999Z</time></trkpt><trkpt lat="41.74939081902181" lon="12.991762689333619"><ele>223.0</ele><time>2026-03-26T15:09:14.999Z</time></trkpt><trkpt lat="41.74932512990813" lon="12.992114011065286"><ele>220.5</ele><time>2026-03-26T15:09:15.999Z</time></trkpt><trkpt lat="41.7492646526534" lon="12.992474563180037"><ele>218.0</ele><time>2026-03-26T15:09:16.999Z</time></trkpt><trkpt lat="41.74920889568795" lon="12.992843126391824"><ele>218.0</ele><time>2026-03-26T15:09:17.999Z</time></trkpt><trkpt lat="41.74915841999693" lon="12.993216594862036"><ele>218.0</ele><time>2026-03-26T15:09:18.999Z</time></trkpt><trkpt lat="41.74911391388581" lon="12.993592644547164"><ele>219.0</ele><time>2026-03-26T15:09:19.999Z</time></trkpt><trkpt lat="41.74907504594081" lon="12.993969044205938"><ele>220.0</ele><time>2026-03-26T15:09:20.999Z</time></trkpt><trkpt lat="41.74904310154208" lon="12.994343556659166"><ele>223.5</ele><time>2026-03-26T15:09:21.999Z</time></trkpt><trkpt lat="41.74901504968395" lon="12.994715165788875"><ele>227.0</ele><time>2026-03-26T15:09:22.999Z</time></trkpt><trkpt lat="41.74899290632269" lon="12.995086830384098"><ele>227.5</ele><time>2026-03-26T15:09:23.999Z</time></trkpt><trkpt lat="41.74897568138635" lon="12.995460925699643"><ele>228.0</ele><time>2026-03-26T15:09:24.999Z</time></trkpt><trkpt lat="41.74896218705275" lon="12.995834434421125"><ele>229.5</ele><time>2026-03-26T15:09:25.999Z</time></trkpt><trkpt lat="41.74895138718924" lon="12.996205528512395"><ele>231.0</ele><time>2026-03-26T15:09:26.999Z</time></trkpt><trkpt lat="41.74894221291716" lon="12.99657546764392"><ele>229.5</ele><time>2026-03-26T15:09:27.999Z</time></trkpt><trkpt lat="41.74893227895863" lon="12.996946150264733"><ele>228.0</ele><time>2026-03-26T15:09:28.999Z</time></trkpt><trkpt lat="41.74892455600352" lon="12.997317756459216"><ele>225.5</ele><time>2026-03-26T15:09:29.999Z</time></trkpt><trkpt lat="41.74891625479945" lon="12.997688656205465"><ele>223.0</ele><time>2026-03-26T15:09:30.999Z</time></trkpt><trkpt lat="41.748908728646704" lon="12.998060409905182"><ele>223.5</ele><time>2026-03-26T15:09:31.999Z</time></trkpt><trkpt lat="41.748901135880025" lon="12.998432614962923"><ele>224.0</ele><time>2026-03-26T15:09:32.999Z</time></trkpt><trkpt lat="41.748894123185806" lon="12.998803511554176"><ele>230.0</ele><time>2026-03-26T15:09:33.999Z</time></trkpt><trkpt lat="41.748889414463136" lon="12.999174263527951"><ele>236.0</ele><time>2026-03-26T15:09:34.999Z</time></trkpt><trkpt lat="41.7488826976491" lon="12.999545891868461"><ele>236.0</ele><time>2026-03-26T15:09:35.999Z</time></trkpt><trkpt lat="41.74888188688184" lon="12.999914161514571"><ele>236.0</ele><time>2026-03-26T15:09:36.999Z</time></trkpt><trkpt lat="41.748878370745636" lon="13.000283842847432"><ele>236.0</ele><time>2026-03-26T15:09:37.999Z</time></trkpt><trkpt lat="41.74887410287121" lon="13.000655613315715"><ele>236.0</ele><time>2026-03-26T15:09:38.999Z</time></trkpt><trkpt lat="41.748871791880106" lon="13.001026746887792"><ele>240.0</ele><time>2026-03-26T15:09:39.999Z</time></trkpt><trkpt lat="41.74886923437207" lon="13.00139877593998"><ele>244.0</ele><time>2026-03-26T15:09:40.999Z</time></trkpt><trkpt lat="41.74886811954686" lon="13.001771031596482"><ele>244.0</ele><time>2026-03-26T15:09:41.999Z</time></trkpt><trkpt lat="41.748866312376734" lon="13.002145799482928"><ele>244.0</ele><time>2026-03-26T15:09:42.999Z</time></trkpt><trkpt lat="41.74886321721191" lon="13.002519947909954"><ele>244.0</ele><time>2026-03-26T15:09:43.999Z</time></trkpt><trkpt lat="41.74885842859392" lon="13.00289464935082"><ele>244.0</ele><time>2026-03-26T15:09:44.999Z</time></trkpt><trkpt lat="41.748853906801905" lon="13.00327362602168"><ele>244.0</ele><time>2026-03-26T15:09:45.999Z</time></trkpt><trkpt lat="41.748852316091124" lon="13.003654916838146"><ele>244.0</ele><time>2026-03-26T15:09:46.999Z</time></trkpt><trkpt lat="41.748850942361635" lon="13.004039671442023"><ele>243.0</ele><time>2026-03-26T15:09:47.999Z</time></trkpt><trkpt lat="41.74884986354846" lon="13.004424641252575"><ele>242.0</ele><time>2026-03-26T15:09:48.999Z</time></trkpt><trkpt lat="41.7488467406163" lon="13.004812649297255"><ele>240.0</ele><time>2026-03-26T15:09:49.999Z</time></trkpt><trkpt lat="41.74884399740427" lon="13.005205114373812"><ele>238.0</ele><time>2026-03-26T15:09:50.999Z</time></trkpt><trkpt lat="41.74884083620116" lon="13.005600615137661"><ele>236.0</ele><time>2026-03-26T15:09:51.999Z</time></trkpt><trkpt lat="41.74883864494957" lon="13.005996796446624"><ele>234.0</ele><time>2026-03-26T15:09:52.999Z</time></trkpt><trkpt lat="41.74883595942171" lon="13.006396354322904"><ele>234.0</ele><time>2026-03-26T15:09:53.999Z</time></trkpt><trkpt lat="41.74883179087343" lon="13.006796452578905"><ele>234.0</ele><time>2026-03-26T15:09:54.999Z</time></trkpt><trkpt lat="41.74882574622374" lon="13.00719807842483"><ele>232.0</ele><time>2026-03-26T15:09:55.999Z</time></trkpt><trkpt lat="41.74881807929431" lon="13.007601473686998"><ele>230.0</ele><time>2026-03-26T15:09:56.999Z</time></trkpt><trkpt lat="41.748810890031564" lon="13.008003398554058"><ele>229.0</ele><time>2026-03-26T15:09:57.999Z</time></trkpt><trkpt lat="41.74880734322526" lon="13.008405899852173"><ele>228.0</ele><time>2026-03-26T15:09:58.999Z</time></trkpt><trkpt lat="41.74880706448717" lon="13.00880796931158"><ele>227.0</ele><time>2026-03-26T15:09:59.999Z</time></trkpt><trkpt lat="41.748806741578164" lon="13.00921043621363"><ele>226.0</ele><time>2026-03-26T15:10:00.999Z</time></trkpt><trkpt lat="41.74880533776387" lon="13.009614929207522"><ele>224.5</ele><time>2026-03-26T15:10:01.999Z</time></trkpt><trkpt lat="41.748801555626066" lon="13.010017561067574"><ele>223.0</ele><time>2026-03-26T15:10:02.999Z</time></trkpt><trkpt lat="41.74879861208491" lon="13.010420065435339"><ele>223.0</ele><time>2026-03-26T15:10:03.999Z</time></trkpt><trkpt lat="41.748794954118274" lon="13.010823611921785"><ele>223.0</ele><time>2026-03-26T15:10:04.999Z</time></trkpt><trkpt lat="41.74879035447825" lon="13.011227391027449"><ele>222.0</ele><time>2026-03-26T15:10:05.999Z</time></trkpt><trkpt lat="41.748786815010746" lon="13.011632605502726"><ele>221.0</ele><time>2026-03-26T15:10:06.999Z</time></trkpt><trkpt lat="41.748784734718846" lon="13.012036630873185"><ele>221.0</ele><time>2026-03-26T15:10:07.999Z</time></trkpt><trkpt lat="41.74878218408976" lon="13.012437398712008"><ele>221.0</ele><time>2026-03-26T15:10:08.999Z</time></trkpt><trkpt lat="41.74878057392827" lon="13.012837734084526"><ele>223.0</ele><time>2026-03-26T15:10:09.999Z</time></trkpt><trkpt lat="41.74877934732024" lon="13.013236588458437"><ele>225.0</ele><time>2026-03-26T15:10:10.999Z</time></trkpt><trkpt lat="41.74877918767842" lon="13.013634386649747"><ele>226.5</ele><time>2026-03-26T15:10:11.999Z</time></trkpt><trkpt lat="41.748776196396065" lon="13.014030449765112"><ele>228.0</ele><time>2026-03-26T15:10:12.999Z</time></trkpt><trkpt lat="41.748773361351205" lon="13.014423441261412"><ele>229.0</ele><time>2026-03-26T15:10:13.999Z</time></trkpt><trkpt lat="41.748767906132144" lon="13.014814609429006"><ele>230.0</ele><time>2026-03-26T15:10:14.999Z</time></trkpt><trkpt lat="41.74876426206204" lon="13.015207822784413"><ele>227.5</ele><time>2026-03-26T15:10:15.999Z</time></trkpt><trkpt lat="41.74876252573978" lon="13.015601309979427"><ele>225.0</ele><time>2026-03-26T15:10:16.999Z</time></trkpt><trkpt lat="41.748760994094525" lon="13.015995077135893"><ele>221.5</ele><time>2026-03-26T15:10:17.999Z</time></trkpt><trkpt lat="41.74875969129915" lon="13.016384722400177"><ele>218.0</ele><time>2026-03-26T15:10:18.999Z</time></trkpt><trkpt lat="41.74875729682579" lon="13.016775463751998"><ele>217.5</ele><time>2026-03-26T15:10:19.999Z</time></trkpt><trkpt lat="41.74875460379658" lon="13.017165311389453"><ele>217.0</ele><time>2026-03-26T15:10:20.999Z</time></trkpt><trkpt lat="41.748750537132146" lon="13.017554468496561"><ele>217.0</ele><time>2026-03-26T15:10:21.999Z</time></trkpt><trkpt lat="41.7487449208938" lon="13.017940389880996"><ele>217.0</ele><time>2026-03-26T15:10:22.999Z</time></trkpt><trkpt lat="41.748737606169335" lon="13.018325623201328"><ele>221.0</ele><time>2026-03-26T15:10:23.999Z</time></trkpt><trkpt lat="41.74873380885423" lon="13.018711707338678"><ele>225.0</ele><time>2026-03-26T15:10:24.999Z</time></trkpt><trkpt lat="41.74873102454572" lon="13.019097339058678"><ele>228.5</ele><time>2026-03-26T15:10:25.999Z</time></trkpt><trkpt lat="41.74872885159426" lon="13.019484794274668"><ele>232.0</ele><time>2026-03-26T15:10:26.999Z</time></trkpt><trkpt lat="41.74872769226552" lon="13.019875107291746"><ele>235.0</ele><time>2026-03-26T15:10:27.999Z</time></trkpt><trkpt lat="41.748726862109656" lon="13.020264767773696"><ele>238.0</ele><time>2026-03-26T15:10:28.999Z</time></trkpt><trkpt lat="41.748725683107004" lon="13.020651230106832"><ele>240.5</ele><time>2026-03-26T15:10:29.999Z</time></trkpt><trkpt lat="41.74872536985784" lon="13.021036571581272"><ele>243.0</ele><time>2026-03-26T15:10:30.999Z</time></trkpt><trkpt lat="41.748724229577476" lon="13.02141988620033"><ele>243.0</ele><time>2026-03-26T15:10:31.999Z</time></trkpt><trkpt lat="41.748721647521904" lon="13.021808349646879"><ele>243.0</ele><time>2026-03-26T15:10:32.999Z</time></trkpt><trkpt lat="41.74871058570821" lon="13.022196791850366"><ele>243.0</ele><time>2026-03-26T15:10:33.999Z</time></trkpt><trkpt lat="41.7487097837587" lon="13.022594081696331"><ele>243.0</ele><time>2026-03-26T15:10:34.999Z</time></trkpt><trkpt lat="41.74870579370955" lon="13.022987119205801"><ele>244.5</ele><time>2026-03-26T15:10:35.998Z</time></trkpt><trkpt lat="41.748703036389024" lon="13.023381331083446"><ele>246.0</ele><time>2026-03-26T15:10:36.998Z</time></trkpt><trkpt lat="41.74870225314105" lon="13.023766157842774"><ele>246.0</ele><time>2026-03-26T15:10:37.998Z</time></trkpt><trkpt lat="41.74870219442227" lon="13.02413750057803"><ele>246.0</ele><time>2026-03-26T15:10:38.998Z</time></trkpt><trkpt lat="41.748699758092584" lon="13.024508387948586"><ele>245.5</ele><time>2026-03-26T15:10:39.998Z</time></trkpt><trkpt lat="41.74869628829444" lon="13.024877830787462"><ele>245.0</ele><time>2026-03-26T15:10:40.998Z</time></trkpt><trkpt lat="41.748695319678696" lon="13.02524905082539"><ele>245.0</ele><time>2026-03-26T15:10:41.998Z</time></trkpt><trkpt lat="41.748693708256305" lon="13.025617220850291"><ele>245.0</ele><time>2026-03-26T15:10:42.998Z</time></trkpt><trkpt lat="41.7486916974475" lon="13.02597665871485"><ele>245.0</ele><time>2026-03-26T15:10:43.998Z</time></trkpt><trkpt lat="41.74868793807342" lon="13.026318308771934"><ele>245.0</ele><time>2026-03-26T15:10:44.998Z</time></trkpt><trkpt lat="41.7486836197331" lon="13.026644763815966"><ele>243.5</ele><time>2026-03-26T15:10:45.998Z</time></trkpt><trkpt lat="41.74868286323799" lon="13.026969914620278"><ele>242.0</ele><time>2026-03-26T15:10:46.998Z</time></trkpt><trkpt lat="41.74867974613456" lon="13.02729781451017"><ele>239.0</ele><time>2026-03-26T15:10:47.998Z</time></trkpt><trkpt lat="41.74867828192747" lon="13.0276282550261"><ele>236.0</ele><time>2026-03-26T15:10:48.998Z</time></trkpt><trkpt lat="41.74867800748338" lon="13.027961311018165"><ele>236.0</ele><time>2026-03-26T15:10:49.998Z</time></trkpt><trkpt lat="41.74867703722835" lon="13.028297820794808"><ele>236.0</ele><time>2026-03-26T15:10:50.998Z</time></trkpt><trkpt lat="41.748673926332685" lon="13.028640149262065"><ele>235.5</ele><time>2026-03-26T15:10:51.998Z</time></trkpt><trkpt lat="41.74867171343889" lon="13.028987675806869"><ele>235.0</ele><time>2026-03-26T15:10:52.998Z</time></trkpt><trkpt lat="41.74867204601619" lon="13.029339805315692"><ele>237.0</ele><time>2026-03-26T15:10:53.998Z</time></trkpt><trkpt lat="41.74867312982466" lon="13.029696466982262"><ele>239.0</ele><time>2026-03-26T15:10:54.998Z</time></trkpt><trkpt lat="41.74867483701354" lon="13.030057807603711"><ele>239.5</ele><time>2026-03-26T15:10:55.998Z</time></trkpt><trkpt lat="41.74867471221344" lon="13.030421364219126"><ele>240.0</ele><time>2026-03-26T15:10:56.998Z</time></trkpt><trkpt lat="41.74867491472741" lon="13.030784521666844"><ele>239.5</ele><time>2026-03-26T15:10:57.998Z</time></trkpt><trkpt lat="41.7486735362523" lon="13.031131928711199"><ele>239.0</ele><time>2026-03-26T15:10:58.998Z</time></trkpt><trkpt lat="41.74867137006305" lon="13.03147335639492"><ele>238.5</ele><time>2026-03-26T15:10:59.998Z</time></trkpt><trkpt lat="41.74867068837145" lon="13.031821971131526"><ele>238.0</ele><time>2026-03-26T15:11:00.998Z</time></trkpt><trkpt lat="41.74866940594758" lon="13.032172813906227"><ele>236.0</ele><time>2026-03-26T15:11:02Z</time></trkpt><trkpt lat="41.74866865271844" lon="13.032529956597664"><ele>234.0</ele><time>2026-03-26T15:11:03Z</time></trkpt><trkpt lat="41.748666815406494" lon="13.032892526125057"><ele>234.0</ele><time>2026-03-26T15:11:04Z</time></trkpt><trkpt lat="41.74866397606714" lon="13.033257600872107"><ele>234.0</ele><time>2026-03-26T15:11:05Z</time></trkpt><trkpt lat="41.74865972396675" lon="13.033616643597336"><ele>233.5</ele><time>2026-03-26T15:11:06Z</time></trkpt><trkpt lat="41.74865751482261" lon="13.03396549104432"><ele>233.0</ele><time>2026-03-26T15:11:07Z</time></trkpt><trkpt lat="41.748656231581435" lon="13.034316704981572"><ele>232.0</ele><time>2026-03-26T15:11:08Z</time></trkpt><trkpt lat="41.74865576691426" lon="13.034665165500133"><ele>231.0</ele><time>2026-03-26T15:11:09Z</time></trkpt><trkpt lat="41.74865423692327" lon="13.035007595479032"><ele>231.0</ele><time>2026-03-26T15:11:10Z</time></trkpt><trkpt lat="41.74865002075048" lon="13.035345250953258"><ele>231.0</ele><time>2026-03-26T15:11:11Z</time></trkpt><trkpt lat="41.74864386947005" lon="13.035684873621115"><ele>230.5</ele><time>2026-03-26T15:11:12Z</time></trkpt><trkpt lat="41.748637431849964" lon="13.036029784290903"><ele>230.0</ele><time>2026-03-26T15:11:13Z</time></trkpt><trkpt lat="41.748630549417" lon="13.036373808702992"><ele>229.0</ele><time>2026-03-26T15:11:14Z</time></trkpt><trkpt lat="41.74862513408466" lon="13.036718845411267"><ele>228.0</ele><time>2026-03-26T15:11:15Z</time></trkpt><trkpt lat="41.748623398883936" lon="13.037057058166102"><ele>228.0</ele><time>2026-03-26T15:11:15.999Z</time></trkpt><trkpt lat="41.74862300267866" lon="13.037385991592373"><ele>228.0</ele><time>2026-03-26T15:11:16.999Z</time></trkpt><trkpt lat="41.748621123261984" lon="13.037706192995604"><ele>226.5</ele><time>2026-03-26T15:11:17.999Z</time></trkpt><trkpt lat="41.74861867074637" lon="13.038023302412016"><ele>225.0</ele><time>2026-03-26T15:11:18.999Z</time></trkpt><trkpt lat="41.74861519369252" lon="13.038342277987097"><ele>225.0</ele><time>2026-03-26T15:11:19.999Z</time></trkpt><trkpt lat="41.74861136007326" lon="13.038663999452659"><ele>225.0</ele><time>2026-03-26T15:11:20.999Z</time></trkpt><trkpt lat="41.748609130566415" lon="13.038989823322416"><ele>223.0</ele><time>2026-03-26T15:11:21.999Z</time></trkpt><trkpt lat="41.74860728921105" lon="13.039322287674086"><ele>221.0</ele><time>2026-03-26T15:11:22.999Z</time></trkpt><trkpt lat="41.748604422801186" lon="13.03965669426745"><ele>218.5</ele><time>2026-03-26T15:11:23.999Z</time></trkpt><trkpt lat="41.74860145105335" lon="13.039994034524776"><ele>216.0</ele><time>2026-03-26T15:11:24.999Z</time></trkpt><trkpt lat="41.748599167929136" lon="13.040333877372989"><ele>216.0</ele><time>2026-03-26T15:11:25.999Z</time></trkpt><trkpt lat="41.74859716914059" lon="13.040671962804119"><ele>216.0</ele><time>2026-03-26T15:11:26.999Z</time></trkpt><trkpt lat="41.748598833538765" lon="13.041010125542577"><ele>213.5</ele><time>2026-03-26T15:11:27.999Z</time></trkpt><trkpt lat="41.74859741395386" lon="13.04135354264865"><ele>211.0</ele><time>2026-03-26T15:11:28.999Z</time></trkpt><trkpt lat="41.74859527005942" lon="13.041696664867594"><ele>208.0</ele><time>2026-03-26T15:11:29.999Z</time></trkpt><trkpt lat="41.74859357277715" lon="13.042042460740362"><ele>205.0</ele><time>2026-03-26T15:11:30.999Z</time></trkpt><trkpt lat="41.74859163297247" lon="13.042389957503833"><ele>204.5</ele><time>2026-03-26T15:11:31.999Z</time></trkpt><trkpt lat="41.74858985970991" lon="13.042738693041002"><ele>204.0</ele><time>2026-03-26T15:11:32.999Z</time></trkpt><trkpt lat="41.74858937223936" lon="13.043087273744819"><ele>205.0</ele><time>2026-03-26T15:11:33.999Z</time></trkpt><trkpt lat="41.74858720652425" lon="13.043437735389174"><ele>206.0</ele><time>2026-03-26T15:11:34.999Z</time></trkpt><trkpt lat="41.74858546501315" lon="13.043787939018387"><ele>205.5</ele><time>2026-03-26T15:11:35.999Z</time></trkpt><trkpt lat="41.748582652304925" lon="13.044140006553866"><ele>205.0</ele><time>2026-03-26T15:11:36.999Z</time></trkpt><trkpt lat="41.74858068913405" lon="13.044492951171089"><ele>205.0</ele><time>2026-03-26T15:11:37.999Z</time></trkpt><trkpt lat="41.74857831055285" lon="13.044846133072847"><ele>205.0</ele><time>2026-03-26T15:11:38.999Z</time></trkpt><trkpt lat="41.74857640793248" lon="13.04520163284567"><ele>205.0</ele><time>2026-03-26T15:11:39.999Z</time></trkpt><trkpt lat="41.74857357917601" lon="13.045559006431853"><ele>205.0</ele><time>2026-03-26T15:11:40.999Z</time></trkpt><trkpt lat="41.74857032094318" lon="13.045917815527966"><ele>205.0</ele><time>2026-03-26T15:11:41.999Z</time></trkpt><trkpt lat="41.7485690390223" lon="13.04627540673671"><ele>205.0</ele><time>2026-03-26T15:11:42.999Z</time></trkpt><trkpt lat="41.748564750241485" lon="13.04663419884364"><ele>205.0</ele><time>2026-03-26T15:11:43.999Z</time></trkpt><trkpt lat="41.7485596426475" lon="13.046994821400453"><ele>205.0</ele><time>2026-03-26T15:11:44.999Z</time></trkpt><trkpt lat="41.74855621758109" lon="13.047357457132005"><ele>205.5</ele><time>2026-03-26T15:11:45.999Z</time></trkpt><trkpt lat="41.74855206568053" lon="13.047721666046417"><ele>206.0</ele><time>2026-03-26T15:11:46.999Z</time></trkpt><trkpt lat="41.748549352191276" lon="13.048086726705534"><ele>207.0</ele><time>2026-03-26T15:11:47.999Z</time></trkpt><trkpt lat="41.74854680668787" lon="13.048454361745362"><ele>208.0</ele><time>2026-03-26T15:11:48.999Z</time></trkpt><trkpt lat="41.748542672242024" lon="13.048817432013035"><ele>205.0</ele><time>2026-03-26T15:11:49.999Z</time></trkpt><trkpt lat="41.74853956497076" lon="13.04917607576114"><ele>202.0</ele><time>2026-03-26T15:11:50.999Z</time></trkpt><trkpt lat="41.748537524714415" lon="13.04953016628469"><ele>202.0</ele><time>2026-03-26T15:11:51.999Z</time></trkpt><trkpt lat="41.74853465384614" lon="13.049884385715401"><ele>202.0</ele><time>2026-03-26T15:11:52.999Z</time></trkpt><trkpt lat="41.748532352589585" lon="13.05023754263414"><ele>202.0</ele><time>2026-03-26T15:11:53.999Z</time></trkpt><trkpt lat="41.74853100063445" lon="13.050591431147943"><ele>202.0</ele><time>2026-03-26T15:11:54.999Z</time></trkpt><trkpt lat="41.74852863251285" lon="13.050945219529606"><ele>202.0</ele><time>2026-03-26T15:11:55.999Z</time></trkpt><trkpt lat="41.748525945352974" lon="13.051303469829723"><ele>202.0</ele><time>2026-03-26T15:11:56.999Z</time></trkpt><trkpt lat="41.74852291787635" lon="13.05166482340005"><ele>202.0</ele><time>2026-03-26T15:11:57.999Z</time></trkpt><trkpt lat="41.74851946042016" lon="13.052029499256538"><ele>202.0</ele><time>2026-03-26T15:11:58.999Z</time></trkpt><trkpt lat="41.74851675652946" lon="13.05239658692676"><ele>201.5</ele><time>2026-03-26T15:11:59.999Z</time></trkpt><trkpt lat="41.748512420508895" lon="13.052762725647675"><ele>201.0</ele><time>2026-03-26T15:12:00.999Z</time></trkpt><trkpt lat="41.74850993784612" lon="13.053120615933517"><ele>200.5</ele><time>2026-03-26T15:12:01.999Z</time></trkpt><trkpt lat="41.748507306168335" lon="13.053477707811583"><ele>200.0</ele><time>2026-03-26T15:12:02.999Z</time></trkpt><trkpt lat="41.748502426034285" lon="13.053834126792262"><ele>200.5</ele><time>2026-03-26T15:12:03.999Z</time></trkpt><trkpt lat="41.74849956892208" lon="13.054183115308057"><ele>201.0</ele><time>2026-03-26T15:12:04.999Z</time></trkpt><trkpt lat="41.748495884031236" lon="13.054536357070788"><ele>201.0</ele><time>2026-03-26T15:12:05.999Z</time></trkpt><trkpt lat="41.74848695569017" lon="13.05489142352098"><ele>201.0</ele><time>2026-03-26T15:12:06.999Z</time></trkpt><trkpt lat="41.74847651079615" lon="13.055250054248171"><ele>201.0</ele><time>2026-03-26T15:12:07.999Z</time></trkpt><trkpt lat="41.74846403432679" lon="13.055606250189923"><ele>201.0</ele><time>2026-03-26T15:12:08.999Z</time></trkpt><trkpt lat="41.74845422163008" lon="13.055949787773644"><ele>201.0</ele><time>2026-03-26T15:12:09.999Z</time></trkpt><trkpt lat="41.748447206270384" lon="13.056282849649461"><ele>201.0</ele><time>2026-03-26T15:12:10.999Z</time></trkpt><trkpt lat="41.74844319167402" lon="13.056615180877563"><ele>200.0</ele><time>2026-03-26T15:12:11.999Z</time></trkpt><trkpt lat="41.748440221055716" lon="13.056944278113454"><ele>199.0</ele><time>2026-03-26T15:12:12.999Z</time></trkpt><trkpt lat="41.74843776189362" lon="13.0572683203139"><ele>199.5</ele><time>2026-03-26T15:12:13.999Z</time></trkpt><trkpt lat="41.74843643403071" lon="13.057593097733687"><ele>200.0</ele><time>2026-03-26T15:12:14.999Z</time></trkpt><trkpt lat="41.748432019010956" lon="13.05791618740291"><ele>200.0</ele><time>2026-03-26T15:12:15.999Z</time></trkpt><trkpt lat="41.748425229086344" lon="13.05823880972364"><ele>200.0</ele><time>2026-03-26T15:12:16.999Z</time></trkpt><trkpt lat="41.74841247200727" lon="13.058557509446361"><ele>201.0</ele><time>2026-03-26T15:12:17.999Z</time></trkpt><trkpt lat="41.74839429778183" lon="13.058878828598848"><ele>202.0</ele><time>2026-03-26T15:12:18.999Z</time></trkpt><trkpt lat="41.74836914407551" lon="13.05919260962467"><ele>202.0</ele><time>2026-03-26T15:12:19.999Z</time></trkpt><trkpt lat="41.74833825679247" lon="13.059494553749806"><ele>202.0</ele><time>2026-03-26T15:12:20.999Z</time></trkpt><trkpt lat="41.748298792717776" lon="13.059795576044978"><ele>201.5</ele><time>2026-03-26T15:12:21.999Z</time></trkpt><trkpt lat="41.74825350551923" lon="13.06009555730748"><ele>201.0</ele><time>2026-03-26T15:12:22.999Z</time></trkpt><trkpt lat="41.7482029549576" lon="13.060394867036404"><ele>201.0</ele><time>2026-03-26T15:12:23.999Z</time></trkpt><trkpt lat="41.748149158800835" lon="13.060696654257812"><ele>201.0</ele><time>2026-03-26T15:12:24.999Z</time></trkpt><trkpt lat="41.748091409122736" lon="13.060994175035356"><ele>201.0</ele><time>2026-03-26T15:12:25.999Z</time></trkpt><trkpt lat="41.74802457343772" lon="13.061297489453962"><ele>201.0</ele><time>2026-03-26T15:12:26.999Z</time></trkpt><trkpt lat="41.74795119101461" lon="13.061604494409341"><ele>202.0</ele><time>2026-03-26T15:12:27.999Z</time></trkpt><trkpt lat="41.74786921593835" lon="13.061913210259215"><ele>203.0</ele><time>2026-03-26T15:12:28.999Z</time></trkpt><trkpt lat="41.74777903829185" lon="13.062224210477108"><ele>203.0</ele><time>2026-03-26T15:12:29.999Z</time></trkpt><trkpt lat="41.74768152983524" lon="13.06253662003362"><ele>203.0</ele><time>2026-03-26T15:12:30.999Z</time></trkpt><trkpt lat="41.7475760009222" lon="13.062843577000281"><ele>203.0</ele><time>2026-03-26T15:12:31.999Z</time></trkpt><trkpt lat="41.74746339012988" lon="13.06314624762241"><ele>203.0</ele><time>2026-03-26T15:12:32.999Z</time></trkpt><trkpt lat="41.74734225363992" lon="13.063447670698364"><ele>205.0</ele><time>2026-03-26T15:12:33.999Z</time></trkpt><trkpt lat="41.74721737951242" lon="13.063747172221408"><ele>207.0</ele><time>2026-03-26T15:12:34.999Z</time></trkpt><trkpt lat="41.747089946311604" lon="13.064037133225707"><ele>208.0</ele><time>2026-03-26T15:12:35.999Z</time></trkpt><trkpt lat="41.746960155799755" lon="13.064316565076151"><ele>209.0</ele><time>2026-03-26T15:12:36.999Z</time></trkpt><trkpt lat="41.74682773809128" lon="13.064587745260546"><ele>205.0</ele><time>2026-03-26T15:12:37.999Z</time></trkpt><trkpt lat="41.746695496986916" lon="13.064855898347396"><ele>201.0</ele><time>2026-03-26T15:12:38.999Z</time></trkpt><trkpt lat="41.74656343360702" lon="13.065127347795665"><ele>201.0</ele><time>2026-03-26T15:12:39.999Z</time></trkpt><trkpt lat="41.74643093637653" lon="13.065403406457278"><ele>201.0</ele><time>2026-03-26T15:12:40.999Z</time></trkpt><trkpt lat="41.746297215107894" lon="13.065682193627753"><ele>201.0</ele><time>2026-03-26T15:12:41.999Z</time></trkpt><trkpt lat="41.74616181662559" lon="13.065962840180552"><ele>201.0</ele><time>2026-03-26T15:12:42.999Z</time></trkpt><trkpt lat="41.74602533607461" lon="13.06624500087421"><ele>201.0</ele><time>2026-03-26T15:12:43.999Z</time></trkpt><trkpt lat="41.74588958744949" lon="13.06652714496681"><ele>201.0</ele><time>2026-03-26T15:12:44.999Z</time></trkpt><trkpt lat="41.745753830820824" lon="13.066809182245201"><ele>203.0</ele><time>2026-03-26T15:12:45.999Z</time></trkpt><trkpt lat="41.74561791046076" lon="13.06708818106615"><ele>205.0</ele><time>2026-03-26T15:12:46.999Z</time></trkpt><trkpt lat="41.74548276408114" lon="13.067370379096731"><ele>208.0</ele><time>2026-03-26T15:12:47.999Z</time></trkpt><trkpt lat="41.74534797974581" lon="13.067655175955453"><ele>211.0</ele><time>2026-03-26T15:12:48.999Z</time></trkpt><trkpt lat="41.74521264087103" lon="13.067940824236931"><ele>213.5</ele><time>2026-03-26T15:12:49.998Z</time></trkpt><trkpt lat="41.74507445755406" lon="13.068229767836062"><ele>216.0</ele><time>2026-03-26T15:12:50.998Z</time></trkpt><trkpt lat="41.74493414775497" lon="13.068518884984583"><ele>218.0</ele><time>2026-03-26T15:12:51.998Z</time></trkpt><trkpt lat="41.74479371573656" lon="13.068810928374699"><ele>220.0</ele><time>2026-03-26T15:12:52.998Z</time></trkpt><trkpt lat="41.74465140951634" lon="13.069104197440543"><ele>222.5</ele><time>2026-03-26T15:12:53.998Z</time></trkpt><trkpt lat="41.74450656169362" lon="13.069398560584096"><ele>225.0</ele><time>2026-03-26T15:12:54.998Z</time></trkpt><trkpt lat="41.744358251137214" lon="13.069692790076715"><ele>227.0</ele><time>2026-03-26T15:12:55.998Z</time></trkpt><trkpt lat="41.74420795647312" lon="13.069987788343285"><ele>229.0</ele><time>2026-03-26T15:12:56.998Z</time></trkpt><trkpt lat="41.74405567406609" lon="13.070278632936509"><ele>229.0</ele><time>2026-03-26T15:12:57.998Z</time></trkpt><trkpt lat="41.74390376631767" lon="13.070568201149872"><ele>229.0</ele><time>2026-03-26T15:12:58.998Z</time></trkpt><trkpt lat="41.743754701135735" lon="13.070854739278419"><ele>229.5</ele><time>2026-03-26T15:12:59.998Z</time></trkpt><trkpt lat="41.74361125786168" lon="13.071140403425176"><ele>230.0</ele><time>2026-03-26T15:13:00.998Z</time></trkpt><trkpt lat="41.74347100193192" lon="13.071428243477472"><ele>228.0</ele><time>2026-03-26T15:13:01.998Z</time></trkpt><trkpt lat="41.7433301552178" lon="13.07171728873493"><ele>226.0</ele><time>2026-03-26T15:13:02.998Z</time></trkpt><trkpt lat="41.74318820643089" lon="13.072010119295769"><ele>226.0</ele><time>2026-03-26T15:13:03.998Z</time></trkpt><trkpt lat="41.74304686565926" lon="13.072299361068408"><ele>226.0</ele><time>2026-03-26T15:13:04.998Z</time></trkpt><trkpt lat="41.74290877232682" lon="13.072582848890683"><ele>225.5</ele><time>2026-03-26T15:13:05.998Z</time></trkpt><trkpt lat="41.74277276977482" lon="13.072864063550474"><ele>225.0</ele><time>2026-03-26T15:13:06.998Z</time></trkpt><trkpt lat="41.7426370622154" lon="13.073139315575721"><ele>225.0</ele><time>2026-03-26T15:13:08Z</time></trkpt><trkpt lat="41.74250043015774" lon="13.073414919336562"><ele>225.0</ele><time>2026-03-26T15:13:09Z</time></trkpt><trkpt lat="41.742366221102195" lon="13.073690896030557"><ele>225.0</ele><time>2026-03-26T15:13:10Z</time></trkpt><trkpt lat="41.742230100995116" lon="13.073970951766304"><ele>225.0</ele><time>2026-03-26T15:13:11Z</time></trkpt><trkpt lat="41.742092860226116" lon="13.074253417246775"><ele>227.5</ele><time>2026-03-26T15:13:12Z</time></trkpt><trkpt lat="41.74195346744335" lon="13.074540811457725"><ele>230.0</ele><time>2026-03-26T15:13:13Z</time></trkpt><trkpt lat="41.74181253384321" lon="13.074834250244665"><ele>230.0</ele><time>2026-03-26T15:13:14Z</time></trkpt><trkpt lat="41.7416686089765" lon="13.075133265782643"><ele>230.0</ele><time>2026-03-26T15:13:15Z</time></trkpt><trkpt lat="41.741522828448616" lon="13.075434135213941"><ele>230.0</ele><time>2026-03-26T15:13:16Z</time></trkpt><trkpt lat="41.74137503446555" lon="13.075738545440439"><ele>230.0</ele><time>2026-03-26T15:13:17Z</time></trkpt><trkpt lat="41.741228174279065" lon="13.076047346936804"><ele>230.5</ele><time>2026-03-26T15:13:18Z</time></trkpt><trkpt lat="41.741082749432145" lon="13.07635599269475"><ele>231.0</ele><time>2026-03-26T15:13:19Z</time></trkpt><trkpt lat="41.74093348962652" lon="13.076667272576259"><ele>228.0</ele><time>2026-03-26T15:13:20Z</time></trkpt><trkpt lat="41.740786871293615" lon="13.076976463224975"><ele>225.0</ele><time>2026-03-26T15:13:21Z</time></trkpt><trkpt lat="41.74064565365894" lon="13.077275039287382"><ele>223.0</ele><time>2026-03-26T15:13:22Z</time></trkpt><trkpt lat="41.740508741963154" lon="13.077563086218213"><ele>221.0</ele><time>2026-03-26T15:13:23Z</time></trkpt><trkpt lat="41.740373056217535" lon="13.077840308402084"><ele>221.0</ele><time>2026-03-26T15:13:24Z</time></trkpt><trkpt lat="41.740242215534934" lon="13.078108939537108"><ele>221.0</ele><time>2026-03-26T15:13:25Z</time></trkpt><trkpt lat="41.74011505425676" lon="13.078367326469955"><ele>220.33333333333334</ele><time>2026-03-26T15:13:26Z</time></trkpt><trkpt lat="41.739993218108935" lon="13.078619272486764"><ele>219.66666666666669</ele><time>2026-03-26T15:13:26.999Z</time></trkpt><trkpt lat="41.739874293357616" lon="13.078867343154172"><ele>219.0</ele><time>2026-03-26T15:13:27.999Z</time></trkpt><trkpt lat="41.73975607173538" lon="13.079119409875718"><ele>214.5</ele><time>2026-03-26T15:13:28.999Z</time></trkpt><trkpt lat="41.739634563278095" lon="13.079375114240076"><ele>210.0</ele><time>2026-03-26T15:13:29.999Z</time></trkpt><trkpt lat="41.739511422496385" lon="13.079629633832552"><ele>210.0</ele><time>2026-03-26T15:13:30.999Z</time></trkpt><trkpt lat="41.73939070311906" lon="13.079879477757899"><ele>210.0</ele><time>2026-03-26T15:13:31.999Z</time></trkpt><trkpt lat="41.73926810471673" lon="13.080135111030506"><ele>210.0</ele><time>2026-03-26T15:13:32.999Z</time></trkpt><trkpt lat="41.73914598686745" lon="13.080399811564433"><ele>208.0</ele><time>2026-03-26T15:13:33.999Z</time></trkpt><trkpt lat="41.739019232132414" lon="13.08066939801738"><ele>206.0</ele><time>2026-03-26T15:13:34.999Z</time></trkpt><trkpt lat="41.73888613527769" lon="13.080940830339108"><ele>201.5</ele><time>2026-03-26T15:13:35.999Z</time></trkpt><trkpt lat="41.73875253665623" lon="13.081214051354058"><ele>197.0</ele><time>2026-03-26T15:13:36.999Z</time></trkpt><trkpt lat="41.738619724528384" lon="13.08148707510987"><ele>195.0</ele><time>2026-03-26T15:13:37.999Z</time></trkpt><trkpt lat="41.73849270548809" lon="13.08175022934419"><ele>193.0</ele><time>2026-03-26T15:13:38.999Z</time></trkpt><trkpt lat="41.73836957827236" lon="13.082011537878932"><ele>193.0</ele><time>2026-03-26T15:13:39.999Z</time></trkpt><trkpt lat="41.73824518879352" lon="13.082281848836168"><ele>193.0</ele><time>2026-03-26T15:13:40.999Z</time></trkpt><trkpt lat="41.73811859605964" lon="13.082557608650255"><ele>192.0</ele><time>2026-03-26T15:13:41.999Z</time></trkpt><trkpt lat="41.73799361109143" lon="13.082838303197788"><ele>191.0</ele><time>2026-03-26T15:13:42.999Z</time></trkpt><trkpt lat="41.73786138714483" lon="13.083120880775056"><ele>191.5</ele><time>2026-03-26T15:13:43.999Z</time></trkpt><trkpt lat="41.737729012874404" lon="13.083407251828435"><ele>192.0</ele><time>2026-03-26T15:13:44.999Z</time></trkpt><trkpt lat="41.737589348956575" lon="13.083697072384767"><ele>192.5</ele><time>2026-03-26T15:13:45.999Z</time></trkpt><trkpt lat="41.73744451025077" lon="13.083988775024917"><ele>193.0</ele><time>2026-03-26T15:13:46.999Z</time></trkpt><trkpt lat="41.737301060682924" lon="13.084289623942269"><ele>194.5</ele><time>2026-03-26T15:13:47.999Z</time></trkpt><trkpt lat="41.73715454007659" lon="13.084593797363066"><ele>196.0</ele><time>2026-03-26T15:13:48.999Z</time></trkpt><trkpt lat="41.73700704144879" lon="13.084900561816829"><ele>198.5</ele><time>2026-03-26T15:13:49.999Z</time></trkpt><trkpt lat="41.736857392188774" lon="13.085208863667624"><ele>201.0</ele><time>2026-03-26T15:13:50.999Z</time></trkpt><trkpt lat="41.73670658435542" lon="13.085519791853796"><ele>201.5</ele><time>2026-03-26T15:13:51.999Z</time></trkpt><trkpt lat="41.736554717497974" lon="13.085834410013453"><ele>202.0</ele><time>2026-03-26T15:13:52.999Z</time></trkpt><trkpt lat="41.736401637437005" lon="13.086149137122762"><ele>202.0</ele><time>2026-03-26T15:13:53.999Z</time></trkpt><trkpt lat="41.73624537947592" lon="13.08646156570855"><ele>202.0</ele><time>2026-03-26T15:13:54.999Z</time></trkpt><trkpt lat="41.736084786502666" lon="13.086773664848586"><ele>199.5</ele><time>2026-03-26T15:13:55.999Z</time></trkpt><trkpt lat="41.73592485117061" lon="13.087083067021373"><ele>197.0</ele><time>2026-03-26T15:13:56.999Z</time></trkpt><trkpt lat="41.735763740513825" lon="13.087394819439204"><ele>197.5</ele><time>2026-03-26T15:13:57.999Z</time></trkpt><trkpt lat="41.735602281263944" lon="13.08770900875318"><ele>198.0</ele><time>2026-03-26T15:13:58.999Z</time></trkpt><trkpt lat="41.73544523636924" lon="13.088022752143615"><ele>197.5</ele><time>2026-03-26T15:13:59.999Z</time></trkpt><trkpt lat="41.73529332378509" lon="13.08833495337467"><ele>197.0</ele><time>2026-03-26T15:14:00.999Z</time></trkpt><trkpt lat="41.735143380852634" lon="13.08864291785769"><ele>197.0</ele><time>2026-03-26T15:14:01.999Z</time></trkpt><trkpt lat="41.734995025646114" lon="13.088948187245594"><ele>197.0</ele><time>2026-03-26T15:14:02.999Z</time></trkpt><trkpt lat="41.734850559436005" lon="13.089246287909043"><ele>197.5</ele><time>2026-03-26T15:14:03.999Z</time></trkpt><trkpt lat="41.73470841057178" lon="13.089539046603953"><ele>198.0</ele><time>2026-03-26T15:14:04.999Z</time></trkpt><trkpt lat="41.73456830885618" lon="13.08982376886726"><ele>197.0</ele><time>2026-03-26T15:14:05.999Z</time></trkpt><trkpt lat="41.73443014678934" lon="13.090104925709962"><ele>196.0</ele><time>2026-03-26T15:14:06.999Z</time></trkpt><trkpt lat="41.73429415214063" lon="13.090381930899925"><ele>198.0</ele><time>2026-03-26T15:14:07.999Z</time></trkpt><trkpt lat="41.73415744562316" lon="13.090656073975211"><ele>200.0</ele><time>2026-03-26T15:14:08.999Z</time></trkpt><trkpt lat="41.734022421670105" lon="13.090926027683137"><ele>201.5</ele><time>2026-03-26T15:14:09.999Z</time></trkpt><trkpt lat="41.73389034773951" lon="13.091194482147722"><ele>203.0</ele><time>2026-03-26T15:14:10.999Z</time></trkpt><trkpt lat="41.73376039056469" lon="13.091463620749577"><ele>202.5</ele><time>2026-03-26T15:14:11.999Z</time></trkpt><trkpt lat="41.73362795428223" lon="13.091735316102021"><ele>202.0</ele><time>2026-03-26T15:14:12.999Z</time></trkpt><trkpt lat="41.7334960401497" lon="13.092009350642403"><ele>206.5</ele><time>2026-03-26T15:14:13.999Z</time></trkpt><trkpt lat="41.733362069676964" lon="13.092286808479779"><ele>211.0</ele><time>2026-03-26T15:14:14.999Z</time></trkpt><trkpt lat="41.73322424738443" lon="13.092568833808302"><ele>214.5</ele><time>2026-03-26T15:14:15.999Z</time></trkpt><trkpt lat="41.733083382293515" lon="13.092853747233661"><ele>218.0</ele><time>2026-03-26T15:14:16.999Z</time></trkpt><trkpt lat="41.73294069503725" lon="13.0931441654328"><ele>219.5</ele><time>2026-03-26T15:14:17.999Z</time></trkpt><trkpt lat="41.732794325644385" lon="13.093440207696059"><ele>221.0</ele><time>2026-03-26T15:14:18.999Z</time></trkpt><trkpt lat="41.7326457828475" lon="13.09374091775071"><ele>222.0</ele><time>2026-03-26T15:14:19.999Z</time></trkpt><trkpt lat="41.73249545518522" lon="13.094046217569046"><ele>223.0</ele><time>2026-03-26T15:14:20.999Z</time></trkpt><trkpt lat="41.73234389105751" lon="13.094357494578878"><ele>223.0</ele><time>2026-03-26T15:14:21.999Z</time></trkpt><trkpt lat="41.73219147576976" lon="13.09467398003052"><ele>223.0</ele><time>2026-03-26T15:14:22.999Z</time></trkpt><trkpt lat="41.732035928560116" lon="13.094994602245489"><ele>222.5</ele><time>2026-03-26T15:14:23.999Z</time></trkpt><trkpt lat="41.73187837031581" lon="13.095319955447968"><ele>222.0</ele><time>2026-03-26T15:14:24.999Z</time></trkpt><trkpt lat="41.731720059671325" lon="13.09564890394028"><ele>223.0</ele><time>2026-03-26T15:14:25.999Z</time></trkpt><trkpt lat="41.73156043754579" lon="13.095979426387874"><ele>224.0</ele><time>2026-03-26T15:14:26.999Z</time></trkpt><trkpt lat="41.73140197306488" lon="13.096311295015388"><ele>224.0</ele><time>2026-03-26T15:14:27.999Z</time></trkpt><trkpt lat="41.7312448379672" lon="13.09663856507511"><ele>224.0</ele><time>2026-03-26T15:14:28.999Z</time></trkpt><trkpt lat="41.7310886295819" lon="13.09696031199779"><ele>222.0</ele><time>2026-03-26T15:14:29.999Z</time></trkpt><trkpt lat="41.73093455273277" lon="13.097277206701415"><ele>220.0</ele><time>2026-03-26T15:14:30.999Z</time></trkpt><trkpt lat="41.73078261443134" lon="13.097591233198662"><ele>217.5</ele><time>2026-03-26T15:14:31.999Z</time></trkpt><trkpt lat="41.73062789963808" lon="13.097903913959803"><ele>215.0</ele><time>2026-03-26T15:14:32.999Z</time></trkpt><trkpt lat="41.73047319112765" lon="13.098214599468283"><ele>215.0</ele><time>2026-03-26T15:14:33.999Z</time></trkpt><trkpt lat="41.7303193938245" lon="13.098526030505866"><ele>215.0</ele><time>2026-03-26T15:14:34.999Z</time></trkpt><trkpt lat="41.73016808553216" lon="13.098836850038008"><ele>217.5</ele><time>2026-03-26T15:14:35.999Z</time></trkpt><trkpt lat="41.7300149607551" lon="13.099145526339484"><ele>220.0</ele><time>2026-03-26T15:14:36.999Z</time></trkpt><trkpt lat="41.72986023222999" lon="13.09945677446035"><ele>220.0</ele><time>2026-03-26T15:14:37.999Z</time></trkpt><trkpt lat="41.72970598069904" lon="13.099771083447244"><ele>220.0</ele><time>2026-03-26T15:14:38.999Z</time></trkpt><trkpt lat="41.72955177044356" lon="13.100086903067451"><ele>218.5</ele><time>2026-03-26T15:14:39.999Z</time></trkpt><trkpt lat="41.72939985922958" lon="13.100402627982447"><ele>217.0</ele><time>2026-03-26T15:14:40.999Z</time></trkpt><trkpt lat="41.729248293533345" lon="13.100721171939265"><ele>215.5</ele><time>2026-03-26T15:14:41.999Z</time></trkpt><trkpt lat="41.72909648168747" lon="13.1010411494342"><ele>214.0</ele><time>2026-03-26T15:14:42.999Z</time></trkpt><trkpt lat="41.72894440202711" lon="13.101360139750584"><ele>216.5</ele><time>2026-03-26T15:14:43.999Z</time></trkpt><trkpt lat="41.72879355058815" lon="13.101673621986608"><ele>219.0</ele><time>2026-03-26T15:14:44.999Z</time></trkpt><trkpt lat="41.72865052476503" lon="13.101971779766238"><ele>217.5</ele><time>2026-03-26T15:14:45.999Z</time></trkpt><trkpt lat="41.72851176904744" lon="13.10226300996604"><ele>216.0</ele><time>2026-03-26T15:14:46.999Z</time></trkpt><trkpt lat="41.728379934862204" lon="13.102541944017952"><ele>216.0</ele><time>2026-03-26T15:14:47.999Z</time></trkpt><trkpt lat="41.728246813631465" lon="13.102815139164449"><ele>216.0</ele><time>2026-03-26T15:14:48.999Z</time></trkpt><trkpt lat="41.728110267771704" lon="13.10308809771488"><ele>219.0</ele><time>2026-03-26T15:14:49.999Z</time></trkpt><trkpt lat="41.72797146773865" lon="13.103363649297036"><ele>222.0</ele><time>2026-03-26T15:14:50.998Z</time></trkpt><trkpt lat="41.7278320645939" lon="13.103642117478296"><ele>222.5</ele><time>2026-03-26T15:14:51.998Z</time></trkpt><trkpt lat="41.727691239212426" lon="13.103923030920315"><ele>223.0</ele><time>2026-03-26T15:14:52.998Z</time></trkpt><trkpt lat="41.72754953594239" lon="13.104205228308432"><ele>225.5</ele><time>2026-03-26T15:14:53.998Z</time></trkpt><trkpt lat="41.72740620015558" lon="13.104489416633902"><ele>228.0</ele><time>2026-03-26T15:14:54.998Z</time></trkpt><trkpt lat="41.72726279151075" lon="13.104775448244236"><ele>228.5</ele><time>2026-03-26T15:14:55.998Z</time></trkpt><trkpt lat="41.72712075482087" lon="13.10506233113315"><ele>229.0</ele><time>2026-03-26T15:14:56.998Z</time></trkpt><trkpt lat="41.72698055401583" lon="13.105344377535602"><ele>229.0</ele><time>2026-03-26T15:14:57.998Z</time></trkpt><trkpt lat="41.72684233700871" lon="13.105627334541934"><ele>229.0</ele><time>2026-03-26T15:14:58.998Z</time></trkpt><trkpt lat="41.726703564228735" lon="13.105911890474498"><ele>228.0</ele><time>2026-03-26T15:14:59.998Z</time></trkpt><trkpt lat="41.72656478329097" lon="13.106199084458888"><ele>227.0</ele><time>2026-03-26T15:15:00.998Z</time></trkpt><trkpt lat="41.72642457297325" lon="13.106489278832658"><ele>226.5</ele><time>2026-03-26T15:15:01.998Z</time></trkpt><trkpt lat="41.72628319878234" lon="13.10678211568355"><ele>226.0</ele><time>2026-03-26T15:15:02.998Z</time></trkpt><trkpt lat="41.726140390289615" lon="13.107079339905372"><ele>224.5</ele><time>2026-03-26T15:15:03.998Z</time></trkpt><trkpt lat="41.72599565316223" lon="13.10737833976333"><ele>223.0</ele><time>2026-03-26T15:15:04.998Z</time></trkpt><trkpt lat="41.72584970799285" lon="13.10767999344201"><ele>222.0</ele><time>2026-03-26T15:15:05.998Z</time></trkpt><trkpt lat="41.7257014483918" lon="13.107984792992378"><ele>221.0</ele><time>2026-03-26T15:15:06.998Z</time></trkpt><trkpt lat="41.72555143859438" lon="13.108294110733524"><ele>221.0</ele><time>2026-03-26T15:15:07.998Z</time></trkpt><trkpt lat="41.72540155439262" lon="13.108603773935902"><ele>221.0</ele><time>2026-03-26T15:15:08.998Z</time></trkpt><trkpt lat="41.72524950891364" lon="13.108914883653505"><ele>219.0</ele><time>2026-03-26T15:15:09.998Z</time></trkpt><trkpt lat="41.725096593245446" lon="13.109228661403113"><ele>217.0</ele><time>2026-03-26T15:15:10.998Z</time></trkpt><trkpt lat="41.72494320330454" lon="13.109544395468177"><ele>217.0</ele><time>2026-03-26T15:15:11.998Z</time></trkpt><trkpt lat="41.724790838668675" lon="13.109861270874953"><ele>217.0</ele><time>2026-03-26T15:15:13Z</time></trkpt><trkpt lat="41.72463850315234" lon="13.110174170629106"><ele>217.0</ele><time>2026-03-26T15:15:14Z</time></trkpt><trkpt lat="41.72448862884042" lon="13.110482104228714"><ele>217.0</ele><time>2026-03-26T15:15:15Z</time></trkpt><trkpt lat="41.724345163840624" lon="13.110781125932128"><ele>217.0</ele><time>2026-03-26T15:15:16Z</time></trkpt><trkpt lat="41.72420327569536" lon="13.111076797714237"><ele>217.0</ele><time>2026-03-26T15:15:17Z</time></trkpt><trkpt lat="41.72405948418204" lon="13.111369335172196"><ele>215.5</ele><time>2026-03-26T15:15:18Z</time></trkpt><trkpt lat="41.72391610540964" lon="13.11166528148909"><ele>214.0</ele><time>2026-03-26T15:15:19Z</time></trkpt><trkpt lat="41.723773092747244" lon="13.111960534127807"><ele>214.0</ele><time>2026-03-26T15:15:20Z</time></trkpt><trkpt lat="41.723629831710674" lon="13.112255764210154"><ele>214.0</ele><time>2026-03-26T15:15:21Z</time></trkpt><trkpt lat="41.723487507653175" lon="13.112555298885917"><ele>211.5</ele><time>2026-03-26T15:15:22Z</time></trkpt><trkpt lat="41.723345001461205" lon="13.112854769654152"><ele>209.0</ele><time>2026-03-26T15:15:23Z</time></trkpt><trkpt lat="41.72320272274363" lon="13.113153710365122"><ele>208.5</ele><time>2026-03-26T15:15:24Z</time></trkpt><trkpt lat="41.723058483674386" lon="13.113451704721015"><ele>208.0</ele><time>2026-03-26T15:15:25Z</time></trkpt><trkpt lat="41.7229133003778" lon="13.11374567937304"><ele>208.0</ele><time>2026-03-26T15:15:26Z</time></trkpt><trkpt lat="41.72277223089561" lon="13.114049022943322"><ele>208.0</ele><time>2026-03-26T15:15:27Z</time></trkpt><trkpt lat="41.72262708598811" lon="13.114353770904481"><ele>208.0</ele><time>2026-03-26T15:15:28Z</time></trkpt><trkpt lat="41.72248169919321" lon="13.114656247129599"><ele>208.0</ele><time>2026-03-26T15:15:29Z</time></trkpt><trkpt lat="41.722334047772414" lon="13.114966316291667"><ele>208.0</ele><time>2026-03-26T15:15:30Z</time></trkpt><trkpt lat="41.72218519663724" lon="13.115276554140262"><ele>208.0</ele><time>2026-03-26T15:15:31Z</time></trkpt><trkpt lat="41.722034425448314" lon="13.11559104779801"><ele>206.5</ele><time>2026-03-26T15:15:31.999Z</time></trkpt><trkpt lat="41.72188252748951" lon="13.115906716097957"><ele>205.0</ele><time>2026-03-26T15:15:32.999Z</time></trkpt><trkpt lat="41.7217288460495" lon="13.11622659556901"><ele>205.0</ele><time>2026-03-26T15:15:33.999Z</time></trkpt><trkpt lat="41.72157329406559" lon="13.116549506782704"><ele>205.0</ele><time>2026-03-26T15:15:34.999Z</time></trkpt><trkpt lat="41.721416932705885" lon="13.116873231563282"><ele>206.5</ele><time>2026-03-26T15:15:35.999Z</time></trkpt><trkpt lat="41.72125884330911" lon="13.11719949879351"><ele>208.0</ele><time>2026-03-26T15:15:36.999Z</time></trkpt><trkpt lat="41.72109928052273" lon="13.117528050500827"><ele>207.0</ele><time>2026-03-26T15:15:37.999Z</time></trkpt><trkpt lat="41.720937187863214" lon="13.117857110165469"><ele>206.0</ele><time>2026-03-26T15:15:38.999Z</time></trkpt><trkpt lat="41.72077308098193" lon="13.118191305349734"><ele>208.0</ele><time>2026-03-26T15:15:39.999Z</time></trkpt><trkpt lat="41.720607038803514" lon="13.118525390759837"><ele>210.0</ele><time>2026-03-26T15:15:40.999Z</time></trkpt><trkpt lat="41.72044140814096" lon="13.118861496804133"><ele>210.5</ele><time>2026-03-26T15:15:41.999Z</time></trkpt><trkpt lat="41.720274300455365" lon="13.119202592752098"><ele>211.0</ele><time>2026-03-26T15:15:42.999Z</time></trkpt><trkpt lat="41.72010929829651" lon="13.119545614699089"><ele>211.0</ele><time>2026-03-26T15:15:43.999Z</time></trkpt><trkpt lat="41.71994185343788" lon="13.119888064952333"><ele>211.0</ele><time>2026-03-26T15:15:44.999Z</time></trkpt><trkpt lat="41.719774560680555" lon="13.12023282350377"><ele>211.0</ele><time>2026-03-26T15:15:45.999Z</time></trkpt><trkpt lat="41.71960830508609" lon="13.120579260825336"><ele>211.0</ele><time>2026-03-26T15:15:46.999Z</time></trkpt><trkpt lat="41.71943932730748" lon="13.120928880518399"><ele>210.0</ele><time>2026-03-26T15:15:47.999Z</time></trkpt><trkpt lat="41.71926781586862" lon="13.121284406866998"><ele>209.0</ele><time>2026-03-26T15:15:48.999Z</time></trkpt><trkpt lat="41.719093055123444" lon="13.121636091341381"><ele>211.0</ele><time>2026-03-26T15:15:49.999Z</time></trkpt><trkpt lat="41.7189168463513" lon="13.121990156092314"><ele>213.0</ele><time>2026-03-26T15:15:50.999Z</time></trkpt><trkpt lat="41.71874107284431" lon="13.12234713005047"><ele>212.5</ele><time>2026-03-26T15:15:51.999Z</time></trkpt><trkpt lat="41.71856395976672" lon="13.122706931989693"><ele>212.0</ele><time>2026-03-26T15:15:52.999Z</time></trkpt><trkpt lat="41.71838739842298" lon="13.123068059793985"><ele>211.5</ele><time>2026-03-26T15:15:53.999Z</time></trkpt><trkpt lat="41.71821000756647" lon="13.123430302985266"><ele>211.0</ele><time>2026-03-26T15:15:54.999Z</time></trkpt><trkpt lat="41.71803139016669" lon="13.123795182084958"><ele>211.5</ele><time>2026-03-26T15:15:55.999Z</time></trkpt><trkpt lat="41.71785223935163" lon="13.12415987323545"><ele>212.0</ele><time>2026-03-26T15:15:56.999Z</time></trkpt><trkpt lat="41.71767480194242" lon="13.124520981801437"><ele>209.0</ele><time>2026-03-26T15:15:57.999Z</time></trkpt><trkpt lat="41.71750039095782" lon="13.124882078039871"><ele>206.0</ele><time>2026-03-26T15:15:58.999Z</time></trkpt><trkpt lat="41.717326190547475" lon="13.125239808467041"><ele>206.0</ele><time>2026-03-26T15:15:59.999Z</time></trkpt><trkpt lat="41.71715108661632" lon="13.125594355143745"><ele>206.0</ele><time>2026-03-26T15:16:00.999Z</time></trkpt><trkpt lat="41.71697908421588" lon="13.125948478838632"><ele>207.0</ele><time>2026-03-26T15:16:01.999Z</time></trkpt><trkpt lat="41.71680748903639" lon="13.12630018918982"><ele>208.0</ele><time>2026-03-26T15:16:02.999Z</time></trkpt><trkpt lat="41.71663694304206" lon="13.126649756811677"><ele>208.0</ele><time>2026-03-26T15:16:03.999Z</time></trkpt><trkpt lat="41.716465555048664" lon="13.126999668897348"><ele>208.0</ele><time>2026-03-26T15:16:04.999Z</time></trkpt><trkpt lat="41.71629255167132" lon="13.12735234249193"><ele>208.0</ele><time>2026-03-26T15:16:05.999Z</time></trkpt><trkpt lat="41.716121046165505" lon="13.127703866881635"><ele>208.0</ele><time>2026-03-26T15:16:06.999Z</time></trkpt><trkpt lat="41.715947309459" lon="13.128056000021648"><ele>209.0</ele><time>2026-03-26T15:16:07.999Z</time></trkpt><trkpt lat="41.71577374418507" lon="13.128413077453512"><ele>210.0</ele><time>2026-03-26T15:16:08.999Z</time></trkpt><trkpt lat="41.71559710713756" lon="13.1287667511734"><ele>209.0</ele><time>2026-03-26T15:16:09.999Z</time></trkpt><trkpt lat="41.71541964560988" lon="13.129117626516896"><ele>208.0</ele><time>2026-03-26T15:16:10.999Z</time></trkpt><trkpt lat="41.71523899450361" lon="13.129467511359591"><ele>208.0</ele><time>2026-03-26T15:16:11.999Z</time></trkpt><trkpt lat="41.71506175697012" lon="13.129818616355085"><ele>208.0</ele><time>2026-03-26T15:16:12.999Z</time></trkpt><trkpt lat="41.714885255366966" lon="13.130171859158615"><ele>209.0</ele><time>2026-03-26T15:16:13.999Z</time></trkpt><trkpt lat="41.71471263126292" lon="13.130524589017586"><ele>210.0</ele><time>2026-03-26T15:16:14.999Z</time></trkpt><trkpt lat="41.71454104503949" lon="13.130878147511098"><ele>211.0</ele><time>2026-03-26T15:16:15.999Z</time></trkpt><trkpt lat="41.71437205468306" lon="13.131234098676778"><ele>212.0</ele><time>2026-03-26T15:16:16.999Z</time></trkpt><trkpt lat="41.71420265145234" lon="13.131595656294044"><ele>213.0</ele><time>2026-03-26T15:16:17.999Z</time></trkpt><trkpt lat="41.71403185254968" lon="13.1319551915648"><ele>214.0</ele><time>2026-03-26T15:16:18.999Z</time></trkpt><trkpt lat="41.71385979334658" lon="13.13231482644788"><ele>214.0</ele><time>2026-03-26T15:16:19.999Z</time></trkpt><trkpt lat="41.71368675015095" lon="13.132674362949611"><ele>214.0</ele><time>2026-03-26T15:16:20.999Z</time></trkpt><trkpt lat="41.71351396384546" lon="13.133035521112134"><ele>214.5</ele><time>2026-03-26T15:16:21.999Z</time></trkpt><trkpt lat="41.713341307977466" lon="13.133392665142999"><ele>215.0</ele><time>2026-03-26T15:16:22.999Z</time></trkpt><trkpt lat="41.713165135029655" lon="13.13374844679877"><ele>215.5</ele><time>2026-03-26T15:16:23.999Z</time></trkpt><trkpt lat="41.71299192670144" lon="13.134105348402905"><ele>216.0</ele><time>2026-03-26T15:16:24.999Z</time></trkpt><trkpt lat="41.71281759587947" lon="13.134464592889026"><ele>216.0</ele><time>2026-03-26T15:16:25.999Z</time></trkpt><trkpt lat="41.71264249556921" lon="13.134826311360392"><ele>216.0</ele><time>2026-03-26T15:16:26.999Z</time></trkpt><trkpt lat="41.71246620217406" lon="13.135190295508345"><ele>217.5</ele><time>2026-03-26T15:16:27.999Z</time></trkpt><trkpt lat="41.71228797825226" lon="13.13555475639983"><ele>219.0</ele><time>2026-03-26T15:16:28.999Z</time></trkpt><trkpt lat="41.71210869477113" lon="13.135921112154907"><ele>219.0</ele><time>2026-03-26T15:16:29.999Z</time></trkpt><trkpt lat="41.71192585230342" lon="13.136288436966188"><ele>219.0</ele><time>2026-03-26T15:16:30.999Z</time></trkpt><trkpt lat="41.711744955948156" lon="13.136661417968593"><ele>219.0</ele><time>2026-03-26T15:16:31.999Z</time></trkpt><trkpt lat="41.7115625448493" lon="13.13703273389619"><ele>219.0</ele><time>2026-03-26T15:16:32.999Z</time></trkpt><trkpt lat="41.71137921337645" lon="13.137405763460405"><ele>219.5</ele><time>2026-03-26T15:16:33.999Z</time></trkpt><trkpt lat="41.71119509406196" lon="13.137780683453808"><ele>220.0</ele><time>2026-03-26T15:16:34.999Z</time></trkpt><trkpt lat="41.711011875760306" lon="13.138156793952684"><ele>220.0</ele><time>2026-03-26T15:16:35.999Z</time></trkpt><trkpt lat="41.71082557918888" lon="13.138530391939963"><ele>220.0</ele><time>2026-03-26T15:16:36.999Z</time></trkpt><trkpt lat="41.71063581265476" lon="13.138906115600728"><ele>220.5</ele><time>2026-03-26T15:16:37.999Z</time></trkpt><trkpt lat="41.71044504163365" lon="13.139280426538486"><ele>221.0</ele><time>2026-03-26T15:16:38.999Z</time></trkpt><trkpt lat="41.710250762741104" lon="13.139652190891363"><ele>221.0</ele><time>2026-03-26T15:16:39.999Z</time></trkpt><trkpt lat="41.71006445398499" lon="13.140027544190058"><ele>221.0</ele><time>2026-03-26T15:16:40.999Z</time></trkpt><trkpt lat="41.70988059297527" lon="13.140403785447594"><ele>222.0</ele><time>2026-03-26T15:16:41.999Z</time></trkpt><trkpt lat="41.70969692092351" lon="13.140778623912292"><ele>223.0</ele><time>2026-03-26T15:16:42.999Z</time></trkpt><trkpt lat="41.709512497571694" lon="13.141153692693841"><ele>222.5</ele><time>2026-03-26T15:16:43.999Z</time></trkpt><trkpt lat="41.70933097090585" lon="13.141526178722504"><ele>222.0</ele><time>2026-03-26T15:16:44.999Z</time></trkpt><trkpt lat="41.70914857367335" lon="13.141897201543404"><ele>222.0</ele><time>2026-03-26T15:16:45.999Z</time></trkpt><trkpt lat="41.70896643449702" lon="13.142267334324202"><ele>222.0</ele><time>2026-03-26T15:16:46.999Z</time></trkpt><trkpt lat="41.708785077007406" lon="13.14263653736689"><ele>222.0</ele><time>2026-03-26T15:16:47.999Z</time></trkpt><trkpt lat="41.708605057899106" lon="13.143004718018467"><ele>222.0</ele><time>2026-03-26T15:16:48.999Z</time></trkpt><trkpt lat="41.708423926300114" lon="13.14337092376214"><ele>222.5</ele><time>2026-03-26T15:16:49.999Z</time></trkpt><trkpt lat="41.70824555156323" lon="13.143736357388704"><ele>223.0</ele><time>2026-03-26T15:16:50.999Z</time></trkpt><trkpt lat="41.708069904136735" lon="13.144093564085042"><ele>223.0</ele><time>2026-03-26T15:16:51.999Z</time></trkpt><trkpt lat="41.707899810987605" lon="13.144448601699114"><ele>223.0</ele><time>2026-03-26T15:16:52.999Z</time></trkpt><trkpt lat="41.70773007720068" lon="13.144800398116807"><ele>222.0</ele><time>2026-03-26T15:16:53.999Z</time></trkpt><trkpt lat="41.707561597045014" lon="13.145150132120712"><ele>221.0</ele><time>2026-03-26T15:16:54.999Z</time></trkpt><trkpt lat="41.70739371780856" lon="13.145498478740953"><ele>220.5</ele><time>2026-03-26T15:16:55.999Z</time></trkpt><trkpt lat="41.70722748689292" lon="13.145847042710592"><ele>220.0</ele><time>2026-03-26T15:16:56.999Z</time></trkpt><trkpt lat="41.70705858549811" lon="13.1461905469088"><ele>220.0</ele><time>2026-03-26T15:16:57.999Z</time></trkpt><trkpt lat="41.7068936347564" lon="13.146532945147746"><ele>220.0</ele><time>2026-03-26T15:16:58.999Z</time></trkpt><trkpt lat="41.70673610580537" lon="13.146860100391875"><ele>219.5</ele><time>2026-03-26T15:16:59.999Z</time></trkpt><trkpt lat="41.706586946689775" lon="13.147173965766402"><ele>219.0</ele><time>2026-03-26T15:17:00.998Z</time></trkpt><trkpt lat="41.706442907246156" lon="13.147476218445023"><ele>218.0</ele><time>2026-03-26T15:17:01.998Z</time></trkpt><trkpt lat="41.70629536248711" lon="13.147779258656875"><ele>217.0</ele><time>2026-03-26T15:17:02.998Z</time></trkpt><trkpt lat="41.70614529781938" lon="13.148086525033172"><ele>216.0</ele><time>2026-03-26T15:17:03.998Z</time></trkpt><trkpt lat="41.70599654605941" lon="13.148398669866628"><ele>215.0</ele><time>2026-03-26T15:17:04.998Z</time></trkpt><trkpt lat="41.70584464200617" lon="13.148712860266235"><ele>215.0</ele><time>2026-03-26T15:17:05.998Z</time></trkpt><trkpt lat="41.705687488297336" lon="13.149028173167519"><ele>215.0</ele><time>2026-03-26T15:17:06.998Z</time></trkpt><trkpt lat="41.705528231677704" lon="13.149347688552487"><ele>215.0</ele><time>2026-03-26T15:17:07.998Z</time></trkpt><trkpt lat="41.70536843268429" lon="13.149669563684549"><ele>215.0</ele><time>2026-03-26T15:17:08.998Z</time></trkpt><trkpt lat="41.705209159767286" lon="13.14999311826604"><ele>215.0</ele><time>2026-03-26T15:17:09.998Z</time></trkpt><trkpt lat="41.70505246862963" lon="13.150316475932128"><ele>215.0</ele><time>2026-03-26T15:17:10.998Z</time></trkpt><trkpt lat="41.7048931498391" lon="13.150639875083229"><ele>216.5</ele><time>2026-03-26T15:17:11.998Z</time></trkpt><trkpt lat="41.7047300935982" lon="13.150960801581752"><ele>218.0</ele><time>2026-03-26T15:17:12.998Z</time></trkpt><trkpt lat="41.704565023318054" lon="13.151278009978155"><ele>216.0</ele><time>2026-03-26T15:17:13.998Z</time></trkpt><trkpt lat="41.70440042503634" lon="13.151596667323366"><ele>214.0</ele><time>2026-03-26T15:17:14.998Z</time></trkpt><trkpt lat="41.7042369440294" lon="13.151917532750128"><ele>214.0</ele><time>2026-03-26T15:17:15.998Z</time></trkpt><trkpt lat="41.70407903164023" lon="13.152239571928758"><ele>214.0</ele><time>2026-03-26T15:17:16.998Z</time></trkpt><trkpt lat="41.703921349695705" lon="13.152561414484898"><ele>214.5</ele><time>2026-03-26T15:17:17.998Z</time></trkpt><trkpt lat="41.7037635292509" lon="13.152884150895074"><ele>215.0</ele><time>2026-03-26T15:17:19Z</time></trkpt><trkpt lat="41.703607112235304" lon="13.153205288952956"><ele>215.5</ele><time>2026-03-26T15:17:20Z</time></trkpt><trkpt lat="41.703449662351645" lon="13.153526458305711"><ele>216.0</ele><time>2026-03-26T15:17:21Z</time></trkpt><trkpt lat="41.70329132785534" lon="13.153849022636447"><ele>216.0</ele><time>2026-03-26T15:17:22Z</time></trkpt><trkpt lat="41.70313157387198" lon="13.15417452389299"><ele>216.0</ele><time>2026-03-26T15:17:23Z</time></trkpt><trkpt lat="41.70297312052291" lon="13.154502276704218"><ele>216.0</ele><time>2026-03-26T15:17:24Z</time></trkpt><trkpt lat="41.702814958746934" lon="13.154831563126361"><ele>216.0</ele><time>2026-03-26T15:17:25Z</time></trkpt><trkpt lat="41.70265791010191" lon="13.155158923690173"><ele>216.0</ele><time>2026-03-26T15:17:26Z</time></trkpt><trkpt lat="41.70250022263983" lon="13.15548612051919"><ele>216.0</ele><time>2026-03-26T15:17:27Z</time></trkpt><trkpt lat="41.702340989611336" lon="13.155811942968032"><ele>216.0</ele><time>2026-03-26T15:17:28Z</time></trkpt><trkpt lat="41.70218179720907" lon="13.156136117064685"><ele>216.0</ele><time>2026-03-26T15:17:29Z</time></trkpt><trkpt lat="41.702022507118755" lon="13.156460078911698"><ele>217.0</ele><time>2026-03-26T15:17:30Z</time></trkpt><trkpt lat="41.7018634997676" lon="13.156784001908003"><ele>218.0</ele><time>2026-03-26T15:17:31Z</time></trkpt><trkpt lat="41.70170258943696" lon="13.157109208262009"><ele>217.0</ele><time>2026-03-26T15:17:32Z</time></trkpt><trkpt lat="41.7015421804936" lon="13.157434283180537"><ele>216.0</ele><time>2026-03-26T15:17:33Z</time></trkpt><trkpt lat="41.70138287130439" lon="13.157760848679278"><ele>216.0</ele><time>2026-03-26T15:17:34Z</time></trkpt><trkpt lat="41.70122304914162" lon="13.15808672171865"><ele>216.0</ele><time>2026-03-26T15:17:35Z</time></trkpt><trkpt lat="41.7010628315024" lon="13.158412142733308"><ele>216.5</ele><time>2026-03-26T15:17:36Z</time></trkpt><trkpt lat="41.700903905322996" lon="13.158740460747769"><ele>217.0</ele><time>2026-03-26T15:17:37Z</time></trkpt><trkpt lat="41.700746657073395" lon="13.159064126151554"><ele>216.0</ele><time>2026-03-26T15:17:38Z</time></trkpt><trkpt lat="41.70058926583264" lon="13.159387657716772"><ele>215.0</ele><time>2026-03-26T15:17:39Z</time></trkpt><trkpt lat="41.700432896524724" lon="13.15971257164719"><ele>215.0</ele><time>2026-03-26T15:17:39.999Z</time></trkpt><trkpt lat="41.70027639462794" lon="13.160036512372983"><ele>215.0</ele><time>2026-03-26T15:17:40.999Z</time></trkpt><trkpt lat="41.70011908365407" lon="13.160361505530162"><ele>214.0</ele><time>2026-03-26T15:17:41.999Z</time></trkpt><trkpt lat="41.699961708410996" lon="13.160686339195413"><ele>213.0</ele><time>2026-03-26T15:17:42.999Z</time></trkpt><trkpt lat="41.69980245527151" lon="13.161011114434919"><ele>213.0</ele><time>2026-03-26T15:17:43.999Z</time></trkpt><trkpt lat="41.69964338896507" lon="13.161335373811255"><ele>213.0</ele><time>2026-03-26T15:17:44.999Z</time></trkpt><trkpt lat="41.69948274867846" lon="13.16165955961717"><ele>212.0</ele><time>2026-03-26T15:17:45.999Z</time></trkpt><trkpt lat="41.69932178011699" lon="13.16198214784821"><ele>211.0</ele><time>2026-03-26T15:17:46.999Z</time></trkpt><trkpt lat="41.69916412455212" lon="13.162304714822664"><ele>210.5</ele><time>2026-03-26T15:17:47.999Z</time></trkpt><trkpt lat="41.69900678767069" lon="13.162624662283982"><ele>210.0</ele><time>2026-03-26T15:17:48.999Z</time></trkpt><trkpt lat="41.6988522184715" lon="13.162937787914542"><ele>209.5</ele><time>2026-03-26T15:17:49.999Z</time></trkpt><trkpt lat="41.69870144310865" lon="13.163245401789355"><ele>209.0</ele><time>2026-03-26T15:17:50.999Z</time></trkpt><trkpt lat="41.69855453181036" lon="13.163550858785529"><ele>208.5</ele><time>2026-03-26T15:17:51.999Z</time></trkpt><trkpt lat="41.698407061523014" lon="13.163852449464056"><ele>208.0</ele><time>2026-03-26T15:17:52.999Z</time></trkpt><trkpt lat="41.69825996937871" lon="13.164155067678458"><ele>207.5</ele><time>2026-03-26T15:17:53.999Z</time></trkpt><trkpt lat="41.6981136769286" lon="13.164459021967856"><ele>207.0</ele><time>2026-03-26T15:17:54.999Z</time></trkpt><trkpt lat="41.69796513952529" lon="13.164763460805146"><ele>206.5</ele><time>2026-03-26T15:17:55.999Z</time></trkpt><trkpt lat="41.697816752450464" lon="13.165068392546452"><ele>206.0</ele><time>2026-03-26T15:17:56.999Z</time></trkpt><trkpt lat="41.69766739737382" lon="13.165371031145028"><ele>207.0</ele><time>2026-03-26T15:17:57.999Z</time></trkpt><trkpt lat="41.697517771128254" lon="13.16567328031378"><ele>208.0</ele><time>2026-03-26T15:17:58.999Z</time></trkpt><trkpt lat="41.69736842853812" lon="13.165976112937395"><ele>208.5</ele><time>2026-03-26T15:17:59.999Z</time></trkpt><trkpt lat="41.69722172925511" lon="13.16627075644721"><ele>209.0</ele><time>2026-03-26T15:18:00.999Z</time></trkpt><trkpt lat="41.69707816082988" lon="13.166560556861135"><ele>209.5</ele><time>2026-03-26T15:18:01.999Z</time></trkpt><trkpt lat="41.696937744299085" lon="13.166848098195697"><ele>210.0</ele><time>2026-03-26T15:18:02.999Z</time></trkpt><trkpt lat="41.6967973308085" lon="13.167138747893125"><ele>209.0</ele><time>2026-03-26T15:18:03.999Z</time></trkpt><trkpt lat="41.696655453906196" lon="13.16742832892306"><ele>208.0</ele><time>2026-03-26T15:18:04.999Z</time></trkpt><trkpt lat="41.69651406036326" lon="13.167720462389216"><ele>208.0</ele><time>2026-03-26T15:18:05.999Z</time></trkpt><trkpt lat="41.69637231029753" lon="13.168005301076795"><ele>208.0</ele><time>2026-03-26T15:18:06.999Z</time></trkpt><trkpt lat="41.69623625202863" lon="13.16827614205673"><ele>208.0</ele><time>2026-03-26T15:18:07.999Z</time></trkpt><trkpt lat="41.69610474414142" lon="13.168543256765327"><ele>208.0</ele><time>2026-03-26T15:18:08.999Z</time></trkpt><trkpt lat="41.69597167915914" lon="13.168813489878104"><ele>207.5</ele><time>2026-03-26T15:18:09.999Z</time></trkpt><trkpt lat="41.69583672714857" lon="13.169090686578807"><ele>207.0</ele><time>2026-03-26T15:18:10.999Z</time></trkpt><trkpt lat="41.69570155251226" lon="13.169365919893838"><ele>207.0</ele><time>2026-03-26T15:18:11.999Z</time></trkpt><trkpt lat="41.695567918727924" lon="13.1696400882689"><ele>207.0</ele><time>2026-03-26T15:18:12.999Z</time></trkpt><trkpt lat="41.695434636541975" lon="13.169915216058284"><ele>207.0</ele><time>2026-03-26T15:18:13.999Z</time></trkpt><trkpt lat="41.695302247527806" lon="13.170192168540456"><ele>207.0</ele><time>2026-03-26T15:18:14.999Z</time></trkpt><trkpt lat="41.69516745513192" lon="13.170468104011812"><ele>207.0</ele><time>2026-03-26T15:18:15.999Z</time></trkpt><trkpt lat="41.6950401138692" lon="13.170728894866311"><ele>207.0</ele><time>2026-03-26T15:18:16.999Z</time></trkpt><trkpt lat="41.69491435236207" lon="13.170989939043983"><ele>207.0</ele><time>2026-03-26T15:18:17.999Z</time></trkpt><trkpt lat="41.694778618127636" lon="13.171249616305747"><ele>207.0</ele><time>2026-03-26T15:18:18.999Z</time></trkpt><trkpt lat="41.69465165529579" lon="13.171515905999515"><ele>207.5</ele><time>2026-03-26T15:18:19.999Z</time></trkpt><trkpt lat="41.6945225671846" lon="13.171780371123337"><ele>208.0</ele><time>2026-03-26T15:18:20.999Z</time></trkpt><trkpt lat="41.69439453507307" lon="13.172042961681589"><ele>208.0</ele><time>2026-03-26T15:18:21.999Z</time></trkpt><trkpt lat="41.69426785097841" lon="13.172306830122416"><ele>208.0</ele><time>2026-03-26T15:18:22.999Z</time></trkpt><trkpt lat="41.694137882128054" lon="13.172575450314575"><ele>209.5</ele><time>2026-03-26T15:18:23.999Z</time></trkpt><trkpt lat="41.694004218905555" lon="13.172851590646463"><ele>211.0</ele><time>2026-03-26T15:18:24.999Z</time></trkpt><trkpt lat="41.693868910357914" lon="13.17312919976262"><ele>212.0</ele><time>2026-03-26T15:18:25.999Z</time></trkpt><trkpt lat="41.69373025796676" lon="13.173416307539572"><ele>213.0</ele><time>2026-03-26T15:18:26.999Z</time></trkpt><trkpt lat="41.69358823793953" lon="13.173710860224558"><ele>214.0</ele><time>2026-03-26T15:18:27.999Z</time></trkpt><trkpt lat="41.693449304127846" lon="13.174002348572863"><ele>215.0</ele><time>2026-03-26T15:18:28.999Z</time></trkpt><trkpt lat="41.69331301420949" lon="13.174283172963142"><ele>215.0</ele><time>2026-03-26T15:18:29.999Z</time></trkpt><trkpt lat="41.69317935256196" lon="13.174556810743274"><ele>215.0</ele><time>2026-03-26T15:18:30.999Z</time></trkpt><trkpt lat="41.693045795113385" lon="13.174830455204182"><ele>217.0</ele><time>2026-03-26T15:18:31.999Z</time></trkpt><trkpt lat="41.69291196583246" lon="13.175104696517211"><ele>219.0</ele><time>2026-03-26T15:18:32.999Z</time></trkpt><trkpt lat="41.69277737610547" lon="13.175382996048219"><ele>217.0</ele><time>2026-03-26T15:18:33.999Z</time></trkpt><trkpt lat="41.69264297594858" lon="13.175665783568908"><ele>215.0</ele><time>2026-03-26T15:18:34.999Z</time></trkpt><trkpt lat="41.692505267532376" lon="13.175955577992449"><ele>215.0</ele><time>2026-03-26T15:18:35.999Z</time></trkpt><trkpt lat="41.6923659626347" lon="13.176245566236547"><ele>215.0</ele><time>2026-03-26T15:18:36.999Z</time></trkpt><trkpt lat="41.692228165793885" lon="13.176526807913504"><ele>216.0</ele><time>2026-03-26T15:18:37.999Z</time></trkpt><trkpt lat="41.6920896346481" lon="13.176807059409725"><ele>217.0</ele><time>2026-03-26T15:18:38.999Z</time></trkpt><trkpt lat="41.691951708164574" lon="13.177084111782802"><ele>216.5</ele><time>2026-03-26T15:18:39.999Z</time></trkpt><trkpt lat="41.69181490145352" lon="13.177365612267455"><ele>216.0</ele><time>2026-03-26T15:18:40.999Z</time></trkpt><trkpt lat="41.69167807968582" lon="13.177654212481995"><ele>216.0</ele><time>2026-03-26T15:18:41.999Z</time></trkpt><trkpt lat="41.69154032602842" lon="13.177949685208588"><ele>216.0</ele><time>2026-03-26T15:18:42.999Z</time></trkpt><trkpt lat="41.69140156569857" lon="13.178238533013253"><ele>219.0</ele><time>2026-03-26T15:18:43.999Z</time></trkpt><trkpt lat="41.691262620098875" lon="13.178520662894398"><ele>222.0</ele><time>2026-03-26T15:18:44.999Z</time></trkpt><trkpt lat="41.691124180718695" lon="13.178807726849646"><ele>220.5</ele><time>2026-03-26T15:18:45.999Z</time></trkpt><trkpt lat="41.69098541718275" lon="13.17910005232914"><ele>219.0</ele><time>2026-03-26T15:18:46.999Z</time></trkpt><trkpt lat="41.69084637427545" lon="13.17939573610629"><ele>219.0</ele><time>2026-03-26T15:18:47.999Z</time></trkpt><trkpt lat="41.69070616617075" lon="13.17968974067564"><ele>219.0</ele><time>2026-03-26T15:18:48.999Z</time></trkpt><trkpt lat="41.69056864452284" lon="13.17997019803199"><ele>220.5</ele><time>2026-03-26T15:18:49.999Z</time></trkpt><trkpt lat="41.6904365660311" lon="13.180237690943878"><ele>222.0</ele><time>2026-03-26T15:18:50.999Z</time></trkpt><trkpt lat="41.690306560552294" lon="13.180505114814457"><ele>223.0</ele><time>2026-03-26T15:18:51.999Z</time></trkpt><trkpt lat="41.69017387876869" lon="13.180780546756196"><ele>224.0</ele><time>2026-03-26T15:18:52.999Z</time></trkpt><trkpt lat="41.690034127822415" lon="13.181056630300558"><ele>224.0</ele><time>2026-03-26T15:18:53.999Z</time></trkpt><trkpt lat="41.68989316148964" lon="13.181340037240592"><ele>224.0</ele><time>2026-03-26T15:18:54.999Z</time></trkpt><trkpt lat="41.68975229328528" lon="13.181629154191258"><ele>225.5</ele><time>2026-03-26T15:18:55.999Z</time></trkpt><trkpt lat="41.689614887671446" lon="13.181915230268341"><ele>227.0</ele><time>2026-03-26T15:18:56.999Z</time></trkpt><trkpt lat="41.6894844223368" lon="13.18218583810182"><ele>229.5</ele><time>2026-03-26T15:18:57.999Z</time></trkpt><trkpt lat="41.689355251440055" lon="13.182446284117182"><ele>232.0</ele><time>2026-03-26T15:18:58.999Z</time></trkpt><trkpt lat="41.689224023350874" lon="13.182703009562404"><ele>232.0</ele><time>2026-03-26T15:18:59.999Z</time></trkpt><trkpt lat="41.68909212143637" lon="13.182957336226599"><ele>232.0</ele><time>2026-03-26T15:19:00.999Z</time></trkpt><trkpt lat="41.68895630237183" lon="13.183209281410562"><ele>234.0</ele><time>2026-03-26T15:19:01.999Z</time></trkpt><trkpt lat="41.68881930346039" lon="13.183463159087472"><ele>236.0</ele><time>2026-03-26T15:19:02.999Z</time></trkpt><trkpt lat="41.68868331454276" lon="13.183717334252323"><ele>239.0</ele><time>2026-03-26T15:19:03.999Z</time></trkpt><trkpt lat="41.688544710204795" lon="13.183971801045477"><ele>242.0</ele><time>2026-03-26T15:19:04.998Z</time></trkpt><trkpt lat="41.68840449512857" lon="13.184228895300723"><ele>242.0</ele><time>2026-03-26T15:19:05.998Z</time></trkpt><trkpt lat="41.6882622091019" lon="13.184486069129552"><ele>242.0</ele><time>2026-03-26T15:19:06.998Z</time></trkpt><trkpt lat="41.688118668387624" lon="13.184741967674164"><ele>243.0</ele><time>2026-03-26T15:19:07.998Z</time></trkpt><trkpt lat="41.68797599707892" lon="13.184990058360992"><ele>244.0</ele><time>2026-03-26T15:19:08.998Z</time></trkpt><trkpt lat="41.687833051209545" lon="13.185234788717437"><ele>242.5</ele><time>2026-03-26T15:19:09.998Z</time></trkpt><trkpt lat="41.68768794787932" lon="13.185477841366549"><ele>241.0</ele><time>2026-03-26T15:19:10.998Z</time></trkpt><trkpt lat="41.687541805311774" lon="13.18572189285859"><ele>241.0</ele><time>2026-03-26T15:19:11.998Z</time></trkpt><trkpt lat="41.687393083810214" lon="13.185965017670947"><ele>241.0</ele><time>2026-03-26T15:19:12.998Z</time></trkpt><trkpt lat="41.68724572558361" lon="13.186209466553231"><ele>241.0</ele><time>2026-03-26T15:19:13.998Z</time></trkpt><trkpt lat="41.6870978972522" lon="13.186452029346656"><ele>241.0</ele><time>2026-03-26T15:19:14.998Z</time></trkpt><trkpt lat="41.68694783494275" lon="13.18669316043494"><ele>242.0</ele><time>2026-03-26T15:19:15.998Z</time></trkpt><trkpt lat="41.686794370655626" lon="13.1869356542821"><ele>243.0</ele><time>2026-03-26T15:19:16.998Z</time></trkpt><trkpt lat="41.686637834163236" lon="13.187180262393484"><ele>243.0</ele><time>2026-03-26T15:19:17.998Z</time></trkpt><trkpt lat="41.686477619363096" lon="13.187424306952972"><ele>243.0</ele><time>2026-03-26T15:19:18.998Z</time></trkpt><trkpt lat="41.686315133941896" lon="13.187671060492752"><ele>243.0</ele><time>2026-03-26T15:19:19.998Z</time></trkpt><trkpt lat="41.6861514108848" lon="13.187919823076967"><ele>243.0</ele><time>2026-03-26T15:19:20.998Z</time></trkpt><trkpt lat="41.68598569800904" lon="13.188168043335699"><ele>243.0</ele><time>2026-03-26T15:19:21.998Z</time></trkpt><trkpt lat="41.68581948652814" lon="13.188413598025328"><ele>243.0</ele><time>2026-03-26T15:19:22.998Z</time></trkpt><trkpt lat="41.68565623169771" lon="13.18865621696076"><ele>243.0</ele><time>2026-03-26T15:19:23.998Z</time></trkpt><trkpt lat="41.68549579178798" lon="13.188895129250742"><ele>243.0</ele><time>2026-03-26T15:19:25Z</time></trkpt><trkpt lat="41.68534153591449" lon="13.189125829444057"><ele>243.5</ele><time>2026-03-26T15:19:26Z</time></trkpt><trkpt lat="41.68518767258046" lon="13.189359530435524"><ele>244.0</ele><time>2026-03-26T15:19:27Z</time></trkpt><trkpt lat="41.685033846504616" lon="13.189595610492903"><ele>244.0</ele><time>2026-03-26T15:19:28Z</time></trkpt><trkpt lat="41.68487753947126" lon="13.189832823185585"><ele>244.0</ele><time>2026-03-26T15:19:29Z</time></trkpt><trkpt lat="41.68472379251474" lon="13.190067815666975"><ele>244.33333333333331</ele><time>2026-03-26T15:19:30Z</time></trkpt><trkpt lat="41.684575285708156" lon="13.190294357849531"><ele>244.66666666666669</ele><time>2026-03-26T15:19:31Z</time></trkpt><trkpt lat="41.684431367174874" lon="13.190514607351895"><ele>245.0</ele><time>2026-03-26T15:19:32Z</time></trkpt><trkpt lat="41.684290062073636" lon="13.190739223578397"><ele>247.0</ele><time>2026-03-26T15:19:33Z</time></trkpt><trkpt lat="41.684143806371836" lon="13.190971148423396"><ele>249.0</ele><time>2026-03-26T15:19:34Z</time></trkpt><trkpt lat="41.68399483634992" lon="13.191202625652137"><ele>249.0</ele><time>2026-03-26T15:19:35Z</time></trkpt><trkpt lat="41.68384896455842" lon="13.191424400421987"><ele>249.0</ele><time>2026-03-26T15:19:36Z</time></trkpt><trkpt lat="41.68370746947077" lon="13.191637088436375"><ele>249.0</ele><time>2026-03-26T15:19:37Z</time></trkpt><trkpt lat="41.68356894447221" lon="13.191846781618493"><ele>249.0</ele><time>2026-03-26T15:19:38Z</time></trkpt><trkpt lat="41.68343088217914" lon="13.192059812775238"><ele>249.0</ele><time>2026-03-26T15:19:39Z</time></trkpt><trkpt lat="41.68329083900463" lon="13.192280546403873"><ele>249.0</ele><time>2026-03-26T15:19:40Z</time></trkpt><trkpt lat="41.683145503334636" lon="13.192506703041616"><ele>248.0</ele><time>2026-03-26T15:19:41Z</time></trkpt><trkpt lat="41.68299975845036" lon="13.192727920676822"><ele>247.0</ele><time>2026-03-26T15:19:42Z</time></trkpt><trkpt lat="41.68285464088418" lon="13.192956668314332"><ele>246.0</ele><time>2026-03-26T15:19:43Z</time></trkpt><trkpt lat="41.68269844779254" lon="13.193198955598692"><ele>242.5</ele><time>2026-03-26T15:19:43.999Z</time></trkpt><trkpt lat="41.68252990498689" lon="13.193456260233406"><ele>239.0</ele><time>2026-03-26T15:19:44.999Z</time></trkpt><trkpt lat="41.68235854094319" lon="13.193732186502935"><ele>238.5</ele><time>2026-03-26T15:19:45.999Z</time></trkpt><trkpt lat="41.68217904387833" lon="13.194027502970602"><ele>238.0</ele><time>2026-03-26T15:19:46.999Z</time></trkpt><trkpt lat="41.68198504079355" lon="13.194330107596427"><ele>238.5</ele><time>2026-03-26T15:19:47.999Z</time></trkpt><trkpt lat="41.681777160052484" lon="13.194626894781678"><ele>239.0</ele><time>2026-03-26T15:19:48.999Z</time></trkpt><trkpt lat="41.681566850419614" lon="13.19492801383388"><ele>237.0</ele><time>2026-03-26T15:19:49.999Z</time></trkpt><trkpt lat="41.68136250406232" lon="13.195232293896906"><ele>235.0</ele><time>2026-03-26T15:19:50.999Z</time></trkpt><trkpt lat="41.68116767617393" lon="13.195528813379072"><ele>234.0</ele><time>2026-03-26T15:19:51.999Z</time></trkpt><trkpt lat="41.6809745077293" lon="13.195821368898722"><ele>233.0</ele><time>2026-03-26T15:19:52.999Z</time></trkpt><trkpt lat="41.68078124367559" lon="13.196113507637522"><ele>233.0</ele><time>2026-03-26T15:19:53.999Z</time></trkpt><trkpt lat="41.680587516488124" lon="13.1964074589065"><ele>233.0</ele><time>2026-03-26T15:19:54.999Z</time></trkpt><trkpt lat="41.68039019215121" lon="13.196704066206642"><ele>231.0</ele><time>2026-03-26T15:19:55.999Z</time></trkpt><trkpt lat="41.680190889546786" lon="13.197002740232605"><ele>229.0</ele><time>2026-03-26T15:19:56.999Z</time></trkpt><trkpt lat="41.67999016644098" lon="13.197304385184946"><ele>230.0</ele><time>2026-03-26T15:19:57.999Z</time></trkpt><trkpt lat="41.67978891226896" lon="13.197609272448197"><ele>231.0</ele><time>2026-03-26T15:19:58.999Z</time></trkpt><trkpt lat="41.6795847807548" lon="13.197916543986256"><ele>227.0</ele><time>2026-03-26T15:19:59.999Z</time></trkpt><trkpt lat="41.679378523612606" lon="13.19822679449622"><ele>223.0</ele><time>2026-03-26T15:20:00.999Z</time></trkpt><trkpt lat="41.679171401864366" lon="13.198538180946077"><ele>223.0</ele><time>2026-03-26T15:20:01.999Z</time></trkpt><trkpt lat="41.67896391843139" lon="13.198844510691453"><ele>223.0</ele><time>2026-03-26T15:20:02.999Z</time></trkpt><trkpt lat="41.678757659421976" lon="13.199149948913211"><ele>223.0</ele><time>2026-03-26T15:20:03.999Z</time></trkpt><trkpt lat="41.67855825069488" lon="13.19944814588031"><ele>223.0</ele><time>2026-03-26T15:20:04.999Z</time></trkpt><trkpt lat="41.67836300626202" lon="13.199741517410809"><ele>222.5</ele><time>2026-03-26T15:20:05.999Z</time></trkpt><trkpt lat="41.67816861342306" lon="13.200032681587833"><ele>222.0</ele><time>2026-03-26T15:20:06.999Z</time></trkpt><trkpt lat="41.67797669839616" lon="13.200320202386605"><ele>222.0</ele><time>2026-03-26T15:20:07.999Z</time></trkpt><trkpt lat="41.67778484492147" lon="13.200609641815804"><ele>222.0</ele><time>2026-03-26T15:20:08.999Z</time></trkpt><trkpt lat="41.67759272057048" lon="13.200899962064893"><ele>223.0</ele><time>2026-03-26T15:20:09.999Z</time></trkpt><trkpt lat="41.6774007776228" lon="13.201189505356904"><ele>224.0</ele><time>2026-03-26T15:20:10.999Z</time></trkpt><trkpt lat="41.67721162257578" lon="13.201474286043256"><ele>224.5</ele><time>2026-03-26T15:20:11.999Z</time></trkpt><trkpt lat="41.677023529646775" lon="13.201753428105404"><ele>225.0</ele><time>2026-03-26T15:20:12.999Z</time></trkpt><trkpt lat="41.67683533293778" lon="13.202031921934417"><ele>225.0</ele><time>2026-03-26T15:20:13.999Z</time></trkpt><trkpt lat="41.676645380859725" lon="13.202314922770315"><ele>225.0</ele><time>2026-03-26T15:20:14.999Z</time></trkpt><trkpt lat="41.67645587889879" lon="13.202600716045605"><ele>224.0</ele><time>2026-03-26T15:20:15.999Z</time></trkpt><trkpt lat="41.676266462984685" lon="13.202893680047264"><ele>223.0</ele><time>2026-03-26T15:20:16.999Z</time></trkpt><trkpt lat="41.676074131721414" lon="13.203189337639257"><ele>222.5</ele><time>2026-03-26T15:20:17.999Z</time></trkpt><trkpt lat="41.675874761345554" lon="13.203488214095572"><ele>222.0</ele><time>2026-03-26T15:20:18.999Z</time></trkpt><trkpt lat="41.67566165317804" lon="13.203790982760115"><ele>221.5</ele><time>2026-03-26T15:20:19.999Z</time></trkpt><trkpt lat="41.675443747199104" lon="13.204094839761757"><ele>221.0</ele><time>2026-03-26T15:20:20.999Z</time></trkpt><trkpt lat="41.67522388583392" lon="13.20441956863547"><ele>221.0</ele><time>2026-03-26T15:20:21.999Z</time></trkpt><trkpt lat="41.67501035005993" lon="13.204742660121145"><ele>221.0</ele><time>2026-03-26T15:20:22.999Z</time></trkpt><trkpt lat="41.67481017448768" lon="13.205049909639245"><ele>221.0</ele><time>2026-03-26T15:20:23.999Z</time></trkpt><trkpt lat="41.67461571795251" lon="13.20534146441036"><ele>221.0</ele><time>2026-03-26T15:20:24.999Z</time></trkpt><trkpt lat="41.674423947915905" lon="13.205626551759147"><ele>221.0</ele><time>2026-03-26T15:20:25.999Z</time></trkpt><trkpt lat="41.67423227055171" lon="13.205911112204687"><ele>221.0</ele><time>2026-03-26T15:20:26.999Z</time></trkpt><trkpt lat="41.674041627774166" lon="13.206196630749945"><ele>221.0</ele><time>2026-03-26T15:20:27.999Z</time></trkpt><trkpt lat="41.673855514346826" lon="13.206478939377456"><ele>221.0</ele><time>2026-03-26T15:20:28.999Z</time></trkpt><trkpt lat="41.67367567323937" lon="13.206758393627426"><ele>220.5</ele><time>2026-03-26T15:20:29.999Z</time></trkpt><trkpt lat="41.6734970934538" lon="13.207034898643608"><ele>220.0</ele><time>2026-03-26T15:20:30.999Z</time></trkpt><trkpt lat="41.673319700591136" lon="13.207311431798528"><ele>220.0</ele><time>2026-03-26T15:20:31.999Z</time></trkpt><trkpt lat="41.673143198726656" lon="13.207579689540111"><ele>220.0</ele><time>2026-03-26T15:20:32.999Z</time></trkpt><trkpt lat="41.672964207510624" lon="13.207848329775766"><ele>220.0</ele><time>2026-03-26T15:20:33.999Z</time></trkpt><trkpt lat="41.67278525502868" lon="13.208116899615424"><ele>220.0</ele><time>2026-03-26T15:20:34.999Z</time></trkpt><trkpt lat="41.6726066819354" lon="13.208385633728733"><ele>221.0</ele><time>2026-03-26T15:20:35.999Z</time></trkpt><trkpt lat="41.67242867302062" lon="13.208654484135606"><ele>222.0</ele><time>2026-03-26T15:20:36.999Z</time></trkpt><trkpt lat="41.67224901014276" lon="13.20892912865183"><ele>221.5</ele><time>2026-03-26T15:20:37.999Z</time></trkpt><trkpt lat="41.67206632414762" lon="13.209208797107484"><ele>221.0</ele><time>2026-03-26T15:20:38.999Z</time></trkpt><trkpt lat="41.67188200063653" lon="13.209488291214415"><ele>219.5</ele><time>2026-03-26T15:20:39.999Z</time></trkpt><trkpt lat="41.67169702039883" lon="13.209769127012736"><ele>218.0</ele><time>2026-03-26T15:20:40.999Z</time></trkpt><trkpt lat="41.67151152227279" lon="13.210053526025403"><ele>218.0</ele><time>2026-03-26T15:20:41.999Z</time></trkpt><trkpt lat="41.67132733506574" lon="13.210332442170579"><ele>218.0</ele><time>2026-03-26T15:20:42.999Z</time></trkpt><trkpt lat="41.67114331343888" lon="13.210609581648098"><ele>217.5</ele><time>2026-03-26T15:20:43.999Z</time></trkpt><trkpt lat="41.67095983602649" lon="13.21088408035239"><ele>217.0</ele><time>2026-03-26T15:20:44.999Z</time></trkpt><trkpt lat="41.670774224154144" lon="13.21115797567378"><ele>217.0</ele><time>2026-03-26T15:20:45.999Z</time></trkpt><trkpt lat="41.670582425848835" lon="13.211441627847153"><ele>217.0</ele><time>2026-03-26T15:20:46.999Z</time></trkpt><trkpt lat="41.670387860371264" lon="13.211724210752756"><ele>217.0</ele><time>2026-03-26T15:20:47.999Z</time></trkpt><trkpt lat="41.67019284849821" lon="13.21199846141633"><ele>217.0</ele><time>2026-03-26T15:20:48.999Z</time></trkpt><trkpt lat="41.66999340109323" lon="13.212279615884947"><ele>218.0</ele><time>2026-03-26T15:20:49.999Z</time></trkpt><trkpt lat="41.6697953552319" lon="13.212568124078754"><ele>219.0</ele><time>2026-03-26T15:20:50.999Z</time></trkpt><trkpt lat="41.669597902104094" lon="13.212863603775677"><ele>219.0</ele><time>2026-03-26T15:20:51.999Z</time></trkpt><trkpt lat="41.669399818373336" lon="13.2131657733499"><ele>219.0</ele><time>2026-03-26T15:20:52.999Z</time></trkpt><trkpt lat="41.66920080642112" lon="13.21346647459967"><ele>219.0</ele><time>2026-03-26T15:20:53.999Z</time></trkpt><trkpt lat="41.669000298163745" lon="13.213764202924446"><ele>219.0</ele><time>2026-03-26T15:20:54.999Z</time></trkpt><trkpt lat="41.66879871856603" lon="13.214068746523086"><ele>220.5</ele><time>2026-03-26T15:20:55.999Z</time></trkpt><trkpt lat="41.668592277544576" lon="13.214376839950262"><ele>222.0</ele><time>2026-03-26T15:20:56.999Z</time></trkpt><trkpt lat="41.66838312907373" lon="13.214686008624868"><ele>219.0</ele><time>2026-03-26T15:20:57.999Z</time></trkpt><trkpt lat="41.66816842254451" lon="13.214994697524524"><ele>216.0</ele><time>2026-03-26T15:20:58.999Z</time></trkpt><trkpt lat="41.6679480986929" lon="13.215304494696356"><ele>217.5</ele><time>2026-03-26T15:20:59.999Z</time></trkpt><trkpt lat="41.66772757716659" lon="13.21561761350268"><ele>219.0</ele><time>2026-03-26T15:21:00.999Z</time></trkpt><trkpt lat="41.66750562046601" lon="13.215933826807337"><ele>219.0</ele><time>2026-03-26T15:21:01.999Z</time></trkpt><trkpt lat="41.6672867667511" lon="13.216256357311456"><ele>219.0</ele><time>2026-03-26T15:21:02.999Z</time></trkpt><trkpt lat="41.667074622477706" lon="13.216579949561952"><ele>218.0</ele><time>2026-03-26T15:21:03.999Z</time></trkpt><trkpt lat="41.66686708290412" lon="13.216901757930753"><ele>217.0</ele><time>2026-03-26T15:21:04.999Z</time></trkpt><trkpt lat="41.6666596530951" lon="13.21722490337963"><ele>215.0</ele><time>2026-03-26T15:21:05.999Z</time></trkpt><trkpt lat="41.666455880015775" lon="13.21754846111076"><ele>213.0</ele><time>2026-03-26T15:21:06.999Z</time></trkpt><trkpt lat="41.66625589493498" lon="13.217865073183491"><ele>212.5</ele><time>2026-03-26T15:21:07.999Z</time></trkpt><trkpt lat="41.6660538646762" lon="13.21817885763607"><ele>212.0</ele><time>2026-03-26T15:21:08.999Z</time></trkpt><trkpt lat="41.66585280494712" lon="13.218489519236742"><ele>212.0</ele><time>2026-03-26T15:21:09.999Z</time></trkpt><trkpt lat="41.665650535371206" lon="13.218794895282874"><ele>212.0</ele><time>2026-03-26T15:21:10.999Z</time></trkpt><trkpt lat="41.665445884642786" lon="13.219102242099416"><ele>211.0</ele><time>2026-03-26T15:21:11.999Z</time></trkpt><trkpt lat="41.66524113380411" lon="13.219406943300942"><ele>210.0</ele><time>2026-03-26T15:21:12.998Z</time></trkpt><trkpt lat="41.66503635783429" lon="13.219713695002914"><ele>209.0</ele><time>2026-03-26T15:21:13.998Z</time></trkpt><trkpt lat="41.66483086175609" lon="13.220022970719038"><ele>208.0</ele><time>2026-03-26T15:21:14.998Z</time></trkpt><trkpt lat="41.664628817155034" lon="13.220331619292045"><ele>208.5</ele><time>2026-03-26T15:21:15.998Z</time></trkpt><trkpt lat="41.66442759299677" lon="13.220638021929396"><ele>209.0</ele><time>2026-03-26T15:21:16.998Z</time></trkpt><trkpt lat="41.66422692389045" lon="13.220938538773579"><ele>207.5</ele><time>2026-03-26T15:21:17.998Z</time></trkpt><trkpt lat="41.66402478805857" lon="13.221239095019829"><ele>206.0</ele><time>2026-03-26T15:21:18.998Z</time></trkpt><trkpt lat="41.66382192401507" lon="13.221542311327743"><ele>206.0</ele><time>2026-03-26T15:21:19.998Z</time></trkpt><trkpt lat="41.66361835628186" lon="13.221847504599229"><ele>206.0</ele><time>2026-03-26T15:21:20.998Z</time></trkpt><trkpt lat="41.66341427417642" lon="13.222152070767967"><ele>206.0</ele><time>2026-03-26T15:21:21.998Z</time></trkpt><trkpt lat="41.663211168531554" lon="13.222458303388349"><ele>206.0</ele><time>2026-03-26T15:21:22.998Z</time></trkpt><trkpt lat="41.66301004586168" lon="13.222764387705634"><ele>206.0</ele><time>2026-03-26T15:21:23.998Z</time></trkpt><trkpt lat="41.662807252760906" lon="13.223068938558848"><ele>206.0</ele><time>2026-03-26T15:21:24.998Z</time></trkpt><trkpt lat="41.662600260530475" lon="13.223373714256685"><ele>204.5</ele><time>2026-03-26T15:21:25.998Z</time></trkpt><trkpt lat="41.66239295719411" lon="13.223680250183936"><ele>203.0</ele><time>2026-03-26T15:21:26.998Z</time></trkpt><trkpt lat="41.66218594482779" lon="13.223991373613947"><ele>203.0</ele><time>2026-03-26T15:21:27.998Z</time></trkpt><trkpt lat="41.661982208114814" lon="13.224317038429925"><ele>203.0</ele><time>2026-03-26T15:21:28.998Z</time></trkpt><trkpt lat="41.66177736238682" lon="13.22465267631992"><ele>201.5</ele><time>2026-03-26T15:21:29.998Z</time></trkpt><trkpt lat="41.66156699495534" lon="13.2249861581516"><ele>200.0</ele><time>2026-03-26T15:21:31Z</time></trkpt><trkpt lat="41.66135074158918" lon="13.225315657185531"><ele>200.0</ele><time>2026-03-26T15:21:32Z</time></trkpt><trkpt lat="41.66113509250889" lon="13.225640604446296"><ele>200.0</ele><time>2026-03-26T15:21:33Z</time></trkpt><trkpt lat="41.66091919200254" lon="13.225963772286445"><ele>199.5</ele><time>2026-03-26T15:21:34Z</time></trkpt><trkpt lat="41.66070348401472" lon="13.226284291635995"><ele>199.0</ele><time>2026-03-26T15:21:35Z</time></trkpt><trkpt lat="41.66049006402845" lon="13.22660549244345"><ele>199.0</ele><time>2026-03-26T15:21:36Z</time></trkpt><trkpt lat="41.6602768158343" lon="13.226928215388648"><ele>199.0</ele><time>2026-03-26T15:21:37Z</time></trkpt><trkpt lat="41.66006304997585" lon="13.2272487367904"><ele>192.0</ele><time>2026-03-26T15:21:38Z</time></trkpt><trkpt lat="41.65984895298291" lon="13.227568151265086"><ele>185.0</ele><time>2026-03-26T15:21:39Z</time></trkpt><trkpt lat="41.659636162242016" lon="13.22789062839023"><ele>182.5</ele><time>2026-03-26T15:21:40Z</time></trkpt><trkpt lat="41.65942444513159" lon="13.228214050661327"><ele>180.0</ele><time>2026-03-26T15:21:41Z</time></trkpt><trkpt lat="41.659210657116006" lon="13.228536855195088"><ele>180.0</ele><time>2026-03-26T15:21:42Z</time></trkpt><trkpt lat="41.65899562357249" lon="13.228857116686822"><ele>180.0</ele><time>2026-03-26T15:21:43Z</time></trkpt><trkpt lat="41.65877895605374" lon="13.229179389614284"><ele>176.0</ele><time>2026-03-26T15:21:44Z</time></trkpt><trkpt lat="41.6585627498987" lon="13.229499506582334"><ele>172.0</ele><time>2026-03-26T15:21:45Z</time></trkpt><trkpt lat="41.658348288307664" lon="13.229820301162396"><ele>172.0</ele><time>2026-03-26T15:21:46Z</time></trkpt><trkpt lat="41.658134234073295" lon="13.2301465578459"><ele>172.0</ele><time>2026-03-26T15:21:47Z</time></trkpt><trkpt lat="41.65792154765646" lon="13.230471800135799"><ele>174.0</ele><time>2026-03-26T15:21:48Z</time></trkpt><trkpt lat="41.657707230498964" lon="13.230798837768836"><ele>176.0</ele><time>2026-03-26T15:21:49Z</time></trkpt><trkpt lat="41.65749410109589" lon="13.231119913021475"><ele>176.0</ele><time>2026-03-26T15:21:50Z</time></trkpt><trkpt lat="41.657281123097604" lon="13.231437430770912"><ele>176.0</ele><time>2026-03-26T15:21:50.999Z</time></trkpt><trkpt lat="41.65706728909966" lon="13.231756478244403"><ele>174.5</ele><time>2026-03-26T15:21:51.999Z</time></trkpt><trkpt lat="41.656853911543486" lon="13.232075672936594"><ele>173.0</ele><time>2026-03-26T15:21:52.999Z</time></trkpt><trkpt lat="41.65664238470128" lon="13.232396370401588"><ele>169.5</ele><time>2026-03-26T15:21:53.999Z</time></trkpt><trkpt lat="41.6564343371218" lon="13.232710936765969"><ele>166.0</ele><time>2026-03-26T15:21:54.999Z</time></trkpt><trkpt lat="41.656228117456195" lon="13.233020719830103"><ele>163.0</ele><time>2026-03-26T15:21:55.999Z</time></trkpt><trkpt lat="41.65601823675997" lon="13.233330336001435"><ele>160.0</ele><time>2026-03-26T15:21:56.999Z</time></trkpt><trkpt lat="41.65580434719576" lon="13.233648211562214"><ele>160.0</ele><time>2026-03-26T15:21:57.999Z</time></trkpt><trkpt lat="41.65558999672952" lon="13.233968680438668"><ele>160.0</ele><time>2026-03-26T15:21:58.999Z</time></trkpt><trkpt lat="41.655374715466785" lon="13.234292402992642"><ele>159.0</ele><time>2026-03-26T15:21:59.999Z</time></trkpt><trkpt lat="41.65515686063293" lon="13.234620178702661"><ele>158.0</ele><time>2026-03-26T15:22:00.999Z</time></trkpt><trkpt lat="41.65493758002207" lon="13.234948233536317"><ele>157.0</ele><time>2026-03-26T15:22:01.999Z</time></trkpt><trkpt lat="41.654713869490045" lon="13.235275808815967"><ele>156.0</ele><time>2026-03-26T15:22:02.999Z</time></trkpt><trkpt lat="41.65448966389603" lon="13.23560759179958"><ele>152.0</ele><time>2026-03-26T15:22:03.999Z</time></trkpt><trkpt lat="41.65426497789053" lon="13.235942708236445"><ele>148.0</ele><time>2026-03-26T15:22:04.999Z</time></trkpt><trkpt lat="41.65403988736125" lon="13.236279118641129"><ele>148.0</ele><time>2026-03-26T15:22:05.999Z</time></trkpt><trkpt lat="41.65381548903243" lon="13.236616691729273"><ele>148.0</ele><time>2026-03-26T15:22:06.999Z</time></trkpt><trkpt lat="41.653587996678795" lon="13.236952902762207"><ele>148.0</ele><time>2026-03-26T15:22:07.999Z</time></trkpt><trkpt lat="41.653362158910625" lon="13.237288623738582"><ele>148.0</ele><time>2026-03-26T15:22:08.999Z</time></trkpt><trkpt lat="41.65313625214316" lon="13.23762175895537"><ele>148.5</ele><time>2026-03-26T15:22:09.999Z</time></trkpt><trkpt lat="41.65291697396961" lon="13.237962446285394"><ele>149.0</ele><time>2026-03-26T15:22:10.999Z</time></trkpt><trkpt lat="41.65269641691006" lon="13.238303376976086"><ele>149.0</ele><time>2026-03-26T15:22:11.999Z</time></trkpt><trkpt lat="41.65247304979805" lon="13.238638161376352"><ele>149.0</ele><time>2026-03-26T15:22:12.999Z</time></trkpt><trkpt lat="41.652250587741726" lon="13.238973640083"><ele>148.5</ele><time>2026-03-26T15:22:13.999Z</time></trkpt><trkpt lat="41.65202761928835" lon="13.239311326267039"><ele>148.0</ele><time>2026-03-26T15:22:14.999Z</time></trkpt><trkpt lat="41.65180557425852" lon="13.239646201126183"><ele>148.5</ele><time>2026-03-26T15:22:15.999Z</time></trkpt><trkpt lat="41.65158466903277" lon="13.239981253344961"><ele>149.0</ele><time>2026-03-26T15:22:16.999Z</time></trkpt><trkpt lat="41.651363840991245" lon="13.240317471817198"><ele>149.0</ele><time>2026-03-26T15:22:17.999Z</time></trkpt><trkpt lat="41.65114486572005" lon="13.240650885274853"><ele>149.0</ele><time>2026-03-26T15:22:18.999Z</time></trkpt><trkpt lat="41.65092927966725" lon="13.24098156654012"><ele>149.5</ele><time>2026-03-26T15:22:19.999Z</time></trkpt><trkpt lat="41.65071688673121" lon="13.241311989958671"><ele>150.0</ele><time>2026-03-26T15:22:20.999Z</time></trkpt><trkpt lat="41.65051066031696" lon="13.241640651029263"><ele>150.0</ele><time>2026-03-26T15:22:21.999Z</time></trkpt><trkpt lat="41.65031268639668" lon="13.24197032924758"><ele>150.0</ele><time>2026-03-26T15:22:22.999Z</time></trkpt><trkpt lat="41.65012256874081" lon="13.242305596369652"><ele>149.5</ele><time>2026-03-26T15:22:23.999Z</time></trkpt><trkpt lat="41.64993937221731" lon="13.242641089391737"><ele>149.0</ele><time>2026-03-26T15:22:24.999Z</time></trkpt><trkpt lat="41.64975855061262" lon="13.242981732700162"><ele>149.0</ele><time>2026-03-26T15:22:25.999Z</time></trkpt><trkpt lat="41.64957851233537" lon="13.243330111173256"><ele>149.0</ele><time>2026-03-26T15:22:26.999Z</time></trkpt><trkpt lat="41.64940111574853" lon="13.243682493649953"><ele>148.5</ele><time>2026-03-26T15:22:27.999Z</time></trkpt><trkpt lat="41.64922985055619" lon="13.244040858431353"><ele>148.0</ele><time>2026-03-26T15:22:28.999Z</time></trkpt><trkpt lat="41.649065876203046" lon="13.244404621565526"><ele>148.0</ele><time>2026-03-26T15:22:29.999Z</time></trkpt><trkpt lat="41.64890703794858" lon="13.244774426868606"><ele>148.0</ele><time>2026-03-26T15:22:30.999Z</time></trkpt><trkpt lat="41.64875119577758" lon="13.24514524295587"><ele>147.0</ele><time>2026-03-26T15:22:31.999Z</time></trkpt><trkpt lat="41.64859757516444" lon="13.245513306579461"><ele>146.0</ele><time>2026-03-26T15:22:32.999Z</time></trkpt><trkpt lat="41.6484448223017" lon="13.245883523005316"><ele>145.5</ele><time>2026-03-26T15:22:33.999Z</time></trkpt><trkpt lat="41.648293967885955" lon="13.24625560810073"><ele>145.0</ele><time>2026-03-26T15:22:34.999Z</time></trkpt><trkpt lat="41.648143826528134" lon="13.24662696938383"><ele>146.5</ele><time>2026-03-26T15:22:35.999Z</time></trkpt><trkpt lat="41.64799409580396" lon="13.246998781027647"><ele>148.0</ele><time>2026-03-26T15:22:36.999Z</time></trkpt><trkpt lat="41.64784400441857" lon="13.247371894879576"><ele>146.5</ele><time>2026-03-26T15:22:37.999Z</time></trkpt><trkpt lat="41.64769263847402" lon="13.247744065778258"><ele>145.0</ele><time>2026-03-26T15:22:38.999Z</time></trkpt><trkpt lat="41.647541866714356" lon="13.248113321960606"><ele>145.5</ele><time>2026-03-26T15:22:39.999Z</time></trkpt><trkpt lat="41.647392271805195" lon="13.248485666723907"><ele>146.0</ele><time>2026-03-26T15:22:40.999Z</time></trkpt><trkpt lat="41.64724246333931" lon="13.248858477758452"><ele>146.0</ele><time>2026-03-26T15:22:41.999Z</time></trkpt><trkpt lat="41.647091959206925" lon="13.249231047649884"><ele>146.0</ele><time>2026-03-26T15:22:42.999Z</time></trkpt><trkpt lat="41.64694120563371" lon="13.249601542078631"><ele>145.5</ele><time>2026-03-26T15:22:43.999Z</time></trkpt><trkpt lat="41.64679066110873" lon="13.249977550864225"><ele>145.0</ele><time>2026-03-26T15:22:44.999Z</time></trkpt><trkpt lat="41.64664037066716" lon="13.25035083793899"><ele>145.0</ele><time>2026-03-26T15:22:45.999Z</time></trkpt><trkpt lat="41.64648876875484" lon="13.25072521283332"><ele>145.0</ele><time>2026-03-26T15:22:46.999Z</time></trkpt><trkpt lat="41.64633740257358" lon="13.251099342598996"><ele>144.5</ele><time>2026-03-26T15:22:47.999Z</time></trkpt><trkpt lat="41.646187445018924" lon="13.251470991052496"><ele>144.0</ele><time>2026-03-26T15:22:48.999Z</time></trkpt><trkpt lat="41.64603722944475" lon="13.251842382465469"><ele>142.5</ele><time>2026-03-26T15:22:49.999Z</time></trkpt><trkpt lat="41.6458876925225" lon="13.252212125488311"><ele>141.0</ele><time>2026-03-26T15:22:50.999Z</time></trkpt><trkpt lat="41.64573702604029" lon="13.2525811183023"><ele>141.0</ele><time>2026-03-26T15:22:51.999Z</time></trkpt><trkpt lat="41.64558540943126" lon="13.25294997037205"><ele>141.0</ele><time>2026-03-26T15:22:52.999Z</time></trkpt><trkpt lat="41.6454349544979" lon="13.253319940633384"><ele>143.5</ele><time>2026-03-26T15:22:53.999Z</time></trkpt><trkpt lat="41.64528454306929" lon="13.253689961329268"><ele>146.0</ele><time>2026-03-26T15:22:54.999Z</time></trkpt><trkpt lat="41.64513232843911" lon="13.25406682367781"><ele>146.0</ele><time>2026-03-26T15:22:55.999Z</time></trkpt><trkpt lat="41.64498222810153" lon="13.254439103403467"><ele>146.0</ele><time>2026-03-26T15:22:56.999Z</time></trkpt><trkpt lat="41.64483392776198" lon="13.254811494478702"><ele>146.0</ele><time>2026-03-26T15:22:57.999Z</time></trkpt><trkpt lat="41.64468355714401" lon="13.255184321999291"><ele>146.0</ele><time>2026-03-26T15:22:58.999Z</time></trkpt><trkpt lat="41.64453197506128" lon="13.255553595754673"><ele>147.0</ele><time>2026-03-26T15:22:59.999Z</time></trkpt><trkpt lat="41.644379775009355" lon="13.25592389110906"><ele>148.0</ele><time>2026-03-26T15:23:00.999Z</time></trkpt><trkpt lat="41.64422729129897" lon="13.256297408209255"><ele>148.0</ele><time>2026-03-26T15:23:01.999Z</time></trkpt><trkpt lat="41.64407518894036" lon="13.256670672156266"><ele>148.0</ele><time>2026-03-26T15:23:02.999Z</time></trkpt><trkpt lat="41.6439237415955" lon="13.257046057403578"><ele>148.0</ele><time>2026-03-26T15:23:03.999Z</time></trkpt><trkpt lat="41.643771677215874" lon="13.257422133673238"><ele>148.0</ele><time>2026-03-26T15:23:04.999Z</time></trkpt><trkpt lat="41.64361849352602" lon="13.257799536256844"><ele>148.0</ele><time>2026-03-26T15:23:05.999Z</time></trkpt><trkpt lat="41.64346521771862" lon="13.258176617158876"><ele>148.0</ele><time>2026-03-26T15:23:06.999Z</time></trkpt><trkpt lat="41.64331126136085" lon="13.258555970335474"><ele>148.0</ele><time>2026-03-26T15:23:07.999Z</time></trkpt><trkpt lat="41.64315737854017" lon="13.25893581029645"><ele>148.0</ele><time>2026-03-26T15:23:08.999Z</time></trkpt><trkpt lat="41.6430003000746" lon="13.259315906637017"><ele>148.0</ele><time>2026-03-26T15:23:09.999Z</time></trkpt><trkpt lat="41.64283759680354" lon="13.25969238025907"><ele>148.0</ele><time>2026-03-26T15:23:10.999Z</time></trkpt><trkpt lat="41.64266757698057" lon="13.260062996125756"><ele>148.0</ele><time>2026-03-26T15:23:11.999Z</time></trkpt><trkpt lat="41.64249098624872" lon="13.260431358477565"><ele>148.0</ele><time>2026-03-26T15:23:12.999Z</time></trkpt><trkpt lat="41.64230852387868" lon="13.26079651158281"><ele>148.0</ele><time>2026-03-26T15:23:13.999Z</time></trkpt><trkpt lat="41.642120891755376" lon="13.261154892427788"><ele>148.0</ele><time>2026-03-26T15:23:14.999Z</time></trkpt><trkpt lat="41.64192955724388" lon="13.261506695776236"><ele>148.5</ele><time>2026-03-26T15:23:15.999Z</time></trkpt><trkpt lat="41.64173407644228" lon="13.261855169022303"><ele>149.0</ele><time>2026-03-26T15:23:16.999Z</time></trkpt><trkpt lat="41.64153209777729" lon="13.26220086103253"><ele>148.0</ele><time>2026-03-26T15:23:17.999Z</time></trkpt><trkpt lat="41.64132821142755" lon="13.262545310016373"><ele>147.0</ele><time>2026-03-26T15:23:18.999Z</time></trkpt><trkpt lat="41.641118789608726" lon="13.262883745907457"><ele>147.5</ele><time>2026-03-26T15:23:19.998Z</time></trkpt><trkpt lat="41.6409032481803" lon="13.26321427891066"><ele>148.0</ele><time>2026-03-26T15:23:20.998Z</time></trkpt><trkpt lat="41.64068365121252" lon="13.263544172004663"><ele>148.0</ele><time>2026-03-26T15:23:21.998Z</time></trkpt><trkpt lat="41.64045491934021" lon="13.263865745781791"><ele>148.0</ele><time>2026-03-26T15:23:22.998Z</time></trkpt><trkpt lat="41.640225224813854" lon="13.264175571233107"><ele>147.0</ele><time>2026-03-26T15:23:23.998Z</time></trkpt><trkpt lat="41.639997252029374" lon="13.264475660057633"><ele>146.0</ele><time>2026-03-26T15:23:24.998Z</time></trkpt><trkpt lat="41.63977406078931" lon="13.264772158156934"><ele>145.5</ele><time>2026-03-26T15:23:25.998Z</time></trkpt><trkpt lat="41.63954544173592" lon="13.265058247897699"><ele>145.0</ele><time>2026-03-26T15:23:26.998Z</time></trkpt><trkpt lat="41.639314884436665" lon="13.265337527206404"><ele>146.5</ele><time>2026-03-26T15:23:27.998Z</time></trkpt><trkpt lat="41.639082197762036" lon="13.265616935065221"><ele>148.0</ele><time>2026-03-26T15:23:28.998Z</time></trkpt><trkpt lat="41.638850875121484" lon="13.265901666034994"><ele>148.5</ele><time>2026-03-26T15:23:29.998Z</time></trkpt><trkpt lat="41.63862219010553" lon="13.266188087716325"><ele>149.0</ele><time>2026-03-26T15:23:30.998Z</time></trkpt><trkpt lat="41.63839421608323" lon="13.26647702025377"><ele>149.0</ele><time>2026-03-26T15:23:31.998Z</time></trkpt><trkpt lat="41.63816629131688" lon="13.266766109355036"><ele>149.0</ele><time>2026-03-26T15:23:32.998Z</time></trkpt><trkpt lat="41.637938809816006" lon="13.26705359455105"><ele>149.5</ele><time>2026-03-26T15:23:33.998Z</time></trkpt><trkpt lat="41.63771360980015" lon="13.267340443512714"><ele>150.0</ele><time>2026-03-26T15:23:34.998Z</time></trkpt><trkpt lat="41.637488776784025" lon="13.267629656389824"><ele>150.0</ele><time>2026-03-26T15:23:36Z</time></trkpt><trkpt lat="41.63726605801762" lon="13.267918103162366"><ele>150.0</ele><time>2026-03-26T15:23:37Z</time></trkpt><trkpt lat="41.63704475575403" lon="13.268206444427985"><ele>151.5</ele><time>2026-03-26T15:23:38Z</time></trkpt><trkpt lat="41.63682240302754" lon="13.268496915235842"><ele>153.0</ele><time>2026-03-26T15:23:39Z</time></trkpt><trkpt lat="41.63659915179375" lon="13.268780660512641"><ele>152.5</ele><time>2026-03-26T15:23:40Z</time></trkpt><trkpt lat="41.63637560688483" lon="13.269062791438664"><ele>152.0</ele><time>2026-03-26T15:23:41Z</time></trkpt><trkpt lat="41.636152122173606" lon="13.269343866619861"><ele>152.0</ele><time>2026-03-26T15:23:42Z</time></trkpt><trkpt lat="41.63592837151224" lon="13.26962716528254"><ele>152.0</ele><time>2026-03-26T15:23:43Z</time></trkpt><trkpt lat="41.635706245368816" lon="13.269909922621787"><ele>152.0</ele><time>2026-03-26T15:23:44Z</time></trkpt><trkpt lat="41.635485315247394" lon="13.270196308495752"><ele>152.0</ele><time>2026-03-26T15:23:45Z</time></trkpt><trkpt lat="41.63526355347165" lon="13.270485699683546"><ele>153.5</ele><time>2026-03-26T15:23:46Z</time></trkpt><trkpt lat="41.63504427980718" lon="13.270778517580785"><ele>155.0</ele><time>2026-03-26T15:23:47Z</time></trkpt><trkpt lat="41.63482672091947" lon="13.271073988793269"><ele>155.0</ele><time>2026-03-26T15:23:48Z</time></trkpt><trkpt lat="41.634616585061195" lon="13.27137520900394"><ele>155.0</ele><time>2026-03-26T15:23:49Z</time></trkpt><trkpt lat="41.63440602972624" lon="13.271683859060953"><ele>154.5</ele><time>2026-03-26T15:23:50Z</time></trkpt><trkpt lat="41.634203641613446" lon="13.272001214938292"><ele>154.0</ele><time>2026-03-26T15:23:51Z</time></trkpt><trkpt lat="41.6340047079345" lon="13.272328306499608"><ele>154.0</ele><time>2026-03-26T15:23:52Z</time></trkpt><trkpt lat="41.63381324778494" lon="13.2726625099162"><ele>154.0</ele><time>2026-03-26T15:23:53Z</time></trkpt><trkpt lat="41.63362310138205" lon="13.272999878110644"><ele>156.5</ele><time>2026-03-26T15:23:54Z</time></trkpt><trkpt lat="41.633440567519266" lon="13.273345311888264"><ele>159.0</ele><time>2026-03-26T15:23:55Z</time></trkpt><trkpt lat="41.63326197322952" lon="13.273694110228261"><ele>157.0</ele><time>2026-03-26T15:23:56Z</time></trkpt><trkpt lat="41.63308870595989" lon="13.274057477522655"><ele>155.0</ele><time>2026-03-26T15:23:57Z</time></trkpt><trkpt lat="41.63292286399084" lon="13.27442846578221"><ele>155.0</ele><time>2026-03-26T15:23:58Z</time></trkpt><trkpt lat="41.63276267922137" lon="13.274801851550091"><ele>155.0</ele><time>2026-03-26T15:23:58.999Z</time></trkpt><trkpt lat="41.63261193581522" lon="13.275184013141192"><ele>155.0</ele><time>2026-03-26T15:23:59.999Z</time></trkpt><trkpt lat="41.632464463550946" lon="13.275570373499235"><ele>155.0</ele><time>2026-03-26T15:24:00.999Z</time></trkpt><trkpt lat="41.63232530566126" lon="13.27596263600559"><ele>155.0</ele><time>2026-03-26T15:24:01.999Z</time></trkpt><trkpt lat="41.63219091714437" lon="13.276359504390715"><ele>155.0</ele><time>2026-03-26T15:24:02.999Z</time></trkpt><trkpt lat="41.6320549377589" lon="13.276755025870068"><ele>155.0</ele><time>2026-03-26T15:24:03.999Z</time></trkpt><trkpt lat="41.631920347302525" lon="13.277154657289662"><ele>155.0</ele><time>2026-03-26T15:24:04.999Z</time></trkpt><trkpt lat="41.63177937809849" lon="13.277546014652463"><ele>155.5</ele><time>2026-03-26T15:24:05.999Z</time></trkpt><trkpt lat="41.63163911317957" lon="13.27793875033852"><ele>156.0</ele><time>2026-03-26T15:24:06.999Z</time></trkpt><trkpt lat="41.631497814636056" lon="13.278331617752128"><ele>157.5</ele><time>2026-03-26T15:24:07.999Z</time></trkpt><trkpt lat="41.63135900431902" lon="13.278724855617817"><ele>159.0</ele><time>2026-03-26T15:24:08.999Z</time></trkpt><trkpt lat="41.631216828549164" lon="13.27911721525078"><ele>157.5</ele><time>2026-03-26T15:24:09.999Z</time></trkpt><trkpt lat="41.63107361781749" lon="13.279508284583953"><ele>156.0</ele><time>2026-03-26T15:24:10.999Z</time></trkpt><trkpt lat="41.630928682386795" lon="13.279896627853947"><ele>156.0</ele><time>2026-03-26T15:24:11.999Z</time></trkpt><trkpt lat="41.63078325551003" lon="13.280286856114701"><ele>156.0</ele><time>2026-03-26T15:24:12.999Z</time></trkpt><trkpt lat="41.63064150501969" lon="13.280676306409282"><ele>156.0</ele><time>2026-03-26T15:24:13.999Z</time></trkpt><trkpt lat="41.63049964326699" lon="13.281067188753537"><ele>156.0</ele><time>2026-03-26T15:24:14.999Z</time></trkpt><trkpt lat="41.63035861064686" lon="13.281460309160098"><ele>154.0</ele><time>2026-03-26T15:24:15.999Z</time></trkpt><trkpt lat="41.630218173547405" lon="13.28185155088995"><ele>152.0</ele><time>2026-03-26T15:24:16.999Z</time></trkpt><trkpt lat="41.63007815187049" lon="13.282244591280696"><ele>153.0</ele><time>2026-03-26T15:24:17.999Z</time></trkpt><trkpt lat="41.62993923088365" lon="13.28263622608529"><ele>154.0</ele><time>2026-03-26T15:24:18.999Z</time></trkpt><trkpt lat="41.62980044782917" lon="13.283029141410607"><ele>153.5</ele><time>2026-03-26T15:24:19.999Z</time></trkpt><trkpt lat="41.62966482215925" lon="13.283420525213925"><ele>153.0</ele><time>2026-03-26T15:24:20.999Z</time></trkpt><trkpt lat="41.62953040711734" lon="13.283806219811401"><ele>150.5</ele><time>2026-03-26T15:24:21.999Z</time></trkpt><trkpt lat="41.629396523838544" lon="13.284185155544163"><ele>148.0</ele><time>2026-03-26T15:24:22.999Z</time></trkpt><trkpt lat="41.62926457744812" lon="13.284561186669054"><ele>150.0</ele><time>2026-03-26T15:24:23.999Z</time></trkpt><trkpt lat="41.62913226693457" lon="13.284937191047149"><ele>152.0</ele><time>2026-03-26T15:24:24.999Z</time></trkpt><trkpt lat="41.62900195995932" lon="13.285313011600662"><ele>153.5</ele><time>2026-03-26T15:24:25.999Z</time></trkpt><trkpt lat="41.62886723648028" lon="13.285690097591345"><ele>155.0</ele><time>2026-03-26T15:24:26.999Z</time></trkpt><trkpt lat="41.628732740350564" lon="13.286070806817008"><ele>152.5</ele><time>2026-03-26T15:24:27.999Z</time></trkpt><trkpt lat="41.62859905359103" lon="13.2864511048559"><ele>150.0</ele><time>2026-03-26T15:24:28.999Z</time></trkpt><trkpt lat="41.62846307659407" lon="13.286838587211117"><ele>150.0</ele><time>2026-03-26T15:24:29.999Z</time></trkpt><trkpt lat="41.628325767142066" lon="13.287227255042358"><ele>150.0</ele><time>2026-03-26T15:24:30.999Z</time></trkpt><trkpt lat="41.62818779644031" lon="13.28762562504784"><ele>152.0</ele><time>2026-03-26T15:24:31.999Z</time></trkpt><trkpt lat="41.628046043602836" lon="13.288024237284134"><ele>154.0</ele><time>2026-03-26T15:24:32.999Z</time></trkpt><trkpt lat="41.62790396380071" lon="13.288426612501866"><ele>153.5</ele><time>2026-03-26T15:24:33.999Z</time></trkpt><trkpt lat="41.6277644587229" lon="13.288830855506026"><ele>153.0</ele><time>2026-03-26T15:24:34.999Z</time></trkpt><trkpt lat="41.62762459412013" lon="13.289228219615406"><ele>155.0</ele><time>2026-03-26T15:24:35.999Z</time></trkpt><trkpt lat="41.62748696443661" lon="13.289624393114686"><ele>157.0</ele><time>2026-03-26T15:24:36.999Z</time></trkpt><trkpt lat="41.62734779014648" lon="13.290014892620228"><ele>157.0</ele><time>2026-03-26T15:24:37.999Z</time></trkpt><trkpt lat="41.62721099281506" lon="13.290403735801851"><ele>157.0</ele><time>2026-03-26T15:24:38.999Z</time></trkpt><trkpt lat="41.627075281706944" lon="13.29078914909616"><ele>157.0</ele><time>2026-03-26T15:24:39.999Z</time></trkpt><trkpt lat="41.62694101409974" lon="13.291172776080394"><ele>157.0</ele><time>2026-03-26T15:24:40.999Z</time></trkpt><trkpt lat="41.626806022965475" lon="13.291556468075287"><ele>157.0</ele><time>2026-03-26T15:24:41.999Z</time></trkpt><trkpt lat="41.62667129107205" lon="13.29193654887566"><ele>157.0</ele><time>2026-03-26T15:24:42.999Z</time></trkpt><trkpt lat="41.62654224547421" lon="13.292314419472477"><ele>161.0</ele><time>2026-03-26T15:24:43.999Z</time></trkpt><trkpt lat="41.626416876483994" lon="13.292691938917452"><ele>165.0</ele><time>2026-03-26T15:24:44.999Z</time></trkpt><trkpt lat="41.62629239346464" lon="13.293064106407517"><ele>166.0</ele><time>2026-03-26T15:24:45.999Z</time></trkpt><trkpt lat="41.62616976263149" lon="13.293431904320075"><ele>167.0</ele><time>2026-03-26T15:24:46.999Z</time></trkpt><trkpt lat="41.626045386342625" lon="13.293799726936266"><ele>166.0</ele><time>2026-03-26T15:24:47.999Z</time></trkpt><trkpt lat="41.625919034131954" lon="13.294168905083584"><ele>165.0</ele><time>2026-03-26T15:24:48.999Z</time></trkpt><trkpt lat="41.62578972337748" lon="13.29454603568253"><ele>166.0</ele><time>2026-03-26T15:24:49.999Z</time></trkpt><trkpt lat="41.62565859737604" lon="13.294927963295827"><ele>167.0</ele><time>2026-03-26T15:24:50.999Z</time></trkpt><trkpt lat="41.625523236496676" lon="13.29531271459073"><ele>166.5</ele><time>2026-03-26T15:24:51.999Z</time></trkpt><trkpt lat="41.62538822649889" lon="13.295699331886603"><ele>166.0</ele><time>2026-03-26T15:24:52.999Z</time></trkpt><trkpt lat="41.62525291986455" lon="13.296083634451493"><ele>162.5</ele><time>2026-03-26T15:24:53.999Z</time></trkpt><trkpt lat="41.62512135258774" lon="13.296465828165578"><ele>159.0</ele><time>2026-03-26T15:24:54.999Z</time></trkpt><trkpt lat="41.6249883153797" lon="13.296844637996085"><ele>159.0</ele><time>2026-03-26T15:24:55.999Z</time></trkpt><trkpt lat="41.62485589619754" lon="13.297220131195864"><ele>159.0</ele><time>2026-03-26T15:24:56.999Z</time></trkpt><trkpt lat="41.62473056988611" lon="13.297578629883274"><ele>161.0</ele><time>2026-03-26T15:24:57.999Z</time></trkpt><trkpt lat="41.624608679905386" lon="13.297931275220764"><ele>163.0</ele><time>2026-03-26T15:24:58.999Z</time></trkpt><trkpt lat="41.62448396186447" lon="13.298282551892198"><ele>163.0</ele><time>2026-03-26T15:24:59.999Z</time></trkpt><trkpt lat="41.62435978413413" lon="13.298633351058227"><ele>163.0</ele><time>2026-03-26T15:25:00.999Z</time></trkpt><trkpt lat="41.6242400578985" lon="13.29898341263849"><ele>163.5</ele><time>2026-03-26T15:25:01.999Z</time></trkpt><trkpt lat="41.62411888421989" lon="13.299332656507424"><ele>164.0</ele><time>2026-03-26T15:25:02.999Z</time></trkpt><trkpt lat="41.62399405544069" lon="13.299682963820434"><ele>165.0</ele><time>2026-03-26T15:25:03.999Z</time></trkpt><trkpt lat="41.62386743443358" lon="13.300034790447306"><ele>166.0</ele><time>2026-03-26T15:25:04.999Z</time></trkpt><trkpt lat="41.623741340178626" lon="13.300388490649677"><ele>166.5</ele><time>2026-03-26T15:25:05.999Z</time></trkpt><trkpt lat="41.62361383328355" lon="13.300750052594951"><ele>167.0</ele><time>2026-03-26T15:25:06.999Z</time></trkpt><trkpt lat="41.62348318041866" lon="13.301115207968744"><ele>166.5</ele><time>2026-03-26T15:25:07.999Z</time></trkpt><trkpt lat="41.62335092124379" lon="13.30148859193979"><ele>166.0</ele><time>2026-03-26T15:25:08.999Z</time></trkpt><trkpt lat="41.62321966769987" lon="13.301869583477023"><ele>165.5</ele><time>2026-03-26T15:25:09.999Z</time></trkpt><trkpt lat="41.62308778003768" lon="13.302249985490311"><ele>165.0</ele><time>2026-03-26T15:25:10.999Z</time></trkpt><trkpt lat="41.62295422134546" lon="13.30263109041457"><ele>165.0</ele><time>2026-03-26T15:25:11.999Z</time></trkpt><trkpt lat="41.622818347614675" lon="13.303012509364503"><ele>165.0</ele><time>2026-03-26T15:25:12.999Z</time></trkpt><trkpt lat="41.62268346936939" lon="13.303395147278183"><ele>162.0</ele><time>2026-03-26T15:25:13.999Z</time></trkpt><trkpt lat="41.62254682405422" lon="13.303775727132168"><ele>159.0</ele><time>2026-03-26T15:25:14.999Z</time></trkpt><trkpt lat="41.622411001485005" lon="13.304155504819906"><ele>158.5</ele><time>2026-03-26T15:25:15.999Z</time></trkpt><trkpt lat="41.622275882378176" lon="13.30454014885896"><ele>158.0</ele><time>2026-03-26T15:25:16.999Z</time></trkpt><trkpt lat="41.62214321454725" lon="13.304924297170684"><ele>156.5</ele><time>2026-03-26T15:25:17.999Z</time></trkpt><trkpt lat="41.62200853245905" lon="13.305310516295595"><ele>155.0</ele><time>2026-03-26T15:25:18.999Z</time></trkpt><trkpt lat="41.62187242240187" lon="13.305703143489813"><ele>151.0</ele><time>2026-03-26T15:25:19.999Z</time></trkpt><trkpt lat="41.62173388259857" lon="13.306095709379099"><ele>147.0</ele><time>2026-03-26T15:25:20.999Z</time></trkpt><trkpt lat="41.62159701922984" lon="13.306494996248093"><ele>147.0</ele><time>2026-03-26T15:25:21.999Z</time></trkpt><trkpt lat="41.6214594695453" lon="13.306889309048552"><ele>147.0</ele><time>2026-03-26T15:25:22.999Z</time></trkpt><trkpt lat="41.62132006733199" lon="13.307276450933829"><ele>148.0</ele><time>2026-03-26T15:25:23.999Z</time></trkpt><trkpt lat="41.6211797394714" lon="13.307660242211844"><ele>149.0</ele><time>2026-03-26T15:25:24.999Z</time></trkpt><trkpt lat="41.621040026017305" lon="13.308038146554368"><ele>149.5</ele><time>2026-03-26T15:25:25.999Z</time></trkpt><trkpt lat="41.62090202822208" lon="13.30841346087608"><ele>150.0</ele><time>2026-03-26T15:25:26.999Z</time></trkpt><trkpt lat="41.62076591261387" lon="13.308786825998274"><ele>150.5</ele><time>2026-03-26T15:25:27.999Z</time></trkpt><trkpt lat="41.62063209494684" lon="13.309161069017453"><ele>151.0</ele><time>2026-03-26T15:25:28.999Z</time></trkpt><trkpt lat="41.62049916951002" lon="13.309533558358261"><ele>150.5</ele><time>2026-03-26T15:25:29.998Z</time></trkpt><trkpt lat="41.62036718158135" lon="13.309905699601378"><ele>150.0</ele><time>2026-03-26T15:25:30.998Z</time></trkpt><trkpt lat="41.62023575799368" lon="13.310284517137873"><ele>148.5</ele><time>2026-03-26T15:25:31.998Z</time></trkpt><trkpt lat="41.620103494678226" lon="13.310661426168226"><ele>147.0</ele><time>2026-03-26T15:25:32.998Z</time></trkpt><trkpt lat="41.619973821589134" lon="13.311039279592064"><ele>147.5</ele><time>2026-03-26T15:25:33.998Z</time></trkpt><trkpt lat="41.61984582623796" lon="13.311418223547436"><ele>148.0</ele><time>2026-03-26T15:25:34.998Z</time></trkpt><trkpt lat="41.61971682761337" lon="13.31179976210481"><ele>148.0</ele><time>2026-03-26T15:25:35.998Z</time></trkpt><trkpt lat="41.61958640846364" lon="13.312179632600602"><ele>148.0</ele><time>2026-03-26T15:25:36.998Z</time></trkpt><trkpt lat="41.61945563662426" lon="13.312561457662781"><ele>148.5</ele><time>2026-03-26T15:25:37.998Z</time></trkpt><trkpt lat="41.61932213604344" lon="13.31294635622424"><ele>149.0</ele><time>2026-03-26T15:25:38.998Z</time></trkpt><trkpt lat="41.61918751868727" lon="13.31332996739105"><ele>149.0</ele><time>2026-03-26T15:25:39.998Z</time></trkpt><trkpt lat="41.619052228868796" lon="13.313715508295259"><ele>149.0</ele><time>2026-03-26T15:25:40.998Z</time></trkpt><trkpt lat="41.61891565412337" lon="13.31410296888675"><ele>149.0</ele><time>2026-03-26T15:25:42Z</time></trkpt><trkpt lat="41.618781241950934" lon="13.31449230469875"><ele>149.0</ele><time>2026-03-26T15:25:43Z</time></trkpt><trkpt lat="41.618649015588765" lon="13.31488348993676"><ele>150.0</ele><time>2026-03-26T15:25:44Z</time></trkpt><trkpt lat="41.61851563325984" lon="13.315270202465413"><ele>151.0</ele><time>2026-03-26T15:25:45Z</time></trkpt><trkpt lat="41.618379226476954" lon="13.315656716167334"><ele>151.0</ele><time>2026-03-26T15:25:46Z</time></trkpt><trkpt lat="41.61824103502094" lon="13.316040158498213"><ele>151.0</ele><time>2026-03-26T15:25:47Z</time></trkpt><trkpt lat="41.618102251346805" lon="13.316421405916893"><ele>152.0</ele><time>2026-03-26T15:25:48Z</time></trkpt><trkpt lat="41.6179632212409" lon="13.31680112641208"><ele>153.0</ele><time>2026-03-26T15:25:49Z</time></trkpt><trkpt lat="41.617826447751824" lon="13.317180442379396"><ele>154.5</ele><time>2026-03-26T15:25:50Z</time></trkpt><trkpt lat="41.617692437160784" lon="13.317557935767505"><ele>156.0</ele><time>2026-03-26T15:25:51Z</time></trkpt><trkpt lat="41.617560994692525" lon="13.31793238484052"><ele>156.0</ele><time>2026-03-26T15:25:52Z</time></trkpt><trkpt lat="41.61743059773898" lon="13.318306718998738"><ele>156.0</ele><time>2026-03-26T15:25:53Z</time></trkpt><trkpt lat="41.61729961084236" lon="13.318677718803725"><ele>157.5</ele><time>2026-03-26T15:25:54Z</time></trkpt><trkpt lat="41.61716833707337" lon="13.319048735962173"><ele>159.0</ele><time>2026-03-26T15:25:55Z</time></trkpt><trkpt lat="41.61703854273498" lon="13.319418330132613"><ele>165.0</ele><time>2026-03-26T15:25:56Z</time></trkpt><trkpt lat="41.61690869040899" lon="13.31979227628754"><ele>171.0</ele><time>2026-03-26T15:25:57Z</time></trkpt><trkpt lat="41.61677724393" lon="13.320167237409409"><ele>171.0</ele><time>2026-03-26T15:25:58Z</time></trkpt><trkpt lat="41.616644900668504" lon="13.320545528906575"><ele>171.0</ele><time>2026-03-26T15:25:59Z</time></trkpt><trkpt lat="41.616510761601596" lon="13.320929428603511"><ele>169.5</ele><time>2026-03-26T15:26:00Z</time></trkpt><trkpt lat="41.61637456038824" lon="13.321314472805453"><ele>168.0</ele><time>2026-03-26T15:26:01Z</time></trkpt><trkpt lat="41.616238553800585" lon="13.321704013871464"><ele>167.0</ele><time>2026-03-26T15:26:02Z</time></trkpt><trkpt lat="41.616100212653805" lon="13.322096896049848"><ele>166.0</ele><time>2026-03-26T15:26:03Z</time></trkpt><trkpt lat="41.61596355647574" lon="13.322492185093529"><ele>165.5</ele><time>2026-03-26T15:26:04Z</time></trkpt><trkpt lat="41.61582567432399" lon="13.322891694734151"><ele>165.0</ele><time>2026-03-26T15:26:05Z</time></trkpt><trkpt lat="41.615684548809625" lon="13.323293164834636"><ele>164.5</ele><time>2026-03-26T15:26:06Z</time></trkpt><trkpt lat="41.61554417545363" lon="13.323697052936778"><ele>164.0</ele><time>2026-03-26T15:26:06.999Z</time></trkpt><trkpt lat="41.61540052796063" lon="13.324097535274934"><ele>163.5</ele><time>2026-03-26T15:26:07.999Z</time></trkpt><trkpt lat="41.6152546441207" lon="13.3244913762486"><ele>163.0</ele><time>2026-03-26T15:26:08.999Z</time></trkpt><trkpt lat="41.61510489061043" lon="13.324877885769983"><ele>162.0</ele><time>2026-03-26T15:26:09.999Z</time></trkpt><trkpt lat="41.61494430044786" lon="13.32524835843801"><ele>161.0</ele><time>2026-03-26T15:26:10.999Z</time></trkpt><trkpt lat="41.614774588412544" lon="13.32560859236965"><ele>160.0</ele><time>2026-03-26T15:26:11.999Z</time></trkpt><trkpt lat="41.614593893309475" lon="13.325958209650935"><ele>159.0</ele><time>2026-03-26T15:26:12.999Z</time></trkpt><trkpt lat="41.61440094552131" lon="13.326298018550768"><ele>157.5</ele><time>2026-03-26T15:26:13.999Z</time></trkpt><trkpt lat="41.6141989453551" lon="13.32662790869479"><ele>156.0</ele><time>2026-03-26T15:26:14.999Z</time></trkpt><trkpt lat="41.61398837247982" lon="13.326944773765147"><ele>156.5</ele><time>2026-03-26T15:26:15.999Z</time></trkpt><trkpt lat="41.61377131535287" lon="13.327256723901426"><ele>157.0</ele><time>2026-03-26T15:26:16.999Z</time></trkpt><trkpt lat="41.613546280579826" lon="13.327554757241124"><ele>155.0</ele><time>2026-03-26T15:26:17.999Z</time></trkpt><trkpt lat="41.6133111013155" lon="13.327835522047842"><ele>153.0</ele><time>2026-03-26T15:26:18.999Z</time></trkpt><trkpt lat="41.613066945462684" lon="13.328103800201083"><ele>153.5</ele><time>2026-03-26T15:26:19.999Z</time></trkpt><trkpt lat="41.612813499843725" lon="13.32836068690293"><ele>154.0</ele><time>2026-03-26T15:26:20.999Z</time></trkpt><trkpt lat="41.6125515753187" lon="13.328606867868723"><ele>154.0</ele><time>2026-03-26T15:26:21.999Z</time></trkpt><trkpt lat="41.61228382961252" lon="13.3288414336298"><ele>154.0</ele><time>2026-03-26T15:26:22.999Z</time></trkpt><trkpt lat="41.61200809879882" lon="13.329063328444214"><ele>154.0</ele><time>2026-03-26T15:26:23.999Z</time></trkpt><trkpt lat="41.611729225818614" lon="13.32927306551684"><ele>154.0</ele><time>2026-03-26T15:26:24.999Z</time></trkpt><trkpt lat="41.611444440060204" lon="13.32947234005369"><ele>154.0</ele><time>2026-03-26T15:26:25.999Z</time></trkpt><trkpt lat="41.61115584135352" lon="13.329657406505234"><ele>154.0</ele><time>2026-03-26T15:26:26.999Z</time></trkpt><trkpt lat="41.610861456952925" lon="13.329831451593714"><ele>154.0</ele><time>2026-03-26T15:26:27.999Z</time></trkpt><trkpt lat="41.610563686896434" lon="13.329991546430644"><ele>154.0</ele><time>2026-03-26T15:26:28.999Z</time></trkpt><trkpt lat="41.61026136622565" lon="13.330136391553294"><ele>155.5</ele><time>2026-03-26T15:26:29.999Z</time></trkpt><trkpt lat="41.60995678890499" lon="13.330270026609258"><ele>157.0</ele><time>2026-03-26T15:26:30.999Z</time></trkpt><trkpt lat="41.60965004461129" lon="13.330399130367855"><ele>156.0</ele><time>2026-03-26T15:26:31.999Z</time></trkpt><trkpt lat="41.60934262746458" lon="13.330530943418747"><ele>155.0</ele><time>2026-03-26T15:26:32.999Z</time></trkpt><trkpt lat="41.609032444400675" lon="13.330658893648485"><ele>154.5</ele><time>2026-03-26T15:26:33.999Z</time></trkpt><trkpt lat="41.60872097271693" lon="13.330778198598404"><ele>154.0</ele><time>2026-03-26T15:26:34.999Z</time></trkpt><trkpt lat="41.60840826091254" lon="13.330896185081805"><ele>153.0</ele><time>2026-03-26T15:26:35.999Z</time></trkpt><trkpt lat="41.60809544503556" lon="13.33101608868141"><ele>152.0</ele><time>2026-03-26T15:26:36.999Z</time></trkpt><trkpt lat="41.607783302791894" lon="13.33114135700908"><ele>152.0</ele><time>2026-03-26T15:26:37.999Z</time></trkpt><trkpt lat="41.6074739164937" lon="13.331267653329773"><ele>152.0</ele><time>2026-03-26T15:26:38.999Z</time></trkpt><trkpt lat="41.60716643740277" lon="13.33139509108504"><ele>153.5</ele><time>2026-03-26T15:26:39.999Z</time></trkpt><trkpt lat="41.60685868845671" lon="13.331524833197523"><ele>155.0</ele><time>2026-03-26T15:26:40.999Z</time></trkpt><trkpt lat="41.60655039148985" lon="13.331654270582264"><ele>155.0</ele><time>2026-03-26T15:26:41.999Z</time></trkpt><trkpt lat="41.6062419158071" lon="13.33178439375879"><ele>155.0</ele><time>2026-03-26T15:26:42.999Z</time></trkpt><trkpt lat="41.605931919272436" lon="13.331919275142072"><ele>155.0</ele><time>2026-03-26T15:26:43.999Z</time></trkpt><trkpt lat="41.60562192065471" lon="13.332050663592456"><ele>155.0</ele><time>2026-03-26T15:26:44.999Z</time></trkpt><trkpt lat="41.605310911616904" lon="13.332178716947135"><ele>152.0</ele><time>2026-03-26T15:26:45.999Z</time></trkpt><trkpt lat="41.60499947540483" lon="13.332307928266204"><ele>149.0</ele><time>2026-03-26T15:26:46.999Z</time></trkpt><trkpt lat="41.60468835381134" lon="13.332438107823483"><ele>149.0</ele><time>2026-03-26T15:26:47.999Z</time></trkpt><trkpt lat="41.60437752394039" lon="13.332570745412957"><ele>149.0</ele><time>2026-03-26T15:26:48.999Z</time></trkpt><trkpt lat="41.60406696263013" lon="13.332703126599089"><ele>149.0</ele><time>2026-03-26T15:26:49.999Z</time></trkpt><trkpt lat="41.60375745646772" lon="13.33283480171118"><ele>149.0</ele><time>2026-03-26T15:26:50.999Z</time></trkpt><trkpt lat="41.60344746114268" lon="13.332969139581126"><ele>146.5</ele><time>2026-03-26T15:26:51.999Z</time></trkpt><trkpt lat="41.603137955275244" lon="13.333108995390338"><ele>144.0</ele><time>2026-03-26T15:26:52.999Z</time></trkpt><trkpt lat="41.60282972169625" lon="13.333252289379859"><ele>143.0</ele><time>2026-03-26T15:26:53.999Z</time></trkpt><trkpt lat="41.60252174978812" lon="13.3333924058293"><ele>142.0</ele><time>2026-03-26T15:26:54.999Z</time></trkpt><trkpt lat="41.60221310847977" lon="13.333529862025253"><ele>140.0</ele><time>2026-03-26T15:26:55.999Z</time></trkpt><trkpt lat="41.6019040902595" lon="13.333665306747152"><ele>138.0</ele><time>2026-03-26T15:26:56.999Z</time></trkpt><trkpt lat="41.60159459955317" lon="13.333799092176571"><ele>138.0</ele><time>2026-03-26T15:26:57.999Z</time></trkpt><trkpt lat="41.601285491030985" lon="13.33393166826641"><ele>138.0</ele><time>2026-03-26T15:26:58.999Z</time></trkpt><trkpt lat="41.60097703926562" lon="13.334060863616342"><ele>138.0</ele><time>2026-03-26T15:26:59.999Z</time></trkpt><trkpt lat="41.600669711454465" lon="13.334187161287922"><ele>138.0</ele><time>2026-03-26T15:27:00.999Z</time></trkpt><trkpt lat="41.60036403549353" lon="13.334314601686263"><ele>138.5</ele><time>2026-03-26T15:27:01.999Z</time></trkpt><trkpt lat="41.600060253095634" lon="13.33444287665422"><ele>139.0</ele><time>2026-03-26T15:27:02.999Z</time></trkpt><trkpt lat="41.599756303928665" lon="13.334570841634914"><ele>139.0</ele><time>2026-03-26T15:27:03.999Z</time></trkpt><trkpt lat="41.599454329346145" lon="13.334698855923227"><ele>139.0</ele><time>2026-03-26T15:27:04.999Z</time></trkpt><trkpt lat="41.599153268726994" lon="13.334825600128951"><ele>139.0</ele><time>2026-03-26T15:27:05.999Z</time></trkpt><trkpt lat="41.59885454256198" lon="13.334954700781452"><ele>139.0</ele><time>2026-03-26T15:27:06.999Z</time></trkpt><trkpt lat="41.59855782980614" lon="13.335089386173884"><ele>141.0</ele><time>2026-03-26T15:27:07.999Z</time></trkpt><trkpt lat="41.59826400774426" lon="13.335225818732072"><ele>143.0</ele><time>2026-03-26T15:27:08.999Z</time></trkpt><trkpt lat="41.59796974582167" lon="13.335359905362106"><ele>147.0</ele><time>2026-03-26T15:27:09.999Z</time></trkpt><trkpt lat="41.59767478090936" lon="13.33549282263653"><ele>151.0</ele><time>2026-03-26T15:27:10.999Z</time></trkpt><trkpt lat="41.59737811060418" lon="13.335621436485503"><ele>151.5</ele><time>2026-03-26T15:27:11.999Z</time></trkpt><trkpt lat="41.597081706753855" lon="13.335752789945053"><ele>152.0</ele><time>2026-03-26T15:27:12.999Z</time></trkpt><trkpt lat="41.59678709620138" lon="13.335886199378109"><ele>157.0</ele><time>2026-03-26T15:27:13.999Z</time></trkpt><trkpt lat="41.59649501944713" lon="13.336025010729875"><ele>162.0</ele><time>2026-03-26T15:27:14.999Z</time></trkpt><trkpt lat="41.59620351644664" lon="13.336168643726431"><ele>161.5</ele><time>2026-03-26T15:27:15.999Z</time></trkpt><trkpt lat="41.59591392351909" lon="13.3363193017497"><ele>161.0</ele><time>2026-03-26T15:27:16.999Z</time></trkpt><trkpt lat="41.59562984526117" lon="13.336495398680082"><ele>161.0</ele><time>2026-03-26T15:27:17.999Z</time></trkpt><trkpt lat="41.59534917979412" lon="13.336681621457082"><ele>161.0</ele><time>2026-03-26T15:27:18.999Z</time></trkpt><trkpt lat="41.595072852407874" lon="13.336877112666558"><ele>166.5</ele><time>2026-03-26T15:27:19.999Z</time></trkpt><trkpt lat="41.59480081731193" lon="13.337082841504229"><ele>172.0</ele><time>2026-03-26T15:27:20.999Z</time></trkpt><trkpt lat="41.59453124260761" lon="13.337296457145143"><ele>173.5</ele><time>2026-03-26T15:27:21.999Z</time></trkpt><trkpt lat="41.594266652460306" lon="13.3375190223191"><ele>175.0</ele><time>2026-03-26T15:27:22.999Z</time></trkpt><trkpt lat="41.594004873802575" lon="13.337751002370421"><ele>175.0</ele><time>2026-03-26T15:27:23.999Z</time></trkpt><trkpt lat="41.593745467187766" lon="13.337990053837721"><ele>175.0</ele><time>2026-03-26T15:27:24.999Z</time></trkpt><trkpt lat="41.5934883694511" lon="13.33823599996437"><ele>172.5</ele><time>2026-03-26T15:27:25.999Z</time></trkpt><trkpt lat="41.59323475771359" lon="13.338491677630525"><ele>170.0</ele><time>2026-03-26T15:27:26.999Z</time></trkpt><trkpt lat="41.59299058858589" lon="13.338767187874588"><ele>170.0</ele><time>2026-03-26T15:27:27.999Z</time></trkpt><trkpt lat="41.5927520332234" lon="13.339054989718951"><ele>170.0</ele><time>2026-03-26T15:27:28.999Z</time></trkpt><trkpt lat="41.592518417876356" lon="13.33935311233806"><ele>170.0</ele><time>2026-03-26T15:27:29.999Z</time></trkpt><trkpt lat="41.592288978029444" lon="13.339660728609694"><ele>170.0</ele><time>2026-03-26T15:27:30.999Z</time></trkpt><trkpt lat="41.59206331421288" lon="13.339974961248307"><ele>170.5</ele><time>2026-03-26T15:27:31.999Z</time></trkpt><trkpt lat="41.591842220865864" lon="13.340297417774309"><ele>171.0</ele><time>2026-03-26T15:27:32.999Z</time></trkpt><trkpt lat="41.59162643980745" lon="13.340626324271582"><ele>173.5</ele><time>2026-03-26T15:27:33.999Z</time></trkpt><trkpt lat="41.59141494137858" lon="13.340961801639908"><ele>176.0</ele><time>2026-03-26T15:27:34.999Z</time></trkpt><trkpt lat="41.5912058503523" lon="13.341304857511545"><ele>171.5</ele><time>2026-03-26T15:27:35.999Z</time></trkpt><trkpt lat="41.590996451637835" lon="13.341649679053388"><ele>167.0</ele><time>2026-03-26T15:27:36.998Z</time></trkpt><trkpt lat="41.590785531015044" lon="13.341993434929758"><ele>164.0</ele><time>2026-03-26T15:27:37.998Z</time></trkpt><trkpt lat="41.59057425170513" lon="13.342337271829868"><ele>161.0</ele><time>2026-03-26T15:27:38.998Z</time></trkpt><trkpt lat="41.59036533869775" lon="13.342684764751244"><ele>160.0</ele><time>2026-03-26T15:27:39.998Z</time></trkpt><trkpt lat="41.59015636681304" lon="13.343035432785394"><ele>159.0</ele><time>2026-03-26T15:27:40.998Z</time></trkpt><trkpt lat="41.58994688246834" lon="13.343380585447596"><ele>159.0</ele><time>2026-03-26T15:27:41.998Z</time></trkpt><trkpt lat="41.58973412690339" lon="13.343725095523341"><ele>159.0</ele><time>2026-03-26T15:27:42.998Z</time></trkpt><trkpt lat="41.58952272596391" lon="13.344069668494189"><ele>161.0</ele><time>2026-03-26T15:27:43.998Z</time></trkpt><trkpt lat="41.58931365201203" lon="13.3444147366481"><ele>163.0</ele><time>2026-03-26T15:27:44.998Z</time></trkpt><trkpt lat="41.589105386474806" lon="13.344756476847008"><ele>164.5</ele><time>2026-03-26T15:27:45.998Z</time></trkpt><trkpt lat="41.58889695129912" lon="13.34509699569072"><ele>166.0</ele><time>2026-03-26T15:27:46.998Z</time></trkpt><trkpt lat="41.588687908654315" lon="13.345437095442238"><ele>172.0</ele><time>2026-03-26T15:27:48Z</time></trkpt><trkpt lat="41.58847966000961" lon="13.345774620644749"><ele>178.0</ele><time>2026-03-26T15:27:49Z</time></trkpt><trkpt lat="41.58826875071656" lon="13.346114407354046"><ele>177.5</ele><time>2026-03-26T15:27:50Z</time></trkpt><trkpt lat="41.58805477349253" lon="13.346453559604448"><ele>177.0</ele><time>2026-03-26T15:27:51Z</time></trkpt><trkpt lat="41.587839171576235" lon="13.346788067357432"><ele>176.0</ele><time>2026-03-26T15:27:52Z</time></trkpt><trkpt lat="41.5876266079444" lon="13.347126030836295"><ele>175.0</ele><time>2026-03-26T15:27:53Z</time></trkpt><trkpt lat="41.58741901130187" lon="13.347459723614223"><ele>169.5</ele><time>2026-03-26T15:27:54Z</time></trkpt><trkpt lat="41.58721231258766" lon="13.34779297295703"><ele>164.0</ele><time>2026-03-26T15:27:55Z</time></trkpt><trkpt lat="41.587007877593564" lon="13.348120517247947"><ele>160.5</ele><time>2026-03-26T15:27:56Z</time></trkpt><trkpt lat="41.58680470074495" lon="13.348448111435722"><ele>157.0</ele><time>2026-03-26T15:27:57Z</time></trkpt><trkpt lat="41.58660585224046" lon="13.348780709477667"><ele>158.5</ele><time>2026-03-26T15:27:58Z</time></trkpt><trkpt lat="41.58640272250889" lon="13.34910913009971"><ele>160.0</ele><time>2026-03-26T15:27:59Z</time></trkpt><trkpt lat="41.58620000231907" lon="13.34943608746436"><ele>159.0</ele><time>2026-03-26T15:28:00Z</time></trkpt><trkpt lat="41.58599945618982" lon="13.349762025875378"><ele>158.0</ele><time>2026-03-26T15:28:01Z</time></trkpt><trkpt lat="41.585799401535255" lon="13.35008816957925"><ele>158.0</ele><time>2026-03-26T15:28:02Z</time></trkpt><trkpt lat="41.58560056939165" lon="13.35041689909616"><ele>158.0</ele><time>2026-03-26T15:28:03Z</time></trkpt><trkpt lat="41.5854028118164" lon="13.350744503641847"><ele>157.0</ele><time>2026-03-26T15:28:04Z</time></trkpt><trkpt lat="41.58520506274207" lon="13.351071837165856"><ele>156.0</ele><time>2026-03-26T15:28:05Z</time></trkpt><trkpt lat="41.585007608014415" lon="13.351397801653194"><ele>156.0</ele><time>2026-03-26T15:28:06Z</time></trkpt><trkpt lat="41.58481161284412" lon="13.351724881897814"><ele>156.0</ele><time>2026-03-26T15:28:07Z</time></trkpt><trkpt lat="41.584617562548814" lon="13.35205244046249"><ele>149.5</ele><time>2026-03-26T15:28:08Z</time></trkpt><trkpt lat="41.58442022419107" lon="13.352376657853998"><ele>143.0</ele><time>2026-03-26T15:28:09Z</time></trkpt><trkpt lat="41.58421893323045" lon="13.352695206572937"><ele>143.0</ele><time>2026-03-26T15:28:10Z</time></trkpt><trkpt lat="41.584016337899605" lon="13.353012113440661"><ele>143.0</ele><time>2026-03-26T15:28:11Z</time></trkpt><trkpt lat="41.58381518669612" lon="13.353328910414612"><ele>153.0</ele><time>2026-03-26T15:28:12Z</time></trkpt><trkpt lat="41.583614110875445" lon="13.353645920516033"><ele>163.0</ele><time>2026-03-26T15:28:13Z</time></trkpt><trkpt lat="41.58341382620809" lon="13.353962978410825"><ele>163.0</ele><time>2026-03-26T15:28:13.999Z</time></trkpt><trkpt lat="41.583215403739366" lon="13.354276736610474"><ele>163.0</ele><time>2026-03-26T15:28:14.999Z</time></trkpt><trkpt lat="41.58301973901587" lon="13.354595005865685"><ele>169.0</ele><time>2026-03-26T15:28:15.999Z</time></trkpt><trkpt lat="41.58282549779244" lon="13.354911763638803"><ele>175.0</ele><time>2026-03-26T15:28:16.999Z</time></trkpt><trkpt lat="41.58263066865842" lon="13.355226198788706"><ele>172.5</ele><time>2026-03-26T15:28:17.999Z</time></trkpt><trkpt lat="41.58243505479422" lon="13.35553895257126"><ele>170.0</ele><time>2026-03-26T15:28:18.999Z</time></trkpt><trkpt lat="41.582240211978394" lon="13.35585457266604"><ele>170.0</ele><time>2026-03-26T15:28:19.999Z</time></trkpt><trkpt lat="41.58204610620805" lon="13.356172991409563"><ele>170.0</ele><time>2026-03-26T15:28:20.999Z</time></trkpt><trkpt lat="41.58185215202736" lon="13.356496545028286"><ele>177.0</ele><time>2026-03-26T15:28:21.999Z</time></trkpt><trkpt lat="41.581657637928174" lon="13.356825711432899"><ele>184.0</ele><time>2026-03-26T15:28:22.999Z</time></trkpt><trkpt lat="41.581464668137116" lon="13.357156162660191"><ele>184.5</ele><time>2026-03-26T15:28:23.999Z</time></trkpt><trkpt lat="41.58126927799687" lon="13.35749364539373"><ele>185.0</ele><time>2026-03-26T15:28:24.999Z</time></trkpt><trkpt lat="41.58107749212213" lon="13.357839985816618"><ele>179.5</ele><time>2026-03-26T15:28:25.999Z</time></trkpt><trkpt lat="41.58088649804471" lon="13.358190886877574"><ele>174.0</ele><time>2026-03-26T15:28:26.999Z</time></trkpt><trkpt lat="41.580695442419525" lon="13.358544604478627"><ele>172.0</ele><time>2026-03-26T15:28:27.999Z</time></trkpt><trkpt lat="41.58050570647174" lon="13.358901162065512"><ele>170.0</ele><time>2026-03-26T15:28:28.999Z</time></trkpt><trkpt lat="41.58031872662267" lon="13.359260580107602"><ele>167.5</ele><time>2026-03-26T15:28:29.999Z</time></trkpt><trkpt lat="41.58013323346044" lon="13.359621399230223"><ele>165.0</ele><time>2026-03-26T15:28:30.999Z</time></trkpt><trkpt lat="41.57995041983637" lon="13.359984744691664"><ele>164.0</ele><time>2026-03-26T15:28:31.999Z</time></trkpt><trkpt lat="41.57977058355637" lon="13.360350426352564"><ele>163.0</ele><time>2026-03-26T15:28:32.999Z</time></trkpt><trkpt lat="41.5795948863348" lon="13.360719520998913"><ele>160.5</ele><time>2026-03-26T15:28:33.999Z</time></trkpt><trkpt lat="41.57942211547872" lon="13.361090778811437"><ele>158.0</ele><time>2026-03-26T15:28:34.999Z</time></trkpt><trkpt lat="41.57925240657718" lon="13.361466164577902"><ele>158.0</ele><time>2026-03-26T15:28:35.999Z</time></trkpt><trkpt lat="41.579084863842446" lon="13.36184400832849"><ele>158.0</ele><time>2026-03-26T15:28:36.999Z</time></trkpt><trkpt lat="41.578918767704586" lon="13.36222294764766"><ele>161.0</ele><time>2026-03-26T15:28:37.999Z</time></trkpt><trkpt lat="41.57875469572569" lon="13.362604864627391"><ele>164.0</ele><time>2026-03-26T15:28:38.999Z</time></trkpt><trkpt lat="41.57859259700514" lon="13.362985524200772"><ele>157.5</ele><time>2026-03-26T15:28:39.999Z</time></trkpt><trkpt lat="41.578433198923605" lon="13.363364684621049"><ele>151.0</ele><time>2026-03-26T15:28:40.999Z</time></trkpt><trkpt lat="41.578275442126426" lon="13.363743590253193"><ele>153.0</ele><time>2026-03-26T15:28:41.999Z</time></trkpt><trkpt lat="41.578117816785436" lon="13.364118787071584"><ele>155.0</ele><time>2026-03-26T15:28:42.999Z</time></trkpt><trkpt lat="41.57796057226413" lon="13.364490553645727"><ele>149.5</ele><time>2026-03-26T15:28:43.999Z</time></trkpt><trkpt lat="41.57780461440878" lon="13.364860690967948"><ele>144.0</ele><time>2026-03-26T15:28:44.999Z</time></trkpt><trkpt lat="41.57764969322014" lon="13.365232469454453"><ele>147.0</ele><time>2026-03-26T15:28:45.999Z</time></trkpt><trkpt lat="41.57749567379395" lon="13.36560616224746"><ele>150.0</ele><time>2026-03-26T15:28:46.999Z</time></trkpt><trkpt lat="41.57734299812844" lon="13.365980524775646"><ele>150.0</ele><time>2026-03-26T15:28:47.999Z</time></trkpt><trkpt lat="41.57719083618109" lon="13.36635704053172"><ele>150.0</ele><time>2026-03-26T15:28:48.999Z</time></trkpt><trkpt lat="41.577038168033525" lon="13.36673402960508"><ele>149.5</ele><time>2026-03-26T15:28:49.999Z</time></trkpt><trkpt lat="41.57688415634236" lon="13.367113426367629"><ele>149.0</ele><time>2026-03-26T15:28:50.999Z</time></trkpt><trkpt lat="41.576728763149276" lon="13.367493033024907"><ele>149.0</ele><time>2026-03-26T15:28:51.999Z</time></trkpt><trkpt lat="41.57657295466693" lon="13.367877171402517"><ele>149.0</ele><time>2026-03-26T15:28:52.999Z</time></trkpt><trkpt lat="41.57641505523125" lon="13.368261344280098"><ele>150.5</ele><time>2026-03-26T15:28:53.999Z</time></trkpt><trkpt lat="41.576255714991326" lon="13.368641452080263"><ele>152.0</ele><time>2026-03-26T15:28:54.999Z</time></trkpt><trkpt lat="41.576097149618406" lon="13.369021508205279"><ele>147.0</ele><time>2026-03-26T15:28:55.999Z</time></trkpt><trkpt lat="41.575937974875785" lon="13.369401979463833"><ele>142.0</ele><time>2026-03-26T15:28:56.999Z</time></trkpt><trkpt lat="41.57578181464099" lon="13.369781476146368"><ele>140.0</ele><time>2026-03-26T15:28:57.999Z</time></trkpt><trkpt lat="41.57562650509195" lon="13.370158616872958"><ele>138.0</ele><time>2026-03-26T15:28:58.999Z</time></trkpt><trkpt lat="41.57547381806615" lon="13.37053562885816"><ele>136.0</ele><time>2026-03-26T15:28:59.999Z</time></trkpt><trkpt lat="41.57532377367178" lon="13.37091267349452"><ele>134.0</ele><time>2026-03-26T15:29:00.999Z</time></trkpt><trkpt lat="41.575174937776524" lon="13.371289518966819"><ele>135.0</ele><time>2026-03-26T15:29:01.999Z</time></trkpt><trkpt lat="41.57502806059141" lon="13.371666260153422"><ele>136.0</ele><time>2026-03-26T15:29:02.999Z</time></trkpt><trkpt lat="41.57488292722892" lon="13.372042009984732"><ele>139.0</ele><time>2026-03-26T15:29:03.999Z</time></trkpt><trkpt lat="41.57473874366419" lon="13.37241392078189"><ele>142.0</ele><time>2026-03-26T15:29:04.999Z</time></trkpt><trkpt lat="41.57459360475634" lon="13.372782811595949"><ele>145.0</ele><time>2026-03-26T15:29:05.999Z</time></trkpt><trkpt lat="41.574447481734396" lon="13.373148637000542"><ele>148.0</ele><time>2026-03-26T15:29:06.999Z</time></trkpt><trkpt lat="41.574301022661665" lon="13.373513570231646"><ele>153.0</ele><time>2026-03-26T15:29:07.999Z</time></trkpt><trkpt lat="41.574153858407676" lon="13.373877924725411"><ele>158.0</ele><time>2026-03-26T15:29:08.999Z</time></trkpt><trkpt lat="41.57400668480262" lon="13.374242118961195"><ele>158.0</ele><time>2026-03-26T15:29:09.999Z</time></trkpt><trkpt lat="41.573858528959335" lon="13.374603955346387"><ele>158.0</ele><time>2026-03-26T15:29:10.999Z</time></trkpt><trkpt lat="41.573708219382404" lon="13.374963659286742"><ele>159.0</ele><time>2026-03-26T15:29:11.999Z</time></trkpt><trkpt lat="41.57355549205187" lon="13.375326718980672"><ele>160.0</ele><time>2026-03-26T15:29:12.999Z</time></trkpt><trkpt lat="41.573402965249635" lon="13.37568698518019"><ele>160.0</ele><time>2026-03-26T15:29:13.999Z</time></trkpt><trkpt lat="41.573251230686616" lon="13.376048569594479"><ele>160.0</ele><time>2026-03-26T15:29:14.999Z</time></trkpt><trkpt lat="41.573099963323045" lon="13.376410876259099"><ele>158.5</ele><time>2026-03-26T15:29:15.999Z</time></trkpt><trkpt lat="41.57294852962511" lon="13.37677354226917"><ele>157.0</ele><time>2026-03-26T15:29:16.999Z</time></trkpt><trkpt lat="41.57279608308383" lon="13.37713754637879"><ele>154.5</ele><time>2026-03-26T15:29:17.999Z</time></trkpt><trkpt lat="41.57264174960213" lon="13.37750225674478"><ele>152.0</ele><time>2026-03-26T15:29:18.999Z</time></trkpt><trkpt lat="41.5724867704999" lon="13.377870506240258"><ele>153.5</ele><time>2026-03-26T15:29:19.999Z</time></trkpt><trkpt lat="41.57233081105557" lon="13.378237428220944"><ele>155.0</ele><time>2026-03-26T15:29:20.999Z</time></trkpt><trkpt lat="41.572174768071775" lon="13.378607344973174"><ele>164.0</ele><time>2026-03-26T15:29:21.999Z</time></trkpt><trkpt lat="41.57201813853988" lon="13.37897748851592"><ele>173.0</ele><time>2026-03-26T15:29:22.999Z</time></trkpt><trkpt lat="41.571861447347935" lon="13.379349827180707"><ele>174.0</ele><time>2026-03-26T15:29:23.999Z</time></trkpt><trkpt lat="41.571703833007064" lon="13.379724670020162"><ele>175.0</ele><time>2026-03-26T15:29:24.999Z</time></trkpt><trkpt lat="41.571545726128896" lon="13.380101031684305"><ele>175.0</ele><time>2026-03-26T15:29:25.999Z</time></trkpt><trkpt lat="41.57138759581613" lon="13.380475757533759"><ele>175.0</ele><time>2026-03-26T15:29:26.999Z</time></trkpt><trkpt lat="41.57122680593209" lon="13.380850923146198"><ele>175.0</ele><time>2026-03-26T15:29:27.999Z</time></trkpt><trkpt lat="41.57106493159255" lon="13.381225564792885"><ele>175.0</ele><time>2026-03-26T15:29:28.999Z</time></trkpt><trkpt lat="41.57090250821194" lon="13.38160104079643"><ele>175.0</ele><time>2026-03-26T15:29:29.999Z</time></trkpt><trkpt lat="41.570743073751984" lon="13.38197531315044"><ele>175.0</ele><time>2026-03-26T15:29:30.999Z</time></trkpt><trkpt lat="41.57058351657884" lon="13.382356426705243"><ele>174.0</ele><time>2026-03-26T15:29:31.999Z</time></trkpt><trkpt lat="41.57041624545192" lon="13.382737780668297"><ele>173.0</ele><time>2026-03-26T15:29:32.999Z</time></trkpt><trkpt lat="41.57025756065588" lon="13.383110396690139"><ele>173.0</ele><time>2026-03-26T15:29:33.999Z</time></trkpt><trkpt lat="41.570099615212406" lon="13.383482253662109"><ele>173.0</ele><time>2026-03-26T15:29:34.999Z</time></trkpt><trkpt lat="41.569941974946296" lon="13.383851886497524"><ele>167.5</ele><time>2026-03-26T15:29:35.999Z</time></trkpt><trkpt lat="41.5697867043163" lon="13.384220149213508"><ele>162.0</ele><time>2026-03-26T15:29:36.999Z</time></trkpt><trkpt lat="41.56963280003358" lon="13.384587734151525"><ele>160.5</ele><time>2026-03-26T15:29:37.999Z</time></trkpt><trkpt lat="41.56947839884356" lon="13.384951109560497"><ele>159.0</ele><time>2026-03-26T15:29:38.999Z</time></trkpt><trkpt lat="41.569323947311446" lon="13.38531265420219"><ele>156.0</ele><time>2026-03-26T15:29:39.999Z</time></trkpt><trkpt lat="41.56916839234934" lon="13.385672099049158"><ele>153.0</ele><time>2026-03-26T15:29:40.999Z</time></trkpt><trkpt lat="41.56901243440019" lon="13.386029695593166"><ele>152.5</ele><time>2026-03-26T15:29:41.999Z</time></trkpt><trkpt lat="41.56885730877342" lon="13.386386236575252"><ele>152.0</ele><time>2026-03-26T15:29:42.998Z</time></trkpt><trkpt lat="41.568701079498354" lon="13.386741267185656"><ele>152.0</ele><time>2026-03-26T15:29:43.998Z</time></trkpt><trkpt lat="41.5685445869351" lon="13.387095255502771"><ele>152.0</ele><time>2026-03-26T15:29:44.998Z</time></trkpt><trkpt lat="41.56839088859715" lon="13.387450087877575"><ele>151.5</ele><time>2026-03-26T15:29:45.998Z</time></trkpt><trkpt lat="41.5682379606797" lon="13.387809613030013"><ele>151.0</ele><time>2026-03-26T15:29:46.998Z</time></trkpt><trkpt lat="41.56808631013941" lon="13.388171239539073"><ele>151.0</ele><time>2026-03-26T15:29:47.998Z</time></trkpt><trkpt lat="41.56793388593449" lon="13.388537341310881"><ele>151.0</ele><time>2026-03-26T15:29:48.998Z</time></trkpt><trkpt lat="41.567780014680274" lon="13.388902948842592"><ele>146.0</ele><time>2026-03-26T15:29:49.998Z</time></trkpt><trkpt lat="41.56762615957043" lon="13.389265140733997"><ele>141.0</ele><time>2026-03-26T15:29:50.998Z</time></trkpt><trkpt lat="41.56747270005999" lon="13.389624551300448"><ele>141.0</ele><time>2026-03-26T15:29:51.998Z</time></trkpt><trkpt lat="41.56732222222666" lon="13.389985487314972"><ele>141.0</ele><time>2026-03-26T15:29:52.998Z</time></trkpt><trkpt lat="41.56717137105552" lon="13.39034703145298"><ele>140.0</ele><time>2026-03-26T15:29:54Z</time></trkpt><trkpt lat="41.56702185347018" lon="13.390707301612483"><ele>139.0</ele><time>2026-03-26T15:29:55Z</time></trkpt><trkpt lat="41.56687273368537" lon="13.39106632575782"><ele>140.0</ele><time>2026-03-26T15:29:56Z</time></trkpt><trkpt lat="41.56672432607594" lon="13.391422762410755"><ele>141.0</ele><time>2026-03-26T15:29:57Z</time></trkpt><trkpt lat="41.56657419060332" lon="13.391775539515061"><ele>141.0</ele><time>2026-03-26T15:29:58Z</time></trkpt><trkpt lat="41.56642336651529" lon="13.392130366295174"><ele>141.0</ele><time>2026-03-26T15:29:59Z</time></trkpt><trkpt lat="41.56627471995492" lon="13.39248835207429"><ele>141.5</ele><time>2026-03-26T15:30:00Z</time></trkpt><trkpt lat="41.5661270615504" lon="13.392848947316294"><ele>142.0</ele><time>2026-03-26T15:30:01Z</time></trkpt><trkpt lat="41.56597942807358" lon="13.393213025986952"><ele>148.0</ele><time>2026-03-26T15:30:02Z</time></trkpt><trkpt lat="41.56583049832885" lon="13.393577545053013"><ele>154.0</ele><time>2026-03-26T15:30:03Z</time></trkpt><trkpt lat="41.56568088446745" lon="13.393942010011138"><ele>158.0</ele><time>2026-03-26T15:30:04Z</time></trkpt><trkpt lat="41.56552937448837" lon="13.39430572338082"><ele>162.0</ele><time>2026-03-26T15:30:05Z</time></trkpt><trkpt lat="41.565377845335405" lon="13.394669991692757"><ele>163.0</ele><time>2026-03-26T15:30:06Z</time></trkpt><trkpt lat="41.56522963801376" lon="13.395030769400158"><ele>164.0</ele><time>2026-03-26T15:30:07Z</time></trkpt><trkpt lat="41.56508896107028" lon="13.39537845834758"><ele>164.0</ele><time>2026-03-26T15:30:08Z</time></trkpt><trkpt lat="41.56495314284025" lon="13.395717495018806"><ele>164.0</ele><time>2026-03-26T15:30:09Z</time></trkpt><trkpt lat="41.564817643944636" lon="13.396057007754594"><ele>162.0</ele><time>2026-03-26T15:30:10Z</time></trkpt><trkpt lat="41.56468084170792" lon="13.396397383143322"><ele>160.0</ele><time>2026-03-26T15:30:11Z</time></trkpt><trkpt lat="41.56454065709702" lon="13.396737355179878"><ele>158.0</ele><time>2026-03-26T15:30:12Z</time></trkpt><trkpt lat="41.56440174466516" lon="13.397076498636896"><ele>156.0</ele><time>2026-03-26T15:30:13Z</time></trkpt><trkpt lat="41.564262554103294" lon="13.397420578557993"><ele>155.5</ele><time>2026-03-26T15:30:14Z</time></trkpt><trkpt lat="41.56412327359154" lon="13.39776421855214"><ele>155.0</ele><time>2026-03-26T15:30:15Z</time></trkpt><trkpt lat="41.56398176666348" lon="13.398110382336323"><ele>155.0</ele><time>2026-03-26T15:30:16Z</time></trkpt><trkpt lat="41.56384168306395" lon="13.398454544130018"><ele>155.0</ele><time>2026-03-26T15:30:17Z</time></trkpt><trkpt lat="41.563702592474804" lon="13.398796317203061"><ele>155.0</ele><time>2026-03-26T15:30:18Z</time></trkpt><trkpt lat="41.563562208243944" lon="13.399134643080922"><ele>155.0</ele><time>2026-03-26T15:30:19Z</time></trkpt><trkpt lat="41.56342322478422" lon="13.399469518491388"><ele>155.0</ele><time>2026-03-26T15:30:20Z</time></trkpt><trkpt lat="41.56328623289957" lon="13.399799990712081"><ele>155.0</ele><time>2026-03-26T15:30:21Z</time></trkpt><trkpt lat="41.56314906379549" lon="13.400125769866492"><ele>155.0</ele><time>2026-03-26T15:30:22Z</time></trkpt><trkpt lat="41.563014003673636" lon="13.40044936936318"><ele>155.0</ele><time>2026-03-26T15:30:23Z</time></trkpt><trkpt lat="41.56287818834661" lon="13.400773611592385"><ele>156.0</ele><time>2026-03-26T15:30:24Z</time></trkpt><trkpt lat="41.56274183856889" lon="13.401096849779126"><ele>157.0</ele><time>2026-03-26T15:30:25Z</time></trkpt><trkpt lat="41.562603900951835" lon="13.401425080507916"><ele>157.0</ele><time>2026-03-26T15:30:26Z</time></trkpt><trkpt lat="41.56246396904681" lon="13.401758871994112"><ele>157.0</ele><time>2026-03-26T15:30:27Z</time></trkpt><trkpt lat="41.562322756059366" lon="13.40209287270448"><ele>152.0</ele><time>2026-03-26T15:30:27.999Z</time></trkpt><trkpt lat="41.56218079220767" lon="13.40243005803552"><ele>147.0</ele><time>2026-03-26T15:30:28.999Z</time></trkpt><trkpt lat="41.56204018197805" lon="13.402765823114192"><ele>147.0</ele><time>2026-03-26T15:30:29.999Z</time></trkpt><trkpt lat="41.5618984127594" lon="13.403101458824043"><ele>147.0</ele><time>2026-03-26T15:30:30.999Z</time></trkpt><trkpt lat="41.56175704609355" lon="13.403437137618454"><ele>147.0</ele><time>2026-03-26T15:30:31.999Z</time></trkpt><trkpt lat="41.561615360027304" lon="13.403775773601215"><ele>147.0</ele><time>2026-03-26T15:30:32.999Z</time></trkpt><trkpt lat="41.56147256028817" lon="13.404113004040555"><ele>146.0</ele><time>2026-03-26T15:30:33.999Z</time></trkpt><trkpt lat="41.5613293052958" lon="13.404449567605463"><ele>145.0</ele><time>2026-03-26T15:30:34.999Z</time></trkpt><trkpt lat="41.56118845658993" lon="13.404781192309585"><ele>145.0</ele><time>2026-03-26T15:30:35.999Z</time></trkpt><trkpt lat="41.56105371855025" lon="13.405098795298175"><ele>145.0</ele><time>2026-03-26T15:30:36.999Z</time></trkpt><trkpt lat="41.56092444524708" lon="13.405402079787066"><ele>144.5</ele><time>2026-03-26T15:30:37.999Z</time></trkpt><trkpt lat="41.5608014069385" lon="13.405694615632473"><ele>144.0</ele><time>2026-03-26T15:30:38.999Z</time></trkpt><trkpt lat="41.56068263455254" lon="13.405979833014282"><ele>144.0</ele><time>2026-03-26T15:30:39.999Z</time></trkpt><trkpt lat="41.560560803145634" lon="13.406269539902008"><ele>144.0</ele><time>2026-03-26T15:30:40.999Z</time></trkpt><trkpt lat="41.56043961349883" lon="13.40656527291049"><ele>143.5</ele><time>2026-03-26T15:30:41.999Z</time></trkpt><trkpt lat="41.560316179991595" lon="13.406863090776747"><ele>143.0</ele><time>2026-03-26T15:30:42.999Z</time></trkpt><trkpt lat="41.56019135699269" lon="13.407164176610898"><ele>143.0</ele><time>2026-03-26T15:30:43.999Z</time></trkpt><trkpt lat="41.56006537725177" lon="13.407468737716894"><ele>143.0</ele><time>2026-03-26T15:30:44.999Z</time></trkpt><trkpt lat="41.55993714005436" lon="13.407774073395016"><ele>146.5</ele><time>2026-03-26T15:30:45.999Z</time></trkpt><trkpt lat="41.559807742320366" lon="13.408084036916511"><ele>150.0</ele><time>2026-03-26T15:30:46.999Z</time></trkpt><trkpt lat="41.55967997748693" lon="13.408396192493225"><ele>150.0</ele><time>2026-03-26T15:30:47.999Z</time></trkpt><trkpt lat="41.559552990166246" lon="13.408709454144399"><ele>150.0</ele><time>2026-03-26T15:30:48.999Z</time></trkpt><trkpt lat="41.55942735423919" lon="13.409025695711746"><ele>152.0</ele><time>2026-03-26T15:30:49.999Z</time></trkpt><trkpt lat="41.55930508906276" lon="13.409347171118723"><ele>154.0</ele><time>2026-03-26T15:30:50.999Z</time></trkpt><trkpt lat="41.55918428194809" lon="13.409666826782942"><ele>157.5</ele><time>2026-03-26T15:30:51.999Z</time></trkpt><trkpt lat="41.55906483428643" lon="13.409987224203844"><ele>161.0</ele><time>2026-03-26T15:30:52.999Z</time></trkpt><trkpt lat="41.558947476469875" lon="13.410312644640026"><ele>165.5</ele><time>2026-03-26T15:30:53.999Z</time></trkpt><trkpt lat="41.558831166473134" lon="13.410645158446746"><ele>170.0</ele><time>2026-03-26T15:30:54.999Z</time></trkpt><trkpt lat="41.558714034334145" lon="13.410982423905224"><ele>167.5</ele><time>2026-03-26T15:30:55.999Z</time></trkpt><trkpt lat="41.55859754474268" lon="13.41132198854884"><ele>165.0</ele><time>2026-03-26T15:30:56.999Z</time></trkpt><trkpt lat="41.55848344329879" lon="13.411667155799512"><ele>165.0</ele><time>2026-03-26T15:30:57.999Z</time></trkpt><trkpt lat="41.55837395848818" lon="13.412019395545464"><ele>165.0</ele><time>2026-03-26T15:30:58.999Z</time></trkpt><trkpt lat="41.55826571285705" lon="13.412379248259205"><ele>167.0</ele><time>2026-03-26T15:30:59.999Z</time></trkpt><trkpt lat="41.55815826535046" lon="13.41274283442796"><ele>169.0</ele><time>2026-03-26T15:31:00.999Z</time></trkpt><trkpt lat="41.558053313046074" lon="13.413109739253413"><ele>169.0</ele><time>2026-03-26T15:31:01.999Z</time></trkpt><trkpt lat="41.557950227913835" lon="13.41348355996682"><ele>169.0</ele><time>2026-03-26T15:31:02.999Z</time></trkpt><trkpt lat="41.557852170540485" lon="13.413863711722753"><ele>169.0</ele><time>2026-03-26T15:31:03.999Z</time></trkpt><trkpt lat="41.557756260534376" lon="13.414251253944766"><ele>169.0</ele><time>2026-03-26T15:31:04.999Z</time></trkpt><trkpt lat="41.55766351934652" lon="13.414642757515276"><ele>169.0</ele><time>2026-03-26T15:31:05.999Z</time></trkpt><trkpt lat="41.55757144310356" lon="13.415041274501728"><ele>169.0</ele><time>2026-03-26T15:31:06.999Z</time></trkpt><trkpt lat="41.55748083102929" lon="13.41544631951661"><ele>169.0</ele><time>2026-03-26T15:31:07.999Z</time></trkpt><trkpt lat="41.557393122982695" lon="13.415860800075702"><ele>169.0</ele><time>2026-03-26T15:31:08.999Z</time></trkpt><trkpt lat="41.55730950354137" lon="13.416279512726508"><ele>168.0</ele><time>2026-03-26T15:31:09.999Z</time></trkpt><trkpt lat="41.55722843672712" lon="13.41670374479983"><ele>167.0</ele><time>2026-03-26T15:31:10.999Z</time></trkpt><trkpt lat="41.557151934304294" lon="13.417129916572412"><ele>165.0</ele><time>2026-03-26T15:31:11.999Z</time></trkpt><trkpt lat="41.55707533271511" lon="13.417560523053796"><ele>163.0</ele><time>2026-03-26T15:31:12.999Z</time></trkpt><trkpt lat="41.55700029166614" lon="13.417992788688844"><ele>162.0</ele><time>2026-03-26T15:31:13.999Z</time></trkpt><trkpt lat="41.5569223358944" lon="13.418421973320795"><ele>161.0</ele><time>2026-03-26T15:31:14.999Z</time></trkpt><trkpt lat="41.55684623607262" lon="13.418852938081852"><ele>158.5</ele><time>2026-03-26T15:31:15.999Z</time></trkpt><trkpt lat="41.55677272866448" lon="13.419283149384462"><ele>156.0</ele><time>2026-03-26T15:31:16.999Z</time></trkpt><trkpt lat="41.55670006542271" lon="13.419710537875423"><ele>154.0</ele><time>2026-03-26T15:31:17.999Z</time></trkpt><trkpt lat="41.5566276260028" lon="13.42013898697493"><ele>152.0</ele><time>2026-03-26T15:31:18.999Z</time></trkpt><trkpt lat="41.55655067364923" lon="13.42056842142705"><ele>150.5</ele><time>2026-03-26T15:31:19.999Z</time></trkpt><trkpt lat="41.556471529767876" lon="13.42099451809779"><ele>149.0</ele><time>2026-03-26T15:31:20.999Z</time></trkpt><trkpt lat="41.556397910003035" lon="13.421421250849797"><ele>149.0</ele><time>2026-03-26T15:31:21.999Z</time></trkpt><trkpt lat="41.55632401877015" lon="13.421848157778442"><ele>149.0</ele><time>2026-03-26T15:31:22.999Z</time></trkpt><trkpt lat="41.55624813574269" lon="13.422275010012402"><ele>149.0</ele><time>2026-03-26T15:31:23.999Z</time></trkpt><trkpt lat="41.55617144469055" lon="13.42270399455084"><ele>149.0</ele><time>2026-03-26T15:31:24.999Z</time></trkpt><trkpt lat="41.55609354617033" lon="13.423132621126893"><ele>149.0</ele><time>2026-03-26T15:31:25.999Z</time></trkpt><trkpt lat="41.55601641454307" lon="13.423562269185842"><ele>149.0</ele><time>2026-03-26T15:31:26.999Z</time></trkpt><trkpt lat="41.555941215227506" lon="13.423993092233482"><ele>149.5</ele><time>2026-03-26T15:31:27.999Z</time></trkpt><trkpt lat="41.5558675720047" lon="13.424425268324987"><ele>150.0</ele><time>2026-03-26T15:31:28.999Z</time></trkpt><trkpt lat="41.5557927929314" lon="13.424855388753482"><ele>150.0</ele><time>2026-03-26T15:31:29.999Z</time></trkpt><trkpt lat="41.55571604707398" lon="13.425283719259182"><ele>150.0</ele><time>2026-03-26T15:31:30.999Z</time></trkpt><trkpt lat="41.55563990969739" lon="13.425712571745493"><ele>150.0</ele><time>2026-03-26T15:31:31.999Z</time></trkpt><trkpt lat="41.55555958025722" lon="13.426135247274683"><ele>150.0</ele><time>2026-03-26T15:31:32.999Z</time></trkpt><trkpt lat="41.55547614135738" lon="13.42655301491926"><ele>148.5</ele><time>2026-03-26T15:31:33.999Z</time></trkpt><trkpt lat="41.55539225048131" lon="13.426970650302753"><ele>147.0</ele><time>2026-03-26T15:31:34.999Z</time></trkpt><trkpt lat="41.555313645521025" lon="13.427385122828639"><ele>145.0</ele><time>2026-03-26T15:31:35.999Z</time></trkpt><trkpt lat="41.555237252631464" lon="13.427802310300718"><ele>143.0</ele><time>2026-03-26T15:31:36.999Z</time></trkpt><trkpt lat="41.55516309113427" lon="13.42822005546391"><ele>143.0</ele><time>2026-03-26T15:31:37.999Z</time></trkpt><trkpt lat="41.555088398921534" lon="13.428638493398289"><ele>143.0</ele><time>2026-03-26T15:31:38.999Z</time></trkpt><trkpt lat="41.55501376767019" lon="13.429054375159959"><ele>143.0</ele><time>2026-03-26T15:31:39.999Z</time></trkpt><trkpt lat="41.55494028242091" lon="13.429470292471429"><ele>143.0</ele><time>2026-03-26T15:31:40.999Z</time></trkpt><trkpt lat="41.55486748382412" lon="13.429885125755407"><ele>143.5</ele><time>2026-03-26T15:31:41.999Z</time></trkpt><trkpt lat="41.55479450069945" lon="13.43030058813655"><ele>144.0</ele><time>2026-03-26T15:31:42.999Z</time></trkpt><trkpt lat="41.55472050174582" lon="13.430716848813908"><ele>144.0</ele><time>2026-03-26T15:31:43.999Z</time></trkpt><trkpt lat="41.55464456187426" lon="13.431132043752493"><ele>144.0</ele><time>2026-03-26T15:31:44.999Z</time></trkpt><trkpt lat="41.55456958597015" lon="13.431550479811705"><ele>144.0</ele><time>2026-03-26T15:31:45.999Z</time></trkpt><trkpt lat="41.554496215192756" lon="13.431970874708027"><ele>144.0</ele><time>2026-03-26T15:31:46.999Z</time></trkpt><trkpt lat="41.55442432092709" lon="13.432389924411476"><ele>143.5</ele><time>2026-03-26T15:31:47.999Z</time></trkpt><trkpt lat="41.55435239606118" lon="13.432811650056387"><ele>143.0</ele><time>2026-03-26T15:31:48.999Z</time></trkpt><trkpt lat="41.554281562206974" lon="13.433236817945566"><ele>142.5</ele><time>2026-03-26T15:31:49.999Z</time></trkpt><trkpt lat="41.55420839608468" lon="13.433664580242047"><ele>142.0</ele><time>2026-03-26T15:31:50.999Z</time></trkpt><trkpt lat="41.5541322769387" lon="13.434092911616135"><ele>142.0</ele><time>2026-03-26T15:31:51.999Z</time></trkpt><trkpt lat="41.5540558526073" lon="13.434521951262589"><ele>142.0</ele><time>2026-03-26T15:31:52.999Z</time></trkpt><trkpt lat="41.553981532641394" lon="13.434952247247546"><ele>142.0</ele><time>2026-03-26T15:31:53.999Z</time></trkpt><trkpt lat="41.55390735275647" lon="13.435383155042317"><ele>142.0</ele><time>2026-03-26T15:31:54.999Z</time></trkpt><trkpt lat="41.55383040448567" lon="13.43581606972605"><ele>142.5</ele><time>2026-03-26T15:31:55.999Z</time></trkpt><trkpt lat="41.553751219734906" lon="13.436247278547654"><ele>143.0</ele><time>2026-03-26T15:31:56.999Z</time></trkpt><trkpt lat="41.553672772700594" lon="13.436676410150707"><ele>140.5</ele><time>2026-03-26T15:31:57.999Z</time></trkpt><trkpt lat="41.5535944498973" lon="13.437109476642647"><ele>138.0</ele><time>2026-03-26T15:31:59Z</time></trkpt><trkpt lat="41.553516249919056" lon="13.437542847908823"><ele>138.0</ele><time>2026-03-26T15:32:00Z</time></trkpt><trkpt lat="41.55343863513437" lon="13.437977529070373"><ele>138.0</ele><time>2026-03-26T15:32:01Z</time></trkpt><trkpt lat="41.553362082978566" lon="13.438412298543735"><ele>138.0</ele><time>2026-03-26T15:32:02Z</time></trkpt><trkpt lat="41.553288196880345" lon="13.43884724561798"><ele>138.0</ele><time>2026-03-26T15:32:03Z</time></trkpt><trkpt lat="41.553214546558685" lon="13.439284323594768"><ele>138.0</ele><time>2026-03-26T15:32:04Z</time></trkpt><trkpt lat="41.55313862136986" lon="13.439722349871698"><ele>138.0</ele><time>2026-03-26T15:32:05Z</time></trkpt><trkpt lat="41.553061785140386" lon="13.440160227743837"><ele>137.5</ele><time>2026-03-26T15:32:06Z</time></trkpt><trkpt lat="41.552985355829684" lon="13.440597693709345"><ele>137.0</ele><time>2026-03-26T15:32:07Z</time></trkpt><trkpt lat="41.552909474420076" lon="13.441031913707192"><ele>134.0</ele><time>2026-03-26T15:32:08Z</time></trkpt><trkpt lat="41.552832090653155" lon="13.441463956945233"><ele>131.0</ele><time>2026-03-26T15:32:09Z</time></trkpt><trkpt lat="41.552753940156165" lon="13.441895589216585"><ele>129.5</ele><time>2026-03-26T15:32:10Z</time></trkpt><trkpt lat="41.55267812668989" lon="13.442327956523165"><ele>128.0</ele><time>2026-03-26T15:32:11Z</time></trkpt><trkpt lat="41.552602847901554" lon="13.44276170973145"><ele>127.5</ele><time>2026-03-26T15:32:12Z</time></trkpt><trkpt lat="41.55252779402399" lon="13.443197717430959"><ele>127.0</ele><time>2026-03-26T15:32:13Z</time></trkpt><trkpt lat="41.552451144742186" lon="13.443634261672658"><ele>127.0</ele><time>2026-03-26T15:32:14Z</time></trkpt><trkpt lat="41.55237500624153" lon="13.444073243038286"><ele>127.0</ele><time>2026-03-26T15:32:15Z</time></trkpt><trkpt lat="41.5522982862406" lon="13.444512496673832"><ele>125.5</ele><time>2026-03-26T15:32:16Z</time></trkpt><trkpt lat="41.552219135228874" lon="13.444952673938266"><ele>124.0</ele><time>2026-03-26T15:32:17Z</time></trkpt><trkpt lat="41.55214052577752" lon="13.445391357449772"><ele>122.0</ele><time>2026-03-26T15:32:18Z</time></trkpt><trkpt lat="41.55206000083659" lon="13.44583118666532"><ele>120.0</ele><time>2026-03-26T15:32:19Z</time></trkpt><trkpt lat="41.55197889584876" lon="13.446270270863124"><ele>119.5</ele><time>2026-03-26T15:32:20Z</time></trkpt><trkpt lat="41.55189923999005" lon="13.44670957224567"><ele>119.0</ele><time>2026-03-26T15:32:21Z</time></trkpt><trkpt lat="41.55182135582156" lon="13.447144998470586"><ele>119.0</ele><time>2026-03-26T15:32:22Z</time></trkpt><trkpt lat="41.55174375348414" lon="13.447582020152222"><ele>119.0</ele><time>2026-03-26T15:32:23Z</time></trkpt><trkpt lat="41.55166834671365" lon="13.448018312777643"><ele>120.0</ele><time>2026-03-26T15:32:24Z</time></trkpt><trkpt lat="41.55159287374373" lon="13.448456156131199"><ele>121.0</ele><time>2026-03-26T15:32:25Z</time></trkpt><trkpt lat="41.55151856966939" lon="13.448891881142364"><ele>118.5</ele><time>2026-03-26T15:32:26Z</time></trkpt><trkpt lat="41.55144399913423" lon="13.449322778879978"><ele>116.0</ele><time>2026-03-26T15:32:27Z</time></trkpt><trkpt lat="41.5513692575837" lon="13.449750441568453"><ele>114.0</ele><time>2026-03-26T15:32:27.999Z</time></trkpt><trkpt lat="41.55129479320326" lon="13.450174884579898"><ele>112.0</ele><time>2026-03-26T15:32:28.999Z</time></trkpt><trkpt lat="41.551220417008864" lon="13.450599506160309"><ele>112.0</ele><time>2026-03-26T15:32:29.999Z</time></trkpt><trkpt lat="41.55114585472351" lon="13.45102289924201"><ele>112.0</ele><time>2026-03-26T15:32:30.999Z</time></trkpt><trkpt lat="41.55107229465202" lon="13.451443708168709"><ele>112.0</ele><time>2026-03-26T15:32:31.999Z</time></trkpt><trkpt lat="41.55099694334046" lon="13.451858397432256"><ele>112.0</ele><time>2026-03-26T15:32:32.999Z</time></trkpt><trkpt lat="41.55092161799904" lon="13.452271986890727"><ele>112.5</ele><time>2026-03-26T15:32:33.999Z</time></trkpt><trkpt lat="41.55084823169297" lon="13.452682834410957"><ele>113.0</ele><time>2026-03-26T15:32:34.999Z</time></trkpt><trkpt lat="41.550776047396795" lon="13.45309284727768"><ele>114.0</ele><time>2026-03-26T15:32:35.999Z</time></trkpt><trkpt lat="41.55070356548736" lon="13.45350150991027"><ele>115.0</ele><time>2026-03-26T15:32:36.999Z</time></trkpt><trkpt lat="41.55063165896921" lon="13.45390788455707"><ele>115.5</ele><time>2026-03-26T15:32:37.999Z</time></trkpt><trkpt lat="41.55056095341975" lon="13.45431570343831"><ele>116.0</ele><time>2026-03-26T15:32:38.999Z</time></trkpt><trkpt lat="41.5504900649246" lon="13.454720134407959"><ele>117.5</ele><time>2026-03-26T15:32:39.999Z</time></trkpt><trkpt lat="41.55041881598268" lon="13.455124192262438"><ele>119.0</ele><time>2026-03-26T15:32:40.999Z</time></trkpt><trkpt lat="41.550346551564644" lon="13.45553008759724"><ele>120.5</ele><time>2026-03-26T15:32:41.999Z</time></trkpt><trkpt lat="41.55027421801305" lon="13.455935981489702"><ele>122.0</ele><time>2026-03-26T15:32:42.999Z</time></trkpt><trkpt lat="41.550202546355294" lon="13.45634304456169"><ele>122.0</ele><time>2026-03-26T15:32:43.999Z</time></trkpt><trkpt lat="41.55013177087462" lon="13.456749447365292"><ele>122.0</ele><time>2026-03-26T15:32:44.999Z</time></trkpt><trkpt lat="41.55006254846698" lon="13.457158058407622"><ele>122.5</ele><time>2026-03-26T15:32:45.999Z</time></trkpt><trkpt lat="41.549993957914616" lon="13.457568776857366"><ele>123.0</ele><time>2026-03-26T15:32:46.999Z</time></trkpt><trkpt lat="41.54992580953746" lon="13.457983479451345"><ele>125.0</ele><time>2026-03-26T15:32:47.999Z</time></trkpt><trkpt lat="41.54985597646867" lon="13.458396090630119"><ele>127.0</ele><time>2026-03-26T15:32:48.999Z</time></trkpt><trkpt lat="41.549787523040536" lon="13.458805667677186"><ele>127.5</ele><time>2026-03-26T15:32:49.999Z</time></trkpt><trkpt lat="41.54971869423333" lon="13.459215493533675"><ele>128.0</ele><time>2026-03-26T15:32:50.999Z</time></trkpt><trkpt lat="41.54964875925418" lon="13.459626197000652"><ele>128.0</ele><time>2026-03-26T15:32:51.999Z</time></trkpt><trkpt lat="41.54957765951753" lon="13.460037950227717"><ele>128.0</ele><time>2026-03-26T15:32:52.999Z</time></trkpt><trkpt lat="41.54950753602316" lon="13.460450121147215"><ele>128.0</ele><time>2026-03-26T15:32:53.999Z</time></trkpt><trkpt lat="41.549435968702284" lon="13.460863777471271"><ele>128.0</ele><time>2026-03-26T15:32:54.999Z</time></trkpt><trkpt lat="41.549364214843536" lon="13.461281487081202"><ele>128.0</ele><time>2026-03-26T15:32:55.999Z</time></trkpt><trkpt lat="41.549291916157586" lon="13.461702450081575"><ele>128.0</ele><time>2026-03-26T15:32:56.999Z</time></trkpt><trkpt lat="41.54921828794658" lon="13.462124191625648"><ele>128.0</ele><time>2026-03-26T15:32:57.999Z</time></trkpt><trkpt lat="41.549144591302486" lon="13.462546018910515"><ele>128.0</ele><time>2026-03-26T15:32:58.999Z</time></trkpt><trkpt lat="41.54907035932345" lon="13.462965746573898"><ele>128.0</ele><time>2026-03-26T15:32:59.999Z</time></trkpt><trkpt lat="41.548996958716515" lon="13.463386394978922"><ele>128.0</ele><time>2026-03-26T15:33:00.999Z</time></trkpt><trkpt lat="41.54892433646705" lon="13.463807065795976"><ele>126.5</ele><time>2026-03-26T15:33:01.999Z</time></trkpt><trkpt lat="41.54885072219639" lon="13.46422702396692"><ele>125.0</ele><time>2026-03-26T15:33:02.999Z</time></trkpt><trkpt lat="41.548773573854696" lon="13.464645465288156"><ele>125.5</ele><time>2026-03-26T15:33:03.999Z</time></trkpt><trkpt lat="41.54869344685297" lon="13.465062436753314"><ele>126.0</ele><time>2026-03-26T15:33:04.999Z</time></trkpt><trkpt lat="41.548611032460975" lon="13.465482466698605"><ele>123.5</ele><time>2026-03-26T15:33:05.999Z</time></trkpt><trkpt lat="41.548527481287195" lon="13.465902337269483"><ele>121.0</ele><time>2026-03-26T15:33:06.999Z</time></trkpt><trkpt lat="41.548446655848366" lon="13.466324762030341"><ele>119.5</ele><time>2026-03-26T15:33:07.999Z</time></trkpt><trkpt lat="41.54837002706745" lon="13.466751498716848"><ele>118.0</ele><time>2026-03-26T15:33:08.999Z</time></trkpt><trkpt lat="41.5482945549382" lon="13.467179293671386"><ele>117.0</ele><time>2026-03-26T15:33:09.999Z</time></trkpt><trkpt lat="41.548219257603996" lon="13.467608066377878"><ele>116.0</ele><time>2026-03-26T15:33:10.999Z</time></trkpt><trkpt lat="41.54814290593733" lon="13.468039010971232"><ele>116.0</ele><time>2026-03-26T15:33:11.999Z</time></trkpt><trkpt lat="41.548066745576826" lon="13.468467460070185"><ele>116.0</ele><time>2026-03-26T15:33:12.999Z</time></trkpt><trkpt lat="41.54799107078181" lon="13.468892623429884"><ele>116.0</ele><time>2026-03-26T15:33:13.999Z</time></trkpt><trkpt lat="41.54791564030368" lon="13.469317353696338"><ele>116.0</ele><time>2026-03-26T15:33:14.999Z</time></trkpt><trkpt lat="41.547840046099246" lon="13.469737697016143"><ele>116.5</ele><time>2026-03-26T15:33:15.999Z</time></trkpt><trkpt lat="41.547765734572856" lon="13.470153474648441"><ele>117.0</ele><time>2026-03-26T15:33:16.999Z</time></trkpt><trkpt lat="41.54769093788022" lon="13.470568809399461"><ele>121.0</ele><time>2026-03-26T15:33:17.999Z</time></trkpt><trkpt lat="41.547611447323746" lon="13.470981989598595"><ele>125.0</ele><time>2026-03-26T15:33:18.999Z</time></trkpt><trkpt lat="41.547532637930104" lon="13.4713977265787"><ele>126.0</ele><time>2026-03-26T15:33:19.999Z</time></trkpt><trkpt lat="41.54744828353148" lon="13.47181169625421"><ele>127.0</ele><time>2026-03-26T15:33:20.999Z</time></trkpt><trkpt lat="41.54737229803518" lon="13.47222482136195"><ele>127.5</ele><time>2026-03-26T15:33:21.999Z</time></trkpt><trkpt lat="41.54729644401617" lon="13.472635201516056"><ele>128.0</ele><time>2026-03-26T15:33:22.999Z</time></trkpt><trkpt lat="41.547221753984545" lon="13.473044612801273"><ele>128.0</ele><time>2026-03-26T15:33:23.999Z</time></trkpt><trkpt lat="41.547151861893155" lon="13.47345465747168"><ele>128.0</ele><time>2026-03-26T15:33:24.999Z</time></trkpt><trkpt lat="41.54708072847267" lon="13.473867867996985"><ele>128.0</ele><time>2026-03-26T15:33:25.999Z</time></trkpt><trkpt lat="41.54701221983918" lon="13.474285478960308"><ele>128.0</ele><time>2026-03-26T15:33:26.999Z</time></trkpt><trkpt lat="41.546937658100894" lon="13.474701340239156"><ele>127.0</ele><time>2026-03-26T15:33:27.999Z</time></trkpt><trkpt lat="41.54686217663827" lon="13.47511786781718"><ele>126.0</ele><time>2026-03-26T15:33:28.999Z</time></trkpt><trkpt lat="41.546789136243405" lon="13.47553658675623"><ele>125.5</ele><time>2026-03-26T15:33:29.999Z</time></trkpt><trkpt lat="41.54671513411003" lon="13.475954987633035"><ele>125.0</ele><time>2026-03-26T15:33:30.999Z</time></trkpt><trkpt lat="41.54664109393402" lon="13.476371238573748"><ele>123.5</ele><time>2026-03-26T15:33:31.999Z</time></trkpt><trkpt lat="41.54656748143196" lon="13.476785652414344"><ele>122.0</ele><time>2026-03-26T15:33:32.999Z</time></trkpt><trkpt lat="41.54649435658323" lon="13.477198457301885"><ele>120.5</ele><time>2026-03-26T15:33:33.999Z</time></trkpt><trkpt lat="41.546421367107186" lon="13.477607869334765"><ele>119.0</ele><time>2026-03-26T15:33:34.999Z</time></trkpt><trkpt lat="41.54634858273291" lon="13.478016871668496"><ele>118.0</ele><time>2026-03-26T15:33:35.999Z</time></trkpt><trkpt lat="41.54627499136116" lon="13.478424859653256"><ele>117.0</ele><time>2026-03-26T15:33:36.999Z</time></trkpt><trkpt lat="41.54620395421514" lon="13.478831332448001"><ele>116.5</ele><time>2026-03-26T15:33:37.999Z</time></trkpt><trkpt lat="41.54613159928533" lon="13.479237639200754"><ele>116.0</ele><time>2026-03-26T15:33:38.999Z</time></trkpt><trkpt lat="41.54606038478889" lon="13.479642440579287"><ele>115.0</ele><time>2026-03-26T15:33:39.999Z</time></trkpt><trkpt lat="41.54598668635644" lon="13.480046199190477"><ele>114.0</ele><time>2026-03-26T15:33:40.999Z</time></trkpt><trkpt lat="41.5459132974633" lon="13.480453498214668"><ele>113.5</ele><time>2026-03-26T15:33:41.999Z</time></trkpt><trkpt lat="41.5458420707258" lon="13.480859933936385"><ele>113.0</ele><time>2026-03-26T15:33:42.999Z</time></trkpt><trkpt lat="41.54577081389014" lon="13.481268272060422"><ele>112.0</ele><time>2026-03-26T15:33:43.999Z</time></trkpt><trkpt lat="41.54569918031614" lon="13.481679750885293"><ele>111.0</ele><time>2026-03-26T15:33:44.999Z</time></trkpt><trkpt lat="41.54562630279816" lon="13.482091662204796"><ele>111.0</ele><time>2026-03-26T15:33:45.999Z</time></trkpt><trkpt lat="41.545553529777564" lon="13.482505602944077"><ele>111.0</ele><time>2026-03-26T15:33:46.999Z</time></trkpt><trkpt lat="41.54547924921108" lon="13.482920805190178"><ele>111.5</ele><time>2026-03-26T15:33:47.999Z</time></trkpt><trkpt lat="41.545406155631255" lon="13.483339334787436"><ele>112.0</ele><time>2026-03-26T15:33:48.999Z</time></trkpt><trkpt lat="41.54533229088538" lon="13.483757667298336"><ele>113.0</ele><time>2026-03-26T15:33:49.999Z</time></trkpt><trkpt lat="41.545258293916774" lon="13.484174002642131"><ele>114.0</ele><time>2026-03-26T15:33:50.999Z</time></trkpt><trkpt lat="41.54518515628263" lon="13.484585728499823"><ele>114.5</ele><time>2026-03-26T15:33:51.999Z</time></trkpt><trkpt lat="41.54511455435627" lon="13.484996487125164"><ele>115.0</ele><time>2026-03-26T15:33:52.999Z</time></trkpt><trkpt lat="41.545041962639274" lon="13.485407007953665"><ele>115.5</ele><time>2026-03-26T15:33:53.999Z</time></trkpt><trkpt lat="41.544970189143946" lon="13.485816975406012"><ele>116.0</ele><time>2026-03-26T15:33:54.999Z</time></trkpt><trkpt lat="41.54489723213938" lon="13.486224998454551"><ele>117.5</ele><time>2026-03-26T15:33:55.998Z</time></trkpt><trkpt lat="41.54482381935825" lon="13.486630997678317"><ele>119.0</ele><time>2026-03-26T15:33:56.998Z</time></trkpt><trkpt lat="41.54475046275275" lon="13.487034176293488"><ele>119.5</ele><time>2026-03-26T15:33:57.998Z</time></trkpt><trkpt lat="41.54467563654813" lon="13.487437043029706"><ele>120.0</ele><time>2026-03-26T15:33:58.998Z</time></trkpt><trkpt lat="41.54460364131593" lon="13.487839709266131"><ele>119.0</ele><time>2026-03-26T15:33:59.998Z</time></trkpt><trkpt lat="41.54453112467594" lon="13.48824461938756"><ele>118.0</ele><time>2026-03-26T15:34:00.998Z</time></trkpt><trkpt lat="41.54445588094892" lon="13.488648759040668"><ele>119.0</ele><time>2026-03-26T15:34:01.998Z</time></trkpt><trkpt lat="41.54438399534815" lon="13.489053374718683"><ele>120.0</ele><time>2026-03-26T15:34:02.998Z</time></trkpt><trkpt lat="41.544312155182276" lon="13.48945957932179"><ele>121.5</ele><time>2026-03-26T15:34:03.998Z</time></trkpt><trkpt lat="41.54424193074261" lon="13.489867182314818"><ele>123.0</ele><time>2026-03-26T15:34:05Z</time></trkpt><trkpt lat="41.54417327240818" lon="13.490276400625856"><ele>123.5</ele><time>2026-03-26T15:34:06Z</time></trkpt><trkpt lat="41.544104962210525" lon="13.490681267813574"><ele>124.0</ele><time>2026-03-26T15:34:07Z</time></trkpt><trkpt lat="41.54403741417802" lon="13.491083533848785"><ele>125.5</ele><time>2026-03-26T15:34:08Z</time></trkpt><trkpt lat="41.54396799764296" lon="13.491482948109148"><ele>127.0</ele><time>2026-03-26T15:34:09Z</time></trkpt><trkpt lat="41.54389738397774" lon="13.491878756293431"><ele>126.5</ele><time>2026-03-26T15:34:10Z</time></trkpt><trkpt lat="41.54382682203939" lon="13.49227370242583"><ele>126.0</ele><time>2026-03-26T15:34:11Z</time></trkpt><trkpt lat="41.54375740443834" lon="13.492667284544385"><ele>125.0</ele><time>2026-03-26T15:34:12Z</time></trkpt><trkpt lat="41.54368967928592" lon="13.49305903478623"><ele>124.0</ele><time>2026-03-26T15:34:13Z</time></trkpt><trkpt lat="41.543622004815624" lon="13.493450142705477"><ele>124.5</ele><time>2026-03-26T15:34:14Z</time></trkpt><trkpt lat="41.54355372268088" lon="13.493843385379087"><ele>125.0</ele><time>2026-03-26T15:34:15Z</time></trkpt><trkpt lat="41.54348390413545" lon="13.494237721851777"><ele>124.5</ele><time>2026-03-26T15:34:16Z</time></trkpt><trkpt lat="41.543414918370225" lon="13.494631649837862"><ele>124.0</ele><time>2026-03-26T15:34:17Z</time></trkpt><trkpt lat="41.54334981286198" lon="13.495031490076894"><ele>124.0</ele><time>2026-03-26T15:34:18Z</time></trkpt><trkpt lat="41.54328433701724" lon="13.495432330415808"><ele>124.0</ele><time>2026-03-26T15:34:19Z</time></trkpt><trkpt lat="41.54321726459628" lon="13.495834410607609"><ele>124.0</ele><time>2026-03-26T15:34:20Z</time></trkpt><trkpt lat="41.543152494118665" lon="13.496241251362546"><ele>124.0</ele><time>2026-03-26T15:34:21Z</time></trkpt><trkpt lat="41.54309026347122" lon="13.496648621618894"><ele>123.0</ele><time>2026-03-26T15:34:22Z</time></trkpt><trkpt lat="41.54303223706491" lon="13.497059248499555"><ele>122.0</ele><time>2026-03-26T15:34:23Z</time></trkpt><trkpt lat="41.54298103120473" lon="13.497467906361713"><ele>121.5</ele><time>2026-03-26T15:34:24Z</time></trkpt><trkpt lat="41.54292858973309" lon="13.497866943815335"><ele>121.0</ele><time>2026-03-26T15:34:25Z</time></trkpt><trkpt lat="41.54287506468338" lon="13.498256740474444"><ele>120.0</ele><time>2026-03-26T15:34:26Z</time></trkpt><trkpt lat="41.54282926116216" lon="13.498648096831669"><ele>119.0</ele><time>2026-03-26T15:34:27Z</time></trkpt><trkpt lat="41.54279108495211" lon="13.499040771278352"><ele>119.0</ele><time>2026-03-26T15:34:28Z</time></trkpt><trkpt lat="41.54275586640179" lon="13.499432581270744"><ele>119.0</ele><time>2026-03-26T15:34:29Z</time></trkpt><trkpt lat="41.542726772451246" lon="13.499826972145591"><ele>119.5</ele><time>2026-03-26T15:34:30Z</time></trkpt><trkpt lat="41.54270115357088" lon="13.500226613785891"><ele>120.0</ele><time>2026-03-26T15:34:31Z</time></trkpt><trkpt lat="41.54267697395988" lon="13.500630064342124"><ele>120.0</ele><time>2026-03-26T15:34:32Z</time></trkpt><trkpt lat="41.54265626071582" lon="13.501037189870031"><ele>120.0</ele><time>2026-03-26T15:34:33Z</time></trkpt><trkpt lat="41.54263455200081" lon="13.501445293834841"><ele>119.5</ele><time>2026-03-26T15:34:34Z</time></trkpt><trkpt lat="41.54261850183899" lon="13.501855315934762"><ele>119.0</ele><time>2026-03-26T15:34:34.999Z</time></trkpt><trkpt lat="41.542602140470116" lon="13.50226742646338"><ele>119.0</ele><time>2026-03-26T15:34:35.999Z</time></trkpt><trkpt lat="41.542590855325" lon="13.502682467356781"><ele>119.0</ele><time>2026-03-26T15:34:36.999Z</time></trkpt><trkpt lat="41.54258304400089" lon="13.503101477126272"><ele>118.5</ele><time>2026-03-26T15:34:37.999Z</time></trkpt><trkpt lat="41.54257696155653" lon="13.503522958233855"><ele>118.0</ele><time>2026-03-26T15:34:38.999Z</time></trkpt><trkpt lat="41.54257088139814" lon="13.503946976159423"><ele>116.5</ele><time>2026-03-26T15:34:39.999Z</time></trkpt><trkpt lat="41.542573416340126" lon="13.504374620121498"><ele>115.0</ele><time>2026-03-26T15:34:40.999Z</time></trkpt><trkpt lat="41.54257907932638" lon="13.504801818963625"><ele>113.5</ele><time>2026-03-26T15:34:41.999Z</time></trkpt><trkpt lat="41.54258815580395" lon="13.505228558049495"><ele>112.0</ele><time>2026-03-26T15:34:42.999Z</time></trkpt><trkpt lat="41.54259956317536" lon="13.505654348090665"><ele>111.5</ele><time>2026-03-26T15:34:43.999Z</time></trkpt><trkpt lat="41.54261189752069" lon="13.506082007532946"><ele>111.0</ele><time>2026-03-26T15:34:44.999Z</time></trkpt><trkpt lat="41.54262537276369" lon="13.506509889807617"><ele>110.0</ele><time>2026-03-26T15:34:45.999Z</time></trkpt><trkpt lat="41.542638061072715" lon="13.506935265459619"><ele>109.0</ele><time>2026-03-26T15:34:46.999Z</time></trkpt><trkpt lat="41.54265178735295" lon="13.507360381682513"><ele>108.5</ele><time>2026-03-26T15:34:47.999Z</time></trkpt><trkpt lat="41.54266397778713" lon="13.507781900442557"><ele>108.0</ele><time>2026-03-26T15:34:48.999Z</time></trkpt><trkpt lat="41.542675668900216" lon="13.508201582082632"><ele>107.5</ele><time>2026-03-26T15:34:49.999Z</time></trkpt><trkpt lat="41.54268901270115" lon="13.508616241042942"><ele>107.0</ele><time>2026-03-26T15:34:50.999Z</time></trkpt><trkpt lat="41.5427024307199" lon="13.509027158904333"><ele>107.0</ele><time>2026-03-26T15:34:51.999Z</time></trkpt><trkpt lat="41.54271640636283" lon="13.50943157254938"><ele>107.0</ele><time>2026-03-26T15:34:52.999Z</time></trkpt><trkpt lat="41.542729047425894" lon="13.50983267139859"><ele>106.5</ele><time>2026-03-26T15:34:53.999Z</time></trkpt><trkpt lat="41.54274154327327" lon="13.51022655608819"><ele>106.0</ele><time>2026-03-26T15:34:54.999Z</time></trkpt><trkpt lat="41.54275311209127" lon="13.510615059916443"><ele>105.5</ele><time>2026-03-26T15:34:55.999Z</time></trkpt><trkpt lat="41.542762643085304" lon="13.510999704671152"><ele>105.0</ele><time>2026-03-26T15:34:56.999Z</time></trkpt><trkpt lat="41.54277253232502" lon="13.511383301953902"><ele>103.5</ele><time>2026-03-26T15:34:57.999Z</time></trkpt><trkpt lat="41.54278461454312" lon="13.511772684857863"><ele>102.0</ele><time>2026-03-26T15:34:58.999Z</time></trkpt><trkpt lat="41.542794926653286" lon="13.512165374033163"><ele>99.5</ele><time>2026-03-26T15:34:59.999Z</time></trkpt><trkpt lat="41.54280835660016" lon="13.512558505221017"><ele>97.0</ele><time>2026-03-26T15:35:00.999Z</time></trkpt><trkpt lat="41.54282057436678" lon="13.512952802081925"><ele>95.0</ele><time>2026-03-26T15:35:01.999Z</time></trkpt><trkpt lat="41.542834372521774" lon="13.513351880920357"><ele>93.0</ele><time>2026-03-26T15:35:02.999Z</time></trkpt><trkpt lat="41.54284706499156" lon="13.513753011945264"><ele>93.0</ele><time>2026-03-26T15:35:03.999Z</time></trkpt><trkpt lat="41.54286019544189" lon="13.514155834061407"><ele>93.0</ele><time>2026-03-26T15:35:04.999Z</time></trkpt><trkpt lat="41.5428721472464" lon="13.514559449663096"><ele>94.0</ele><time>2026-03-26T15:35:05.999Z</time></trkpt><trkpt lat="41.54288423395966" lon="13.514968244508362"><ele>95.0</ele><time>2026-03-26T15:35:06.999Z</time></trkpt><trkpt lat="41.54289669604781" lon="13.515379148288677"><ele>95.0</ele><time>2026-03-26T15:35:07.999Z</time></trkpt><trkpt lat="41.542910868047485" lon="13.515794636951481"><ele>95.0</ele><time>2026-03-26T15:35:08.999Z</time></trkpt><trkpt lat="41.54292475813625" lon="13.516215883262912"><ele>93.5</ele><time>2026-03-26T15:35:09.999Z</time></trkpt><trkpt lat="41.542938196761455" lon="13.5166390118633"><ele>92.0</ele><time>2026-03-26T15:35:10.999Z</time></trkpt><trkpt lat="41.542954210190835" lon="13.51706508788768"><ele>90.5</ele><time>2026-03-26T15:35:11.999Z</time></trkpt><trkpt lat="41.54296745125901" lon="13.517492422558355"><ele>89.0</ele><time>2026-03-26T15:35:12.999Z</time></trkpt><trkpt lat="41.542976803254696" lon="13.517921565041151"><ele>89.0</ele><time>2026-03-26T15:35:13.999Z</time></trkpt><trkpt lat="41.542994207670326" lon="13.518351344566758"><ele>89.0</ele><time>2026-03-26T15:35:14.999Z</time></trkpt><trkpt lat="41.54300527641719" lon="13.518782903617147"><ele>91.0</ele><time>2026-03-26T15:35:15.999Z</time></trkpt><trkpt lat="41.543019251577114" lon="13.519212500353976"><ele>93.0</ele><time>2026-03-26T15:35:16.999Z</time></trkpt><trkpt lat="41.54303459087136" lon="13.519640954282522"><ele>94.0</ele><time>2026-03-26T15:35:17.999Z</time></trkpt><trkpt lat="41.54304729454041" lon="13.520069422609641"><ele>95.0</ele><time>2026-03-26T15:35:18.999Z</time></trkpt><trkpt lat="41.54306036204732" lon="13.520495910141435"><ele>95.0</ele><time>2026-03-26T15:35:19.999Z</time></trkpt><trkpt lat="41.543073989388034" lon="13.520922963150861"><ele>95.0</ele><time>2026-03-26T15:35:20.999Z</time></trkpt><trkpt lat="41.54309027700706" lon="13.521346869560015"><ele>96.0</ele><time>2026-03-26T15:35:21.999Z</time></trkpt><trkpt lat="41.54310172147282" lon="13.521771208801713"><ele>97.0</ele><time>2026-03-26T15:35:22.999Z</time></trkpt><trkpt lat="41.543112414704375" lon="13.522195006634455"><ele>97.5</ele><time>2026-03-26T15:35:23.999Z</time></trkpt><trkpt lat="41.54312065885217" lon="13.522618199640215"><ele>98.0</ele><time>2026-03-26T15:35:24.999Z</time></trkpt><trkpt lat="41.543128871474075" lon="13.523044093206257"><ele>98.5</ele><time>2026-03-26T15:35:25.999Z</time></trkpt><trkpt lat="41.543137728881526" lon="13.523469295344999"><ele>99.0</ele><time>2026-03-26T15:35:26.999Z</time></trkpt><trkpt lat="41.54314577212742" lon="13.523894474869868"><ele>100.0</ele><time>2026-03-26T15:35:27.999Z</time></trkpt><trkpt lat="41.54315591436662" lon="13.524320339601102"><ele>101.0</ele><time>2026-03-26T15:35:28.999Z</time></trkpt><trkpt lat="41.54316690986594" lon="13.524744906357013"><ele>102.0</ele><time>2026-03-26T15:35:29.999Z</time></trkpt><trkpt lat="41.543179184943526" lon="13.525173189267608"><ele>103.0</ele><time>2026-03-26T15:35:30.999Z</time></trkpt><trkpt lat="41.54319041499989" lon="13.52559896375467"><ele>104.5</ele><time>2026-03-26T15:35:31.999Z</time></trkpt><trkpt lat="41.543202578525786" lon="13.5260235880439"><ele>106.0</ele><time>2026-03-26T15:35:32.999Z</time></trkpt><trkpt lat="41.543215072254036" lon="13.52644902009769"><ele>107.5</ele><time>2026-03-26T15:35:33.999Z</time></trkpt><trkpt lat="41.54322777184687" lon="13.526871998232897"><ele>109.0</ele><time>2026-03-26T15:35:34.999Z</time></trkpt><trkpt lat="41.54324213670395" lon="13.527293688576426"><ele>110.0</ele><time>2026-03-26T15:35:35.999Z</time></trkpt><trkpt lat="41.543254185994925" lon="13.527716256711054"><ele>111.0</ele><time>2026-03-26T15:35:36.999Z</time></trkpt><trkpt lat="41.54326777593726" lon="13.528137921733675"><ele>111.5</ele><time>2026-03-26T15:35:37.999Z</time></trkpt><trkpt lat="41.54328040435447" lon="13.528558371691696"><ele>112.0</ele><time>2026-03-26T15:35:38.999Z</time></trkpt><trkpt lat="41.54329124705218" lon="13.528980958055833"><ele>113.0</ele><time>2026-03-26T15:35:39.999Z</time></trkpt><trkpt lat="41.543302915343865" lon="13.529395044533107"><ele>114.0</ele><time>2026-03-26T15:35:40.999Z</time></trkpt><trkpt lat="41.543314389498924" lon="13.529812158905846"><ele>115.5</ele><time>2026-03-26T15:35:41.999Z</time></trkpt><trkpt lat="41.543326852437396" lon="13.530225270717679"><ele>117.0</ele><time>2026-03-26T15:35:42.999Z</time></trkpt><trkpt lat="41.543340801239005" lon="13.530638109274477"><ele>120.5</ele><time>2026-03-26T15:35:43.999Z</time></trkpt><trkpt lat="41.54335540198319" lon="13.531052441183101"><ele>124.0</ele><time>2026-03-26T15:35:44.999Z</time></trkpt><trkpt lat="41.54337319733312" lon="13.531469067876301"><ele>127.5</ele><time>2026-03-26T15:35:45.999Z</time></trkpt><trkpt lat="41.54338886508748" lon="13.53188520993924"><ele>131.0</ele><time>2026-03-26T15:35:46.999Z</time></trkpt><trkpt lat="41.54340811625557" lon="13.532303100328994"><ele>131.5</ele><time>2026-03-26T15:35:47.999Z</time></trkpt><trkpt lat="41.54342506258365" lon="13.532720016930037"><ele>132.0</ele><time>2026-03-26T15:35:48.999Z</time></trkpt><trkpt lat="41.54344078140611" lon="13.533139882525376"><ele>132.0</ele><time>2026-03-26T15:35:49.999Z</time></trkpt><trkpt lat="41.54345378413329" lon="13.53355403448571"><ele>132.0</ele><time>2026-03-26T15:35:50.999Z</time></trkpt><trkpt lat="41.54346919510246" lon="13.533969517751093"><ele>130.5</ele><time>2026-03-26T15:35:51.999Z</time></trkpt><trkpt lat="41.54348290213183" lon="13.53438393600561"><ele>129.0</ele><time>2026-03-26T15:35:52.999Z</time></trkpt><trkpt lat="41.54349775396184" lon="13.53479934431918"><ele>128.0</ele><time>2026-03-26T15:35:53.999Z</time></trkpt><trkpt lat="41.54351257374716" lon="13.535211170510987"><ele>127.0</ele><time>2026-03-26T15:35:54.999Z</time></trkpt><trkpt lat="41.54352422267985" lon="13.535624901775755"><ele>126.5</ele><time>2026-03-26T15:35:55.999Z</time></trkpt><trkpt lat="41.54353554061093" lon="13.536036408494"><ele>126.0</ele><time>2026-03-26T15:35:56.999Z</time></trkpt><trkpt lat="41.54354781617477" lon="13.536448409378698"><ele>126.0</ele><time>2026-03-26T15:35:57.999Z</time></trkpt><trkpt lat="41.54356071406057" lon="13.536860198611176"><ele>126.0</ele><time>2026-03-26T15:35:58.999Z</time></trkpt><trkpt lat="41.54357126088625" lon="13.537273000437615"><ele>126.0</ele><time>2026-03-26T15:35:59.999Z</time></trkpt><trkpt lat="41.54358533698597" lon="13.537685974528378"><ele>126.0</ele><time>2026-03-26T15:36:00.999Z</time></trkpt><trkpt lat="41.54359763150097" lon="13.538098016382735"><ele>124.5</ele><time>2026-03-26T15:36:01.999Z</time></trkpt><trkpt lat="41.54361071251099" lon="13.538510567899921"><ele>123.0</ele><time>2026-03-26T15:36:02.999Z</time></trkpt><trkpt lat="41.543625020148276" lon="13.538924814935347"><ele>123.0</ele><time>2026-03-26T15:36:03.999Z</time></trkpt><trkpt lat="41.54363682896271" lon="13.539338607428464"><ele>123.0</ele><time>2026-03-26T15:36:04.999Z</time></trkpt><trkpt lat="41.54364594301388" lon="13.539752348735036"><ele>123.0</ele><time>2026-03-26T15:36:05.999Z</time></trkpt><trkpt lat="41.5436595157417" lon="13.540168807953009"><ele>123.0</ele><time>2026-03-26T15:36:06.998Z</time></trkpt><trkpt lat="41.54367009796489" lon="13.540586698483285"><ele>124.5</ele><time>2026-03-26T15:36:07.998Z</time></trkpt><trkpt lat="41.54368446259584" lon="13.541007964024034"><ele>126.0</ele><time>2026-03-26T15:36:08.998Z</time></trkpt><trkpt lat="41.54369772182334" lon="13.541434449436254"><ele>126.5</ele><time>2026-03-26T15:36:09.998Z</time></trkpt><trkpt lat="41.54371175384852" lon="13.541865963173608"><ele>127.0</ele><time>2026-03-26T15:36:11Z</time></trkpt><trkpt lat="41.54372461896857" lon="13.542297170600872"><ele>119.5</ele><time>2026-03-26T15:36:12Z</time></trkpt><trkpt lat="41.5437382669006" lon="13.542732406794743"><ele>112.0</ele><time>2026-03-26T15:36:13Z</time></trkpt><trkpt lat="41.54374924346337" lon="13.54316916507003"><ele>112.0</ele><time>2026-03-26T15:36:14Z</time></trkpt><trkpt lat="41.54376212065905" lon="13.543607080752498"><ele>112.0</ele><time>2026-03-26T15:36:15Z</time></trkpt><trkpt lat="41.54377616189762" lon="13.544046313117382"><ele>112.0</ele><time>2026-03-26T15:36:16Z</time></trkpt><trkpt lat="41.54378912581441" lon="13.54448559968896"><ele>112.0</ele><time>2026-03-26T15:36:17Z</time></trkpt><trkpt lat="41.543803465302766" lon="13.544920135046876"><ele>114.5</ele><time>2026-03-26T15:36:18Z</time></trkpt><trkpt lat="41.543821353636375" lon="13.545348863409018"><ele>117.0</ele><time>2026-03-26T15:36:19Z</time></trkpt><trkpt lat="41.543835097764756" lon="13.545772451196893"><ele>119.5</ele><time>2026-03-26T15:36:20Z</time></trkpt><trkpt lat="41.54384854461714" lon="13.546196300585478"><ele>122.0</ele><time>2026-03-26T15:36:21Z</time></trkpt><trkpt lat="41.54385835198884" lon="13.546617260085704"><ele>123.5</ele><time>2026-03-26T15:36:22Z</time></trkpt><trkpt lat="41.54386755961733" lon="13.54703778216936"><ele>125.0</ele><time>2026-03-26T15:36:23Z</time></trkpt><trkpt lat="41.54387387384613" lon="13.547454396878985"><ele>125.5</ele><time>2026-03-26T15:36:24Z</time></trkpt><trkpt lat="41.54387956832352" lon="13.547867270002188"><ele>126.0</ele><time>2026-03-26T15:36:25Z</time></trkpt><trkpt lat="41.5438869382083" lon="13.548279778856736"><ele>128.0</ele><time>2026-03-26T15:36:26Z</time></trkpt><trkpt lat="41.54389638351181" lon="13.54869345545449"><ele>130.0</ele><time>2026-03-26T15:36:27Z</time></trkpt><trkpt lat="41.543905962283326" lon="13.549108361602036"><ele>131.0</ele><time>2026-03-26T15:36:28Z</time></trkpt><trkpt lat="41.54392070432653" lon="13.549523380050156"><ele>132.0</ele><time>2026-03-26T15:36:29Z</time></trkpt><trkpt lat="41.543934479711275" lon="13.549939393332751"><ele>132.0</ele><time>2026-03-26T15:36:30Z</time></trkpt><trkpt lat="41.5439457697774" lon="13.550355588596984"><ele>132.0</ele><time>2026-03-26T15:36:31Z</time></trkpt><trkpt lat="41.54395958235447" lon="13.55077396977546"><ele>132.0</ele><time>2026-03-26T15:36:32Z</time></trkpt><trkpt lat="41.54397219998614" lon="13.551192854543086"><ele>132.0</ele><time>2026-03-26T15:36:33Z</time></trkpt><trkpt lat="41.543984955152084" lon="13.551612487364"><ele>132.0</ele><time>2026-03-26T15:36:34Z</time></trkpt><trkpt lat="41.543998788757925" lon="13.552033720389906"><ele>132.0</ele><time>2026-03-26T15:36:35Z</time></trkpt><trkpt lat="41.544013369012596" lon="13.552457558703022"><ele>132.0</ele><time>2026-03-26T15:36:36Z</time></trkpt><trkpt lat="41.54402837644673" lon="13.552883953675833"><ele>132.0</ele><time>2026-03-26T15:36:37Z</time></trkpt><trkpt lat="41.54404582017288" lon="13.553312431194819"><ele>132.0</ele><time>2026-03-26T15:36:38Z</time></trkpt><trkpt lat="41.54406657353529" lon="13.553743383275078"><ele>132.0</ele><time>2026-03-26T15:36:39Z</time></trkpt><trkpt lat="41.54408614950336" lon="13.554179724648558"><ele>132.5</ele><time>2026-03-26T15:36:40Z</time></trkpt><trkpt lat="41.5441020180633" lon="13.554617400358975"><ele>133.0</ele><time>2026-03-26T15:36:41Z</time></trkpt><trkpt lat="41.54411192108443" lon="13.555055412385308"><ele>133.5</ele><time>2026-03-26T15:36:42Z</time></trkpt><trkpt lat="41.544119483716216" lon="13.55549328887873"><ele>134.0</ele><time>2026-03-26T15:36:43Z</time></trkpt><trkpt lat="41.54412087389969" lon="13.555932847125204"><ele>133.0</ele><time>2026-03-26T15:36:43.999Z</time></trkpt><trkpt lat="41.54412309307294" lon="13.556370920212876"><ele>132.0</ele><time>2026-03-26T15:36:44.999Z</time></trkpt><trkpt lat="41.54412536172252" lon="13.556804375333009"><ele>131.0</ele><time>2026-03-26T15:36:45.999Z</time></trkpt><trkpt lat="41.54412308391728" lon="13.557235473429916"><ele>130.0</ele><time>2026-03-26T15:36:46.999Z</time></trkpt><trkpt lat="41.544124543269966" lon="13.55766119736289"><ele>130.5</ele><time>2026-03-26T15:36:47.999Z</time></trkpt><trkpt lat="41.54412230704549" lon="13.558086357065783"><ele>131.0</ele><time>2026-03-26T15:36:48.999Z</time></trkpt><trkpt lat="41.544117097656446" lon="13.558509451856214"><ele>132.0</ele><time>2026-03-26T15:36:49.999Z</time></trkpt><trkpt lat="41.544109517419294" lon="13.558932020624539"><ele>133.0</ele><time>2026-03-26T15:36:50.999Z</time></trkpt><trkpt lat="41.5441008323685" lon="13.559354402145074"><ele>134.5</ele><time>2026-03-26T15:36:51.999Z</time></trkpt><trkpt lat="41.54409010923964" lon="13.559775649973451"><ele>136.0</ele><time>2026-03-26T15:36:52.999Z</time></trkpt><trkpt lat="41.54407568126026" lon="13.560197468601618"><ele>136.0</ele><time>2026-03-26T15:36:53.999Z</time></trkpt><trkpt lat="41.544056641569746" lon="13.560617860357612"><ele>136.0</ele><time>2026-03-26T15:36:54.999Z</time></trkpt><trkpt lat="41.544037968270075" lon="13.561039344894315"><ele>136.0</ele><time>2026-03-26T15:36:55.999Z</time></trkpt><trkpt lat="41.54401146313133" lon="13.561458923056884"><ele>136.0</ele><time>2026-03-26T15:36:56.999Z</time></trkpt><trkpt lat="41.54398283705304" lon="13.561875405923375"><ele>136.5</ele><time>2026-03-26T15:36:57.999Z</time></trkpt><trkpt lat="41.54395003632815" lon="13.562291380351315"><ele>137.0</ele><time>2026-03-26T15:36:58.999Z</time></trkpt><trkpt lat="41.543918830853926" lon="13.562709202566646"><ele>136.5</ele><time>2026-03-26T15:36:59.999Z</time></trkpt><trkpt lat="41.54388501944172" lon="13.563126724209186"><ele>136.0</ele><time>2026-03-26T15:37:00.999Z</time></trkpt><trkpt lat="41.54384992791061" lon="13.56354523082679"><ele>136.0</ele><time>2026-03-26T15:37:01.999Z</time></trkpt><trkpt lat="41.54381484190784" lon="13.563962518136126"><ele>136.0</ele><time>2026-03-26T15:37:02.999Z</time></trkpt><trkpt lat="41.543777029084076" lon="13.564380953951424"><ele>136.5</ele><time>2026-03-26T15:37:03.999Z</time></trkpt><trkpt lat="41.543737950001606" lon="13.56480210097809"><ele>137.0</ele><time>2026-03-26T15:37:04.999Z</time></trkpt><trkpt lat="41.543695664243515" lon="13.565224182536802"><ele>135.5</ele><time>2026-03-26T15:37:05.999Z</time></trkpt><trkpt lat="41.543655057917135" lon="13.565648316103044"><ele>134.0</ele><time>2026-03-26T15:37:06.999Z</time></trkpt><trkpt lat="41.54360981680482" lon="13.566075472628583"><ele>132.5</ele><time>2026-03-26T15:37:07.999Z</time></trkpt><trkpt lat="41.54356222423162" lon="13.566502819988962"><ele>131.0</ele><time>2026-03-26T15:37:08.999Z</time></trkpt><trkpt lat="41.54351260138158" lon="13.566933880888321"><ele>130.5</ele><time>2026-03-26T15:37:09.999Z</time></trkpt><trkpt lat="41.5434587408808" lon="13.56736589141337"><ele>130.0</ele><time>2026-03-26T15:37:10.999Z</time></trkpt><trkpt lat="41.54340273439655" lon="13.567799873601455"><ele>129.0</ele><time>2026-03-26T15:37:11.999Z</time></trkpt><trkpt lat="41.543341528906105" lon="13.568235060553452"><ele>128.0</ele><time>2026-03-26T15:37:12.999Z</time></trkpt><trkpt lat="41.5432776788655" lon="13.568671514832326"><ele>127.5</ele><time>2026-03-26T15:37:13.999Z</time></trkpt><trkpt lat="41.543211682888305" lon="13.56910891806193"><ele>127.0</ele><time>2026-03-26T15:37:14.999Z</time></trkpt><trkpt lat="41.5431435573662" lon="13.569548257510895"><ele>127.0</ele><time>2026-03-26T15:37:15.999Z</time></trkpt><trkpt lat="41.543076453000225" lon="13.569984587141258"><ele>127.0</ele><time>2026-03-26T15:37:16.999Z</time></trkpt><trkpt lat="41.54300437140388" lon="13.570416512450636"><ele>125.5</ele><time>2026-03-26T15:37:17.999Z</time></trkpt><trkpt lat="41.54292902141759" lon="13.570843385415488"><ele>124.0</ele><time>2026-03-26T15:37:18.999Z</time></trkpt><trkpt lat="41.54285448829835" lon="13.57126496957335"><ele>120.5</ele><time>2026-03-26T15:37:19.999Z</time></trkpt><trkpt lat="41.54277734998914" lon="13.5716826124389"><ele>117.0</ele><time>2026-03-26T15:37:20.999Z</time></trkpt><trkpt lat="41.54270102851793" lon="13.572100429251424"><ele>116.5</ele><time>2026-03-26T15:37:21.999Z</time></trkpt><trkpt lat="41.542620371055555" lon="13.572515380749394"><ele>116.0</ele><time>2026-03-26T15:37:22.999Z</time></trkpt><trkpt lat="41.5425362236951" lon="13.572931865066707"><ele>117.0</ele><time>2026-03-26T15:37:23.999Z</time></trkpt><trkpt lat="41.542450966965745" lon="13.573346688610078"><ele>118.0</ele><time>2026-03-26T15:37:24.999Z</time></trkpt><trkpt lat="41.54236729631184" lon="13.573760817860693"><ele>115.5</ele><time>2026-03-26T15:37:25.999Z</time></trkpt><trkpt lat="41.54228126215892" lon="13.574176171237578"><ele>113.0</ele><time>2026-03-26T15:37:26.999Z</time></trkpt><trkpt lat="41.54219436430566" lon="13.574595832129427"><ele>109.0</ele><time>2026-03-26T15:37:27.999Z</time></trkpt><trkpt lat="41.542106579389504" lon="13.575016598935152"><ele>105.0</ele><time>2026-03-26T15:37:28.999Z</time></trkpt><trkpt lat="41.542014975247085" lon="13.575436809213285"><ele>105.0</ele><time>2026-03-26T15:37:29.999Z</time></trkpt><trkpt lat="41.541922077007506" lon="13.575856209870725"><ele>105.0</ele><time>2026-03-26T15:37:30.999Z</time></trkpt><trkpt lat="41.541822645684086" lon="13.576272248843225"><ele>105.0</ele><time>2026-03-26T15:37:31.999Z</time></trkpt><trkpt lat="41.54171937730129" lon="13.576683541456491"><ele>105.0</ele><time>2026-03-26T15:37:32.999Z</time></trkpt><trkpt lat="41.54161491561312" lon="13.577094714232818"><ele>105.0</ele><time>2026-03-26T15:37:33.999Z</time></trkpt><trkpt lat="41.54150915046255" lon="13.577507501555816"><ele>105.0</ele><time>2026-03-26T15:37:34.999Z</time></trkpt><trkpt lat="41.54140532037737" lon="13.577917477441707"><ele>105.0</ele><time>2026-03-26T15:37:35.999Z</time></trkpt><trkpt lat="41.54129927368465" lon="13.57832601889107"><ele>105.0</ele><time>2026-03-26T15:37:36.999Z</time></trkpt><trkpt lat="41.541188091671536" lon="13.578733342835818"><ele>104.5</ele><time>2026-03-26T15:37:37.999Z</time></trkpt><trkpt lat="41.541071889075745" lon="13.579137895845536"><ele>104.0</ele><time>2026-03-26T15:37:38.999Z</time></trkpt><trkpt lat="41.54095488751965" lon="13.579542862123867"><ele>104.0</ele><time>2026-03-26T15:37:39.999Z</time></trkpt><trkpt lat="41.540833261305636" lon="13.579946915711965"><ele>104.0</ele><time>2026-03-26T15:37:40.999Z</time></trkpt><trkpt lat="41.54071055252743" lon="13.580350364382365"><ele>108.0</ele><time>2026-03-26T15:37:41.999Z</time></trkpt><trkpt lat="41.54058787520422" lon="13.580753468193567"><ele>112.0</ele><time>2026-03-26T15:37:42.999Z</time></trkpt><trkpt lat="41.540457677238244" lon="13.58115323658693"><ele>114.0</ele><time>2026-03-26T15:37:43.999Z</time></trkpt><trkpt lat="41.540326510083744" lon="13.581550003100745"><ele>116.0</ele><time>2026-03-26T15:37:44.999Z</time></trkpt><trkpt lat="41.540193254658995" lon="13.581940775942781"><ele>116.0</ele><time>2026-03-26T15:37:45.999Z</time></trkpt><trkpt lat="41.54005864430296" lon="13.582330829760142"><ele>116.0</ele><time>2026-03-26T15:37:46.999Z</time></trkpt><trkpt lat="41.53992229579827" lon="13.582720383051297"><ele>117.5</ele><time>2026-03-26T15:37:47.999Z</time></trkpt><trkpt lat="41.53978655662245" lon="13.583107173171623"><ele>119.0</ele><time>2026-03-26T15:37:48.999Z</time></trkpt><trkpt lat="41.53964624628461" lon="13.58349411635629"><ele>120.5</ele><time>2026-03-26T15:37:49.999Z</time></trkpt><trkpt lat="41.53950491108584" lon="13.583877230879777"><ele>122.0</ele><time>2026-03-26T15:37:50.999Z</time></trkpt><trkpt lat="41.539359584699774" lon="13.584254150176893"><ele>122.0</ele><time>2026-03-26T15:37:51.999Z</time></trkpt><trkpt lat="41.5392148735986" lon="13.584631429451084"><ele>122.0</ele><time>2026-03-26T15:37:52.999Z</time></trkpt><trkpt lat="41.53906808072842" lon="13.585005572728413"><ele>122.5</ele><time>2026-03-26T15:37:53.999Z</time></trkpt><trkpt lat="41.53891858604187" lon="13.585377204163288"><ele>123.0</ele><time>2026-03-26T15:37:54.999Z</time></trkpt><trkpt lat="41.538762815227" lon="13.585743520830471"><ele>123.0</ele><time>2026-03-26T15:37:55.999Z</time></trkpt><trkpt lat="41.53860353942377" lon="13.586108626347196"><ele>123.0</ele><time>2026-03-26T15:37:56.999Z</time></trkpt><trkpt lat="41.538439637295546" lon="13.586472658129198"><ele>122.5</ele><time>2026-03-26T15:37:57.999Z</time></trkpt><trkpt lat="41.53827333249979" lon="13.5868371126141"><ele>122.0</ele><time>2026-03-26T15:37:58.999Z</time></trkpt><trkpt lat="41.538107969881" lon="13.58720537897844"><ele>121.5</ele><time>2026-03-26T15:37:59.999Z</time></trkpt><trkpt lat="41.53794604249936" lon="13.587576537142295"><ele>121.0</ele><time>2026-03-26T15:38:00.999Z</time></trkpt><trkpt lat="41.53778800003721" lon="13.587949333272064"><ele>120.5</ele><time>2026-03-26T15:38:01.999Z</time></trkpt><trkpt lat="41.53762912659591" lon="13.588319197664093"><ele>120.0</ele><time>2026-03-26T15:38:02.999Z</time></trkpt><trkpt lat="41.537471047005965" lon="13.588688884841991"><ele>122.0</ele><time>2026-03-26T15:38:03.999Z</time></trkpt><trkpt lat="41.537314023004164" lon="13.58905710102368"><ele>124.0</ele><time>2026-03-26T15:38:04.999Z</time></trkpt><trkpt lat="41.53715955660907" lon="13.589423178837642"><ele>123.0</ele><time>2026-03-26T15:38:05.999Z</time></trkpt><trkpt lat="41.53700732254582" lon="13.589787622395262"><ele>122.0</ele><time>2026-03-26T15:38:06.999Z</time></trkpt><trkpt lat="41.536853835659954" lon="13.590153175304433"><ele>121.5</ele><time>2026-03-26T15:38:07.999Z</time></trkpt><trkpt lat="41.5366974106572" lon="13.590521584847224"><ele>121.0</ele><time>2026-03-26T15:38:08.999Z</time></trkpt><trkpt lat="41.53653994728165" lon="13.590888776727937"><ele>121.0</ele><time>2026-03-26T15:38:09.999Z</time></trkpt><trkpt lat="41.53638255755643" lon="13.591251118369748"><ele>121.0</ele><time>2026-03-26T15:38:10.999Z</time></trkpt><trkpt lat="41.53622648995586" lon="13.59161436558542"><ele>119.5</ele><time>2026-03-26T15:38:11.999Z</time></trkpt><trkpt lat="41.53607574541629" lon="13.591976240306304"><ele>118.0</ele><time>2026-03-26T15:38:12.999Z</time></trkpt><trkpt lat="41.53592372481863" lon="13.592334465215487"><ele>118.0</ele><time>2026-03-26T15:38:13.999Z</time></trkpt><trkpt lat="41.53577156699569" lon="13.592691958182657"><ele>118.0</ele><time>2026-03-26T15:38:14.998Z</time></trkpt><trkpt lat="41.53561995078573" lon="13.593046671265098"><ele>119.0</ele><time>2026-03-26T15:38:15.998Z</time></trkpt><trkpt lat="41.53546759765778" lon="13.593400927617196"><ele>120.0</ele><time>2026-03-26T15:38:17Z</time></trkpt><trkpt lat="41.535316134245136" lon="13.593754776537509"><ele>120.0</ele><time>2026-03-26T15:38:18Z</time></trkpt><trkpt lat="41.5351648442644" lon="13.594104127480025"><ele>120.0</ele><time>2026-03-26T15:38:19Z</time></trkpt><trkpt lat="41.53501458481967" lon="13.594454304465986"><ele>119.0</ele><time>2026-03-26T15:38:20Z</time></trkpt><trkpt lat="41.53486586421238" lon="13.594799281855657"><ele>118.0</ele><time>2026-03-26T15:38:21Z</time></trkpt><trkpt lat="41.5347205104374" lon="13.59514297848139"><ele>118.5</ele><time>2026-03-26T15:38:22Z</time></trkpt><trkpt lat="41.53457556454342" lon="13.59548739581285"><ele>119.0</ele><time>2026-03-26T15:38:23Z</time></trkpt><trkpt lat="41.534431751266624" lon="13.59583235674345"><ele>119.0</ele><time>2026-03-26T15:38:24Z</time></trkpt><trkpt lat="41.53428824848028" lon="13.59617483895607"><ele>119.0</ele><time>2026-03-26T15:38:25Z</time></trkpt><trkpt lat="41.53414290483372" lon="13.596518452742185"><ele>119.0</ele><time>2026-03-26T15:38:26Z</time></trkpt><trkpt lat="41.53399590609203" lon="13.596860055600793"><ele>119.0</ele><time>2026-03-26T15:38:27Z</time></trkpt><trkpt lat="41.53384811618915" lon="13.597203991605085"><ele>118.0</ele><time>2026-03-26T15:38:28Z</time></trkpt><trkpt lat="41.5337005576134" lon="13.597549747850596"><ele>117.0</ele><time>2026-03-26T15:38:29Z</time></trkpt><trkpt lat="41.53355320010437" lon="13.597896304734912"><ele>116.5</ele><time>2026-03-26T15:38:30Z</time></trkpt><trkpt lat="41.53340320442338" lon="13.598246921721747"><ele>116.0</ele><time>2026-03-26T15:38:31Z</time></trkpt><trkpt lat="41.53325465664032" lon="13.598597659711668"><ele>117.5</ele><time>2026-03-26T15:38:32Z</time></trkpt><trkpt lat="41.533106121273846" lon="13.598946464709739"><ele>119.0</ele><time>2026-03-26T15:38:33Z</time></trkpt><trkpt lat="41.532958633257685" lon="13.599298108213757"><ele>119.0</ele><time>2026-03-26T15:38:34Z</time></trkpt><trkpt lat="41.532810041193656" lon="13.59965059343171"><ele>119.0</ele><time>2026-03-26T15:38:35Z</time></trkpt><trkpt lat="41.53266348537554" lon="13.600007027468935"><ele>117.5</ele><time>2026-03-26T15:38:36Z</time></trkpt><trkpt lat="41.53251410760131" lon="13.600362294207684"><ele>116.0</ele><time>2026-03-26T15:38:37Z</time></trkpt><trkpt lat="41.53236491775596" lon="13.600720163909607"><ele>116.0</ele><time>2026-03-26T15:38:38Z</time></trkpt><trkpt lat="41.532212772360126" lon="13.601077828992693"><ele>116.0</ele><time>2026-03-26T15:38:39Z</time></trkpt><trkpt lat="41.53205999728225" lon="13.60143645985911"><ele>115.5</ele><time>2026-03-26T15:38:40Z</time></trkpt><trkpt lat="41.53190569789093" lon="13.601794404330466"><ele>115.0</ele><time>2026-03-26T15:38:41Z</time></trkpt><trkpt lat="41.531753194146205" lon="13.602155837101016"><ele>113.5</ele><time>2026-03-26T15:38:42Z</time></trkpt><trkpt lat="41.53159900281206" lon="13.60251741883078"><ele>112.0</ele><time>2026-03-26T15:38:43Z</time></trkpt><trkpt lat="41.53144615940734" lon="13.602881068506381"><ele>111.0</ele><time>2026-03-26T15:38:44Z</time></trkpt><trkpt lat="41.53129309421412" lon="13.603244528963927"><ele>110.0</ele><time>2026-03-26T15:38:45Z</time></trkpt><trkpt lat="41.53113829242983" lon="13.603608528627188"><ele>112.0</ele><time>2026-03-26T15:38:46Z</time></trkpt><trkpt lat="41.530983239937" lon="13.603973324418934"><ele>114.0</ele><time>2026-03-26T15:38:47Z</time></trkpt><trkpt lat="41.53082804141042" lon="13.604339247925857"><ele>115.5</ele><time>2026-03-26T15:38:48Z</time></trkpt><trkpt lat="41.530674615117114" lon="13.604703566370484"><ele>117.0</ele><time>2026-03-26T15:38:49Z</time></trkpt><trkpt lat="41.53052125351404" lon="13.605068393940444"><ele>116.5</ele><time>2026-03-26T15:38:50Z</time></trkpt><trkpt lat="41.53036742533598" lon="13.605434060860853"><ele>116.0</ele><time>2026-03-26T15:38:51Z</time></trkpt><trkpt lat="41.53021473702599" lon="13.605798342789479"><ele>115.5</ele><time>2026-03-26T15:38:52Z</time></trkpt><trkpt lat="41.53006122385137" lon="13.606163214792254"><ele>115.0</ele><time>2026-03-26T15:38:53Z</time></trkpt><trkpt lat="41.52990985917971" lon="13.606526862908819"><ele>115.0</ele><time>2026-03-26T15:38:54Z</time></trkpt><trkpt lat="41.529755315956535" lon="13.606888361807245"><ele>115.0</ele><time>2026-03-26T15:38:55Z</time></trkpt><trkpt lat="41.52960377735564" lon="13.607252712355248"><ele>116.0</ele><time>2026-03-26T15:38:56Z</time></trkpt><trkpt lat="41.52945203438418" lon="13.60761410022976"><ele>117.0</ele><time>2026-03-26T15:38:57Z</time></trkpt><trkpt lat="41.52930526186019" lon="13.607963509662499"><ele>117.0</ele><time>2026-03-26T15:38:58Z</time></trkpt><trkpt lat="41.52916681611822" lon="13.608301735064597"><ele>117.0</ele><time>2026-03-26T15:38:59Z</time></trkpt><trkpt lat="41.529026648636375" lon="13.608643540260081"><ele>116.5</ele><time>2026-03-26T15:39:00Z</time></trkpt><trkpt lat="41.52888379413847" lon="13.60898534594226"><ele>116.0</ele><time>2026-03-26T15:39:00.999Z</time></trkpt><trkpt lat="41.52874063717743" lon="13.609329480560866"><ele>116.0</ele><time>2026-03-26T15:39:01.999Z</time></trkpt><trkpt lat="41.52859748053832" lon="13.609672833447634"><ele>116.0</ele><time>2026-03-26T15:39:02.999Z</time></trkpt><trkpt lat="41.52845548940203" lon="13.610016799943715"><ele>116.0</ele><time>2026-03-26T15:39:03.999Z</time></trkpt><trkpt lat="41.52831172897688" lon="13.610361713340343"><ele>116.0</ele><time>2026-03-26T15:39:04.999Z</time></trkpt><trkpt lat="41.52816934542641" lon="13.610706806654578"><ele>116.0</ele><time>2026-03-26T15:39:05.999Z</time></trkpt><trkpt lat="41.52802493706722" lon="13.611050391388282"><ele>116.0</ele><time>2026-03-26T15:39:06.999Z</time></trkpt><trkpt lat="41.52787795764101" lon="13.611393961606119"><ele>117.0</ele><time>2026-03-26T15:39:07.999Z</time></trkpt><trkpt lat="41.52773401487349" lon="13.611734543661667"><ele>118.0</ele><time>2026-03-26T15:39:08.999Z</time></trkpt><trkpt lat="41.527587470949385" lon="13.612076130414627"><ele>118.0</ele><time>2026-03-26T15:39:09.999Z</time></trkpt><trkpt lat="41.52744097289535" lon="13.61241896380525"><ele>118.0</ele><time>2026-03-26T15:39:10.999Z</time></trkpt><trkpt lat="41.52729555728256" lon="13.612760881698813"><ele>117.5</ele><time>2026-03-26T15:39:11.999Z</time></trkpt><trkpt lat="41.52714755777532" lon="13.613100736096488"><ele>117.0</ele><time>2026-03-26T15:39:12.999Z</time></trkpt><trkpt lat="41.526997531332746" lon="13.613442180051255"><ele>115.5</ele><time>2026-03-26T15:39:13.999Z</time></trkpt><trkpt lat="41.52684357365865" lon="13.61378090724256"><ele>114.0</ele><time>2026-03-26T15:39:14.999Z</time></trkpt><trkpt lat="41.526688987616154" lon="13.614120645679455"><ele>114.0</ele><time>2026-03-26T15:39:15.999Z</time></trkpt><trkpt lat="41.52653564834477" lon="13.614460718015982"><ele>114.0</ele><time>2026-03-26T15:39:16.999Z</time></trkpt><trkpt lat="41.52638272877296" lon="13.614802175721763"><ele>114.0</ele><time>2026-03-26T15:39:17.999Z</time></trkpt><trkpt lat="41.52623301676865" lon="13.615147570755962"><ele>114.0</ele><time>2026-03-26T15:39:18.999Z</time></trkpt><trkpt lat="41.52608685861702" lon="13.615494658050887"><ele>113.5</ele><time>2026-03-26T15:39:19.999Z</time></trkpt><trkpt lat="41.52593936481496" lon="13.615844067966338"><ele>113.0</ele><time>2026-03-26T15:39:20.999Z</time></trkpt><trkpt lat="41.525789110088716" lon="13.616193463883427"><ele>114.5</ele><time>2026-03-26T15:39:21.999Z</time></trkpt><trkpt lat="41.5256375569637" lon="13.616545712291034"><ele>116.0</ele><time>2026-03-26T15:39:22.999Z</time></trkpt><trkpt lat="41.525487923551324" lon="13.616903580440404"><ele>115.0</ele><time>2026-03-26T15:39:23.999Z</time></trkpt><trkpt lat="41.525337361379066" lon="13.617260878852077"><ele>114.0</ele><time>2026-03-26T15:39:24.999Z</time></trkpt><trkpt lat="41.52518653717168" lon="13.617615927055198"><ele>114.5</ele><time>2026-03-26T15:39:25.999Z</time></trkpt><trkpt lat="41.52503315104025" lon="13.61797420269162"><ele>115.0</ele><time>2026-03-26T15:39:26.999Z</time></trkpt><trkpt lat="41.52488169837782" lon="13.618335584489696"><ele>115.0</ele><time>2026-03-26T15:39:27.999Z</time></trkpt><trkpt lat="41.524728442146206" lon="13.618695697275204"><ele>115.0</ele><time>2026-03-26T15:39:28.999Z</time></trkpt><trkpt lat="41.52457275426816" lon="13.619055246425148"><ele>113.0</ele><time>2026-03-26T15:39:29.999Z</time></trkpt><trkpt lat="41.52441751404748" lon="13.61941725361728"><ele>111.0</ele><time>2026-03-26T15:39:30.999Z</time></trkpt><trkpt lat="41.5242622002101" lon="13.619777869829058"><ele>111.0</ele><time>2026-03-26T15:39:31.999Z</time></trkpt><trkpt lat="41.52411012191137" lon="13.62013871038257"><ele>111.0</ele><time>2026-03-26T15:39:32.999Z</time></trkpt><trkpt lat="41.52395961777325" lon="13.620499907209542"><ele>112.0</ele><time>2026-03-26T15:39:33.999Z</time></trkpt><trkpt lat="41.523805242705606" lon="13.62085887966724"><ele>113.0</ele><time>2026-03-26T15:39:34.999Z</time></trkpt><trkpt lat="41.523650191813786" lon="13.621219580980943"><ele>110.5</ele><time>2026-03-26T15:39:35.999Z</time></trkpt><trkpt lat="41.52349803852668" lon="13.621581150489181"><ele>108.0</ele><time>2026-03-26T15:39:36.999Z</time></trkpt><trkpt lat="41.52334570910242" lon="13.621942204626805"><ele>107.5</ele><time>2026-03-26T15:39:37.999Z</time></trkpt><trkpt lat="41.5231923548387" lon="13.622303272497904"><ele>107.0</ele><time>2026-03-26T15:39:38.999Z</time></trkpt><trkpt lat="41.52303902664242" lon="13.622665577409956"><ele>106.5</ele><time>2026-03-26T15:39:39.999Z</time></trkpt><trkpt lat="41.522885052612345" lon="13.623028163881795"><ele>106.0</ele><time>2026-03-26T15:39:40.999Z</time></trkpt><trkpt lat="41.52273328907258" lon="13.623392716311484"><ele>106.0</ele><time>2026-03-26T15:39:41.999Z</time></trkpt><trkpt lat="41.522579439875706" lon="13.623756116836626"><ele>106.0</ele><time>2026-03-26T15:39:42.999Z</time></trkpt><trkpt lat="41.522426065086655" lon="13.624122851872132"><ele>106.0</ele><time>2026-03-26T15:39:43.999Z</time></trkpt><trkpt lat="41.52227097699808" lon="13.624490639101063"><ele>106.0</ele><time>2026-03-26T15:39:44.999Z</time></trkpt><trkpt lat="41.522113065158074" lon="13.624855237474614"><ele>102.0</ele><time>2026-03-26T15:39:45.999Z</time></trkpt><trkpt lat="41.52195752259694" lon="13.625223100348688"><ele>98.0</ele><time>2026-03-26T15:39:46.999Z</time></trkpt><trkpt lat="41.521800764168695" lon="13.62558860445624"><ele>97.5</ele><time>2026-03-26T15:39:47.999Z</time></trkpt><trkpt lat="41.521642487073265" lon="13.625954675301049"><ele>97.0</ele><time>2026-03-26T15:39:48.999Z</time></trkpt><trkpt lat="41.521486611399986" lon="13.626319910435233"><ele>97.0</ele><time>2026-03-26T15:39:49.999Z</time></trkpt><trkpt lat="41.52133232386465" lon="13.626683983995298"><ele>97.0</ele><time>2026-03-26T15:39:50.999Z</time></trkpt><trkpt lat="41.521178341478425" lon="13.627051255826823"><ele>104.5</ele><time>2026-03-26T15:39:51.999Z</time></trkpt><trkpt lat="41.52102014499194" lon="13.62741418864388"><ele>112.0</ele><time>2026-03-26T15:39:52.999Z</time></trkpt><trkpt lat="41.520865968435125" lon="13.627780677909962"><ele>113.5</ele><time>2026-03-26T15:39:53.999Z</time></trkpt><trkpt lat="41.52071070359935" lon="13.6281445730934"><ele>115.0</ele><time>2026-03-26T15:39:54.999Z</time></trkpt><trkpt lat="41.520555877631864" lon="13.628510724768992"><ele>115.5</ele><time>2026-03-26T15:39:55.999Z</time></trkpt><trkpt lat="41.52040135790163" lon="13.628874391737062"><ele>116.0</ele><time>2026-03-26T15:39:56.999Z</time></trkpt><trkpt lat="41.520247868331" lon="13.629237334929014"><ele>115.0</ele><time>2026-03-26T15:39:57.999Z</time></trkpt><trkpt lat="41.5200933680087" lon="13.629600741682612"><ele>114.0</ele><time>2026-03-26T15:39:58.999Z</time></trkpt><trkpt lat="41.51993999561583" lon="13.629964088388743"><ele>115.5</ele><time>2026-03-26T15:39:59.999Z</time></trkpt><trkpt lat="41.51978538124163" lon="13.630324501980231"><ele>117.0</ele><time>2026-03-26T15:40:00.999Z</time></trkpt><trkpt lat="41.519633535690616" lon="13.630687344273536"><ele>117.0</ele><time>2026-03-26T15:40:01.999Z</time></trkpt><trkpt lat="41.51948176645194" lon="13.631051887980787"><ele>117.0</ele><time>2026-03-26T15:40:02.999Z</time></trkpt><trkpt lat="41.51933123894608" lon="13.631416630718027"><ele>117.5</ele><time>2026-03-26T15:40:03.999Z</time></trkpt><trkpt lat="41.51917873545874" lon="13.63177827587095"><ele>118.0</ele><time>2026-03-26T15:40:04.999Z</time></trkpt><trkpt lat="41.519027314091666" lon="13.63213922884637"><ele>118.5</ele><time>2026-03-26T15:40:05.999Z</time></trkpt><trkpt lat="41.51887386330347" lon="13.632502273334415"><ele>119.0</ele><time>2026-03-26T15:40:06.999Z</time></trkpt><trkpt lat="41.51871811868636" lon="13.632865995622172"><ele>120.0</ele><time>2026-03-26T15:40:07.999Z</time></trkpt><trkpt lat="41.51856096451878" lon="13.633227735645816"><ele>121.0</ele><time>2026-03-26T15:40:08.999Z</time></trkpt><trkpt lat="41.518406304689385" lon="13.633593440134785"><ele>121.5</ele><time>2026-03-26T15:40:09.999Z</time></trkpt><trkpt lat="41.518250657109554" lon="13.633963480840587"><ele>122.0</ele><time>2026-03-26T15:40:10.999Z</time></trkpt><trkpt lat="41.518096600964185" lon="13.634335286946358"><ele>121.5</ele><time>2026-03-26T15:40:11.999Z</time></trkpt><trkpt lat="41.51794101740948" lon="13.634706213291397"><ele>121.0</ele><time>2026-03-26T15:40:12.999Z</time></trkpt><trkpt lat="41.51778265430249" lon="13.635076703065861"><ele>120.5</ele><time>2026-03-26T15:40:13.999Z</time></trkpt><trkpt lat="41.51762599734342" lon="13.635448414731039"><ele>120.0</ele><time>2026-03-26T15:40:14.999Z</time></trkpt><trkpt lat="41.517472751349175" lon="13.635816690341342"><ele>120.0</ele><time>2026-03-26T15:40:15.999Z</time></trkpt><trkpt lat="41.517326221048094" lon="13.636178258878244"><ele>120.0</ele><time>2026-03-26T15:40:16.999Z</time></trkpt><trkpt lat="41.517180373608184" lon="13.636533481906044"><ele>120.0</ele><time>2026-03-26T15:40:17.999Z</time></trkpt><trkpt lat="41.51703191377007" lon="13.636888014737698"><ele>120.0</ele><time>2026-03-26T15:40:18.999Z</time></trkpt><trkpt lat="41.516885667033065" lon="13.637243375088671"><ele>120.0</ele><time>2026-03-26T15:40:19.999Z</time></trkpt><trkpt lat="41.51674157003824" lon="13.637602485130916"><ele>120.0</ele><time>2026-03-26T15:40:20.999Z</time></trkpt><trkpt lat="41.51659805888309" lon="13.637954990396567"><ele>120.0</ele><time>2026-03-26T15:40:21.999Z</time></trkpt><trkpt lat="41.51645643211677" lon="13.638303223358514"><ele>120.0</ele><time>2026-03-26T15:40:23Z</time></trkpt><trkpt lat="41.516313909419615" lon="13.63865084151324"><ele>119.0</ele><time>2026-03-26T15:40:24Z</time></trkpt><trkpt lat="41.516171726060044" lon="13.639000147249266"><ele>118.0</ele><time>2026-03-26T15:40:25Z</time></trkpt><trkpt lat="41.51603087214297" lon="13.639350458582856"><ele>118.5</ele><time>2026-03-26T15:40:26Z</time></trkpt><trkpt lat="41.51588864788406" lon="13.639700676312582"><ele>119.0</ele><time>2026-03-26T15:40:27Z</time></trkpt><trkpt lat="41.515743577551426" lon="13.640047634952225"><ele>119.5</ele><time>2026-03-26T15:40:28Z</time></trkpt><trkpt lat="41.515591530750285" lon="13.640395654744497"><ele>120.0</ele><time>2026-03-26T15:40:29Z</time></trkpt><trkpt lat="41.515440844660155" lon="13.64074664516198"><ele>119.5</ele><time>2026-03-26T15:40:30Z</time></trkpt><trkpt lat="41.515281866508644" lon="13.641115029266318"><ele>119.0</ele><time>2026-03-26T15:40:31Z</time></trkpt><trkpt lat="41.515119400990976" lon="13.64149470360735"><ele>119.0</ele><time>2026-03-26T15:40:32Z</time></trkpt><trkpt lat="41.514948121866496" lon="13.64187840946801"><ele>119.0</ele><time>2026-03-26T15:40:33Z</time></trkpt><trkpt lat="41.51477348430435" lon="13.642277114626683"><ele>119.0</ele><time>2026-03-26T15:40:34Z</time></trkpt><trkpt lat="41.51459906777174" lon="13.642682905042841"><ele>119.0</ele><time>2026-03-26T15:40:35Z</time></trkpt><trkpt lat="41.51442240601051" lon="13.643095981702345"><ele>118.0</ele><time>2026-03-26T15:40:36Z</time></trkpt><trkpt lat="41.51424297955904" lon="13.64351222402175"><ele>117.0</ele><time>2026-03-26T15:40:37Z</time></trkpt><trkpt lat="41.51406194960991" lon="13.643931709720169"><ele>117.0</ele><time>2026-03-26T15:40:38Z</time></trkpt><trkpt lat="41.513881411020186" lon="13.644352833088936"><ele>117.0</ele><time>2026-03-26T15:40:39Z</time></trkpt><trkpt lat="41.51370269317721" lon="13.644775954978538"><ele>117.5</ele><time>2026-03-26T15:40:40Z</time></trkpt><trkpt lat="41.513524153940075" lon="13.645201913440198"><ele>118.0</ele><time>2026-03-26T15:40:41Z</time></trkpt><trkpt lat="41.51334723170992" lon="13.645622752299529"><ele>118.5</ele><time>2026-03-26T15:40:42Z</time></trkpt><trkpt lat="41.51317099150749" lon="13.646039753891475"><ele>119.0</ele><time>2026-03-26T15:40:43Z</time></trkpt><trkpt lat="41.51299262291177" lon="13.646452617512843"><ele>119.0</ele><time>2026-03-26T15:40:44Z</time></trkpt><trkpt lat="41.512814512230165" lon="13.646864293192115"><ele>119.0</ele><time>2026-03-26T15:40:45Z</time></trkpt><trkpt lat="41.51263793649214" lon="13.647275160907778"><ele>119.0</ele><time>2026-03-26T15:40:46Z</time></trkpt><trkpt lat="41.51246165687216" lon="13.647684904285395"><ele>119.0</ele><time>2026-03-26T15:40:47Z</time></trkpt><trkpt lat="41.512286025515365" lon="13.648093699833325"><ele>120.0</ele><time>2026-03-26T15:40:48Z</time></trkpt><trkpt lat="41.512110720743685" lon="13.648501766844598"><ele>121.0</ele><time>2026-03-26T15:40:49Z</time></trkpt><trkpt lat="41.511936325820706" lon="13.648908217135448"><ele>119.5</ele><time>2026-03-26T15:40:50Z</time></trkpt><trkpt lat="41.511760931129956" lon="13.649310976354142"><ele>118.0</ele><time>2026-03-26T15:40:51Z</time></trkpt><trkpt lat="41.511581628120624" lon="13.64970220874865"><ele>118.0</ele><time>2026-03-26T15:40:52Z</time></trkpt><trkpt lat="41.51140449560491" lon="13.650087701633057"><ele>118.0</ele><time>2026-03-26T15:40:53Z</time></trkpt><trkpt lat="41.51123313775287" lon="13.650468297164908"><ele>117.0</ele><time>2026-03-26T15:40:54Z</time></trkpt><trkpt lat="41.51106776103517" lon="13.650846540584665"><ele>116.0</ele><time>2026-03-26T15:40:55Z</time></trkpt><trkpt lat="41.510905955579084" lon="13.651223085119874"><ele>116.0</ele><time>2026-03-26T15:40:56Z</time></trkpt><trkpt lat="41.51074504607463" lon="13.651598931078595"><ele>116.0</ele><time>2026-03-26T15:40:57Z</time></trkpt><trkpt lat="41.510585286750484" lon="13.651972090726483"><ele>116.5</ele><time>2026-03-26T15:40:58Z</time></trkpt><trkpt lat="41.51042755390931" lon="13.652343888351808"><ele>117.0</ele><time>2026-03-26T15:40:59Z</time></trkpt><trkpt lat="41.510270044279196" lon="13.652711878956332"><ele>116.5</ele><time>2026-03-26T15:41:00Z</time></trkpt><trkpt lat="41.51011437874716" lon="13.653074430315908"><ele>116.0</ele><time>2026-03-26T15:41:01Z</time></trkpt><trkpt lat="41.509960791066554" lon="13.653437334605268"><ele>117.0</ele><time>2026-03-26T15:41:02Z</time></trkpt><trkpt lat="41.509811083235526" lon="13.653789254379557"><ele>118.0</ele><time>2026-03-26T15:41:02.999Z</time></trkpt><trkpt lat="41.50966497058953" lon="13.65412811192394"><ele>119.0</ele><time>2026-03-26T15:41:03.999Z</time></trkpt><trkpt lat="41.50951985550755" lon="13.654467506720145"><ele>120.0</ele><time>2026-03-26T15:41:04.999Z</time></trkpt><trkpt lat="41.50937320530836" lon="13.654818581753121"><ele>120.0</ele><time>2026-03-26T15:41:05.999Z</time></trkpt><trkpt lat="41.50922179105423" lon="13.655174085467497"><ele>120.0</ele><time>2026-03-26T15:41:06.999Z</time></trkpt><trkpt lat="41.50906814634755" lon="13.655532515384115"><ele>120.0</ele><time>2026-03-26T15:41:07.999Z</time></trkpt><trkpt lat="41.50891627652558" lon="13.655893730370515"><ele>120.0</ele><time>2026-03-26T15:41:08.999Z</time></trkpt><trkpt lat="41.508764456047935" lon="13.656261451856102"><ele>118.0</ele><time>2026-03-26T15:41:09.999Z</time></trkpt><trkpt lat="41.508612734860925" lon="13.656631676572214"><ele>116.0</ele><time>2026-03-26T15:41:10.999Z</time></trkpt><trkpt lat="41.50845808085005" lon="13.657002863547431"><ele>116.0</ele><time>2026-03-26T15:41:11.999Z</time></trkpt><trkpt lat="41.508300646028054" lon="13.657374779909917"><ele>116.0</ele><time>2026-03-26T15:41:12.999Z</time></trkpt><trkpt lat="41.5081449299833" lon="13.657744344636033"><ele>116.0</ele><time>2026-03-26T15:41:13.999Z</time></trkpt><trkpt lat="41.5079927319035" lon="13.658108581794325"><ele>116.0</ele><time>2026-03-26T15:41:14.999Z</time></trkpt><trkpt lat="41.507840100265575" lon="13.658466487766193"><ele>117.0</ele><time>2026-03-26T15:41:15.999Z</time></trkpt><trkpt lat="41.507686306918714" lon="13.658820904888254"><ele>118.0</ele><time>2026-03-26T15:41:16.999Z</time></trkpt><trkpt lat="41.50753503508935" lon="13.659171958585658"><ele>118.0</ele><time>2026-03-26T15:41:17.999Z</time></trkpt><trkpt lat="41.507384801510824" lon="13.65952353088967"><ele>118.0</ele><time>2026-03-26T15:41:18.999Z</time></trkpt><trkpt lat="41.50723456215124" lon="13.659872712606866"><ele>118.0</ele><time>2026-03-26T15:41:19.999Z</time></trkpt><trkpt lat="41.50708360919662" lon="13.660222561172327"><ele>118.0</ele><time>2026-03-26T15:41:20.999Z</time></trkpt><trkpt lat="41.50693120717364" lon="13.66057279717143"><ele>118.0</ele><time>2026-03-26T15:41:21.999Z</time></trkpt><trkpt lat="41.50677850584803" lon="13.660924089063755"><ele>118.0</ele><time>2026-03-26T15:41:22.999Z</time></trkpt><trkpt lat="41.506623891651316" lon="13.661275535544224"><ele>117.5</ele><time>2026-03-26T15:41:23.999Z</time></trkpt><trkpt lat="41.50646571744192" lon="13.661624181903075"><ele>117.0</ele><time>2026-03-26T15:41:24.999Z</time></trkpt><trkpt lat="41.506307590061944" lon="13.661977012911361"><ele>117.0</ele><time>2026-03-26T15:41:25.999Z</time></trkpt><trkpt lat="41.5061515777229" lon="13.662329551952663"><ele>117.0</ele><time>2026-03-26T15:41:26.999Z</time></trkpt><trkpt lat="41.50599870144172" lon="13.66268178914079"><ele>117.5</ele><time>2026-03-26T15:41:27.999Z</time></trkpt><trkpt lat="41.50584627772199" lon="13.663032533753944"><ele>118.0</ele><time>2026-03-26T15:41:28.999Z</time></trkpt><trkpt lat="41.50569573580004" lon="13.663382481207206"><ele>117.0</ele><time>2026-03-26T15:41:29.999Z</time></trkpt><trkpt lat="41.50554509314828" lon="13.663734853966648"><ele>116.0</ele><time>2026-03-26T15:41:30.999Z</time></trkpt><trkpt lat="41.505394063870476" lon="13.664086081116762"><ele>116.0</ele><time>2026-03-26T15:41:31.999Z</time></trkpt><trkpt lat="41.5052432973565" lon="13.664437953866383"><ele>116.0</ele><time>2026-03-26T15:41:32.999Z</time></trkpt><trkpt lat="41.505093183966224" lon="13.664786269589142"><ele>116.0</ele><time>2026-03-26T15:41:33.999Z</time></trkpt><trkpt lat="41.50494505055797" lon="13.665134787768936"><ele>116.0</ele><time>2026-03-26T15:41:34.999Z</time></trkpt><trkpt lat="41.504795928860915" lon="13.665484743708943"><ele>116.5</ele><time>2026-03-26T15:41:35.999Z</time></trkpt><trkpt lat="41.50464543909958" lon="13.66583261158313"><ele>117.0</ele><time>2026-03-26T15:41:36.999Z</time></trkpt><trkpt lat="41.50449530039268" lon="13.66618045349446"><ele>117.0</ele><time>2026-03-26T15:41:37.999Z</time></trkpt><trkpt lat="41.50434575003029" lon="13.666527656769224"><ele>117.0</ele><time>2026-03-26T15:41:38.999Z</time></trkpt><trkpt lat="41.504196355408105" lon="13.666874110115053"><ele>118.0</ele><time>2026-03-26T15:41:39.999Z</time></trkpt><trkpt lat="41.50404626235949" lon="13.667223229953043"><ele>119.0</ele><time>2026-03-26T15:41:40.999Z</time></trkpt><trkpt lat="41.50389618054863" lon="13.667571508098419"><ele>119.0</ele><time>2026-03-26T15:41:41.999Z</time></trkpt><trkpt lat="41.50374770744804" lon="13.667925966682422"><ele>119.0</ele><time>2026-03-26T15:41:42.999Z</time></trkpt><trkpt lat="41.50359687878279" lon="13.668282500965189"><ele>117.0</ele><time>2026-03-26T15:41:43.999Z</time></trkpt><trkpt lat="41.50344387160775" lon="13.668635869965698"><ele>115.0</ele><time>2026-03-26T15:41:44.999Z</time></trkpt><trkpt lat="41.50329049210552" lon="13.668988854189571"><ele>115.0</ele><time>2026-03-26T15:41:45.999Z</time></trkpt><trkpt lat="41.503139784931534" lon="13.669343484908484"><ele>115.0</ele><time>2026-03-26T15:41:46.999Z</time></trkpt><trkpt lat="41.50298927863692" lon="13.66969575862478"><ele>115.0</ele><time>2026-03-26T15:41:47.999Z</time></trkpt><trkpt lat="41.50283957028532" lon="13.670046809841283"><ele>115.0</ele><time>2026-03-26T15:41:48.999Z</time></trkpt><trkpt lat="41.50268975281916" lon="13.670391825752192"><ele>115.0</ele><time>2026-03-26T15:41:49.999Z</time></trkpt><trkpt lat="41.50254088711922" lon="13.670735271991575"><ele>115.0</ele><time>2026-03-26T15:41:50.999Z</time></trkpt><trkpt lat="41.50239364660153" lon="13.671076822152179"><ele>115.5</ele><time>2026-03-26T15:41:51.999Z</time></trkpt><trkpt lat="41.5022479197788" lon="13.671414989870264"><ele>116.0</ele><time>2026-03-26T15:41:52.999Z</time></trkpt><trkpt lat="41.50210299871996" lon="13.671751985487914"><ele>115.5</ele><time>2026-03-26T15:41:53.999Z</time></trkpt><trkpt lat="41.501956932331446" lon="13.672090140450958"><ele>115.0</ele><time>2026-03-26T15:41:54.999Z</time></trkpt><trkpt lat="41.50181146727661" lon="13.672431246913725"><ele>116.5</ele><time>2026-03-26T15:41:55.999Z</time></trkpt><trkpt lat="41.501665779292836" lon="13.672774657697648"><ele>118.0</ele><time>2026-03-26T15:41:56.999Z</time></trkpt><trkpt lat="41.50151751980549" lon="13.67311605947628"><ele>118.0</ele><time>2026-03-26T15:41:57.999Z</time></trkpt><trkpt lat="41.50137182926938" lon="13.673462477888588"><ele>118.0</ele><time>2026-03-26T15:41:58.999Z</time></trkpt><trkpt lat="41.50122498179314" lon="13.673808205730438"><ele>118.0</ele><time>2026-03-26T15:41:59.999Z</time></trkpt><trkpt lat="41.50107750467312" lon="13.674156000116218"><ele>118.0</ele><time>2026-03-26T15:42:00.999Z</time></trkpt><trkpt lat="41.50093042875626" lon="13.674505691012111"><ele>118.0</ele><time>2026-03-26T15:42:01.999Z</time></trkpt><trkpt lat="41.500782126667374" lon="13.674859190456504"><ele>118.0</ele><time>2026-03-26T15:42:02.999Z</time></trkpt><trkpt lat="41.5006288022424" lon="13.675209618477611"><ele>117.5</ele><time>2026-03-26T15:42:03.999Z</time></trkpt><trkpt lat="41.500481166388575" lon="13.675555163740844"><ele>117.0</ele><time>2026-03-26T15:42:04.999Z</time></trkpt><trkpt lat="41.500333544766676" lon="13.675894530448085"><ele>117.0</ele><time>2026-03-26T15:42:05.999Z</time></trkpt><trkpt lat="41.500188454564594" lon="13.676232395233795"><ele>117.0</ele><time>2026-03-26T15:42:06.999Z</time></trkpt><trkpt lat="41.500046158044476" lon="13.676562781610546"><ele>117.0</ele><time>2026-03-26T15:42:07.999Z</time></trkpt><trkpt lat="41.499910984910734" lon="13.67687915169626"><ele>117.0</ele><time>2026-03-26T15:42:08.999Z</time></trkpt><trkpt lat="41.49978055309796" lon="13.677179462370185"><ele>117.5</ele><time>2026-03-26T15:42:09.999Z</time></trkpt><trkpt lat="41.499654626700035" lon="13.67747042064351"><ele>118.0</ele><time>2026-03-26T15:42:10.999Z</time></trkpt><trkpt lat="41.49952594779608" lon="13.677762492088233"><ele>117.5</ele><time>2026-03-26T15:42:11.999Z</time></trkpt><trkpt lat="41.49939575670622" lon="13.678056928369582"><ele>117.0</ele><time>2026-03-26T15:42:12.999Z</time></trkpt><trkpt lat="41.49926700956505" lon="13.678362405281108"><ele>117.0</ele><time>2026-03-26T15:42:13.999Z</time></trkpt><trkpt lat="41.49913615464743" lon="13.678677637709521"><ele>117.0</ele><time>2026-03-26T15:42:14.999Z</time></trkpt><trkpt lat="41.49900394105602" lon="13.679000531540586"><ele>117.0</ele><time>2026-03-26T15:42:15.999Z</time></trkpt><trkpt lat="41.49887107981661" lon="13.679328032344374"><ele>117.0</ele><time>2026-03-26T15:42:16.999Z</time></trkpt><trkpt lat="41.49873796684178" lon="13.679655829823782"><ele>116.5</ele><time>2026-03-26T15:42:17.999Z</time></trkpt><trkpt lat="41.49860281220718" lon="13.679982723904311"><ele>116.0</ele><time>2026-03-26T15:42:18.999Z</time></trkpt><trkpt lat="41.49846566419866" lon="13.680306440813338"><ele>116.0</ele><time>2026-03-26T15:42:19.999Z</time></trkpt><trkpt lat="41.49832624152502" lon="13.680631300988729"><ele>116.0</ele><time>2026-03-26T15:42:20.999Z</time></trkpt><trkpt lat="41.49818345337713" lon="13.680957423607431"><ele>116.5</ele><time>2026-03-26T15:42:21.999Z</time></trkpt><trkpt lat="41.49804072342647" lon="13.68128780194108"><ele>117.0</ele><time>2026-03-26T15:42:22.999Z</time></trkpt><trkpt lat="41.4978981639016" lon="13.681619590263569"><ele>117.5</ele><time>2026-03-26T15:42:23.999Z</time></trkpt><trkpt lat="41.497753648764686" lon="13.681955600834716"><ele>118.0</ele><time>2026-03-26T15:42:24.999Z</time></trkpt><trkpt lat="41.49760896589594" lon="13.68229350546564"><ele>118.0</ele><time>2026-03-26T15:42:25.999Z</time></trkpt><trkpt lat="41.497463909587786" lon="13.682631460028412"><ele>118.0</ele><time>2026-03-26T15:42:26.999Z</time></trkpt><trkpt lat="41.497319499198014" lon="13.68297246858616"><ele>117.0</ele><time>2026-03-26T15:42:27.999Z</time></trkpt><trkpt lat="41.497172266525126" lon="13.683312643524923"><ele>116.0</ele><time>2026-03-26T15:42:29Z</time></trkpt><trkpt lat="41.49702262824319" lon="13.683651754825158"><ele>115.0</ele><time>2026-03-26T15:42:30Z</time></trkpt><trkpt lat="41.49687216410413" lon="13.683989615735856"><ele>114.0</ele><time>2026-03-26T15:42:31Z</time></trkpt><trkpt lat="41.496722030831094" lon="13.684330247385212"><ele>114.5</ele><time>2026-03-26T15:42:32Z</time></trkpt><trkpt lat="41.496569406934775" lon="13.68467146624594"><ele>115.0</ele><time>2026-03-26T15:42:33Z</time></trkpt><trkpt lat="41.49641922731929" lon="13.68501179618282"><ele>115.5</ele><time>2026-03-26T15:42:34Z</time></trkpt><trkpt lat="41.49626900876364" lon="13.685355312307351"><ele>116.0</ele><time>2026-03-26T15:42:35Z</time></trkpt><trkpt lat="41.49611879561665" lon="13.685703617789432"><ele>115.0</ele><time>2026-03-26T15:42:36Z</time></trkpt><trkpt lat="41.495967813162416" lon="13.68604824419052"><ele>114.0</ele><time>2026-03-26T15:42:37Z</time></trkpt><trkpt lat="41.49581905100136" lon="13.686392301026611"><ele>114.0</ele><time>2026-03-26T15:42:38Z</time></trkpt><trkpt lat="41.495671128495324" lon="13.686733638494793"><ele>114.0</ele><time>2026-03-26T15:42:39Z</time></trkpt><trkpt lat="41.495522683828334" lon="13.687074922832297"><ele>114.0</ele><time>2026-03-26T15:42:40Z</time></trkpt><trkpt lat="41.49537474010307" lon="13.687416465498979"><ele>114.0</ele><time>2026-03-26T15:42:41Z</time></trkpt><trkpt lat="41.49522874185618" lon="13.687759184860205"><ele>113.5</ele><time>2026-03-26T15:42:42Z</time></trkpt><trkpt lat="41.49508291529435" lon="13.688108816055557"><ele>113.0</ele><time>2026-03-26T15:42:43Z</time></trkpt><trkpt lat="41.49493672620694" lon="13.688460760335753"><ele>112.5</ele><time>2026-03-26T15:42:44Z</time></trkpt><trkpt lat="41.49479096222445" lon="13.688814924973702"><ele>112.0</ele><time>2026-03-26T15:42:45Z</time></trkpt><trkpt lat="41.494645066519716" lon="13.689165244127324"><ele>112.0</ele><time>2026-03-26T15:42:46Z</time></trkpt><trkpt lat="41.49449846580958" lon="13.68951510425956"><ele>112.0</ele><time>2026-03-26T15:42:47Z</time></trkpt><trkpt lat="41.49435224672995" lon="13.689865752930176"><ele>112.0</ele><time>2026-03-26T15:42:48Z</time></trkpt><trkpt lat="41.4942052453439" lon="13.690222692610954"><ele>112.0</ele><time>2026-03-26T15:42:49Z</time></trkpt><trkpt lat="41.49405609822876" lon="13.69057968913892"><ele>110.5</ele><time>2026-03-26T15:42:50Z</time></trkpt><trkpt lat="41.493903711679216" lon="13.690937739622989"><ele>109.0</ele><time>2026-03-26T15:42:51Z</time></trkpt><trkpt lat="41.49375044157282" lon="13.691297778225334"><ele>109.0</ele><time>2026-03-26T15:42:52Z</time></trkpt><trkpt lat="41.493594537253855" lon="13.691656150599053"><ele>109.0</ele><time>2026-03-26T15:42:53Z</time></trkpt><trkpt lat="41.49343879789794" lon="13.692016762055532"><ele>108.5</ele><time>2026-03-26T15:42:54Z</time></trkpt><trkpt lat="41.49328299672055" lon="13.692377744438835"><ele>108.0</ele><time>2026-03-26T15:42:55Z</time></trkpt><trkpt lat="41.49312414942952" lon="13.692741871937407"><ele>108.5</ele><time>2026-03-26T15:42:56Z</time></trkpt><trkpt lat="41.49296569630479" lon="13.69311115703293"><ele>109.0</ele><time>2026-03-26T15:42:57Z</time></trkpt><trkpt lat="41.49280709908125" lon="13.693479382721252"><ele>105.0</ele><time>2026-03-26T15:42:58Z</time></trkpt><trkpt lat="41.492647603983215" lon="13.693849255614184"><ele>101.0</ele><time>2026-03-26T15:42:59Z</time></trkpt><trkpt lat="41.49249061487379" lon="13.694221583536056"><ele>100.5</ele><time>2026-03-26T15:43:00Z</time></trkpt><trkpt lat="41.49233221527636" lon="13.694592930237597"><ele>100.0</ele><time>2026-03-26T15:43:01Z</time></trkpt><trkpt lat="41.49217239420405" lon="13.694964530112772"><ele>102.0</ele><time>2026-03-26T15:43:02Z</time></trkpt><trkpt lat="41.49200765800632" lon="13.695331737164468"><ele>104.0</ele><time>2026-03-26T15:43:03Z</time></trkpt><trkpt lat="41.49184247197458" lon="13.695703807092308"><ele>104.0</ele><time>2026-03-26T15:43:04Z</time></trkpt><trkpt lat="41.49167629608219" lon="13.69607458245874"><ele>104.0</ele><time>2026-03-26T15:43:05Z</time></trkpt><trkpt lat="41.491508049336595" lon="13.696450100089411"><ele>101.0</ele><time>2026-03-26T15:43:06Z</time></trkpt><trkpt lat="41.49134471785324" lon="13.696828964324775"><ele>98.0</ele><time>2026-03-26T15:43:07Z</time></trkpt><trkpt lat="41.49118300486116" lon="13.697206787891588"><ele>94.0</ele><time>2026-03-26T15:43:08Z</time></trkpt><trkpt lat="41.49101950346591" lon="13.69758353989862"><ele>90.0</ele><time>2026-03-26T15:43:09Z</time></trkpt><trkpt lat="41.49085790035621" lon="13.697957541022552"><ele>90.0</ele><time>2026-03-26T15:43:10Z</time></trkpt><trkpt lat="41.49069611290131" lon="13.698329352839504"><ele>90.0</ele><time>2026-03-26T15:43:10.999Z</time></trkpt><trkpt lat="41.49053609024294" lon="13.698701037455379"><ele>97.5</ele><time>2026-03-26T15:43:11.999Z</time></trkpt><trkpt lat="41.49037631598121" lon="13.699067885469852"><ele>105.0</ele><time>2026-03-26T15:43:12.999Z</time></trkpt><trkpt lat="41.49021834443791" lon="13.699435039864992"><ele>105.0</ele><time>2026-03-26T15:43:13.999Z</time></trkpt><trkpt lat="41.49006178812923" lon="13.69979962663205"><ele>105.0</ele><time>2026-03-26T15:43:14.999Z</time></trkpt><trkpt lat="41.48990531102805" lon="13.7001606815793"><ele>104.0</ele><time>2026-03-26T15:43:15.999Z</time></trkpt><trkpt lat="41.48975038823233" lon="13.700519495104727"><ele>103.0</ele><time>2026-03-26T15:43:16.999Z</time></trkpt><trkpt lat="41.489596597541144" lon="13.700882905523985"><ele>104.0</ele><time>2026-03-26T15:43:17.999Z</time></trkpt><trkpt lat="41.48944528716728" lon="13.701236190610274"><ele>105.0</ele><time>2026-03-26T15:43:18.999Z</time></trkpt><trkpt lat="41.489294424534805" lon="13.701587743094581"><ele>105.0</ele><time>2026-03-26T15:43:19.999Z</time></trkpt><trkpt lat="41.489143919823796" lon="13.701939600080147"><ele>105.0</ele><time>2026-03-26T15:43:20.999Z</time></trkpt><trkpt lat="41.48899471235891" lon="13.702291953369473"><ele>105.0</ele><time>2026-03-26T15:43:21.999Z</time></trkpt><trkpt lat="41.488843693578715" lon="13.70264165215776"><ele>105.0</ele><time>2026-03-26T15:43:22.999Z</time></trkpt><trkpt lat="41.488692300192206" lon="13.702994638669642"><ele>105.5</ele><time>2026-03-26T15:43:23.999Z</time></trkpt><trkpt lat="41.488539101963696" lon="13.703357212182503"><ele>106.0</ele><time>2026-03-26T15:43:24.999Z</time></trkpt><trkpt lat="41.48838256593095" lon="13.703729222358318"><ele>106.0</ele><time>2026-03-26T15:43:25.999Z</time></trkpt><trkpt lat="41.48822620651303" lon="13.704110614832413"><ele>106.0</ele><time>2026-03-26T15:43:26.999Z</time></trkpt><trkpt lat="41.48806952552331" lon="13.704490047954001"><ele>105.5</ele><time>2026-03-26T15:43:27.999Z</time></trkpt><trkpt lat="41.48791945411752" lon="13.704865566875505"><ele>105.0</ele><time>2026-03-26T15:43:28.999Z</time></trkpt><trkpt lat="41.487774179737656" lon="13.705236441121864"><ele>105.5</ele><time>2026-03-26T15:43:29.999Z</time></trkpt><trkpt lat="41.48762289117592" lon="13.705596405905222"><ele>106.0</ele><time>2026-03-26T15:43:30.999Z</time></trkpt><trkpt lat="41.48746725169055" lon="13.705951377838122"><ele>106.5</ele><time>2026-03-26T15:43:31.999Z</time></trkpt><trkpt lat="41.48731154527046" lon="13.706305820895466"><ele>107.0</ele><time>2026-03-26T15:43:32.999Z</time></trkpt><trkpt lat="41.4871572070083" lon="13.706660584983501"><ele>107.5</ele><time>2026-03-26T15:43:33.999Z</time></trkpt><trkpt lat="41.48700194833979" lon="13.707014244594353"><ele>108.0</ele><time>2026-03-26T15:43:34.999Z</time></trkpt><trkpt lat="41.48684603887828" lon="13.707365934266747"><ele>108.0</ele><time>2026-03-26T15:43:35.999Z</time></trkpt><trkpt lat="41.48668723583752" lon="13.707713381160362"><ele>108.0</ele><time>2026-03-26T15:43:36.999Z</time></trkpt><trkpt lat="41.48652434297274" lon="13.708061482501344"><ele>108.0</ele><time>2026-03-26T15:43:37.999Z</time></trkpt><trkpt lat="41.486362241372866" lon="13.70841329726161"><ele>108.0</ele><time>2026-03-26T15:43:38.999Z</time></trkpt><trkpt lat="41.486203777370996" lon="13.708767267825609"><ele>108.0</ele><time>2026-03-26T15:43:39.999Z</time></trkpt><trkpt lat="41.48605074732507" lon="13.709123295231175"><ele>108.0</ele><time>2026-03-26T15:43:40.999Z</time></trkpt><trkpt lat="41.48589894273872" lon="13.709476337815621"><ele>108.5</ele><time>2026-03-26T15:43:41.999Z</time></trkpt><trkpt lat="41.485747431453994" lon="13.709829256899562"><ele>109.0</ele><time>2026-03-26T15:43:42.999Z</time></trkpt><trkpt lat="41.485596767776784" lon="13.710180134376772"><ele>109.0</ele><time>2026-03-26T15:43:43.999Z</time></trkpt><trkpt lat="41.48544667354465" lon="13.710531802425844"><ele>109.0</ele><time>2026-03-26T15:43:44.999Z</time></trkpt><trkpt lat="41.48529567525951" lon="13.710883827008612"><ele>107.5</ele><time>2026-03-26T15:43:45.999Z</time></trkpt><trkpt lat="41.48514426799493" lon="13.711237670975546"><ele>106.0</ele><time>2026-03-26T15:43:46.999Z</time></trkpt><trkpt lat="41.48499137310941" lon="13.711592111491793"><ele>108.0</ele><time>2026-03-26T15:43:47.999Z</time></trkpt><trkpt lat="41.484837004196606" lon="13.711951161503304"><ele>110.0</ele><time>2026-03-26T15:43:48.999Z</time></trkpt><trkpt lat="41.484681128049736" lon="13.71231039986784"><ele>109.0</ele><time>2026-03-26T15:43:49.999Z</time></trkpt><trkpt lat="41.48452441632424" lon="13.712672130217381"><ele>108.0</ele><time>2026-03-26T15:43:50.999Z</time></trkpt><trkpt lat="41.48436825238354" lon="13.713034384296025"><ele>107.5</ele><time>2026-03-26T15:43:51.999Z</time></trkpt><trkpt lat="41.484212893915995" lon="13.713397609325337"><ele>107.0</ele><time>2026-03-26T15:43:52.999Z</time></trkpt><trkpt lat="41.48405795101266" lon="13.713762726104447"><ele>107.5</ele><time>2026-03-26T15:43:53.999Z</time></trkpt><trkpt lat="41.4839012909273" lon="13.714129153440528"><ele>108.0</ele><time>2026-03-26T15:43:54.999Z</time></trkpt><trkpt lat="41.48374263426916" lon="13.714495280757042"><ele>108.0</ele><time>2026-03-26T15:43:55.999Z</time></trkpt><trkpt lat="41.4835854879868" lon="13.714861319190353"><ele>108.0</ele><time>2026-03-26T15:43:56.999Z</time></trkpt><trkpt lat="41.483428268120356" lon="13.71522847407524"><ele>107.5</ele><time>2026-03-26T15:43:57.999Z</time></trkpt><trkpt lat="41.48327141706109" lon="13.715598331851908"><ele>107.0</ele><time>2026-03-26T15:43:58.999Z</time></trkpt><trkpt lat="41.48311359980889" lon="13.715967583812345"><ele>107.0</ele><time>2026-03-26T15:43:59.999Z</time></trkpt><trkpt lat="41.48295564876117" lon="13.716334081816006"><ele>107.0</ele><time>2026-03-26T15:44:00.999Z</time></trkpt><trkpt lat="41.48279811455325" lon="13.716701786954845"><ele>105.5</ele><time>2026-03-26T15:44:01.999Z</time></trkpt><trkpt lat="41.482641653581425" lon="13.717071035122208"><ele>104.0</ele><time>2026-03-26T15:44:02.999Z</time></trkpt><trkpt lat="41.4824847950539" lon="13.717441002186993"><ele>104.5</ele><time>2026-03-26T15:44:03.999Z</time></trkpt><trkpt lat="41.482327353243505" lon="13.717811947426538"><ele>105.0</ele><time>2026-03-26T15:44:04.999Z</time></trkpt><trkpt lat="41.48216924110108" lon="13.718183096130323"><ele>105.0</ele><time>2026-03-26T15:44:05.999Z</time></trkpt><trkpt lat="41.48200924991239" lon="13.718551025496565"><ele>105.0</ele><time>2026-03-26T15:44:06.999Z</time></trkpt><trkpt lat="41.481849448694575" lon="13.718922521093248"><ele>105.0</ele><time>2026-03-26T15:44:07.999Z</time></trkpt><trkpt lat="41.481689063783364" lon="13.719296256432791"><ele>105.0</ele><time>2026-03-26T15:44:08.999Z</time></trkpt><trkpt lat="41.481524080768665" lon="13.71966892946413"><ele>105.0</ele><time>2026-03-26T15:44:09.999Z</time></trkpt><trkpt lat="41.48135654785134" lon="13.720041736378727"><ele>105.0</ele><time>2026-03-26T15:44:10.999Z</time></trkpt><trkpt lat="41.48118763376117" lon="13.720416088039565"><ele>105.0</ele><time>2026-03-26T15:44:11.999Z</time></trkpt><trkpt lat="41.48102073485222" lon="13.720789637788974"><ele>105.0</ele><time>2026-03-26T15:44:12.999Z</time></trkpt><trkpt lat="41.48084879084756" lon="13.721163179873132"><ele>105.5</ele><time>2026-03-26T15:44:13.999Z</time></trkpt><trkpt lat="41.48068145296393" lon="13.721540499843629"><ele>106.0</ele><time>2026-03-26T15:44:14.999Z</time></trkpt><trkpt lat="41.480518171890985" lon="13.721917586553383"><ele>105.0</ele><time>2026-03-26T15:44:15.999Z</time></trkpt><trkpt lat="41.48035504224732" lon="13.722296245340825"><ele>104.0</ele><time>2026-03-26T15:44:16.999Z</time></trkpt><trkpt lat="41.480192858386935" lon="13.722673399932933"><ele>103.5</ele><time>2026-03-26T15:44:17.999Z</time></trkpt><trkpt lat="41.48003137076864" lon="13.72305037897838"><ele>103.0</ele><time>2026-03-26T15:44:18.999Z</time></trkpt><trkpt lat="41.47986905383686" lon="13.723424924777593"><ele>103.0</ele><time>2026-03-26T15:44:19.999Z</time></trkpt><trkpt lat="41.47970720165524" lon="13.72380172998633"><ele>103.0</ele><time>2026-03-26T15:44:20.999Z</time></trkpt><trkpt lat="41.47954616241808" lon="13.72417664410718"><ele>103.0</ele><time>2026-03-26T15:44:21.999Z</time></trkpt><trkpt lat="41.47938665044058" lon="13.724551774516089"><ele>103.0</ele><time>2026-03-26T15:44:22.999Z</time></trkpt><trkpt lat="41.47922559226288" lon="13.72492575105482"><ele>103.0</ele><time>2026-03-26T15:44:23.999Z</time></trkpt><trkpt lat="41.479063752245125" lon="13.725298093931368"><ele>103.0</ele><time>2026-03-26T15:44:24.999Z</time></trkpt><trkpt lat="41.47890323291187" lon="13.725669853239399"><ele>103.0</ele><time>2026-03-26T15:44:25.999Z</time></trkpt><trkpt lat="41.47874219626811" lon="13.726043427548513"><ele>103.0</ele><time>2026-03-26T15:44:26.999Z</time></trkpt><trkpt lat="41.47858187689985" lon="13.726418150158683"><ele>103.0</ele><time>2026-03-26T15:44:27.999Z</time></trkpt><trkpt lat="41.47842219182488" lon="13.726794041628708"><ele>103.0</ele><time>2026-03-26T15:44:28.999Z</time></trkpt><trkpt lat="41.478262116837456" lon="13.727171784117603"><ele>103.0</ele><time>2026-03-26T15:44:29.999Z</time></trkpt><trkpt lat="41.478101154005124" lon="13.72754789870547"><ele>103.0</ele><time>2026-03-26T15:44:30.999Z</time></trkpt><trkpt lat="41.477943045616975" lon="13.727923253334344"><ele>102.0</ele><time>2026-03-26T15:44:31.999Z</time></trkpt><trkpt lat="41.47778647645588" lon="13.728293712687465"><ele>101.0</ele><time>2026-03-26T15:44:32.999Z</time></trkpt><trkpt lat="41.47762846388261" lon="13.728659421251594"><ele>101.0</ele><time>2026-03-26T15:44:33.999Z</time></trkpt><trkpt lat="41.477471936673375" lon="13.729023955963289"><ele>101.0</ele><time>2026-03-26T15:44:35Z</time></trkpt><trkpt lat="41.47731712338427" lon="13.72938685868628"><ele>100.5</ele><time>2026-03-26T15:44:36Z</time></trkpt><trkpt lat="41.4771628278583" lon="13.729749469096646"><ele>100.0</ele><time>2026-03-26T15:44:37Z</time></trkpt><trkpt lat="41.47700724680377" lon="13.730113472609492"><ele>101.0</ele><time>2026-03-26T15:44:38Z</time></trkpt><trkpt lat="41.47685035457138" lon="13.730475135164564"><ele>102.0</ele><time>2026-03-26T15:44:39Z</time></trkpt><trkpt lat="41.47669563241694" lon="13.730837393882915"><ele>102.0</ele><time>2026-03-26T15:44:40Z</time></trkpt><trkpt lat="41.476540343285514" lon="13.731198704724163"><ele>102.0</ele><time>2026-03-26T15:44:41Z</time></trkpt><trkpt lat="41.47638523125756" lon="13.731560258748528"><ele>102.5</ele><time>2026-03-26T15:44:42Z</time></trkpt><trkpt lat="41.47623071281791" lon="13.731919997008992"><ele>103.0</ele><time>2026-03-26T15:44:43Z</time></trkpt><trkpt lat="41.47607698134307" lon="13.732275528055244"><ele>103.0</ele><time>2026-03-26T15:44:44Z</time></trkpt><trkpt lat="41.47592445875855" lon="13.732625966336862"><ele>103.0</ele><time>2026-03-26T15:44:45Z</time></trkpt><trkpt lat="41.47577409451812" lon="13.732970964148873"><ele>103.0</ele><time>2026-03-26T15:44:46Z</time></trkpt><trkpt lat="41.47562629768926" lon="13.733312872050012"><ele>103.0</ele><time>2026-03-26T15:44:47Z</time></trkpt><trkpt lat="41.475481979496" lon="13.733656184901905"><ele>101.5</ele><time>2026-03-26T15:44:48Z</time></trkpt><trkpt lat="41.47534031322394" lon="13.733999687711124"><ele>100.0</ele><time>2026-03-26T15:44:49Z</time></trkpt><trkpt lat="41.475197376414336" lon="13.734343054653575"><ele>100.0</ele><time>2026-03-26T15:44:50Z</time></trkpt><trkpt lat="41.47505329380324" lon="13.734688965051697"><ele>100.0</ele><time>2026-03-26T15:44:51Z</time></trkpt><trkpt lat="41.47490735343523" lon="13.735036760340583"><ele>100.5</ele><time>2026-03-26T15:44:52Z</time></trkpt><trkpt lat="41.47475835247901" lon="13.735384217104336"><ele>101.0</ele><time>2026-03-26T15:44:53Z</time></trkpt><trkpt lat="41.474608653920015" lon="13.735735193977684"><ele>101.0</ele><time>2026-03-26T15:44:54Z</time></trkpt><trkpt lat="41.47445812776808" lon="13.736087512394926"><ele>101.0</ele><time>2026-03-26T15:44:55Z</time></trkpt><trkpt lat="41.474306643651765" lon="13.736440321051873"><ele>101.0</ele><time>2026-03-26T15:44:56Z</time></trkpt><trkpt lat="41.47415315819537" lon="13.73679428141624"><ele>101.0</ele><time>2026-03-26T15:44:57Z</time></trkpt><trkpt lat="41.474000522001994" lon="13.73715082337755"><ele>101.0</ele><time>2026-03-26T15:44:58Z</time></trkpt><trkpt lat="41.47384962586154" lon="13.737509353015952"><ele>101.0</ele><time>2026-03-26T15:44:59Z</time></trkpt><trkpt lat="41.47369676997794" lon="13.737867700198887"><ele>101.0</ele><time>2026-03-26T15:45:00Z</time></trkpt><trkpt lat="41.47354309176984" lon="13.738221849039247"><ele>101.0</ele><time>2026-03-26T15:45:01Z</time></trkpt><trkpt lat="41.47339349462476" lon="13.738578942737313"><ele>99.5</ele><time>2026-03-26T15:45:02Z</time></trkpt><trkpt lat="41.47324117824398" lon="13.738932420385567"><ele>98.0</ele><time>2026-03-26T15:45:03Z</time></trkpt><trkpt lat="41.47308884256209" lon="13.739287164363152"><ele>98.0</ele><time>2026-03-26T15:45:04Z</time></trkpt><trkpt lat="41.47293891116583" lon="13.739649175331103"><ele>98.0</ele><time>2026-03-26T15:45:05Z</time></trkpt><trkpt lat="41.472786091518294" lon="13.740009028864884"><ele>96.5</ele><time>2026-03-26T15:45:06Z</time></trkpt><trkpt lat="41.4726290199288" lon="13.740366349254796"><ele>95.0</ele><time>2026-03-26T15:45:07Z</time></trkpt><trkpt lat="41.47247407923994" lon="13.74072676493687"><ele>96.0</ele><time>2026-03-26T15:45:08Z</time></trkpt><trkpt lat="41.472317965836496" lon="13.741085990715737"><ele>97.0</ele><time>2026-03-26T15:45:09Z</time></trkpt><trkpt lat="41.47216378390755" lon="13.741445454641283"><ele>97.0</ele><time>2026-03-26T15:45:10Z</time></trkpt><trkpt lat="41.47200796902434" lon="13.741805293819239"><ele>97.0</ele><time>2026-03-26T15:45:11Z</time></trkpt><trkpt lat="41.471852117993436" lon="13.742166799379456"><ele>97.0</ele><time>2026-03-26T15:45:12Z</time></trkpt><trkpt lat="41.47169697502955" lon="13.74252978727697"><ele>97.0</ele><time>2026-03-26T15:45:13Z</time></trkpt><trkpt lat="41.47154138203406" lon="13.742896648043487"><ele>97.0</ele><time>2026-03-26T15:45:14Z</time></trkpt><trkpt lat="41.47138339609626" lon="13.743260772089068"><ele>97.0</ele><time>2026-03-26T15:45:15Z</time></trkpt><trkpt lat="41.47122532646098" lon="13.743625970705082"><ele>96.0</ele><time>2026-03-26T15:45:16Z</time></trkpt><trkpt lat="41.47106482375132" lon="13.74398836028905"><ele>95.0</ele><time>2026-03-26T15:45:17Z</time></trkpt><trkpt lat="41.470901082113286" lon="13.744347433198227"><ele>95.0</ele><time>2026-03-26T15:45:18Z</time></trkpt><trkpt lat="41.470735426089654" lon="13.744706377563473"><ele>95.0</ele><time>2026-03-26T15:45:19Z</time></trkpt><trkpt lat="41.47057181829252" lon="13.7450666326606"><ele>95.5</ele><time>2026-03-26T15:45:20Z</time></trkpt><trkpt lat="41.47041183504053" lon="13.745431497420883"><ele>96.0</ele><time>2026-03-26T15:45:21Z</time></trkpt><trkpt lat="41.4702579952534" lon="13.745800069215347"><ele>97.0</ele><time>2026-03-26T15:45:22Z</time></trkpt><trkpt lat="41.470110783712016" lon="13.746175004426911"><ele>98.0</ele><time>2026-03-26T15:45:23Z</time></trkpt><trkpt lat="41.469970807167975" lon="13.7465552135286"><ele>98.5</ele><time>2026-03-26T15:45:24Z</time></trkpt><trkpt lat="41.469837733497" lon="13.74693942582271"><ele>99.0</ele><time>2026-03-26T15:45:25Z</time></trkpt><trkpt lat="41.46971040721822" lon="13.7473256775597"><ele>98.5</ele><time>2026-03-26T15:45:26Z</time></trkpt><trkpt lat="41.469591728270494" lon="13.747716125786512"><ele>98.0</ele><time>2026-03-26T15:45:26.999Z</time></trkpt><trkpt lat="41.46947972441709" lon="13.748110253496092"><ele>98.0</ele><time>2026-03-26T15:45:27.999Z</time></trkpt><trkpt lat="41.4693725148603" lon="13.748507112955373"><ele>98.0</ele><time>2026-03-26T15:45:28.999Z</time></trkpt><trkpt lat="41.46926671455855" lon="13.748903023923669"><ele>97.0</ele><time>2026-03-26T15:45:29.999Z</time></trkpt><trkpt lat="41.46916285080116" lon="13.749301268784219"><ele>96.0</ele><time>2026-03-26T15:45:30.999Z</time></trkpt><trkpt lat="41.469060280840566" lon="13.74970240652078"><ele>96.0</ele><time>2026-03-26T15:45:31.999Z</time></trkpt><trkpt lat="41.46896240908119" lon="13.750103687115471"><ele>96.0</ele><time>2026-03-26T15:45:32.999Z</time></trkpt><trkpt lat="41.468868790590804" lon="13.750508568686348"><ele>96.0</ele><time>2026-03-26T15:45:33.999Z</time></trkpt><trkpt lat="41.46877743405558" lon="13.750914287263708"><ele>96.0</ele><time>2026-03-26T15:45:34.999Z</time></trkpt><trkpt lat="41.468685082600636" lon="13.751315469051125"><ele>95.0</ele><time>2026-03-26T15:45:35.999Z</time></trkpt><trkpt lat="41.46859400717928" lon="13.751721036482856"><ele>94.0</ele><time>2026-03-26T15:45:36.999Z</time></trkpt><trkpt lat="41.46850517817127" lon="13.752128364752581"><ele>93.5</ele><time>2026-03-26T15:45:37.999Z</time></trkpt><trkpt lat="41.46841553630688" lon="13.752538948712983"><ele>93.0</ele><time>2026-03-26T15:45:38.999Z</time></trkpt><trkpt lat="41.46832498229458" lon="13.75295006951607"><ele>93.0</ele><time>2026-03-26T15:45:39.999Z</time></trkpt><trkpt lat="41.46823336137491" lon="13.753363114486673"><ele>93.0</ele><time>2026-03-26T15:45:40.999Z</time></trkpt><trkpt lat="41.468140286306884" lon="13.753775648215518"><ele>92.5</ele><time>2026-03-26T15:45:41.999Z</time></trkpt><trkpt lat="41.46804705607738" lon="13.754189208355498"><ele>92.0</ele><time>2026-03-26T15:45:42.999Z</time></trkpt><trkpt lat="41.46795149756598" lon="13.754602310951164"><ele>91.5</ele><time>2026-03-26T15:45:43.999Z</time></trkpt><trkpt lat="41.46785300915598" lon="13.755015349311034"><ele>91.0</ele><time>2026-03-26T15:45:44.999Z</time></trkpt><trkpt lat="41.46775538493387" lon="13.755431440019555"><ele>91.0</ele><time>2026-03-26T15:45:45.999Z</time></trkpt><trkpt lat="41.46765944046174" lon="13.755846959107902"><ele>91.0</ele><time>2026-03-26T15:45:46.999Z</time></trkpt><trkpt lat="41.46756564581131" lon="13.756263593984658"><ele>90.5</ele><time>2026-03-26T15:45:47.999Z</time></trkpt><trkpt lat="41.46747345640452" lon="13.75667940340751"><ele>90.0</ele><time>2026-03-26T15:45:48.999Z</time></trkpt><trkpt lat="41.46738130002823" lon="13.757096394079817"><ele>90.0</ele><time>2026-03-26T15:45:49.999Z</time></trkpt><trkpt lat="41.467289243235115" lon="13.757511765205427"><ele>90.0</ele><time>2026-03-26T15:45:50.999Z</time></trkpt><trkpt lat="41.467195587110545" lon="13.757927131480642"><ele>89.0</ele><time>2026-03-26T15:45:51.999Z</time></trkpt><trkpt lat="41.467103831694544" lon="13.75834536970504"><ele>88.0</ele><time>2026-03-26T15:45:52.999Z</time></trkpt><trkpt lat="41.46701309827286" lon="13.758764255293547"><ele>88.0</ele><time>2026-03-26T15:45:53.999Z</time></trkpt><trkpt lat="41.46691998296126" lon="13.75918087161718"><ele>88.0</ele><time>2026-03-26T15:45:54.999Z</time></trkpt><trkpt lat="41.466828054130026" lon="13.759600710975903"><ele>88.0</ele><time>2026-03-26T15:45:55.999Z</time></trkpt><trkpt lat="41.466738611950184" lon="13.760022694125952"><ele>88.0</ele><time>2026-03-26T15:45:56.999Z</time></trkpt><trkpt lat="41.46664928360405" lon="13.760447280008277"><ele>87.5</ele><time>2026-03-26T15:45:57.999Z</time></trkpt><trkpt lat="41.466561712376745" lon="13.760873944150974"><ele>87.0</ele><time>2026-03-26T15:45:58.999Z</time></trkpt><trkpt lat="41.46647359884388" lon="13.761301931058615"><ele>86.0</ele><time>2026-03-26T15:45:59.999Z</time></trkpt><trkpt lat="41.466380894659466" lon="13.761725523495347"><ele>85.0</ele><time>2026-03-26T15:46:00.999Z</time></trkpt><trkpt lat="41.4662907644942" lon="13.76215150455844"><ele>85.5</ele><time>2026-03-26T15:46:01.999Z</time></trkpt><trkpt lat="41.46619750333896" lon="13.762574900402774"><ele>86.0</ele><time>2026-03-26T15:46:02.999Z</time></trkpt><trkpt lat="41.46610570295348" lon="13.762999894340831"><ele>86.0</ele><time>2026-03-26T15:46:03.999Z</time></trkpt><trkpt lat="41.46601313714862" lon="13.763425466927753"><ele>86.0</ele><time>2026-03-26T15:46:04.999Z</time></trkpt><trkpt lat="41.4659220489928" lon="13.763850365309407"><ele>85.5</ele><time>2026-03-26T15:46:05.999Z</time></trkpt><trkpt lat="41.4658340261417" lon="13.764279279437933"><ele>85.0</ele><time>2026-03-26T15:46:06.999Z</time></trkpt><trkpt lat="41.465743563109235" lon="13.76471352207248"><ele>82.5</ele><time>2026-03-26T15:46:07.999Z</time></trkpt><trkpt lat="41.46565054731535" lon="13.765147928154544"><ele>80.0</ele><time>2026-03-26T15:46:08.999Z</time></trkpt><trkpt lat="41.46556118108158" lon="13.76558012664176"><ele>78.0</ele><time>2026-03-26T15:46:09.999Z</time></trkpt><trkpt lat="41.46547267959991" lon="13.766011396849953"><ele>76.0</ele><time>2026-03-26T15:46:10.999Z</time></trkpt><trkpt lat="41.46538101732741" lon="13.76644066739599"><ele>74.5</ele><time>2026-03-26T15:46:11.999Z</time></trkpt><trkpt lat="41.46528942622091" lon="13.76686923828179"><ele>73.0</ele><time>2026-03-26T15:46:12.999Z</time></trkpt><trkpt lat="41.46519657686432" lon="13.767294076973473"><ele>72.5</ele><time>2026-03-26T15:46:13.999Z</time></trkpt><trkpt lat="41.465103101919" lon="13.767716243769847"><ele>72.0</ele><time>2026-03-26T15:46:14.999Z</time></trkpt><trkpt lat="41.465009773696956" lon="13.768135302632805"><ele>72.0</ele><time>2026-03-26T15:46:15.999Z</time></trkpt><trkpt lat="41.46491900333799" lon="13.768555280218246"><ele>72.0</ele><time>2026-03-26T15:46:16.999Z</time></trkpt><trkpt lat="41.46482883194651" lon="13.768973032003213"><ele>70.5</ele><time>2026-03-26T15:46:17.999Z</time></trkpt><trkpt lat="41.46473413201388" lon="13.769392901616502"><ele>69.0</ele><time>2026-03-26T15:46:18.999Z</time></trkpt><trkpt lat="41.46463778992856" lon="13.769807519825118"><ele>70.5</ele><time>2026-03-26T15:46:19.999Z</time></trkpt><trkpt lat="41.46454013068395" lon="13.770219652488048"><ele>72.0</ele><time>2026-03-26T15:46:20.999Z</time></trkpt><trkpt lat="41.46444097238773" lon="13.770632272106033"><ele>71.0</ele><time>2026-03-26T15:46:21.999Z</time></trkpt><trkpt lat="41.4643444645101" lon="13.771046423707787"><ele>70.0</ele><time>2026-03-26T15:46:22.999Z</time></trkpt><trkpt lat="41.46424709912594" lon="13.771460387321532"><ele>69.5</ele><time>2026-03-26T15:46:23.999Z</time></trkpt><trkpt lat="41.46415401308136" lon="13.771874040095351"><ele>69.0</ele><time>2026-03-26T15:46:24.999Z</time></trkpt><trkpt lat="41.46406152503131" lon="13.772286691605146"><ele>68.5</ele><time>2026-03-26T15:46:25.999Z</time></trkpt><trkpt lat="41.463971609935" lon="13.772699055257476"><ele>68.0</ele><time>2026-03-26T15:46:26.999Z</time></trkpt><trkpt lat="41.46388097281159" lon="13.773109244682976"><ele>68.0</ele><time>2026-03-26T15:46:27.999Z</time></trkpt><trkpt lat="41.463789844350075" lon="13.773516713129053"><ele>68.0</ele><time>2026-03-26T15:46:28.999Z</time></trkpt><trkpt lat="41.463699112141754" lon="13.773925037147452"><ele>68.0</ele><time>2026-03-26T15:46:29.999Z</time></trkpt><trkpt lat="41.463608518323156" lon="13.774333125098991"><ele>68.0</ele><time>2026-03-26T15:46:30.999Z</time></trkpt><trkpt lat="41.46351795970636" lon="13.774740766479216"><ele>68.0</ele><time>2026-03-26T15:46:31.999Z</time></trkpt><trkpt lat="41.46342784921741" lon="13.775151180779979"><ele>68.0</ele><time>2026-03-26T15:46:32.999Z</time></trkpt><trkpt lat="41.46333749548873" lon="13.775562036321372"><ele>67.5</ele><time>2026-03-26T15:46:33.999Z</time></trkpt><trkpt lat="41.463247481025334" lon="13.775973277816119"><ele>67.0</ele><time>2026-03-26T15:46:34.999Z</time></trkpt><trkpt lat="41.46315763810153" lon="13.776387338129913"><ele>66.5</ele><time>2026-03-26T15:46:35.999Z</time></trkpt><trkpt lat="41.4630698422012" lon="13.776799617932166"><ele>66.0</ele><time>2026-03-26T15:46:36.999Z</time></trkpt><trkpt lat="41.46298138228968" lon="13.777210480344184"><ele>65.5</ele><time>2026-03-26T15:46:37.999Z</time></trkpt><trkpt lat="41.46289229188229" lon="13.777619851432688"><ele>65.0</ele><time>2026-03-26T15:46:38.999Z</time></trkpt><trkpt lat="41.46280332914992" lon="13.77802814665058"><ele>65.0</ele><time>2026-03-26T15:46:39.999Z</time></trkpt><trkpt lat="41.46271303607963" lon="13.77843701393833"><ele>65.0</ele><time>2026-03-26T15:46:41Z</time></trkpt><trkpt lat="41.462622600665426" lon="13.778840081946834"><ele>65.5</ele><time>2026-03-26T15:46:42Z</time></trkpt><trkpt lat="41.46253263954028" lon="13.779238151988405"><ele>66.0</ele><time>2026-03-26T15:46:43Z</time></trkpt><trkpt lat="41.46244291247795" lon="13.779634166916477"><ele>66.5</ele><time>2026-03-26T15:46:44Z</time></trkpt><trkpt lat="41.462355278820404" lon="13.780029508532227"><ele>67.0</ele><time>2026-03-26T15:46:45Z</time></trkpt><trkpt lat="41.46227007839864" lon="13.780425216986604"><ele>67.0</ele><time>2026-03-26T15:46:46Z</time></trkpt><trkpt lat="41.4621828675039" lon="13.780821693289369"><ele>67.0</ele><time>2026-03-26T15:46:47Z</time></trkpt><trkpt lat="41.462096727605676" lon="13.781216526550278"><ele>69.0</ele><time>2026-03-26T15:46:48Z</time></trkpt><trkpt lat="41.462010851597796" lon="13.78161201301853"><ele>71.0</ele><time>2026-03-26T15:46:49Z</time></trkpt><trkpt lat="41.46192401778181" lon="13.782007432619878"><ele>73.0</ele><time>2026-03-26T15:46:50Z</time></trkpt><trkpt lat="41.46183708019826" lon="13.782403445137033"><ele>75.0</ele><time>2026-03-26T15:46:51Z</time></trkpt><trkpt lat="41.461750633302806" lon="13.78280421556909"><ele>75.5</ele><time>2026-03-26T15:46:52Z</time></trkpt><trkpt lat="41.46166563403918" lon="13.783205910969082"><ele>76.0</ele><time>2026-03-26T15:46:53Z</time></trkpt><trkpt lat="41.461578979383226" lon="13.783610306537941"><ele>77.0</ele><time>2026-03-26T15:46:54Z</time></trkpt><trkpt lat="41.4614914451159" lon="13.784017488663128"><ele>78.0</ele><time>2026-03-26T15:46:55Z</time></trkpt><trkpt lat="41.46140009374293" lon="13.784425176974272"><ele>77.5</ele><time>2026-03-26T15:46:56Z</time></trkpt><trkpt lat="41.461309218677094" lon="13.784834517625825"><ele>77.0</ele><time>2026-03-26T15:46:57Z</time></trkpt><trkpt lat="41.46121907808729" lon="13.785242265076258"><ele>77.0</ele><time>2026-03-26T15:46:58Z</time></trkpt><trkpt lat="41.46113031818087" lon="13.7856536441294"><ele>77.0</ele><time>2026-03-26T15:46:59Z</time></trkpt><trkpt lat="41.46103850855907" lon="13.786068081865283"><ele>77.0</ele><time>2026-03-26T15:47:00Z</time></trkpt><trkpt lat="41.460944912641224" lon="13.786484985471134"><ele>77.0</ele><time>2026-03-26T15:47:01Z</time></trkpt><trkpt lat="41.460853723043336" lon="13.786903241577583"><ele>77.5</ele><time>2026-03-26T15:47:02Z</time></trkpt><trkpt lat="41.46076205727339" lon="13.787323738361234"><ele>78.0</ele><time>2026-03-26T15:47:03Z</time></trkpt><trkpt lat="41.460669323622774" lon="13.787742274592379"><ele>78.0</ele><time>2026-03-26T15:47:04Z</time></trkpt><trkpt lat="41.46057351786951" lon="13.78815946078347"><ele>78.0</ele><time>2026-03-26T15:47:05Z</time></trkpt><trkpt lat="41.46047880067202" lon="13.788579702084927"><ele>76.0</ele><time>2026-03-26T15:47:06Z</time></trkpt><trkpt lat="41.4603842489426" lon="13.788998612674789"><ele>74.0</ele><time>2026-03-26T15:47:07Z</time></trkpt><trkpt lat="41.460292964085895" lon="13.789417348677212"><ele>74.0</ele><time>2026-03-26T15:47:08Z</time></trkpt><trkpt lat="41.46020262363128" lon="13.789835983123858"><ele>74.0</ele><time>2026-03-26T15:47:09Z</time></trkpt><trkpt lat="41.46011176129909" lon="13.790254574643939"><ele>75.5</ele><time>2026-03-26T15:47:10Z</time></trkpt><trkpt lat="41.46002021022122" lon="13.790672201518303"><ele>77.0</ele><time>2026-03-26T15:47:11Z</time></trkpt><trkpt lat="41.459927477620845" lon="13.791088902935618"><ele>78.5</ele><time>2026-03-26T15:47:12Z</time></trkpt><trkpt lat="41.45983547235591" lon="13.791505149804339"><ele>80.0</ele><time>2026-03-26T15:47:13Z</time></trkpt><trkpt lat="41.459741193270155" lon="13.791916937813937"><ele>81.0</ele><time>2026-03-26T15:47:14Z</time></trkpt><trkpt lat="41.45964562602263" lon="13.792324142492104"><ele>82.0</ele><time>2026-03-26T15:47:15Z</time></trkpt><trkpt lat="41.45954674924353" lon="13.792731823123866"><ele>79.5</ele><time>2026-03-26T15:47:16Z</time></trkpt><trkpt lat="41.459451225386374" lon="13.79313452725532"><ele>77.0</ele><time>2026-03-26T15:47:17Z</time></trkpt><trkpt lat="41.45936068972295" lon="13.793533093028945"><ele>76.0</ele><time>2026-03-26T15:47:18Z</time></trkpt><trkpt lat="41.459274954969715" lon="13.793925340484519"><ele>75.0</ele><time>2026-03-26T15:47:19Z</time></trkpt><trkpt lat="41.45918650884546" lon="13.79431246157591"><ele>75.5</ele><time>2026-03-26T15:47:20Z</time></trkpt><trkpt lat="41.459104021583" lon="13.794699758814469"><ele>76.0</ele><time>2026-03-26T15:47:21Z</time></trkpt><trkpt lat="41.45902029128546" lon="13.795089446022013"><ele>76.5</ele><time>2026-03-26T15:47:22Z</time></trkpt><trkpt lat="41.45893305060474" lon="13.795476403432927"><ele>77.0</ele><time>2026-03-26T15:47:23Z</time></trkpt><trkpt lat="41.45884749600935" lon="13.795860876695933"><ele>75.0</ele><time>2026-03-26T15:47:24Z</time></trkpt><trkpt lat="41.45876484472261" lon="13.796243671695363"><ele>73.0</ele><time>2026-03-26T15:47:25Z</time></trkpt><trkpt lat="41.45868047192374" lon="13.796626077856848"><ele>73.0</ele><time>2026-03-26T15:47:26Z</time></trkpt><trkpt lat="41.45859367649338" lon="13.797008929688888"><ele>73.0</ele><time>2026-03-26T15:47:27Z</time></trkpt><trkpt lat="41.45850997833667" lon="13.797391887235515"><ele>72.5</ele><time>2026-03-26T15:47:28Z</time></trkpt><trkpt lat="41.458427163406675" lon="13.797774559771423"><ele>72.0</ele><time>2026-03-26T15:47:29Z</time></trkpt><trkpt lat="41.458344945465896" lon="13.7981631452415"><ele>71.5</ele><time>2026-03-26T15:47:30Z</time></trkpt><trkpt lat="41.45826440203399" lon="13.798555688980553"><ele>71.0</ele><time>2026-03-26T15:47:31Z</time></trkpt><trkpt lat="41.45818154789454" lon="13.798950409271042"><ele>71.5</ele><time>2026-03-26T15:47:31.999Z</time></trkpt><trkpt lat="41.45809765541868" lon="13.79934674790577"><ele>72.0</ele><time>2026-03-26T15:47:32.999Z</time></trkpt><trkpt lat="41.458012081454804" lon="13.7997435386555"><ele>71.5</ele><time>2026-03-26T15:47:33.999Z</time></trkpt><trkpt lat="41.457925873891575" lon="13.800141174796133"><ele>71.0</ele><time>2026-03-26T15:47:34.999Z</time></trkpt><trkpt lat="41.45784060469699" lon="13.800536153705485"><ele>70.5</ele><time>2026-03-26T15:47:35.999Z</time></trkpt><trkpt lat="41.457750542019724" lon="13.800933410824415"><ele>70.0</ele><time>2026-03-26T15:47:36.999Z</time></trkpt><trkpt lat="41.45767338048692" lon="13.801329236731956"><ele>68.5</ele><time>2026-03-26T15:47:37.999Z</time></trkpt><trkpt lat="41.45759333515296" lon="13.801725162660965"><ele>67.0</ele><time>2026-03-26T15:47:38.999Z</time></trkpt><trkpt lat="41.45751220908296" lon="13.802117703091106"><ele>66.0</ele><time>2026-03-26T15:47:39.999Z</time></trkpt><trkpt lat="41.45742738888433" lon="13.802509697635038"><ele>65.0</ele><time>2026-03-26T15:47:40.999Z</time></trkpt><trkpt lat="41.45733646541404" lon="13.80290015461248"><ele>64.0</ele><time>2026-03-26T15:47:41.999Z</time></trkpt><trkpt lat="41.45724116751927" lon="13.80328598448883"><ele>63.0</ele><time>2026-03-26T15:47:42.999Z</time></trkpt><trkpt lat="41.457148790478016" lon="13.803673642015342"><ele>62.0</ele><time>2026-03-26T15:47:43.999Z</time></trkpt><trkpt lat="41.4570606402603" lon="13.80406170473162"><ele>61.0</ele><time>2026-03-26T15:47:44.999Z</time></trkpt><trkpt lat="41.45697374002726" lon="13.804450734713704"><ele>61.0</ele><time>2026-03-26T15:47:45.999Z</time></trkpt><trkpt lat="41.45688649205583" lon="13.804841499169475"><ele>61.0</ele><time>2026-03-26T15:47:46.999Z</time></trkpt><trkpt lat="41.45679927718859" lon="13.8052360082691"><ele>60.0</ele><time>2026-03-26T15:47:47.999Z</time></trkpt><trkpt lat="41.45671076052024" lon="13.805632481061267"><ele>59.0</ele><time>2026-03-26T15:47:48.999Z</time></trkpt><trkpt lat="41.45662106751535" lon="13.806033385213674"><ele>59.0</ele><time>2026-03-26T15:47:49.999Z</time></trkpt><trkpt lat="41.45652850772455" lon="13.806439207385935"><ele>59.0</ele><time>2026-03-26T15:47:50.999Z</time></trkpt><trkpt lat="41.45643602578537" lon="13.806849863847255"><ele>58.0</ele><time>2026-03-26T15:47:51.999Z</time></trkpt><trkpt lat="41.45634438760627" lon="13.807261467607656"><ele>57.0</ele><time>2026-03-26T15:47:52.999Z</time></trkpt><trkpt lat="41.45625098956669" lon="13.807679669194142"><ele>55.5</ele><time>2026-03-26T15:47:53.999Z</time></trkpt><trkpt lat="41.45615791033127" lon="13.808099715432714"><ele>54.0</ele><time>2026-03-26T15:47:54.999Z</time></trkpt><trkpt lat="41.45606519095944" lon="13.808520371403748"><ele>54.0</ele><time>2026-03-26T15:47:55.999Z</time></trkpt><trkpt lat="41.45597166109464" lon="13.808942005149039"><ele>54.0</ele><time>2026-03-26T15:47:56.999Z</time></trkpt><trkpt lat="41.4558787960345" lon="13.809364850011411"><ele>54.5</ele><time>2026-03-26T15:47:57.999Z</time></trkpt><trkpt lat="41.45578780515833" lon="13.809786872975955"><ele>55.0</ele><time>2026-03-26T15:47:58.999Z</time></trkpt><trkpt lat="41.455697763672745" lon="13.810206315422976"><ele>55.0</ele><time>2026-03-26T15:47:59.999Z</time></trkpt><trkpt lat="41.455606825819686" lon="13.8106237014182"><ele>55.0</ele><time>2026-03-26T15:48:00.999Z</time></trkpt><trkpt lat="41.45551618271395" lon="13.8110390757246"><ele>54.0</ele><time>2026-03-26T15:48:01.999Z</time></trkpt><trkpt lat="41.455426052833204" lon="13.811452518250483"><ele>53.0</ele><time>2026-03-26T15:48:02.999Z</time></trkpt><trkpt lat="41.455336504958446" lon="13.811863584841085"><ele>52.0</ele><time>2026-03-26T15:48:03.999Z</time></trkpt><trkpt lat="41.45524687548451" lon="13.81227160274489"><ele>51.0</ele><time>2026-03-26T15:48:04.999Z</time></trkpt><trkpt lat="41.455156523009066" lon="13.812680416986112"><ele>50.0</ele><time>2026-03-26T15:48:05.999Z</time></trkpt><trkpt lat="41.45506603166116" lon="13.813086031083781"><ele>49.0</ele><time>2026-03-26T15:48:06.999Z</time></trkpt><trkpt lat="41.45497516320701" lon="13.813490279676662"><ele>48.5</ele><time>2026-03-26T15:48:07.999Z</time></trkpt><trkpt lat="41.45487938621351" lon="13.813890633842206"><ele>48.0</ele><time>2026-03-26T15:48:08.999Z</time></trkpt><trkpt lat="41.45478113717817" lon="13.814290556682566"><ele>46.0</ele><time>2026-03-26T15:48:09.999Z</time></trkpt><trkpt lat="41.45468334398309" lon="13.814693847783296"><ele>44.0</ele><time>2026-03-26T15:48:10.999Z</time></trkpt><trkpt lat="41.454587755611385" lon="13.815098932354141"><ele>44.5</ele><time>2026-03-26T15:48:11.999Z</time></trkpt><trkpt lat="41.454495913108275" lon="13.815501587826216"><ele>45.0</ele><time>2026-03-26T15:48:12.999Z</time></trkpt><trkpt lat="41.45440686575134" lon="13.815902735816405"><ele>45.0</ele><time>2026-03-26T15:48:13.999Z</time></trkpt><trkpt lat="41.454317263490935" lon="13.816303896342673"><ele>45.0</ele><time>2026-03-26T15:48:14.999Z</time></trkpt><trkpt lat="41.454228612194676" lon="13.816702717855543"><ele>47.5</ele><time>2026-03-26T15:48:15.999Z</time></trkpt><trkpt lat="41.45414137561061" lon="13.81709959780357"><ele>50.0</ele><time>2026-03-26T15:48:16.999Z</time></trkpt><trkpt lat="41.45405508545814" lon="13.817493211099698"><ele>54.5</ele><time>2026-03-26T15:48:17.999Z</time></trkpt><trkpt lat="41.453968963023314" lon="13.81788388437004"><ele>59.0</ele><time>2026-03-26T15:48:18.999Z</time></trkpt><trkpt lat="41.453882985326636" lon="13.81827081366407"><ele>59.5</ele><time>2026-03-26T15:48:19.999Z</time></trkpt><trkpt lat="41.45379904890144" lon="13.818654890743288"><ele>60.0</ele><time>2026-03-26T15:48:20.999Z</time></trkpt><trkpt lat="41.453715666507506" lon="13.819038091212253"><ele>60.0</ele><time>2026-03-26T15:48:21.999Z</time></trkpt><trkpt lat="41.453631900032086" lon="13.81942369721986"><ele>60.0</ele><time>2026-03-26T15:48:22.999Z</time></trkpt><trkpt lat="41.453544796671515" lon="13.81980826386037"><ele>60.0</ele><time>2026-03-26T15:48:23.999Z</time></trkpt><trkpt lat="41.45345943702451" lon="13.8201929886173"><ele>60.0</ele><time>2026-03-26T15:48:24.999Z</time></trkpt><trkpt lat="41.45337750314295" lon="13.820582193487358"><ele>60.0</ele><time>2026-03-26T15:48:25.999Z</time></trkpt><trkpt lat="41.4532971118826" lon="13.820974271524804"><ele>60.0</ele><time>2026-03-26T15:48:26.999Z</time></trkpt><trkpt lat="41.45321564265865" lon="13.821370000555154"><ele>60.0</ele><time>2026-03-26T15:48:27.999Z</time></trkpt><trkpt lat="41.45313458194787" lon="13.82176832979181"><ele>60.0</ele><time>2026-03-26T15:48:28.999Z</time></trkpt><trkpt lat="41.45304883975661" lon="13.822165706142904"><ele>60.0</ele><time>2026-03-26T15:48:29.999Z</time></trkpt><trkpt lat="41.452962388887684" lon="13.822566750538636"><ele>60.0</ele><time>2026-03-26T15:48:30.999Z</time></trkpt><trkpt lat="41.45287320172701" lon="13.822968725718209"><ele>57.5</ele><time>2026-03-26T15:48:31.999Z</time></trkpt><trkpt lat="41.4527851427948" lon="13.82336858760662"><ele>55.0</ele><time>2026-03-26T15:48:32.999Z</time></trkpt><trkpt lat="41.45269843660075" lon="13.823772165879516"><ele>52.5</ele><time>2026-03-26T15:48:33.999Z</time></trkpt><trkpt lat="41.45260925374359" lon="13.824175020405784"><ele>50.0</ele><time>2026-03-26T15:48:34.999Z</time></trkpt><trkpt lat="41.4525213559125" lon="13.824576246666119"><ele>50.0</ele><time>2026-03-26T15:48:35.999Z</time></trkpt><trkpt lat="41.45243127650922" lon="13.824975176292055"><ele>50.0</ele><time>2026-03-26T15:48:36.999Z</time></trkpt><trkpt lat="41.4523376031208" lon="13.825367714946012"><ele>52.0</ele><time>2026-03-26T15:48:37.999Z</time></trkpt><trkpt lat="41.452244751243356" lon="13.82576121712539"><ele>54.0</ele><time>2026-03-26T15:48:38.999Z</time></trkpt><trkpt lat="41.452154421726306" lon="13.826151293121928"><ele>53.0</ele><time>2026-03-26T15:48:39.999Z</time></trkpt><trkpt lat="41.45206305808855" lon="13.826541671126318"><ele>52.0</ele><time>2026-03-26T15:48:40.999Z</time></trkpt><trkpt lat="41.45197414886437" lon="13.826931586333178"><ele>53.0</ele><time>2026-03-26T15:48:41.999Z</time></trkpt><trkpt lat="41.4518858661729" lon="13.827317991006286"><ele>54.0</ele><time>2026-03-26T15:48:42.999Z</time></trkpt><trkpt lat="41.451800364591676" lon="13.827706207542152"><ele>54.0</ele><time>2026-03-26T15:48:43.999Z</time></trkpt><trkpt lat="41.45171225566207" lon="13.828091635207281"><ele>54.0</ele><time>2026-03-26T15:48:44.999Z</time></trkpt><trkpt lat="41.45162565156903" lon="13.828478991797361"><ele>52.0</ele><time>2026-03-26T15:48:46Z</time></trkpt><trkpt lat="41.45154030648895" lon="13.828863811589981"><ele>50.0</ele><time>2026-03-26T15:48:47Z</time></trkpt><trkpt lat="41.45145260659024" lon="13.82924708418277"><ele>49.5</ele><time>2026-03-26T15:48:48Z</time></trkpt><trkpt lat="41.451368858179265" lon="13.829631915108358"><ele>49.0</ele><time>2026-03-26T15:48:49Z</time></trkpt><trkpt lat="41.45128236821211" lon="13.83001131778164"><ele>49.5</ele><time>2026-03-26T15:48:50Z</time></trkpt><trkpt lat="41.45119422246648" lon="13.8303915645922"><ele>50.0</ele><time>2026-03-26T15:48:51Z</time></trkpt><trkpt lat="41.451108262719245" lon="13.830774096224934"><ele>49.0</ele><time>2026-03-26T15:48:52Z</time></trkpt><trkpt lat="41.45102297005303" lon="13.831158367608364"><ele>48.0</ele><time>2026-03-26T15:48:53Z</time></trkpt><trkpt lat="41.45093511313183" lon="13.831544617454153"><ele>48.5</ele><time>2026-03-26T15:48:54Z</time></trkpt><trkpt lat="41.45084893517734" lon="13.831932772912761"><ele>49.0</ele><time>2026-03-26T15:48:55Z</time></trkpt><trkpt lat="41.45076005437898" lon="13.832323435307853"><ele>47.5</ele><time>2026-03-26T15:48:56Z</time></trkpt><trkpt lat="41.450673640824384" lon="13.832716480592559"><ele>46.0</ele><time>2026-03-26T15:48:57Z</time></trkpt><trkpt lat="41.450587556233494" lon="13.833113939336862"><ele>43.0</ele><time>2026-03-26T15:48:58Z</time></trkpt><trkpt lat="41.45050137387427" lon="13.833513487501826"><ele>40.0</ele><time>2026-03-26T15:48:59Z</time></trkpt><trkpt lat="41.45041779349828" lon="13.833911862553682"><ele>36.5</ele><time>2026-03-26T15:49:00Z</time></trkpt><trkpt lat="41.45033137418647" lon="13.834311945498802"><ele>33.0</ele><time>2026-03-26T15:49:01Z</time></trkpt><trkpt lat="41.450244876748265" lon="13.834711116738859"><ele>33.0</ele><time>2026-03-26T15:49:02Z</time></trkpt><trkpt lat="41.45015522992553" lon="13.835109064281443"><ele>33.0</ele><time>2026-03-26T15:49:03Z</time></trkpt><trkpt lat="41.45006954917145" lon="13.83550937001899"><ele>32.0</ele><time>2026-03-26T15:49:04Z</time></trkpt><trkpt lat="41.44998280880379" lon="13.835908523903322"><ele>31.0</ele><time>2026-03-26T15:49:05Z</time></trkpt><trkpt lat="41.449899546136" lon="13.83630639278522"><ele>31.0</ele><time>2026-03-26T15:49:06Z</time></trkpt><trkpt lat="41.44981785157451" lon="13.836701574326295"><ele>31.0</ele><time>2026-03-26T15:49:07Z</time></trkpt><trkpt lat="41.44973954219916" lon="13.837097085926006"><ele>31.0</ele><time>2026-03-26T15:49:08Z</time></trkpt><trkpt lat="41.44966175733852" lon="13.837495097391034"><ele>31.0</ele><time>2026-03-26T15:49:09Z</time></trkpt><trkpt lat="41.44957943169468" lon="13.83788805814976"><ele>30.5</ele><time>2026-03-26T15:49:10Z</time></trkpt><trkpt lat="41.44949443061639" lon="13.838277803331614"><ele>30.0</ele><time>2026-03-26T15:49:11Z</time></trkpt><trkpt lat="41.44940792132791" lon="13.838664168588236"><ele>30.0</ele><time>2026-03-26T15:49:12Z</time></trkpt><trkpt lat="41.44932188318954" lon="13.839049594337865"><ele>30.0</ele><time>2026-03-26T15:49:13Z</time></trkpt><trkpt lat="41.44923810310743" lon="13.839436213840742"><ele>31.0</ele><time>2026-03-26T15:49:14Z</time></trkpt><trkpt lat="41.44915361522153" lon="13.839823084148723"><ele>32.0</ele><time>2026-03-26T15:49:15Z</time></trkpt><trkpt lat="41.44906691172799" lon="13.840208958600588"><ele>34.0</ele><time>2026-03-26T15:49:16Z</time></trkpt><trkpt lat="41.448979907368916" lon="13.840592687079322"><ele>36.0</ele><time>2026-03-26T15:49:17Z</time></trkpt><trkpt lat="41.448895182932205" lon="13.840978301284014"><ele>37.5</ele><time>2026-03-26T15:49:18Z</time></trkpt><trkpt lat="41.44880758294644" lon="13.841361204645764"><ele>39.0</ele><time>2026-03-26T15:49:19Z</time></trkpt><trkpt lat="41.44871105355638" lon="13.841743013780533"><ele>40.0</ele><time>2026-03-26T15:49:20Z</time></trkpt><trkpt lat="41.448613585681535" lon="13.842127058759504"><ele>41.0</ele><time>2026-03-26T15:49:21Z</time></trkpt><trkpt lat="41.44852145549756" lon="13.842511776365324"><ele>42.5</ele><time>2026-03-26T15:49:22Z</time></trkpt><trkpt lat="41.44843380015839" lon="13.842898116764248"><ele>44.0</ele><time>2026-03-26T15:49:23Z</time></trkpt><trkpt lat="41.44834827459662" lon="13.843284619976483"><ele>44.0</ele><time>2026-03-26T15:49:24Z</time></trkpt><trkpt lat="41.44826428298853" lon="13.84367231535886"><ele>44.0</ele><time>2026-03-26T15:49:25Z</time></trkpt><trkpt lat="41.44817974192998" lon="13.844059194034186"><ele>44.5</ele><time>2026-03-26T15:49:26Z</time></trkpt><trkpt lat="41.4480944512338" lon="13.84444521952762"><ele>45.0</ele><time>2026-03-26T15:49:27Z</time></trkpt><trkpt lat="41.44800906185642" lon="13.844828251375343"><ele>46.5</ele><time>2026-03-26T15:49:28Z</time></trkpt><trkpt lat="41.44792744822651" lon="13.8452073214546"><ele>48.0</ele><time>2026-03-26T15:49:29Z</time></trkpt><trkpt lat="41.44785059891744" lon="13.845586195543738"><ele>47.0</ele><time>2026-03-26T15:49:30Z</time></trkpt><trkpt lat="41.44777573995178" lon="13.845963848254776"><ele>46.0</ele><time>2026-03-26T15:49:31Z</time></trkpt><trkpt lat="41.447701232065484" lon="13.846339210341254"><ele>46.0</ele><time>2026-03-26T15:49:32Z</time></trkpt><trkpt lat="41.447626287511625" lon="13.846713594142864"><ele>46.0</ele><time>2026-03-26T15:49:33Z</time></trkpt><trkpt lat="41.44754956383435" lon="13.847088846645237"><ele>45.5</ele><time>2026-03-26T15:49:34Z</time></trkpt><trkpt lat="41.44746846605995" lon="13.847463593413034"><ele>45.0</ele><time>2026-03-26T15:49:35Z</time></trkpt><trkpt lat="41.44738649072094" lon="13.847833754110427"><ele>43.5</ele><time>2026-03-26T15:49:36Z</time></trkpt><trkpt lat="41.44730561678858" lon="13.848205380960989"><ele>42.0</ele><time>2026-03-26T15:49:37Z</time></trkpt><trkpt lat="41.44722705516464" lon="13.848572630486299"><ele>42.0</ele><time>2026-03-26T15:49:37.999Z</time></trkpt><trkpt lat="41.44715173857887" lon="13.848935633087903"><ele>42.0</ele><time>2026-03-26T15:49:38.999Z</time></trkpt><trkpt lat="41.447077760356564" lon="13.849293699991238"><ele>45.5</ele><time>2026-03-26T15:49:39.999Z</time></trkpt><trkpt lat="41.447005218266575" lon="13.849639852743296"><ele>49.0</ele><time>2026-03-26T15:49:40.999Z</time></trkpt><trkpt lat="41.446932955311404" lon="13.849981081489554"><ele>48.5</ele><time>2026-03-26T15:49:41.999Z</time></trkpt><trkpt lat="41.4468602901297" lon="13.850319215517567"><ele>48.0</ele><time>2026-03-26T15:49:42.999Z</time></trkpt><trkpt lat="41.44678748348966" lon="13.850656507171616"><ele>49.0</ele><time>2026-03-26T15:49:43.999Z</time></trkpt><trkpt lat="41.44671327012433" lon="13.850995547522277"><ele>50.0</ele><time>2026-03-26T15:49:44.999Z</time></trkpt><trkpt lat="41.44663644469277" lon="13.851336021297351"><ele>50.0</ele><time>2026-03-26T15:49:45.999Z</time></trkpt><trkpt lat="41.44655806865995" lon="13.851677916116017"><ele>50.0</ele><time>2026-03-26T15:49:46.999Z</time></trkpt><trkpt lat="41.44648047039941" lon="13.852023858912311"><ele>50.0</ele><time>2026-03-26T15:49:47.999Z</time></trkpt><trkpt lat="41.446403663321014" lon="13.852375797341725"><ele>50.0</ele><time>2026-03-26T15:49:48.999Z</time></trkpt><trkpt lat="41.44632694688596" lon="13.85273612694011"><ele>50.0</ele><time>2026-03-26T15:49:49.999Z</time></trkpt><trkpt lat="41.4462472493163" lon="13.853104619699911"><ele>50.0</ele><time>2026-03-26T15:49:50.999Z</time></trkpt><trkpt lat="41.44616656449728" lon="13.853476649154622"><ele>50.0</ele><time>2026-03-26T15:49:51.999Z</time></trkpt><trkpt lat="41.44608415615736" lon="13.853851714180536"><ele>50.0</ele><time>2026-03-26T15:49:52.999Z</time></trkpt><trkpt lat="41.44600088634815" lon="13.854230007859314"><ele>50.5</ele><time>2026-03-26T15:49:53.999Z</time></trkpt><trkpt lat="41.445917092798815" lon="13.854610668165249"><ele>51.0</ele><time>2026-03-26T15:49:54.999Z</time></trkpt><trkpt lat="41.445829986219685" lon="13.85499549754789"><ele>50.5</ele><time>2026-03-26T15:49:55.999Z</time></trkpt><trkpt lat="41.44574359185534" lon="13.855381039867419"><ele>50.0</ele><time>2026-03-26T15:49:56.999Z</time></trkpt><trkpt lat="41.44565707424227" lon="13.855767446397438"><ele>49.5</ele><time>2026-03-26T15:49:57.999Z</time></trkpt><trkpt lat="41.44557254872788" lon="13.856155212983788"><ele>49.0</ele><time>2026-03-26T15:49:58.999Z</time></trkpt><trkpt lat="41.44548873138081" lon="13.856544604019257"><ele>47.5</ele><time>2026-03-26T15:49:59.999Z</time></trkpt><trkpt lat="41.445403679565146" lon="13.856935739806259"><ele>46.0</ele><time>2026-03-26T15:50:00.999Z</time></trkpt><trkpt lat="41.4453150211908" lon="13.85732650116933"><ele>46.5</ele><time>2026-03-26T15:50:01.999Z</time></trkpt><trkpt lat="41.445225668818296" lon="13.857716457159194"><ele>47.0</ele><time>2026-03-26T15:50:02.999Z</time></trkpt><trkpt lat="41.445138173980936" lon="13.858110746759968"><ele>47.0</ele><time>2026-03-26T15:50:03.999Z</time></trkpt><trkpt lat="41.44504828354219" lon="13.858509632347323"><ele>47.0</ele><time>2026-03-26T15:50:04.999Z</time></trkpt><trkpt lat="41.444959738813424" lon="13.858914077073196"><ele>47.0</ele><time>2026-03-26T15:50:05.999Z</time></trkpt><trkpt lat="41.44487028177593" lon="13.859324233592265"><ele>47.0</ele><time>2026-03-26T15:50:06.999Z</time></trkpt><trkpt lat="41.44477786413061" lon="13.859739853357294"><ele>47.0</ele><time>2026-03-26T15:50:07.999Z</time></trkpt><trkpt lat="41.44468248999368" lon="13.86015601145546"><ele>47.0</ele><time>2026-03-26T15:50:08.999Z</time></trkpt><trkpt lat="41.4445877774116" lon="13.860577722091675"><ele>47.0</ele><time>2026-03-26T15:50:09.999Z</time></trkpt><trkpt lat="41.44449127449448" lon="13.86100123702906"><ele>47.0</ele><time>2026-03-26T15:50:10.999Z</time></trkpt><trkpt lat="41.44439524203661" lon="13.86142712101426"><ele>46.5</ele><time>2026-03-26T15:50:11.999Z</time></trkpt><trkpt lat="41.444298657952125" lon="13.861855272856179"><ele>46.0</ele><time>2026-03-26T15:50:12.999Z</time></trkpt><trkpt lat="41.44420095941117" lon="13.862283621814424"><ele>45.5</ele><time>2026-03-26T15:50:13.999Z</time></trkpt><trkpt lat="41.444105260747186" lon="13.862712938512535"><ele>45.0</ele><time>2026-03-26T15:50:14.999Z</time></trkpt><trkpt lat="41.44401289387262" lon="13.86314130877279"><ele>44.5</ele><time>2026-03-26T15:50:15.999Z</time></trkpt><trkpt lat="41.443918665662366" lon="13.863566060394001"><ele>44.0</ele><time>2026-03-26T15:50:16.999Z</time></trkpt><trkpt lat="41.443824585026746" lon="13.863987730491415"><ele>41.5</ele><time>2026-03-26T15:50:17.999Z</time></trkpt><trkpt lat="41.443732639456485" lon="13.864406725092191"><ele>39.0</ele><time>2026-03-26T15:50:18.999Z</time></trkpt><trkpt lat="41.44363942047017" lon="13.864823382924648"><ele>39.5</ele><time>2026-03-26T15:50:19.999Z</time></trkpt><trkpt lat="41.44354856447443" lon="13.86523649956458"><ele>40.0</ele><time>2026-03-26T15:50:20.999Z</time></trkpt><trkpt lat="41.44345642269334" lon="13.865643840374476"><ele>40.5</ele><time>2026-03-26T15:50:21.999Z</time></trkpt><trkpt lat="41.44336839065049" lon="13.866053681639881"><ele>41.0</ele><time>2026-03-26T15:50:22.999Z</time></trkpt><trkpt lat="41.443277912580754" lon="13.866460013227716"><ele>42.0</ele><time>2026-03-26T15:50:23.999Z</time></trkpt><trkpt lat="41.4431892541582" lon="13.86686622625079"><ele>43.0</ele><time>2026-03-26T15:50:24.999Z</time></trkpt><trkpt lat="41.44310450558267" lon="13.867271785357014"><ele>43.5</ele><time>2026-03-26T15:50:25.999Z</time></trkpt><trkpt lat="41.443016744800325" lon="13.867674738295731"><ele>44.0</ele><time>2026-03-26T15:50:26.999Z</time></trkpt><trkpt lat="41.44292631897524" lon="13.868074054343511"><ele>42.5</ele><time>2026-03-26T15:50:27.999Z</time></trkpt><trkpt lat="41.442834401661756" lon="13.86847283972821"><ele>41.0</ele><time>2026-03-26T15:50:28.999Z</time></trkpt><trkpt lat="41.44273829799877" lon="13.868868511091785"><ele>41.0</ele><time>2026-03-26T15:50:29.999Z</time></trkpt><trkpt lat="41.4426447642159" lon="13.8692637611987"><ele>41.0</ele><time>2026-03-26T15:50:30.999Z</time></trkpt><trkpt lat="41.44255041459927" lon="13.869658968680865"><ele>41.5</ele><time>2026-03-26T15:50:31.999Z</time></trkpt><trkpt lat="41.44245859854582" lon="13.870055281200592"><ele>42.0</ele><time>2026-03-26T15:50:32.999Z</time></trkpt><trkpt lat="41.44237057366585" lon="13.870451842960293"><ele>43.0</ele><time>2026-03-26T15:50:33.999Z</time></trkpt><trkpt lat="41.4422821716362" lon="13.870848788159082"><ele>44.0</ele><time>2026-03-26T15:50:34.999Z</time></trkpt><trkpt lat="41.44219273766193" lon="13.871245086623869"><ele>46.0</ele><time>2026-03-26T15:50:35.999Z</time></trkpt><trkpt lat="41.44210300315638" lon="13.871642196083178"><ele>48.0</ele><time>2026-03-26T15:50:36.999Z</time></trkpt><trkpt lat="41.442014888491556" lon="13.872038749462515"><ele>49.0</ele><time>2026-03-26T15:50:37.999Z</time></trkpt><trkpt lat="41.4419228475651" lon="13.872435296646334"><ele>50.0</ele><time>2026-03-26T15:50:38.999Z</time></trkpt><trkpt lat="41.441828787992094" lon="13.872831917368725"><ele>50.5</ele><time>2026-03-26T15:50:39.999Z</time></trkpt><trkpt lat="41.441730429118444" lon="13.873227399552938"><ele>51.0</ele><time>2026-03-26T15:50:40.999Z</time></trkpt><trkpt lat="41.441624352038566" lon="13.873619317037395"><ele>52.5</ele><time>2026-03-26T15:50:41.999Z</time></trkpt><trkpt lat="41.44151681229898" lon="13.874012693522529"><ele>54.0</ele><time>2026-03-26T15:50:42.999Z</time></trkpt><trkpt lat="41.441403725304156" lon="13.874401771953393"><ele>56.0</ele><time>2026-03-26T15:50:43.999Z</time></trkpt><trkpt lat="41.44129255122502" lon="13.874790843391082"><ele>58.0</ele><time>2026-03-26T15:50:44.999Z</time></trkpt><trkpt lat="41.44117858069495" lon="13.875178922975683"><ele>59.0</ele><time>2026-03-26T15:50:45.999Z</time></trkpt><trkpt lat="41.44106440770252" lon="13.875568325849594"><ele>60.0</ele><time>2026-03-26T15:50:46.999Z</time></trkpt><trkpt lat="41.44094606189376" lon="13.875956346021505"><ele>61.0</ele><time>2026-03-26T15:50:47.999Z</time></trkpt><trkpt lat="41.4408290442026" lon="13.876344070451296"><ele>62.0</ele><time>2026-03-26T15:50:48.999Z</time></trkpt><trkpt lat="41.44071005738116" lon="13.87673314405104"><ele>61.5</ele><time>2026-03-26T15:50:49.999Z</time></trkpt><trkpt lat="41.44058781739452" lon="13.877120832880685"><ele>61.0</ele><time>2026-03-26T15:50:50.999Z</time></trkpt><trkpt lat="41.44046176367793" lon="13.877505965044902"><ele>61.5</ele><time>2026-03-26T15:50:52Z</time></trkpt><trkpt lat="41.440332019498754" lon="13.877888818580152"><ele>62.0</ele><time>2026-03-26T15:50:53Z</time></trkpt><trkpt lat="41.4402014938172" lon="13.878268558378391"><ele>61.5</ele><time>2026-03-26T15:50:54Z</time></trkpt><trkpt lat="41.44006911379026" lon="13.878647216984495"><ele>61.0</ele><time>2026-03-26T15:50:55Z</time></trkpt><trkpt lat="41.43993285081946" lon="13.879026046023013"><ele>61.0</ele><time>2026-03-26T15:50:56Z</time></trkpt><trkpt lat="41.4397940701134" lon="13.879404097791072"><ele>61.0</ele><time>2026-03-26T15:50:57Z</time></trkpt><trkpt lat="41.439653691418805" lon="13.879781150842955"><ele>62.0</ele><time>2026-03-26T15:50:58Z</time></trkpt><trkpt lat="41.43951281765032" lon="13.880157550396982"><ele>63.0</ele><time>2026-03-26T15:50:59Z</time></trkpt><trkpt lat="41.439372791582365" lon="13.880532370241186"><ele>63.0</ele><time>2026-03-26T15:51:00Z</time></trkpt><trkpt lat="41.439229118968406" lon="13.880902449938457"><ele>63.0</ele><time>2026-03-26T15:51:01Z</time></trkpt><trkpt lat="41.439083716700615" lon="13.881269431151017"><ele>62.0</ele><time>2026-03-26T15:51:02Z</time></trkpt><trkpt lat="41.43893947754202" lon="13.881637138943264"><ele>61.0</ele><time>2026-03-26T15:51:03Z</time></trkpt><trkpt lat="41.438797064182715" lon="13.882005145130922"><ele>63.0</ele><time>2026-03-26T15:51:04Z</time></trkpt><trkpt lat="41.4386546790858" lon="13.882372294740733"><ele>65.0</ele><time>2026-03-26T15:51:05Z</time></trkpt><trkpt lat="41.43851287594365" lon="13.882738726852603"><ele>65.5</ele><time>2026-03-26T15:51:06Z</time></trkpt><trkpt lat="41.43837019517986" lon="13.883106939962408"><ele>66.0</ele><time>2026-03-26T15:51:07Z</time></trkpt><trkpt lat="41.43822422314905" lon="13.88347283395424"><ele>65.0</ele><time>2026-03-26T15:51:08Z</time></trkpt><trkpt lat="41.43808041268794" lon="13.88383796953001"><ele>64.0</ele><time>2026-03-26T15:51:09Z</time></trkpt><trkpt lat="41.437938828413934" lon="13.884204489802801"><ele>66.0</ele><time>2026-03-26T15:51:10Z</time></trkpt><trkpt lat="41.43779446114631" lon="13.884572294165066"><ele>68.0</ele><time>2026-03-26T15:51:11Z</time></trkpt><trkpt lat="41.43765077168474" lon="13.884940058657543"><ele>66.5</ele><time>2026-03-26T15:51:12Z</time></trkpt><trkpt lat="41.4375057932323" lon="13.88530910479363"><ele>65.0</ele><time>2026-03-26T15:51:13Z</time></trkpt><trkpt lat="41.43736369353435" lon="13.885682311607523"><ele>64.5</ele><time>2026-03-26T15:51:14Z</time></trkpt><trkpt lat="41.437218818121615" lon="13.886054789017772"><ele>64.0</ele><time>2026-03-26T15:51:15Z</time></trkpt><trkpt lat="41.437072161282295" lon="13.88642864539912"><ele>66.5</ele><time>2026-03-26T15:51:16Z</time></trkpt><trkpt lat="41.43692536231666" lon="13.886804850316304"><ele>69.0</ele><time>2026-03-26T15:51:17Z</time></trkpt><trkpt lat="41.436775354555515" lon="13.887183251012672"><ele>69.0</ele><time>2026-03-26T15:51:18Z</time></trkpt><trkpt lat="41.43662431730478" lon="13.887566639819552"><ele>69.0</ele><time>2026-03-26T15:51:19Z</time></trkpt><trkpt lat="41.43646960632886" lon="13.887950255176706"><ele>67.0</ele><time>2026-03-26T15:51:20Z</time></trkpt><trkpt lat="41.43632539139412" lon="13.888341500002472"><ele>65.0</ele><time>2026-03-26T15:51:21Z</time></trkpt><trkpt lat="41.43617653803778" lon="13.888732653151386"><ele>64.5</ele><time>2026-03-26T15:51:22Z</time></trkpt><trkpt lat="41.43602519292019" lon="13.889122297554922"><ele>64.0</ele><time>2026-03-26T15:51:23Z</time></trkpt><trkpt lat="41.4358735151978" lon="13.889512056752224"><ele>62.5</ele><time>2026-03-26T15:51:24Z</time></trkpt><trkpt lat="41.43572016683347" lon="13.889904082862614"><ele>61.0</ele><time>2026-03-26T15:51:25Z</time></trkpt><trkpt lat="41.43557175068037" lon="13.890300143512857"><ele>60.5</ele><time>2026-03-26T15:51:26Z</time></trkpt><trkpt lat="41.435421885757336" lon="13.89069618208466"><ele>60.0</ele><time>2026-03-26T15:51:27Z</time></trkpt><trkpt lat="41.435271162175844" lon="13.891092545346174"><ele>59.5</ele><time>2026-03-26T15:51:28Z</time></trkpt><trkpt lat="41.435123714122675" lon="13.891489147302977"><ele>59.0</ele><time>2026-03-26T15:51:29Z</time></trkpt><trkpt lat="41.434980156434705" lon="13.891881729881598"><ele>58.0</ele><time>2026-03-26T15:51:30Z</time></trkpt><trkpt lat="41.43483097593931" lon="13.89226973967648"><ele>57.0</ele><time>2026-03-26T15:51:31Z</time></trkpt><trkpt lat="41.43468793937063" lon="13.892657994878897"><ele>57.0</ele><time>2026-03-26T15:51:32Z</time></trkpt><trkpt lat="41.43453911486769" lon="13.89303954013613"><ele>57.0</ele><time>2026-03-26T15:51:33Z</time></trkpt><trkpt lat="41.43439278083279" lon="13.893418074398774"><ele>56.5</ele><time>2026-03-26T15:51:34Z</time></trkpt><trkpt lat="41.43425096948921" lon="13.893793996271517"><ele>56.0</ele><time>2026-03-26T15:51:35Z</time></trkpt><trkpt lat="41.434104379844456" lon="13.894166208638865"><ele>55.5</ele><time>2026-03-26T15:51:36Z</time></trkpt><trkpt lat="41.43396217321966" lon="13.894538547081483"><ele>55.0</ele><time>2026-03-26T15:51:37Z</time></trkpt><trkpt lat="41.433817317676144" lon="13.894905116553497"><ele>56.0</ele><time>2026-03-26T15:51:38Z</time></trkpt><trkpt lat="41.433671606689884" lon="13.895267737099678"><ele>57.0</ele><time>2026-03-26T15:51:39Z</time></trkpt><trkpt lat="41.43352827718098" lon="13.895631733140736"><ele>56.5</ele><time>2026-03-26T15:51:40Z</time></trkpt><trkpt lat="41.4333895756412" lon="13.89600054517528"><ele>56.0</ele><time>2026-03-26T15:51:41Z</time></trkpt><trkpt lat="41.43324873629616" lon="13.89636497737876"><ele>56.0</ele><time>2026-03-26T15:51:42Z</time></trkpt><trkpt lat="41.433112724282935" lon="13.896731759274768"><ele>56.0</ele><time>2026-03-26T15:51:43Z</time></trkpt><trkpt lat="41.43297197109115" lon="13.897092624904314"><ele>56.0</ele><time>2026-03-26T15:51:44Z</time></trkpt><trkpt lat="41.432834215577934" lon="13.897457313195124"><ele>56.0</ele><time>2026-03-26T15:51:45Z</time></trkpt><trkpt lat="41.43269386939676" lon="13.8978186430665"><ele>56.0</ele><time>2026-03-26T15:51:46Z</time></trkpt><trkpt lat="41.43255320284661" lon="13.89817967969859"><ele>56.0</ele><time>2026-03-26T15:51:46.999Z</time></trkpt><trkpt lat="41.43241077400461" lon="13.898539532001994"><ele>55.5</ele><time>2026-03-26T15:51:47.999Z</time></trkpt><trkpt lat="41.43226936978784" lon="13.898900797979737"><ele>55.0</ele><time>2026-03-26T15:51:48.999Z</time></trkpt><trkpt lat="41.4321273233384" lon="13.899261700701283"><ele>56.0</ele><time>2026-03-26T15:51:49.999Z</time></trkpt><trkpt lat="41.43198697233796" lon="13.899622912980456"><ele>57.0</ele><time>2026-03-26T15:51:50.999Z</time></trkpt><trkpt lat="41.431848484695664" lon="13.899983231772344"><ele>57.0</ele><time>2026-03-26T15:51:51.999Z</time></trkpt><trkpt lat="41.43170847777583" lon="13.90034240427485"><ele>57.0</ele><time>2026-03-26T15:51:52.999Z</time></trkpt><trkpt lat="41.431567199708965" lon="13.900700916262325"><ele>57.0</ele><time>2026-03-26T15:51:53.999Z</time></trkpt><trkpt lat="41.43142628422893" lon="13.901061230622561"><ele>57.0</ele><time>2026-03-26T15:51:54.999Z</time></trkpt><trkpt lat="41.4312850825702" lon="13.901420728415124"><ele>55.0</ele><time>2026-03-26T15:51:55.999Z</time></trkpt><trkpt lat="41.431142589021384" lon="13.901779621333318"><ele>53.0</ele><time>2026-03-26T15:51:56.999Z</time></trkpt><trkpt lat="41.43100214529691" lon="13.902142076501551"><ele>53.0</ele><time>2026-03-26T15:51:57.999Z</time></trkpt><trkpt lat="41.430862307853445" lon="13.902502384205103"><ele>53.0</ele><time>2026-03-26T15:51:58.999Z</time></trkpt><trkpt lat="41.43072160975371" lon="13.90285972773341"><ele>54.0</ele><time>2026-03-26T15:51:59.999Z</time></trkpt><trkpt lat="41.43058435773338" lon="13.9032164782282"><ele>55.0</ele><time>2026-03-26T15:52:00.999Z</time></trkpt><trkpt lat="41.430446671507944" lon="13.903571335467731"><ele>52.5</ele><time>2026-03-26T15:52:01.999Z</time></trkpt><trkpt lat="41.43030903000479" lon="13.90392359743188"><ele>50.0</ele><time>2026-03-26T15:52:02.999Z</time></trkpt><trkpt lat="41.430172772919896" lon="13.90427799644606"><ele>49.5</ele><time>2026-03-26T15:52:03.999Z</time></trkpt><trkpt lat="41.430034771848334" lon="13.904633334598596"><ele>49.0</ele><time>2026-03-26T15:52:04.999Z</time></trkpt><trkpt lat="41.429896140229474" lon="13.90498748061416"><ele>46.5</ele><time>2026-03-26T15:52:05.999Z</time></trkpt><trkpt lat="41.42976047728632" lon="13.905345090964726"><ele>44.0</ele><time>2026-03-26T15:52:06.999Z</time></trkpt><trkpt lat="41.429624956767846" lon="13.90570248049601"><ele>43.0</ele><time>2026-03-26T15:52:07.999Z</time></trkpt><trkpt lat="41.429491422805576" lon="13.90606087320114"><ele>42.0</ele><time>2026-03-26T15:52:08.999Z</time></trkpt><trkpt lat="41.42935998561298" lon="13.906423409759325"><ele>40.0</ele><time>2026-03-26T15:52:09.999Z</time></trkpt><trkpt lat="41.429226294164856" lon="13.906784020849255"><ele>38.0</ele><time>2026-03-26T15:52:10.999Z</time></trkpt><trkpt lat="41.42909049862779" lon="13.907146633240826"><ele>38.0</ele><time>2026-03-26T15:52:11.999Z</time></trkpt><trkpt lat="41.42895258828916" lon="13.907510823483964"><ele>38.0</ele><time>2026-03-26T15:52:12.999Z</time></trkpt><trkpt lat="41.42881060479679" lon="13.907871155250701"><ele>37.5</ele><time>2026-03-26T15:52:13.999Z</time></trkpt><trkpt lat="41.42867061905932" lon="13.908232557068834"><ele>37.0</ele><time>2026-03-26T15:52:14.999Z</time></trkpt><trkpt lat="41.4285324361796" lon="13.90859447992905"><ele>37.0</ele><time>2026-03-26T15:52:15.999Z</time></trkpt><trkpt lat="41.42839399690388" lon="13.908954516678053"><ele>37.0</ele><time>2026-03-26T15:52:16.999Z</time></trkpt><trkpt lat="41.42825666799829" lon="13.909313976298302"><ele>36.5</ele><time>2026-03-26T15:52:17.999Z</time></trkpt><trkpt lat="41.42811835135899" lon="13.909671726545822"><ele>36.0</ele><time>2026-03-26T15:52:18.999Z</time></trkpt><trkpt lat="41.427981375481416" lon="13.910027978938787"><ele>37.0</ele><time>2026-03-26T15:52:19.999Z</time></trkpt><trkpt lat="41.42784268278846" lon="13.910381030245514"><ele>38.0</ele><time>2026-03-26T15:52:20.999Z</time></trkpt><trkpt lat="41.42770240367071" lon="13.91073188971008"><ele>39.5</ele><time>2026-03-26T15:52:21.999Z</time></trkpt><trkpt lat="41.42756390356303" lon="13.911082042735263"><ele>41.0</ele><time>2026-03-26T15:52:22.999Z</time></trkpt><trkpt lat="41.42742990334668" lon="13.911432719762173"><ele>41.5</ele><time>2026-03-26T15:52:23.999Z</time></trkpt><trkpt lat="41.42729967353561" lon="13.911781895924685"><ele>42.0</ele><time>2026-03-26T15:52:24.999Z</time></trkpt><trkpt lat="41.427162249005995" lon="13.912130171118822"><ele>45.5</ele><time>2026-03-26T15:52:25.999Z</time></trkpt><trkpt lat="41.427024800854475" lon="13.912479646623005"><ele>49.0</ele><time>2026-03-26T15:52:26.999Z</time></trkpt><trkpt lat="41.42688568620972" lon="13.912828414456003"><ele>49.0</ele><time>2026-03-26T15:52:27.999Z</time></trkpt><trkpt lat="41.42674752638828" lon="13.913176985621085"><ele>49.0</ele><time>2026-03-26T15:52:28.999Z</time></trkpt><trkpt lat="41.42661121324705" lon="13.913522579540544"><ele>49.5</ele><time>2026-03-26T15:52:29.999Z</time></trkpt><trkpt lat="41.426473040312835" lon="13.91387376381393"><ele>50.0</ele><time>2026-03-26T15:52:30.999Z</time></trkpt><trkpt lat="41.426340216709455" lon="13.91422764496204"><ele>49.5</ele><time>2026-03-26T15:52:31.999Z</time></trkpt><trkpt lat="41.42620406556281" lon="13.914583011601945"><ele>49.0</ele><time>2026-03-26T15:52:32.999Z</time></trkpt><trkpt lat="41.4260640240134" lon="13.914937503752704"><ele>50.0</ele><time>2026-03-26T15:52:33.999Z</time></trkpt><trkpt lat="41.42592250079308" lon="13.91528996737196"><ele>51.0</ele><time>2026-03-26T15:52:34.999Z</time></trkpt><trkpt lat="41.42578526610813" lon="13.915646803560204"><ele>53.0</ele><time>2026-03-26T15:52:35.999Z</time></trkpt><trkpt lat="41.42564671379918" lon="13.91600580261213"><ele>55.0</ele><time>2026-03-26T15:52:36.999Z</time></trkpt><trkpt lat="41.42550708160403" lon="13.91636701929362"><ele>52.5</ele><time>2026-03-26T15:52:37.999Z</time></trkpt><trkpt lat="41.425366639825434" lon="13.916728195567813"><ele>50.0</ele><time>2026-03-26T15:52:38.999Z</time></trkpt><trkpt lat="41.42522615119801" lon="13.917089568799845"><ele>50.0</ele><time>2026-03-26T15:52:39.999Z</time></trkpt><trkpt lat="41.42508403104647" lon="13.917447583363112"><ele>50.0</ele><time>2026-03-26T15:52:40.999Z</time></trkpt><trkpt lat="41.42494150973212" lon="13.917804342783956"><ele>52.5</ele><time>2026-03-26T15:52:41.999Z</time></trkpt><trkpt lat="41.42479616805154" lon="13.918160997967703"><ele>55.0</ele><time>2026-03-26T15:52:42.999Z</time></trkpt><trkpt lat="41.42464953661619" lon="13.918519085509185"><ele>55.0</ele><time>2026-03-26T15:52:43.999Z</time></trkpt><trkpt lat="41.42450299493992" lon="13.918877679124602"><ele>55.0</ele><time>2026-03-26T15:52:44.999Z</time></trkpt><trkpt lat="41.424356310393236" lon="13.919236350046955"><ele>55.0</ele><time>2026-03-26T15:52:45.999Z</time></trkpt><trkpt lat="41.42421044644579" lon="13.919593940501729"><ele>55.0</ele><time>2026-03-26T15:52:46.999Z</time></trkpt><trkpt lat="41.424066968078506" lon="13.91995322723589"><ele>53.5</ele><time>2026-03-26T15:52:47.999Z</time></trkpt><trkpt lat="41.42392741631323" lon="13.920310348715567"><ele>52.0</ele><time>2026-03-26T15:52:48.999Z</time></trkpt><trkpt lat="41.42378561244325" lon="13.92066867463787"><ele>55.0</ele><time>2026-03-26T15:52:49.999Z</time></trkpt><trkpt lat="41.4236442144534" lon="13.921026290161832"><ele>58.0</ele><time>2026-03-26T15:52:50.999Z</time></trkpt><trkpt lat="41.42350569135593" lon="13.92138604165389"><ele>62.5</ele><time>2026-03-26T15:52:51.999Z</time></trkpt><trkpt lat="41.42336520172321" lon="13.921741253618142"><ele>67.0</ele><time>2026-03-26T15:52:52.999Z</time></trkpt><trkpt lat="41.42322647592566" lon="13.92210138983226"><ele>67.0</ele><time>2026-03-26T15:52:53.999Z</time></trkpt><trkpt lat="41.4230891630315" lon="13.92246031386571"><ele>67.0</ele><time>2026-03-26T15:52:54.999Z</time></trkpt><trkpt lat="41.42294800680116" lon="13.922817074642213"><ele>67.5</ele><time>2026-03-26T15:52:55.999Z</time></trkpt><trkpt lat="41.42281094166571" lon="13.923171631163857"><ele>68.0</ele><time>2026-03-26T15:52:56.999Z</time></trkpt><trkpt lat="41.42267148606198" lon="13.923530689487604"><ele>68.0</ele><time>2026-03-26T15:52:58Z</time></trkpt><trkpt lat="41.42253207411756" lon="13.923887411689865"><ele>68.0</ele><time>2026-03-26T15:52:59Z</time></trkpt><trkpt lat="41.422391595105736" lon="13.924243746565672"><ele>65.5</ele><time>2026-03-26T15:53:00Z</time></trkpt><trkpt lat="41.42225254126917" lon="13.924598615840639"><ele>63.0</ele><time>2026-03-26T15:53:01Z</time></trkpt><trkpt lat="41.422116411646954" lon="13.9249568098526"><ele>65.5</ele><time>2026-03-26T15:53:02Z</time></trkpt><trkpt lat="41.421979770462706" lon="13.925315115132054"><ele>68.0</ele><time>2026-03-26T15:53:03Z</time></trkpt><trkpt lat="41.42184182139402" lon="13.925674714804458"><ele>71.5</ele><time>2026-03-26T15:53:04Z</time></trkpt><trkpt lat="41.42170259887734" lon="13.926032090726741"><ele>75.0</ele><time>2026-03-26T15:53:05Z</time></trkpt><trkpt lat="41.4215631584864" lon="13.926391269379014"><ele>79.0</ele><time>2026-03-26T15:53:06Z</time></trkpt><trkpt lat="41.42142264497098" lon="13.926747766473396"><ele>83.0</ele><time>2026-03-26T15:53:07Z</time></trkpt><trkpt lat="41.421282145927236" lon="13.927104877655381"><ele>78.0</ele><time>2026-03-26T15:53:08Z</time></trkpt><trkpt lat="41.421141022495156" lon="13.927461815061308"><ele>73.0</ele><time>2026-03-26T15:53:09Z</time></trkpt><trkpt lat="41.42100169817278" lon="13.92781957409981"><ele>73.0</ele><time>2026-03-26T15:53:10Z</time></trkpt><trkpt lat="41.42086224608893" lon="13.928177644435978"><ele>73.0</ele><time>2026-03-26T15:53:11Z</time></trkpt><trkpt lat="41.420722818377605" lon="13.928536270825866"><ele>75.0</ele><time>2026-03-26T15:53:12Z</time></trkpt><trkpt lat="41.42058257778418" lon="13.928895261031869"><ele>77.0</ele><time>2026-03-26T15:53:13Z</time></trkpt><trkpt lat="41.42044382457216" lon="13.929256035161401"><ele>73.0</ele><time>2026-03-26T15:53:14Z</time></trkpt><trkpt lat="41.42030478859962" lon="13.929616497255116"><ele>69.0</ele><time>2026-03-26T15:53:15Z</time></trkpt><trkpt lat="41.420163755062156" lon="13.929976736885461"><ele>71.5</ele><time>2026-03-26T15:53:16Z</time></trkpt><trkpt lat="41.42002360912288" lon="13.930336190784134"><ele>74.0</ele><time>2026-03-26T15:53:17Z</time></trkpt><trkpt lat="41.41988265863205" lon="13.930695100390778"><ele>72.5</ele><time>2026-03-26T15:53:18Z</time></trkpt><trkpt lat="41.419740804732704" lon="13.931052814787872"><ele>71.0</ele><time>2026-03-26T15:53:19Z</time></trkpt><trkpt lat="41.419600276418436" lon="13.931412897423339"><ele>73.0</ele><time>2026-03-26T15:53:20Z</time></trkpt><trkpt lat="41.41946125215503" lon="13.9317756091019"><ele>75.0</ele><time>2026-03-26T15:53:21Z</time></trkpt><trkpt lat="41.41932220692465" lon="13.93213868795398"><ele>75.0</ele><time>2026-03-26T15:53:22Z</time></trkpt><trkpt lat="41.41918249965375" lon="13.932501219666294"><ele>75.0</ele><time>2026-03-26T15:53:23Z</time></trkpt><trkpt lat="41.41904227131215" lon="13.932863912909157"><ele>76.0</ele><time>2026-03-26T15:53:24Z</time></trkpt><trkpt lat="41.418901607687765" lon="13.93322683981942"><ele>77.0</ele><time>2026-03-26T15:53:25Z</time></trkpt><trkpt lat="41.41875934363856" lon="13.933587783979563"><ele>77.0</ele><time>2026-03-26T15:53:26Z</time></trkpt><trkpt lat="41.41861873716016" lon="13.933948714895568"><ele>77.0</ele><time>2026-03-26T15:53:27Z</time></trkpt><trkpt lat="41.418479983389155" lon="13.934312383024784"><ele>79.5</ele><time>2026-03-26T15:53:28Z</time></trkpt><trkpt lat="41.41833776559787" lon="13.934672870216916"><ele>82.0</ele><time>2026-03-26T15:53:29Z</time></trkpt><trkpt lat="41.41819726627917" lon="13.935036805499731"><ele>80.0</ele><time>2026-03-26T15:53:30Z</time></trkpt><trkpt lat="41.41805558327127" lon="13.935397677863559"><ele>78.0</ele><time>2026-03-26T15:53:31Z</time></trkpt><trkpt lat="41.417914449622444" lon="13.93576033035007"><ele>82.0</ele><time>2026-03-26T15:53:32Z</time></trkpt><trkpt lat="41.41777311622459" lon="13.936121908772465"><ele>86.0</ele><time>2026-03-26T15:53:33Z</time></trkpt><trkpt lat="41.417631121835974" lon="13.936482469646675"><ele>90.5</ele><time>2026-03-26T15:53:34Z</time></trkpt><trkpt lat="41.41748954185214" lon="13.936844393600479"><ele>95.0</ele><time>2026-03-26T15:53:35Z</time></trkpt><trkpt lat="41.41734732549846" lon="13.937208088343152"><ele>98.5</ele><time>2026-03-26T15:53:36Z</time></trkpt><trkpt lat="41.41720434427907" lon="13.93757166597385"><ele>102.0</ele><time>2026-03-26T15:53:37Z</time></trkpt><trkpt lat="41.4170608002858" lon="13.937935396787175"><ele>97.0</ele><time>2026-03-26T15:53:38Z</time></trkpt><trkpt lat="41.416917273060164" lon="13.93829941599536"><ele>92.0</ele><time>2026-03-26T15:53:39Z</time></trkpt><trkpt lat="41.416773231400924" lon="13.938663466495191"><ele>92.0</ele><time>2026-03-26T15:53:40Z</time></trkpt><trkpt lat="41.416629898724956" lon="13.939028686848502"><ele>92.0</ele><time>2026-03-26T15:53:41Z</time></trkpt><trkpt lat="41.416489306029696" lon="13.939392584730715"><ele>93.5</ele><time>2026-03-26T15:53:42Z</time></trkpt><trkpt lat="41.41634726430629" lon="13.93975540255724"><ele>95.0</ele><time>2026-03-26T15:53:43Z</time></trkpt><trkpt lat="41.41620553774666" lon="13.940120380003986"><ele>95.0</ele><time>2026-03-26T15:53:44Z</time></trkpt><trkpt lat="41.416065156716456" lon="13.940487469592991"><ele>95.0</ele><time>2026-03-26T15:53:45Z</time></trkpt><trkpt lat="41.415925008942615" lon="13.940858478449893"><ele>98.0</ele><time>2026-03-26T15:53:46Z</time></trkpt><trkpt lat="41.4157832890422" lon="13.941228619638258"><ele>101.0</ele><time>2026-03-26T15:53:47Z</time></trkpt><trkpt lat="41.4156397601308" lon="13.94159729532115"><ele>103.5</ele><time>2026-03-26T15:53:48Z</time></trkpt><trkpt lat="41.41549476080927" lon="13.94196457683204"><ele>106.0</ele><time>2026-03-26T15:53:48.999Z</time></trkpt><trkpt lat="41.41535064166922" lon="13.942328955245543"><ele>106.5</ele><time>2026-03-26T15:53:49.999Z</time></trkpt><trkpt lat="41.41520867860244" lon="13.942695607566362"><ele>107.0</ele><time>2026-03-26T15:53:50.999Z</time></trkpt><trkpt lat="41.41506581849728" lon="13.943062147396262"><ele>108.5</ele><time>2026-03-26T15:53:51.999Z</time></trkpt><trkpt lat="41.414925820968065" lon="13.943427794111173"><ele>110.0</ele><time>2026-03-26T15:53:52.999Z</time></trkpt><trkpt lat="41.41478520100074" lon="13.943793509899882"><ele>110.0</ele><time>2026-03-26T15:53:53.999Z</time></trkpt><trkpt lat="41.41464444852635" lon="13.9441594724109"><ele>110.0</ele><time>2026-03-26T15:53:54.999Z</time></trkpt><trkpt lat="41.414501810516306" lon="13.944523473569918"><ele>110.0</ele><time>2026-03-26T15:53:55.999Z</time></trkpt><trkpt lat="41.41436025170686" lon="13.944888417345707"><ele>110.0</ele><time>2026-03-26T15:53:56.999Z</time></trkpt><trkpt lat="41.41421891899122" lon="13.945257847287435"><ele>111.0</ele><time>2026-03-26T15:53:57.999Z</time></trkpt><trkpt lat="41.41407730372129" lon="13.945624102877652"><ele>112.0</ele><time>2026-03-26T15:53:58.999Z</time></trkpt><trkpt lat="41.41393496668477" lon="13.94599069085869"><ele>112.5</ele><time>2026-03-26T15:53:59.999Z</time></trkpt><trkpt lat="41.41379226199317" lon="13.946360027982303"><ele>113.0</ele><time>2026-03-26T15:54:00.999Z</time></trkpt><trkpt lat="41.41364802536399" lon="13.946723681852236"><ele>113.0</ele><time>2026-03-26T15:54:01.999Z</time></trkpt><trkpt lat="41.41350733573096" lon="13.947087413668818"><ele>113.0</ele><time>2026-03-26T15:54:02.999Z</time></trkpt><trkpt lat="41.4133645506845" lon="13.947452907551154"><ele>113.0</ele><time>2026-03-26T15:54:03.999Z</time></trkpt><trkpt lat="41.41322429977957" lon="13.94781712274325"><ele>113.0</ele><time>2026-03-26T15:54:04.999Z</time></trkpt><trkpt lat="41.41308323201122" lon="13.948180691542904"><ele>115.5</ele><time>2026-03-26T15:54:05.999Z</time></trkpt><trkpt lat="41.41293980085912" lon="13.948542838363847"><ele>118.0</ele><time>2026-03-26T15:54:06.999Z</time></trkpt><trkpt lat="41.41279923001528" lon="13.948907908517578"><ele>118.0</ele><time>2026-03-26T15:54:07.999Z</time></trkpt><trkpt lat="41.41265544511715" lon="13.94927483005143"><ele>118.0</ele><time>2026-03-26T15:54:08.999Z</time></trkpt><trkpt lat="41.412510917076794" lon="13.949640589371445"><ele>118.0</ele><time>2026-03-26T15:54:09.999Z</time></trkpt><trkpt lat="41.412368028712464" lon="13.95000902478791"><ele>118.0</ele><time>2026-03-26T15:54:10.999Z</time></trkpt><trkpt lat="41.4122278126175" lon="13.950380061944909"><ele>120.0</ele><time>2026-03-26T15:54:11.999Z</time></trkpt><trkpt lat="41.41208417961703" lon="13.950753819878166"><ele>122.0</ele><time>2026-03-26T15:54:12.999Z</time></trkpt><trkpt lat="41.41194503898423" lon="13.951129471435756"><ele>123.0</ele><time>2026-03-26T15:54:13.999Z</time></trkpt><trkpt lat="41.41180214448903" lon="13.951499959895083"><ele>124.0</ele><time>2026-03-26T15:54:14.999Z</time></trkpt><trkpt lat="41.41166122908265" lon="13.95186669483283"><ele>124.5</ele><time>2026-03-26T15:54:15.999Z</time></trkpt><trkpt lat="41.4115210133959" lon="13.952229544652688"><ele>125.0</ele><time>2026-03-26T15:54:16.999Z</time></trkpt><trkpt lat="41.41138142211302" lon="13.95258834353046"><ele>126.5</ele><time>2026-03-26T15:54:17.999Z</time></trkpt><trkpt lat="41.41124228638468" lon="13.952944423879725"><ele>128.0</ele><time>2026-03-26T15:54:18.999Z</time></trkpt><trkpt lat="41.41110424458738" lon="13.953296892163745"><ele>128.5</ele><time>2026-03-26T15:54:19.999Z</time></trkpt><trkpt lat="41.41096870094919" lon="13.953647480832506"><ele>129.0</ele><time>2026-03-26T15:54:20.999Z</time></trkpt><trkpt lat="41.41083241754592" lon="13.953994148743163"><ele>130.0</ele><time>2026-03-26T15:54:21.999Z</time></trkpt><trkpt lat="41.4107002105732" lon="13.95434020685967"><ele>131.0</ele><time>2026-03-26T15:54:22.999Z</time></trkpt><trkpt lat="41.41056475948547" lon="13.954686421788828"><ele>135.5</ele><time>2026-03-26T15:54:23.999Z</time></trkpt><trkpt lat="41.41042998586814" lon="13.955034218125851"><ele>140.0</ele><time>2026-03-26T15:54:24.999Z</time></trkpt><trkpt lat="41.4102944873625" lon="13.955384235618705"><ele>140.0</ele><time>2026-03-26T15:54:25.999Z</time></trkpt><trkpt lat="41.41015903302044" lon="13.955730993662135"><ele>140.0</ele><time>2026-03-26T15:54:26.999Z</time></trkpt><trkpt lat="41.41002431936335" lon="13.956079280725227"><ele>140.0</ele><time>2026-03-26T15:54:27.999Z</time></trkpt><trkpt lat="41.40988901466987" lon="13.95642799608064"><ele>140.0</ele><time>2026-03-26T15:54:28.999Z</time></trkpt><trkpt lat="41.409752741588996" lon="13.956780509629994"><ele>143.5</ele><time>2026-03-26T15:54:29.999Z</time></trkpt><trkpt lat="41.40961709703712" lon="13.95713533683393"><ele>147.0</ele><time>2026-03-26T15:54:30.999Z</time></trkpt><trkpt lat="41.409480143399215" lon="13.957492509733608"><ele>145.5</ele><time>2026-03-26T15:54:31.999Z</time></trkpt><trkpt lat="41.40934255519259" lon="13.957848671785463"><ele>144.0</ele><time>2026-03-26T15:54:32.999Z</time></trkpt><trkpt lat="41.409203161098084" lon="13.958208222982769"><ele>142.5</ele><time>2026-03-26T15:54:33.999Z</time></trkpt><trkpt lat="41.40906017783226" lon="13.958568593018807"><ele>141.0</ele><time>2026-03-26T15:54:34.999Z</time></trkpt><trkpt lat="41.40891631494073" lon="13.958932646651924"><ele>139.5</ele><time>2026-03-26T15:54:35.999Z</time></trkpt><trkpt lat="41.408771176443864" lon="13.959298755141122"><ele>138.0</ele><time>2026-03-26T15:54:36.999Z</time></trkpt><trkpt lat="41.40863044940995" lon="13.959669769345975"><ele>137.0</ele><time>2026-03-26T15:54:37.999Z</time></trkpt><trkpt lat="41.40848353556267" lon="13.960041632046334"><ele>136.0</ele><time>2026-03-26T15:54:38.999Z</time></trkpt><trkpt lat="41.40834007000397" lon="13.960416589379218"><ele>136.0</ele><time>2026-03-26T15:54:39.999Z</time></trkpt><trkpt lat="41.408192742514544" lon="13.960786660353225"><ele>136.0</ele><time>2026-03-26T15:54:40.999Z</time></trkpt><trkpt lat="41.40805038947731" lon="13.96116220323376"><ele>135.5</ele><time>2026-03-26T15:54:41.999Z</time></trkpt><trkpt lat="41.407902520100194" lon="13.96153418556989"><ele>135.0</ele><time>2026-03-26T15:54:42.999Z</time></trkpt><trkpt lat="41.4077576448042" lon="13.96190704752873"><ele>135.0</ele><time>2026-03-26T15:54:43.999Z</time></trkpt><trkpt lat="41.40761495581318" lon="13.962276731871022"><ele>135.0</ele><time>2026-03-26T15:54:44.999Z</time></trkpt><trkpt lat="41.40746759519005" lon="13.96264276554738"><ele>133.5</ele><time>2026-03-26T15:54:45.999Z</time></trkpt><trkpt lat="41.40732311042199" lon="13.963009022583506"><ele>132.0</ele><time>2026-03-26T15:54:46.999Z</time></trkpt><trkpt lat="41.4071810509523" lon="13.963377890727156"><ele>130.0</ele><time>2026-03-26T15:54:47.999Z</time></trkpt><trkpt lat="41.40703599939587" lon="13.963744876959318"><ele>128.0</ele><time>2026-03-26T15:54:48.999Z</time></trkpt><trkpt lat="41.40689356405216" lon="13.964112850844622"><ele>128.0</ele><time>2026-03-26T15:54:49.999Z</time></trkpt><trkpt lat="41.40675125439725" lon="13.964479760643208"><ele>128.0</ele><time>2026-03-26T15:54:50.999Z</time></trkpt><trkpt lat="41.40660840235396" lon="13.964847471452215"><ele>127.5</ele><time>2026-03-26T15:54:51.999Z</time></trkpt><trkpt lat="41.40646269034866" lon="13.965213128609046"><ele>127.0</ele><time>2026-03-26T15:54:52.999Z</time></trkpt><trkpt lat="41.40631530973629" lon="13.965575680830062"><ele>128.0</ele><time>2026-03-26T15:54:53.999Z</time></trkpt><trkpt lat="41.40616711982843" lon="13.965935211433894"><ele>129.0</ele><time>2026-03-26T15:54:54.999Z</time></trkpt><trkpt lat="41.40602079618236" lon="13.966294838362668"><ele>129.0</ele><time>2026-03-26T15:54:55.999Z</time></trkpt><trkpt lat="41.40587308413151" lon="13.96665276860488"><ele>129.0</ele><time>2026-03-26T15:54:56.999Z</time></trkpt><trkpt lat="41.40572624595435" lon="13.967010684307885"><ele>128.5</ele><time>2026-03-26T15:54:57.999Z</time></trkpt><trkpt lat="41.40558107358302" lon="13.967370180352091"><ele>128.0</ele><time>2026-03-26T15:54:58.999Z</time></trkpt><trkpt lat="41.405440204017985" lon="13.967731962260636"><ele>130.0</ele><time>2026-03-26T15:54:59.999Z</time></trkpt><trkpt lat="41.40529755304612" lon="13.968094149314664"><ele>132.0</ele><time>2026-03-26T15:55:00.999Z</time></trkpt><trkpt lat="41.405154679711046" lon="13.968458201419898"><ele>132.0</ele><time>2026-03-26T15:55:01.999Z</time></trkpt><trkpt lat="41.40501138480387" lon="13.968824354347701"><ele>132.0</ele><time>2026-03-26T15:55:02.999Z</time></trkpt><trkpt lat="41.40486691799622" lon="13.969190737659753"><ele>131.5</ele><time>2026-03-26T15:55:04Z</time></trkpt><trkpt lat="41.40472208134015" lon="13.969557062828443"><ele>131.0</ele><time>2026-03-26T15:55:05Z</time></trkpt><trkpt lat="41.40457780509771" lon="13.96992654171337"><ele>132.0</ele><time>2026-03-26T15:55:06Z</time></trkpt><trkpt lat="41.40443293474727" lon="13.970296699967863"><ele>133.0</ele><time>2026-03-26T15:55:07Z</time></trkpt><trkpt lat="41.40428718871405" lon="13.970668727573322"><ele>131.0</ele><time>2026-03-26T15:55:08Z</time></trkpt><trkpt lat="41.40413739935119" lon="13.971041694470223"><ele>129.0</ele><time>2026-03-26T15:55:09Z</time></trkpt><trkpt lat="41.40398735357921" lon="13.971413029346804"><ele>129.0</ele><time>2026-03-26T15:55:10Z</time></trkpt><trkpt lat="41.40383491419416" lon="13.97178460005644"><ele>129.0</ele><time>2026-03-26T15:55:11Z</time></trkpt><trkpt lat="41.40367679416858" lon="13.97215512932349"><ele>129.0</ele><time>2026-03-26T15:55:12Z</time></trkpt><trkpt lat="41.40351620095664" lon="13.972524915723586"><ele>129.0</ele><time>2026-03-26T15:55:13Z</time></trkpt><trkpt lat="41.40334726579302" lon="13.972885407236037"><ele>129.0</ele><time>2026-03-26T15:55:14Z</time></trkpt><trkpt lat="41.403174440083106" lon="13.97324554929648"><ele>129.0</ele><time>2026-03-26T15:55:15Z</time></trkpt><trkpt lat="41.40299630631602" lon="13.973599003240686"><ele>129.0</ele><time>2026-03-26T15:55:16Z</time></trkpt><trkpt lat="41.40281665551649" lon="13.973947360383876"><ele>129.0</ele><time>2026-03-26T15:55:17Z</time></trkpt><trkpt lat="41.402633069191246" lon="13.974287290400746"><ele>130.0</ele><time>2026-03-26T15:55:18Z</time></trkpt><trkpt lat="41.40244928111046" lon="13.974613728554747"><ele>131.0</ele><time>2026-03-26T15:55:19Z</time></trkpt><trkpt lat="41.40226622963762" lon="13.974924365861419"><ele>129.5</ele><time>2026-03-26T15:55:20Z</time></trkpt><trkpt lat="41.402078410818866" lon="13.97523129818041"><ele>128.0</ele><time>2026-03-26T15:55:21Z</time></trkpt><trkpt lat="41.401887325534815" lon="13.97553533445574"><ele>128.0</ele><time>2026-03-26T15:55:22Z</time></trkpt><trkpt lat="41.40169156537559" lon="13.975836949726943"><ele>128.0</ele><time>2026-03-26T15:55:23Z</time></trkpt><trkpt lat="41.40149306806355" lon="13.976131313646682"><ele>128.5</ele><time>2026-03-26T15:55:24Z</time></trkpt><trkpt lat="41.40129132374176" lon="13.976417638281362"><ele>129.0</ele><time>2026-03-26T15:55:25Z</time></trkpt><trkpt lat="41.401086482527184" lon="13.976699403619328"><ele>127.5</ele><time>2026-03-26T15:55:26Z</time></trkpt><trkpt lat="41.40088062123444" lon="13.97698178504791"><ele>126.0</ele><time>2026-03-26T15:55:27Z</time></trkpt><trkpt lat="41.400669769624585" lon="13.977263954657209"><ele>126.5</ele><time>2026-03-26T15:55:28Z</time></trkpt><trkpt lat="41.400458389169046" lon="13.977543616507106"><ele>127.0</ele><time>2026-03-26T15:55:29Z</time></trkpt><trkpt lat="41.400243251391714" lon="13.977830236078537"><ele>127.0</ele><time>2026-03-26T15:55:30Z</time></trkpt><trkpt lat="41.40003057326143" lon="13.97811702671013"><ele>127.0</ele><time>2026-03-26T15:55:31Z</time></trkpt><trkpt lat="41.39981635982934" lon="13.978406859462835"><ele>128.0</ele><time>2026-03-26T15:55:32Z</time></trkpt><trkpt lat="41.39960060521159" lon="13.978696040512489"><ele>129.0</ele><time>2026-03-26T15:55:33Z</time></trkpt><trkpt lat="41.39938350614096" lon="13.97898378964282"><ele>127.5</ele><time>2026-03-26T15:55:34Z</time></trkpt><trkpt lat="41.399164689933585" lon="13.979273483296076"><ele>126.0</ele><time>2026-03-26T15:55:35Z</time></trkpt><trkpt lat="41.398946193151254" lon="13.979566647037263"><ele>127.5</ele><time>2026-03-26T15:55:36Z</time></trkpt><trkpt lat="41.398726459216505" lon="13.97986505830582"><ele>129.0</ele><time>2026-03-26T15:55:37Z</time></trkpt><trkpt lat="41.39851151763721" lon="13.980156356874646"><ele>130.5</ele><time>2026-03-26T15:55:38Z</time></trkpt><trkpt lat="41.39829543495359" lon="13.980448056885773"><ele>132.0</ele><time>2026-03-26T15:55:39Z</time></trkpt><trkpt lat="41.398080146487914" lon="13.980737347368159"><ele>136.0</ele><time>2026-03-26T15:55:40Z</time></trkpt><trkpt lat="41.39786293905943" lon="13.981029139056085"><ele>140.0</ele><time>2026-03-26T15:55:41Z</time></trkpt><trkpt lat="41.39764436102246" lon="13.981316050501935"><ele>140.0</ele><time>2026-03-26T15:55:42Z</time></trkpt><trkpt lat="41.397426950877865" lon="13.981602714646277"><ele>140.0</ele><time>2026-03-26T15:55:43Z</time></trkpt><trkpt lat="41.39721141901596" lon="13.981890356306513"><ele>142.5</ele><time>2026-03-26T15:55:44Z</time></trkpt><trkpt lat="41.39699768958023" lon="13.982178929207072"><ele>145.0</ele><time>2026-03-26T15:55:45Z</time></trkpt><trkpt lat="41.39678644238543" lon="13.982465796751153"><ele>146.5</ele><time>2026-03-26T15:55:46Z</time></trkpt><trkpt lat="41.39657541056908" lon="13.982750805596437"><ele>148.0</ele><time>2026-03-26T15:55:47Z</time></trkpt><trkpt lat="41.39636458868853" lon="13.983034183676446"><ele>148.5</ele><time>2026-03-26T15:55:48Z</time></trkpt><trkpt lat="41.396154920663314" lon="13.983314724487226"><ele>149.0</ele><time>2026-03-26T15:55:49Z</time></trkpt><trkpt lat="41.39594621715544" lon="13.983596416722584"><ele>151.0</ele><time>2026-03-26T15:55:50Z</time></trkpt><trkpt lat="41.39573792758728" lon="13.983875232606005"><ele>153.0</ele><time>2026-03-26T15:55:51Z</time></trkpt><trkpt lat="41.39552873305428" lon="13.984154109110154"><ele>156.0</ele><time>2026-03-26T15:55:52Z</time></trkpt><trkpt lat="41.395319629088746" lon="13.984429011837564"><ele>159.0</ele><time>2026-03-26T15:55:53Z</time></trkpt><trkpt lat="41.39510600641663" lon="13.98470490953925"><ele>159.0</ele><time>2026-03-26T15:55:54Z</time></trkpt><trkpt lat="41.394889771951284" lon="13.984980791250166"><ele>159.0</ele><time>2026-03-26T15:55:55Z</time></trkpt><trkpt lat="41.39467516531093" lon="13.985258117528206"><ele>162.0</ele><time>2026-03-26T15:55:55.999Z</time></trkpt><trkpt lat="41.39446285238489" lon="13.985537964239"><ele>165.0</ele><time>2026-03-26T15:55:56.999Z</time></trkpt><trkpt lat="41.39425097953911" lon="13.985818984376593"><ele>165.5</ele><time>2026-03-26T15:55:57.999Z</time></trkpt><trkpt lat="41.394039267418464" lon="13.98610063209782"><ele>166.0</ele><time>2026-03-26T15:55:58.999Z</time></trkpt><trkpt lat="41.39382761932569" lon="13.986382116412255"><ele>166.0</ele><time>2026-03-26T15:55:59.999Z</time></trkpt><trkpt lat="41.393615700738756" lon="13.98666392378039"><ele>166.0</ele><time>2026-03-26T15:56:00.999Z</time></trkpt><trkpt lat="41.39340333852347" lon="13.986947257889854"><ele>165.0</ele><time>2026-03-26T15:56:01.999Z</time></trkpt><trkpt lat="41.393191282919325" lon="13.987230423736964"><ele>164.0</ele><time>2026-03-26T15:56:02.999Z</time></trkpt><trkpt lat="41.39298055782694" lon="13.987514138786075"><ele>164.0</ele><time>2026-03-26T15:56:03.999Z</time></trkpt><trkpt lat="41.392768456084944" lon="13.987796269669058"><ele>164.0</ele><time>2026-03-26T15:56:04.999Z</time></trkpt><trkpt lat="41.39255530533779" lon="13.988077214186262"><ele>163.0</ele><time>2026-03-26T15:56:05.999Z</time></trkpt><trkpt lat="41.39234313708871" lon="13.988358655303761"><ele>162.0</ele><time>2026-03-26T15:56:06.999Z</time></trkpt><trkpt lat="41.39213005948517" lon="13.988641241206954"><ele>163.5</ele><time>2026-03-26T15:56:07.999Z</time></trkpt><trkpt lat="41.39191802353657" lon="13.98892294587385"><ele>165.0</ele><time>2026-03-26T15:56:08.999Z</time></trkpt><trkpt lat="41.39170823952589" lon="13.989206614532055"><ele>165.0</ele><time>2026-03-26T15:56:09.999Z</time></trkpt><trkpt lat="41.39149892248596" lon="13.989487724538735"><ele>165.0</ele><time>2026-03-26T15:56:10.999Z</time></trkpt><trkpt lat="41.39129043903792" lon="13.9897677442057"><ele>168.0</ele><time>2026-03-26T15:56:11.999Z</time></trkpt><trkpt lat="41.39108159232816" lon="13.990045372107941"><ele>171.0</ele><time>2026-03-26T15:56:12.999Z</time></trkpt><trkpt lat="41.39087483445267" lon="13.990325531466029"><ele>171.0</ele><time>2026-03-26T15:56:13.999Z</time></trkpt><trkpt lat="41.390666699098645" lon="13.990606462880583"><ele>171.0</ele><time>2026-03-26T15:56:14.999Z</time></trkpt><trkpt lat="41.39045858023665" lon="13.990886229253114"><ele>174.5</ele><time>2026-03-26T15:56:15.999Z</time></trkpt><trkpt lat="41.390250303462494" lon="13.991166793860595"><ele>178.0</ele><time>2026-03-26T15:56:16.999Z</time></trkpt><trkpt lat="41.39004077645334" lon="13.99144827511698"><ele>182.0</ele><time>2026-03-26T15:56:17.999Z</time></trkpt><trkpt lat="41.38983116382327" lon="13.991729646390935"><ele>186.0</ele><time>2026-03-26T15:56:18.999Z</time></trkpt><trkpt lat="41.38962054304105" lon="13.992012287929809"><ele>186.0</ele><time>2026-03-26T15:56:19.999Z</time></trkpt><trkpt lat="41.38941032039051" lon="13.992299062536121"><ele>186.0</ele><time>2026-03-26T15:56:20.999Z</time></trkpt><trkpt lat="41.3891989305719" lon="13.992589601762095"><ele>188.0</ele><time>2026-03-26T15:56:21.999Z</time></trkpt><trkpt lat="41.388987609031254" lon="13.992883287043309"><ele>190.0</ele><time>2026-03-26T15:56:22.999Z</time></trkpt><trkpt lat="41.38877659620001" lon="13.9931792585359"><ele>189.0</ele><time>2026-03-26T15:56:23.999Z</time></trkpt><trkpt lat="41.38856448563787" lon="13.993474781107272"><ele>188.0</ele><time>2026-03-26T15:56:24.999Z</time></trkpt><trkpt lat="41.388350116907375" lon="13.993769657928867"><ele>188.0</ele><time>2026-03-26T15:56:25.999Z</time></trkpt><trkpt lat="41.38813440438215" lon="13.994064908884503"><ele>188.0</ele><time>2026-03-26T15:56:26.999Z</time></trkpt><trkpt lat="41.387916229864786" lon="13.994357972942957"><ele>189.0</ele><time>2026-03-26T15:56:27.999Z</time></trkpt><trkpt lat="41.38769674790494" lon="13.994651507247744"><ele>190.0</ele><time>2026-03-26T15:56:28.999Z</time></trkpt><trkpt lat="41.38747964999861" lon="13.994943547227493"><ele>188.5</ele><time>2026-03-26T15:56:29.999Z</time></trkpt><trkpt lat="41.387259152404624" lon="13.995232157109463"><ele>187.0</ele><time>2026-03-26T15:56:30.999Z</time></trkpt><trkpt lat="41.387037143949904" lon="13.995518901875581"><ele>192.0</ele><time>2026-03-26T15:56:31.999Z</time></trkpt><trkpt lat="41.38681400096881" lon="13.995804871922704"><ele>197.0</ele><time>2026-03-26T15:56:32.999Z</time></trkpt><trkpt lat="41.386592136307634" lon="13.996093785963616"><ele>197.0</ele><time>2026-03-26T15:56:33.999Z</time></trkpt><trkpt lat="41.38637111966656" lon="13.99638359848342"><ele>197.0</ele><time>2026-03-26T15:56:34.999Z</time></trkpt><trkpt lat="41.3861501724368" lon="13.996674475667346"><ele>199.0</ele><time>2026-03-26T15:56:35.999Z</time></trkpt><trkpt lat="41.38592800448268" lon="13.996966125566924"><ele>201.0</ele><time>2026-03-26T15:56:36.999Z</time></trkpt><trkpt lat="41.385707482454286" lon="13.99726087127443"><ele>203.0</ele><time>2026-03-26T15:56:37.999Z</time></trkpt><trkpt lat="41.3854872195392" lon="13.997554913930953"><ele>205.0</ele><time>2026-03-26T15:56:38.999Z</time></trkpt><trkpt lat="41.38526736908663" lon="13.997848123183202"><ele>205.0</ele><time>2026-03-26T15:56:39.999Z</time></trkpt><trkpt lat="41.385047276579485" lon="13.998142975681596"><ele>205.0</ele><time>2026-03-26T15:56:40.999Z</time></trkpt><trkpt lat="41.384827565209974" lon="13.998436949974513"><ele>205.5</ele><time>2026-03-26T15:56:41.999Z</time></trkpt><trkpt lat="41.38460631784667" lon="13.998727897867479"><ele>206.0</ele><time>2026-03-26T15:56:42.999Z</time></trkpt><trkpt lat="41.38438573608486" lon="13.999023734493676"><ele>205.0</ele><time>2026-03-26T15:56:43.999Z</time></trkpt><trkpt lat="41.3841653945403" lon="13.999320436601717"><ele>204.0</ele><time>2026-03-26T15:56:44.999Z</time></trkpt><trkpt lat="41.383945723057245" lon="13.999619338537618"><ele>206.5</ele><time>2026-03-26T15:56:45.999Z</time></trkpt><trkpt lat="41.3837221917162" lon="13.999919089510987"><ele>209.0</ele><time>2026-03-26T15:56:46.999Z</time></trkpt><trkpt lat="41.383499494485925" lon="14.000217576331904"><ele>209.0</ele><time>2026-03-26T15:56:47.999Z</time></trkpt><trkpt lat="41.38327589388119" lon="14.000518711385732"><ele>209.0</ele><time>2026-03-26T15:56:48.999Z</time></trkpt><trkpt lat="41.38305104120493" lon="14.000821132815043"><ele>210.5</ele><time>2026-03-26T15:56:49.999Z</time></trkpt><trkpt lat="41.38282528071637" lon="14.00112511439283"><ele>212.0</ele><time>2026-03-26T15:56:50.999Z</time></trkpt><trkpt lat="41.382596764560745" lon="14.001428691456585"><ele>212.5</ele><time>2026-03-26T15:56:51.999Z</time></trkpt><trkpt lat="41.38236847507954" lon="14.001733800958952"><ele>213.0</ele><time>2026-03-26T15:56:52.999Z</time></trkpt><trkpt lat="41.38214100011754" lon="14.002042508625818"><ele>215.5</ele><time>2026-03-26T15:56:53.999Z</time></trkpt><trkpt lat="41.381912845382054" lon="14.002352903512705"><ele>218.0</ele><time>2026-03-26T15:56:54.999Z</time></trkpt><trkpt lat="41.38168147312484" lon="14.002661810074438"><ele>218.0</ele><time>2026-03-26T15:56:55.999Z</time></trkpt><trkpt lat="41.38145023864087" lon="14.002973002426886"><ele>218.0</ele><time>2026-03-26T15:56:56.999Z</time></trkpt><trkpt lat="41.38121705427984" lon="14.003284185999988"><ele>220.5</ele><time>2026-03-26T15:56:57.999Z</time></trkpt><trkpt lat="41.38098482036971" lon="14.003596192014426"><ele>223.0</ele><time>2026-03-26T15:56:58.999Z</time></trkpt><trkpt lat="41.380752139385734" lon="14.003907847128467"><ele>223.0</ele><time>2026-03-26T15:56:59.999Z</time></trkpt><trkpt lat="41.38051987308922" lon="14.004221949934374"><ele>223.0</ele><time>2026-03-26T15:57:00.999Z</time></trkpt><trkpt lat="41.38028568045357" lon="14.004532807194732"><ele>224.5</ele><time>2026-03-26T15:57:01.999Z</time></trkpt><trkpt lat="41.38005309689451" lon="14.00484116644112"><ele>226.0</ele><time>2026-03-26T15:57:02.999Z</time></trkpt><trkpt lat="41.37982115299813" lon="14.005150345062464"><ele>230.5</ele><time>2026-03-26T15:57:03.999Z</time></trkpt><trkpt lat="41.37959122353649" lon="14.005457240084043"><ele>235.0</ele><time>2026-03-26T15:57:04.999Z</time></trkpt><trkpt lat="41.37936291529133" lon="14.005764046897536"><ele>235.0</ele><time>2026-03-26T15:57:05.999Z</time></trkpt><trkpt lat="41.37913924383026" lon="14.00607206253864"><ele>235.0</ele><time>2026-03-26T15:57:06.999Z</time></trkpt><trkpt lat="41.37891697279442" lon="14.00638309504293"><ele>236.5</ele><time>2026-03-26T15:57:07.999Z</time></trkpt><trkpt lat="41.37869559969222" lon="14.006692578189611"><ele>238.0</ele><time>2026-03-26T15:57:08.999Z</time></trkpt><trkpt lat="41.3784709682401" lon="14.006998330828415"><ele>238.0</ele><time>2026-03-26T15:57:10Z</time></trkpt><trkpt lat="41.378246087525206" lon="14.007304960297848"><ele>238.0</ele><time>2026-03-26T15:57:11Z</time></trkpt><trkpt lat="41.378021215284505" lon="14.007608783351976"><ele>240.5</ele><time>2026-03-26T15:57:12Z</time></trkpt><trkpt lat="41.377795360668465" lon="14.007911210582856"><ele>243.0</ele><time>2026-03-26T15:57:13Z</time></trkpt><trkpt lat="41.37757092272527" lon="14.008215326237757"><ele>241.5</ele><time>2026-03-26T15:57:14Z</time></trkpt><trkpt lat="41.37734623893774" lon="14.008518566487606"><ele>240.0</ele><time>2026-03-26T15:57:15Z</time></trkpt><trkpt lat="41.3771180275102" lon="14.008818753120268"><ele>240.0</ele><time>2026-03-26T15:57:16Z</time></trkpt><trkpt lat="41.37689067847369" lon="14.009122639146163"><ele>240.0</ele><time>2026-03-26T15:57:17Z</time></trkpt><trkpt lat="41.37666329075721" lon="14.009428315978978"><ele>235.5</ele><time>2026-03-26T15:57:18Z</time></trkpt><trkpt lat="41.376431659317475" lon="14.009730787330993"><ele>231.0</ele><time>2026-03-26T15:57:19Z</time></trkpt><trkpt lat="41.37620432952837" lon="14.010039878754425"><ele>227.0</ele><time>2026-03-26T15:57:20Z</time></trkpt><trkpt lat="41.375974904182655" lon="14.010344000764656"><ele>223.0</ele><time>2026-03-26T15:57:21Z</time></trkpt><trkpt lat="41.37574778885856" lon="14.010652745001067"><ele>222.0</ele><time>2026-03-26T15:57:22Z</time></trkpt><trkpt lat="41.375519727459924" lon="14.010960090174237"><ele>221.0</ele><time>2026-03-26T15:57:23Z</time></trkpt><trkpt lat="41.37529217038236" lon="14.0112672786406"><ele>221.0</ele><time>2026-03-26T15:57:24Z</time></trkpt><trkpt lat="41.37506063617227" lon="14.011571829567197"><ele>221.0</ele><time>2026-03-26T15:57:25Z</time></trkpt><trkpt lat="41.374835327944616" lon="14.011882516674403"><ele>226.5</ele><time>2026-03-26T15:57:26Z</time></trkpt><trkpt lat="41.37460487110918" lon="14.01218600849657"><ele>232.0</ele><time>2026-03-26T15:57:27Z</time></trkpt><trkpt lat="41.3743782527575" lon="14.012492940713631"><ele>233.0</ele><time>2026-03-26T15:57:28Z</time></trkpt><trkpt lat="41.37414948982791" lon="14.012793169429974"><ele>234.0</ele><time>2026-03-26T15:57:29Z</time></trkpt><trkpt lat="41.37392456478427" lon="14.013099357883013"><ele>236.0</ele><time>2026-03-26T15:57:30Z</time></trkpt><trkpt lat="41.37369720606139" lon="14.013405186456342"><ele>238.0</ele><time>2026-03-26T15:57:31Z</time></trkpt><trkpt lat="41.373471014495955" lon="14.01371226291345"><ele>238.0</ele><time>2026-03-26T15:57:32Z</time></trkpt><trkpt lat="41.3732421922305" lon="14.014018557148445"><ele>238.0</ele><time>2026-03-26T15:57:33Z</time></trkpt><trkpt lat="41.37301132512229" lon="14.014322630127923"><ele>240.0</ele><time>2026-03-26T15:57:34Z</time></trkpt><trkpt lat="41.37277713747848" lon="14.01462250927186"><ele>242.0</ele><time>2026-03-26T15:57:35Z</time></trkpt><trkpt lat="41.37254764683146" lon="14.014933870156009"><ele>238.0</ele><time>2026-03-26T15:57:36Z</time></trkpt><trkpt lat="41.372315991767444" lon="14.01524671052172"><ele>234.0</ele><time>2026-03-26T15:57:37Z</time></trkpt><trkpt lat="41.37208458242548" lon="14.01556105755528"><ele>232.5</ele><time>2026-03-26T15:57:38Z</time></trkpt><trkpt lat="41.37185120542521" lon="14.01587697525528"><ele>231.0</ele><time>2026-03-26T15:57:39Z</time></trkpt><trkpt lat="41.371613533307546" lon="14.016190324757746"><ele>231.0</ele><time>2026-03-26T15:57:40Z</time></trkpt><trkpt lat="41.37138116420545" lon="14.016512373291576"><ele>231.0</ele><time>2026-03-26T15:57:41Z</time></trkpt><trkpt lat="41.3711458905001" lon="14.016830378730205"><ele>230.0</ele><time>2026-03-26T15:57:42Z</time></trkpt><trkpt lat="41.370908430794685" lon="14.017146711167259"><ele>229.0</ele><time>2026-03-26T15:57:43Z</time></trkpt><trkpt lat="41.3706703284513" lon="14.017465205032101"><ele>229.5</ele><time>2026-03-26T15:57:44Z</time></trkpt><trkpt lat="41.37043267390117" lon="14.017784452645506"><ele>230.0</ele><time>2026-03-26T15:57:45Z</time></trkpt><trkpt lat="41.37019823960093" lon="14.018102028308629"><ele>226.5</ele><time>2026-03-26T15:57:46Z</time></trkpt><trkpt lat="41.369965306277926" lon="14.018417841074147"><ele>223.0</ele><time>2026-03-26T15:57:47Z</time></trkpt><trkpt lat="41.369730930326774" lon="14.018731540806163"><ele>222.0</ele><time>2026-03-26T15:57:48Z</time></trkpt><trkpt lat="41.3695000182412" lon="14.019043581108168"><ele>221.0</ele><time>2026-03-26T15:57:49Z</time></trkpt><trkpt lat="41.369271042008414" lon="14.019353157144772"><ele>218.5</ele><time>2026-03-26T15:57:50Z</time></trkpt><trkpt lat="41.36904257866129" lon="14.019661892568086"><ele>216.0</ele><time>2026-03-26T15:57:51Z</time></trkpt><trkpt lat="41.368813620137075" lon="14.019969452217346"><ele>214.5</ele><time>2026-03-26T15:57:52Z</time></trkpt><trkpt lat="41.3685873257664" lon="14.020274937999028"><ele>213.0</ele><time>2026-03-26T15:57:53Z</time></trkpt><trkpt lat="41.368359857440566" lon="14.020575614152067"><ele>212.5</ele><time>2026-03-26T15:57:54Z</time></trkpt><trkpt lat="41.368133358033916" lon="14.020873017281293"><ele>212.0</ele><time>2026-03-26T15:57:55Z</time></trkpt><trkpt lat="41.36790710451611" lon="14.021171554418782"><ele>212.0</ele><time>2026-03-26T15:57:56Z</time></trkpt><trkpt lat="41.36768266002122" lon="14.02147274085801"><ele>212.0</ele><time>2026-03-26T15:57:57Z</time></trkpt><trkpt lat="41.367457102349185" lon="14.021770521591414"><ele>212.5</ele><time>2026-03-26T15:57:58Z</time></trkpt><trkpt lat="41.367231639587416" lon="14.022068927041541"><ele>213.0</ele><time>2026-03-26T15:57:59Z</time></trkpt><trkpt lat="41.36700670452652" lon="14.022370603551304"><ele>217.0</ele><time>2026-03-26T15:58:00Z</time></trkpt><trkpt lat="41.36678192369631" lon="14.022675699063901"><ele>221.0</ele><time>2026-03-26T15:58:01Z</time></trkpt><trkpt lat="41.3665530475582" lon="14.022983755630895"><ele>221.5</ele><time>2026-03-26T15:58:01.999Z</time></trkpt><trkpt lat="41.36632190343201" lon="14.023293387219677"><ele>222.0</ele><time>2026-03-26T15:58:02.999Z</time></trkpt><trkpt lat="41.36608601504778" lon="14.02360057501286"><ele>219.0</ele><time>2026-03-26T15:58:03.999Z</time></trkpt><trkpt lat="41.36585133281533" lon="14.023913685299153"><ele>216.0</ele><time>2026-03-26T15:58:04.999Z</time></trkpt><trkpt lat="41.36561675092266" lon="14.024229597161717"><ele>212.5</ele><time>2026-03-26T15:58:05.999Z</time></trkpt><trkpt lat="41.36538259096429" lon="14.024547490387807"><ele>209.0</ele><time>2026-03-26T15:58:06.999Z</time></trkpt><trkpt lat="41.36514892157122" lon="14.024865567275668"><ele>208.5</ele><time>2026-03-26T15:58:07.999Z</time></trkpt><trkpt lat="41.36491151322039" lon="14.02518073724684"><ele>208.0</ele><time>2026-03-26T15:58:08.999Z</time></trkpt><trkpt lat="41.36467229803391" lon="14.025496110550874"><ele>208.0</ele><time>2026-03-26T15:58:09.999Z</time></trkpt><trkpt lat="41.36443081111653" lon="14.025814070157361"><ele>208.0</ele><time>2026-03-26T15:58:10.999Z</time></trkpt><trkpt lat="41.36418687780319" lon="14.026131115770799"><ele>208.0</ele><time>2026-03-26T15:58:11.999Z</time></trkpt><trkpt lat="41.363941677971845" lon="14.02645011919939"><ele>208.0</ele><time>2026-03-26T15:58:12.999Z</time></trkpt><trkpt lat="41.36369737697909" lon="14.026770505657124"><ele>207.5</ele><time>2026-03-26T15:58:13.999Z</time></trkpt><trkpt lat="41.363452463486404" lon="14.02709304790324"><ele>207.0</ele><time>2026-03-26T15:58:14.999Z</time></trkpt><trkpt lat="41.36320877360734" lon="14.027419383553001"><ele>207.0</ele><time>2026-03-26T15:58:15.999Z</time></trkpt><trkpt lat="41.36296759033117" lon="14.027743581837585"><ele>207.0</ele><time>2026-03-26T15:58:16.999Z</time></trkpt><trkpt lat="41.362729688098725" lon="14.02806815214824"><ele>200.0</ele><time>2026-03-26T15:58:17.999Z</time></trkpt><trkpt lat="41.36249426202436" lon="14.028390785021362"><ele>193.0</ele><time>2026-03-26T15:58:18.999Z</time></trkpt><trkpt lat="41.36225892230245" lon="14.028710913904753"><ele>190.5</ele><time>2026-03-26T15:58:19.999Z</time></trkpt><trkpt lat="41.36202270473747" lon="14.02902419228876"><ele>188.0</ele><time>2026-03-26T15:58:20.999Z</time></trkpt><trkpt lat="41.36178677182561" lon="14.02933730540573"><ele>190.0</ele><time>2026-03-26T15:58:21.999Z</time></trkpt><trkpt lat="41.361552954243365" lon="14.029648001085686"><ele>192.0</ele><time>2026-03-26T15:58:22.999Z</time></trkpt><trkpt lat="41.36131900041587" lon="14.029955407199683"><ele>191.0</ele><time>2026-03-26T15:58:23.999Z</time></trkpt><trkpt lat="41.361088679094806" lon="14.030264378177753"><ele>190.0</ele><time>2026-03-26T15:58:24.999Z</time></trkpt><trkpt lat="41.36085897661247" lon="14.030570947284161"><ele>189.5</ele><time>2026-03-26T15:58:25.999Z</time></trkpt><trkpt lat="41.36063120350253" lon="14.03087943351865"><ele>189.0</ele><time>2026-03-26T15:58:26.999Z</time></trkpt><trkpt lat="41.36040115038596" lon="14.031181145939778"><ele>189.0</ele><time>2026-03-26T15:58:27.999Z</time></trkpt><trkpt lat="41.36017485086473" lon="14.031484251319226"><ele>189.0</ele><time>2026-03-26T15:58:28.999Z</time></trkpt><trkpt lat="41.359947903793646" lon="14.031785994307857"><ele>187.5</ele><time>2026-03-26T15:58:29.999Z</time></trkpt><trkpt lat="41.35971999269833" lon="14.032086901338497"><ele>186.0</ele><time>2026-03-26T15:58:30.999Z</time></trkpt><trkpt lat="41.359496645306145" lon="14.032390908778137"><ele>183.0</ele><time>2026-03-26T15:58:31.999Z</time></trkpt><trkpt lat="41.359272851414836" lon="14.032692809302203"><ele>180.0</ele><time>2026-03-26T15:58:32.999Z</time></trkpt><trkpt lat="41.359050212241954" lon="14.032994742874147"><ele>181.0</ele><time>2026-03-26T15:58:33.999Z</time></trkpt><trkpt lat="41.35882761247616" lon="14.033295395413553"><ele>182.0</ele><time>2026-03-26T15:58:34.999Z</time></trkpt><trkpt lat="41.358604051683436" lon="14.033596497384897"><ele>182.0</ele><time>2026-03-26T15:58:35.999Z</time></trkpt><trkpt lat="41.358378138470385" lon="14.03389435614846"><ele>182.0</ele><time>2026-03-26T15:58:36.999Z</time></trkpt><trkpt lat="41.35815453796906" lon="14.034195205963208"><ele>182.5</ele><time>2026-03-26T15:58:37.999Z</time></trkpt><trkpt lat="41.35792963214191" lon="14.03449909743411"><ele>183.0</ele><time>2026-03-26T15:58:38.999Z</time></trkpt><trkpt lat="41.35770382276116" lon="14.034802443903779"><ele>182.0</ele><time>2026-03-26T15:58:39.999Z</time></trkpt><trkpt lat="41.35747773274854" lon="14.035104501726375"><ele>181.0</ele><time>2026-03-26T15:58:40.999Z</time></trkpt><trkpt lat="41.357253423305885" lon="14.03540820528584"><ele>181.5</ele><time>2026-03-26T15:58:41.999Z</time></trkpt><trkpt lat="41.35702792669751" lon="14.035709565771135"><ele>182.0</ele><time>2026-03-26T15:58:42.999Z</time></trkpt><trkpt lat="41.3568047091596" lon="14.03600665028962"><ele>182.0</ele><time>2026-03-26T15:58:43.999Z</time></trkpt><trkpt lat="41.35658269914932" lon="14.036305993695334"><ele>182.0</ele><time>2026-03-26T15:58:44.999Z</time></trkpt><trkpt lat="41.35636036984741" lon="14.036603653588054"><ele>182.5</ele><time>2026-03-26T15:58:45.999Z</time></trkpt><trkpt lat="41.356139354701455" lon="14.036902016872771"><ele>183.0</ele><time>2026-03-26T15:58:46.999Z</time></trkpt><trkpt lat="41.35591817236637" lon="14.03719769126474"><ele>184.5</ele><time>2026-03-26T15:58:47.999Z</time></trkpt><trkpt lat="41.35569702399011" lon="14.037496932556058"><ele>186.0</ele><time>2026-03-26T15:58:48.999Z</time></trkpt><trkpt lat="41.35547497205761" lon="14.037794035220442"><ele>186.5</ele><time>2026-03-26T15:58:49.999Z</time></trkpt><trkpt lat="41.35525347209267" lon="14.038089488140217"><ele>187.0</ele><time>2026-03-26T15:58:50.999Z</time></trkpt><trkpt lat="41.355028587600216" lon="14.038379196202898"><ele>188.5</ele><time>2026-03-26T15:58:51.999Z</time></trkpt><trkpt lat="41.35480877157718" lon="14.038673064784236"><ele>190.0</ele><time>2026-03-26T15:58:52.999Z</time></trkpt><trkpt lat="41.35458768836446" lon="14.038966891721518"><ele>192.0</ele><time>2026-03-26T15:58:53.999Z</time></trkpt><trkpt lat="41.35436720485013" lon="14.03925972989421"><ele>194.0</ele><time>2026-03-26T15:58:54.999Z</time></trkpt><trkpt lat="41.354147687785535" lon="14.039550685717114"><ele>194.0</ele><time>2026-03-26T15:58:55.999Z</time></trkpt><trkpt lat="41.35392627563405" lon="14.03984139610548"><ele>194.0</ele><time>2026-03-26T15:58:56.999Z</time></trkpt><trkpt lat="41.35370685217893" lon="14.04013221114978"><ele>196.0</ele><time>2026-03-26T15:58:57.999Z</time></trkpt><trkpt lat="41.35348950003201" lon="14.040424042681089"><ele>198.0</ele><time>2026-03-26T15:58:58.999Z</time></trkpt><trkpt lat="41.35326803453115" lon="14.040717357945123"><ele>199.5</ele><time>2026-03-26T15:58:59.999Z</time></trkpt><trkpt lat="41.35304830451646" lon="14.04101047272967"><ele>201.0</ele><time>2026-03-26T15:59:00.999Z</time></trkpt><trkpt lat="41.35282964002173" lon="14.041303796211587"><ele>203.5</ele><time>2026-03-26T15:59:01.999Z</time></trkpt><trkpt lat="41.352612579898874" lon="14.041598190955655"><ele>206.0</ele><time>2026-03-26T15:59:02.999Z</time></trkpt><trkpt lat="41.352398106141464" lon="14.041886695543319"><ele>207.5</ele><time>2026-03-26T15:59:03.999Z</time></trkpt><trkpt lat="41.352185893869795" lon="14.042168325334268"><ele>209.0</ele><time>2026-03-26T15:59:04.999Z</time></trkpt><trkpt lat="41.35197822309407" lon="14.042446908600418"><ele>206.0</ele><time>2026-03-26T15:59:05.999Z</time></trkpt><trkpt lat="41.351777829235196" lon="14.042717327496522"><ele>203.0</ele><time>2026-03-26T15:59:06.999Z</time></trkpt><trkpt lat="41.35158155059469" lon="14.042980463411643"><ele>203.0</ele><time>2026-03-26T15:59:07.999Z</time></trkpt><trkpt lat="41.351387564993274" lon="14.043239088541085"><ele>203.0</ele><time>2026-03-26T15:59:08.999Z</time></trkpt><trkpt lat="41.35119752134972" lon="14.04349270126261"><ele>204.5</ele><time>2026-03-26T15:59:09.999Z</time></trkpt><trkpt lat="41.35100846135752" lon="14.043745016051917"><ele>206.0</ele><time>2026-03-26T15:59:10.999Z</time></trkpt><trkpt lat="41.35081919225038" lon="14.043996301916462"><ele>205.0</ele><time>2026-03-26T15:59:11.999Z</time></trkpt><trkpt lat="41.35062783257335" lon="14.044249767775547"><ele>204.0</ele><time>2026-03-26T15:59:12.999Z</time></trkpt><trkpt lat="41.35043489802617" lon="14.04450968018829"><ele>206.0</ele><time>2026-03-26T15:59:13.999Z</time></trkpt><trkpt lat="41.35024028783558" lon="14.044773606951654"><ele>208.0</ele><time>2026-03-26T15:59:14.999Z</time></trkpt><trkpt lat="41.35003994328944" lon="14.0450430609152"><ele>208.0</ele><time>2026-03-26T15:59:16Z</time></trkpt><trkpt lat="41.349837331045684" lon="14.045315915652862"><ele>208.0</ele><time>2026-03-26T15:59:17Z</time></trkpt><trkpt lat="41.34963313367091" lon="14.04559331841164"><ele>208.5</ele><time>2026-03-26T15:59:18Z</time></trkpt><trkpt lat="41.3494266152718" lon="14.04586995162653"><ele>209.0</ele><time>2026-03-26T15:59:19Z</time></trkpt><trkpt lat="41.34921744008683" lon="14.046146156785728"><ele>209.0</ele><time>2026-03-26T15:59:20Z</time></trkpt><trkpt lat="41.349005849026625" lon="14.046425473126293"><ele>209.0</ele><time>2026-03-26T15:59:21Z</time></trkpt><trkpt lat="41.34879519037557" lon="14.046707856115905"><ele>210.0</ele><time>2026-03-26T15:59:22Z</time></trkpt><trkpt lat="41.34858310717649" lon="14.046992912096893"><ele>211.0</ele><time>2026-03-26T15:59:23Z</time></trkpt><trkpt lat="41.34837017942254" lon="14.047280279925337"><ele>207.0</ele><time>2026-03-26T15:59:24Z</time></trkpt><trkpt lat="41.348156179936915" lon="14.047568077624744"><ele>203.0</ele><time>2026-03-26T15:59:25Z</time></trkpt><trkpt lat="41.34793984180115" lon="14.047858303475998"><ele>201.5</ele><time>2026-03-26T15:59:26Z</time></trkpt><trkpt lat="41.347721120003165" lon="14.048150278133265"><ele>200.0</ele><time>2026-03-26T15:59:27Z</time></trkpt><trkpt lat="41.34750327107614" lon="14.048438299348792"><ele>200.0</ele><time>2026-03-26T15:59:28Z</time></trkpt><trkpt lat="41.34728740705227" lon="14.048730301222575"><ele>200.0</ele><time>2026-03-26T15:59:29Z</time></trkpt><trkpt lat="41.347071180437844" lon="14.0490200669758"><ele>203.5</ele><time>2026-03-26T15:59:30Z</time></trkpt><trkpt lat="41.346854362788896" lon="14.049309550918373"><ele>207.0</ele><time>2026-03-26T15:59:31Z</time></trkpt><trkpt lat="41.34663458407759" lon="14.049593181464951"><ele>207.0</ele><time>2026-03-26T15:59:32Z</time></trkpt><trkpt lat="41.3464115572254" lon="14.049868635461943"><ele>207.0</ele><time>2026-03-26T15:59:33Z</time></trkpt><trkpt lat="41.346191147080276" lon="14.050147639211579"><ele>208.0</ele><time>2026-03-26T15:59:34Z</time></trkpt><trkpt lat="41.34597217096852" lon="14.05043063911531"><ele>209.0</ele><time>2026-03-26T15:59:35Z</time></trkpt><trkpt lat="41.34575755749121" lon="14.050713821372009"><ele>216.5</ele><time>2026-03-26T15:59:36Z</time></trkpt><trkpt lat="41.34554509899706" lon="14.050998228942403"><ele>224.0</ele><time>2026-03-26T15:59:37Z</time></trkpt><trkpt lat="41.345334598971306" lon="14.051280930675683"><ele>224.0</ele><time>2026-03-26T15:59:38Z</time></trkpt><trkpt lat="41.345128470136856" lon="14.051561803434856"><ele>224.0</ele><time>2026-03-26T15:59:39Z</time></trkpt><trkpt lat="41.34492301418972" lon="14.051847014380686"><ele>224.0</ele><time>2026-03-26T15:59:40Z</time></trkpt><trkpt lat="41.34471638579967" lon="14.05213256308889"><ele>224.0</ele><time>2026-03-26T15:59:41Z</time></trkpt><trkpt lat="41.344508422622816" lon="14.052420062235905"><ele>217.0</ele><time>2026-03-26T15:59:42Z</time></trkpt><trkpt lat="41.34429979368545" lon="14.052707699397208"><ele>210.0</ele><time>2026-03-26T15:59:43Z</time></trkpt><trkpt lat="41.34408844318035" lon="14.052998574019348"><ele>208.5</ele><time>2026-03-26T15:59:44Z</time></trkpt><trkpt lat="41.343875799127304" lon="14.05328730567629"><ele>207.0</ele><time>2026-03-26T15:59:45Z</time></trkpt><trkpt lat="41.34366222130209" lon="14.053576581334907"><ele>203.0</ele><time>2026-03-26T15:59:46Z</time></trkpt><trkpt lat="41.343447104265714" lon="14.053866947412883"><ele>199.0</ele><time>2026-03-26T15:59:47Z</time></trkpt><trkpt lat="41.34322935877438" lon="14.054155304889669"><ele>195.5</ele><time>2026-03-26T15:59:48Z</time></trkpt><trkpt lat="41.34301076093484" lon="14.0544445810279"><ele>192.0</ele><time>2026-03-26T15:59:49Z</time></trkpt><trkpt lat="41.342788371385836" lon="14.054732573186943"><ele>194.5</ele><time>2026-03-26T15:59:50Z</time></trkpt><trkpt lat="41.342561886409996" lon="14.055016174243537"><ele>197.0</ele><time>2026-03-26T15:59:51Z</time></trkpt><trkpt lat="41.34233587271034" lon="14.055301153041473"><ele>199.0</ele><time>2026-03-26T15:59:52Z</time></trkpt><trkpt lat="41.34211105313505" lon="14.055589220615946"><ele>201.0</ele><time>2026-03-26T15:59:53Z</time></trkpt><trkpt lat="41.34188747837443" lon="14.055880537046729"><ele>203.5</ele><time>2026-03-26T15:59:54Z</time></trkpt><trkpt lat="41.341664291108394" lon="14.056176582721383"><ele>206.0</ele><time>2026-03-26T15:59:55Z</time></trkpt><trkpt lat="41.341441044924686" lon="14.056474658603626"><ele>207.5</ele><time>2026-03-26T15:59:56Z</time></trkpt><trkpt lat="41.34121639765438" lon="14.056774764441126"><ele>209.0</ele><time>2026-03-26T15:59:57Z</time></trkpt><trkpt lat="41.34099086464157" lon="14.057075780229706"><ele>209.0</ele><time>2026-03-26T15:59:58Z</time></trkpt><trkpt lat="41.340764159498036" lon="14.05737947134106"><ele>209.0</ele><time>2026-03-26T15:59:59Z</time></trkpt><trkpt lat="41.34053858672517" lon="14.05768340834504"><ele>209.0</ele><time>2026-03-26T16:00:00Z</time></trkpt><trkpt lat="41.340313559698146" lon="14.057986771423117"><ele>209.0</ele><time>2026-03-26T16:00:01Z</time></trkpt><trkpt lat="41.3400872383475" lon="14.05828905094981"><ele>204.5</ele><time>2026-03-26T16:00:02Z</time></trkpt><trkpt lat="41.33985917256841" lon="14.058589447369608"><ele>200.0</ele><time>2026-03-26T16:00:03Z</time></trkpt><trkpt lat="41.33963109163853" lon="14.05889152315102"><ele>196.5</ele><time>2026-03-26T16:00:04Z</time></trkpt><trkpt lat="41.33940215185264" lon="14.059192670986171"><ele>193.0</ele><time>2026-03-26T16:00:05Z</time></trkpt><trkpt lat="41.339173808614156" lon="14.059494754702042"><ele>193.0</ele><time>2026-03-26T16:00:06Z</time></trkpt><trkpt lat="41.3389468560385" lon="14.059799430683636"><ele>193.0</ele><time>2026-03-26T16:00:07Z</time></trkpt><trkpt lat="41.338723030678416" lon="14.060105729314694"><ele>192.5</ele><time>2026-03-26T16:00:08Z</time></trkpt><trkpt lat="41.33849837585803" lon="14.0604119644901"><ele>192.0</ele><time>2026-03-26T16:00:09Z</time></trkpt><trkpt lat="41.33827279277165" lon="14.060717977801719"><ele>196.0</ele><time>2026-03-26T16:00:10Z</time></trkpt><trkpt lat="41.33804691845958" lon="14.061021968377213"><ele>200.0</ele><time>2026-03-26T16:00:11Z</time></trkpt><trkpt lat="41.33781984713423" lon="14.061325081563359"><ele>198.0</ele><time>2026-03-26T16:00:12Z</time></trkpt><trkpt lat="41.33759279102315" lon="14.061626755404358"><ele>196.0</ele><time>2026-03-26T16:00:13Z</time></trkpt><trkpt lat="41.3373663279263" lon="14.061927832544105"><ele>197.0</ele><time>2026-03-26T16:00:13.999Z</time></trkpt><trkpt lat="41.337140245720086" lon="14.062226330460724"><ele>198.0</ele><time>2026-03-26T16:00:14.999Z</time></trkpt><trkpt lat="41.336913774343536" lon="14.062525680260032"><ele>195.0</ele><time>2026-03-26T16:00:15.999Z</time></trkpt><trkpt lat="41.33668775325962" lon="14.062824204864473"><ele>192.0</ele><time>2026-03-26T16:00:16.999Z</time></trkpt><trkpt lat="41.336462278386335" lon="14.063124691581823"><ele>190.5</ele><time>2026-03-26T16:00:17.999Z</time></trkpt><trkpt lat="41.33623735217367" lon="14.063426788407726"><ele>189.0</ele><time>2026-03-26T16:00:18.999Z</time></trkpt><trkpt lat="41.336013252601546" lon="14.06372956566397"><ele>189.0</ele><time>2026-03-26T16:00:19.999Z</time></trkpt><trkpt lat="41.33578876175124" lon="14.064032387787863"><ele>189.0</ele><time>2026-03-26T16:00:20.999Z</time></trkpt><trkpt lat="41.335565311278465" lon="14.064336877246902"><ele>187.5</ele><time>2026-03-26T16:00:21.999Z</time></trkpt><trkpt lat="41.33534233433324" lon="14.064638766075575"><ele>186.0</ele><time>2026-03-26T16:00:22.999Z</time></trkpt><trkpt lat="41.335118178260544" lon="14.064937369290472"><ele>184.5</ele><time>2026-03-26T16:00:23.999Z</time></trkpt><trkpt lat="41.33489589151086" lon="14.065237713014348"><ele>183.0</ele><time>2026-03-26T16:00:24.999Z</time></trkpt><trkpt lat="41.334672011080194" lon="14.065536477802372"><ele>182.5</ele><time>2026-03-26T16:00:25.999Z</time></trkpt><trkpt lat="41.33444770368566" lon="14.065833527203013"><ele>182.0</ele><time>2026-03-26T16:00:26.999Z</time></trkpt><trkpt lat="41.33422302449709" lon="14.06613084776871"><ele>182.0</ele><time>2026-03-26T16:00:27.999Z</time></trkpt><trkpt lat="41.333998613235295" lon="14.066427676319643"><ele>182.0</ele><time>2026-03-26T16:00:28.999Z</time></trkpt><trkpt lat="41.33377493177363" lon="14.06672488510948"><ele>184.5</ele><time>2026-03-26T16:00:29.999Z</time></trkpt><trkpt lat="41.33355067541622" lon="14.067021498541619"><ele>187.0</ele><time>2026-03-26T16:00:30.999Z</time></trkpt><trkpt lat="41.33332878469717" lon="14.067318945757602"><ele>187.5</ele><time>2026-03-26T16:00:31.999Z</time></trkpt><trkpt lat="41.33310667992348" lon="14.067615460221846"><ele>188.0</ele><time>2026-03-26T16:00:32.999Z</time></trkpt><trkpt lat="41.33288471297763" lon="14.067914154725958"><ele>187.5</ele><time>2026-03-26T16:00:33.999Z</time></trkpt><trkpt lat="41.33266352569298" lon="14.068210100305599"><ele>187.0</ele><time>2026-03-26T16:00:34.999Z</time></trkpt><trkpt lat="41.33244379199087" lon="14.068505034772077"><ele>186.0</ele><time>2026-03-26T16:00:35.999Z</time></trkpt><trkpt lat="41.33222304386964" lon="14.068797348072085"><ele>185.0</ele><time>2026-03-26T16:00:36.999Z</time></trkpt><trkpt lat="41.332003148791976" lon="14.069089733994257"><ele>184.0</ele><time>2026-03-26T16:00:37.999Z</time></trkpt><trkpt lat="41.33178413671975" lon="14.069380354755612"><ele>183.0</ele><time>2026-03-26T16:00:38.999Z</time></trkpt><trkpt lat="41.33156430782967" lon="14.069667061949819"><ele>179.5</ele><time>2026-03-26T16:00:39.999Z</time></trkpt><trkpt lat="41.33134627739819" lon="14.069958346938678"><ele>176.0</ele><time>2026-03-26T16:00:40.999Z</time></trkpt><trkpt lat="41.33113216666144" lon="14.070252617297042"><ele>176.0</ele><time>2026-03-26T16:00:41.999Z</time></trkpt><trkpt lat="41.33091841634037" lon="14.070548107697698"><ele>176.0</ele><time>2026-03-26T16:00:42.999Z</time></trkpt><trkpt lat="41.33070237177223" lon="14.07084351586248"><ele>177.0</ele><time>2026-03-26T16:00:43.999Z</time></trkpt><trkpt lat="41.33048590609632" lon="14.071139607924723"><ele>178.0</ele><time>2026-03-26T16:00:44.999Z</time></trkpt><trkpt lat="41.330268358903794" lon="14.07143494489255"><ele>176.0</ele><time>2026-03-26T16:00:45.999Z</time></trkpt><trkpt lat="41.33004993265543" lon="14.071727915929843"><ele>174.0</ele><time>2026-03-26T16:00:46.999Z</time></trkpt><trkpt lat="41.329829838793124" lon="14.072021667583252"><ele>177.0</ele><time>2026-03-26T16:00:47.999Z</time></trkpt><trkpt lat="41.329610880436086" lon="14.072316540326595"><ele>180.0</ele><time>2026-03-26T16:00:48.999Z</time></trkpt><trkpt lat="41.32939223989403" lon="14.072613123666082"><ele>180.0</ele><time>2026-03-26T16:00:49.999Z</time></trkpt><trkpt lat="41.329173269318275" lon="14.072910286085918"><ele>180.0</ele><time>2026-03-26T16:00:50.999Z</time></trkpt><trkpt lat="41.32895416924929" lon="14.073207430715987"><ele>180.0</ele><time>2026-03-26T16:00:51.999Z</time></trkpt><trkpt lat="41.328735040607974" lon="14.073507115406974"><ele>180.0</ele><time>2026-03-26T16:00:52.999Z</time></trkpt><trkpt lat="41.328517763454684" lon="14.073809451743303"><ele>181.0</ele><time>2026-03-26T16:00:53.999Z</time></trkpt><trkpt lat="41.32829930459226" lon="14.074111259716199"><ele>182.0</ele><time>2026-03-26T16:00:54.999Z</time></trkpt><trkpt lat="41.328076956702915" lon="14.074410280779379"><ele>187.5</ele><time>2026-03-26T16:00:55.999Z</time></trkpt><trkpt lat="41.327859523739725" lon="14.07471234345985"><ele>193.0</ele><time>2026-03-26T16:00:56.999Z</time></trkpt><trkpt lat="41.327638916294894" lon="14.075006812986498"><ele>193.0</ele><time>2026-03-26T16:00:57.999Z</time></trkpt><trkpt lat="41.327420817446246" lon="14.07530928016923"><ele>193.0</ele><time>2026-03-26T16:00:58.999Z</time></trkpt><trkpt lat="41.32719780199943" lon="14.075603041819434"><ele>192.0</ele><time>2026-03-26T16:00:59.999Z</time></trkpt><trkpt lat="41.32697680331788" lon="14.075898031039744"><ele>191.0</ele><time>2026-03-26T16:01:00.999Z</time></trkpt><trkpt lat="41.32675263829521" lon="14.076192713494684"><ele>191.0</ele><time>2026-03-26T16:01:01.999Z</time></trkpt><trkpt lat="41.32653182542341" lon="14.076490816632157"><ele>191.0</ele><time>2026-03-26T16:01:02.999Z</time></trkpt><trkpt lat="41.32631010201128" lon="14.076785003834138"><ele>188.0</ele><time>2026-03-26T16:01:03.999Z</time></trkpt><trkpt lat="41.32608815544443" lon="14.07708334654087"><ele>185.0</ele><time>2026-03-26T16:01:04.999Z</time></trkpt><trkpt lat="41.325867601109316" lon="14.077380477710177"><ele>183.5</ele><time>2026-03-26T16:01:05.999Z</time></trkpt><trkpt lat="41.32564688160504" lon="14.077681623735675"><ele>182.0</ele><time>2026-03-26T16:01:06.999Z</time></trkpt><trkpt lat="41.32541961125241" lon="14.077974229769918"><ele>178.5</ele><time>2026-03-26T16:01:07.999Z</time></trkpt><trkpt lat="41.32519438798371" lon="14.078268470337742"><ele>175.0</ele><time>2026-03-26T16:01:08.999Z</time></trkpt><trkpt lat="41.32497238544924" lon="14.078567575725362"><ele>175.0</ele><time>2026-03-26T16:01:09.999Z</time></trkpt><trkpt lat="41.32474739094473" lon="14.07886773431919"><ele>175.0</ele><time>2026-03-26T16:01:10.999Z</time></trkpt><trkpt lat="41.324524683653465" lon="14.079166571639501"><ele>175.0</ele><time>2026-03-26T16:01:11.999Z</time></trkpt><trkpt lat="41.32430377050449" lon="14.079465000974144"><ele>175.0</ele><time>2026-03-26T16:01:12.999Z</time></trkpt><trkpt lat="41.32408445885317" lon="14.079762706584713"><ele>177.5</ele><time>2026-03-26T16:01:13.999Z</time></trkpt><trkpt lat="41.323862186174274" lon="14.080058442535918"><ele>180.0</ele><time>2026-03-26T16:01:14.999Z</time></trkpt><trkpt lat="41.32363765984322" lon="14.080348812328504"><ele>180.0</ele><time>2026-03-26T16:01:15.999Z</time></trkpt><trkpt lat="41.3234169601616" lon="14.080640766221581"><ele>180.0</ele><time>2026-03-26T16:01:16.999Z</time></trkpt><trkpt lat="41.32319065284793" lon="14.08092581235005"><ele>182.5</ele><time>2026-03-26T16:01:17.999Z</time></trkpt><trkpt lat="41.32295461549399" lon="14.081200070821932"><ele>185.0</ele><time>2026-03-26T16:01:18.999Z</time></trkpt><trkpt lat="41.32271744559562" lon="14.081471705879595"><ele>182.0</ele><time>2026-03-26T16:01:19.999Z</time></trkpt><trkpt lat="41.32247766758569" lon="14.081734404992723"><ele>179.0</ele><time>2026-03-26T16:01:20.999Z</time></trkpt><trkpt lat="41.322231338250745" lon="14.081990753309091"><ele>178.0</ele><time>2026-03-26T16:01:22Z</time></trkpt><trkpt lat="41.321982143179156" lon="14.082243379493123"><ele>177.0</ele><time>2026-03-26T16:01:23Z</time></trkpt><trkpt lat="41.32172956837511" lon="14.082484137251617"><ele>176.0</ele><time>2026-03-26T16:01:24Z</time></trkpt><trkpt lat="41.32147082591218" lon="14.082714152076365"><ele>175.0</ele><time>2026-03-26T16:01:25Z</time></trkpt><trkpt lat="41.32121031382878" lon="14.08293649051568"><ele>174.0</ele><time>2026-03-26T16:01:26Z</time></trkpt><trkpt lat="41.32094729482052" lon="14.08315213556429"><ele>173.0</ele><time>2026-03-26T16:01:27Z</time></trkpt><trkpt lat="41.32067979998814" lon="14.083357337329263"><ele>173.0</ele><time>2026-03-26T16:01:28Z</time></trkpt><trkpt lat="41.32040884223488" lon="14.083553423013319"><ele>173.0</ele><time>2026-03-26T16:01:29Z</time></trkpt><trkpt lat="41.3201352844094" lon="14.083738161192679"><ele>173.0</ele><time>2026-03-26T16:01:30Z</time></trkpt><trkpt lat="41.31986194925423" lon="14.083914246886057"><ele>173.0</ele><time>2026-03-26T16:01:31Z</time></trkpt><trkpt lat="41.319583905618686" lon="14.084078745837695"><ele>175.5</ele><time>2026-03-26T16:01:32Z</time></trkpt><trkpt lat="41.31930349928764" lon="14.084226680901043"><ele>178.0</ele><time>2026-03-26T16:01:33Z</time></trkpt><trkpt lat="41.319022765353765" lon="14.08436427757463"><ele>178.5</ele><time>2026-03-26T16:01:34Z</time></trkpt><trkpt lat="41.31874154289901" lon="14.084497717382044"><ele>179.0</ele><time>2026-03-26T16:01:35Z</time></trkpt><trkpt lat="41.31846086659607" lon="14.084630385730424"><ele>179.0</ele><time>2026-03-26T16:01:36Z</time></trkpt><trkpt lat="41.31818017228834" lon="14.084755887982684"><ele>179.0</ele><time>2026-03-26T16:01:37Z</time></trkpt><trkpt lat="41.31789697745625" lon="14.08487578574508"><ele>175.5</ele><time>2026-03-26T16:01:38Z</time></trkpt><trkpt lat="41.31761181082919" lon="14.084988039938308"><ele>172.0</ele><time>2026-03-26T16:01:39Z</time></trkpt><trkpt lat="41.31732273453361" lon="14.085098960356952"><ele>170.5</ele><time>2026-03-26T16:01:40Z</time></trkpt><trkpt lat="41.31703620467983" lon="14.085205537637535"><ele>169.0</ele><time>2026-03-26T16:01:41Z</time></trkpt><trkpt lat="41.31675064080749" lon="14.085312915387915"><ele>169.0</ele><time>2026-03-26T16:01:42Z</time></trkpt><trkpt lat="41.31646975122353" lon="14.085420719828203"><ele>169.0</ele><time>2026-03-26T16:01:43Z</time></trkpt><trkpt lat="41.31619008492815" lon="14.085531009349735"><ele>168.0</ele><time>2026-03-26T16:01:44Z</time></trkpt><trkpt lat="41.31590813344385" lon="14.08564139178643"><ele>167.0</ele><time>2026-03-26T16:01:45Z</time></trkpt><trkpt lat="41.315624313897374" lon="14.08575413246277"><ele>170.5</ele><time>2026-03-26T16:01:46Z</time></trkpt><trkpt lat="41.31533873496545" lon="14.08586699902238"><ele>174.0</ele><time>2026-03-26T16:01:47Z</time></trkpt><trkpt lat="41.31505238504977" lon="14.085979104903037"><ele>174.0</ele><time>2026-03-26T16:01:48Z</time></trkpt><trkpt lat="41.31476433220406" lon="14.086089449974363"><ele>174.0</ele><time>2026-03-26T16:01:49Z</time></trkpt><trkpt lat="41.31447583087788" lon="14.08619930970396"><ele>176.5</ele><time>2026-03-26T16:01:50Z</time></trkpt><trkpt lat="41.31418558830686" lon="14.086311829618428"><ele>179.0</ele><time>2026-03-26T16:01:51Z</time></trkpt><trkpt lat="41.31389532947659" lon="14.086424148650414"><ele>184.5</ele><time>2026-03-26T16:01:52Z</time></trkpt><trkpt lat="41.313603175603376" lon="14.086537483527527"><ele>190.0</ele><time>2026-03-26T16:01:53Z</time></trkpt><trkpt lat="41.313308651081734" lon="14.086651780530659"><ele>191.0</ele><time>2026-03-26T16:01:54Z</time></trkpt><trkpt lat="41.31301425977365" lon="14.086763440195336"><ele>192.0</ele><time>2026-03-26T16:01:55Z</time></trkpt><trkpt lat="41.312718868150704" lon="14.086875068011226"><ele>192.0</ele><time>2026-03-26T16:01:56Z</time></trkpt><trkpt lat="41.31242350047437" lon="14.086989040593629"><ele>192.0</ele><time>2026-03-26T16:01:57Z</time></trkpt><trkpt lat="41.31212809500658" lon="14.087103634009603"><ele>187.0</ele><time>2026-03-26T16:01:58Z</time></trkpt><trkpt lat="41.311829502645594" lon="14.087219179257284"><ele>182.0</ele><time>2026-03-26T16:01:59Z</time></trkpt><trkpt lat="41.3115317168588" lon="14.087334827485893"><ele>178.0</ele><time>2026-03-26T16:02:00Z</time></trkpt><trkpt lat="41.31123206962466" lon="14.08745156840956"><ele>174.0</ele><time>2026-03-26T16:02:01Z</time></trkpt><trkpt lat="41.310933463811125" lon="14.08756781647807"><ele>174.0</ele><time>2026-03-26T16:02:02Z</time></trkpt><trkpt lat="41.310635130631056" lon="14.087684281504824"><ele>174.0</ele><time>2026-03-26T16:02:03Z</time></trkpt><trkpt lat="41.31033550854796" lon="14.087799964490594"><ele>174.0</ele><time>2026-03-26T16:02:04Z</time></trkpt><trkpt lat="41.31003569054649" lon="14.08791414333427"><ele>174.0</ele><time>2026-03-26T16:02:05Z</time></trkpt><trkpt lat="41.30973770209303" lon="14.0880301462716"><ele>175.5</ele><time>2026-03-26T16:02:06Z</time></trkpt><trkpt lat="41.30943686278264" lon="14.088143482962273"><ele>177.0</ele><time>2026-03-26T16:02:07Z</time></trkpt><trkpt lat="41.30913782059039" lon="14.088259496619912"><ele>178.5</ele><time>2026-03-26T16:02:08Z</time></trkpt><trkpt lat="41.30883798388766" lon="14.08837439797013"><ele>180.0</ele><time>2026-03-26T16:02:09Z</time></trkpt><trkpt lat="41.30853930504901" lon="14.088490514144924"><ele>180.0</ele><time>2026-03-26T16:02:10Z</time></trkpt><trkpt lat="41.308240999791494" lon="14.088605490256766"><ele>180.0</ele><time>2026-03-26T16:02:11Z</time></trkpt><trkpt lat="41.307940393266975" lon="14.088720752728731"><ele>180.0</ele><time>2026-03-26T16:02:12Z</time></trkpt><trkpt lat="41.30763994249153" lon="14.088839758524163"><ele>180.0</ele><time>2026-03-26T16:02:13Z</time></trkpt><trkpt lat="41.30733852133076" lon="14.088956159861603"><ele>182.0</ele><time>2026-03-26T16:02:14Z</time></trkpt><trkpt lat="41.3070371438197" lon="14.089074383566771"><ele>184.0</ele><time>2026-03-26T16:02:15Z</time></trkpt><trkpt lat="41.30673584332721" lon="14.089195203291023"><ele>184.0</ele><time>2026-03-26T16:02:16Z</time></trkpt><trkpt lat="41.30643693818747" lon="14.089321659564547"><ele>184.0</ele><time>2026-03-26T16:02:16.999Z</time></trkpt><trkpt lat="41.30613713922729" lon="14.089444494480965"><ele>185.5</ele><time>2026-03-26T16:02:17.999Z</time></trkpt><trkpt lat="41.305837582225365" lon="14.089567589013402"><ele>187.0</ele><time>2026-03-26T16:02:18.999Z</time></trkpt><trkpt lat="41.30553459048006" lon="14.089688129168985"><ele>187.5</ele><time>2026-03-26T16:02:19.999Z</time></trkpt><trkpt lat="41.305234351637424" lon="14.08979817051776"><ele>188.0</ele><time>2026-03-26T16:02:20.999Z</time></trkpt><trkpt lat="41.30493063427556" lon="14.089899209804148"><ele>187.5</ele><time>2026-03-26T16:02:21.999Z</time></trkpt><trkpt lat="41.30462502578724" lon="14.0899963590645"><ele>187.0</ele><time>2026-03-26T16:02:22.999Z</time></trkpt><trkpt lat="41.30431832616285" lon="14.09008872602633"><ele>187.0</ele><time>2026-03-26T16:02:23.999Z</time></trkpt><trkpt lat="41.30401131044637" lon="14.090177740286771"><ele>187.0</ele><time>2026-03-26T16:02:24.999Z</time></trkpt><trkpt lat="41.30370550375721" lon="14.09026193795758"><ele>188.5</ele><time>2026-03-26T16:02:25.999Z</time></trkpt><trkpt lat="41.30339861180651" lon="14.090341998962604"><ele>190.0</ele><time>2026-03-26T16:02:26.999Z</time></trkpt><trkpt lat="41.30309092299362" lon="14.09041828548501"><ele>191.0</ele><time>2026-03-26T16:02:27.999Z</time></trkpt><trkpt lat="41.30278358241243" lon="14.090494413618515"><ele>192.0</ele><time>2026-03-26T16:02:28.999Z</time></trkpt><trkpt lat="41.30247696491084" lon="14.09057132061024"><ele>190.5</ele><time>2026-03-26T16:02:29.999Z</time></trkpt><trkpt lat="41.30216891561158" lon="14.090645687846989"><ele>189.0</ele><time>2026-03-26T16:02:30.999Z</time></trkpt><trkpt lat="41.30186023889174" lon="14.09071275550089"><ele>188.0</ele><time>2026-03-26T16:02:31.999Z</time></trkpt><trkpt lat="41.30155166550854" lon="14.090769939286208"><ele>187.0</ele><time>2026-03-26T16:02:32.999Z</time></trkpt><trkpt lat="41.30124378819169" lon="14.090820893476446"><ele>187.0</ele><time>2026-03-26T16:02:33.999Z</time></trkpt><trkpt lat="41.30093752414063" lon="14.0908655899883"><ele>187.0</ele><time>2026-03-26T16:02:34.999Z</time></trkpt><trkpt lat="41.30062955882718" lon="14.090905656328342"><ele>188.0</ele><time>2026-03-26T16:02:35.999Z</time></trkpt><trkpt lat="41.300324171684096" lon="14.090937844089204"><ele>189.0</ele><time>2026-03-26T16:02:36.999Z</time></trkpt><trkpt lat="41.30001671337339" lon="14.090960131923032"><ele>186.0</ele><time>2026-03-26T16:02:37.999Z</time></trkpt><trkpt lat="41.29971026342196" lon="14.090972943690652"><ele>183.0</ele><time>2026-03-26T16:02:38.999Z</time></trkpt><trkpt lat="41.29940170452435" lon="14.09098154320347"><ele>183.0</ele><time>2026-03-26T16:02:39.999Z</time></trkpt><trkpt lat="41.299094256185526" lon="14.090988867056977"><ele>183.0</ele><time>2026-03-26T16:02:40.999Z</time></trkpt><trkpt lat="41.29878522596797" lon="14.090997612122008"><ele>181.5</ele><time>2026-03-26T16:02:41.999Z</time></trkpt><trkpt lat="41.29847739530012" lon="14.091006419178962"><ele>180.0</ele><time>2026-03-26T16:02:42.999Z</time></trkpt><trkpt lat="41.29816890340144" lon="14.091014746633487"><ele>178.0</ele><time>2026-03-26T16:02:43.999Z</time></trkpt><trkpt lat="41.29786095918535" lon="14.091019072386972"><ele>176.0</ele><time>2026-03-26T16:02:44.999Z</time></trkpt><trkpt lat="41.29755221035345" lon="14.091024586183757"><ele>175.0</ele><time>2026-03-26T16:02:45.999Z</time></trkpt><trkpt lat="41.297244266909175" lon="14.091034114734084"><ele>174.0</ele><time>2026-03-26T16:02:46.999Z</time></trkpt><trkpt lat="41.296936353316255" lon="14.09104155511405"><ele>174.0</ele><time>2026-03-26T16:02:47.999Z</time></trkpt><trkpt lat="41.29662846419034" lon="14.09104972201219"><ele>174.0</ele><time>2026-03-26T16:02:48.999Z</time></trkpt><trkpt lat="41.2963211585147" lon="14.091055307477848"><ele>174.0</ele><time>2026-03-26T16:02:49.999Z</time></trkpt><trkpt lat="41.29601520908999" lon="14.091053022434483"><ele>174.0</ele><time>2026-03-26T16:02:50.999Z</time></trkpt><trkpt lat="41.295711258197755" lon="14.09106024427684"><ele>175.5</ele><time>2026-03-26T16:02:51.999Z</time></trkpt><trkpt lat="41.29540590329977" lon="14.091068480781537"><ele>177.0</ele><time>2026-03-26T16:02:52.999Z</time></trkpt><trkpt lat="41.29510227411804" lon="14.09107815822053"><ele>177.0</ele><time>2026-03-26T16:02:53.999Z</time></trkpt><trkpt lat="41.29479958087901" lon="14.091085680047069"><ele>177.0</ele><time>2026-03-26T16:02:54.999Z</time></trkpt><trkpt lat="41.29449758215668" lon="14.091091136114192"><ele>178.0</ele><time>2026-03-26T16:02:55.999Z</time></trkpt><trkpt lat="41.29419622953899" lon="14.091097377918604"><ele>179.0</ele><time>2026-03-26T16:02:56.999Z</time></trkpt><trkpt lat="41.293895256641235" lon="14.091106216066523"><ele>180.0</ele><time>2026-03-26T16:02:57.999Z</time></trkpt><trkpt lat="41.29359569346071" lon="14.091116860440888"><ele>181.0</ele><time>2026-03-26T16:02:58.999Z</time></trkpt><trkpt lat="41.293293167574696" lon="14.091124857030117"><ele>180.5</ele><time>2026-03-26T16:02:59.999Z</time></trkpt><trkpt lat="41.29299144189498" lon="14.091131345000068"><ele>180.0</ele><time>2026-03-26T16:03:00.999Z</time></trkpt><trkpt lat="41.292688139163694" lon="14.09114032005473"><ele>180.0</ele><time>2026-03-26T16:03:01.999Z</time></trkpt><trkpt lat="41.29238532867637" lon="14.091149347512442"><ele>180.0</ele><time>2026-03-26T16:03:02.999Z</time></trkpt><trkpt lat="41.29208072379527" lon="14.091157855738306"><ele>180.0</ele><time>2026-03-26T16:03:03.999Z</time></trkpt><trkpt lat="41.29177543610815" lon="14.09116611045832"><ele>180.0</ele><time>2026-03-26T16:03:04.999Z</time></trkpt><trkpt lat="41.29147082865671" lon="14.091171247581876"><ele>182.5</ele><time>2026-03-26T16:03:05.999Z</time></trkpt><trkpt lat="41.29116442693469" lon="14.091176266041915"><ele>185.0</ele><time>2026-03-26T16:03:06.999Z</time></trkpt><trkpt lat="41.29085549691773" lon="14.09118326059184"><ele>187.0</ele><time>2026-03-26T16:03:07.999Z</time></trkpt><trkpt lat="41.29054521378424" lon="14.091191555672872"><ele>189.0</ele><time>2026-03-26T16:03:08.999Z</time></trkpt><trkpt lat="41.29023293455938" lon="14.091198920919073"><ele>189.0</ele><time>2026-03-26T16:03:09.999Z</time></trkpt><trkpt lat="41.28991659766911" lon="14.09120231828469"><ele>189.0</ele><time>2026-03-26T16:03:10.999Z</time></trkpt><trkpt lat="41.28959726356975" lon="14.091200615595575"><ele>187.5</ele><time>2026-03-26T16:03:11.999Z</time></trkpt><trkpt lat="41.289277579803255" lon="14.091197540613985"><ele>186.0</ele><time>2026-03-26T16:03:12.999Z</time></trkpt><trkpt lat="41.28895428622277" lon="14.09119727501537"><ele>186.0</ele><time>2026-03-26T16:03:13.999Z</time></trkpt><trkpt lat="41.28863095123127" lon="14.091198272736023"><ele>186.0</ele><time>2026-03-26T16:03:14.999Z</time></trkpt><trkpt lat="41.288307286289665" lon="14.091199379272874"><ele>186.0</ele><time>2026-03-26T16:03:15.999Z</time></trkpt><trkpt lat="41.28798186881975" lon="14.09120294698471"><ele>186.0</ele><time>2026-03-26T16:03:16.999Z</time></trkpt><trkpt lat="41.28765631615285" lon="14.091208417714588"><ele>186.0</ele><time>2026-03-26T16:03:17.999Z</time></trkpt><trkpt lat="41.28732924562947" lon="14.091216613987495"><ele>186.0</ele><time>2026-03-26T16:03:18.999Z</time></trkpt><trkpt lat="41.28700147385345" lon="14.091224578568271"><ele>185.0</ele><time>2026-03-26T16:03:19.999Z</time></trkpt><trkpt lat="41.28667341098525" lon="14.091234174305042"><ele>184.0</ele><time>2026-03-26T16:03:20.999Z</time></trkpt><trkpt lat="41.286345753198724" lon="14.091244166246659"><ele>182.0</ele><time>2026-03-26T16:03:21.999Z</time></trkpt><trkpt lat="41.28601854539173" lon="14.09125188023824"><ele>180.0</ele><time>2026-03-26T16:03:22.999Z</time></trkpt><trkpt lat="41.28569041284133" lon="14.091259700660986"><ele>180.5</ele><time>2026-03-26T16:03:23.999Z</time></trkpt><trkpt lat="41.28536387058863" lon="14.091266449484081"><ele>181.0</ele><time>2026-03-26T16:03:24.999Z</time></trkpt><trkpt lat="41.285038010604985" lon="14.091272077522072"><ele>181.0</ele><time>2026-03-26T16:03:25.999Z</time></trkpt><trkpt lat="41.284712108999784" lon="14.091278988568046"><ele>181.0</ele><time>2026-03-26T16:03:26.999Z</time></trkpt><trkpt lat="41.28438618577345" lon="14.091286874135148"><ele>181.0</ele><time>2026-03-26T16:03:28Z</time></trkpt><trkpt lat="41.2840619216986" lon="14.091294118276707"><ele>181.0</ele><time>2026-03-26T16:03:29Z</time></trkpt><trkpt lat="41.2837385200166" lon="14.091301570679155"><ele>180.5</ele><time>2026-03-26T16:03:30Z</time></trkpt><trkpt lat="41.283415574600745" lon="14.091309938091461"><ele>180.0</ele><time>2026-03-26T16:03:31Z</time></trkpt><trkpt lat="41.28309395488265" lon="14.091318709067709"><ele>181.0</ele><time>2026-03-26T16:03:32Z</time></trkpt><trkpt lat="41.282772527857354" lon="14.091327261247026"><ele>182.0</ele><time>2026-03-26T16:03:33Z</time></trkpt><trkpt lat="41.28245106924885" lon="14.091335660510937"><ele>184.0</ele><time>2026-03-26T16:03:34Z</time></trkpt><trkpt lat="41.28213039859835" lon="14.091342192806719"><ele>186.0</ele><time>2026-03-26T16:03:35Z</time></trkpt><trkpt lat="41.28181038453587" lon="14.091349939144909"><ele>186.0</ele><time>2026-03-26T16:03:36Z</time></trkpt><trkpt lat="41.28149075006463" lon="14.091357875556747"><ele>186.0</ele><time>2026-03-26T16:03:37Z</time></trkpt><trkpt lat="41.28117198792823" lon="14.091362678199204"><ele>185.0</ele><time>2026-03-26T16:03:38Z</time></trkpt><trkpt lat="41.280853015943215" lon="14.091369921081421"><ele>184.0</ele><time>2026-03-26T16:03:39Z</time></trkpt><trkpt lat="41.28053384729088" lon="14.09138181025154"><ele>184.0</ele><time>2026-03-26T16:03:40Z</time></trkpt><trkpt lat="41.28021748985034" lon="14.091392860604788"><ele>184.0</ele><time>2026-03-26T16:03:41Z</time></trkpt><trkpt lat="41.279898016822216" lon="14.091407235913328"><ele>181.0</ele><time>2026-03-26T16:03:42Z</time></trkpt><trkpt lat="41.2795784303857" lon="14.091422379651261"><ele>178.0</ele><time>2026-03-26T16:03:43Z</time></trkpt><trkpt lat="41.279261368999535" lon="14.091435986559771"><ele>178.0</ele><time>2026-03-26T16:03:44Z</time></trkpt><trkpt lat="41.278941913056315" lon="14.091449960575913"><ele>178.0</ele><time>2026-03-26T16:03:45Z</time></trkpt><trkpt lat="41.278621422454705" lon="14.091461823221909"><ele>179.0</ele><time>2026-03-26T16:03:46Z</time></trkpt><trkpt lat="41.278302061165306" lon="14.091472748567154"><ele>180.0</ele><time>2026-03-26T16:03:47Z</time></trkpt><trkpt lat="41.27798306523605" lon="14.091482669445625"><ele>181.0</ele><time>2026-03-26T16:03:48Z</time></trkpt><trkpt lat="41.27766362941234" lon="14.091490140131226"><ele>182.0</ele><time>2026-03-26T16:03:49Z</time></trkpt><trkpt lat="41.27734330431141" lon="14.091497331599452"><ele>183.5</ele><time>2026-03-26T16:03:50Z</time></trkpt><trkpt lat="41.27702202581249" lon="14.091505656022564"><ele>185.0</ele><time>2026-03-26T16:03:51Z</time></trkpt><trkpt lat="41.27670213359504" lon="14.09151702968481"><ele>187.5</ele><time>2026-03-26T16:03:52Z</time></trkpt><trkpt lat="41.27638179326093" lon="14.091528657409619"><ele>190.0</ele><time>2026-03-26T16:03:53Z</time></trkpt><trkpt lat="41.27606238636778" lon="14.091537483104675"><ele>190.0</ele><time>2026-03-26T16:03:54Z</time></trkpt><trkpt lat="41.27574362807715" lon="14.091538941688395"><ele>190.0</ele><time>2026-03-26T16:03:55Z</time></trkpt><trkpt lat="41.27542527570014" lon="14.091540246103465"><ele>190.5</ele><time>2026-03-26T16:03:56Z</time></trkpt><trkpt lat="41.27510594816671" lon="14.091544467794579"><ele>191.0</ele><time>2026-03-26T16:03:57Z</time></trkpt><trkpt lat="41.27478625040286" lon="14.091551695691681"><ele>192.0</ele><time>2026-03-26T16:03:58Z</time></trkpt><trkpt lat="41.274465603939" lon="14.091558451110687"><ele>193.0</ele><time>2026-03-26T16:03:59Z</time></trkpt><trkpt lat="41.27414467307993" lon="14.091566753352309"><ele>191.5</ele><time>2026-03-26T16:04:00Z</time></trkpt><trkpt lat="41.27382232328058" lon="14.091576047775316"><ele>190.0</ele><time>2026-03-26T16:04:01Z</time></trkpt><trkpt lat="41.27349993084498" lon="14.091585835910283"><ele>189.5</ele><time>2026-03-26T16:04:02Z</time></trkpt><trkpt lat="41.273174288180066" lon="14.091594653735994"><ele>189.0</ele><time>2026-03-26T16:04:03Z</time></trkpt><trkpt lat="41.272849990811736" lon="14.091602172160338"><ele>188.0</ele><time>2026-03-26T16:04:04Z</time></trkpt><trkpt lat="41.27252493208334" lon="14.091609523016144"><ele>187.0</ele><time>2026-03-26T16:04:05Z</time></trkpt><trkpt lat="41.272195933723935" lon="14.091618687314122"><ele>186.0</ele><time>2026-03-26T16:04:06Z</time></trkpt><trkpt lat="41.27186635466837" lon="14.091628007793194"><ele>185.0</ele><time>2026-03-26T16:04:07Z</time></trkpt><trkpt lat="41.27153502778627" lon="14.091636974509264"><ele>183.5</ele><time>2026-03-26T16:04:08Z</time></trkpt><trkpt lat="41.27120076672181" lon="14.091646368464728"><ele>182.0</ele><time>2026-03-26T16:04:09Z</time></trkpt><trkpt lat="41.27086424751001" lon="14.091655728658775"><ele>180.5</ele><time>2026-03-26T16:04:10Z</time></trkpt><trkpt lat="41.27052693100923" lon="14.09166636599682"><ele>179.0</ele><time>2026-03-26T16:04:11Z</time></trkpt><trkpt lat="41.2701870356333" lon="14.09167739365906"><ele>179.0</ele><time>2026-03-26T16:04:12Z</time></trkpt><trkpt lat="41.26984739175552" lon="14.091684848477968"><ele>179.0</ele><time>2026-03-26T16:04:13Z</time></trkpt><trkpt lat="41.26950714817475" lon="14.091690847512066"><ele>176.0</ele><time>2026-03-26T16:04:14Z</time></trkpt><trkpt lat="41.26916822143268" lon="14.091699076427627"><ele>173.0</ele><time>2026-03-26T16:04:15Z</time></trkpt><trkpt lat="41.26882873638221" lon="14.091703065223653"><ele>173.0</ele><time>2026-03-26T16:04:16Z</time></trkpt><trkpt lat="41.268489201853946" lon="14.091706992630044"><ele>173.0</ele><time>2026-03-26T16:04:17Z</time></trkpt><trkpt lat="41.268150011557445" lon="14.091711393242266"><ele>174.0</ele><time>2026-03-26T16:04:18Z</time></trkpt><trkpt lat="41.26781226568305" lon="14.091719151557255"><ele>175.0</ele><time>2026-03-26T16:04:19Z</time></trkpt><trkpt lat="41.26747448349503" lon="14.091723454091898"><ele>173.0</ele><time>2026-03-26T16:04:20Z</time></trkpt><trkpt lat="41.267136242627664" lon="14.091730684572449"><ele>171.0</ele><time>2026-03-26T16:04:21Z</time></trkpt><trkpt lat="41.2667978908748" lon="14.091736877781761"><ele>171.0</ele><time>2026-03-26T16:04:21.999Z</time></trkpt><trkpt lat="41.26645890021718" lon="14.091743290544509"><ele>171.0</ele><time>2026-03-26T16:04:22.999Z</time></trkpt><trkpt lat="41.26611989311039" lon="14.0917505080577"><ele>169.0</ele><time>2026-03-26T16:04:23.999Z</time></trkpt><trkpt lat="41.26578102763452" lon="14.09175902077267"><ele>167.0</ele><time>2026-03-26T16:04:24.999Z</time></trkpt><trkpt lat="41.26544349581547" lon="14.091767061133064"><ele>164.5</ele><time>2026-03-26T16:04:25.999Z</time></trkpt><trkpt lat="41.265107034761115" lon="14.091773740790929"><ele>162.0</ele><time>2026-03-26T16:04:26.999Z</time></trkpt><trkpt lat="41.26477073903412" lon="14.091783181191623"><ele>159.0</ele><time>2026-03-26T16:04:27.999Z</time></trkpt><trkpt lat="41.264435201413896" lon="14.091793849007818"><ele>156.0</ele><time>2026-03-26T16:04:28.999Z</time></trkpt><trkpt lat="41.264101401538866" lon="14.091811386263544"><ele>153.0</ele><time>2026-03-26T16:04:29.999Z</time></trkpt><trkpt lat="41.26376730960024" lon="14.091827721400795"><ele>150.0</ele><time>2026-03-26T16:04:30.999Z</time></trkpt><trkpt lat="41.26343407735439" lon="14.091837938886462"><ele>150.5</ele><time>2026-03-26T16:04:31.999Z</time></trkpt><trkpt lat="41.263105950845016" lon="14.091843723644816"><ele>151.0</ele><time>2026-03-26T16:04:32.999Z</time></trkpt><trkpt lat="41.26277635941081" lon="14.09185379073108"><ele>151.0</ele><time>2026-03-26T16:04:33.999Z</time></trkpt><trkpt lat="41.26244874573754" lon="14.091860923807829"><ele>151.0</ele><time>2026-03-26T16:04:34.999Z</time></trkpt><trkpt lat="41.26212433333831" lon="14.09186708228312"><ele>154.0</ele><time>2026-03-26T16:04:35.999Z</time></trkpt><trkpt lat="41.26180110927047" lon="14.091873919751285"><ele>157.0</ele><time>2026-03-26T16:04:36.999Z</time></trkpt><trkpt lat="41.2614797451323" lon="14.091880235108306"><ele>160.0</ele><time>2026-03-26T16:04:37.999Z</time></trkpt><trkpt lat="41.26115964197996" lon="14.091887341474399"><ele>163.0</ele><time>2026-03-26T16:04:38.999Z</time></trkpt><trkpt lat="41.26083996820331" lon="14.091897084537573"><ele>165.0</ele><time>2026-03-26T16:04:39.999Z</time></trkpt><trkpt lat="41.26052233682484" lon="14.091907960209529"><ele>167.0</ele><time>2026-03-26T16:04:40.999Z</time></trkpt><trkpt lat="41.26020466874307" lon="14.091913411566678"><ele>167.0</ele><time>2026-03-26T16:04:41.999Z</time></trkpt><trkpt lat="41.25988759096733" lon="14.091917096801566"><ele>167.0</ele><time>2026-03-26T16:04:42.999Z</time></trkpt><trkpt lat="41.25957248598493" lon="14.0919179995954"><ele>167.0</ele><time>2026-03-26T16:04:43.999Z</time></trkpt><trkpt lat="41.259257817663055" lon="14.091918470194543"><ele>167.0</ele><time>2026-03-26T16:04:44.999Z</time></trkpt><trkpt lat="41.25894160160418" lon="14.091916060882504"><ele>169.0</ele><time>2026-03-26T16:04:45.999Z</time></trkpt><trkpt lat="41.25862499763884" lon="14.091915199592107"><ele>171.0</ele><time>2026-03-26T16:04:46.999Z</time></trkpt><trkpt lat="41.25830718419564" lon="14.091915509595438"><ele>170.5</ele><time>2026-03-26T16:04:47.999Z</time></trkpt><trkpt lat="41.25798980983834" lon="14.091918617924485"><ele>170.0</ele><time>2026-03-26T16:04:48.999Z</time></trkpt><trkpt lat="41.25767324653957" lon="14.09192380055755"><ele>170.0</ele><time>2026-03-26T16:04:49.999Z</time></trkpt><trkpt lat="41.25735894019355" lon="14.091930705962644"><ele>170.0</ele><time>2026-03-26T16:04:50.999Z</time></trkpt><trkpt lat="41.25704349255293" lon="14.0919378127631"><ele>168.5</ele><time>2026-03-26T16:04:51.999Z</time></trkpt><trkpt lat="41.256726712759225" lon="14.091943694010515"><ele>167.0</ele><time>2026-03-26T16:04:52.999Z</time></trkpt><trkpt lat="41.25641001523666" lon="14.091948063223045"><ele>166.5</ele><time>2026-03-26T16:04:53.999Z</time></trkpt><trkpt lat="41.256093468273015" lon="14.091952082835638"><ele>166.0</ele><time>2026-03-26T16:04:54.999Z</time></trkpt><trkpt lat="41.25577576231182" lon="14.091958345732886"><ele>164.5</ele><time>2026-03-26T16:04:55.999Z</time></trkpt><trkpt lat="41.255454034130246" lon="14.09196600908008"><ele>163.0</ele><time>2026-03-26T16:04:56.999Z</time></trkpt><trkpt lat="41.25513260543921" lon="14.091972393275512"><ele>163.0</ele><time>2026-03-26T16:04:57.999Z</time></trkpt><trkpt lat="41.254809101161854" lon="14.091979996070624"><ele>163.0</ele><time>2026-03-26T16:04:58.999Z</time></trkpt><trkpt lat="41.25448291325719" lon="14.091986868461674"><ele>162.5</ele><time>2026-03-26T16:04:59.999Z</time></trkpt><trkpt lat="41.25415648588813" lon="14.091994157232046"><ele>162.0</ele><time>2026-03-26T16:05:00.999Z</time></trkpt><trkpt lat="41.25382700997127" lon="14.09200047038641"><ele>161.0</ele><time>2026-03-26T16:05:01.999Z</time></trkpt><trkpt lat="41.253497129274145" lon="14.092007234641589"><ele>160.0</ele><time>2026-03-26T16:05:02.999Z</time></trkpt><trkpt lat="41.25316873596702" lon="14.092016789850195"><ele>159.0</ele><time>2026-03-26T16:05:03.999Z</time></trkpt><trkpt lat="41.252839743581895" lon="14.092028086744412"><ele>158.0</ele><time>2026-03-26T16:05:04.999Z</time></trkpt><trkpt lat="41.252514511819136" lon="14.092037295840274"><ele>156.5</ele><time>2026-03-26T16:05:05.999Z</time></trkpt><trkpt lat="41.2521897487852" lon="14.092044877481573"><ele>155.0</ele><time>2026-03-26T16:05:06.999Z</time></trkpt><trkpt lat="41.2518637301901" lon="14.09205374674221"><ele>155.0</ele><time>2026-03-26T16:05:07.999Z</time></trkpt><trkpt lat="41.251538139364506" lon="14.092060767059413"><ele>155.0</ele><time>2026-03-26T16:05:08.999Z</time></trkpt><trkpt lat="41.25120989210908" lon="14.092069310918635"><ele>152.5</ele><time>2026-03-26T16:05:09.999Z</time></trkpt><trkpt lat="41.25088149210922" lon="14.092080628170391"><ele>150.0</ele><time>2026-03-26T16:05:10.999Z</time></trkpt><trkpt lat="41.250553051560374" lon="14.09209638751301"><ele>149.5</ele><time>2026-03-26T16:05:11.999Z</time></trkpt><trkpt lat="41.250225407645964" lon="14.092114928129444"><ele>149.0</ele><time>2026-03-26T16:05:12.999Z</time></trkpt><trkpt lat="41.249899043786584" lon="14.092132780400567"><ele>148.5</ele><time>2026-03-26T16:05:13.999Z</time></trkpt><trkpt lat="41.2495734327601" lon="14.092146873417748"><ele>148.0</ele><time>2026-03-26T16:05:14.999Z</time></trkpt><trkpt lat="41.24924826433053" lon="14.092158198403348"><ele>147.5</ele><time>2026-03-26T16:05:15.999Z</time></trkpt><trkpt lat="41.2489246350074" lon="14.092167906736197"><ele>147.0</ele><time>2026-03-26T16:05:16.999Z</time></trkpt><trkpt lat="41.24860181913633" lon="14.092174722742008"><ele>147.0</ele><time>2026-03-26T16:05:17.999Z</time></trkpt><trkpt lat="41.24827988830893" lon="14.092175592916151"><ele>147.0</ele><time>2026-03-26T16:05:18.999Z</time></trkpt><trkpt lat="41.24795859854103" lon="14.092173048684945"><ele>146.0</ele><time>2026-03-26T16:05:19.999Z</time></trkpt><trkpt lat="41.24763794917381" lon="14.09217059180819"><ele>145.0</ele><time>2026-03-26T16:05:20.999Z</time></trkpt><trkpt lat="41.24731935731096" lon="14.092170270247346"><ele>144.0</ele><time>2026-03-26T16:05:21.999Z</time></trkpt><trkpt lat="41.24700070620617" lon="14.092172862098167"><ele>143.0</ele><time>2026-03-26T16:05:22.999Z</time></trkpt><trkpt lat="41.24668454315105" lon="14.092176820308557"><ele>142.0</ele><time>2026-03-26T16:05:23.999Z</time></trkpt><trkpt lat="41.24636881333083" lon="14.09218274533213"><ele>141.0</ele><time>2026-03-26T16:05:24.999Z</time></trkpt><trkpt lat="41.24605683058411" lon="14.09218892011053"><ele>141.0</ele><time>2026-03-26T16:05:25.999Z</time></trkpt><trkpt lat="41.245745508124834" lon="14.09219555124567"><ele>141.0</ele><time>2026-03-26T16:05:26.999Z</time></trkpt><trkpt lat="41.24543580702884" lon="14.092202641963869"><ele>142.5</ele><time>2026-03-26T16:05:27.999Z</time></trkpt><trkpt lat="41.24512695302754" lon="14.092211488511946"><ele>144.0</ele><time>2026-03-26T16:05:28.999Z</time></trkpt><trkpt lat="41.24481893255254" lon="14.092221105350404"><ele>143.0</ele><time>2026-03-26T16:05:29.999Z</time></trkpt><trkpt lat="41.24451856809268" lon="14.092229382918065"><ele>142.0</ele><time>2026-03-26T16:05:30.999Z</time></trkpt><trkpt lat="41.2442337021792" lon="14.09223589415242"><ele>141.0</ele><time>2026-03-26T16:05:31.999Z</time></trkpt><trkpt lat="41.24395379627038" lon="14.09224267193845"><ele>140.0</ele><time>2026-03-26T16:05:32.999Z</time></trkpt><trkpt lat="41.2436751642152" lon="14.092249786935591"><ele>140.0</ele><time>2026-03-26T16:05:34Z</time></trkpt><trkpt lat="41.24339957429563" lon="14.09225593499821"><ele>140.0</ele><time>2026-03-26T16:05:35Z</time></trkpt><trkpt lat="41.24313194852861" lon="14.092261723074277"><ele>139.0</ele><time>2026-03-26T16:05:36Z</time></trkpt><trkpt lat="41.24287464527734" lon="14.092267120798372"><ele>138.0</ele><time>2026-03-26T16:05:37Z</time></trkpt><trkpt lat="41.24261899709081" lon="14.092274462313695"><ele>138.0</ele><time>2026-03-26T16:05:38Z</time></trkpt><trkpt lat="41.24236146531632" lon="14.092281175378975"><ele>138.0</ele><time>2026-03-26T16:05:39Z</time></trkpt><trkpt lat="41.24210487993002" lon="14.092286431935399"><ele>137.0</ele><time>2026-03-26T16:05:40Z</time></trkpt><trkpt lat="41.2418484152023" lon="14.09229082625921"><ele>136.0</ele><time>2026-03-26T16:05:41Z</time></trkpt><trkpt lat="41.24159023297723" lon="14.092294038516448"><ele>134.5</ele><time>2026-03-26T16:05:42Z</time></trkpt><trkpt lat="41.24133485989939" lon="14.092300006527134"><ele>133.0</ele><time>2026-03-26T16:05:43Z</time></trkpt><trkpt lat="41.24109128275471" lon="14.092306352035939"><ele>133.0</ele><time>2026-03-26T16:05:44Z</time></trkpt><trkpt lat="41.240858330091065" lon="14.092310752156843"><ele>133.0</ele><time>2026-03-26T16:05:45Z</time></trkpt><trkpt lat="41.24062773098353" lon="14.092317009979581"><ele>131.0</ele><time>2026-03-26T16:05:46Z</time></trkpt><trkpt lat="41.24039613094318" lon="14.092323258063669"><ele>129.0</ele><time>2026-03-26T16:05:47Z</time></trkpt><trkpt lat="41.240163536336446" lon="14.0923282832117"><ele>129.0</ele><time>2026-03-26T16:05:48Z</time></trkpt><trkpt lat="41.239927699960454" lon="14.092333516992007"><ele>129.0</ele><time>2026-03-26T16:05:49Z</time></trkpt><trkpt lat="41.239689526501714" lon="14.092338336331599"><ele>128.0</ele><time>2026-03-26T16:05:50Z</time></trkpt><trkpt lat="41.239450260748896" lon="14.092343383984668"><ele>127.0</ele><time>2026-03-26T16:05:51Z</time></trkpt><trkpt lat="41.239213774157946" lon="14.092347498091746"><ele>127.0</ele><time>2026-03-26T16:05:52Z</time></trkpt><trkpt lat="41.23897364820529" lon="14.092355374835844"><ele>127.0</ele><time>2026-03-26T16:05:53Z</time></trkpt><trkpt lat="41.238732003269" lon="14.092363349100546"><ele>125.0</ele><time>2026-03-26T16:05:54Z</time></trkpt><trkpt lat="41.238489095930255" lon="14.092368626368444"><ele>123.0</ele><time>2026-03-26T16:05:55Z</time></trkpt><trkpt lat="41.23824506994441" lon="14.092373821274377"><ele>119.5</ele><time>2026-03-26T16:05:56Z</time></trkpt><trkpt lat="41.237999514918606" lon="14.092378574208851"><ele>116.0</ele><time>2026-03-26T16:05:57Z</time></trkpt><trkpt lat="41.23775594495619" lon="14.092379719615224"><ele>116.0</ele><time>2026-03-26T16:05:58Z</time></trkpt><trkpt lat="41.23751885494421" lon="14.092377973413523"><ele>116.0</ele><time>2026-03-26T16:05:59Z</time></trkpt><trkpt lat="41.23729504293761" lon="14.092374484052085"><ele>116.66666666666666</ele><time>2026-03-26T16:06:00Z</time></trkpt><trkpt lat="41.23708656957748" lon="14.09237240675811"><ele>117.33333333333334</ele><time>2026-03-26T16:06:01Z</time></trkpt><trkpt lat="41.236887777367556" lon="14.092374063744415"><ele>118.0</ele><time>2026-03-26T16:06:02Z</time></trkpt><trkpt lat="41.2367022467804" lon="14.092377438960293"><ele>118.0</ele><time>2026-03-26T16:06:03Z</time></trkpt><trkpt lat="41.23652800220287" lon="14.092381047144285"><ele>118.0</ele><time>2026-03-26T16:06:04Z</time></trkpt><trkpt lat="41.23636170447604" lon="14.092385095927666"><ele>118.0</ele><time>2026-03-26T16:06:05Z</time></trkpt><trkpt lat="41.23620053760996" lon="14.092389964771785"><ele>117.0</ele><time>2026-03-26T16:06:06Z</time></trkpt><trkpt lat="41.236045360833934" lon="14.092394472368815"><ele>116.0</ele><time>2026-03-26T16:06:07Z</time></trkpt><trkpt lat="41.235897996366646" lon="14.092394061392186"><ele>115.0</ele><time>2026-03-26T16:06:08Z</time></trkpt><trkpt lat="41.2357622532929" lon="14.09237996000323"><ele>114.0</ele><time>2026-03-26T16:06:09Z</time></trkpt><trkpt lat="41.235641458711406" lon="14.092343600318854"><ele>113.6</ele><time>2026-03-26T16:06:10Z</time></trkpt><trkpt lat="41.23553364896448" lon="14.092286639135038"><ele>113.2</ele><time>2026-03-26T16:06:11Z</time></trkpt><trkpt lat="41.23543798637816" lon="14.09222527294149"><ele>112.79999999999998</ele><time>2026-03-26T16:06:12Z</time></trkpt><trkpt lat="41.23535221728185" lon="14.092178134820088"><ele>112.39999999999999</ele><time>2026-03-26T16:06:13Z</time></trkpt><trkpt lat="41.23526278431413" lon="14.09215239864812"><ele>112.0</ele><time>2026-03-26T16:06:14Z</time></trkpt><trkpt lat="41.23517104785742" lon="14.092146856675601"><ele>112.0</ele><time>2026-03-26T16:06:15Z</time></trkpt><trkpt lat="41.235071527214345" lon="14.092158794085808"><ele>111.99999999999999</ele><time>2026-03-26T16:06:16Z</time></trkpt><trkpt lat="41.23496609758387" lon="14.092190215791675"><ele>111.99999999999999</ele><time>2026-03-26T16:06:17Z</time></trkpt><trkpt lat="41.234863025564245" lon="14.092216766282142"><ele>112.0</ele><time>2026-03-26T16:06:18Z</time></trkpt><trkpt lat="41.23476880023847" lon="14.092240104356147"><ele>112.0</ele><time>2026-03-26T16:06:19Z</time></trkpt><trkpt lat="41.2346867210935" lon="14.09225884443365"><ele>111.83333333333334</ele><time>2026-03-26T16:06:20Z</time></trkpt><trkpt lat="41.234606337076386" lon="14.092277830834213"><ele>111.66666666666667</ele><time>2026-03-26T16:06:21Z</time></trkpt><trkpt lat="41.234525890835556" lon="14.092296513508524"><ele>111.5</ele><time>2026-03-26T16:06:22Z</time></trkpt><trkpt lat="41.23444199182589" lon="14.092315566367503"><ele>111.33333333333334</ele><time>2026-03-26T16:06:23Z</time></trkpt><trkpt lat="41.23434980069824" lon="14.0923358790948"><ele>111.16666666666667</ele><time>2026-03-26T16:06:24Z</time></trkpt><trkpt lat="41.23426045082944" lon="14.09235471062762"><ele>111.0</ele><time>2026-03-26T16:06:25Z</time></trkpt><trkpt lat="41.23418021379641" lon="14.092369942306801"><ele>111.0</ele><time>2026-03-26T16:06:26Z</time></trkpt><trkpt lat="41.23410724380377" lon="14.092382075676747"><ele>111.0</ele><time>2026-03-26T16:06:26.999Z</time></trkpt><trkpt lat="41.23404395681816" lon="14.0923893999762"><ele>111.0</ele><time>2026-03-26T16:06:27.999Z</time></trkpt><trkpt lat="41.23393339712737" lon="14.092389842526416"><ele>111.0</ele><time>2026-03-26T16:06:29.999Z</time></trkpt><trkpt lat="41.23382935991765" lon="14.09237296710311"><ele>111.0</ele><time>2026-03-26T16:06:31.999Z</time></trkpt><trkpt lat="41.23371769212359" lon="14.092372819296804"><ele>110.5</ele><time>2026-03-26T16:06:33.999Z</time></trkpt><trkpt lat="41.23365186125802" lon="14.092387176271739"><ele>110.0</ele><time>2026-03-26T16:06:34.999Z</time></trkpt><trkpt lat="41.23354046216485" lon="14.092413838953723"><ele>109.5</ele><time>2026-03-26T16:06:36.999Z</time></trkpt><trkpt lat="41.23345739538274" lon="14.092415807840869"><ele>109.0</ele><time>2026-03-26T16:06:39.999Z</time></trkpt><trkpt lat="41.233391341612645" lon="14.092417246768312"><ele>108.5</ele><time>2026-03-26T16:09:06.999Z</time></trkpt><trkpt lat="41.23347342044537" lon="14.09241602591572"><ele>108.0</ele><time>2026-03-26T17:00:03.999Z</time></trkpt><trkpt lat="41.23354824197884" lon="14.092407510147883"><ele>108.0</ele><time>2026-03-26T17:00:06.001Z</time></trkpt><trkpt lat="41.2336602042963" lon="14.092375668228746"><ele>108.00000000000001</ele><time>2026-03-26T17:00:08.001Z</time></trkpt><trkpt lat="41.23373642060876" lon="14.09235428374535"><ele>108.00000000000001</ele><time>2026-03-26T17:00:10.001Z</time></trkpt><trkpt lat="41.23379888983311" lon="14.092300124779756"><ele>108.0</ele><time>2026-03-26T17:00:13.001Z</time></trkpt><trkpt lat="41.23382199361678" lon="14.092195232679945"><ele>108.0</ele><time>2026-03-26T17:00:15.001Z</time></trkpt><trkpt lat="41.233804248226456" lon="14.092058350743315"><ele>108.0</ele><time>2026-03-26T17:00:17.001Z</time></trkpt><trkpt lat="41.23378047850643" lon="14.091894540976998"><ele>108.00000000000001</ele><time>2026-03-26T17:00:19.001Z</time></trkpt><trkpt lat="41.23377022793437" lon="14.091811659858681"><ele>108.00000000000001</ele><time>2026-03-26T17:00:20Z</time></trkpt><trkpt lat="41.233742319826696" lon="14.091680629005575"><ele>108.0</ele><time>2026-03-26T17:00:22Z</time></trkpt><trkpt lat="41.23365151082434" lon="14.091591421662567"><ele>108.0</ele><time>2026-03-26T17:00:24Z</time></trkpt><trkpt lat="41.233544339735374" lon="14.0915239562734"><ele>108.0</ele><time>2026-03-26T17:00:26Z</time></trkpt><trkpt lat="41.233467506160494" lon="14.091575280778278"><ele>108.0</ele><time>2026-03-26T17:00:27Z</time></trkpt><trkpt lat="41.23339731525224" lon="14.091592996545602"><ele>108.0</ele><time>2026-03-26T17:00:28Z</time></trkpt><trkpt lat="41.23332273128109" lon="14.091615555503804"><ele>108.0</ele><time>2026-03-26T17:00:29Z</time></trkpt><trkpt lat="41.233245305839624" lon="14.091639296551147"><ele>108.0</ele><time>2026-03-26T17:00:30Z</time></trkpt><trkpt lat="41.233173690258496" lon="14.091665583830125"><ele>108.0</ele><time>2026-03-26T17:00:31Z</time></trkpt><trkpt lat="41.23311202824672" lon="14.091698249986143"><ele>107.66666666666667</ele><time>2026-03-26T17:00:32Z</time></trkpt><trkpt lat="41.233040545169004" lon="14.091787268555107"><ele>107.33333333333334</ele><time>2026-03-26T17:00:34Z</time></trkpt><trkpt lat="41.2329478392954" lon="14.09188084330913"><ele>107.0</ele><time>2026-03-26T17:00:36Z</time></trkpt><trkpt lat="41.232953780311924" lon="14.09196720518337"><ele>106.66666666666667</ele><time>2026-03-26T17:00:39Z</time></trkpt><trkpt lat="41.232966975702645" lon="14.09205788543574"><ele>106.33333333333334</ele><time>2026-03-26T17:00:43Z</time></trkpt><trkpt lat="41.23297258952278" lon="14.09214942288204"><ele>106.0</ele><time>2026-03-26T17:03:29Z</time></trkpt><trkpt lat="41.232950470134156" lon="14.09224367936158"><ele>106.00000000000001</ele><time>2026-03-26T17:04:44Z</time></trkpt><trkpt lat="41.232930498289065" lon="14.09233188959934"><ele>106.0</ele><time>2026-03-26T17:04:49Z</time></trkpt><trkpt lat="41.23288411857059" lon="14.092399005033853"><ele>106.0</ele><time>2026-03-26T17:07:11Z</time></trkpt><trkpt lat="41.232826705590625" lon="14.09247707567043"><ele>106.0</ele><time>2026-03-26T17:07:13Z</time></trkpt><trkpt lat="41.23277197734242" lon="14.09254317513148"><ele>106.00000000000001</ele><time>2026-03-26T17:07:15Z</time></trkpt><trkpt lat="41.232686542849336" lon="14.092600208245655"><ele>106.0</ele><time>2026-03-26T17:07:17Z</time></trkpt><trkpt lat="41.23255624568291" lon="14.092688828836364"><ele>105.8</ele><time>2026-03-26T17:07:19Z</time></trkpt><trkpt lat="41.23252281133142" lon="14.092785912115458"><ele>105.6</ele><time>2026-03-26T17:07:20Z</time></trkpt><trkpt lat="41.23244516147005" lon="14.092854904844073"><ele>105.4</ele><time>2026-03-26T17:07:21Z</time></trkpt><trkpt lat="41.23235918263668" lon="14.092922282359549"><ele>105.2</ele><time>2026-03-26T17:07:22Z</time></trkpt><trkpt lat="41.23226401210445" lon="14.092996029116609"><ele>105.0</ele><time>2026-03-26T17:07:23Z</time></trkpt><trkpt lat="41.232168428100735" lon="14.093075732223198"><ele>104.75</ele><time>2026-03-26T17:07:24Z</time></trkpt><trkpt lat="41.23206335334258" lon="14.093159560404098"><ele>104.5</ele><time>2026-03-26T17:07:25Z</time></trkpt><trkpt lat="41.23194611918024" lon="14.093232592949075"><ele>104.25</ele><time>2026-03-26T17:07:26Z</time></trkpt><trkpt lat="41.231823700971596" lon="14.09330115968783"><ele>104.0</ele><time>2026-03-26T17:07:27Z</time></trkpt><trkpt lat="41.231690236565555" lon="14.093365626219855"><ele>103.66666666666666</ele><time>2026-03-26T17:07:28Z</time></trkpt><trkpt lat="41.23154984549597" lon="14.093431092244435"><ele>103.33333333333334</ele><time>2026-03-26T17:07:29Z</time></trkpt><trkpt lat="41.231391312203264" lon="14.093503472605208"><ele>103.0</ele><time>2026-03-26T17:07:30Z</time></trkpt><trkpt lat="41.23122779325084" lon="14.093575226733183"><ele>103.66666666666667</ele><time>2026-03-26T17:07:31Z</time></trkpt><trkpt lat="41.23105813956905" lon="14.093648940671672"><ele>104.33333333333334</ele><time>2026-03-26T17:07:32Z</time></trkpt><trkpt lat="41.230878916295886" lon="14.093725490220308"><ele>105.0</ele><time>2026-03-26T17:07:33Z</time></trkpt><trkpt lat="41.230694874272146" lon="14.093811129781383"><ele>104.33333333333334</ele><time>2026-03-26T17:07:34Z</time></trkpt><trkpt lat="41.230497112394424" lon="14.093909552548018"><ele>103.66666666666667</ele><time>2026-03-26T17:07:35Z</time></trkpt><trkpt lat="41.2303038217778" lon="14.093994786136761"><ele>103.0</ele><time>2026-03-26T17:07:36Z</time></trkpt><trkpt lat="41.23009301176099" lon="14.094088443814833"><ele>103.0</ele><time>2026-03-26T17:07:37Z</time></trkpt><trkpt lat="41.2298790622091" lon="14.094183560527384"><ele>103.0</ele><time>2026-03-26T17:07:38Z</time></trkpt><trkpt lat="41.22965814465677" lon="14.094274986989877"><ele>101.5</ele><time>2026-03-26T17:07:39Z</time></trkpt><trkpt lat="41.22943290474041" lon="14.094369940251054"><ele>100.0</ele><time>2026-03-26T17:07:40Z</time></trkpt><trkpt lat="41.2292008654715" lon="14.094469591698331"><ele>99.5</ele><time>2026-03-26T17:07:41Z</time></trkpt><trkpt lat="41.228966161861166" lon="14.09457135464164"><ele>99.0</ele><time>2026-03-26T17:07:42Z</time></trkpt><trkpt lat="41.22872541693452" lon="14.09467504651447"><ele>99.0</ele><time>2026-03-26T17:07:43Z</time></trkpt><trkpt lat="41.22847819197953" lon="14.094781357066875"><ele>99.0</ele><time>2026-03-26T17:07:44Z</time></trkpt><trkpt lat="41.22822442451862" lon="14.094886272879709"><ele>97.5</ele><time>2026-03-26T17:07:45Z</time></trkpt><trkpt lat="41.2279666974841" lon="14.094991915930956"><ele>96.0</ele><time>2026-03-26T17:07:46Z</time></trkpt><trkpt lat="41.22770266569199" lon="14.095098053795567"><ele>96.0</ele><time>2026-03-26T17:07:47Z</time></trkpt><trkpt lat="41.227434868436035" lon="14.095206766701342"><ele>96.0</ele><time>2026-03-26T17:07:48Z</time></trkpt><trkpt lat="41.227166289910905" lon="14.095319108772081"><ele>96.0</ele><time>2026-03-26T17:07:49Z</time></trkpt><trkpt lat="41.226892495751166" lon="14.095437014222554"><ele>96.0</ele><time>2026-03-26T17:07:50Z</time></trkpt><trkpt lat="41.2266148278317" lon="14.09555411977507"><ele>96.5</ele><time>2026-03-26T17:07:51Z</time></trkpt><trkpt lat="41.22633859861205" lon="14.09567419195741"><ele>97.0</ele><time>2026-03-26T17:07:52Z</time></trkpt><trkpt lat="41.226058866900075" lon="14.095793807301112"><ele>95.5</ele><time>2026-03-26T17:07:53Z</time></trkpt><trkpt lat="41.22577687804884" lon="14.09591292925815"><ele>94.0</ele><time>2026-03-26T17:07:54Z</time></trkpt><trkpt lat="41.225493324365395" lon="14.096033633677754"><ele>93.5</ele><time>2026-03-26T17:07:54.999Z</time></trkpt><trkpt lat="41.22521016164562" lon="14.096153543846201"><ele>93.0</ele><time>2026-03-26T17:07:55.999Z</time></trkpt><trkpt lat="41.224924944154324" lon="14.096274648936275"><ele>88.0</ele><time>2026-03-26T17:07:56.999Z</time></trkpt><trkpt lat="41.22464095959248" lon="14.096394427368795"><ele>83.0</ele><time>2026-03-26T17:07:57.999Z</time></trkpt><trkpt lat="41.224358258479306" lon="14.096512286925115"><ele>81.5</ele><time>2026-03-26T17:07:58.999Z</time></trkpt><trkpt lat="41.22407531671635" lon="14.096625657326815"><ele>80.0</ele><time>2026-03-26T17:07:59.999Z</time></trkpt><trkpt lat="41.2237942821865" lon="14.096737768438768"><ele>74.5</ele><time>2026-03-26T17:08:00.999Z</time></trkpt><trkpt lat="41.223517284052946" lon="14.096852719362994"><ele>69.0</ele><time>2026-03-26T17:08:01.999Z</time></trkpt><trkpt lat="41.22324007224576" lon="14.096973099322927"><ele>67.5</ele><time>2026-03-26T17:08:02.999Z</time></trkpt><trkpt lat="41.22296504911377" lon="14.097092576447972"><ele>66.0</ele><time>2026-03-26T17:08:03.999Z</time></trkpt><trkpt lat="41.22269203089274" lon="14.09721132594825"><ele>66.0</ele><time>2026-03-26T17:08:04.999Z</time></trkpt><trkpt lat="41.222421667034276" lon="14.097330176869912"><ele>66.0</ele><time>2026-03-26T17:08:05.999Z</time></trkpt><trkpt lat="41.22215334898704" lon="14.097444107494841"><ele>75.5</ele><time>2026-03-26T17:08:06.999Z</time></trkpt><trkpt lat="41.2218837478988" lon="14.097554868004565"><ele>85.0</ele><time>2026-03-26T17:08:07.999Z</time></trkpt><trkpt lat="41.22161675451106" lon="14.097663678359828"><ele>87.5</ele><time>2026-03-26T17:08:08.999Z</time></trkpt><trkpt lat="41.22135000229436" lon="14.097772810064656"><ele>90.0</ele><time>2026-03-26T17:08:09.999Z</time></trkpt><trkpt lat="41.22108485106068" lon="14.097882608565168"><ele>90.0</ele><time>2026-03-26T17:08:10.999Z</time></trkpt><trkpt lat="41.22082070417879" lon="14.097994965849198"><ele>90.0</ele><time>2026-03-26T17:08:11.999Z</time></trkpt><trkpt lat="41.22055805884738" lon="14.098108213485308"><ele>89.0</ele><time>2026-03-26T17:08:12.999Z</time></trkpt><trkpt lat="41.220297980097754" lon="14.098223727660198"><ele>88.0</ele><time>2026-03-26T17:08:13.999Z</time></trkpt><trkpt lat="41.22003998557339" lon="14.098349852887221"><ele>86.5</ele><time>2026-03-26T17:08:14.999Z</time></trkpt><trkpt lat="41.21978185616594" lon="14.098484832140512"><ele>85.0</ele><time>2026-03-26T17:08:15.999Z</time></trkpt><trkpt lat="41.21952571449121" lon="14.098625743413715"><ele>85.0</ele><time>2026-03-26T17:08:16.999Z</time></trkpt><trkpt lat="41.2192730050339" lon="14.098777370597876"><ele>85.0</ele><time>2026-03-26T17:08:17.999Z</time></trkpt><trkpt lat="41.21902331032187" lon="14.098942513340285"><ele>84.0</ele><time>2026-03-26T17:08:18.999Z</time></trkpt><trkpt lat="41.218780437692345" lon="14.099122541831663"><ele>83.0</ele><time>2026-03-26T17:08:19.999Z</time></trkpt><trkpt lat="41.21854159586601" lon="14.09930843124005"><ele>83.0</ele><time>2026-03-26T17:08:20.999Z</time></trkpt><trkpt lat="41.21830729580741" lon="14.099500456265213"><ele>83.0</ele><time>2026-03-26T17:08:21.999Z</time></trkpt><trkpt lat="41.21807686596109" lon="14.09970279088172"><ele>85.5</ele><time>2026-03-26T17:08:22.999Z</time></trkpt><trkpt lat="41.21785436741508" lon="14.099914575628633"><ele>88.0</ele><time>2026-03-26T17:08:23.999Z</time></trkpt><trkpt lat="41.21764009299157" lon="14.100135885707198"><ele>89.5</ele><time>2026-03-26T17:08:24.999Z</time></trkpt><trkpt lat="41.21742948029572" lon="14.100366371691013"><ele>91.0</ele><time>2026-03-26T17:08:25.999Z</time></trkpt><trkpt lat="41.21722349008837" lon="14.100600660724407"><ele>94.0</ele><time>2026-03-26T17:08:26.999Z</time></trkpt><trkpt lat="41.21702539546865" lon="14.100842463733441"><ele>97.0</ele><time>2026-03-26T17:08:28Z</time></trkpt><trkpt lat="41.21683168866115" lon="14.101089836245945"><ele>97.0</ele><time>2026-03-26T17:08:29Z</time></trkpt><trkpt lat="41.21664172282425" lon="14.101344354781332"><ele>97.0</ele><time>2026-03-26T17:08:30Z</time></trkpt><trkpt lat="41.21645921807542" lon="14.10160620059687"><ele>98.5</ele><time>2026-03-26T17:08:31Z</time></trkpt><trkpt lat="41.21628581850559" lon="14.101873054106798"><ele>100.0</ele><time>2026-03-26T17:08:32Z</time></trkpt><trkpt lat="41.21611727536095" lon="14.102145380887938"><ele>96.5</ele><time>2026-03-26T17:08:33Z</time></trkpt><trkpt lat="41.2159548829477" lon="14.102427184552843"><ele>93.0</ele><time>2026-03-26T17:08:34Z</time></trkpt><trkpt lat="41.215799009220866" lon="14.102712751100496"><ele>96.0</ele><time>2026-03-26T17:08:35Z</time></trkpt><trkpt lat="41.21565046247106" lon="14.10300319839771"><ele>99.0</ele><time>2026-03-26T17:08:36Z</time></trkpt><trkpt lat="41.21550528778421" lon="14.103301195032651"><ele>100.0</ele><time>2026-03-26T17:08:37Z</time></trkpt><trkpt lat="41.215365542630835" lon="14.103600278623178"><ele>101.0</ele><time>2026-03-26T17:08:38Z</time></trkpt><trkpt lat="41.215222605802964" lon="14.10390439648063"><ele>99.0</ele><time>2026-03-26T17:08:39Z</time></trkpt><trkpt lat="41.21508031066318" lon="14.104207871877742"><ele>97.0</ele><time>2026-03-26T17:08:40Z</time></trkpt><trkpt lat="41.2149382171941" lon="14.104511675981152"><ele>99.5</ele><time>2026-03-26T17:08:41Z</time></trkpt><trkpt lat="41.21479627373921" lon="14.1048205701206"><ele>102.0</ele><time>2026-03-26T17:08:42Z</time></trkpt><trkpt lat="41.214655608249245" lon="14.105127678391522"><ele>102.0</ele><time>2026-03-26T17:08:43Z</time></trkpt><trkpt lat="41.21451295076425" lon="14.105440666721362"><ele>102.0</ele><time>2026-03-26T17:08:44Z</time></trkpt><trkpt lat="41.214370686394055" lon="14.105749703336782"><ele>103.0</ele><time>2026-03-26T17:08:45Z</time></trkpt><trkpt lat="41.214227990885846" lon="14.10606401288663"><ele>104.0</ele><time>2026-03-26T17:08:46Z</time></trkpt><trkpt lat="41.21408726309001" lon="14.106375461480003"><ele>106.5</ele><time>2026-03-26T17:08:47Z</time></trkpt><trkpt lat="41.21394476985161" lon="14.106691681292258"><ele>109.0</ele><time>2026-03-26T17:08:48Z</time></trkpt><trkpt lat="41.213803178940026" lon="14.107000586221506"><ele>109.0</ele><time>2026-03-26T17:08:49Z</time></trkpt><trkpt lat="41.21366031921835" lon="14.107310852211631"><ele>109.0</ele><time>2026-03-26T17:08:50Z</time></trkpt><trkpt lat="41.21351894117078" lon="14.107618443248287"><ele>110.0</ele><time>2026-03-26T17:08:51Z</time></trkpt><trkpt lat="41.21337636076744" lon="14.107930806185148"><ele>111.0</ele><time>2026-03-26T17:08:52Z</time></trkpt><trkpt lat="41.21323328344706" lon="14.10824318273424"><ele>113.0</ele><time>2026-03-26T17:08:53Z</time></trkpt><trkpt lat="41.213088365149076" lon="14.108556274959126"><ele>115.0</ele><time>2026-03-26T17:08:54Z</time></trkpt><trkpt lat="41.21294231524827" lon="14.108871806500645"><ele>113.5</ele><time>2026-03-26T17:08:55Z</time></trkpt><trkpt lat="41.212796063684856" lon="14.109187129784411"><ele>112.0</ele><time>2026-03-26T17:08:56Z</time></trkpt><trkpt lat="41.21264834908057" lon="14.109506624918735"><ele>112.0</ele><time>2026-03-26T17:08:57Z</time></trkpt><trkpt lat="41.21250080452725" lon="14.10982238710086"><ele>112.0</ele><time>2026-03-26T17:08:58Z</time></trkpt><trkpt lat="41.21235432271174" lon="14.110139772830646"><ele>110.5</ele><time>2026-03-26T17:08:59Z</time></trkpt><trkpt lat="41.212207647059614" lon="14.110455049056284"><ele>109.0</ele><time>2026-03-26T17:09:00Z</time></trkpt><trkpt lat="41.21206001453971" lon="14.110774366019234"><ele>109.0</ele><time>2026-03-26T17:09:01Z</time></trkpt><trkpt lat="41.21191334261491" lon="14.111086641575017"><ele>109.0</ele><time>2026-03-26T17:09:02Z</time></trkpt><trkpt lat="41.21176467702892" lon="14.111402471412894"><ele>109.0</ele><time>2026-03-26T17:09:03Z</time></trkpt><trkpt lat="41.21161638912808" lon="14.111716952789996"><ele>109.0</ele><time>2026-03-26T17:09:04Z</time></trkpt><trkpt lat="41.211468078385735" lon="14.112031512341815"><ele>109.0</ele><time>2026-03-26T17:09:05Z</time></trkpt><trkpt lat="41.21132022794394" lon="14.112351547143746"><ele>109.0</ele><time>2026-03-26T17:09:06Z</time></trkpt><trkpt lat="41.21116935000381" lon="14.112678049758374"><ele>109.0</ele><time>2026-03-26T17:09:07Z</time></trkpt><trkpt lat="41.21102170437062" lon="14.112999812966239"><ele>109.0</ele><time>2026-03-26T17:09:08Z</time></trkpt><trkpt lat="41.21087191377482" lon="14.113327800146214"><ele>108.5</ele><time>2026-03-26T17:09:09Z</time></trkpt><trkpt lat="41.210724726269106" lon="14.113652100458916"><ele>108.0</ele><time>2026-03-26T17:09:10Z</time></trkpt><trkpt lat="41.21057484909591" lon="14.113980036868574"><ele>112.0</ele><time>2026-03-26T17:09:11Z</time></trkpt><trkpt lat="41.21042514395634" lon="14.114305377888329"><ele>116.0</ele><time>2026-03-26T17:09:12Z</time></trkpt><trkpt lat="41.21027419691361" lon="14.114628544623654"><ele>113.5</ele><time>2026-03-26T17:09:13Z</time></trkpt><trkpt lat="41.21012373133429" lon="14.114950386400917"><ele>111.0</ele><time>2026-03-26T17:09:14Z</time></trkpt><trkpt lat="41.20997273244149" lon="14.115275511622452"><ele>114.0</ele><time>2026-03-26T17:09:15Z</time></trkpt><trkpt lat="41.209822328221776" lon="14.115599168779909"><ele>117.0</ele><time>2026-03-26T17:09:16Z</time></trkpt><trkpt lat="41.209669373720196" lon="14.11592449511351"><ele>117.0</ele><time>2026-03-26T17:09:17Z</time></trkpt><trkpt lat="41.20951415837952" lon="14.116252143223695"><ele>117.0</ele><time>2026-03-26T17:09:18Z</time></trkpt><trkpt lat="41.209358509984924" lon="14.116577478499984"><ele>115.0</ele><time>2026-03-26T17:09:19Z</time></trkpt><trkpt lat="41.20920322747023" lon="14.116907646096536"><ele>113.0</ele><time>2026-03-26T17:09:20Z</time></trkpt><trkpt lat="41.20905069320861" lon="14.117240270139646"><ele>112.5</ele><time>2026-03-26T17:09:21Z</time></trkpt><trkpt lat="41.20889664618958" lon="14.117573053222578"><ele>112.0</ele><time>2026-03-26T17:09:22Z</time></trkpt><trkpt lat="41.208742936987576" lon="14.11790593239657"><ele>109.5</ele><time>2026-03-26T17:09:23Z</time></trkpt><trkpt lat="41.20858844106142" lon="14.118240921666075"><ele>107.0</ele><time>2026-03-26T17:09:24Z</time></trkpt><trkpt lat="41.20843313074652" lon="14.118576046963573"><ele>107.0</ele><time>2026-03-26T17:09:25Z</time></trkpt><trkpt lat="41.20827792716118" lon="14.118912390529822"><ele>107.0</ele><time>2026-03-26T17:09:26Z</time></trkpt><trkpt lat="41.20812236243566" lon="14.119244962361664"><ele>107.0</ele><time>2026-03-26T17:09:27Z</time></trkpt><trkpt lat="41.207967578401984" lon="14.119580493440893"><ele>107.0</ele><time>2026-03-26T17:09:28Z</time></trkpt><trkpt lat="41.207813260926464" lon="14.119914838691212"><ele>104.5</ele><time>2026-03-26T17:09:29Z</time></trkpt><trkpt lat="41.20765798377671" lon="14.120250474522829"><ele>102.0</ele><time>2026-03-26T17:09:30Z</time></trkpt><trkpt lat="41.20750104420576" lon="14.120582552433921"><ele>103.0</ele><time>2026-03-26T17:09:31Z</time></trkpt><trkpt lat="41.20734278882458" lon="14.12091135081814"><ele>104.0</ele><time>2026-03-26T17:09:32Z</time></trkpt><trkpt lat="41.207186148943016" lon="14.121244708224497"><ele>103.0</ele><time>2026-03-26T17:09:33Z</time></trkpt><trkpt lat="41.20703087249763" lon="14.121574868723705"><ele>102.0</ele><time>2026-03-26T17:09:34Z</time></trkpt><trkpt lat="41.20687481806561" lon="14.121906770257377"><ele>102.0</ele><time>2026-03-26T17:09:35Z</time></trkpt><trkpt lat="41.206720836189945" lon="14.122240457214275"><ele>102.0</ele><time>2026-03-26T17:09:36Z</time></trkpt><trkpt lat="41.206566916753246" lon="14.122569879968633"><ele>101.5</ele><time>2026-03-26T17:09:37Z</time></trkpt><trkpt lat="41.20641068400343" lon="14.122904093402276"><ele>101.0</ele><time>2026-03-26T17:09:38Z</time></trkpt><trkpt lat="41.20625425673886" lon="14.123235519757783"><ele>101.0</ele><time>2026-03-26T17:09:39Z</time></trkpt><trkpt lat="41.20609859490936" lon="14.123568654448858"><ele>101.0</ele><time>2026-03-26T17:09:40Z</time></trkpt><trkpt lat="41.20594387409255" lon="14.123901926518215"><ele>100.0</ele><time>2026-03-26T17:09:41Z</time></trkpt><trkpt lat="41.205789493768386" lon="14.124236267302914"><ele>99.0</ele><time>2026-03-26T17:09:42Z</time></trkpt><trkpt lat="41.20563004958079" lon="14.124571024860844"><ele>97.5</ele><time>2026-03-26T17:09:43Z</time></trkpt><trkpt lat="41.205473203153595" lon="14.124909399985398"><ele>96.0</ele><time>2026-03-26T17:09:44Z</time></trkpt><trkpt lat="41.205315584084175" lon="14.125248469299425"><ele>96.0</ele><time>2026-03-26T17:09:45Z</time></trkpt><trkpt lat="41.20515884895344" lon="14.125587004144652"><ele>96.0</ele><time>2026-03-26T17:09:46Z</time></trkpt><trkpt lat="41.205000601465066" lon="14.125926734742237"><ele>95.5</ele><time>2026-03-26T17:09:47Z</time></trkpt><trkpt lat="41.204842138844604" lon="14.126266759690083"><ele>95.0</ele><time>2026-03-26T17:09:48Z</time></trkpt><trkpt lat="41.204684639292715" lon="14.126606666667895"><ele>95.0</ele><time>2026-03-26T17:09:49Z</time></trkpt><trkpt lat="41.20452917266533" lon="14.126945502829678"><ele>95.0</ele><time>2026-03-26T17:09:50Z</time></trkpt><trkpt lat="41.20437422184983" lon="14.127283527727121"><ele>95.0</ele><time>2026-03-26T17:09:51Z</time></trkpt><trkpt lat="41.2042204356958" lon="14.12761708593018"><ele>95.0</ele><time>2026-03-26T17:09:52Z</time></trkpt><trkpt lat="41.20406798567903" lon="14.127947872010257"><ele>94.5</ele><time>2026-03-26T17:09:53Z</time></trkpt><trkpt lat="41.20392023952238" lon="14.128269445132611"><ele>94.0</ele><time>2026-03-26T17:09:54Z</time></trkpt><trkpt lat="41.20378174123132" lon="14.128571193896052"><ele>94.0</ele><time>2026-03-26T17:09:55Z</time></trkpt><trkpt lat="41.203652558572045" lon="14.128847758305136"><ele>94.0</ele><time>2026-03-26T17:09:56Z</time></trkpt><trkpt lat="41.203540848147604" lon="14.129091520998097"><ele>92.66666666666666</ele><time>2026-03-26T17:09:57Z</time></trkpt><trkpt lat="41.20344289568525" lon="14.129308245505126"><ele>91.33333333333333</ele><time>2026-03-26T17:09:58Z</time></trkpt><trkpt lat="41.203354605428345" lon="14.129497522074631"><ele>90.0</ele><time>2026-03-26T17:09:58.999Z</time></trkpt><trkpt lat="41.2032716391962" lon="14.12967372016328"><ele>90.0</ele><time>2026-03-26T17:09:59.999Z</time></trkpt><trkpt lat="41.20320847218748" lon="14.129816905509367"><ele>90.0</ele><time>2026-03-26T17:10:00.999Z</time></trkpt><trkpt lat="41.20315594192629" lon="14.129943149525348"><ele>90.0</ele><time>2026-03-26T17:10:01.999Z</time></trkpt><trkpt lat="41.20311249118483" lon="14.130052852346184"><ele>90.0</ele><time>2026-03-26T17:10:02.999Z</time></trkpt><trkpt lat="41.20307510089883" lon="14.130158193756566"><ele>90.0</ele><time>2026-03-26T17:10:03.999Z</time></trkpt><trkpt lat="41.20304241276837" lon="14.13026932277929"><ele>89.75</ele><time>2026-03-26T17:10:04.999Z</time></trkpt><trkpt lat="41.20300953117106" lon="14.130394760521424"><ele>89.5</ele><time>2026-03-26T17:10:05.999Z</time></trkpt><trkpt lat="41.2029724138416" lon="14.130534004411084"><ele>89.25</ele><time>2026-03-26T17:10:06.999Z</time></trkpt><trkpt lat="41.2029149319898" lon="14.130679059549049"><ele>89.0</ele><time>2026-03-26T17:10:07.999Z</time></trkpt><trkpt lat="41.20284231467726" lon="14.130827645671697"><ele>87.33333333333334</ele><time>2026-03-26T17:10:08.999Z</time></trkpt><trkpt lat="41.202763251934904" lon="14.130992757241248"><ele>85.66666666666667</ele><time>2026-03-26T17:10:09.999Z</time></trkpt><trkpt lat="41.20267890970032" lon="14.1311682834592"><ele>84.0</ele><time>2026-03-26T17:10:10.999Z</time></trkpt><trkpt lat="41.20258935757275" lon="14.131354689313568"><ele>84.0</ele><time>2026-03-26T17:10:11.999Z</time></trkpt><trkpt lat="41.202497506425736" lon="14.131550553452634"><ele>84.0</ele><time>2026-03-26T17:10:12.999Z</time></trkpt><trkpt lat="41.20240428622126" lon="14.1317533989557"><ele>84.0</ele><time>2026-03-26T17:10:13.999Z</time></trkpt><trkpt lat="41.202307547089184" lon="14.131962175319094"><ele>81.33333333333333</ele><time>2026-03-26T17:10:14.999Z</time></trkpt><trkpt lat="41.20220781437615" lon="14.132177492840654"><ele>78.66666666666666</ele><time>2026-03-26T17:10:15.999Z</time></trkpt><trkpt lat="41.20210730353553" lon="14.132392323434406"><ele>76.0</ele><time>2026-03-26T17:10:16.999Z</time></trkpt><trkpt lat="41.20200607250475" lon="14.132608157958181"><ele>76.0</ele><time>2026-03-26T17:10:17.999Z</time></trkpt><trkpt lat="41.20190340430029" lon="14.13282932306272"><ele>76.0</ele><time>2026-03-26T17:10:18.999Z</time></trkpt><trkpt lat="41.201799520750804" lon="14.133053703943574"><ele>76.0</ele><time>2026-03-26T17:10:19.999Z</time></trkpt><trkpt lat="41.20169257046588" lon="14.133279824415865"><ele>78.0</ele><time>2026-03-26T17:10:20.999Z</time></trkpt><trkpt lat="41.20158350668181" lon="14.13350883831687"><ele>80.0</ele><time>2026-03-26T17:10:21.999Z</time></trkpt><trkpt lat="41.20147989165125" lon="14.133728520173545"><ele>82.0</ele><time>2026-03-26T17:10:22.999Z</time></trkpt><trkpt lat="41.201380193389845" lon="14.133941591216347"><ele>82.66666666666666</ele><time>2026-03-26T17:10:23.999Z</time></trkpt><trkpt lat="41.20128442481497" lon="14.134148942196768"><ele>83.33333333333333</ele><time>2026-03-26T17:10:24.999Z</time></trkpt><trkpt lat="41.201188453654865" lon="14.134353307804707"><ele>84.0</ele><time>2026-03-26T17:10:25.999Z</time></trkpt><trkpt lat="41.20109420546577" lon="14.134553256789728"><ele>84.0</ele><time>2026-03-26T17:10:26.999Z</time></trkpt><trkpt lat="41.201000759462026" lon="14.134752730348207"><ele>84.0</ele><time>2026-03-26T17:10:27.999Z</time></trkpt><trkpt lat="41.20090683738702" lon="14.13495425080793"><ele>84.0</ele><time>2026-03-26T17:10:28.999Z</time></trkpt><trkpt lat="41.200811293682875" lon="14.135158413545987"><ele>84.66666666666667</ele><time>2026-03-26T17:10:29.999Z</time></trkpt><trkpt lat="41.20071419819709" lon="14.135364774623676"><ele>85.33333333333334</ele><time>2026-03-26T17:10:30.999Z</time></trkpt><trkpt lat="41.200617018327506" lon="14.135573392998753"><ele>86.0</ele><time>2026-03-26T17:10:31.999Z</time></trkpt><trkpt lat="41.20051848226372" lon="14.135785796561418"><ele>86.33333333333334</ele><time>2026-03-26T17:10:32.999Z</time></trkpt><trkpt lat="41.20041946421098" lon="14.13600047070602"><ele>86.66666666666667</ele><time>2026-03-26T17:10:34Z</time></trkpt><trkpt lat="41.20031826336279" lon="14.136220657902259"><ele>87.0</ele><time>2026-03-26T17:10:35Z</time></trkpt><trkpt lat="41.20021422690799" lon="14.136444700654176"><ele>85.66666666666667</ele><time>2026-03-26T17:10:36Z</time></trkpt><trkpt lat="41.200108210959925" lon="14.136671605032214"><ele>84.33333333333334</ele><time>2026-03-26T17:10:37Z</time></trkpt><trkpt lat="41.200001281058455" lon="14.136901592386328"><ele>83.0</ele><time>2026-03-26T17:10:38Z</time></trkpt><trkpt lat="41.19989255165906" lon="14.137138072682484"><ele>78.0</ele><time>2026-03-26T17:10:39Z</time></trkpt><trkpt lat="41.199783624237625" lon="14.1373721164797"><ele>73.0</ele><time>2026-03-26T17:10:40Z</time></trkpt><trkpt lat="41.199675770691215" lon="14.137604524792788"><ele>68.0</ele><time>2026-03-26T17:10:41Z</time></trkpt><trkpt lat="41.199567097648625" lon="14.137836704178822"><ele>68.0</ele><time>2026-03-26T17:10:42Z</time></trkpt><trkpt lat="41.19945870401075" lon="14.138069381613137"><ele>68.0</ele><time>2026-03-26T17:10:43Z</time></trkpt><trkpt lat="41.199351922071386" lon="14.138299547639864"><ele>68.0</ele><time>2026-03-26T17:10:44Z</time></trkpt><trkpt lat="41.199242526926994" lon="14.138533363766422"><ele>71.0</ele><time>2026-03-26T17:10:45Z</time></trkpt><trkpt lat="41.19913305145539" lon="14.138766840657597"><ele>74.0</ele><time>2026-03-26T17:10:46Z</time></trkpt><trkpt lat="41.1990216528248" lon="14.139005961323459"><ele>77.0</ele><time>2026-03-26T17:10:47Z</time></trkpt><trkpt lat="41.19891086842269" lon="14.139246500502999"><ele>79.66666666666667</ele><time>2026-03-26T17:10:48Z</time></trkpt><trkpt lat="41.19879940510238" lon="14.139489610040771"><ele>82.33333333333333</ele><time>2026-03-26T17:10:49Z</time></trkpt><trkpt lat="41.19868726026638" lon="14.13973345077492"><ele>85.0</ele><time>2026-03-26T17:10:50Z</time></trkpt><trkpt lat="41.19857417457697" lon="14.139978053185773"><ele>85.33333333333333</ele><time>2026-03-26T17:10:51Z</time></trkpt><trkpt lat="41.19846209020811" lon="14.140220001851644"><ele>85.66666666666667</ele><time>2026-03-26T17:10:52Z</time></trkpt><trkpt lat="41.19835294607571" lon="14.140460109995402"><ele>86.0</ele><time>2026-03-26T17:10:53Z</time></trkpt><trkpt lat="41.19824224773101" lon="14.140700347645021"><ele>85.66666666666667</ele><time>2026-03-26T17:10:54Z</time></trkpt><trkpt lat="41.19813036418861" lon="14.140939239806286"><ele>85.33333333333333</ele><time>2026-03-26T17:10:55Z</time></trkpt><trkpt lat="41.19801938103438" lon="14.141176313743685"><ele>85.0</ele><time>2026-03-26T17:10:56Z</time></trkpt><trkpt lat="41.19790958400526" lon="14.141414409901492"><ele>84.66666666666666</ele><time>2026-03-26T17:10:57Z</time></trkpt><trkpt lat="41.19779932181617" lon="14.141651964958706"><ele>84.33333333333333</ele><time>2026-03-26T17:10:58Z</time></trkpt><trkpt lat="41.197687651470865" lon="14.141889711130727"><ele>84.0</ele><time>2026-03-26T17:10:59Z</time></trkpt><trkpt lat="41.197574542026345" lon="14.142132138999875"><ele>84.0</ele><time>2026-03-26T17:11:00Z</time></trkpt><trkpt lat="41.19746201020397" lon="14.14237663052528"><ele>84.0</ele><time>2026-03-26T17:11:01Z</time></trkpt><trkpt lat="41.19734882094249" lon="14.142621279793346"><ele>84.0</ele><time>2026-03-26T17:11:02Z</time></trkpt><trkpt lat="41.197234462656176" lon="14.142866483024768"><ele>84.0</ele><time>2026-03-26T17:11:03Z</time></trkpt><trkpt lat="41.19712061604673" lon="14.143111248997606"><ele>84.0</ele><time>2026-03-26T17:11:04Z</time></trkpt><trkpt lat="41.197007034846514" lon="14.1433560508379"><ele>84.0</ele><time>2026-03-26T17:11:05Z</time></trkpt><trkpt lat="41.19689446768359" lon="14.143600090363076"><ele>83.66666666666667</ele><time>2026-03-26T17:11:06Z</time></trkpt><trkpt lat="41.19678191157566" lon="14.143842407160042"><ele>83.33333333333334</ele><time>2026-03-26T17:11:07Z</time></trkpt><trkpt lat="41.1966701385163" lon="14.144080872529344"><ele>83.0</ele><time>2026-03-26T17:11:08Z</time></trkpt><trkpt lat="41.19655801925595" lon="14.144319399368088"><ele>82.66666666666667</ele><time>2026-03-26T17:11:09Z</time></trkpt><trkpt lat="41.19644498074894" lon="14.144561497701249"><ele>82.33333333333333</ele><time>2026-03-26T17:11:10Z</time></trkpt><trkpt lat="41.196330697619125" lon="14.144806371267485"><ele>82.0</ele><time>2026-03-26T17:11:11Z</time></trkpt><trkpt lat="41.19621771993692" lon="14.145050163167442"><ele>82.0</ele><time>2026-03-26T17:11:12Z</time></trkpt><trkpt lat="41.19610717404912" lon="14.14529028847686"><ele>82.0</ele><time>2026-03-26T17:11:13Z</time></trkpt><trkpt lat="41.195995690520185" lon="14.145532224443865"><ele>82.0</ele><time>2026-03-26T17:11:14Z</time></trkpt><trkpt lat="41.19588432634967" lon="14.145770890334635"><ele>82.0</ele><time>2026-03-26T17:11:15Z</time></trkpt><trkpt lat="41.19577446972194" lon="14.146010254829138"><ele>82.0</ele><time>2026-03-26T17:11:16Z</time></trkpt><trkpt lat="41.195662449226724" lon="14.146252665847987"><ele>82.0</ele><time>2026-03-26T17:11:17Z</time></trkpt><trkpt lat="41.19554848836077" lon="14.146497755266871"><ele>81.66666666666666</ele><time>2026-03-26T17:11:18Z</time></trkpt><trkpt lat="41.19543302610665" lon="14.146742102835193"><ele>81.33333333333333</ele><time>2026-03-26T17:11:19Z</time></trkpt><trkpt lat="41.19531693923683" lon="14.146989533315574"><ele>81.0</ele><time>2026-03-26T17:11:20Z</time></trkpt><trkpt lat="41.195200649506454" lon="14.147239092802915"><ele>80.66666666666667</ele><time>2026-03-26T17:11:21Z</time></trkpt><trkpt lat="41.19508481120002" lon="14.147488666326687"><ele>80.33333333333334</ele><time>2026-03-26T17:11:22Z</time></trkpt><trkpt lat="41.19496863326223" lon="14.147737628383936"><ele>80.0</ele><time>2026-03-26T17:11:23Z</time></trkpt><trkpt lat="41.194852270128756" lon="14.147987998702604"><ele>79.66666666666667</ele><time>2026-03-26T17:11:24Z</time></trkpt><trkpt lat="41.19473566901182" lon="14.148238598629305"><ele>79.33333333333333</ele><time>2026-03-26T17:11:25Z</time></trkpt><trkpt lat="41.19461975235316" lon="14.14848755127616"><ele>79.0</ele><time>2026-03-26T17:11:26Z</time></trkpt><trkpt lat="41.19450378567448" lon="14.148735059857856"><ele>79.0</ele><time>2026-03-26T17:11:27Z</time></trkpt><trkpt lat="41.194386553966915" lon="14.148981314116217"><ele>79.0</ele><time>2026-03-26T17:11:28Z</time></trkpt><trkpt lat="41.19426707351546" lon="14.149225337199466"><ele>79.0</ele><time>2026-03-26T17:11:29Z</time></trkpt><trkpt lat="41.19412832418924" lon="14.149453854692215"><ele>78.66666666666666</ele><time>2026-03-26T17:11:30Z</time></trkpt><trkpt lat="41.19400179918421" lon="14.149692562160899"><ele>78.33333333333333</ele><time>2026-03-26T17:11:31Z</time></trkpt><trkpt lat="41.19388335411809" lon="14.149940629021403"><ele>78.0</ele><time>2026-03-26T17:11:32Z</time></trkpt><trkpt lat="41.193749182297964" lon="14.150171908033427"><ele>77.66666666666667</ele><time>2026-03-26T17:11:33Z</time></trkpt><trkpt lat="41.19361158717588" lon="14.150402679944111"><ele>77.33333333333334</ele><time>2026-03-26T17:11:34Z</time></trkpt><trkpt lat="41.1934721050489" lon="14.150633821962563"><ele>77.0</ele><time>2026-03-26T17:11:35Z</time></trkpt><trkpt lat="41.193329942791735" lon="14.15086170602033"><ele>77.0</ele><time>2026-03-26T17:11:36Z</time></trkpt><trkpt lat="41.19318427767036" lon="14.15108181696715"><ele>77.0</ele><time>2026-03-26T17:11:37Z</time></trkpt><trkpt lat="41.19303654099515" lon="14.151297313426644"><ele>77.0</ele><time>2026-03-26T17:11:38Z</time></trkpt><trkpt lat="41.192887093606785" lon="14.151509437029985"><ele>77.66666666666667</ele><time>2026-03-26T17:11:39Z</time></trkpt><trkpt lat="41.192735138320174" lon="14.151719972471462"><ele>78.33333333333333</ele><time>2026-03-26T17:11:40Z</time></trkpt><trkpt lat="41.19258119473525" lon="14.151929700191854"><ele>79.0</ele><time>2026-03-26T17:11:41Z</time></trkpt><trkpt lat="41.19242269790649" lon="14.152138231070833"><ele>78.5</ele><time>2026-03-26T17:11:42Z</time></trkpt><trkpt lat="41.19225826734412" lon="14.152344427061797"><ele>78.0</ele><time>2026-03-26T17:11:43Z</time></trkpt><trkpt lat="41.19209253417364" lon="14.152546787171822"><ele>78.0</ele><time>2026-03-26T17:11:44Z</time></trkpt><trkpt lat="41.19192328527467" lon="14.15274551506702"><ele>78.0</ele><time>2026-03-26T17:11:45Z</time></trkpt><trkpt lat="41.19175166033973" lon="14.152942208582228"><ele>78.0</ele><time>2026-03-26T17:11:46Z</time></trkpt><trkpt lat="41.191576285428056" lon="14.15313468117826"><ele>78.0</ele><time>2026-03-26T17:11:47Z</time></trkpt><trkpt lat="41.191397830136395" lon="14.153323604846047"><ele>77.0</ele><time>2026-03-26T17:11:48Z</time></trkpt><trkpt lat="41.19121635208203" lon="14.153509949545732"><ele>76.0</ele><time>2026-03-26T17:11:49Z</time></trkpt><trkpt lat="41.19103150068096" lon="14.153692884238767"><ele>76.0</ele><time>2026-03-26T17:11:50Z</time></trkpt><trkpt lat="41.19084367775893" lon="14.153872278690343"><ele>76.0</ele><time>2026-03-26T17:11:51Z</time></trkpt><trkpt lat="41.19065459896941" lon="14.154050116543708"><ele>74.5</ele><time>2026-03-26T17:11:52Z</time></trkpt><trkpt lat="41.19046478234817" lon="14.154224730382293"><ele>73.0</ele><time>2026-03-26T17:11:53Z</time></trkpt><trkpt lat="41.19027297839926" lon="14.154399354664124"><ele>73.0</ele><time>2026-03-26T17:11:54Z</time></trkpt><trkpt lat="41.19008316064989" lon="14.154573801090073"><ele>73.0</ele><time>2026-03-26T17:11:55Z</time></trkpt><trkpt lat="41.18989305776767" lon="14.154749089174675"><ele>72.0</ele><time>2026-03-26T17:11:56Z</time></trkpt><trkpt lat="41.189700945305425" lon="14.154927780574893"><ele>71.0</ele><time>2026-03-26T17:11:57Z</time></trkpt><trkpt lat="41.18950971262134" lon="14.1551051881745"><ele>71.0</ele><time>2026-03-26T17:11:58Z</time></trkpt><trkpt lat="41.18931597854457" lon="14.155283717301419"><ele>71.0</ele><time>2026-03-26T17:11:59Z</time></trkpt><trkpt lat="41.189121371441004" lon="14.155462127612902"><ele>70.5</ele><time>2026-03-26T17:12:00Z</time></trkpt><trkpt lat="41.18892551124394" lon="14.155640097229062"><ele>70.0</ele><time>2026-03-26T17:12:01Z</time></trkpt><trkpt lat="41.18872850091394" lon="14.155818373520768"><ele>69.5</ele><time>2026-03-26T17:12:02Z</time></trkpt><trkpt lat="41.188528484274805" lon="14.15599962598992"><ele>69.0</ele><time>2026-03-26T17:12:02.999Z</time></trkpt><trkpt lat="41.18832802855852" lon="14.156184899905115"><ele>69.0</ele><time>2026-03-26T17:12:03.999Z</time></trkpt><trkpt lat="41.18812741772599" lon="14.156372054111445"><ele>69.0</ele><time>2026-03-26T17:12:04.999Z</time></trkpt><trkpt lat="41.1879269742741" lon="14.156560838184044"><ele>70.5</ele><time>2026-03-26T17:12:05.999Z</time></trkpt><trkpt lat="41.18772310721535" lon="14.156751381819886"><ele>72.0</ele><time>2026-03-26T17:12:06.999Z</time></trkpt><trkpt lat="41.1875158354531" lon="14.156941409856561"><ele>72.0</ele><time>2026-03-26T17:12:07.999Z</time></trkpt><trkpt lat="41.187306778520515" lon="14.157132608984579"><ele>72.0</ele><time>2026-03-26T17:12:08.999Z</time></trkpt><trkpt lat="41.18709731225103" lon="14.157324083053354"><ele>72.0</ele><time>2026-03-26T17:12:09.999Z</time></trkpt><trkpt lat="41.186885128979064" lon="14.15751764866833"><ele>72.0</ele><time>2026-03-26T17:12:10.999Z</time></trkpt><trkpt lat="41.186672174413545" lon="14.157712972784209"><ele>71.0</ele><time>2026-03-26T17:12:11.999Z</time></trkpt><trkpt lat="41.18645842272164" lon="14.157910355447191"><ele>70.0</ele><time>2026-03-26T17:12:12.999Z</time></trkpt><trkpt lat="41.18624262834434" lon="14.158108660598772"><ele>69.5</ele><time>2026-03-26T17:12:13.999Z</time></trkpt><trkpt lat="41.186027613764495" lon="14.158305223234128"><ele>69.0</ele><time>2026-03-26T17:12:14.999Z</time></trkpt><trkpt lat="41.185813193378934" lon="14.15850148526175"><ele>67.0</ele><time>2026-03-26T17:12:15.999Z</time></trkpt><trkpt lat="41.18559887838066" lon="14.15870044001505"><ele>65.0</ele><time>2026-03-26T17:12:16.999Z</time></trkpt><trkpt lat="41.18538456300433" lon="14.158898111097104"><ele>66.0</ele><time>2026-03-26T17:12:17.999Z</time></trkpt><trkpt lat="41.18516965273887" lon="14.159096712585303"><ele>67.0</ele><time>2026-03-26T17:12:18.999Z</time></trkpt><trkpt lat="41.184954784531065" lon="14.159294117769555"><ele>65.5</ele><time>2026-03-26T17:12:19.999Z</time></trkpt><trkpt lat="41.18474118047143" lon="14.159488026079764"><ele>64.0</ele><time>2026-03-26T17:12:20.999Z</time></trkpt><trkpt lat="41.184527368723174" lon="14.159684898583707"><ele>64.0</ele><time>2026-03-26T17:12:21.999Z</time></trkpt><trkpt lat="41.18431494224919" lon="14.15988307619751"><ele>64.0</ele><time>2026-03-26T17:12:22.999Z</time></trkpt><trkpt lat="41.18410105369828" lon="14.160082450616795"><ele>63.5</ele><time>2026-03-26T17:12:23.999Z</time></trkpt><trkpt lat="41.18389229936862" lon="14.160275167219465"><ele>63.0</ele><time>2026-03-26T17:12:24.999Z</time></trkpt><trkpt lat="41.183694250896714" lon="14.160457185744576"><ele>63.0</ele><time>2026-03-26T17:12:25.999Z</time></trkpt><trkpt lat="41.18350480747272" lon="14.160631148338036"><ele>63.0</ele><time>2026-03-26T17:12:26.999Z</time></trkpt><trkpt lat="41.183324785784016" lon="14.160796398445752"><ele>63.0</ele><time>2026-03-26T17:12:27.999Z</time></trkpt><trkpt lat="41.18315303008173" lon="14.160953370494276"><ele>62.33333333333333</ele><time>2026-03-26T17:12:28.999Z</time></trkpt><trkpt lat="41.182987936229985" lon="14.161105111189357"><ele>61.666666666666664</ele><time>2026-03-26T17:12:29.999Z</time></trkpt><trkpt lat="41.1828291102163" lon="14.161250658706933"><ele>61.0</ele><time>2026-03-26T17:12:30.999Z</time></trkpt><trkpt lat="41.18267581265833" lon="14.161390864804657"><ele>61.0</ele><time>2026-03-26T17:12:31.999Z</time></trkpt><trkpt lat="41.18252454935389" lon="14.161530701601066"><ele>61.0</ele><time>2026-03-26T17:12:32.999Z</time></trkpt><trkpt lat="41.18237127208444" lon="14.161673022538446"><ele>61.0</ele><time>2026-03-26T17:12:33.999Z</time></trkpt><trkpt lat="41.182220662911305" lon="14.161811647602212"><ele>60.33333333333333</ele><time>2026-03-26T17:12:34.999Z</time></trkpt><trkpt lat="41.182077217874436" lon="14.161942587365406"><ele>59.66666666666667</ele><time>2026-03-26T17:12:35.999Z</time></trkpt><trkpt lat="41.181941063914074" lon="14.162067714618773"><ele>59.0</ele><time>2026-03-26T17:12:36.999Z</time></trkpt><trkpt lat="41.18181544285597" lon="14.162184719151238"><ele>59.0</ele><time>2026-03-26T17:12:37.999Z</time></trkpt><trkpt lat="41.18169836804787" lon="14.162294128693704"><ele>59.0</ele><time>2026-03-26T17:12:38.999Z</time></trkpt><trkpt lat="41.181588826247854" lon="14.162395686041535"><ele>59.0</ele><time>2026-03-26T17:12:40Z</time></trkpt><trkpt lat="41.181486401854386" lon="14.162488145779228"><ele>59.0</ele><time>2026-03-26T17:12:41Z</time></trkpt><trkpt lat="41.18139350571197" lon="14.162569867612035"><ele>59.0</ele><time>2026-03-26T17:12:42Z</time></trkpt><trkpt lat="41.18130820701267" lon="14.162636439668029"><ele>59.00000000000001</ele><time>2026-03-26T17:12:43Z</time></trkpt><trkpt lat="41.18122779974244" lon="14.162686931795584"><ele>59.00000000000001</ele><time>2026-03-26T17:12:44Z</time></trkpt><trkpt lat="41.18115368282158" lon="14.162729909300147"><ele>59.0</ele><time>2026-03-26T17:12:45Z</time></trkpt><trkpt lat="41.18107608718055" lon="14.162778838447574"><ele>59.0</ele><time>2026-03-26T17:12:46Z</time></trkpt><trkpt lat="41.18099271221004" lon="14.162847189311076"><ele>59.0</ele><time>2026-03-26T17:12:47Z</time></trkpt><trkpt lat="41.18090409370092" lon="14.162928843246302"><ele>59.0</ele><time>2026-03-26T17:12:48Z</time></trkpt><trkpt lat="41.18080882092081" lon="14.16301325315623"><ele>59.0</ele><time>2026-03-26T17:12:49Z</time></trkpt><trkpt lat="41.18070334911332" lon="14.16310712876103"><ele>59.0</ele><time>2026-03-26T17:12:50Z</time></trkpt><trkpt lat="41.18058310473341" lon="14.163215581141982"><ele>58.66666666666667</ele><time>2026-03-26T17:12:51Z</time></trkpt><trkpt lat="41.18044827877482" lon="14.163337673067138"><ele>58.33333333333333</ele><time>2026-03-26T17:12:52Z</time></trkpt><trkpt lat="41.18029757203611" lon="14.163475526561204"><ele>58.0</ele><time>2026-03-26T17:12:53Z</time></trkpt><trkpt lat="41.180132566928656" lon="14.163624771415844"><ele>58.0</ele><time>2026-03-26T17:12:54Z</time></trkpt><trkpt lat="41.17995550664482" lon="14.163779656748128"><ele>58.0</ele><time>2026-03-26T17:12:55Z</time></trkpt><trkpt lat="41.17976812496112" lon="14.163944673858103"><ele>58.0</ele><time>2026-03-26T17:12:56Z</time></trkpt><trkpt lat="41.179573020545675" lon="14.16411589557825"><ele>57.0</ele><time>2026-03-26T17:12:57Z</time></trkpt><trkpt lat="41.17937114319109" lon="14.164295629077833"><ele>56.0</ele><time>2026-03-26T17:12:58Z</time></trkpt><trkpt lat="41.17916354410285" lon="14.1644815798097"><ele>56.0</ele><time>2026-03-26T17:12:59Z</time></trkpt><trkpt lat="41.178951660360816" lon="14.164673539950337"><ele>56.0</ele><time>2026-03-26T17:13:00Z</time></trkpt><trkpt lat="41.17873419940106" lon="14.164869296053999"><ele>56.0</ele><time>2026-03-26T17:13:01Z</time></trkpt><trkpt lat="41.1785115448719" lon="14.16507118886536"><ele>56.0</ele><time>2026-03-26T17:13:02Z</time></trkpt><trkpt lat="41.17828553166173" lon="14.165278598435286"><ele>55.5</ele><time>2026-03-26T17:13:03Z</time></trkpt><trkpt lat="41.17805572724708" lon="14.165491307929452"><ele>55.0</ele><time>2026-03-26T17:13:04Z</time></trkpt><trkpt lat="41.1778219188721" lon="14.165707230774089"><ele>55.0</ele><time>2026-03-26T17:13:05Z</time></trkpt><trkpt lat="41.17758645578259" lon="14.165924184689736"><ele>55.0</ele><time>2026-03-26T17:13:06Z</time></trkpt><trkpt lat="41.17734920274477" lon="14.166142855485159"><ele>54.5</ele><time>2026-03-26T17:13:07Z</time></trkpt><trkpt lat="41.177111292960284" lon="14.166362218242563"><ele>54.0</ele><time>2026-03-26T17:13:08Z</time></trkpt><trkpt lat="41.176872540585634" lon="14.166581475198523"><ele>54.0</ele><time>2026-03-26T17:13:09Z</time></trkpt><trkpt lat="41.17663309559145" lon="14.16680283463418"><ele>54.0</ele><time>2026-03-26T17:13:10Z</time></trkpt><trkpt lat="41.176391205956094" lon="14.16702681815495"><ele>54.0</ele><time>2026-03-26T17:13:11Z</time></trkpt><trkpt lat="41.17614946390545" lon="14.16725194703781"><ele>54.0</ele><time>2026-03-26T17:13:12Z</time></trkpt><trkpt lat="41.17590715605028" lon="14.167478063445884"><ele>53.5</ele><time>2026-03-26T17:13:13Z</time></trkpt><trkpt lat="41.17566151966873" lon="14.167704495654826"><ele>53.0</ele><time>2026-03-26T17:13:14Z</time></trkpt><trkpt lat="41.17541440612398" lon="14.167930339255182"><ele>53.0</ele><time>2026-03-26T17:13:15Z</time></trkpt><trkpt lat="41.17516572815517" lon="14.168156098812913"><ele>53.0</ele><time>2026-03-26T17:13:16Z</time></trkpt><trkpt lat="41.17491596797552" lon="14.1683839207191"><ele>52.5</ele><time>2026-03-26T17:13:17Z</time></trkpt><trkpt lat="41.174665294247006" lon="14.168612211168236"><ele>52.0</ele><time>2026-03-26T17:13:18Z</time></trkpt><trkpt lat="41.17441330481591" lon="14.168842421105357"><ele>52.5</ele><time>2026-03-26T17:13:19Z</time></trkpt><trkpt lat="41.174162076277646" lon="14.169071877190834"><ele>53.0</ele><time>2026-03-26T17:13:20Z</time></trkpt><trkpt lat="41.173908082344326" lon="14.169301409049089"><ele>53.5</ele><time>2026-03-26T17:13:21Z</time></trkpt><trkpt lat="41.17365216041567" lon="14.169526074643974"><ele>54.0</ele><time>2026-03-26T17:13:22Z</time></trkpt><trkpt lat="41.173397124371526" lon="14.169751813096621"><ele>54.0</ele><time>2026-03-26T17:13:23Z</time></trkpt><trkpt lat="41.17314362202995" lon="14.169980666779345"><ele>54.0</ele><time>2026-03-26T17:13:24Z</time></trkpt><trkpt lat="41.17289146162292" lon="14.170210408806902"><ele>54.0</ele><time>2026-03-26T17:13:25Z</time></trkpt><trkpt lat="41.17264051698272" lon="14.170439607378443"><ele>54.0</ele><time>2026-03-26T17:13:26Z</time></trkpt><trkpt lat="41.17238854987671" lon="14.17066953579029"><ele>53.5</ele><time>2026-03-26T17:13:27Z</time></trkpt><trkpt lat="41.172139532496175" lon="14.170897033570691"><ele>53.0</ele><time>2026-03-26T17:13:28Z</time></trkpt><trkpt lat="41.1718919023041" lon="14.171125745984627"><ele>53.0</ele><time>2026-03-26T17:13:29Z</time></trkpt><trkpt lat="41.17164394178181" lon="14.171353912352854"><ele>53.0</ele><time>2026-03-26T17:13:30Z</time></trkpt><trkpt lat="41.17139666931313" lon="14.171581446327293"><ele>51.5</ele><time>2026-03-26T17:13:31Z</time></trkpt><trkpt lat="41.17114802199772" lon="14.171808702619456"><ele>50.0</ele><time>2026-03-26T17:13:32Z</time></trkpt><trkpt lat="41.17090024664693" lon="14.17203419713277"><ele>50.0</ele><time>2026-03-26T17:13:33Z</time></trkpt><trkpt lat="41.17065294577403" lon="14.172260680118672"><ele>50.0</ele><time>2026-03-26T17:13:34Z</time></trkpt><trkpt lat="41.17040604822256" lon="14.172486825046189"><ele>50.5</ele><time>2026-03-26T17:13:35Z</time></trkpt><trkpt lat="41.170160406436956" lon="14.172712510620364"><ele>51.0</ele><time>2026-03-26T17:13:36Z</time></trkpt><trkpt lat="41.1699131500895" lon="14.172937098996613"><ele>50.5</ele><time>2026-03-26T17:13:37Z</time></trkpt><trkpt lat="41.169668936125724" lon="14.173160539057887"><ele>50.0</ele><time>2026-03-26T17:13:38Z</time></trkpt><trkpt lat="41.16942435514184" lon="14.17338472155165"><ele>50.0</ele><time>2026-03-26T17:13:39Z</time></trkpt><trkpt lat="41.16918046828799" lon="14.173607411092174"><ele>50.0</ele><time>2026-03-26T17:13:40Z</time></trkpt><trkpt lat="41.16893697999056" lon="14.173828372519186"><ele>49.5</ele><time>2026-03-26T17:13:41Z</time></trkpt><trkpt lat="41.16869419649879" lon="14.174048565091539"><ele>49.0</ele><time>2026-03-26T17:13:42Z</time></trkpt><trkpt lat="41.168452040353095" lon="14.174270802576405"><ele>49.0</ele><time>2026-03-26T17:13:43Z</time></trkpt><trkpt lat="41.16821060585312" lon="14.17449097129565"><ele>49.0</ele><time>2026-03-26T17:13:44Z</time></trkpt><trkpt lat="41.16796968224436" lon="14.174713996344199"><ele>49.0</ele><time>2026-03-26T17:13:45Z</time></trkpt><trkpt lat="41.167727613845535" lon="14.17493805429791"><ele>49.0</ele><time>2026-03-26T17:13:46Z</time></trkpt><trkpt lat="41.16748548988192" lon="14.17516428189593"><ele>48.5</ele><time>2026-03-26T17:13:47Z</time></trkpt><trkpt lat="41.16724256382511" lon="14.175389600528613"><ele>48.0</ele><time>2026-03-26T17:13:48Z</time></trkpt><trkpt lat="41.166998995943715" lon="14.17561305221977"><ele>48.0</ele><time>2026-03-26T17:13:49Z</time></trkpt><trkpt lat="41.166754386224596" lon="14.175838734461658"><ele>48.0</ele><time>2026-03-26T17:13:50Z</time></trkpt><trkpt lat="41.16651031830244" lon="14.176060480990712"><ele>48.5</ele><time>2026-03-26T17:13:51Z</time></trkpt><trkpt lat="41.16626465037766" lon="14.176285473467894"><ele>49.0</ele><time>2026-03-26T17:13:52Z</time></trkpt><trkpt lat="41.16601874427349" lon="14.176513123928613"><ele>49.0</ele><time>2026-03-26T17:13:53Z</time></trkpt><trkpt lat="41.16577158164825" lon="14.176741150299682"><ele>49.0</ele><time>2026-03-26T17:13:54Z</time></trkpt><trkpt lat="41.16552906627592" lon="14.17697199250449"><ele>49.0</ele><time>2026-03-26T17:13:55Z</time></trkpt><trkpt lat="41.165282185777265" lon="14.177199420463626"><ele>49.0</ele><time>2026-03-26T17:13:56Z</time></trkpt><trkpt lat="41.16503705385909" lon="14.177428074464192"><ele>49.5</ele><time>2026-03-26T17:13:57Z</time></trkpt><trkpt lat="41.164795286874174" lon="14.17764839592001"><ele>50.0</ele><time>2026-03-26T17:13:58Z</time></trkpt><trkpt lat="41.164555765969446" lon="14.177869685854612"><ele>50.0</ele><time>2026-03-26T17:13:59Z</time></trkpt><trkpt lat="41.1643163755125" lon="14.178088741526068"><ele>50.0</ele><time>2026-03-26T17:14:00Z</time></trkpt><trkpt lat="41.16407769321294" lon="14.178307072194883"><ele>51.0</ele><time>2026-03-26T17:14:01Z</time></trkpt><trkpt lat="41.163838513118705" lon="14.17852694752345"><ele>52.0</ele><time>2026-03-26T17:14:02Z</time></trkpt><trkpt lat="41.163598995814084" lon="14.17874539476786"><ele>52.0</ele><time>2026-03-26T17:14:03Z</time></trkpt><trkpt lat="41.16335692441013" lon="14.17896678115962"><ele>52.0</ele><time>2026-03-26T17:14:04Z</time></trkpt><trkpt lat="41.163114517253014" lon="14.179189065759271"><ele>49.0</ele><time>2026-03-26T17:14:05Z</time></trkpt><trkpt lat="41.162871785271946" lon="14.179413368566525"><ele>46.0</ele><time>2026-03-26T17:14:06Z</time></trkpt><trkpt lat="41.16262921820725" lon="14.179638622635078"><ele>46.0</ele><time>2026-03-26T17:14:06.999Z</time></trkpt><trkpt lat="41.16238341840274" lon="14.179863714659394"><ele>46.0</ele><time>2026-03-26T17:14:07.999Z</time></trkpt><trkpt lat="41.162137052732675" lon="14.180088239626883"><ele>46.0</ele><time>2026-03-26T17:14:08.999Z</time></trkpt><trkpt lat="41.161892203656095" lon="14.180311229628574"><ele>46.0</ele><time>2026-03-26T17:14:09.999Z</time></trkpt><trkpt lat="41.16164535739067" lon="14.180536064835115"><ele>46.5</ele><time>2026-03-26T17:14:10.999Z</time></trkpt><trkpt lat="41.161398347172415" lon="14.180761105657432"><ele>47.0</ele><time>2026-03-26T17:14:11.999Z</time></trkpt><trkpt lat="41.16115323713564" lon="14.180983621380538"><ele>47.0</ele><time>2026-03-26T17:14:12.999Z</time></trkpt><trkpt lat="41.16090811175185" lon="14.181207377883434"><ele>47.0</ele><time>2026-03-26T17:14:13.999Z</time></trkpt><trkpt lat="41.160664373760625" lon="14.18143016525296"><ele>45.5</ele><time>2026-03-26T17:14:14.999Z</time></trkpt><trkpt lat="41.16042084927523" lon="14.181654632187039"><ele>44.0</ele><time>2026-03-26T17:14:15.999Z</time></trkpt><trkpt lat="41.16017904204346" lon="14.181880182610415"><ele>44.0</ele><time>2026-03-26T17:14:16.999Z</time></trkpt><trkpt lat="41.159935428179786" lon="14.182107908455253"><ele>44.0</ele><time>2026-03-26T17:14:17.999Z</time></trkpt><trkpt lat="41.159691388331666" lon="14.182335791180833"><ele>43.0</ele><time>2026-03-26T17:14:18.999Z</time></trkpt><trkpt lat="41.15944650373298" lon="14.182566052080782"><ele>42.0</ele><time>2026-03-26T17:14:19.999Z</time></trkpt><trkpt lat="41.15920020493805" lon="14.182794342572468"><ele>42.5</ele><time>2026-03-26T17:14:20.999Z</time></trkpt><trkpt lat="41.15895407771123" lon="14.183020203792697"><ele>43.0</ele><time>2026-03-26T17:14:21.999Z</time></trkpt><trkpt lat="41.15870797791546" lon="14.18324728872512"><ele>43.0</ele><time>2026-03-26T17:14:22.999Z</time></trkpt><trkpt lat="41.158461925314654" lon="14.183475671185475"><ele>43.0</ele><time>2026-03-26T17:14:23.999Z</time></trkpt><trkpt lat="41.15821853001508" lon="14.183709585703868"><ele>43.5</ele><time>2026-03-26T17:14:24.999Z</time></trkpt><trkpt lat="41.15797201762589" lon="14.183943501863743"><ele>44.0</ele><time>2026-03-26T17:14:25.999Z</time></trkpt><trkpt lat="41.157729452734635" lon="14.184183512005443"><ele>43.0</ele><time>2026-03-26T17:14:26.999Z</time></trkpt><trkpt lat="41.15748319833941" lon="14.184413567262133"><ele>42.0</ele><time>2026-03-26T17:14:27.999Z</time></trkpt><trkpt lat="41.15723745352538" lon="14.184645092454653"><ele>41.0</ele><time>2026-03-26T17:14:28.999Z</time></trkpt><trkpt lat="41.15698993711811" lon="14.184875994805184"><ele>40.0</ele><time>2026-03-26T17:14:29.999Z</time></trkpt><trkpt lat="41.156742035203116" lon="14.185102536342798"><ele>39.5</ele><time>2026-03-26T17:14:30.999Z</time></trkpt><trkpt lat="41.15649507151539" lon="14.185329287579599"><ele>39.0</ele><time>2026-03-26T17:14:31.999Z</time></trkpt><trkpt lat="41.15624668367937" lon="14.185555724633243"><ele>37.5</ele><time>2026-03-26T17:14:32.999Z</time></trkpt><trkpt lat="41.15600426818228" lon="14.185779894239555"><ele>36.0</ele><time>2026-03-26T17:14:33.999Z</time></trkpt><trkpt lat="41.15576847831792" lon="14.185999673376552"><ele>37.5</ele><time>2026-03-26T17:14:34.999Z</time></trkpt><trkpt lat="41.15554020748923" lon="14.186211024889884"><ele>39.0</ele><time>2026-03-26T17:14:35.999Z</time></trkpt><trkpt lat="41.155313301842405" lon="14.186418362972386"><ele>38.0</ele><time>2026-03-26T17:14:36.999Z</time></trkpt><trkpt lat="41.15508531940896" lon="14.186627410765714"><ele>37.0</ele><time>2026-03-26T17:14:37.999Z</time></trkpt><trkpt lat="41.15485666522516" lon="14.186841325813383"><ele>37.0</ele><time>2026-03-26T17:14:38.999Z</time></trkpt><trkpt lat="41.15462251049863" lon="14.187060015233252"><ele>37.0</ele><time>2026-03-26T17:14:39.999Z</time></trkpt><trkpt lat="41.15438994106608" lon="14.18727935436764"><ele>37.5</ele><time>2026-03-26T17:14:40.999Z</time></trkpt><trkpt lat="41.15415663461141" lon="14.187512820812811"><ele>38.0</ele><time>2026-03-26T17:14:41.999Z</time></trkpt><trkpt lat="41.15391996249041" lon="14.187746669319722"><ele>38.0</ele><time>2026-03-26T17:14:42.999Z</time></trkpt><trkpt lat="41.1536744496538" lon="14.18798405759948"><ele>38.0</ele><time>2026-03-26T17:14:43.999Z</time></trkpt><trkpt lat="41.153424259508945" lon="14.188213590318238"><ele>37.5</ele><time>2026-03-26T17:14:44.999Z</time></trkpt><trkpt lat="41.15317132188071" lon="14.188441008841039"><ele>37.0</ele><time>2026-03-26T17:14:46Z</time></trkpt><trkpt lat="41.15292012963906" lon="14.188672601450738"><ele>37.0</ele><time>2026-03-26T17:14:47Z</time></trkpt><trkpt lat="41.15266841219233" lon="14.188906948977735"><ele>37.0</ele><time>2026-03-26T17:14:48Z</time></trkpt><trkpt lat="41.15241704553029" lon="14.189142258164626"><ele>38.0</ele><time>2026-03-26T17:14:49Z</time></trkpt><trkpt lat="41.15216524783041" lon="14.189376168133629"><ele>39.0</ele><time>2026-03-26T17:14:50Z</time></trkpt><trkpt lat="41.15191178551485" lon="14.189605422282291"><ele>39.0</ele><time>2026-03-26T17:14:51Z</time></trkpt><trkpt lat="41.15165661545494" lon="14.189836817459199"><ele>39.0</ele><time>2026-03-26T17:14:52Z</time></trkpt><trkpt lat="41.151401229772716" lon="14.190068100618499"><ele>36.0</ele><time>2026-03-26T17:14:53Z</time></trkpt><trkpt lat="41.151148017419445" lon="14.19029684439347"><ele>33.0</ele><time>2026-03-26T17:14:54Z</time></trkpt><trkpt lat="41.150896644013145" lon="14.190524429827615"><ele>32.0</ele><time>2026-03-26T17:14:55Z</time></trkpt><trkpt lat="41.15064614199608" lon="14.190753191914348"><ele>31.0</ele><time>2026-03-26T17:14:56Z</time></trkpt><trkpt lat="41.150399261978166" lon="14.190982240041304"><ele>31.0</ele><time>2026-03-26T17:14:57Z</time></trkpt><trkpt lat="41.150151588261984" lon="14.191210844890847"><ele>31.0</ele><time>2026-03-26T17:14:58Z</time></trkpt><trkpt lat="41.1499040080863" lon="14.191439149667437"><ele>30.5</ele><time>2026-03-26T17:14:59Z</time></trkpt><trkpt lat="41.14965549984278" lon="14.191667045236217"><ele>30.0</ele><time>2026-03-26T17:15:00Z</time></trkpt><trkpt lat="41.14940613739951" lon="14.191894477337012"><ele>30.0</ele><time>2026-03-26T17:15:01Z</time></trkpt><trkpt lat="41.149158358782934" lon="14.192121791186356"><ele>30.0</ele><time>2026-03-26T17:15:02Z</time></trkpt><trkpt lat="41.14891196130934" lon="14.192349503972908"><ele>30.5</ele><time>2026-03-26T17:15:03Z</time></trkpt><trkpt lat="41.148665719526214" lon="14.192577549405401"><ele>31.0</ele><time>2026-03-26T17:15:04Z</time></trkpt><trkpt lat="41.14841972804937" lon="14.192804358613472"><ele>30.5</ele><time>2026-03-26T17:15:05Z</time></trkpt><trkpt lat="41.14817521940147" lon="14.193028301089013"><ele>30.0</ele><time>2026-03-26T17:15:06Z</time></trkpt><trkpt lat="41.147930464080176" lon="14.193251469375475"><ele>30.0</ele><time>2026-03-26T17:15:07Z</time></trkpt><trkpt lat="41.147684819323224" lon="14.193476139410405"><ele>30.0</ele><time>2026-03-26T17:15:08Z</time></trkpt><trkpt lat="41.14743997132684" lon="14.193701934254513"><ele>29.5</ele><time>2026-03-26T17:15:09Z</time></trkpt><trkpt lat="41.14719578160363" lon="14.193929197226435"><ele>29.0</ele><time>2026-03-26T17:15:10Z</time></trkpt><trkpt lat="41.146953277007185" lon="14.194155735517912"><ele>29.0</ele><time>2026-03-26T17:15:11Z</time></trkpt><trkpt lat="41.146709333529735" lon="14.194383335732876"><ele>29.0</ele><time>2026-03-26T17:15:12Z</time></trkpt><trkpt lat="41.146465259903145" lon="14.19461052332985"><ele>29.0</ele><time>2026-03-26T17:15:13Z</time></trkpt><trkpt lat="41.14622026752036" lon="14.194834655291977"><ele>29.0</ele><time>2026-03-26T17:15:14Z</time></trkpt><trkpt lat="41.145973574948286" lon="14.195058210923795"><ele>28.5</ele><time>2026-03-26T17:15:15Z</time></trkpt><trkpt lat="41.14572825206414" lon="14.195283539360771"><ele>28.0</ele><time>2026-03-26T17:15:16Z</time></trkpt><trkpt lat="41.145482162796384" lon="14.195508780139095"><ele>29.5</ele><time>2026-03-26T17:15:17Z</time></trkpt><trkpt lat="41.14523688944978" lon="14.195732630054694"><ele>31.0</ele><time>2026-03-26T17:15:18Z</time></trkpt><trkpt lat="41.14499055634822" lon="14.195957123478443"><ele>31.0</ele><time>2026-03-26T17:15:19Z</time></trkpt><trkpt lat="41.14474281581843" lon="14.196182531899003"><ele>31.0</ele><time>2026-03-26T17:15:20Z</time></trkpt><trkpt lat="41.14449471707807" lon="14.196408829996054"><ele>30.5</ele><time>2026-03-26T17:15:21Z</time></trkpt><trkpt lat="41.144247689411735" lon="14.196636808009941"><ele>30.0</ele><time>2026-03-26T17:15:22Z</time></trkpt><trkpt lat="41.143999869741144" lon="14.196866500935496"><ele>30.0</ele><time>2026-03-26T17:15:23Z</time></trkpt><trkpt lat="41.14375071393438" lon="14.1970940290235"><ele>30.0</ele><time>2026-03-26T17:15:24Z</time></trkpt><trkpt lat="41.143499044454515" lon="14.197319434288476"><ele>30.5</ele><time>2026-03-26T17:15:25Z</time></trkpt><trkpt lat="41.143246024289965" lon="14.197542054508956"><ele>31.0</ele><time>2026-03-26T17:15:26Z</time></trkpt><trkpt lat="41.14299286853954" lon="14.197763374192599"><ele>31.5</ele><time>2026-03-26T17:15:27Z</time></trkpt><trkpt lat="41.14274107891284" lon="14.197986130109776"><ele>32.0</ele><time>2026-03-26T17:15:28Z</time></trkpt><trkpt lat="41.142492004194104" lon="14.198206813663928"><ele>31.0</ele><time>2026-03-26T17:15:29Z</time></trkpt><trkpt lat="41.14224414443018" lon="14.198430584775467"><ele>30.0</ele><time>2026-03-26T17:15:30Z</time></trkpt><trkpt lat="41.14199869477587" lon="14.198654831451616"><ele>30.0</ele><time>2026-03-26T17:15:31Z</time></trkpt><trkpt lat="41.1417560335413" lon="14.198878474409284"><ele>30.0</ele><time>2026-03-26T17:15:32Z</time></trkpt><trkpt lat="41.141510620661734" lon="14.199108857875101"><ele>29.0</ele><time>2026-03-26T17:15:33Z</time></trkpt><trkpt lat="41.14126517148985" lon="14.199341647292288"><ele>28.0</ele><time>2026-03-26T17:15:34Z</time></trkpt><trkpt lat="41.1410190952341" lon="14.199573107156834"><ele>28.0</ele><time>2026-03-26T17:15:35Z</time></trkpt><trkpt lat="41.14077318503289" lon="14.199800771654402"><ele>28.0</ele><time>2026-03-26T17:15:36Z</time></trkpt><trkpt lat="41.14052767117691" lon="14.200027502897369"><ele>27.0</ele><time>2026-03-26T17:15:37Z</time></trkpt><trkpt lat="41.1402825747017" lon="14.20025555561264"><ele>26.0</ele><time>2026-03-26T17:15:38Z</time></trkpt><trkpt lat="41.14004118697419" lon="14.200489256904907"><ele>25.5</ele><time>2026-03-26T17:15:39Z</time></trkpt><trkpt lat="41.13980428376873" lon="14.200730766658145"><ele>25.0</ele><time>2026-03-26T17:15:40Z</time></trkpt><trkpt lat="41.13956907126054" lon="14.200979683488763"><ele>25.0</ele><time>2026-03-26T17:15:41Z</time></trkpt><trkpt lat="41.13934090782108" lon="14.201235050571364"><ele>25.0</ele><time>2026-03-26T17:15:42Z</time></trkpt><trkpt lat="41.139117536641265" lon="14.201500563465114"><ele>25.0</ele><time>2026-03-26T17:15:43Z</time></trkpt><trkpt lat="41.13889806550944" lon="14.20177100178993"><ele>25.0</ele><time>2026-03-26T17:15:44Z</time></trkpt><trkpt lat="41.1386796848287" lon="14.202042803293573"><ele>25.0</ele><time>2026-03-26T17:15:45Z</time></trkpt><trkpt lat="41.13846513363127" lon="14.202309937626348"><ele>25.0</ele><time>2026-03-26T17:15:46Z</time></trkpt><trkpt lat="41.138251748731776" lon="14.202577577061792"><ele>24.0</ele><time>2026-03-26T17:15:47Z</time></trkpt><trkpt lat="41.13805129320507" lon="14.202852260315058"><ele>23.0</ele><time>2026-03-26T17:15:48Z</time></trkpt><trkpt lat="41.1378507184022" lon="14.203127191816234"><ele>23.5</ele><time>2026-03-26T17:15:49Z</time></trkpt><trkpt lat="41.13765171820621" lon="14.203405054538804"><ele>24.0</ele><time>2026-03-26T17:15:50Z</time></trkpt><trkpt lat="41.137456767775234" lon="14.203684127350012"><ele>23.5</ele><time>2026-03-26T17:15:51Z</time></trkpt><trkpt lat="41.1372663699613" lon="14.203968218176756"><ele>23.0</ele><time>2026-03-26T17:15:52Z</time></trkpt><trkpt lat="41.1370775552622" lon="14.204254547158135"><ele>24.5</ele><time>2026-03-26T17:15:53Z</time></trkpt><trkpt lat="41.136888542533285" lon="14.204543897271705"><ele>26.0</ele><time>2026-03-26T17:15:54Z</time></trkpt><trkpt lat="41.13669955821225" lon="14.204834783225468"><ele>27.0</ele><time>2026-03-26T17:15:55Z</time></trkpt><trkpt lat="41.13650853053177" lon="14.20512269282598"><ele>28.0</ele><time>2026-03-26T17:15:56Z</time></trkpt><trkpt lat="41.136316385541505" lon="14.205409460012362"><ele>27.5</ele><time>2026-03-26T17:15:57Z</time></trkpt><trkpt lat="41.13612222419142" lon="14.205698325057964"><ele>27.0</ele><time>2026-03-26T17:15:58Z</time></trkpt><trkpt lat="41.13592886707443" lon="14.205986490862903"><ele>27.0</ele><time>2026-03-26T17:15:59Z</time></trkpt><trkpt lat="41.13573622825225" lon="14.206276762975435"><ele>27.0</ele><time>2026-03-26T17:16:00Z</time></trkpt><trkpt lat="41.13554645960734" lon="14.20656657244209"><ele>25.0</ele><time>2026-03-26T17:16:01Z</time></trkpt><trkpt lat="41.13535639817753" lon="14.206856668922347"><ele>23.0</ele><time>2026-03-26T17:16:02Z</time></trkpt><trkpt lat="41.1351662544388" lon="14.207141831532208"><ele>23.5</ele><time>2026-03-26T17:16:03Z</time></trkpt><trkpt lat="41.134975936794596" lon="14.20742477775767"><ele>24.0</ele><time>2026-03-26T17:16:04Z</time></trkpt><trkpt lat="41.13478597274009" lon="14.207706270633471"><ele>24.5</ele><time>2026-03-26T17:16:05Z</time></trkpt><trkpt lat="41.13459393840054" lon="14.207992721000114"><ele>25.0</ele><time>2026-03-26T17:16:06Z</time></trkpt><trkpt lat="41.134399696546055" lon="14.208273870795216"><ele>25.0</ele><time>2026-03-26T17:16:07Z</time></trkpt><trkpt lat="41.134204930601136" lon="14.208553022641873"><ele>25.0</ele><time>2026-03-26T17:16:08Z</time></trkpt><trkpt lat="41.134012036854664" lon="14.208834097297308"><ele>26.0</ele><time>2026-03-26T17:16:09Z</time></trkpt><trkpt lat="41.1338202999375" lon="14.20911320253632"><ele>27.0</ele><time>2026-03-26T17:16:10Z</time></trkpt><trkpt lat="41.13362973642535" lon="14.20939429833779"><ele>27.0</ele><time>2026-03-26T17:16:11Z</time></trkpt><trkpt lat="41.13344010654205" lon="14.209677332525645"><ele>27.0</ele><time>2026-03-26T17:16:12Z</time></trkpt><trkpt lat="41.13325163357501" lon="14.20996006917636"><ele>26.5</ele><time>2026-03-26T17:16:13Z</time></trkpt><trkpt lat="41.13306320930244" lon="14.210247922566468"><ele>26.0</ele><time>2026-03-26T17:16:14Z</time></trkpt><trkpt lat="41.132873795311895" lon="14.210539234455274"><ele>26.0</ele><time>2026-03-26T17:16:14.999Z</time></trkpt><trkpt lat="41.132684099022114" lon="14.210830346236369"><ele>26.0</ele><time>2026-03-26T17:16:15.999Z</time></trkpt><trkpt lat="41.1324908710881" lon="14.211119037560351"><ele>26.0</ele><time>2026-03-26T17:16:16.999Z</time></trkpt><trkpt lat="41.13229565121212" lon="14.211402900248556"><ele>26.0</ele><time>2026-03-26T17:16:17.999Z</time></trkpt><trkpt lat="41.1321025263813" lon="14.211687560159602"><ele>26.0</ele><time>2026-03-26T17:16:18.999Z</time></trkpt><trkpt lat="41.13191054224441" lon="14.211974529359493"><ele>26.0</ele><time>2026-03-26T17:16:19.999Z</time></trkpt><trkpt lat="41.13172115150451" lon="14.212262062921338"><ele>25.0</ele><time>2026-03-26T17:16:20.999Z</time></trkpt><trkpt lat="41.13153239076033" lon="14.212549612205091"><ele>24.0</ele><time>2026-03-26T17:16:21.999Z</time></trkpt><trkpt lat="41.13134477803233" lon="14.21283377067533"><ele>24.0</ele><time>2026-03-26T17:16:22.999Z</time></trkpt><trkpt lat="41.13115641878426" lon="14.213117707417368"><ele>24.0</ele><time>2026-03-26T17:16:23.999Z</time></trkpt><trkpt lat="41.13096751364105" lon="14.213402257398851"><ele>24.0</ele><time>2026-03-26T17:16:24.999Z</time></trkpt><trkpt lat="41.13077766414689" lon="14.213687823865307"><ele>24.0</ele><time>2026-03-26T17:16:25.999Z</time></trkpt><trkpt lat="41.130589551333095" lon="14.213970697105049"><ele>24.0</ele><time>2026-03-26T17:16:26.999Z</time></trkpt><trkpt lat="41.13040170224131" lon="14.21425079413839"><ele>24.0</ele><time>2026-03-26T17:16:27.999Z</time></trkpt><trkpt lat="41.13021389571276" lon="14.214531469426603"><ele>24.0</ele><time>2026-03-26T17:16:28.999Z</time></trkpt><trkpt lat="41.13002471038241" lon="14.214812150984137"><ele>24.0</ele><time>2026-03-26T17:16:29.999Z</time></trkpt><trkpt lat="41.12983781144737" lon="14.215094157084769"><ele>24.5</ele><time>2026-03-26T17:16:30.999Z</time></trkpt><trkpt lat="41.12964920129886" lon="14.215377188301922"><ele>25.0</ele><time>2026-03-26T17:16:31.999Z</time></trkpt><trkpt lat="41.12946290673683" lon="14.215659643968962"><ele>25.0</ele><time>2026-03-26T17:16:32.999Z</time></trkpt><trkpt lat="41.1292776092985" lon="14.215942876890722"><ele>25.0</ele><time>2026-03-26T17:16:33.999Z</time></trkpt><trkpt lat="41.12909158962148" lon="14.216225229990233"><ele>25.0</ele><time>2026-03-26T17:16:34.999Z</time></trkpt><trkpt lat="41.128906189250124" lon="14.216506017547037"><ele>25.0</ele><time>2026-03-26T17:16:35.999Z</time></trkpt><trkpt lat="41.12871895263868" lon="14.216787701892791"><ele>25.0</ele><time>2026-03-26T17:16:36.999Z</time></trkpt><trkpt lat="41.1285299846074" lon="14.21706665903668"><ele>25.0</ele><time>2026-03-26T17:16:37.999Z</time></trkpt><trkpt lat="41.12833858605821" lon="14.217344425748651"><ele>27.5</ele><time>2026-03-26T17:16:38.999Z</time></trkpt><trkpt lat="41.12814528754383" lon="14.217620435478494"><ele>30.0</ele><time>2026-03-26T17:16:39.999Z</time></trkpt><trkpt lat="41.12795163857183" lon="14.2178972690703"><ele>29.5</ele><time>2026-03-26T17:16:40.999Z</time></trkpt><trkpt lat="41.12775944290772" lon="14.218176442536322"><ele>29.0</ele><time>2026-03-26T17:16:41.999Z</time></trkpt><trkpt lat="41.12756814030523" lon="14.218456607582056"><ele>28.5</ele><time>2026-03-26T17:16:42.999Z</time></trkpt><trkpt lat="41.1273779565467" lon="14.218737665677049"><ele>28.0</ele><time>2026-03-26T17:16:43.999Z</time></trkpt><trkpt lat="41.12718898106555" lon="14.219023164158177"><ele>26.5</ele><time>2026-03-26T17:16:44.999Z</time></trkpt><trkpt lat="41.126998841772235" lon="14.219308688983583"><ele>25.0</ele><time>2026-03-26T17:16:45.999Z</time></trkpt><trkpt lat="41.126809938237315" lon="14.219593599298365"><ele>24.5</ele><time>2026-03-26T17:16:46.999Z</time></trkpt><trkpt lat="41.12662289092478" lon="14.219877470782533"><ele>24.0</ele><time>2026-03-26T17:16:47.999Z</time></trkpt><trkpt lat="41.12643547827103" lon="14.220159098172616"><ele>23.0</ele><time>2026-03-26T17:16:48.999Z</time></trkpt><trkpt lat="41.126246827840795" lon="14.220440782405236"><ele>22.0</ele><time>2026-03-26T17:16:49.999Z</time></trkpt><trkpt lat="41.12605728489979" lon="14.220723499963746"><ele>22.0</ele><time>2026-03-26T17:16:50.999Z</time></trkpt><trkpt lat="41.12586748400787" lon="14.221008417571982"><ele>22.0</ele><time>2026-03-26T17:16:52Z</time></trkpt><trkpt lat="41.12567829855064" lon="14.221295153578536"><ele>22.0</ele><time>2026-03-26T17:16:53Z</time></trkpt><trkpt lat="41.1254886359107" lon="14.22158161631094"><ele>22.0</ele><time>2026-03-26T17:16:54Z</time></trkpt><trkpt lat="41.125297873659" lon="14.221867732153072"><ele>22.0</ele><time>2026-03-26T17:16:55Z</time></trkpt><trkpt lat="41.12510774052509" lon="14.222154436202343"><ele>22.0</ele><time>2026-03-26T17:16:56Z</time></trkpt><trkpt lat="41.12491702277389" lon="14.222440365149906"><ele>22.0</ele><time>2026-03-26T17:16:57Z</time></trkpt><trkpt lat="41.124726479912106" lon="14.22272687480813"><ele>22.0</ele><time>2026-03-26T17:16:58Z</time></trkpt><trkpt lat="41.124536377306406" lon="14.223013700278878"><ele>22.0</ele><time>2026-03-26T17:16:59Z</time></trkpt><trkpt lat="41.12434503935724" lon="14.223302225558736"><ele>22.0</ele><time>2026-03-26T17:17:00Z</time></trkpt><trkpt lat="41.124154411934725" lon="14.223589567794587"><ele>22.0</ele><time>2026-03-26T17:17:01Z</time></trkpt><trkpt lat="41.123963732698016" lon="14.223877431917167"><ele>22.0</ele><time>2026-03-26T17:17:02Z</time></trkpt><trkpt lat="41.12377282179359" lon="14.224164263576956"><ele>20.5</ele><time>2026-03-26T17:17:03Z</time></trkpt><trkpt lat="41.123581410901274" lon="14.224450572179792"><ele>19.0</ele><time>2026-03-26T17:17:04Z</time></trkpt><trkpt lat="41.12339050850338" lon="14.224736931296777"><ele>20.0</ele><time>2026-03-26T17:17:05Z</time></trkpt><trkpt lat="41.123200338327784" lon="14.225023976146927"><ele>21.0</ele><time>2026-03-26T17:17:06Z</time></trkpt><trkpt lat="41.123011186061575" lon="14.22531195787881"><ele>21.0</ele><time>2026-03-26T17:17:07Z</time></trkpt><trkpt lat="41.12282294998131" lon="14.225595951486538"><ele>21.0</ele><time>2026-03-26T17:17:08Z</time></trkpt><trkpt lat="41.122633503065224" lon="14.225882474202972"><ele>21.0</ele><time>2026-03-26T17:17:09Z</time></trkpt><trkpt lat="41.1224426427568" lon="14.226168901278607"><ele>21.0</ele><time>2026-03-26T17:17:10Z</time></trkpt><trkpt lat="41.122251064478895" lon="14.226453943572364"><ele>21.5</ele><time>2026-03-26T17:17:11Z</time></trkpt><trkpt lat="41.122058016759404" lon="14.226736285478284"><ele>22.0</ele><time>2026-03-26T17:17:12Z</time></trkpt><trkpt lat="41.12186314641147" lon="14.227015226471206"><ele>22.0</ele><time>2026-03-26T17:17:13Z</time></trkpt><trkpt lat="41.121665500283314" lon="14.227292624740791"><ele>22.0</ele><time>2026-03-26T17:17:14Z</time></trkpt><trkpt lat="41.12146388076946" lon="14.227569054396065"><ele>22.0</ele><time>2026-03-26T17:17:15Z</time></trkpt><trkpt lat="41.12126113187149" lon="14.227840209543157"><ele>22.0</ele><time>2026-03-26T17:17:16Z</time></trkpt><trkpt lat="41.12105620109792" lon="14.228108370141882"><ele>22.5</ele><time>2026-03-26T17:17:17Z</time></trkpt><trkpt lat="41.120849820164196" lon="14.228370301816533"><ele>23.0</ele><time>2026-03-26T17:17:18Z</time></trkpt><trkpt lat="41.120640426513596" lon="14.228629382117152"><ele>23.0</ele><time>2026-03-26T17:17:19Z</time></trkpt><trkpt lat="41.12042869983217" lon="14.228885151881043"><ele>23.0</ele><time>2026-03-26T17:17:20Z</time></trkpt><trkpt lat="41.12021490587657" lon="14.229138370342056"><ele>22.5</ele><time>2026-03-26T17:17:21Z</time></trkpt><trkpt lat="41.11999782566346" lon="14.229388455289833"><ele>22.0</ele><time>2026-03-26T17:17:22Z</time></trkpt><trkpt lat="41.11977911876872" lon="14.229634494215297"><ele>22.5</ele><time>2026-03-26T17:17:23Z</time></trkpt><trkpt lat="41.119556843271596" lon="14.229875267906419"><ele>23.0</ele><time>2026-03-26T17:17:24Z</time></trkpt><trkpt lat="41.11933489026048" lon="14.230110552499207"><ele>23.0</ele><time>2026-03-26T17:17:25Z</time></trkpt><trkpt lat="41.119115518879056" lon="14.230341634268804"><ele>23.0</ele><time>2026-03-26T17:17:26Z</time></trkpt><trkpt lat="41.118899021934524" lon="14.23056881085897"><ele>22.5</ele><time>2026-03-26T17:17:27Z</time></trkpt><trkpt lat="41.11868095953528" lon="14.23079482071347"><ele>22.0</ele><time>2026-03-26T17:17:28Z</time></trkpt><trkpt lat="41.11846468555729" lon="14.231021032779351"><ele>22.0</ele><time>2026-03-26T17:17:29Z</time></trkpt><trkpt lat="41.11824796523931" lon="14.231254613950444"><ele>22.0</ele><time>2026-03-26T17:17:30Z</time></trkpt><trkpt lat="41.11803068979132" lon="14.231489663832274"><ele>21.5</ele><time>2026-03-26T17:17:31Z</time></trkpt><trkpt lat="41.11781217904349" lon="14.231728220208096"><ele>21.0</ele><time>2026-03-26T17:17:32Z</time></trkpt><trkpt lat="41.117594067633625" lon="14.231962933418087"><ele>21.0</ele><time>2026-03-26T17:17:33Z</time></trkpt><trkpt lat="41.117374732073294" lon="14.232194762756707"><ele>21.0</ele><time>2026-03-26T17:17:34Z</time></trkpt><trkpt lat="41.11715267411233" lon="14.232427852342276"><ele>22.0</ele><time>2026-03-26T17:17:35Z</time></trkpt><trkpt lat="41.116930405238364" lon="14.23265784331649"><ele>23.0</ele><time>2026-03-26T17:17:36Z</time></trkpt><trkpt lat="41.116705097556775" lon="14.232890728822479"><ele>23.0</ele><time>2026-03-26T17:17:37Z</time></trkpt><trkpt lat="41.11648172105762" lon="14.23312594529494"><ele>23.0</ele><time>2026-03-26T17:17:38Z</time></trkpt><trkpt lat="41.11625575598128" lon="14.23336546465413"><ele>24.0</ele><time>2026-03-26T17:17:39Z</time></trkpt><trkpt lat="41.11603067845849" lon="14.233607229846204"><ele>25.0</ele><time>2026-03-26T17:17:40Z</time></trkpt><trkpt lat="41.11580777985192" lon="14.233849786651815"><ele>26.0</ele><time>2026-03-26T17:17:41Z</time></trkpt><trkpt lat="41.115589202017006" lon="14.234093242168013"><ele>27.0</ele><time>2026-03-26T17:17:42Z</time></trkpt><trkpt lat="41.115373399278454" lon="14.234337824108328"><ele>27.0</ele><time>2026-03-26T17:17:43Z</time></trkpt><trkpt lat="41.115165009945116" lon="14.234584330776789"><ele>27.0</ele><time>2026-03-26T17:17:44Z</time></trkpt><trkpt lat="41.114963493900234" lon="14.234838594780836"><ele>26.0</ele><time>2026-03-26T17:17:45Z</time></trkpt><trkpt lat="41.11477026483478" lon="14.23509523579536"><ele>25.0</ele><time>2026-03-26T17:17:46Z</time></trkpt><trkpt lat="41.114581597651444" lon="14.235352838414114"><ele>25.0</ele><time>2026-03-26T17:17:47Z</time></trkpt><trkpt lat="41.11439880125331" lon="14.235613415782508"><ele>25.0</ele><time>2026-03-26T17:17:48Z</time></trkpt><trkpt lat="41.11422867330826" lon="14.235867626491093"><ele>24.5</ele><time>2026-03-26T17:17:49Z</time></trkpt><trkpt lat="41.11405884564081" lon="14.236127229817239"><ele>24.0</ele><time>2026-03-26T17:17:50Z</time></trkpt><trkpt lat="41.11389562745898" lon="14.236392732988547"><ele>25.0</ele><time>2026-03-26T17:17:51Z</time></trkpt><trkpt lat="41.113738175042755" lon="14.236669413088661"><ele>26.0</ele><time>2026-03-26T17:17:52Z</time></trkpt><trkpt lat="41.11358197205103" lon="14.236956828755341"><ele>26.0</ele><time>2026-03-26T17:17:53Z</time></trkpt><trkpt lat="41.11342420539441" lon="14.237251107762454"><ele>26.0</ele><time>2026-03-26T17:17:54Z</time></trkpt><trkpt lat="41.11326611130064" lon="14.237550113812688"><ele>26.5</ele><time>2026-03-26T17:17:55Z</time></trkpt><trkpt lat="41.113111806969535" lon="14.23785561835467"><ele>27.0</ele><time>2026-03-26T17:17:56Z</time></trkpt><trkpt lat="41.11295950135972" lon="14.238165878794938"><ele>26.0</ele><time>2026-03-26T17:17:57Z</time></trkpt><trkpt lat="41.11281176498609" lon="14.2384774334009"><ele>25.0</ele><time>2026-03-26T17:17:58Z</time></trkpt><trkpt lat="41.1126654139242" lon="14.238791920776203"><ele>25.5</ele><time>2026-03-26T17:17:59Z</time></trkpt><trkpt lat="41.112519469877626" lon="14.239104527309395"><ele>26.0</ele><time>2026-03-26T17:18:00Z</time></trkpt><trkpt lat="41.11237303465309" lon="14.239419559485563"><ele>26.0</ele><time>2026-03-26T17:18:01Z</time></trkpt><trkpt lat="41.11222777484039" lon="14.239734991284267"><ele>26.0</ele><time>2026-03-26T17:18:02Z</time></trkpt><trkpt lat="41.11208148913014" lon="14.24004864939085"><ele>26.0</ele><time>2026-03-26T17:18:03Z</time></trkpt><trkpt lat="41.11193349354895" lon="14.240360090025309"><ele>26.0</ele><time>2026-03-26T17:18:04Z</time></trkpt><trkpt lat="41.1117855931418" lon="14.240672057537823"><ele>26.0</ele><time>2026-03-26T17:18:05Z</time></trkpt><trkpt lat="41.111638793981435" lon="14.240985553493369"><ele>26.0</ele><time>2026-03-26T17:18:06Z</time></trkpt><trkpt lat="41.11149293761653" lon="14.241300330678788"><ele>25.5</ele><time>2026-03-26T17:18:07Z</time></trkpt><trkpt lat="41.1113464718241" lon="14.24161720173182"><ele>25.0</ele><time>2026-03-26T17:18:08Z</time></trkpt><trkpt lat="41.111196621831034" lon="14.241930476287022"><ele>25.0</ele><time>2026-03-26T17:18:09Z</time></trkpt><trkpt lat="41.11104540935504" lon="14.242244535048474"><ele>25.0</ele><time>2026-03-26T17:18:10Z</time></trkpt><trkpt lat="41.11089361846864" lon="14.242557397285251"><ele>26.0</ele><time>2026-03-26T17:18:11Z</time></trkpt><trkpt lat="41.1107430102955" lon="14.242866263200249"><ele>27.0</ele><time>2026-03-26T17:18:12Z</time></trkpt><trkpt lat="41.110596821943766" lon="14.243172889747635"><ele>27.5</ele><time>2026-03-26T17:18:13Z</time></trkpt><trkpt lat="41.11045374320655" lon="14.24347719960232"><ele>28.0</ele><time>2026-03-26T17:18:14Z</time></trkpt><trkpt lat="41.11031206931519" lon="14.243782781003196"><ele>28.0</ele><time>2026-03-26T17:18:15Z</time></trkpt><trkpt lat="41.11017097621578" lon="14.24408759893795"><ele>28.0</ele><time>2026-03-26T17:18:16Z</time></trkpt><trkpt lat="41.11002924623037" lon="14.244390860840934"><ele>28.0</ele><time>2026-03-26T17:18:17Z</time></trkpt><trkpt lat="41.10988892837758" lon="14.244692787623244"><ele>28.0</ele><time>2026-03-26T17:18:18Z</time></trkpt><trkpt lat="41.10974945019005" lon="14.24499766676009"><ele>28.5</ele><time>2026-03-26T17:18:19Z</time></trkpt><trkpt lat="41.10960830214705" lon="14.245306440315016"><ele>29.0</ele><time>2026-03-26T17:18:20Z</time></trkpt><trkpt lat="41.10946323200998" lon="14.245616834418176"><ele>29.0</ele><time>2026-03-26T17:18:21Z</time></trkpt><trkpt lat="41.10931713876486" lon="14.24592758066569"><ele>29.0</ele><time>2026-03-26T17:18:21.999Z</time></trkpt><trkpt lat="41.10917014737938" lon="14.24624075128159"><ele>29.0</ele><time>2026-03-26T17:18:22.999Z</time></trkpt><trkpt lat="41.109024070991" lon="14.246554392113364"><ele>29.0</ele><time>2026-03-26T17:18:23.999Z</time></trkpt><trkpt lat="41.108877213338594" lon="14.246868244012195"><ele>29.0</ele><time>2026-03-26T17:18:24.999Z</time></trkpt><trkpt lat="41.108731974222565" lon="14.247186111027267"><ele>29.0</ele><time>2026-03-26T17:18:25.999Z</time></trkpt><trkpt lat="41.10858521501065" lon="14.247506373041727"><ele>30.0</ele><time>2026-03-26T17:18:26.999Z</time></trkpt><trkpt lat="41.10843856484902" lon="14.24782607470451"><ele>31.0</ele><time>2026-03-26T17:18:27.999Z</time></trkpt><trkpt lat="41.1082917509478" lon="14.24813952204826"><ele>32.5</ele><time>2026-03-26T17:18:28.999Z</time></trkpt><trkpt lat="41.108147440642874" lon="14.248455026838228"><ele>34.0</ele><time>2026-03-26T17:18:29.999Z</time></trkpt><trkpt lat="41.108003484041475" lon="14.248770237265655"><ele>33.5</ele><time>2026-03-26T17:18:30.999Z</time></trkpt><trkpt lat="41.10785661074341" lon="14.24908287568285"><ele>33.0</ele><time>2026-03-26T17:18:31.999Z</time></trkpt><trkpt lat="41.10771079002848" lon="14.24939678341154"><ele>33.0</ele><time>2026-03-26T17:18:32.999Z</time></trkpt><trkpt lat="41.10756489678476" lon="14.249709074468074"><ele>33.0</ele><time>2026-03-26T17:18:33.999Z</time></trkpt><trkpt lat="41.10741946864953" lon="14.25001965230884"><ele>33.0</ele><time>2026-03-26T17:18:34.999Z</time></trkpt><trkpt lat="41.10727420384704" lon="14.250333357993444"><ele>33.0</ele><time>2026-03-26T17:18:35.999Z</time></trkpt><trkpt lat="41.10712792027746" lon="14.25064858108871"><ele>33.5</ele><time>2026-03-26T17:18:36.999Z</time></trkpt><trkpt lat="41.106981586156294" lon="14.250963927194269"><ele>34.0</ele><time>2026-03-26T17:18:37.999Z</time></trkpt><trkpt lat="41.10683939798586" lon="14.251275290570966"><ele>34.5</ele><time>2026-03-26T17:18:38.999Z</time></trkpt><trkpt lat="41.106699286043536" lon="14.251586236470562"><ele>35.0</ele><time>2026-03-26T17:18:39.999Z</time></trkpt><trkpt lat="41.10655764948749" lon="14.25189800813087"><ele>35.0</ele><time>2026-03-26T17:18:40.999Z</time></trkpt><trkpt lat="41.106416879193226" lon="14.252213125631396"><ele>35.0</ele><time>2026-03-26T17:18:41.999Z</time></trkpt><trkpt lat="41.10627519671554" lon="14.25252796225631"><ele>35.5</ele><time>2026-03-26T17:18:42.999Z</time></trkpt><trkpt lat="41.106137526661435" lon="14.252846663195331"><ele>36.0</ele><time>2026-03-26T17:18:43.999Z</time></trkpt><trkpt lat="41.10599559377059" lon="14.253163337585015"><ele>36.0</ele><time>2026-03-26T17:18:44.999Z</time></trkpt><trkpt lat="41.10585322321928" lon="14.253477380245469"><ele>36.0</ele><time>2026-03-26T17:18:45.999Z</time></trkpt><trkpt lat="41.10570935624684" lon="14.253791590900509"><ele>36.0</ele><time>2026-03-26T17:18:46.999Z</time></trkpt><trkpt lat="41.10556447003711" lon="14.254103959114854"><ele>36.0</ele><time>2026-03-26T17:18:47.999Z</time></trkpt><trkpt lat="41.10541932121526" lon="14.254414476512538"><ele>36.0</ele><time>2026-03-26T17:18:48.999Z</time></trkpt><trkpt lat="41.105274749650434" lon="14.25472262489085"><ele>36.0</ele><time>2026-03-26T17:18:49.999Z</time></trkpt><trkpt lat="41.10513034728019" lon="14.25502867920359"><ele>37.5</ele><time>2026-03-26T17:18:50.999Z</time></trkpt><trkpt lat="41.10498253241864" lon="14.255334598240292"><ele>39.0</ele><time>2026-03-26T17:18:51.999Z</time></trkpt><trkpt lat="41.1048334034132" lon="14.255637741012011"><ele>39.0</ele><time>2026-03-26T17:18:52.999Z</time></trkpt><trkpt lat="41.10468362057381" lon="14.255942331570118"><ele>39.0</ele><time>2026-03-26T17:18:53.999Z</time></trkpt><trkpt lat="41.104533972623656" lon="14.256244256122406"><ele>40.0</ele><time>2026-03-26T17:18:54.999Z</time></trkpt><trkpt lat="41.104385887970984" lon="14.256550912566304"><ele>41.0</ele><time>2026-03-26T17:18:55.999Z</time></trkpt><trkpt lat="41.104237493970864" lon="14.256860144401472"><ele>41.0</ele><time>2026-03-26T17:18:57Z</time></trkpt><trkpt lat="41.10408984291267" lon="14.25717014564598"><ele>41.0</ele><time>2026-03-26T17:18:58Z</time></trkpt><trkpt lat="41.10394074310971" lon="14.257478891284137"><ele>42.0</ele><time>2026-03-26T17:18:59Z</time></trkpt><trkpt lat="41.10378804372622" lon="14.257784478906718"><ele>43.0</ele><time>2026-03-26T17:19:00Z</time></trkpt><trkpt lat="41.10363190430688" lon="14.258088654190848"><ele>43.0</ele><time>2026-03-26T17:19:01Z</time></trkpt><trkpt lat="41.103474932394036" lon="14.25839065232689"><ele>43.0</ele><time>2026-03-26T17:19:02Z</time></trkpt><trkpt lat="41.10331511033513" lon="14.25869350421939"><ele>43.0</ele><time>2026-03-26T17:19:03Z</time></trkpt><trkpt lat="41.1031537553948" lon="14.258993320431728"><ele>43.0</ele><time>2026-03-26T17:19:04Z</time></trkpt><trkpt lat="41.10299164017088" lon="14.259295039927345"><ele>43.0</ele><time>2026-03-26T17:19:05Z</time></trkpt><trkpt lat="41.10282945707672" lon="14.259596917412399"><ele>43.0</ele><time>2026-03-26T17:19:06Z</time></trkpt><trkpt lat="41.102666771282315" lon="14.259895820657022"><ele>43.0</ele><time>2026-03-26T17:19:07Z</time></trkpt><trkpt lat="41.1025033014881" lon="14.26019340993008"><ele>43.0</ele><time>2026-03-26T17:19:08Z</time></trkpt><trkpt lat="41.10233775317811" lon="14.260488106336748"><ele>43.5</ele><time>2026-03-26T17:19:09Z</time></trkpt><trkpt lat="41.10217440157922" lon="14.260779570286132"><ele>44.0</ele><time>2026-03-26T17:19:10Z</time></trkpt><trkpt lat="41.10201071889" lon="14.261073366463"><ele>44.0</ele><time>2026-03-26T17:19:11Z</time></trkpt><trkpt lat="41.10184637070581" lon="14.261364034648045"><ele>44.0</ele><time>2026-03-26T17:19:12Z</time></trkpt><trkpt lat="41.101680193472085" lon="14.261654566420214"><ele>44.5</ele><time>2026-03-26T17:19:13Z</time></trkpt><trkpt lat="41.101514129429916" lon="14.261940478662273"><ele>45.0</ele><time>2026-03-26T17:19:14Z</time></trkpt><trkpt lat="41.10134073782643" lon="14.262223240760488"><ele>46.0</ele><time>2026-03-26T17:19:15Z</time></trkpt><trkpt lat="41.101163704995116" lon="14.262505947809984"><ele>47.0</ele><time>2026-03-26T17:19:16Z</time></trkpt><trkpt lat="41.100989423488" lon="14.262789806244232"><ele>47.0</ele><time>2026-03-26T17:19:17Z</time></trkpt><trkpt lat="41.10081821033615" lon="14.263079430482305"><ele>47.0</ele><time>2026-03-26T17:19:18Z</time></trkpt><trkpt lat="41.10064979465922" lon="14.263372769590353"><ele>47.5</ele><time>2026-03-26T17:19:19Z</time></trkpt><trkpt lat="41.10048218466435" lon="14.26366696583629"><ele>48.0</ele><time>2026-03-26T17:19:20Z</time></trkpt><trkpt lat="41.1003141896897" lon="14.263961542109685"><ele>48.0</ele><time>2026-03-26T17:19:21Z</time></trkpt><trkpt lat="41.10014682838482" lon="14.26425353537261"><ele>48.0</ele><time>2026-03-26T17:19:22Z</time></trkpt><trkpt lat="41.09997874839667" lon="14.264545496760736"><ele>48.0</ele><time>2026-03-26T17:19:23Z</time></trkpt><trkpt lat="41.09981193669777" lon="14.264835322744412"><ele>48.0</ele><time>2026-03-26T17:19:24Z</time></trkpt><trkpt lat="41.09964701256534" lon="14.265124729334106"><ele>48.0</ele><time>2026-03-26T17:19:25Z</time></trkpt><trkpt lat="41.0994821563716" lon="14.26541485834664"><ele>48.0</ele><time>2026-03-26T17:19:26Z</time></trkpt><trkpt lat="41.09931723732214" lon="14.2657029353227"><ele>48.0</ele><time>2026-03-26T17:19:27Z</time></trkpt><trkpt lat="41.09915105499996" lon="14.265991540804581"><ele>48.0</ele><time>2026-03-26T17:19:28Z</time></trkpt><trkpt lat="41.09898522591079" lon="14.266280994592586"><ele>49.0</ele><time>2026-03-26T17:19:29Z</time></trkpt><trkpt lat="41.098818932591975" lon="14.266572075801863"><ele>50.0</ele><time>2026-03-26T17:19:30Z</time></trkpt><trkpt lat="41.098653369727906" lon="14.266861876042581"><ele>50.0</ele><time>2026-03-26T17:19:31Z</time></trkpt><trkpt lat="41.098488561449685" lon="14.26715139613639"><ele>50.0</ele><time>2026-03-26T17:19:32Z</time></trkpt><trkpt lat="41.098323437200676" lon="14.267440286003763"><ele>50.5</ele><time>2026-03-26T17:19:33Z</time></trkpt><trkpt lat="41.098158000525395" lon="14.267730269120353"><ele>51.0</ele><time>2026-03-26T17:19:34Z</time></trkpt><trkpt lat="41.097993085526454" lon="14.26801866479924"><ele>51.5</ele><time>2026-03-26T17:19:35Z</time></trkpt><trkpt lat="41.09782765963018" lon="14.268307620753212"><ele>52.0</ele><time>2026-03-26T17:19:36Z</time></trkpt><trkpt lat="41.097663791027536" lon="14.26859421113976"><ele>52.0</ele><time>2026-03-26T17:19:37Z</time></trkpt><trkpt lat="41.09750026100341" lon="14.268884267840296"><ele>52.0</ele><time>2026-03-26T17:19:38Z</time></trkpt><trkpt lat="41.09733591796214" lon="14.269174524541542"><ele>52.5</ele><time>2026-03-26T17:19:39Z</time></trkpt><trkpt lat="41.09717276883666" lon="14.269463446933033"><ele>53.0</ele><time>2026-03-26T17:19:40Z</time></trkpt><trkpt lat="41.097010642220404" lon="14.269754737097212"><ele>53.0</ele><time>2026-03-26T17:19:41Z</time></trkpt><trkpt lat="41.09684690862604" lon="14.270044688843168"><ele>53.0</ele><time>2026-03-26T17:19:42Z</time></trkpt><trkpt lat="41.09668287567495" lon="14.270331630112514"><ele>53.5</ele><time>2026-03-26T17:19:43Z</time></trkpt><trkpt lat="41.096517743247745" lon="14.270619314903946"><ele>54.0</ele><time>2026-03-26T17:19:44Z</time></trkpt><trkpt lat="41.096357089400016" lon="14.270905514704067"><ele>54.0</ele><time>2026-03-26T17:19:45Z</time></trkpt><trkpt lat="41.096195465037056" lon="14.271194408636783"><ele>54.0</ele><time>2026-03-26T17:19:46Z</time></trkpt><trkpt lat="41.09603304050296" lon="14.271483643947462"><ele>55.0</ele><time>2026-03-26T17:19:47Z</time></trkpt><trkpt lat="41.0958694578982" lon="14.271772813902135"><ele>56.0</ele><time>2026-03-26T17:19:48Z</time></trkpt><trkpt lat="41.09570666200359" lon="14.27206306186276"><ele>54.0</ele><time>2026-03-26T17:19:49Z</time></trkpt><trkpt lat="41.09554553731711" lon="14.272356365301093"><ele>52.0</ele><time>2026-03-26T17:19:50Z</time></trkpt><trkpt lat="41.09538389731738" lon="14.272652843322865"><ele>52.0</ele><time>2026-03-26T17:19:51Z</time></trkpt><trkpt lat="41.09522145629433" lon="14.272950638481928"><ele>52.0</ele><time>2026-03-26T17:19:52Z</time></trkpt><trkpt lat="41.09505809180813" lon="14.273246048659578"><ele>52.0</ele><time>2026-03-26T17:19:53Z</time></trkpt><trkpt lat="41.094893015327536" lon="14.273540698714463"><ele>52.0</ele><time>2026-03-26T17:19:54Z</time></trkpt><trkpt lat="41.09472614879112" lon="14.273832156232158"><ele>52.5</ele><time>2026-03-26T17:19:55Z</time></trkpt><trkpt lat="41.094558853408564" lon="14.274120802805228"><ele>53.0</ele><time>2026-03-26T17:19:56Z</time></trkpt><trkpt lat="41.09439232845156" lon="14.27441136827026"><ele>53.0</ele><time>2026-03-26T17:19:57Z</time></trkpt><trkpt lat="41.09422810734469" lon="14.274701743850802"><ele>53.0</ele><time>2026-03-26T17:19:58Z</time></trkpt><trkpt lat="41.09406136408951" lon="14.274994814344035"><ele>53.5</ele><time>2026-03-26T17:19:59Z</time></trkpt><trkpt lat="41.09389198708717" lon="14.275285641548034"><ele>54.0</ele><time>2026-03-26T17:20:00Z</time></trkpt><trkpt lat="41.0937198048902" lon="14.275574401811394"><ele>54.5</ele><time>2026-03-26T17:20:01Z</time></trkpt><trkpt lat="41.09354572596107" lon="14.275861745254582"><ele>55.0</ele><time>2026-03-26T17:20:02Z</time></trkpt><trkpt lat="41.09337274605701" lon="14.276147644340574"><ele>55.5</ele><time>2026-03-26T17:20:03Z</time></trkpt><trkpt lat="41.09319910253935" lon="14.276434770363387"><ele>56.0</ele><time>2026-03-26T17:20:04Z</time></trkpt><trkpt lat="41.09303411218473" lon="14.276724216581721"><ele>56.0</ele><time>2026-03-26T17:20:05Z</time></trkpt><trkpt lat="41.092867790256754" lon="14.277006293820143"><ele>56.0</ele><time>2026-03-26T17:20:06Z</time></trkpt><trkpt lat="41.09270479258084" lon="14.27729063890016"><ele>56.0</ele><time>2026-03-26T17:20:07Z</time></trkpt><trkpt lat="41.0925432649819" lon="14.277573325293863"><ele>56.0</ele><time>2026-03-26T17:20:08Z</time></trkpt><trkpt lat="41.09238210125529" lon="14.277855517857672"><ele>55.5</ele><time>2026-03-26T17:20:09Z</time></trkpt><trkpt lat="41.09221875341927" lon="14.278138748321064"><ele>55.0</ele><time>2026-03-26T17:20:10Z</time></trkpt><trkpt lat="41.09205556507343" lon="14.278420067854201"><ele>55.0</ele><time>2026-03-26T17:20:11Z</time></trkpt><trkpt lat="41.09189333077787" lon="14.27869981825264"><ele>55.0</ele><time>2026-03-26T17:20:12Z</time></trkpt><trkpt lat="41.091727042608476" lon="14.278985029388148"><ele>54.5</ele><time>2026-03-26T17:20:13Z</time></trkpt><trkpt lat="41.09155744877886" lon="14.279274489903633"><ele>54.0</ele><time>2026-03-26T17:20:14Z</time></trkpt><trkpt lat="41.091390593232134" lon="14.279562703095989"><ele>54.5</ele><time>2026-03-26T17:20:15Z</time></trkpt><trkpt lat="41.091230981945465" lon="14.279841456505732"><ele>55.0</ele><time>2026-03-26T17:20:16Z</time></trkpt><trkpt lat="41.091076950031805" lon="14.280116838639197"><ele>55.0</ele><time>2026-03-26T17:20:17Z</time></trkpt><trkpt lat="41.09092489424161" lon="14.28038543636009"><ele>55.0</ele><time>2026-03-26T17:20:18Z</time></trkpt><trkpt lat="41.090773429648806" lon="14.280652021551752"><ele>55.0</ele><time>2026-03-26T17:20:19Z</time></trkpt><trkpt lat="41.090622577844265" lon="14.28091360176674"><ele>55.0</ele><time>2026-03-26T17:20:20Z</time></trkpt><trkpt lat="41.090472021337426" lon="14.281175472666199"><ele>55.0</ele><time>2026-03-26T17:20:21Z</time></trkpt><trkpt lat="41.09032266758782" lon="14.281438502475162"><ele>55.0</ele><time>2026-03-26T17:20:22Z</time></trkpt><trkpt lat="41.090171716925624" lon="14.281702596946747"><ele>55.0</ele><time>2026-03-26T17:20:23Z</time></trkpt><trkpt lat="41.090021392105406" lon="14.281961725226639"><ele>55.0</ele><time>2026-03-26T17:20:24Z</time></trkpt><trkpt lat="41.089874908085356" lon="14.282215816179722"><ele>55.0</ele><time>2026-03-26T17:20:25Z</time></trkpt><trkpt lat="41.089735984783914" lon="14.282460948533592"><ele>55.0</ele><time>2026-03-26T17:20:25.999Z</time></trkpt><trkpt lat="41.089597962571666" lon="14.282705933372604"><ele>55.0</ele><time>2026-03-26T17:20:26.999Z</time></trkpt><trkpt lat="41.08945970793719" lon="14.28294944628886"><ele>55.0</ele><time>2026-03-26T17:20:27.999Z</time></trkpt><trkpt lat="41.089321689003306" lon="14.283191936295095"><ele>55.33333333333333</ele><time>2026-03-26T17:20:28.999Z</time></trkpt><trkpt lat="41.08918479779175" lon="14.283428360386353"><ele>55.66666666666667</ele><time>2026-03-26T17:20:29.999Z</time></trkpt><trkpt lat="41.089056609858225" lon="14.283651501419612"><ele>56.0</ele><time>2026-03-26T17:20:30.999Z</time></trkpt><trkpt lat="41.08893412666332" lon="14.283854582571312"><ele>56.0</ele><time>2026-03-26T17:20:31.999Z</time></trkpt><trkpt lat="41.08882108773261" lon="14.284043684350378"><ele>56.0</ele><time>2026-03-26T17:20:32.999Z</time></trkpt><trkpt lat="41.0887173782457" lon="14.284220923508826"><ele>56.0</ele><time>2026-03-26T17:20:33.999Z</time></trkpt><trkpt lat="41.08862254381607" lon="14.284382630678502"><ele>56.0</ele><time>2026-03-26T17:20:34.999Z</time></trkpt><trkpt lat="41.0885399407502" lon="14.284526254185206"><ele>56.0</ele><time>2026-03-26T17:20:35.999Z</time></trkpt><trkpt lat="41.08846529591488" lon="14.284657187894798"><ele>56.0</ele><time>2026-03-26T17:20:36.999Z</time></trkpt><trkpt lat="41.08839895779355" lon="14.28477334051142"><ele>56.0</ele><time>2026-03-26T17:20:37.999Z</time></trkpt><trkpt lat="41.088340802650116" lon="14.284865894230391"><ele>56.16666666666667</ele><time>2026-03-26T17:20:38.999Z</time></trkpt><trkpt lat="41.08830409401988" lon="14.284944091552171"><ele>56.333333333333336</ele><time>2026-03-26T17:20:39.999Z</time></trkpt><trkpt lat="41.08825242327232" lon="14.285035216567662"><ele>56.5</ele><time>2026-03-26T17:20:41.999Z</time></trkpt><trkpt lat="41.08821306242561" lon="14.285104554728804"><ele>56.66666666666667</ele><time>2026-03-26T17:24:37Z</time></trkpt><trkpt lat="41.08816538114083" lon="14.285186652593847"><ele>56.833333333333336</ele><time>2026-03-26T17:24:39Z</time></trkpt><trkpt lat="41.08808786752873" lon="14.28532011592247"><ele>57.0</ele><time>2026-03-26T17:24:41Z</time></trkpt><trkpt lat="41.088036661480324" lon="14.285408282690504"><ele>57.0</ele><time>2026-03-26T17:24:42Z</time></trkpt><trkpt lat="41.087978742127255" lon="14.285504637904515"><ele>57.0</ele><time>2026-03-26T17:24:43Z</time></trkpt><trkpt lat="41.08791332860895" lon="14.285613811895296"><ele>57.0</ele><time>2026-03-26T17:24:44Z</time></trkpt><trkpt lat="41.087839419379236" lon="14.28573407457376"><ele>57.0</ele><time>2026-03-26T17:24:45Z</time></trkpt><trkpt lat="41.087753652730754" lon="14.28586680362697"><ele>57.0</ele><time>2026-03-26T17:24:46Z</time></trkpt><trkpt lat="41.087657741014475" lon="14.286007764746927"><ele>56.66666666666667</ele><time>2026-03-26T17:24:46.999Z</time></trkpt><trkpt lat="41.087552885142316" lon="14.286158222733741"><ele>56.333333333333336</ele><time>2026-03-26T17:24:47.999Z</time></trkpt><trkpt lat="41.08744093540187" lon="14.28631610650142"><ele>56.0</ele><time>2026-03-26T17:24:48.999Z</time></trkpt><trkpt lat="41.087315187317095" lon="14.286485135289032"><ele>56.0</ele><time>2026-03-26T17:24:49.999Z</time></trkpt><trkpt lat="41.087179418153326" lon="14.286659828967911"><ele>56.0</ele><time>2026-03-26T17:24:50.999Z</time></trkpt><trkpt lat="41.08703595098673" lon="14.286836333768806"><ele>56.0</ele><time>2026-03-26T17:24:51.999Z</time></trkpt><trkpt lat="41.08687217294096" lon="14.287000143375009"><ele>56.0</ele><time>2026-03-26T17:24:52.999Z</time></trkpt><trkpt lat="41.086712838781025" lon="14.287183375536678"><ele>56.0</ele><time>2026-03-26T17:24:53.999Z</time></trkpt><trkpt lat="41.08654949731719" lon="14.28736723570973"><ele>56.0</ele><time>2026-03-26T17:24:54.999Z</time></trkpt><trkpt lat="41.08637894805544" lon="14.28755002257917"><ele>55.5</ele><time>2026-03-26T17:24:55.999Z</time></trkpt><trkpt lat="41.08620469371083" lon="14.28773650878386"><ele>55.0</ele><time>2026-03-26T17:24:56.999Z</time></trkpt><trkpt lat="41.08602665908252" lon="14.287926212068445"><ele>54.5</ele><time>2026-03-26T17:24:57.999Z</time></trkpt><trkpt lat="41.085845043450895" lon="14.288117222281738"><ele>54.0</ele><time>2026-03-26T17:24:58.999Z</time></trkpt><trkpt lat="41.08566366606152" lon="14.28830936856835"><ele>53.5</ele><time>2026-03-26T17:24:59.999Z</time></trkpt><trkpt lat="41.0854802905107" lon="14.288502032217785"><ele>53.0</ele><time>2026-03-26T17:25:00.999Z</time></trkpt><trkpt lat="41.08529641607428" lon="14.288694826042278"><ele>53.0</ele><time>2026-03-26T17:25:01.999Z</time></trkpt><trkpt lat="41.08511150937875" lon="14.28888768964129"><ele>53.0</ele><time>2026-03-26T17:25:02.999Z</time></trkpt><trkpt lat="41.084926395609266" lon="14.289082931504682"><ele>52.0</ele><time>2026-03-26T17:25:03.999Z</time></trkpt><trkpt lat="41.08473989317652" lon="14.289279768213309"><ele>51.0</ele><time>2026-03-26T17:25:04.999Z</time></trkpt><trkpt lat="41.084551182054064" lon="14.289477766391355"><ele>51.0</ele><time>2026-03-26T17:25:05.999Z</time></trkpt><trkpt lat="41.0843624634138" lon="14.28967608517799"><ele>51.0</ele><time>2026-03-26T17:25:06.999Z</time></trkpt><trkpt lat="41.08417110516641" lon="14.289877208183619"><ele>51.5</ele><time>2026-03-26T17:25:07.999Z</time></trkpt><trkpt lat="41.08397970236659" lon="14.290078369082462"><ele>52.0</ele><time>2026-03-26T17:25:08.999Z</time></trkpt><trkpt lat="41.083789095959695" lon="14.29028202134196"><ele>52.0</ele><time>2026-03-26T17:25:09.999Z</time></trkpt><trkpt lat="41.083596734894556" lon="14.290487500185069"><ele>52.0</ele><time>2026-03-26T17:25:10.999Z</time></trkpt><trkpt lat="41.08340312890738" lon="14.290693038069088"><ele>52.0</ele><time>2026-03-26T17:25:11.999Z</time></trkpt><trkpt lat="41.08321217440074" lon="14.290892225955101"><ele>52.0</ele><time>2026-03-26T17:25:12.999Z</time></trkpt><trkpt lat="41.08302742683293" lon="14.2910863397929"><ele>52.0</ele><time>2026-03-26T17:25:13.999Z</time></trkpt><trkpt lat="41.08284569110926" lon="14.291278765331327"><ele>52.0</ele><time>2026-03-26T17:25:15Z</time></trkpt><trkpt lat="41.082664529122205" lon="14.291472683779267"><ele>52.0</ele><time>2026-03-26T17:25:16Z</time></trkpt><trkpt lat="41.08248324139111" lon="14.29166483076327"><ele>52.0</ele><time>2026-03-26T17:25:17Z</time></trkpt><trkpt lat="41.08230126473051" lon="14.291858356799292"><ele>51.5</ele><time>2026-03-26T17:25:18Z</time></trkpt><trkpt lat="41.08211893355249" lon="14.292055200403405"><ele>51.0</ele><time>2026-03-26T17:25:19Z</time></trkpt><trkpt lat="41.081933401701946" lon="14.292253652774512"><ele>51.5</ele><time>2026-03-26T17:25:20Z</time></trkpt><trkpt lat="41.08174816544692" lon="14.292447585517802"><ele>52.0</ele><time>2026-03-26T17:25:21Z</time></trkpt><trkpt lat="41.08156274950437" lon="14.292644897495403"><ele>51.0</ele><time>2026-03-26T17:25:22Z</time></trkpt><trkpt lat="41.08137640975173" lon="14.292842711245747"><ele>50.0</ele><time>2026-03-26T17:25:23Z</time></trkpt><trkpt lat="41.081190831017885" lon="14.29304073971032"><ele>49.5</ele><time>2026-03-26T17:25:24Z</time></trkpt><trkpt lat="41.08100206120165" lon="14.293239283909644"><ele>49.0</ele><time>2026-03-26T17:25:25Z</time></trkpt><trkpt lat="41.080817156504864" lon="14.29343364031714"><ele>49.0</ele><time>2026-03-26T17:25:26Z</time></trkpt><trkpt lat="41.08063543191308" lon="14.293626148816177"><ele>49.0</ele><time>2026-03-26T17:25:27Z</time></trkpt><trkpt lat="41.080452698525335" lon="14.293818784167527"><ele>48.5</ele><time>2026-03-26T17:25:28Z</time></trkpt><trkpt lat="41.08026871976736" lon="14.294012659020254"><ele>48.0</ele><time>2026-03-26T17:25:29Z</time></trkpt><trkpt lat="41.08008416309704" lon="14.294207293724279"><ele>49.5</ele><time>2026-03-26T17:25:30Z</time></trkpt><trkpt lat="41.079897721601924" lon="14.294401148109973"><ele>51.0</ele><time>2026-03-26T17:25:31Z</time></trkpt><trkpt lat="41.07971051484268" lon="14.294597175965528"><ele>50.5</ele><time>2026-03-26T17:25:32Z</time></trkpt><trkpt lat="41.079525338571344" lon="14.294795331907709"><ele>50.0</ele><time>2026-03-26T17:25:33Z</time></trkpt><trkpt lat="41.07934144993247" lon="14.294992099899163"><ele>50.0</ele><time>2026-03-26T17:25:34Z</time></trkpt><trkpt lat="41.079158002301476" lon="14.295185982308093"><ele>50.0</ele><time>2026-03-26T17:25:35Z</time></trkpt><trkpt lat="41.07897183560767" lon="14.295380791443906"><ele>48.5</ele><time>2026-03-26T17:25:36Z</time></trkpt><trkpt lat="41.07878694445685" lon="14.295572104287935"><ele>47.0</ele><time>2026-03-26T17:25:37Z</time></trkpt><trkpt lat="41.0786050320112" lon="14.295766885724476"><ele>46.5</ele><time>2026-03-26T17:25:38Z</time></trkpt><trkpt lat="41.07842104363281" lon="14.29596177966236"><ele>46.0</ele><time>2026-03-26T17:25:39Z</time></trkpt><trkpt lat="41.078235262414914" lon="14.296156803427161"><ele>46.0</ele><time>2026-03-26T17:25:40Z</time></trkpt><trkpt lat="41.07805087130923" lon="14.29634761471188"><ele>46.0</ele><time>2026-03-26T17:25:41Z</time></trkpt><trkpt lat="41.07787205669109" lon="14.296532671270919"><ele>46.0</ele><time>2026-03-26T17:25:42Z</time></trkpt><trkpt lat="41.077700814791974" lon="14.296710080066408"><ele>46.0</ele><time>2026-03-26T17:25:43Z</time></trkpt><trkpt lat="41.077532187439374" lon="14.296890691571772"><ele>46.0</ele><time>2026-03-26T17:25:44Z</time></trkpt><trkpt lat="41.07736921674642" lon="14.2970666582097"><ele>45.66666666666667</ele><time>2026-03-26T17:25:45Z</time></trkpt><trkpt lat="41.07720971864755" lon="14.297237891931946"><ele>45.333333333333336</ele><time>2026-03-26T17:25:46Z</time></trkpt><trkpt lat="41.07705626831288" lon="14.297403577031597"><ele>45.0</ele><time>2026-03-26T17:25:47Z</time></trkpt><trkpt lat="41.07690445378823" lon="14.297564196902403"><ele>44.666666666666664</ele><time>2026-03-26T17:25:48Z</time></trkpt><trkpt lat="41.07674723542966" lon="14.297730124677692"><ele>44.33333333333333</ele><time>2026-03-26T17:25:49Z</time></trkpt><trkpt lat="41.07658416193466" lon="14.29790225512929"><ele>44.0</ele><time>2026-03-26T17:25:50Z</time></trkpt><trkpt lat="41.07641583110057" lon="14.298086533746389"><ele>46.5</ele><time>2026-03-26T17:25:51Z</time></trkpt><trkpt lat="41.076243341368716" lon="14.298275414397734"><ele>49.0</ele><time>2026-03-26T17:25:52Z</time></trkpt><trkpt lat="41.07606668382028" lon="14.298465684840782"><ele>49.0</ele><time>2026-03-26T17:25:53Z</time></trkpt><trkpt lat="41.07588636737182" lon="14.298655776149172"><ele>49.0</ele><time>2026-03-26T17:25:54Z</time></trkpt><trkpt lat="41.07570481356179" lon="14.298850308285528"><ele>48.5</ele><time>2026-03-26T17:25:55Z</time></trkpt><trkpt lat="41.07552308049105" lon="14.29904407193637"><ele>48.0</ele><time>2026-03-26T17:25:56Z</time></trkpt><trkpt lat="41.07534144413022" lon="14.299238363397796"><ele>48.0</ele><time>2026-03-26T17:25:57Z</time></trkpt><trkpt lat="41.07516010508386" lon="14.299429443992954"><ele>48.0</ele><time>2026-03-26T17:25:58Z</time></trkpt><trkpt lat="41.074977120483894" lon="14.299619932693737"><ele>49.0</ele><time>2026-03-26T17:25:59Z</time></trkpt><trkpt lat="41.074794202499454" lon="14.299811479655126"><ele>50.0</ele><time>2026-03-26T17:26:00Z</time></trkpt><trkpt lat="41.07461224821696" lon="14.300003839052842"><ele>50.0</ele><time>2026-03-26T17:26:01Z</time></trkpt><trkpt lat="41.074430851397146" lon="14.300194238027487"><ele>50.0</ele><time>2026-03-26T17:26:02Z</time></trkpt><trkpt lat="41.0742490378587" lon="14.300385234802143"><ele>50.5</ele><time>2026-03-26T17:26:03Z</time></trkpt><trkpt lat="41.07406848620432" lon="14.300575336950024"><ele>51.0</ele><time>2026-03-26T17:26:04Z</time></trkpt><trkpt lat="41.07388672394627" lon="14.300762773636022"><ele>51.5</ele><time>2026-03-26T17:26:05Z</time></trkpt><trkpt lat="41.073703027262724" lon="14.300952405712982"><ele>52.0</ele><time>2026-03-26T17:26:06Z</time></trkpt><trkpt lat="41.07351704287401" lon="14.301145253741208"><ele>52.0</ele><time>2026-03-26T17:26:07Z</time></trkpt><trkpt lat="41.07332741577847" lon="14.301342847793054"><ele>52.0</ele><time>2026-03-26T17:26:08Z</time></trkpt><trkpt lat="41.07313659885881" lon="14.301538252881675"><ele>51.5</ele><time>2026-03-26T17:26:09Z</time></trkpt><trkpt lat="41.07294306928863" lon="14.301739007645853"><ele>51.0</ele><time>2026-03-26T17:26:10Z</time></trkpt><trkpt lat="41.0727509588926" lon="14.301943198202913"><ele>51.0</ele><time>2026-03-26T17:26:11Z</time></trkpt><trkpt lat="41.07255583372043" lon="14.30214895454466"><ele>51.0</ele><time>2026-03-26T17:26:12Z</time></trkpt><trkpt lat="41.07236168125148" lon="14.302354798550224"><ele>52.5</ele><time>2026-03-26T17:26:13Z</time></trkpt><trkpt lat="41.07216589293749" lon="14.302561572445677"><ele>54.0</ele><time>2026-03-26T17:26:14Z</time></trkpt><trkpt lat="41.071967098246866" lon="14.302768692005875"><ele>54.0</ele><time>2026-03-26T17:26:15Z</time></trkpt><trkpt lat="41.07176742385693" lon="14.30297340284983"><ele>54.0</ele><time>2026-03-26T17:26:16Z</time></trkpt><trkpt lat="41.0715639698253" lon="14.303175175334257"><ele>53.5</ele><time>2026-03-26T17:26:17Z</time></trkpt><trkpt lat="41.07135650982279" lon="14.303373038728509"><ele>53.0</ele><time>2026-03-26T17:26:18Z</time></trkpt><trkpt lat="41.07114511451528" lon="14.303568452089836"><ele>53.0</ele><time>2026-03-26T17:26:19Z</time></trkpt><trkpt lat="41.07092908181482" lon="14.303757944904701"><ele>53.0</ele><time>2026-03-26T17:26:20Z</time></trkpt><trkpt lat="41.07070853341926" lon="14.303940754960456"><ele>53.5</ele><time>2026-03-26T17:26:21Z</time></trkpt><trkpt lat="41.07048378898375" lon="14.304117684343872"><ele>54.0</ele><time>2026-03-26T17:26:22Z</time></trkpt><trkpt lat="41.070256742468246" lon="14.304291554913892"><ele>54.0</ele><time>2026-03-26T17:26:23Z</time></trkpt><trkpt lat="41.07002671520484" lon="14.304462380056384"><ele>54.0</ele><time>2026-03-26T17:26:24Z</time></trkpt><trkpt lat="41.069795186976684" lon="14.304633617897718"><ele>54.5</ele><time>2026-03-26T17:26:25Z</time></trkpt><trkpt lat="41.06956220070513" lon="14.304807006021"><ele>55.0</ele><time>2026-03-26T17:26:26Z</time></trkpt><trkpt lat="41.06932960839781" lon="14.304981647115168"><ele>55.0</ele><time>2026-03-26T17:26:27Z</time></trkpt><trkpt lat="41.06909479537706" lon="14.305156082425865"><ele>55.0</ele><time>2026-03-26T17:26:28Z</time></trkpt><trkpt lat="41.06886057341695" lon="14.305332688476925"><ele>55.0</ele><time>2026-03-26T17:26:29Z</time></trkpt><trkpt lat="41.068628508175195" lon="14.305507535324432"><ele>55.0</ele><time>2026-03-26T17:26:30Z</time></trkpt><trkpt lat="41.0684036019394" lon="14.305686372161341"><ele>55.0</ele><time>2026-03-26T17:26:31Z</time></trkpt><trkpt lat="41.06816900707309" lon="14.305867256495695"><ele>55.0</ele><time>2026-03-26T17:26:32Z</time></trkpt><trkpt lat="41.067938244227385" lon="14.306034847915027"><ele>55.0</ele><time>2026-03-26T17:26:33Z</time></trkpt><trkpt lat="41.067708556563275" lon="14.306199662338393"><ele>55.0</ele><time>2026-03-26T17:26:34Z</time></trkpt><trkpt lat="41.06747720282545" lon="14.306366446648049"><ele>55.5</ele><time>2026-03-26T17:26:35Z</time></trkpt><trkpt lat="41.067249065602674" lon="14.306533675112682"><ele>56.0</ele><time>2026-03-26T17:26:36Z</time></trkpt><trkpt lat="41.06701971240859" lon="14.306702599586139"><ele>56.0</ele><time>2026-03-26T17:26:37Z</time></trkpt><trkpt lat="41.066790746601846" lon="14.306870946354119"><ele>56.0</ele><time>2026-03-26T17:26:38Z</time></trkpt><trkpt lat="41.06656348194658" lon="14.307041498543999"><ele>55.5</ele><time>2026-03-26T17:26:39Z</time></trkpt><trkpt lat="41.066335724126006" lon="14.307215647503865"><ele>55.0</ele><time>2026-03-26T17:26:40Z</time></trkpt><trkpt lat="41.06610784813652" lon="14.307386843413502"><ele>55.0</ele><time>2026-03-26T17:26:41Z</time></trkpt><trkpt lat="41.0658783022497" lon="14.307555132714631"><ele>55.0</ele><time>2026-03-26T17:26:42Z</time></trkpt><trkpt lat="41.06564830291801" lon="14.307722775663509"><ele>55.0</ele><time>2026-03-26T17:26:43Z</time></trkpt><trkpt lat="41.065416776086835" lon="14.3078947810137"><ele>55.0</ele><time>2026-03-26T17:26:44Z</time></trkpt><trkpt lat="41.065184885808186" lon="14.308063876867717"><ele>55.5</ele><time>2026-03-26T17:26:45Z</time></trkpt><trkpt lat="41.064952536945924" lon="14.30823175240407"><ele>56.0</ele><time>2026-03-26T17:26:46Z</time></trkpt><trkpt lat="41.06472100842424" lon="14.308401554880044"><ele>56.0</ele><time>2026-03-26T17:26:47Z</time></trkpt><trkpt lat="41.064488461609024" lon="14.30857183778796"><ele>56.0</ele><time>2026-03-26T17:26:48Z</time></trkpt><trkpt lat="41.06425528861466" lon="14.308744969380209"><ele>56.5</ele><time>2026-03-26T17:26:49Z</time></trkpt><trkpt lat="41.064021727127404" lon="14.308918950403404"><ele>57.0</ele><time>2026-03-26T17:26:50Z</time></trkpt><trkpt lat="41.06378579731605" lon="14.309093078352817"><ele>57.0</ele><time>2026-03-26T17:26:51Z</time></trkpt><trkpt lat="41.06354880488075" lon="14.309268593736451"><ele>57.0</ele><time>2026-03-26T17:26:52Z</time></trkpt><trkpt lat="41.063311335118904" lon="14.309448196715092"><ele>57.0</ele><time>2026-03-26T17:26:53Z</time></trkpt><trkpt lat="41.06307445297005" lon="14.309630720844973"><ele>57.0</ele><time>2026-03-26T17:26:54Z</time></trkpt><trkpt lat="41.0628386222029" lon="14.309814191516068"><ele>57.0</ele><time>2026-03-26T17:26:55Z</time></trkpt><trkpt lat="41.062604572699755" lon="14.309998852088281"><ele>57.0</ele><time>2026-03-26T17:26:56Z</time></trkpt><trkpt lat="41.06237316508713" lon="14.310188459281921"><ele>57.0</ele><time>2026-03-26T17:26:57Z</time></trkpt><trkpt lat="41.062145362146865" lon="14.310383133580578"><ele>57.0</ele><time>2026-03-26T17:26:58Z</time></trkpt><trkpt lat="41.06192018589224" lon="14.310578548068156"><ele>56.5</ele><time>2026-03-26T17:26:59Z</time></trkpt><trkpt lat="41.061695294487876" lon="14.310774968831034"><ele>56.0</ele><time>2026-03-26T17:27:00Z</time></trkpt><trkpt lat="41.06147529158059" lon="14.310970893730238"><ele>55.5</ele><time>2026-03-26T17:27:01Z</time></trkpt><trkpt lat="41.06125474341835" lon="14.311170756199282"><ele>55.0</ele><time>2026-03-26T17:27:02Z</time></trkpt><trkpt lat="41.06103620756371" lon="14.311373507534505"><ele>54.5</ele><time>2026-03-26T17:27:03Z</time></trkpt><trkpt lat="41.06082071666679" lon="14.31158053432429"><ele>54.0</ele><time>2026-03-26T17:27:04Z</time></trkpt><trkpt lat="41.060608950194926" lon="14.311792848122195"><ele>53.5</ele><time>2026-03-26T17:27:05Z</time></trkpt><trkpt lat="41.060396856379455" lon="14.312009235206402"><ele>53.0</ele><time>2026-03-26T17:27:05.999Z</time></trkpt><trkpt lat="41.06018098347244" lon="14.312226971000204"><ele>53.5</ele><time>2026-03-26T17:27:06.999Z</time></trkpt><trkpt lat="41.059962866565535" lon="14.312450839083112"><ele>54.0</ele><time>2026-03-26T17:27:07.999Z</time></trkpt><trkpt lat="41.05974368977648" lon="14.312681678134842"><ele>53.5</ele><time>2026-03-26T17:27:08.999Z</time></trkpt><trkpt lat="41.05952395883612" lon="14.312916852274853"><ele>53.0</ele><time>2026-03-26T17:27:09.999Z</time></trkpt><trkpt lat="41.05930200016229" lon="14.313152480612173"><ele>52.0</ele><time>2026-03-26T17:27:10.999Z</time></trkpt><trkpt lat="41.05907713234621" lon="14.313388212350663"><ele>51.0</ele><time>2026-03-26T17:27:11.999Z</time></trkpt><trkpt lat="41.05885100941519" lon="14.31362254653369"><ele>51.0</ele><time>2026-03-26T17:27:12.999Z</time></trkpt><trkpt lat="41.058624864401146" lon="14.31386057289775"><ele>51.0</ele><time>2026-03-26T17:27:13.999Z</time></trkpt><trkpt lat="41.05840186438064" lon="14.314097274976676"><ele>50.5</ele><time>2026-03-26T17:27:14.999Z</time></trkpt><trkpt lat="41.05817974835966" lon="14.314333564566548"><ele>50.0</ele><time>2026-03-26T17:27:15.999Z</time></trkpt><trkpt lat="41.05795719006879" lon="14.31456706121935"><ele>50.0</ele><time>2026-03-26T17:27:16.999Z</time></trkpt><trkpt lat="41.057733538497935" lon="14.314801160030656"><ele>50.0</ele><time>2026-03-26T17:27:17.999Z</time></trkpt><trkpt lat="41.05751054852739" lon="14.315036447875695"><ele>49.5</ele><time>2026-03-26T17:27:18.999Z</time></trkpt><trkpt lat="41.057286226707504" lon="14.315274297452792"><ele>49.0</ele><time>2026-03-26T17:27:19.999Z</time></trkpt><trkpt lat="41.057062326279784" lon="14.315513460068853"><ele>48.5</ele><time>2026-03-26T17:27:21Z</time></trkpt><trkpt lat="41.05684225199219" lon="14.315750672769692"><ele>48.0</ele><time>2026-03-26T17:27:22Z</time></trkpt><trkpt lat="41.056621631865966" lon="14.31599045485526"><ele>47.5</ele><time>2026-03-26T17:27:23Z</time></trkpt><trkpt lat="41.05640250140134" lon="14.316228145126523"><ele>47.0</ele><time>2026-03-26T17:27:24Z</time></trkpt><trkpt lat="41.05618181029843" lon="14.316463169384912"><ele>46.5</ele><time>2026-03-26T17:27:25Z</time></trkpt><trkpt lat="41.05596352424085" lon="14.3167004109766"><ele>46.0</ele><time>2026-03-26T17:27:26Z</time></trkpt><trkpt lat="41.05574555228106" lon="14.316939243666315"><ele>46.0</ele><time>2026-03-26T17:27:27Z</time></trkpt><trkpt lat="41.05552905214818" lon="14.317175310737381"><ele>46.0</ele><time>2026-03-26T17:27:28Z</time></trkpt><trkpt lat="41.0553118561932" lon="14.317411077002546"><ele>46.0</ele><time>2026-03-26T17:27:29Z</time></trkpt><trkpt lat="41.055097939144005" lon="14.317643564466348"><ele>46.0</ele><time>2026-03-26T17:27:30Z</time></trkpt><trkpt lat="41.05488508886603" lon="14.317876019612234"><ele>45.5</ele><time>2026-03-26T17:27:31Z</time></trkpt><trkpt lat="41.05466922071069" lon="14.318109947209095"><ele>45.0</ele><time>2026-03-26T17:27:31.999Z</time></trkpt><trkpt lat="41.05445316837634" lon="14.318341332148558"><ele>45.0</ele><time>2026-03-26T17:27:32.999Z</time></trkpt><trkpt lat="41.05423792223682" lon="14.31857342726078"><ele>45.0</ele><time>2026-03-26T17:27:33.999Z</time></trkpt><trkpt lat="41.05402604967967" lon="14.318803280627758"><ele>44.5</ele><time>2026-03-26T17:27:34.999Z</time></trkpt><trkpt lat="41.053813904166375" lon="14.319038297310726"><ele>44.0</ele><time>2026-03-26T17:27:35.999Z</time></trkpt><trkpt lat="41.05360242510583" lon="14.319274435434394"><ele>44.0</ele><time>2026-03-26T17:27:36.999Z</time></trkpt><trkpt lat="41.05339000709182" lon="14.319508839540243"><ele>44.0</ele><time>2026-03-26T17:27:37.999Z</time></trkpt><trkpt lat="41.053175414210784" lon="14.319739532836648"><ele>44.0</ele><time>2026-03-26T17:27:38.999Z</time></trkpt><trkpt lat="41.05295802202517" lon="14.319968352173959"><ele>44.0</ele><time>2026-03-26T17:27:39.999Z</time></trkpt><trkpt lat="41.052738164448115" lon="14.320192323327028"><ele>44.0</ele><time>2026-03-26T17:27:40.999Z</time></trkpt><trkpt lat="41.052514777281665" lon="14.320411132574351"><ele>44.0</ele><time>2026-03-26T17:27:41.999Z</time></trkpt><trkpt lat="41.052286094769705" lon="14.320616640653094"><ele>44.5</ele><time>2026-03-26T17:27:42.999Z</time></trkpt><trkpt lat="41.052051540191805" lon="14.320813911420048"><ele>45.0</ele><time>2026-03-26T17:27:43.999Z</time></trkpt><trkpt lat="41.051810928241615" lon="14.320999863159827"><ele>44.5</ele><time>2026-03-26T17:27:44.999Z</time></trkpt><trkpt lat="41.05156357620512" lon="14.321173957867941"><ele>44.0</ele><time>2026-03-26T17:27:45.999Z</time></trkpt><trkpt lat="41.05131042559978" lon="14.3213349379002"><ele>45.0</ele><time>2026-03-26T17:27:46.999Z</time></trkpt><trkpt lat="41.05105253086376" lon="14.321484764900227"><ele>46.0</ele><time>2026-03-26T17:27:47.999Z</time></trkpt><trkpt lat="41.050791401306384" lon="14.321624310342278"><ele>45.0</ele><time>2026-03-26T17:27:48.999Z</time></trkpt><trkpt lat="41.050527553629614" lon="14.321755945745682"><ele>44.0</ele><time>2026-03-26T17:27:49.999Z</time></trkpt><trkpt lat="41.05025975782061" lon="14.32187537803983"><ele>44.0</ele><time>2026-03-26T17:27:50.999Z</time></trkpt><trkpt lat="41.04998599356221" lon="14.321985829530357"><ele>44.0</ele><time>2026-03-26T17:27:51.999Z</time></trkpt><trkpt lat="41.04971253141221" lon="14.32208346821148"><ele>43.0</ele><time>2026-03-26T17:27:52.999Z</time></trkpt><trkpt lat="41.04943674751682" lon="14.322168335194236"><ele>42.0</ele><time>2026-03-26T17:27:53.999Z</time></trkpt><trkpt lat="41.049158554111784" lon="14.322243252666008"><ele>42.5</ele><time>2026-03-26T17:27:54.999Z</time></trkpt><trkpt lat="41.04887837539324" lon="14.322310981047483"><ele>43.0</ele><time>2026-03-26T17:27:55.999Z</time></trkpt><trkpt lat="41.04859953419171" lon="14.322367125155404"><ele>43.0</ele><time>2026-03-26T17:27:56.999Z</time></trkpt><trkpt lat="41.04832070165303" lon="14.322409734241718"><ele>43.0</ele><time>2026-03-26T17:27:57.999Z</time></trkpt><trkpt lat="41.048037791736704" lon="14.322438252772782"><ele>43.0</ele><time>2026-03-26T17:27:58.999Z</time></trkpt><trkpt lat="41.047752755576894" lon="14.322455940093038"><ele>43.0</ele><time>2026-03-26T17:27:59.999Z</time></trkpt><trkpt lat="41.047469086877" lon="14.322465132318106"><ele>42.0</ele><time>2026-03-26T17:28:00.999Z</time></trkpt><trkpt lat="41.04718600619206" lon="14.322468984496775"><ele>41.0</ele><time>2026-03-26T17:28:01.999Z</time></trkpt><trkpt lat="41.046902933599675" lon="14.32246929975294"><ele>40.0</ele><time>2026-03-26T17:28:02.999Z</time></trkpt><trkpt lat="41.046623479206694" lon="14.322466743062966"><ele>39.0</ele><time>2026-03-26T17:28:03.999Z</time></trkpt><trkpt lat="41.04634477274244" lon="14.322465179426398"><ele>39.0</ele><time>2026-03-26T17:28:04.999Z</time></trkpt><trkpt lat="41.04606568894079" lon="14.32246421756973"><ele>39.0</ele><time>2026-03-26T17:28:05.999Z</time></trkpt><trkpt lat="41.04578861036607" lon="14.322463335215748"><ele>38.0</ele><time>2026-03-26T17:28:06.999Z</time></trkpt><trkpt lat="41.04551037050981" lon="14.322460135671498"><ele>37.0</ele><time>2026-03-26T17:28:07.999Z</time></trkpt><trkpt lat="41.04523938778504" lon="14.322455197115836"><ele>37.0</ele><time>2026-03-26T17:28:08.999Z</time></trkpt><trkpt lat="41.04497342004499" lon="14.322454790355547"><ele>37.0</ele><time>2026-03-26T17:28:09.999Z</time></trkpt><trkpt lat="41.04470824638763" lon="14.322453010518153"><ele>37.0</ele><time>2026-03-26T17:28:10.999Z</time></trkpt><trkpt lat="41.04444460742809" lon="14.322450391673506"><ele>37.0</ele><time>2026-03-26T17:28:11.999Z</time></trkpt><trkpt lat="41.04418094249279" lon="14.322447071472999"><ele>37.5</ele><time>2026-03-26T17:28:12.999Z</time></trkpt><trkpt lat="41.043916136858144" lon="14.32244090448"><ele>38.0</ele><time>2026-03-26T17:28:13.999Z</time></trkpt><trkpt lat="41.04364972446629" lon="14.322434816051146"><ele>38.0</ele><time>2026-03-26T17:28:14.999Z</time></trkpt><trkpt lat="41.04337910995857" lon="14.322429841676835"><ele>38.0</ele><time>2026-03-26T17:28:15.999Z</time></trkpt><trkpt lat="41.043109740605" lon="14.322425545965432"><ele>39.0</ele><time>2026-03-26T17:28:16.999Z</time></trkpt><trkpt lat="41.04283953885972" lon="14.32242338325158"><ele>40.0</ele><time>2026-03-26T17:28:17.999Z</time></trkpt><trkpt lat="41.042566808065565" lon="14.322420115058359"><ele>39.0</ele><time>2026-03-26T17:28:18.999Z</time></trkpt><trkpt lat="41.042295694539966" lon="14.322413166154982"><ele>38.0</ele><time>2026-03-26T17:28:19.999Z</time></trkpt><trkpt lat="41.04202378687236" lon="14.322402855341576"><ele>38.0</ele><time>2026-03-26T17:28:20.999Z</time></trkpt><trkpt lat="41.04175141427027" lon="14.322389424451467"><ele>38.0</ele><time>2026-03-26T17:28:21.999Z</time></trkpt><trkpt lat="41.041477019945724" lon="14.322374761996445"><ele>37.0</ele><time>2026-03-26T17:28:22.999Z</time></trkpt><trkpt lat="41.04120387588943" lon="14.32236276677344"><ele>36.0</ele><time>2026-03-26T17:28:23.999Z</time></trkpt><trkpt lat="41.04093104147622" lon="14.32235176310268"><ele>37.5</ele><time>2026-03-26T17:28:24.999Z</time></trkpt><trkpt lat="41.04065752019176" lon="14.322345620792506"><ele>39.0</ele><time>2026-03-26T17:28:25.999Z</time></trkpt><trkpt lat="41.040384979371126" lon="14.322342109450728"><ele>39.0</ele><time>2026-03-26T17:28:26.999Z</time></trkpt><trkpt lat="41.04011612310553" lon="14.322338382896227"><ele>39.0</ele><time>2026-03-26T17:28:27.999Z</time></trkpt><trkpt lat="41.03984862078274" lon="14.322336065168496"><ele>39.0</ele><time>2026-03-26T17:28:28.999Z</time></trkpt><trkpt lat="41.039581278806175" lon="14.322335545477157"><ele>39.0</ele><time>2026-03-26T17:28:29.999Z</time></trkpt><trkpt lat="41.03931857126592" lon="14.322334561502123"><ele>38.0</ele><time>2026-03-26T17:28:30.999Z</time></trkpt><trkpt lat="41.03905737875736" lon="14.322333866104819"><ele>37.0</ele><time>2026-03-26T17:28:31.999Z</time></trkpt><trkpt lat="41.038797905337084" lon="14.3223333743778"><ele>37.0</ele><time>2026-03-26T17:28:32.999Z</time></trkpt><trkpt lat="41.03853908775767" lon="14.322330709696958"><ele>37.0</ele><time>2026-03-26T17:28:33.999Z</time></trkpt><trkpt lat="41.03828308425055" lon="14.322323516986636"><ele>37.0</ele><time>2026-03-26T17:28:34.999Z</time></trkpt><trkpt lat="41.03802743065124" lon="14.322315344492532"><ele>37.0</ele><time>2026-03-26T17:28:35.999Z</time></trkpt><trkpt lat="41.03777277348751" lon="14.322308870673796"><ele>37.0</ele><time>2026-03-26T17:28:36.999Z</time></trkpt><trkpt lat="41.03752395500474" lon="14.322306049210052"><ele>37.0</ele><time>2026-03-26T17:28:37.999Z</time></trkpt><trkpt lat="41.03729357248897" lon="14.322303762571986"><ele>37.0</ele><time>2026-03-26T17:28:38.999Z</time></trkpt><trkpt lat="41.03706790071401" lon="14.32230192755201"><ele>37.0</ele><time>2026-03-26T17:28:39.999Z</time></trkpt><trkpt lat="41.036831287433465" lon="14.322299310459755"><ele>36.5</ele><time>2026-03-26T17:28:40.999Z</time></trkpt><trkpt lat="41.03658402050324" lon="14.32230118898054"><ele>36.0</ele><time>2026-03-26T17:28:41.999Z</time></trkpt><trkpt lat="41.03633001849719" lon="14.322297920781986"><ele>36.0</ele><time>2026-03-26T17:28:42.999Z</time></trkpt><trkpt lat="41.036074406541694" lon="14.322293646000473"><ele>36.0</ele><time>2026-03-26T17:28:43.999Z</time></trkpt><trkpt lat="41.03581556199285" lon="14.322288843097907"><ele>35.0</ele><time>2026-03-26T17:28:44.999Z</time></trkpt><trkpt lat="41.0355544481894" lon="14.32228552758173"><ele>34.0</ele><time>2026-03-26T17:28:45.999Z</time></trkpt><trkpt lat="41.03529529059759" lon="14.322283669795764"><ele>34.0</ele><time>2026-03-26T17:28:46.999Z</time></trkpt><trkpt lat="41.03503735023962" lon="14.322282271455153"><ele>34.0</ele><time>2026-03-26T17:28:47.999Z</time></trkpt><trkpt lat="41.03477859369751" lon="14.322280107698987"><ele>33.5</ele><time>2026-03-26T17:28:48.999Z</time></trkpt><trkpt lat="41.034518925983924" lon="14.322274033777216"><ele>33.0</ele><time>2026-03-26T17:28:49.999Z</time></trkpt><trkpt lat="41.03425904518893" lon="14.32226944310045"><ele>33.0</ele><time>2026-03-26T17:28:50.999Z</time></trkpt><trkpt lat="41.034004776514294" lon="14.322263960588312"><ele>33.0</ele><time>2026-03-26T17:28:51.999Z</time></trkpt><trkpt lat="41.03375630114349" lon="14.322260879443185"><ele>33.0</ele><time>2026-03-26T17:28:52.999Z</time></trkpt><trkpt lat="41.033513498606744" lon="14.322255824852867"><ele>33.0</ele><time>2026-03-26T17:28:53.999Z</time></trkpt><trkpt lat="41.033283641330435" lon="14.322251988440279"><ele>33.333333333333336</ele><time>2026-03-26T17:28:54.999Z</time></trkpt><trkpt lat="41.03306657835877" lon="14.322249474633242"><ele>33.66666666666667</ele><time>2026-03-26T17:28:55.999Z</time></trkpt><trkpt lat="41.032847347658034" lon="14.322246764139699"><ele>34.0</ele><time>2026-03-26T17:28:56.999Z</time></trkpt><trkpt lat="41.032617440832155" lon="14.32224345675869"><ele>34.0</ele><time>2026-03-26T17:28:57.999Z</time></trkpt><trkpt lat="41.03238098440266" lon="14.322238776674249"><ele>34.0</ele><time>2026-03-26T17:28:58.999Z</time></trkpt><trkpt lat="41.032143804972996" lon="14.322235570344327"><ele>34.0</ele><time>2026-03-26T17:28:59.999Z</time></trkpt><trkpt lat="41.031907216910135" lon="14.32223151601786"><ele>34.0</ele><time>2026-03-26T17:29:00.999Z</time></trkpt><trkpt lat="41.03167279379299" lon="14.322229423855067"><ele>34.5</ele><time>2026-03-26T17:29:01.999Z</time></trkpt><trkpt lat="41.03144394859259" lon="14.322228127676633"><ele>35.0</ele><time>2026-03-26T17:29:02.999Z</time></trkpt><trkpt lat="41.03121157480064" lon="14.322228086007613"><ele>35.0</ele><time>2026-03-26T17:29:03.999Z</time></trkpt><trkpt lat="41.03098094919159" lon="14.32222585138175"><ele>35.0</ele><time>2026-03-26T17:29:04.999Z</time></trkpt><trkpt lat="41.03075601531062" lon="14.322222049248218"><ele>34.33333333333333</ele><time>2026-03-26T17:29:05.999Z</time></trkpt><trkpt lat="41.030544541616656" lon="14.322208622261842"><ele>33.666666666666664</ele><time>2026-03-26T17:29:06.999Z</time></trkpt><trkpt lat="41.030342062722" lon="14.322192386138276"><ele>33.0</ele><time>2026-03-26T17:29:07.999Z</time></trkpt><trkpt lat="41.030149426433134" lon="14.32217777533237"><ele>33.333333333333336</ele><time>2026-03-26T17:29:08.999Z</time></trkpt><trkpt lat="41.02996935269044" lon="14.32216273930985"><ele>33.66666666666667</ele><time>2026-03-26T17:29:09.999Z</time></trkpt><trkpt lat="41.02979719459901" lon="14.322148164579046"><ele>34.0</ele><time>2026-03-26T17:29:10.999Z</time></trkpt><trkpt lat="41.02962620667696" lon="14.322135479776177"><ele>34.0</ele><time>2026-03-26T17:29:11.999Z</time></trkpt><trkpt lat="41.02945882849182" lon="14.322124897244064"><ele>34.0</ele><time>2026-03-26T17:29:12.999Z</time></trkpt><trkpt lat="41.029294018689576" lon="14.322117442334397"><ele>34.0</ele><time>2026-03-26T17:29:13.999Z</time></trkpt><trkpt lat="41.02912784489185" lon="14.322110306884202"><ele>33.5</ele><time>2026-03-26T17:29:14.999Z</time></trkpt><trkpt lat="41.02896800728265" lon="14.322101501444621"><ele>33.0</ele><time>2026-03-26T17:29:15.999Z</time></trkpt><trkpt lat="41.02882607123326" lon="14.322094973828499"><ele>32.5</ele><time>2026-03-26T17:29:16.999Z</time></trkpt><trkpt lat="41.02869570862666" lon="14.322089774773861"><ele>32.0</ele><time>2026-03-26T17:29:17.999Z</time></trkpt><trkpt lat="41.02857540187785" lon="14.322082145713319"><ele>32.0</ele><time>2026-03-26T17:29:18.999Z</time></trkpt><trkpt lat="41.028462953312484" lon="14.322074025415802"><ele>32.0</ele><time>2026-03-26T17:29:19.999Z</time></trkpt><trkpt lat="41.02835722466784" lon="14.322064202953317"><ele>32.0</ele><time>2026-03-26T17:29:20.999Z</time></trkpt><trkpt lat="41.02826430229949" lon="14.322057661321985"><ele>32.0</ele><time>2026-03-26T17:29:21.999Z</time></trkpt><trkpt lat="41.02818336705419" lon="14.322054182279393"><ele>32.0</ele><time>2026-03-26T17:29:22.998Z</time></trkpt><trkpt lat="41.028119613283" lon="14.322049989168987"><ele>32.0</ele><time>2026-03-26T17:29:23.998Z</time></trkpt><trkpt lat="41.02803293853268" lon="14.32204400358113"><ele>32.0</ele><time>2026-03-26T17:29:25.998Z</time></trkpt><trkpt lat="41.02796607558837" lon="14.322041539108552"><ele>32.0</ele><time>2026-03-26T17:29:32.999Z</time></trkpt><trkpt lat="41.027898374377074" lon="14.322104348041627"><ele>32.0</ele><time>2026-03-26T17:30:02.999Z</time></trkpt><trkpt lat="41.027789910837086" lon="14.32210908107413"><ele>32.0</ele><time>2026-03-26T17:30:04.999Z</time></trkpt><trkpt lat="41.02771986955569" lon="14.321878344561265"><ele>31.999999999999996</ele><time>2026-03-26T17:30:05.999Z</time></trkpt><trkpt lat="41.02764165849921" lon="14.321877990177583"><ele>32.0</ele><time>2026-03-26T17:30:06.999Z</time></trkpt><trkpt lat="41.027570859248776" lon="14.321879275438798"><ele>32.0</ele><time>2026-03-26T17:30:08.999Z</time></trkpt><trkpt lat="41.027464732267994" lon="14.321880308882031"><ele>32.0</ele><time>2026-03-26T17:30:11.999Z</time></trkpt><trkpt lat="41.02737151514497" lon="14.32188230521113"><ele>31.999999999999996</ele><time>2026-03-26T17:30:12.999Z</time></trkpt><trkpt lat="41.02728164824728" lon="14.321884685411566"><ele>32.0</ele><time>2026-03-26T17:30:13.999Z</time></trkpt><trkpt lat="41.02717977491702" lon="14.321889974160733"><ele>32.0</ele><time>2026-03-26T17:30:14.999Z</time></trkpt><trkpt lat="41.02706857343417" lon="14.321896603060448"><ele>32.0</ele><time>2026-03-26T17:30:15.999Z</time></trkpt><trkpt lat="41.02695212814682" lon="14.32190553593145"><ele>32.0</ele><time>2026-03-26T17:30:16.999Z</time></trkpt><trkpt lat="41.02682619611279" lon="14.321915196559972"><ele>32.0</ele><time>2026-03-26T17:30:17.999Z</time></trkpt><trkpt lat="41.026691552855915" lon="14.321925351353649"><ele>30.666666666666664</ele><time>2026-03-26T17:30:18.999Z</time></trkpt><trkpt lat="41.02654523751972" lon="14.32193927023538"><ele>29.333333333333336</ele><time>2026-03-26T17:30:19.999Z</time></trkpt><trkpt lat="41.026395741918535" lon="14.32195679830902"><ele>28.0</ele><time>2026-03-26T17:30:20.999Z</time></trkpt><trkpt lat="41.02623812805634" lon="14.321976762943253"><ele>28.0</ele><time>2026-03-26T17:30:21.999Z</time></trkpt><trkpt lat="41.0260734381387" lon="14.322001424016683"><ele>28.0</ele><time>2026-03-26T17:30:22.999Z</time></trkpt><trkpt lat="41.02590584656729" lon="14.32204022576158"><ele>28.0</ele><time>2026-03-26T17:30:23.999Z</time></trkpt><trkpt lat="41.02572740946422" lon="14.322049657930751"><ele>28.0</ele><time>2026-03-26T17:30:24.999Z</time></trkpt><trkpt lat="41.025545609010024" lon="14.322064570560215"><ele>28.0</ele><time>2026-03-26T17:30:25.999Z</time></trkpt><trkpt lat="41.025358079874394" lon="14.322085191101236"><ele>28.0</ele><time>2026-03-26T17:30:26.999Z</time></trkpt><trkpt lat="41.02516503441195" lon="14.322109440206626"><ele>28.0</ele><time>2026-03-26T17:30:27.999Z</time></trkpt><trkpt lat="41.0249668377881" lon="14.32213047260235"><ele>28.0</ele><time>2026-03-26T17:30:28.999Z</time></trkpt><trkpt lat="41.024764029605784" lon="14.322144359500333"><ele>28.0</ele><time>2026-03-26T17:30:29.999Z</time></trkpt><trkpt lat="41.02455440606596" lon="14.322150249197144"><ele>28.0</ele><time>2026-03-26T17:30:30.999Z</time></trkpt><trkpt lat="41.02434426193372" lon="14.322150148023905"><ele>28.0</ele><time>2026-03-26T17:30:31.999Z</time></trkpt><trkpt lat="41.02412987282057" lon="14.322142667027215"><ele>28.0</ele><time>2026-03-26T17:30:32.999Z</time></trkpt><trkpt lat="41.02391701891488" lon="14.322135309848273"><ele>27.333333333333336</ele><time>2026-03-26T17:30:33.999Z</time></trkpt><trkpt lat="41.02370320223359" lon="14.32212467576687"><ele>26.666666666666664</ele><time>2026-03-26T17:30:34.999Z</time></trkpt><trkpt lat="41.023484450095175" lon="14.322117726073522"><ele>26.0</ele><time>2026-03-26T17:30:35.999Z</time></trkpt><trkpt lat="41.02326659504899" lon="14.322112622470723"><ele>26.0</ele><time>2026-03-26T17:30:36.999Z</time></trkpt><trkpt lat="41.02304669261522" lon="14.322111411384007"><ele>26.0</ele><time>2026-03-26T17:30:37.999Z</time></trkpt><trkpt lat="41.02282761397689" lon="14.322110006197818"><ele>26.0</ele><time>2026-03-26T17:30:38.999Z</time></trkpt><trkpt lat="41.02260577264814" lon="14.322108800610165"><ele>25.333333333333332</ele><time>2026-03-26T17:30:39.999Z</time></trkpt><trkpt lat="41.02238306380173" lon="14.322105077372276"><ele>24.666666666666664</ele><time>2026-03-26T17:30:40.999Z</time></trkpt><trkpt lat="41.02215932416724" lon="14.322101158505031"><ele>24.0</ele><time>2026-03-26T17:30:41.999Z</time></trkpt><trkpt lat="41.02193585496958" lon="14.322096504537104"><ele>24.0</ele><time>2026-03-26T17:30:42.999Z</time></trkpt><trkpt lat="41.021708469076884" lon="14.32209242690421"><ele>24.0</ele><time>2026-03-26T17:30:43.999Z</time></trkpt><trkpt lat="41.021478961456715" lon="14.322089178231577"><ele>24.0</ele><time>2026-03-26T17:30:44.999Z</time></trkpt><trkpt lat="41.02124505273273" lon="14.322087045241195"><ele>24.0</ele><time>2026-03-26T17:30:45.999Z</time></trkpt><trkpt lat="41.02100745893559" lon="14.322084638860579"><ele>24.0</ele><time>2026-03-26T17:30:46.999Z</time></trkpt><trkpt lat="41.020765477214525" lon="14.322081879051785"><ele>24.0</ele><time>2026-03-26T17:30:47.999Z</time></trkpt><trkpt lat="41.020520157769504" lon="14.32208134419135"><ele>24.0</ele><time>2026-03-26T17:30:48.999Z</time></trkpt><trkpt lat="41.020271766582916" lon="14.322083813932515"><ele>24.0</ele><time>2026-03-26T17:30:49.999Z</time></trkpt><trkpt lat="41.02002217484754" lon="14.32208798886415"><ele>23.0</ele><time>2026-03-26T17:30:50.999Z</time></trkpt><trkpt lat="41.01976979856908" lon="14.322095735031334"><ele>22.0</ele><time>2026-03-26T17:30:51.999Z</time></trkpt><trkpt lat="41.019513885314694" lon="14.322109193257065"><ele>22.0</ele><time>2026-03-26T17:30:52.999Z</time></trkpt><trkpt lat="41.019255662544815" lon="14.32212353695812"><ele>22.0</ele><time>2026-03-26T17:30:53.999Z</time></trkpt><trkpt lat="41.01899060942914" lon="14.322141114409039"><ele>22.5</ele><time>2026-03-26T17:30:54.999Z</time></trkpt><trkpt lat="41.018723773047896" lon="14.322160989382162"><ele>23.0</ele><time>2026-03-26T17:30:55.999Z</time></trkpt><trkpt lat="41.0184529312302" lon="14.322181976212091"><ele>23.5</ele><time>2026-03-26T17:30:56.999Z</time></trkpt><trkpt lat="41.018181926066454" lon="14.322204111983321"><ele>24.0</ele><time>2026-03-26T17:30:57.999Z</time></trkpt><trkpt lat="41.017912214874094" lon="14.322227878070327"><ele>24.0</ele><time>2026-03-26T17:30:58.999Z</time></trkpt><trkpt lat="41.017647057916015" lon="14.322253805067065"><ele>24.0</ele><time>2026-03-26T17:30:59.999Z</time></trkpt><trkpt lat="41.01738313751958" lon="14.322282043840524"><ele>24.0</ele><time>2026-03-26T17:31:00.999Z</time></trkpt><trkpt lat="41.01712429877715" lon="14.322307954322785"><ele>24.0</ele><time>2026-03-26T17:31:01.999Z</time></trkpt><trkpt lat="41.016863749139695" lon="14.322336214190933"><ele>22.5</ele><time>2026-03-26T17:31:02.999Z</time></trkpt><trkpt lat="41.01659967972978" lon="14.322364546500525"><ele>21.0</ele><time>2026-03-26T17:31:03.999Z</time></trkpt><trkpt lat="41.01633189587429" lon="14.32238986879666"><ele>21.0</ele><time>2026-03-26T17:31:04.999Z</time></trkpt><trkpt lat="41.01606187815722" lon="14.322416403990987"><ele>21.0</ele><time>2026-03-26T17:31:05.999Z</time></trkpt><trkpt lat="41.01579249812275" lon="14.322439996568189"><ele>22.0</ele><time>2026-03-26T17:31:06.999Z</time></trkpt><trkpt lat="41.01552140550172" lon="14.322461913131072"><ele>23.0</ele><time>2026-03-26T17:31:07.999Z</time></trkpt><trkpt lat="41.01524922124306" lon="14.322484952318826"><ele>24.0</ele><time>2026-03-26T17:31:08.999Z</time></trkpt><trkpt lat="41.01497544649789" lon="14.322511480655294"><ele>25.0</ele><time>2026-03-26T17:31:09.999Z</time></trkpt><trkpt lat="41.01470221843744" lon="14.322539401554563"><ele>25.0</ele><time>2026-03-26T17:31:10.999Z</time></trkpt><trkpt lat="41.01443009720801" lon="14.322560864737177"><ele>25.0</ele><time>2026-03-26T17:31:11.999Z</time></trkpt><trkpt lat="41.014170110637366" lon="14.322580623405749"><ele>28.0</ele><time>2026-03-26T17:31:12.999Z</time></trkpt><trkpt lat="41.01391490218529" lon="14.322601584812572"><ele>31.0</ele><time>2026-03-26T17:31:13.999Z</time></trkpt><trkpt lat="41.01365969478486" lon="14.32262285871779"><ele>31.0</ele><time>2026-03-26T17:31:14.999Z</time></trkpt><trkpt lat="41.01339974916064" lon="14.322646048222014"><ele>31.0</ele><time>2026-03-26T17:31:15.999Z</time></trkpt><trkpt lat="41.01313574264989" lon="14.322672453617036"><ele>27.5</ele><time>2026-03-26T17:31:16.999Z</time></trkpt><trkpt lat="41.01286563630228" lon="14.322700315426385"><ele>24.0</ele><time>2026-03-26T17:31:17.999Z</time></trkpt><trkpt lat="41.012594693464706" lon="14.322724357070944"><ele>24.5</ele><time>2026-03-26T17:31:18.999Z</time></trkpt><trkpt lat="41.01232267790124" lon="14.32274849117633"><ele>25.0</ele><time>2026-03-26T17:31:19.999Z</time></trkpt><trkpt lat="41.01205197601825" lon="14.322773719535375"><ele>25.0</ele><time>2026-03-26T17:31:20.999Z</time></trkpt><trkpt lat="41.01178616340864" lon="14.322794172148345"><ele>25.0</ele><time>2026-03-26T17:31:21.999Z</time></trkpt><trkpt lat="41.01151672870244" lon="14.322812221648114"><ele>23.5</ele><time>2026-03-26T17:31:22.999Z</time></trkpt><trkpt lat="41.01124886903986" lon="14.322830972102055"><ele>22.0</ele><time>2026-03-26T17:31:23.999Z</time></trkpt><trkpt lat="41.010983196769644" lon="14.322847719966946"><ele>21.0</ele><time>2026-03-26T17:31:24.999Z</time></trkpt><trkpt lat="41.01071924133671" lon="14.322866787435279"><ele>20.0</ele><time>2026-03-26T17:31:25.999Z</time></trkpt><trkpt lat="41.01046329833495" lon="14.32288646557418"><ele>20.0</ele><time>2026-03-26T17:31:26.998Z</time></trkpt><trkpt lat="41.010220820630536" lon="14.322907681908683"><ele>20.0</ele><time>2026-03-26T17:31:27.998Z</time></trkpt><trkpt lat="41.009977327848674" lon="14.322928911880528"><ele>20.5</ele><time>2026-03-26T17:31:28.998Z</time></trkpt><trkpt lat="41.00973385780879" lon="14.322946588992826"><ele>21.0</ele><time>2026-03-26T17:31:29.998Z</time></trkpt><trkpt lat="41.00949181873377" lon="14.322964910636"><ele>21.0</ele><time>2026-03-26T17:31:30.998Z</time></trkpt><trkpt lat="41.009254122972365" lon="14.322980553338367"><ele>21.0</ele><time>2026-03-26T17:31:31.998Z</time></trkpt><trkpt lat="41.00902319980796" lon="14.322997402224512"><ele>21.333333333333332</ele><time>2026-03-26T17:31:32.999Z</time></trkpt><trkpt lat="41.0087952597537" lon="14.323014138544746"><ele>21.666666666666664</ele><time>2026-03-26T17:31:33.999Z</time></trkpt><trkpt lat="41.00857425953172" lon="14.323026646886923"><ele>22.0</ele><time>2026-03-26T17:31:34.999Z</time></trkpt><trkpt lat="41.00835844316189" lon="14.32304138681037"><ele>21.0</ele><time>2026-03-26T17:31:35.999Z</time></trkpt><trkpt lat="41.00814919521888" lon="14.323059079120744"><ele>20.0</ele><time>2026-03-26T17:31:36.999Z</time></trkpt><trkpt lat="41.00794661092809" lon="14.323077097192067"><ele>19.0</ele><time>2026-03-26T17:31:37.999Z</time></trkpt><trkpt lat="41.007749149537354" lon="14.323094541104874"><ele>19.0</ele><time>2026-03-26T17:31:38.999Z</time></trkpt><trkpt lat="41.007556322528764" lon="14.323111919767246"><ele>19.0</ele><time>2026-03-26T17:31:39.999Z</time></trkpt><trkpt lat="41.00736265852161" lon="14.323128560284728"><ele>19.0</ele><time>2026-03-26T17:31:40.999Z</time></trkpt><trkpt lat="41.00716815065178" lon="14.323146417033417"><ele>19.333333333333332</ele><time>2026-03-26T17:31:41.999Z</time></trkpt><trkpt lat="41.00697371839729" lon="14.323164418219108"><ele>19.666666666666668</ele><time>2026-03-26T17:31:42.999Z</time></trkpt><trkpt lat="41.00677985544389" lon="14.323181405130736"><ele>20.0</ele><time>2026-03-26T17:31:43.999Z</time></trkpt><trkpt lat="41.00658869247981" lon="14.323197964218979"><ele>20.666666666666668</ele><time>2026-03-26T17:31:44.999Z</time></trkpt><trkpt lat="41.006400355550824" lon="14.323213906516527"><ele>21.333333333333332</ele><time>2026-03-26T17:31:45.999Z</time></trkpt><trkpt lat="41.006215161654" lon="14.323231722548252"><ele>22.0</ele><time>2026-03-26T17:31:46.999Z</time></trkpt><trkpt lat="41.00603230945791" lon="14.323249008820586"><ele>22.0</ele><time>2026-03-26T17:31:47.999Z</time></trkpt><trkpt lat="41.00585011926091" lon="14.323265774985334"><ele>22.0</ele><time>2026-03-26T17:31:48.999Z</time></trkpt><trkpt lat="41.00567160348251" lon="14.323280259412204"><ele>22.0</ele><time>2026-03-26T17:31:49.999Z</time></trkpt><trkpt lat="41.00549792571385" lon="14.323294514699203"><ele>21.666666666666664</ele><time>2026-03-26T17:31:50.999Z</time></trkpt><trkpt lat="41.00532855276554" lon="14.323308309023917"><ele>21.333333333333332</ele><time>2026-03-26T17:31:51.999Z</time></trkpt><trkpt lat="41.00515994390275" lon="14.323324781047566"><ele>21.0</ele><time>2026-03-26T17:31:52.999Z</time></trkpt><trkpt lat="41.00499308826782" lon="14.323342292473903"><ele>21.0</ele><time>2026-03-26T17:31:53.999Z</time></trkpt><trkpt lat="41.004829988558484" lon="14.323357881175902"><ele>21.0</ele><time>2026-03-26T17:31:54.999Z</time></trkpt><trkpt lat="41.004668685662025" lon="14.323371505632958"><ele>21.0</ele><time>2026-03-26T17:31:55.999Z</time></trkpt><trkpt lat="41.004510123764746" lon="14.32338527729228"><ele>21.0</ele><time>2026-03-26T17:31:56.999Z</time></trkpt><trkpt lat="41.0043533917997" lon="14.323400127283408"><ele>21.0</ele><time>2026-03-26T17:31:57.999Z</time></trkpt><trkpt lat="41.00420089631959" lon="14.323414911036531"><ele>21.0</ele><time>2026-03-26T17:31:58.999Z</time></trkpt><trkpt lat="41.004050743035826" lon="14.323427697446066"><ele>21.0</ele><time>2026-03-26T17:31:59.999Z</time></trkpt><trkpt lat="41.00390584073568" lon="14.323440207942275"><ele>21.0</ele><time>2026-03-26T17:32:00.999Z</time></trkpt><trkpt lat="41.00376071153089" lon="14.323452645274056"><ele>21.0</ele><time>2026-03-26T17:32:01.999Z</time></trkpt><trkpt lat="41.00361874827356" lon="14.323465966618686"><ele>21.0</ele><time>2026-03-26T17:32:02.999Z</time></trkpt><trkpt lat="41.003483536352206" lon="14.323478641567919"><ele>21.0</ele><time>2026-03-26T17:32:03.999Z</time></trkpt><trkpt lat="41.00334989848357" lon="14.32349189588215"><ele>21.0</ele><time>2026-03-26T17:32:04.999Z</time></trkpt><trkpt lat="41.00321818610038" lon="14.3235042590905"><ele>21.0</ele><time>2026-03-26T17:32:05.999Z</time></trkpt><trkpt lat="41.0030896694046" lon="14.323514419669053"><ele>21.0</ele><time>2026-03-26T17:32:06.999Z</time></trkpt><trkpt lat="41.0029619894811" lon="14.323525806170856"><ele>21.0</ele><time>2026-03-26T17:32:07.999Z</time></trkpt><trkpt lat="41.00283165745108" lon="14.323536791686639"><ele>21.0</ele><time>2026-03-26T17:32:08.999Z</time></trkpt><trkpt lat="41.00270248320956" lon="14.323549093346774"><ele>21.0</ele><time>2026-03-26T17:32:09.999Z</time></trkpt><trkpt lat="41.002574895745276" lon="14.323560888755424"><ele>21.0</ele><time>2026-03-26T17:32:10.999Z</time></trkpt><trkpt lat="41.00244685159254" lon="14.323571965896978"><ele>21.0</ele><time>2026-03-26T17:32:11.999Z</time></trkpt><trkpt lat="41.00231774331524" lon="14.323584494482311"><ele>21.0</ele><time>2026-03-26T17:32:12.999Z</time></trkpt><trkpt lat="41.00219166008412" lon="14.323595658745258"><ele>21.0</ele><time>2026-03-26T17:32:13.999Z</time></trkpt><trkpt lat="41.00206598693382" lon="14.323607382915885"><ele>21.0</ele><time>2026-03-26T17:32:14.999Z</time></trkpt><trkpt lat="41.001938043221244" lon="14.323620179975325"><ele>21.0</ele><time>2026-03-26T17:32:15.999Z</time></trkpt><trkpt lat="41.00180959107627" lon="14.323633420209866"><ele>21.0</ele><time>2026-03-26T17:32:16.999Z</time></trkpt><trkpt lat="41.0016805766392" lon="14.323646706607358"><ele>21.0</ele><time>2026-03-26T17:32:17.999Z</time></trkpt><trkpt lat="41.00155001672085" lon="14.32365829549303"><ele>21.0</ele><time>2026-03-26T17:32:18.999Z</time></trkpt><trkpt lat="41.001418626698154" lon="14.323669675803101"><ele>20.75</ele><time>2026-03-26T17:32:19.999Z</time></trkpt><trkpt lat="41.00128754514246" lon="14.323682487934695"><ele>20.5</ele><time>2026-03-26T17:32:20.999Z</time></trkpt><trkpt lat="41.001156691206575" lon="14.3236947947835"><ele>20.25</ele><time>2026-03-26T17:32:21.999Z</time></trkpt><trkpt lat="41.00102717103653" lon="14.323707739909086"><ele>20.0</ele><time>2026-03-26T17:32:22.999Z</time></trkpt><trkpt lat="41.000898454135985" lon="14.323720720412606"><ele>20.0</ele><time>2026-03-26T17:32:23.999Z</time></trkpt><trkpt lat="41.000769455678586" lon="14.323730587540881"><ele>20.0</ele><time>2026-03-26T17:32:24.999Z</time></trkpt><trkpt lat="41.00063829314685" lon="14.323740621400026"><ele>20.0</ele><time>2026-03-26T17:32:25.999Z</time></trkpt><trkpt lat="41.00050666560848" lon="14.3237515277838"><ele>20.0</ele><time>2026-03-26T17:32:26.999Z</time></trkpt><trkpt lat="41.00037449872321" lon="14.32376363353047"><ele>20.0</ele><time>2026-03-26T17:32:27.999Z</time></trkpt><trkpt lat="41.00024658258634" lon="14.323777235486908"><ele>20.0</ele><time>2026-03-26T17:32:28.999Z</time></trkpt><trkpt lat="41.000117133647336" lon="14.323790472466868"><ele>20.0</ele><time>2026-03-26T17:32:29.999Z</time></trkpt><trkpt lat="40.99998589545273" lon="14.323802645974268"><ele>20.0</ele><time>2026-03-26T17:32:30.999Z</time></trkpt><trkpt lat="40.99985506678124" lon="14.323814666769398"><ele>20.0</ele><time>2026-03-26T17:32:31.999Z</time></trkpt><trkpt lat="40.99972320852883" lon="14.323826850682904"><ele>20.0</ele><time>2026-03-26T17:32:32.999Z</time></trkpt><trkpt lat="40.99958948110457" lon="14.323836939702248"><ele>20.0</ele><time>2026-03-26T17:32:33.999Z</time></trkpt><trkpt lat="40.99945699625686" lon="14.323848559937465"><ele>20.0</ele><time>2026-03-26T17:32:34.999Z</time></trkpt><trkpt lat="40.99932475048338" lon="14.32386066969842"><ele>20.0</ele><time>2026-03-26T17:32:35.999Z</time></trkpt><trkpt lat="40.99919133027411" lon="14.323872922959428"><ele>20.0</ele><time>2026-03-26T17:32:36.999Z</time></trkpt><trkpt lat="40.999058120600964" lon="14.323886930512355"><ele>20.0</ele><time>2026-03-26T17:32:37.999Z</time></trkpt><trkpt lat="40.99892382881288" lon="14.323899177762382"><ele>20.0</ele><time>2026-03-26T17:32:38.999Z</time></trkpt><trkpt lat="40.99879006471327" lon="14.32391043073251"><ele>20.25</ele><time>2026-03-26T17:32:39.999Z</time></trkpt><trkpt lat="40.99865566532446" lon="14.323923819175533"><ele>20.5</ele><time>2026-03-26T17:32:40.999Z</time></trkpt><trkpt lat="40.99852050504909" lon="14.32393638259382"><ele>20.75</ele><time>2026-03-26T17:32:41.999Z</time></trkpt><trkpt lat="40.99838487642286" lon="14.323950067759126"><ele>21.0</ele><time>2026-03-26T17:32:42.999Z</time></trkpt><trkpt lat="40.99824818334431" lon="14.323963733454255"><ele>21.25</ele><time>2026-03-26T17:32:43.999Z</time></trkpt><trkpt lat="40.9981142259532" lon="14.323976159183132"><ele>21.5</ele><time>2026-03-26T17:32:44.999Z</time></trkpt><trkpt lat="40.99798139482822" lon="14.323986294487396"><ele>21.75</ele><time>2026-03-26T17:32:45.999Z</time></trkpt><trkpt lat="40.99784949740011" lon="14.32399715125941"><ele>22.0</ele><time>2026-03-26T17:32:46.999Z</time></trkpt><trkpt lat="40.99771748425792" lon="14.324008652333163"><ele>22.0</ele><time>2026-03-26T17:32:47.999Z</time></trkpt><trkpt lat="40.99758619569197" lon="14.324021211411985"><ele>22.0</ele><time>2026-03-26T17:32:48.999Z</time></trkpt><trkpt lat="40.99745334417994" lon="14.324032917084446"><ele>22.0</ele><time>2026-03-26T17:32:49.999Z</time></trkpt><trkpt lat="40.997321669669525" lon="14.32404417456117"><ele>22.0</ele><time>2026-03-26T17:32:50.999Z</time></trkpt><trkpt lat="40.997192604365885" lon="14.32405632037139"><ele>21.25</ele><time>2026-03-26T17:32:51.999Z</time></trkpt><trkpt lat="40.99706247573975" lon="14.324068414953029"><ele>20.5</ele><time>2026-03-26T17:32:52.999Z</time></trkpt><trkpt lat="40.996934510953" lon="14.324080647919203"><ele>19.75</ele><time>2026-03-26T17:32:53.999Z</time></trkpt><trkpt lat="40.996810261814524" lon="14.324091753744616"><ele>19.0</ele><time>2026-03-26T17:32:54.999Z</time></trkpt><trkpt lat="40.99668218315836" lon="14.324103614474618"><ele>19.0</ele><time>2026-03-26T17:32:55.999Z</time></trkpt><trkpt lat="40.996554872436825" lon="14.324114874131224"><ele>19.0</ele><time>2026-03-26T17:32:56.999Z</time></trkpt><trkpt lat="40.99642588187639" lon="14.324125512912737"><ele>19.0</ele><time>2026-03-26T17:32:57.999Z</time></trkpt><trkpt lat="40.99630165469702" lon="14.324137413094805"><ele>19.0</ele><time>2026-03-26T17:32:58.999Z</time></trkpt><trkpt lat="40.9961844943551" lon="14.324148021003749"><ele>19.0</ele><time>2026-03-26T17:32:59.999Z</time></trkpt><trkpt lat="40.99607420659691" lon="14.324157461083244"><ele>19.0</ele><time>2026-03-26T17:33:00.999Z</time></trkpt><trkpt lat="40.9959674398095" lon="14.324167290460077"><ele>19.0</ele><time>2026-03-26T17:33:01.999Z</time></trkpt><trkpt lat="40.995867566302856" lon="14.324175948411135"><ele>19.0</ele><time>2026-03-26T17:33:02.999Z</time></trkpt><trkpt lat="40.99577747489157" lon="14.32417722667408"><ele>19.0</ele><time>2026-03-26T17:33:03.999Z</time></trkpt><trkpt lat="40.99570117687163" lon="14.324188864582181"><ele>19.0</ele><time>2026-03-26T17:33:04.999Z</time></trkpt><trkpt lat="40.995637694672304" lon="14.324194558489845"><ele>19.0</ele><time>2026-03-26T17:33:05.999Z</time></trkpt><trkpt lat="40.99554709730584" lon="14.324202684448823"><ele>19.0</ele><time>2026-03-26T17:33:07.999Z</time></trkpt><trkpt lat="40.99547976765873" lon="14.324208723443697"><ele>19.0</ele><time>2026-03-26T17:33:11.999Z</time></trkpt><trkpt lat="40.99538685467738" lon="14.324217057088235"><ele>19.0</ele><time>2026-03-26T17:33:13.999Z</time></trkpt><trkpt lat="40.99528219013024" lon="14.324222696183236"><ele>19.0</ele><time>2026-03-26T17:33:15.999Z</time></trkpt><trkpt lat="40.995210107694945" lon="14.324229548400481"><ele>19.0</ele><time>2026-03-26T17:33:16.999Z</time></trkpt><trkpt lat="40.9951298295881" lon="14.324239477158587"><ele>19.0</ele><time>2026-03-26T17:33:17.999Z</time></trkpt><trkpt lat="40.9950392999567" lon="14.324249111991644"><ele>19.0</ele><time>2026-03-26T17:33:18.999Z</time></trkpt><trkpt lat="40.99493905658049" lon="14.32425707472965"><ele>19.0</ele><time>2026-03-26T17:33:19.999Z</time></trkpt><trkpt lat="40.994826710591944" lon="14.324265902829262"><ele>19.0</ele><time>2026-03-26T17:33:20.999Z</time></trkpt><trkpt lat="40.994701983398805" lon="14.324274774120905"><ele>18.75</ele><time>2026-03-26T17:33:21.999Z</time></trkpt><trkpt lat="40.99457367530456" lon="14.32428439211255"><ele>18.5</ele><time>2026-03-26T17:33:22.999Z</time></trkpt><trkpt lat="40.99444603970846" lon="14.324296665739984"><ele>18.25</ele><time>2026-03-26T17:33:23.999Z</time></trkpt><trkpt lat="40.99432464378146" lon="14.32431018338452"><ele>18.0</ele><time>2026-03-26T17:33:24.999Z</time></trkpt><trkpt lat="40.99419955047531" lon="14.324320456465077"><ele>18.5</ele><time>2026-03-26T17:33:25.999Z</time></trkpt><trkpt lat="40.99407032891646" lon="14.324331556462756"><ele>19.0</ele><time>2026-03-26T17:33:26.999Z</time></trkpt><trkpt lat="40.99393398922802" lon="14.32434467006389"><ele>19.5</ele><time>2026-03-26T17:33:27.999Z</time></trkpt><trkpt lat="40.99379288038069" lon="14.324356873826702"><ele>20.0</ele><time>2026-03-26T17:33:28.999Z</time></trkpt><trkpt lat="40.993645932208096" lon="14.324369166707172"><ele>20.0</ele><time>2026-03-26T17:33:29.999Z</time></trkpt><trkpt lat="40.9934978173036" lon="14.324381472501509"><ele>20.0</ele><time>2026-03-26T17:33:30.999Z</time></trkpt><trkpt lat="40.99335006879479" lon="14.324394807239086"><ele>20.0</ele><time>2026-03-26T17:33:31.999Z</time></trkpt><trkpt lat="40.99319365229296" lon="14.324412877280805"><ele>19.0</ele><time>2026-03-26T17:33:32.999Z</time></trkpt><trkpt lat="40.993027417179555" lon="14.324433949011292"><ele>18.0</ele><time>2026-03-26T17:33:33.999Z</time></trkpt><trkpt lat="40.99285277769219" lon="14.324454169586653"><ele>17.0</ele><time>2026-03-26T17:33:34.999Z</time></trkpt><trkpt lat="40.99267011505176" lon="14.324472948409191"><ele>17.666666666666668</ele><time>2026-03-26T17:33:35.999Z</time></trkpt><trkpt lat="40.992483633291265" lon="14.324491329203825"><ele>18.333333333333332</ele><time>2026-03-26T17:33:36.999Z</time></trkpt><trkpt lat="40.9922897399302" lon="14.324510750424956"><ele>19.0</ele><time>2026-03-26T17:33:37.999Z</time></trkpt><trkpt lat="40.99209010752139" lon="14.324531385346381"><ele>19.0</ele><time>2026-03-26T17:33:38.999Z</time></trkpt><trkpt lat="40.991884623647245" lon="14.324554763107884"><ele>19.0</ele><time>2026-03-26T17:33:39.999Z</time></trkpt><trkpt lat="40.99167718943995" lon="14.324576902098052"><ele>19.0</ele><time>2026-03-26T17:33:40.999Z</time></trkpt><trkpt lat="40.991467084784496" lon="14.324599624198516"><ele>19.333333333333332</ele><time>2026-03-26T17:33:41.999Z</time></trkpt><trkpt lat="40.9912612218722" lon="14.324620255962026"><ele>19.666666666666668</ele><time>2026-03-26T17:33:42.999Z</time></trkpt><trkpt lat="40.99105632297276" lon="14.324638848687893"><ele>20.0</ele><time>2026-03-26T17:33:43.999Z</time></trkpt><trkpt lat="40.99085613048307" lon="14.32465836454764"><ele>20.0</ele><time>2026-03-26T17:33:44.999Z</time></trkpt><trkpt lat="40.99065473437116" lon="14.324680280268497"><ele>20.0</ele><time>2026-03-26T17:33:45.999Z</time></trkpt><trkpt lat="40.99045639626938" lon="14.324701569658147"><ele>20.0</ele><time>2026-03-26T17:33:46.999Z</time></trkpt><trkpt lat="40.990253936513994" lon="14.324722147049263"><ele>20.0</ele><time>2026-03-26T17:33:47.999Z</time></trkpt><trkpt lat="40.990050168889724" lon="14.324743710886239"><ele>20.0</ele><time>2026-03-26T17:33:48.999Z</time></trkpt><trkpt lat="40.9898464136115" lon="14.324762028569037"><ele>20.0</ele><time>2026-03-26T17:33:49.999Z</time></trkpt><trkpt lat="40.9896411624665" lon="14.324779453129704"><ele>20.0</ele><time>2026-03-26T17:33:50.999Z</time></trkpt><trkpt lat="40.98943252096783" lon="14.324797795258672"><ele>20.0</ele><time>2026-03-26T17:33:51.999Z</time></trkpt><trkpt lat="40.98922514489266" lon="14.324815228089694"><ele>20.0</ele><time>2026-03-26T17:33:52.999Z</time></trkpt><trkpt lat="40.989017105271365" lon="14.324833797644077"><ele>21.0</ele><time>2026-03-26T17:33:53.999Z</time></trkpt><trkpt lat="40.98880986675227" lon="14.324852983939417"><ele>22.0</ele><time>2026-03-26T17:33:54.999Z</time></trkpt><trkpt lat="40.98860118493202" lon="14.324872592992092"><ele>23.0</ele><time>2026-03-26T17:33:55.999Z</time></trkpt><trkpt lat="40.98839031109838" lon="14.324891282205389"><ele>22.333333333333336</ele><time>2026-03-26T17:33:56.999Z</time></trkpt><trkpt lat="40.98817813749208" lon="14.324907912360825"><ele>21.666666666666668</ele><time>2026-03-26T17:33:57.999Z</time></trkpt><trkpt lat="40.98796437198443" lon="14.324924099858567"><ele>21.0</ele><time>2026-03-26T17:33:58.999Z</time></trkpt><trkpt lat="40.98774912966882" lon="14.324944006166225"><ele>21.0</ele><time>2026-03-26T17:33:59.999Z</time></trkpt><trkpt lat="40.987534933437246" lon="14.32496535784523"><ele>21.0</ele><time>2026-03-26T17:34:00.999Z</time></trkpt><trkpt lat="40.987321036748135" lon="14.324983390631337"><ele>21.0</ele><time>2026-03-26T17:34:01.999Z</time></trkpt><trkpt lat="40.98710897324078" lon="14.325000361899926"><ele>21.0</ele><time>2026-03-26T17:34:02.999Z</time></trkpt><trkpt lat="40.98689559445683" lon="14.325017326297239"><ele>21.0</ele><time>2026-03-26T17:34:03.999Z</time></trkpt><trkpt lat="40.986683017781054" lon="14.325035210118003"><ele>21.0</ele><time>2026-03-26T17:34:04.999Z</time></trkpt><trkpt lat="40.98647039795854" lon="14.32505544227644"><ele>20.333333333333332</ele><time>2026-03-26T17:34:05.999Z</time></trkpt><trkpt lat="40.986259781229464" lon="14.325073726024408"><ele>19.666666666666664</ele><time>2026-03-26T17:34:06.999Z</time></trkpt><trkpt lat="40.98605158940335" lon="14.325091706300118"><ele>19.0</ele><time>2026-03-26T17:34:07.999Z</time></trkpt><trkpt lat="40.98584574066499" lon="14.325109158367766"><ele>19.333333333333332</ele><time>2026-03-26T17:34:08.999Z</time></trkpt><trkpt lat="40.98564610121075" lon="14.325124154753736"><ele>19.666666666666668</ele><time>2026-03-26T17:34:09.999Z</time></trkpt><trkpt lat="40.98544828093097" lon="14.325141141982357"><ele>20.0</ele><time>2026-03-26T17:34:10.999Z</time></trkpt><trkpt lat="40.9852539407382" lon="14.325160180568565"><ele>20.0</ele><time>2026-03-26T17:34:11.999Z</time></trkpt><trkpt lat="40.98505745066511" lon="14.3251765668205"><ele>20.0</ele><time>2026-03-26T17:34:12.999Z</time></trkpt><trkpt lat="40.98485503834257" lon="14.325196069795503"><ele>20.0</ele><time>2026-03-26T17:34:13.999Z</time></trkpt><trkpt lat="40.984652228097254" lon="14.3252121482405"><ele>19.666666666666668</ele><time>2026-03-26T17:34:14.999Z</time></trkpt><trkpt lat="40.98444610396611" lon="14.325232303600071"><ele>19.333333333333332</ele><time>2026-03-26T17:34:15.999Z</time></trkpt><trkpt lat="40.98423884598972" lon="14.325252026036386"><ele>19.0</ele><time>2026-03-26T17:34:16.999Z</time></trkpt><trkpt lat="40.98403259559785" lon="14.325272614155681"><ele>19.0</ele><time>2026-03-26T17:34:17.999Z</time></trkpt><trkpt lat="40.9838284702618" lon="14.325294217857806"><ele>19.0</ele><time>2026-03-26T17:34:18.999Z</time></trkpt><trkpt lat="40.98362275011972" lon="14.325313807720693"><ele>19.0</ele><time>2026-03-26T17:34:19.999Z</time></trkpt><trkpt lat="40.98341462547778" lon="14.3253313204873"><ele>19.333333333333332</ele><time>2026-03-26T17:34:20.999Z</time></trkpt><trkpt lat="40.98320420348642" lon="14.325350205529666"><ele>19.666666666666668</ele><time>2026-03-26T17:34:21.999Z</time></trkpt><trkpt lat="40.982990786349305" lon="14.325369022880867"><ele>20.0</ele><time>2026-03-26T17:34:22.999Z</time></trkpt><trkpt lat="40.982773548996036" lon="14.325387842952718"><ele>20.0</ele><time>2026-03-26T17:34:23.999Z</time></trkpt><trkpt lat="40.98256025439973" lon="14.325408197032665"><ele>20.0</ele><time>2026-03-26T17:34:24.999Z</time></trkpt><trkpt lat="40.98234580566448" lon="14.325428930366419"><ele>20.0</ele><time>2026-03-26T17:34:25.999Z</time></trkpt><trkpt lat="40.98213115285576" lon="14.325449704904134"><ele>20.0</ele><time>2026-03-26T17:34:26.999Z</time></trkpt><trkpt lat="40.9819180866838" lon="14.325469643951541"><ele>20.0</ele><time>2026-03-26T17:34:27.999Z</time></trkpt><trkpt lat="40.98170504728458" lon="14.325489127313245"><ele>20.0</ele><time>2026-03-26T17:34:28.999Z</time></trkpt><trkpt lat="40.981491019161844" lon="14.32550796044829"><ele>20.0</ele><time>2026-03-26T17:34:29.999Z</time></trkpt><trkpt lat="40.98127746541121" lon="14.325525930555088"><ele>20.0</ele><time>2026-03-26T17:34:30.999Z</time></trkpt><trkpt lat="40.98106855464962" lon="14.325546808213586"><ele>20.0</ele><time>2026-03-26T17:34:31.999Z</time></trkpt><trkpt lat="40.980867864948536" lon="14.3255657066993"><ele>20.333333333333336</ele><time>2026-03-26T17:34:32.999Z</time></trkpt><trkpt lat="40.98067346698779" lon="14.325584574999342"><ele>20.666666666666668</ele><time>2026-03-26T17:34:33.999Z</time></trkpt><trkpt lat="40.98049015209922" lon="14.325599593724117"><ele>21.0</ele><time>2026-03-26T17:34:34.999Z</time></trkpt><trkpt lat="40.980310733713736" lon="14.325613341967852"><ele>21.0</ele><time>2026-03-26T17:34:35.999Z</time></trkpt><trkpt lat="40.98014070505585" lon="14.325618326978619"><ele>21.0</ele><time>2026-03-26T17:34:36.999Z</time></trkpt><trkpt lat="40.979978432595004" lon="14.325623760438594"><ele>21.0</ele><time>2026-03-26T17:34:37.999Z</time></trkpt><trkpt lat="40.97982923962809" lon="14.325636392450212"><ele>21.5</ele><time>2026-03-26T17:34:38.999Z</time></trkpt><trkpt lat="40.979692043464006" lon="14.325649865104724"><ele>22.0</ele><time>2026-03-26T17:34:39.999Z</time></trkpt><trkpt lat="40.979564869685895" lon="14.325660471094073"><ele>22.5</ele><time>2026-03-26T17:34:40.999Z</time></trkpt><trkpt lat="40.97944672974672" lon="14.325669069241972"><ele>23.0</ele><time>2026-03-26T17:34:41.999Z</time></trkpt><trkpt lat="40.979334033119585" lon="14.325678574283016"><ele>23.0</ele><time>2026-03-26T17:34:42.999Z</time></trkpt><trkpt lat="40.979223353785244" lon="14.325690545230039"><ele>23.0</ele><time>2026-03-26T17:34:43.999Z</time></trkpt><trkpt lat="40.97911698443936" lon="14.325701959263395"><ele>23.0</ele><time>2026-03-26T17:34:44.999Z</time></trkpt><trkpt lat="40.97901721539274" lon="14.325709953291046"><ele>23.0</ele><time>2026-03-26T17:34:45.999Z</time></trkpt><trkpt lat="40.97892773870168" lon="14.325716802383022"><ele>23.0</ele><time>2026-03-26T17:34:46.999Z</time></trkpt><trkpt lat="40.97884575823159" lon="14.325723082882487"><ele>23.0</ele><time>2026-03-26T17:34:47.999Z</time></trkpt><trkpt lat="40.97877204998472" lon="14.325729519078935"><ele>23.0</ele><time>2026-03-26T17:34:48.999Z</time></trkpt><trkpt lat="40.97870661536115" lon="14.325734499438756"><ele>23.0</ele><time>2026-03-26T17:34:49.999Z</time></trkpt><trkpt lat="40.97859788591676" lon="14.325740925459245"><ele>23.0</ele><time>2026-03-26T17:34:51.999Z</time></trkpt><trkpt lat="40.97851706330538" lon="14.325747886892803"><ele>23.0</ele><time>2026-03-26T17:34:53.999Z</time></trkpt><trkpt lat="40.97843584858303" lon="14.325752248300487"><ele>23.0</ele><time>2026-03-26T17:34:56.999Z</time></trkpt><trkpt lat="40.9783033984942" lon="14.325779197977274"><ele>22.25</ele><time>2026-03-26T17:35:03.999Z</time></trkpt><trkpt lat="40.97819983441684" lon="14.325783043090741"><ele>21.5</ele><time>2026-03-26T17:35:04.999Z</time></trkpt><trkpt lat="40.978074121428136" lon="14.3257964790422"><ele>20.75</ele><time>2026-03-26T17:35:05.999Z</time></trkpt><trkpt lat="40.97791461063854" lon="14.32580826725366"><ele>20.0</ele><time>2026-03-26T17:35:06.999Z</time></trkpt><trkpt lat="40.977726654569885" lon="14.325818819223613"><ele>20.0</ele><time>2026-03-26T17:35:07.999Z</time></trkpt><trkpt lat="40.97756194722783" lon="14.325827248832072"><ele>20.0</ele><time>2026-03-26T17:35:08.999Z</time></trkpt><trkpt lat="40.9774114357885" lon="14.325836740771754"><ele>20.0</ele><time>2026-03-26T17:35:09.999Z</time></trkpt><trkpt lat="40.9772720389211" lon="14.325842586643406"><ele>20.0</ele><time>2026-03-26T17:35:10.999Z</time></trkpt><trkpt lat="40.97714041286436" lon="14.32584795656967"><ele>20.0</ele><time>2026-03-26T17:35:11.999Z</time></trkpt><trkpt lat="40.9770183785031" lon="14.32585850595459"><ele>20.0</ele><time>2026-03-26T17:35:12.999Z</time></trkpt><trkpt lat="40.976907506005" lon="14.325864665881593"><ele>20.0</ele><time>2026-03-26T17:35:13.999Z</time></trkpt><trkpt lat="40.97678944620634" lon="14.325859686195473"><ele>20.0</ele><time>2026-03-26T17:35:14.999Z</time></trkpt><trkpt lat="40.976666927720636" lon="14.325837412980292"><ele>20.0</ele><time>2026-03-26T17:35:15.999Z</time></trkpt><trkpt lat="40.976541220555305" lon="14.325794564907747"><ele>20.0</ele><time>2026-03-26T17:35:16.999Z</time></trkpt><trkpt lat="40.976411620131145" lon="14.325732299924246"><ele>20.0</ele><time>2026-03-26T17:35:17.999Z</time></trkpt><trkpt lat="40.97628442629471" lon="14.325643167507252"><ele>20.333333333333336</ele><time>2026-03-26T17:35:18.999Z</time></trkpt><trkpt lat="40.97616322889094" lon="14.325523625637338"><ele>20.666666666666668</ele><time>2026-03-26T17:35:19.999Z</time></trkpt><trkpt lat="40.97604414154834" lon="14.325382963562795"><ele>21.0</ele><time>2026-03-26T17:35:20.999Z</time></trkpt><trkpt lat="40.97592892556347" lon="14.32522910042967"><ele>20.666666666666668</ele><time>2026-03-26T17:35:21.999Z</time></trkpt><trkpt lat="40.975810599775585" lon="14.325072035939703"><ele>20.333333333333336</ele><time>2026-03-26T17:35:22.999Z</time></trkpt><trkpt lat="40.97569188840227" lon="14.324914525945557"><ele>20.0</ele><time>2026-03-26T17:35:23.999Z</time></trkpt><trkpt lat="40.97557445984331" lon="14.324758475087402"><ele>20.25</ele><time>2026-03-26T17:35:24.999Z</time></trkpt><trkpt lat="40.97546438691882" lon="14.324609329893796"><ele>20.5</ele><time>2026-03-26T17:35:25.999Z</time></trkpt><trkpt lat="40.975362471719" lon="14.324470546352403"><ele>20.75</ele><time>2026-03-26T17:35:26.999Z</time></trkpt><trkpt lat="40.97526679700554" lon="14.324344555516257"><ele>21.0</ele><time>2026-03-26T17:35:27.999Z</time></trkpt><trkpt lat="40.97517244270986" lon="14.324225637608025"><ele>21.0</ele><time>2026-03-26T17:35:28.999Z</time></trkpt><trkpt lat="40.9750739043446" lon="14.324114179276574"><ele>21.0</ele><time>2026-03-26T17:35:29.999Z</time></trkpt><trkpt lat="40.974967864577465" lon="14.324010110098234"><ele>21.0</ele><time>2026-03-26T17:35:30.999Z</time></trkpt><trkpt lat="40.97485214932421" lon="14.323926908510769"><ele>21.0</ele><time>2026-03-26T17:35:31.999Z</time></trkpt><trkpt lat="40.974725730641836" lon="14.323859175290428"><ele>21.0</ele><time>2026-03-26T17:35:32.999Z</time></trkpt><trkpt lat="40.974592568052245" lon="14.323811440411971"><ele>21.0</ele><time>2026-03-26T17:35:33.999Z</time></trkpt><trkpt lat="40.97445539959648" lon="14.323784190711566"><ele>21.0</ele><time>2026-03-26T17:35:34.999Z</time></trkpt><trkpt lat="40.97431447238142" lon="14.323773152333562"><ele>21.0</ele><time>2026-03-26T17:35:35.999Z</time></trkpt><trkpt lat="40.97416763102084" lon="14.32377487486045"><ele>21.0</ele><time>2026-03-26T17:35:36.999Z</time></trkpt><trkpt lat="40.97401773809522" lon="14.323783001357716"><ele>21.0</ele><time>2026-03-26T17:35:37.999Z</time></trkpt><trkpt lat="40.973867058534076" lon="14.32377913342098"><ele>21.0</ele><time>2026-03-26T17:35:38.999Z</time></trkpt><trkpt lat="40.973722578678235" lon="14.323778396318241"><ele>21.0</ele><time>2026-03-26T17:35:39.999Z</time></trkpt><trkpt lat="40.973583479086216" lon="14.323777157406052"><ele>21.0</ele><time>2026-03-26T17:35:40.999Z</time></trkpt><trkpt lat="40.973448183073224" lon="14.323778138316698"><ele>21.0</ele><time>2026-03-26T17:35:41.999Z</time></trkpt><trkpt lat="40.97331656093297" lon="14.323778253505848"><ele>21.0</ele><time>2026-03-26T17:35:42.999Z</time></trkpt><trkpt lat="40.97317815862734" lon="14.32378365327801"><ele>21.0</ele><time>2026-03-26T17:35:43.999Z</time></trkpt><trkpt lat="40.97303569009612" lon="14.323791858548725"><ele>20.75</ele><time>2026-03-26T17:35:44.999Z</time></trkpt><trkpt lat="40.97289136393161" lon="14.323791885550126"><ele>20.5</ele><time>2026-03-26T17:35:45.999Z</time></trkpt><trkpt lat="40.97274135655361" lon="14.32378698965021"><ele>20.25</ele><time>2026-03-26T17:35:46.999Z</time></trkpt><trkpt lat="40.972601899650414" lon="14.323771652931704"><ele>20.0</ele><time>2026-03-26T17:35:47.999Z</time></trkpt><trkpt lat="40.97247131582823" lon="14.323732236642602"><ele>20.0</ele><time>2026-03-26T17:35:48.999Z</time></trkpt><trkpt lat="40.97235525143807" lon="14.323666297675183"><ele>20.0</ele><time>2026-03-26T17:35:49.999Z</time></trkpt><trkpt lat="40.97225468034153" lon="14.323570297891944"><ele>20.0</ele><time>2026-03-26T17:35:50.999Z</time></trkpt><trkpt lat="40.97216859502683" lon="14.323448695204878"><ele>20.0</ele><time>2026-03-26T17:35:51.999Z</time></trkpt><trkpt lat="40.972097518276655" lon="14.323299466402311"><ele>20.0</ele><time>2026-03-26T17:35:52.999Z</time></trkpt><trkpt lat="40.97205035665165" lon="14.323128244538392"><ele>20.0</ele><time>2026-03-26T17:35:53.999Z</time></trkpt><trkpt lat="40.972030889435" lon="14.32294533619174"><ele>20.0</ele><time>2026-03-26T17:35:54.999Z</time></trkpt><trkpt lat="40.972042684417346" lon="14.322761182721768"><ele>20.0</ele><time>2026-03-26T17:35:55.999Z</time></trkpt><trkpt lat="40.97208706312474" lon="14.322588966804771"><ele>20.5</ele><time>2026-03-26T17:35:56.999Z</time></trkpt><trkpt lat="40.972153157697534" lon="14.322419860452454"><ele>21.0</ele><time>2026-03-26T17:35:57.999Z</time></trkpt><trkpt lat="40.972241996022646" lon="14.322283414815136"><ele>21.5</ele><time>2026-03-26T17:35:58.999Z</time></trkpt><trkpt lat="40.97234664623933" lon="14.322182258784808"><ele>22.0</ele><time>2026-03-26T17:35:59.999Z</time></trkpt><trkpt lat="40.97246336353084" lon="14.322116594602802"><ele>21.75</ele><time>2026-03-26T17:36:00.999Z</time></trkpt><trkpt lat="40.972595858904945" lon="14.322075635719216"><ele>21.5</ele><time>2026-03-26T17:36:01.999Z</time></trkpt><trkpt lat="40.97271832169712" lon="14.32207344856561"><ele>21.25</ele><time>2026-03-26T17:36:02.999Z</time></trkpt><trkpt lat="40.97284702358308" lon="14.322103414564479"><ele>21.0</ele><time>2026-03-26T17:36:03.999Z</time></trkpt><trkpt lat="40.97297117715592" lon="14.322168180534156"><ele>21.5</ele><time>2026-03-26T17:36:04.999Z</time></trkpt><trkpt lat="40.97307415481108" lon="14.32226161743127"><ele>22.0</ele><time>2026-03-26T17:36:05.999Z</time></trkpt><trkpt lat="40.97317566976294" lon="14.322367111938522"><ele>22.5</ele><time>2026-03-26T17:36:06.999Z</time></trkpt><trkpt lat="40.97324312209474" lon="14.322527453259294"><ele>23.0</ele><time>2026-03-26T17:36:07.999Z</time></trkpt><trkpt lat="40.973309962673696" lon="14.322671560786882"><ele>23.0</ele><time>2026-03-26T17:36:08.999Z</time></trkpt><trkpt lat="40.973353898580676" lon="14.322837177879936"><ele>23.0</ele><time>2026-03-26T17:36:09.999Z</time></trkpt><trkpt lat="40.97338464511317" lon="14.323015817631259"><ele>23.0</ele><time>2026-03-26T17:36:10.999Z</time></trkpt><trkpt lat="40.97339302615863" lon="14.323189202169548"><ele>23.0</ele><time>2026-03-26T17:36:11.999Z</time></trkpt><trkpt lat="40.9733950743946" lon="14.323363702593605"><ele>22.5</ele><time>2026-03-26T17:36:12.999Z</time></trkpt><trkpt lat="40.97339787304716" lon="14.323545924547554"><ele>22.0</ele><time>2026-03-26T17:36:13.999Z</time></trkpt><trkpt lat="40.97340533746444" lon="14.323734332343468"><ele>21.5</ele><time>2026-03-26T17:36:14.999Z</time></trkpt><trkpt lat="40.9734147045828" lon="14.323932586998486"><ele>21.0</ele><time>2026-03-26T17:36:15.999Z</time></trkpt><trkpt lat="40.97342335907128" lon="14.324139136299145"><ele>21.0</ele><time>2026-03-26T17:36:16.999Z</time></trkpt><trkpt lat="40.97342906284895" lon="14.32434718538429"><ele>21.0</ele><time>2026-03-26T17:36:17.999Z</time></trkpt><trkpt lat="40.973431634036814" lon="14.32454998843751"><ele>21.0</ele><time>2026-03-26T17:36:18.999Z</time></trkpt><trkpt lat="40.97343330813939" lon="14.324740997000225"><ele>21.0</ele><time>2026-03-26T17:36:19.999Z</time></trkpt><trkpt lat="40.97343556585291" lon="14.324938979240224"><ele>21.0</ele><time>2026-03-26T17:36:20.999Z</time></trkpt><trkpt lat="40.97343747819827" lon="14.32514315772626"><ele>21.0</ele><time>2026-03-26T17:36:21.999Z</time></trkpt><trkpt lat="40.973440430313005" lon="14.325352781690148"><ele>21.0</ele><time>2026-03-26T17:36:22.999Z</time></trkpt><trkpt lat="40.97344965601492" lon="14.325574133730761"><ele>21.0</ele><time>2026-03-26T17:36:23.999Z</time></trkpt><trkpt lat="40.9734613807351" lon="14.32581079023266"><ele>21.0</ele><time>2026-03-26T17:36:24.999Z</time></trkpt><trkpt lat="40.97346720192941" lon="14.326056561663918"><ele>21.0</ele><time>2026-03-26T17:36:25.999Z</time></trkpt><trkpt lat="40.97347077868719" lon="14.32630966969565"><ele>21.0</ele><time>2026-03-26T17:36:26.999Z</time></trkpt><trkpt lat="40.973474584555355" lon="14.326571989304625"><ele>21.0</ele><time>2026-03-26T17:36:27.999Z</time></trkpt><trkpt lat="40.97347401439039" lon="14.326840885822541"><ele>21.0</ele><time>2026-03-26T17:36:28.999Z</time></trkpt><trkpt lat="40.973474355418745" lon="14.327117915985"><ele>21.0</ele><time>2026-03-26T17:36:29.999Z</time></trkpt><trkpt lat="40.97347474755577" lon="14.327401893953985"><ele>21.0</ele><time>2026-03-26T17:36:30.999Z</time></trkpt><trkpt lat="40.97347644700592" lon="14.327695693097642"><ele>21.0</ele><time>2026-03-26T17:36:31.999Z</time></trkpt><trkpt lat="40.973478379282284" lon="14.327993327275355"><ele>21.0</ele><time>2026-03-26T17:36:32.999Z</time></trkpt><trkpt lat="40.97348060593382" lon="14.328292137651818"><ele>21.0</ele><time>2026-03-26T17:36:33.999Z</time></trkpt><trkpt lat="40.97348221458887" lon="14.328591123849467"><ele>21.0</ele><time>2026-03-26T17:36:34.999Z</time></trkpt><trkpt lat="40.973483686635994" lon="14.328892236169917"><ele>22.0</ele><time>2026-03-26T17:36:35.999Z</time></trkpt><trkpt lat="40.973483871376544" lon="14.329194312090372"><ele>23.0</ele><time>2026-03-26T17:36:36.999Z</time></trkpt><trkpt lat="40.97348514574384" lon="14.329492438235869"><ele>22.5</ele><time>2026-03-26T17:36:37.999Z</time></trkpt><trkpt lat="40.97348631627379" lon="14.329792549738102"><ele>22.0</ele><time>2026-03-26T17:36:38.999Z</time></trkpt><trkpt lat="40.97348720030537" lon="14.330094191795318"><ele>22.0</ele><time>2026-03-26T17:36:39.999Z</time></trkpt><trkpt lat="40.97348735878761" lon="14.330396108373906"><ele>22.0</ele><time>2026-03-26T17:36:40.999Z</time></trkpt><trkpt lat="40.97348927426569" lon="14.33069924084034"><ele>21.5</ele><time>2026-03-26T17:36:41.999Z</time></trkpt><trkpt lat="40.97349173334743" lon="14.331004320144421"><ele>21.0</ele><time>2026-03-26T17:36:42.999Z</time></trkpt><trkpt lat="40.97349388317947" lon="14.331308190147867"><ele>21.0</ele><time>2026-03-26T17:36:43.999Z</time></trkpt><trkpt lat="40.97349489533394" lon="14.331612887969976"><ele>21.0</ele><time>2026-03-26T17:36:44.999Z</time></trkpt><trkpt lat="40.973495385982204" lon="14.331916024130145"><ele>21.0</ele><time>2026-03-26T17:36:45.999Z</time></trkpt><trkpt lat="40.97349720694513" lon="14.332224934050906"><ele>21.0</ele><time>2026-03-26T17:36:46.999Z</time></trkpt><trkpt lat="40.973500028421526" lon="14.332534641020787"><ele>21.0</ele><time>2026-03-26T17:36:47.999Z</time></trkpt><trkpt lat="40.973502742581424" lon="14.33284288835833"><ele>21.0</ele><time>2026-03-26T17:36:48.999Z</time></trkpt><trkpt lat="40.97350368507813" lon="14.333153222727637"><ele>21.0</ele><time>2026-03-26T17:36:49.999Z</time></trkpt><trkpt lat="40.973504136164614" lon="14.333462350042684"><ele>21.0</ele><time>2026-03-26T17:36:50.999Z</time></trkpt><trkpt lat="40.973505745436675" lon="14.333771035311468"><ele>20.5</ele><time>2026-03-26T17:36:51.999Z</time></trkpt><trkpt lat="40.97350398141601" lon="14.334081926665167"><ele>20.0</ele><time>2026-03-26T17:36:52.999Z</time></trkpt><trkpt lat="40.9735008597333" lon="14.334394153018389"><ele>20.0</ele><time>2026-03-26T17:36:53.999Z</time></trkpt><trkpt lat="40.973496279659315" lon="14.334707680037795"><ele>20.0</ele><time>2026-03-26T17:36:54.999Z</time></trkpt><trkpt lat="40.973492897982524" lon="14.335022207863043"><ele>20.0</ele><time>2026-03-26T17:36:55.999Z</time></trkpt><trkpt lat="40.9734914569405" lon="14.33533703437655"><ele>20.0</ele><time>2026-03-26T17:36:56.999Z</time></trkpt><trkpt lat="40.973490211039326" lon="14.335653505041778"><ele>20.5</ele><time>2026-03-26T17:36:57.999Z</time></trkpt><trkpt lat="40.97348846450415" lon="14.335972433434405"><ele>21.0</ele><time>2026-03-26T17:36:58.999Z</time></trkpt><trkpt lat="40.97349108086587" lon="14.33628694839575"><ele>21.0</ele><time>2026-03-26T17:36:59.999Z</time></trkpt><trkpt lat="40.973493316845946" lon="14.33660007557324"><ele>21.0</ele><time>2026-03-26T17:37:00.999Z</time></trkpt><trkpt lat="40.97349794314526" lon="14.33691491154899"><ele>21.0</ele><time>2026-03-26T17:37:01.999Z</time></trkpt><trkpt lat="40.973505420741354" lon="14.337229659526528"><ele>21.0</ele><time>2026-03-26T17:37:02.999Z</time></trkpt><trkpt lat="40.97351346600452" lon="14.337544718473357"><ele>21.0</ele><time>2026-03-26T17:37:03.999Z</time></trkpt><trkpt lat="40.973515919120594" lon="14.337860256310766"><ele>21.0</ele><time>2026-03-26T17:37:04.999Z</time></trkpt><trkpt lat="40.97351737501782" lon="14.338179508860772"><ele>21.0</ele><time>2026-03-26T17:37:05.999Z</time></trkpt><trkpt lat="40.97352094962013" lon="14.338504089430728"><ele>21.0</ele><time>2026-03-26T17:37:06.999Z</time></trkpt><trkpt lat="40.973520857812154" lon="14.338828945726476"><ele>20.5</ele><time>2026-03-26T17:37:07.999Z</time></trkpt><trkpt lat="40.973518416690155" lon="14.33915402784927"><ele>20.0</ele><time>2026-03-26T17:37:08.999Z</time></trkpt><trkpt lat="40.97351336436158" lon="14.339482371083665"><ele>20.0</ele><time>2026-03-26T17:37:09.999Z</time></trkpt><trkpt lat="40.973504184360905" lon="14.339812142586126"><ele>20.0</ele><time>2026-03-26T17:37:10.999Z</time></trkpt><trkpt lat="40.973493481018316" lon="14.340142401994623"><ele>20.0</ele><time>2026-03-26T17:37:11.999Z</time></trkpt><trkpt lat="40.973480690793316" lon="14.34047590660333"><ele>20.0</ele><time>2026-03-26T17:37:12.999Z</time></trkpt><trkpt lat="40.97346691872474" lon="14.340809802163635"><ele>20.0</ele><time>2026-03-26T17:37:13.999Z</time></trkpt><trkpt lat="40.97345155964884" lon="14.341145058528355"><ele>20.0</ele><time>2026-03-26T17:37:14.999Z</time></trkpt><trkpt lat="40.97343456398458" lon="14.34147964228182"><ele>20.5</ele><time>2026-03-26T17:37:15.999Z</time></trkpt><trkpt lat="40.973415967755294" lon="14.341815898296046"><ele>21.0</ele><time>2026-03-26T17:37:16.999Z</time></trkpt><trkpt lat="40.973396761042075" lon="14.342151329817712"><ele>20.5</ele><time>2026-03-26T17:37:17.999Z</time></trkpt><trkpt lat="40.97337451022618" lon="14.342488739719514"><ele>20.0</ele><time>2026-03-26T17:37:18.999Z</time></trkpt><trkpt lat="40.97335152798534" lon="14.342828036966496"><ele>20.5</ele><time>2026-03-26T17:37:19.999Z</time></trkpt><trkpt lat="40.97332654327563" lon="14.343166798957656"><ele>21.0</ele><time>2026-03-26T17:37:20.999Z</time></trkpt><trkpt lat="40.97330109756061" lon="14.343505068237214"><ele>21.0</ele><time>2026-03-26T17:37:21.999Z</time></trkpt><trkpt lat="40.97327168439347" lon="14.343846330605688"><ele>21.0</ele><time>2026-03-26T17:37:22.999Z</time></trkpt><trkpt lat="40.97324008703377" lon="14.344182433808434"><ele>20.5</ele><time>2026-03-26T17:37:23.999Z</time></trkpt><trkpt lat="40.97320979868795" lon="14.344521415310723"><ele>20.0</ele><time>2026-03-26T17:37:24.999Z</time></trkpt><trkpt lat="40.97317393408248" lon="14.344859936100965"><ele>19.0</ele><time>2026-03-26T17:37:25.999Z</time></trkpt><trkpt lat="40.97313356894944" lon="14.345198667269662"><ele>18.0</ele><time>2026-03-26T17:37:26.999Z</time></trkpt><trkpt lat="40.97309094080964" lon="14.345536709770512"><ele>19.5</ele><time>2026-03-26T17:37:27.999Z</time></trkpt><trkpt lat="40.97304471014495" lon="14.345876233794097"><ele>21.0</ele><time>2026-03-26T17:37:28.999Z</time></trkpt><trkpt lat="40.972995260879536" lon="14.34621206396386"><ele>21.0</ele><time>2026-03-26T17:37:29.999Z</time></trkpt><trkpt lat="40.97294497561211" lon="14.346549309235947"><ele>21.0</ele><time>2026-03-26T17:37:30.999Z</time></trkpt><trkpt lat="40.972894098758395" lon="14.346884983602978"><ele>21.0</ele><time>2026-03-26T17:37:31.999Z</time></trkpt><trkpt lat="40.972836903703126" lon="14.347219936913898"><ele>21.0</ele><time>2026-03-26T17:37:32.999Z</time></trkpt><trkpt lat="40.97278335342986" lon="14.347554426658748"><ele>21.0</ele><time>2026-03-26T17:37:33.999Z</time></trkpt><trkpt lat="40.97272836948822" lon="14.347889984052474"><ele>21.0</ele><time>2026-03-26T17:37:34.999Z</time></trkpt><trkpt lat="40.9726736210017" lon="14.34822801904305"><ele>20.5</ele><time>2026-03-26T17:37:35.999Z</time></trkpt><trkpt lat="40.97261811795347" lon="14.34856427449915"><ele>20.0</ele><time>2026-03-26T17:37:36.999Z</time></trkpt><trkpt lat="40.97256102622188" lon="14.348900252418328"><ele>20.0</ele><time>2026-03-26T17:37:37.999Z</time></trkpt><trkpt lat="40.97250291746013" lon="14.349237089273453"><ele>20.0</ele><time>2026-03-26T17:37:38.999Z</time></trkpt><trkpt lat="40.972441508332224" lon="14.349574517610325"><ele>20.5</ele><time>2026-03-26T17:37:39.999Z</time></trkpt><trkpt lat="40.97237739106053" lon="14.34991391719969"><ele>21.0</ele><time>2026-03-26T17:37:40.999Z</time></trkpt><trkpt lat="40.972309394622634" lon="14.350253924593302"><ele>21.0</ele><time>2026-03-26T17:37:41.999Z</time></trkpt><trkpt lat="40.972237320741925" lon="14.350595032712224"><ele>21.0</ele><time>2026-03-26T17:37:42.999Z</time></trkpt><trkpt lat="40.97216473372712" lon="14.350936456751997"><ele>21.0</ele><time>2026-03-26T17:37:43.999Z</time></trkpt><trkpt lat="40.97209272367741" lon="14.351275759986004"><ele>21.0</ele><time>2026-03-26T17:37:44.999Z</time></trkpt><trkpt lat="40.972018808530756" lon="14.351614695588925"><ele>21.0</ele><time>2026-03-26T17:37:45.999Z</time></trkpt><trkpt lat="40.97194236827196" lon="14.351953325492316"><ele>21.0</ele><time>2026-03-26T17:37:46.999Z</time></trkpt><trkpt lat="40.97186355201944" lon="14.35228944445539"><ele>21.0</ele><time>2026-03-26T17:37:47.999Z</time></trkpt><trkpt lat="40.971781260097345" lon="14.352626528208367"><ele>21.0</ele><time>2026-03-26T17:37:48.999Z</time></trkpt><trkpt lat="40.971700156889234" lon="14.352959525722"><ele>20.5</ele><time>2026-03-26T17:37:49.999Z</time></trkpt><trkpt lat="40.97161797386565" lon="14.35329031157459"><ele>20.0</ele><time>2026-03-26T17:37:50.999Z</time></trkpt><trkpt lat="40.97153232960469" lon="14.35362126662054"><ele>20.5</ele><time>2026-03-26T17:37:51.999Z</time></trkpt><trkpt lat="40.9714459586868" lon="14.353952110421865"><ele>21.0</ele><time>2026-03-26T17:37:52.999Z</time></trkpt><trkpt lat="40.97135811229831" lon="14.35428408487967"><ele>21.0</ele><time>2026-03-26T17:37:53.999Z</time></trkpt><trkpt lat="40.971267676504" lon="14.354612995182515"><ele>21.0</ele><time>2026-03-26T17:37:54.999Z</time></trkpt><trkpt lat="40.97117595870943" lon="14.354940049065796"><ele>21.0</ele><time>2026-03-26T17:37:55.999Z</time></trkpt><trkpt lat="40.9710838712707" lon="14.35526605912446"><ele>21.0</ele><time>2026-03-26T17:37:56.999Z</time></trkpt><trkpt lat="40.97099130274627" lon="14.355590213271238"><ele>21.0</ele><time>2026-03-26T17:37:57.999Z</time></trkpt><trkpt lat="40.97090029370876" lon="14.355914466824649"><ele>21.0</ele><time>2026-03-26T17:37:58.999Z</time></trkpt><trkpt lat="40.97081112323732" lon="14.356238766616828"><ele>20.5</ele><time>2026-03-26T17:37:59.999Z</time></trkpt><trkpt lat="40.97072025155878" lon="14.35656197620182"><ele>20.0</ele><time>2026-03-26T17:38:00.999Z</time></trkpt><trkpt lat="40.97062680664112" lon="14.35688370390501"><ele>20.0</ele><time>2026-03-26T17:38:01.999Z</time></trkpt><trkpt lat="40.970533758661674" lon="14.357202736743814"><ele>20.0</ele><time>2026-03-26T17:38:02.999Z</time></trkpt><trkpt lat="40.97043837081821" lon="14.35751756843123"><ele>20.0</ele><time>2026-03-26T17:38:03.999Z</time></trkpt><trkpt lat="40.97034126770329" lon="14.357833110862341"><ele>20.0</ele><time>2026-03-26T17:38:04.999Z</time></trkpt><trkpt lat="40.97024334724096" lon="14.358147668747048"><ele>20.0</ele><time>2026-03-26T17:38:05.999Z</time></trkpt><trkpt lat="40.97014653628477" lon="14.358462409922053"><ele>20.0</ele><time>2026-03-26T17:38:06.999Z</time></trkpt><trkpt lat="40.97005112351414" lon="14.358775135601709"><ele>20.0</ele><time>2026-03-26T17:38:07.999Z</time></trkpt><trkpt lat="40.96995321171044" lon="14.359085093931501"><ele>20.0</ele><time>2026-03-26T17:38:08.999Z</time></trkpt><trkpt lat="40.96985478427952" lon="14.359391280690168"><ele>20.0</ele><time>2026-03-26T17:38:09.999Z</time></trkpt><trkpt lat="40.969755511505944" lon="14.359695857422516"><ele>20.0</ele><time>2026-03-26T17:38:10.999Z</time></trkpt><trkpt lat="40.96965632985612" lon="14.360000210161989"><ele>20.0</ele><time>2026-03-26T17:38:11.999Z</time></trkpt><trkpt lat="40.96955597153691" lon="14.360302055963112"><ele>20.0</ele><time>2026-03-26T17:38:12.999Z</time></trkpt><trkpt lat="40.969453040212194" lon="14.360602088861265"><ele>20.0</ele><time>2026-03-26T17:38:13.999Z</time></trkpt><trkpt lat="40.96934660747322" lon="14.360896228616888"><ele>20.0</ele><time>2026-03-26T17:38:14.999Z</time></trkpt><trkpt lat="40.96923992384277" lon="14.361189656495771"><ele>20.0</ele><time>2026-03-26T17:38:15.999Z</time></trkpt><trkpt lat="40.96913511910328" lon="14.361486346941515"><ele>20.0</ele><time>2026-03-26T17:38:16.999Z</time></trkpt><trkpt lat="40.96903203969558" lon="14.361786661282354"><ele>20.0</ele><time>2026-03-26T17:38:17.999Z</time></trkpt><trkpt lat="40.96892698249963" lon="14.36208929356792"><ele>20.0</ele><time>2026-03-26T17:38:18.999Z</time></trkpt><trkpt lat="40.96882102157418" lon="14.362393107137029"><ele>21.0</ele><time>2026-03-26T17:38:19.999Z</time></trkpt><trkpt lat="40.96871394983702" lon="14.362699630895843"><ele>22.0</ele><time>2026-03-26T17:38:20.999Z</time></trkpt><trkpt lat="40.96860732199831" lon="14.363006390584799"><ele>22.5</ele><time>2026-03-26T17:38:21.999Z</time></trkpt><trkpt lat="40.96850103688081" lon="14.363312897351413"><ele>23.0</ele><time>2026-03-26T17:38:22.999Z</time></trkpt><trkpt lat="40.968394454721164" lon="14.363620079191405"><ele>23.5</ele><time>2026-03-26T17:38:23.999Z</time></trkpt><trkpt lat="40.968286858846525" lon="14.363927526435793"><ele>24.0</ele><time>2026-03-26T17:38:24.999Z</time></trkpt><trkpt lat="40.968177736910654" lon="14.364237351821734"><ele>24.0</ele><time>2026-03-26T17:38:25.999Z</time></trkpt><trkpt lat="40.96806442886149" lon="14.36453783083564"><ele>24.0</ele><time>2026-03-26T17:38:26.999Z</time></trkpt><trkpt lat="40.9679533212525" lon="14.364841344493634"><ele>22.0</ele><time>2026-03-26T17:38:27.999Z</time></trkpt><trkpt lat="40.967841481574034" lon="14.365142095254729"><ele>20.0</ele><time>2026-03-26T17:38:28.999Z</time></trkpt><trkpt lat="40.967729233201624" lon="14.365440904098778"><ele>20.5</ele><time>2026-03-26T17:38:29.999Z</time></trkpt><trkpt lat="40.9676205566111" lon="14.365736258350532"><ele>21.0</ele><time>2026-03-26T17:38:30.999Z</time></trkpt><trkpt lat="40.967513065479984" lon="14.366029237331508"><ele>22.0</ele><time>2026-03-26T17:38:31.999Z</time></trkpt><trkpt lat="40.967405890838656" lon="14.366319933282329"><ele>23.0</ele><time>2026-03-26T17:38:32.999Z</time></trkpt><trkpt lat="40.96730116529348" lon="14.366597390576741"><ele>23.5</ele><time>2026-03-26T17:38:33.999Z</time></trkpt><trkpt lat="40.96719770787783" lon="14.366875288492162"><ele>24.0</ele><time>2026-03-26T17:38:34.999Z</time></trkpt><trkpt lat="40.967094232944085" lon="14.367149844884555"><ele>23.5</ele><time>2026-03-26T17:38:35.999Z</time></trkpt><trkpt lat="40.966999591358686" lon="14.367425588117058"><ele>23.0</ele><time>2026-03-26T17:38:36.999Z</time></trkpt><trkpt lat="40.966907022824365" lon="14.367705200808102"><ele>23.0</ele><time>2026-03-26T17:38:37.999Z</time></trkpt><trkpt lat="40.96680649431367" lon="14.367984745862362"><ele>23.0</ele><time>2026-03-26T17:38:38.999Z</time></trkpt><trkpt lat="40.966702797446715" lon="14.368267996555304"><ele>23.5</ele><time>2026-03-26T17:38:39.999Z</time></trkpt><trkpt lat="40.96659286441306" lon="14.368548158229958"><ele>24.0</ele><time>2026-03-26T17:38:40.999Z</time></trkpt><trkpt lat="40.966483722664" lon="14.368825819576273"><ele>23.666666666666668</ele><time>2026-03-26T17:38:41.999Z</time></trkpt><trkpt lat="40.96637843211718" lon="14.369089253229706"><ele>23.333333333333336</ele><time>2026-03-26T17:38:42.999Z</time></trkpt><trkpt lat="40.96627652566619" lon="14.369342480298508"><ele>23.0</ele><time>2026-03-26T17:38:43.999Z</time></trkpt><trkpt lat="40.966176970317605" lon="14.369591317476287"><ele>23.333333333333336</ele><time>2026-03-26T17:38:44.999Z</time></trkpt><trkpt lat="40.96608379807219" lon="14.369828687614854"><ele>23.666666666666668</ele><time>2026-03-26T17:38:45.999Z</time></trkpt><trkpt lat="40.965990579117765" lon="14.370071211210018"><ele>24.0</ele><time>2026-03-26T17:38:46.999Z</time></trkpt><trkpt lat="40.96589053069273" lon="14.370314397188007"><ele>25.333333333333336</ele><time>2026-03-26T17:38:47.999Z</time></trkpt><trkpt lat="40.965791282846425" lon="14.370563278677546"><ele>26.666666666666668</ele><time>2026-03-26T17:38:48.999Z</time></trkpt><trkpt lat="40.96568767799838" lon="14.37081661775365"><ele>28.0</ele><time>2026-03-26T17:38:49.999Z</time></trkpt><trkpt lat="40.96558653341072" lon="14.371076479540363"><ele>28.0</ele><time>2026-03-26T17:38:50.999Z</time></trkpt><trkpt lat="40.965484512128526" lon="14.37134416086958"><ele>28.0</ele><time>2026-03-26T17:38:51.999Z</time></trkpt><trkpt lat="40.96537982679529" lon="14.37161713358344"><ele>26.5</ele><time>2026-03-26T17:38:52.999Z</time></trkpt><trkpt lat="40.96527188061951" lon="14.371894094722457"><ele>25.0</ele><time>2026-03-26T17:38:53.999Z</time></trkpt><trkpt lat="40.965161259568774" lon="14.372177832952522"><ele>25.5</ele><time>2026-03-26T17:38:54.999Z</time></trkpt><trkpt lat="40.9650490491239" lon="14.372468854910972"><ele>26.0</ele><time>2026-03-26T17:38:55.999Z</time></trkpt><trkpt lat="40.964929938249085" lon="14.372761080139869"><ele>26.5</ele><time>2026-03-26T17:38:56.999Z</time></trkpt><trkpt lat="40.964804207272614" lon="14.373050979142024"><ele>27.0</ele><time>2026-03-26T17:38:57.999Z</time></trkpt><trkpt lat="40.964677155375384" lon="14.373342697636648"><ele>27.0</ele><time>2026-03-26T17:38:58.999Z</time></trkpt><trkpt lat="40.96455312017326" lon="14.373644674878761"><ele>27.0</ele><time>2026-03-26T17:38:59.999Z</time></trkpt><trkpt lat="40.964430969488326" lon="14.373951729859165"><ele>27.0</ele><time>2026-03-26T17:39:00.999Z</time></trkpt><trkpt lat="40.96431141708165" lon="14.374259648466976"><ele>27.0</ele><time>2026-03-26T17:39:01.999Z</time></trkpt><trkpt lat="40.96419256893076" lon="14.374571270127516"><ele>27.5</ele><time>2026-03-26T17:39:02.999Z</time></trkpt><trkpt lat="40.96407404228713" lon="14.374876429359752"><ele>28.0</ele><time>2026-03-26T17:39:03.999Z</time></trkpt><trkpt lat="40.96395569909931" lon="14.375180245346709"><ele>28.0</ele><time>2026-03-26T17:39:04.999Z</time></trkpt><trkpt lat="40.96383817156044" lon="14.37548297402249"><ele>28.0</ele><time>2026-03-26T17:39:05.999Z</time></trkpt><trkpt lat="40.96372003687302" lon="14.375783195867736"><ele>28.0</ele><time>2026-03-26T17:39:06.999Z</time></trkpt><trkpt lat="40.96360131831318" lon="14.37608460730274"><ele>28.0</ele><time>2026-03-26T17:39:07.999Z</time></trkpt><trkpt lat="40.96348236957981" lon="14.376385437981547"><ele>29.0</ele><time>2026-03-26T17:39:08.999Z</time></trkpt><trkpt lat="40.963363664478436" lon="14.37668676745514"><ele>30.0</ele><time>2026-03-26T17:39:09.999Z</time></trkpt><trkpt lat="40.9632428924823" lon="14.37699354513589"><ele>29.0</ele><time>2026-03-26T17:39:10.999Z</time></trkpt><trkpt lat="40.96312208062821" lon="14.377305232812686"><ele>28.0</ele><time>2026-03-26T17:39:11.999Z</time></trkpt><trkpt lat="40.962999323884304" lon="14.377622290371132"><ele>28.0</ele><time>2026-03-26T17:39:12.999Z</time></trkpt><trkpt lat="40.962875927788616" lon="14.377941012861092"><ele>28.0</ele><time>2026-03-26T17:39:13.999Z</time></trkpt><trkpt lat="40.962751333550514" lon="14.378263587602635"><ele>28.0</ele><time>2026-03-26T17:39:14.999Z</time></trkpt><trkpt lat="40.96262544314356" lon="14.378584139692256"><ele>28.0</ele><time>2026-03-26T17:39:15.999Z</time></trkpt><trkpt lat="40.96249731543866" lon="14.378909371500473"><ele>29.0</ele><time>2026-03-26T17:39:16.999Z</time></trkpt><trkpt lat="40.96236813161213" lon="14.379240412523409"><ele>30.0</ele><time>2026-03-26T17:39:17.999Z</time></trkpt><trkpt lat="40.96223778789541" lon="14.379577110449599"><ele>29.0</ele><time>2026-03-26T17:39:18.999Z</time></trkpt><trkpt lat="40.962105993455566" lon="14.37990831719741"><ele>28.0</ele><time>2026-03-26T17:39:19.999Z</time></trkpt><trkpt lat="40.96197795526289" lon="14.380238097039708"><ele>27.0</ele><time>2026-03-26T17:39:20.999Z</time></trkpt><trkpt lat="40.961853445640514" lon="14.380567177086801"><ele>26.0</ele><time>2026-03-26T17:39:21.999Z</time></trkpt><trkpt lat="40.96173094850759" lon="14.380897961037979"><ele>27.5</ele><time>2026-03-26T17:39:22.999Z</time></trkpt><trkpt lat="40.96160821715907" lon="14.381224008963523"><ele>29.0</ele><time>2026-03-26T17:39:23.999Z</time></trkpt><trkpt lat="40.96148645072752" lon="14.381548885729895"><ele>29.0</ele><time>2026-03-26T17:39:24.999Z</time></trkpt><trkpt lat="40.96136785951655" lon="14.381872165622983"><ele>29.0</ele><time>2026-03-26T17:39:25.999Z</time></trkpt><trkpt lat="40.961247952672856" lon="14.382192502962978"><ele>28.5</ele><time>2026-03-26T17:39:26.999Z</time></trkpt><trkpt lat="40.961128683803715" lon="14.382511391222966"><ele>28.0</ele><time>2026-03-26T17:39:27.999Z</time></trkpt><trkpt lat="40.96100832275211" lon="14.382831117090324"><ele>27.5</ele><time>2026-03-26T17:39:28.999Z</time></trkpt><trkpt lat="40.960887574197855" lon="14.383152195565676"><ele>27.0</ele><time>2026-03-26T17:39:29.999Z</time></trkpt><trkpt lat="40.960767440105265" lon="14.383475554786262"><ele>28.0</ele><time>2026-03-26T17:39:30.999Z</time></trkpt><trkpt lat="40.960648106490694" lon="14.38379855423265"><ele>29.0</ele><time>2026-03-26T17:39:31.999Z</time></trkpt><trkpt lat="40.96052820497908" lon="14.384123393827773"><ele>29.0</ele><time>2026-03-26T17:39:32.999Z</time></trkpt><trkpt lat="40.96040798824047" lon="14.384447374148587"><ele>29.0</ele><time>2026-03-26T17:39:33.999Z</time></trkpt><trkpt lat="40.9602871280933" lon="14.38477571142246"><ele>29.0</ele><time>2026-03-26T17:39:34.999Z</time></trkpt><trkpt lat="40.96016599077205" lon="14.385110435661062"><ele>29.0</ele><time>2026-03-26T17:39:35.999Z</time></trkpt><trkpt lat="40.96004419215861" lon="14.385452192339203"><ele>29.0</ele><time>2026-03-26T17:39:36.999Z</time></trkpt><trkpt lat="40.959923076112716" lon="14.385799362744134"><ele>29.0</ele><time>2026-03-26T17:39:37.999Z</time></trkpt><trkpt lat="40.959801645248504" lon="14.386148549818904"><ele>29.0</ele><time>2026-03-26T17:39:38.999Z</time></trkpt><trkpt lat="40.95968046081125" lon="14.386499217124054"><ele>29.0</ele><time>2026-03-26T17:39:39.999Z</time></trkpt><trkpt lat="40.959558137564784" lon="14.386853032883145"><ele>28.5</ele><time>2026-03-26T17:39:40.999Z</time></trkpt><trkpt lat="40.95943629431272" lon="14.387208107289933"><ele>28.0</ele><time>2026-03-26T17:39:41.999Z</time></trkpt><trkpt lat="40.959314761207054" lon="14.387563312636312"><ele>28.0</ele><time>2026-03-26T17:39:42.999Z</time></trkpt><trkpt lat="40.95919456311909" lon="14.387917612463928"><ele>28.0</ele><time>2026-03-26T17:39:43.999Z</time></trkpt><trkpt lat="40.95907747916621" lon="14.388271140923003"><ele>28.5</ele><time>2026-03-26T17:39:44.999Z</time></trkpt><trkpt lat="40.95896179627123" lon="14.388623192836931"><ele>29.0</ele><time>2026-03-26T17:39:45.999Z</time></trkpt><trkpt lat="40.95884657709978" lon="14.388973137916118"><ele>29.0</ele><time>2026-03-26T17:39:46.999Z</time></trkpt><trkpt lat="40.95873369639001" lon="14.389320742154895"><ele>29.0</ele><time>2026-03-26T17:39:47.999Z</time></trkpt><trkpt lat="40.95862208795216" lon="14.389666641962938"><ele>28.0</ele><time>2026-03-26T17:39:48.999Z</time></trkpt><trkpt lat="40.95851383439668" lon="14.390007157617847"><ele>27.0</ele><time>2026-03-26T17:39:49.999Z</time></trkpt><trkpt lat="40.95840799464427" lon="14.390343369536225"><ele>28.5</ele><time>2026-03-26T17:39:50.999Z</time></trkpt><trkpt lat="40.95830341809999" lon="14.390677439386982"><ele>30.0</ele><time>2026-03-26T17:39:51.999Z</time></trkpt><trkpt lat="40.95819933157725" lon="14.39100994336151"><ele>30.0</ele><time>2026-03-26T17:39:52.999Z</time></trkpt><trkpt lat="40.95809704943101" lon="14.391340814480131"><ele>30.0</ele><time>2026-03-26T17:39:53.999Z</time></trkpt><trkpt lat="40.95799820805774" lon="14.391668443848241"><ele>30.0</ele><time>2026-03-26T17:39:54.999Z</time></trkpt><trkpt lat="40.95790513640725" lon="14.39199246278547"><ele>30.0</ele><time>2026-03-26T17:39:55.999Z</time></trkpt><trkpt lat="40.95781539391541" lon="14.392294576419241"><ele>29.5</ele><time>2026-03-26T17:39:56.999Z</time></trkpt><trkpt lat="40.95774237993677" lon="14.39259030005541"><ele>29.0</ele><time>2026-03-26T17:39:57.999Z</time></trkpt><trkpt lat="40.95766976243414" lon="14.392877564700207"><ele>29.0</ele><time>2026-03-26T17:39:58.999Z</time></trkpt><trkpt lat="40.95760421463293" lon="14.393145259132641"><ele>29.0</ele><time>2026-03-26T17:39:59.999Z</time></trkpt><trkpt lat="40.95754176795428" lon="14.393414117970535"><ele>29.0</ele><time>2026-03-26T17:40:00.999Z</time></trkpt><trkpt lat="40.957480450461034" lon="14.393688569991754"><ele>30.0</ele><time>2026-03-26T17:40:01.999Z</time></trkpt><trkpt lat="40.95742450765262" lon="14.393964287320287"><ele>31.0</ele><time>2026-03-26T17:40:02.999Z</time></trkpt><trkpt lat="40.95737428004145" lon="14.394226894416155"><ele>32.0</ele><time>2026-03-26T17:40:03.999Z</time></trkpt><trkpt lat="40.95732023293659" lon="14.394494055073382"><ele>33.0</ele><time>2026-03-26T17:40:04.999Z</time></trkpt><trkpt lat="40.95726553962708" lon="14.394769904441066"><ele>34.0</ele><time>2026-03-26T17:40:05.999Z</time></trkpt><trkpt lat="40.95721485374101" lon="14.395055558374859"><ele>35.0</ele><time>2026-03-26T17:40:06.999Z</time></trkpt><trkpt lat="40.957166461742275" lon="14.395344421424186"><ele>34.5</ele><time>2026-03-26T17:40:07.999Z</time></trkpt><trkpt lat="40.95712068391201" lon="14.395637273126143"><ele>34.0</ele><time>2026-03-26T17:40:08.999Z</time></trkpt><trkpt lat="40.95708000278275" lon="14.395934083563965"><ele>34.0</ele><time>2026-03-26T17:40:09.999Z</time></trkpt><trkpt lat="40.957041046816066" lon="14.396235823843996"><ele>34.0</ele><time>2026-03-26T17:40:10.999Z</time></trkpt><trkpt lat="40.95700286989229" lon="14.396541134710384"><ele>31.5</ele><time>2026-03-26T17:40:11.999Z</time></trkpt><trkpt lat="40.95696706898044" lon="14.396851118228707"><ele>29.0</ele><time>2026-03-26T17:40:12.999Z</time></trkpt><trkpt lat="40.95693562400183" lon="14.397162501492199"><ele>28.0</ele><time>2026-03-26T17:40:13.999Z</time></trkpt><trkpt lat="40.95690479971179" lon="14.397481255535991"><ele>27.0</ele><time>2026-03-26T17:40:14.999Z</time></trkpt><trkpt lat="40.95687595727459" lon="14.39780324008479"><ele>28.0</ele><time>2026-03-26T17:40:15.999Z</time></trkpt><trkpt lat="40.95684737911167" lon="14.398129962750643"><ele>29.0</ele><time>2026-03-26T17:40:16.999Z</time></trkpt><trkpt lat="40.95681571779798" lon="14.39845896018593"><ele>29.0</ele><time>2026-03-26T17:40:17.999Z</time></trkpt><trkpt lat="40.956790019536854" lon="14.398791494486298"><ele>29.0</ele><time>2026-03-26T17:40:18.999Z</time></trkpt><trkpt lat="40.95677060687423" lon="14.39912695488872"><ele>29.0</ele><time>2026-03-26T17:40:19.999Z</time></trkpt><trkpt lat="40.95675558592854" lon="14.399466887455226"><ele>29.0</ele><time>2026-03-26T17:40:20.999Z</time></trkpt><trkpt lat="40.956746200672974" lon="14.399807021434293"><ele>29.0</ele><time>2026-03-26T17:40:21.999Z</time></trkpt><trkpt lat="40.956741926722415" lon="14.400152297285503"><ele>29.0</ele><time>2026-03-26T17:40:22.999Z</time></trkpt><trkpt lat="40.95674243022918" lon="14.40049994509166"><ele>29.0</ele><time>2026-03-26T17:40:23.999Z</time></trkpt><trkpt lat="40.956747242759604" lon="14.40085073088394"><ele>29.0</ele><time>2026-03-26T17:40:24.999Z</time></trkpt><trkpt lat="40.956755229268275" lon="14.40120770423973"><ele>29.0</ele><time>2026-03-26T17:40:25.999Z</time></trkpt><trkpt lat="40.95676608096073" lon="14.401564021526989"><ele>29.0</ele><time>2026-03-26T17:40:26.999Z</time></trkpt><trkpt lat="40.95678368503395" lon="14.401918461916177"><ele>28.0</ele><time>2026-03-26T17:40:27.999Z</time></trkpt><trkpt lat="40.95680644655161" lon="14.402271562058845"><ele>27.0</ele><time>2026-03-26T17:40:28.999Z</time></trkpt><trkpt lat="40.95683352505222" lon="14.402619946105172"><ele>27.0</ele><time>2026-03-26T17:40:29.999Z</time></trkpt><trkpt lat="40.95686293898671" lon="14.402967324366067"><ele>27.0</ele><time>2026-03-26T17:40:30.999Z</time></trkpt><trkpt lat="40.95689568969811" lon="14.403309376663794"><ele>27.0</ele><time>2026-03-26T17:40:31.999Z</time></trkpt><trkpt lat="40.95693251229425" lon="14.40364495978998"><ele>27.0</ele><time>2026-03-26T17:40:32.999Z</time></trkpt><trkpt lat="40.956968460489925" lon="14.403984591114005"><ele>27.5</ele><time>2026-03-26T17:40:33.999Z</time></trkpt><trkpt lat="40.957015477975574" lon="14.404345810627024"><ele>28.0</ele><time>2026-03-26T17:40:34.999Z</time></trkpt><trkpt lat="40.95706298011967" lon="14.404693309241562"><ele>27.0</ele><time>2026-03-26T17:40:35.999Z</time></trkpt><trkpt lat="40.95711447603809" lon="14.405039950699125"><ele>26.0</ele><time>2026-03-26T17:40:36.999Z</time></trkpt><trkpt lat="40.957172493327654" lon="14.40538488264966"><ele>26.0</ele><time>2026-03-26T17:40:37.999Z</time></trkpt><trkpt lat="40.95723794398899" lon="14.405733427313944"><ele>26.0</ele><time>2026-03-26T17:40:38.999Z</time></trkpt><trkpt lat="40.95730850601016" lon="14.406078904954164"><ele>26.0</ele><time>2026-03-26T17:40:39.999Z</time></trkpt><trkpt lat="40.95738457803478" lon="14.4064236043217"><ele>26.0</ele><time>2026-03-26T17:40:40.999Z</time></trkpt><trkpt lat="40.95746242717231" lon="14.406768188101204"><ele>26.0</ele><time>2026-03-26T17:40:41.999Z</time></trkpt><trkpt lat="40.95754111600422" lon="14.407111785518728"><ele>26.0</ele><time>2026-03-26T17:40:42.999Z</time></trkpt><trkpt lat="40.95762305158299" lon="14.407454188724067"><ele>26.0</ele><time>2026-03-26T17:40:43.999Z</time></trkpt><trkpt lat="40.95770495417389" lon="14.407794691798616"><ele>26.0</ele><time>2026-03-26T17:40:44.999Z</time></trkpt><trkpt lat="40.957787219538204" lon="14.408132252701131"><ele>26.0</ele><time>2026-03-26T17:40:45.999Z</time></trkpt><trkpt lat="40.95787065909637" lon="14.408469148801965"><ele>26.0</ele><time>2026-03-26T17:40:46.999Z</time></trkpt><trkpt lat="40.9579550794271" lon="14.408804422597512"><ele>26.5</ele><time>2026-03-26T17:40:47.999Z</time></trkpt><trkpt lat="40.95803786964781" lon="14.409139181276066"><ele>27.0</ele><time>2026-03-26T17:40:48.999Z</time></trkpt><trkpt lat="40.958119111820054" lon="14.409473109727957"><ele>26.5</ele><time>2026-03-26T17:40:49.999Z</time></trkpt><trkpt lat="40.958202831032544" lon="14.409808352078484"><ele>26.0</ele><time>2026-03-26T17:40:50.999Z</time></trkpt><trkpt lat="40.95828727227422" lon="14.410143702584504"><ele>25.5</ele><time>2026-03-26T17:40:51.999Z</time></trkpt><trkpt lat="40.958370766916275" lon="14.410474020136837"><ele>25.0</ele><time>2026-03-26T17:40:52.999Z</time></trkpt><trkpt lat="40.95845113905082" lon="14.410804217725179"><ele>25.0</ele><time>2026-03-26T17:40:53.999Z</time></trkpt><trkpt lat="40.95852922322878" lon="14.411128283095529"><ele>25.0</ele><time>2026-03-26T17:40:54.999Z</time></trkpt><trkpt lat="40.95860889889069" lon="14.41144938811933"><ele>25.5</ele><time>2026-03-26T17:40:55.999Z</time></trkpt><trkpt lat="40.95868591212254" lon="14.41176222114382"><ele>26.0</ele><time>2026-03-26T17:40:56.999Z</time></trkpt><trkpt lat="40.95876376668529" lon="14.412069832065185"><ele>25.0</ele><time>2026-03-26T17:40:57.999Z</time></trkpt><trkpt lat="40.95884071807225" lon="14.41237922887681"><ele>24.0</ele><time>2026-03-26T17:40:58.999Z</time></trkpt><trkpt lat="40.95891658189696" lon="14.412698696867839"><ele>24.5</ele><time>2026-03-26T17:40:59.999Z</time></trkpt><trkpt lat="40.95899630854273" lon="14.413023339378343"><ele>25.0</ele><time>2026-03-26T17:41:00.999Z</time></trkpt><trkpt lat="40.95907990220124" lon="14.41335075391677"><ele>25.0</ele><time>2026-03-26T17:41:01.999Z</time></trkpt><trkpt lat="40.95916439075137" lon="14.413688126725665"><ele>25.0</ele><time>2026-03-26T17:41:02.999Z</time></trkpt><trkpt lat="40.959245150691395" lon="14.414021514259204"><ele>25.0</ele><time>2026-03-26T17:41:03.999Z</time></trkpt><trkpt lat="40.959323724064205" lon="14.414345366279107"><ele>25.0</ele><time>2026-03-26T17:41:04.999Z</time></trkpt><trkpt lat="40.959399083283124" lon="14.414651936650257"><ele>24.5</ele><time>2026-03-26T17:41:05.999Z</time></trkpt><trkpt lat="40.95947405543397" lon="14.41495931011403"><ele>24.0</ele><time>2026-03-26T17:41:06.999Z</time></trkpt><trkpt lat="40.95955062068218" lon="14.415269770020869"><ele>25.0</ele><time>2026-03-26T17:41:07.999Z</time></trkpt><trkpt lat="40.95962748242146" lon="14.4155825972601"><ele>26.0</ele><time>2026-03-26T17:41:08.999Z</time></trkpt><trkpt lat="40.95970555871497" lon="14.415900511038938"><ele>26.0</ele><time>2026-03-26T17:41:09.999Z</time></trkpt><trkpt lat="40.95978356937153" lon="14.416223408612707"><ele>26.0</ele><time>2026-03-26T17:41:10.999Z</time></trkpt><trkpt lat="40.95986049668123" lon="14.416545290517865"><ele>26.0</ele><time>2026-03-26T17:41:11.999Z</time></trkpt><trkpt lat="40.9599350571428" lon="14.416870391499605"><ele>26.0</ele><time>2026-03-26T17:41:12.999Z</time></trkpt><trkpt lat="40.96000257053296" lon="14.417202473379136"><ele>26.5</ele><time>2026-03-26T17:41:13.999Z</time></trkpt><trkpt lat="40.960066168022585" lon="14.417534965534959"><ele>27.0</ele><time>2026-03-26T17:41:14.999Z</time></trkpt><trkpt lat="40.960124284438145" lon="14.41787142468451"><ele>27.0</ele><time>2026-03-26T17:41:15.999Z</time></trkpt><trkpt lat="40.96017693961376" lon="14.41820409280635"><ele>27.0</ele><time>2026-03-26T17:41:16.999Z</time></trkpt><trkpt lat="40.9602273713882" lon="14.418527379771803"><ele>25.5</ele><time>2026-03-26T17:41:17.999Z</time></trkpt><trkpt lat="40.96027756427529" lon="14.418842102017491"><ele>24.0</ele><time>2026-03-26T17:41:18.999Z</time></trkpt><trkpt lat="40.96032879860026" lon="14.419148817262386"><ele>24.0</ele><time>2026-03-26T17:41:19.999Z</time></trkpt><trkpt lat="40.96037905229357" lon="14.419452190560767"><ele>24.0</ele><time>2026-03-26T17:41:20.999Z</time></trkpt><trkpt lat="40.96042859525766" lon="14.419748683003784"><ele>24.5</ele><time>2026-03-26T17:41:21.999Z</time></trkpt><trkpt lat="40.96048340403239" lon="14.420051080675266"><ele>25.0</ele><time>2026-03-26T17:41:22.999Z</time></trkpt><trkpt lat="40.96054048345135" lon="14.420358551032184"><ele>25.0</ele><time>2026-03-26T17:41:23.999Z</time></trkpt><trkpt lat="40.96059853879162" lon="14.420669645383034"><ele>25.0</ele><time>2026-03-26T17:41:24.999Z</time></trkpt><trkpt lat="40.96065767508336" lon="14.420983677483353"><ele>25.0</ele><time>2026-03-26T17:41:25.999Z</time></trkpt><trkpt lat="40.960718784793045" lon="14.42130227967879"><ele>25.0</ele><time>2026-03-26T17:41:26.999Z</time></trkpt><trkpt lat="40.96077785357194" lon="14.421625756987666"><ele>25.0</ele><time>2026-03-26T17:41:27.999Z</time></trkpt><trkpt lat="40.96083863484815" lon="14.421955130485683"><ele>25.0</ele><time>2026-03-26T17:41:28.999Z</time></trkpt><trkpt lat="40.96089964761668" lon="14.422286239484178"><ele>24.5</ele><time>2026-03-26T17:41:29.999Z</time></trkpt><trkpt lat="40.960957785942256" lon="14.422618055305726"><ele>24.0</ele><time>2026-03-26T17:41:30.999Z</time></trkpt><trkpt lat="40.96101496391295" lon="14.422954022193235"><ele>24.5</ele><time>2026-03-26T17:41:31.999Z</time></trkpt><trkpt lat="40.96107313332838" lon="14.423293217559738"><ele>25.0</ele><time>2026-03-26T17:41:32.999Z</time></trkpt><trkpt lat="40.96112962397714" lon="14.423629838298393"><ele>25.5</ele><time>2026-03-26T17:41:33.999Z</time></trkpt><trkpt lat="40.96118474356316" lon="14.423968162721147"><ele>26.0</ele><time>2026-03-26T17:41:34.999Z</time></trkpt><trkpt lat="40.96124073687658" lon="14.424304375403766"><ele>26.0</ele><time>2026-03-26T17:41:35.999Z</time></trkpt><trkpt lat="40.96129801670446" lon="14.424641865404539"><ele>26.0</ele><time>2026-03-26T17:41:36.999Z</time></trkpt><trkpt lat="40.96135592215049" lon="14.424981175287897"><ele>26.0</ele><time>2026-03-26T17:41:37.999Z</time></trkpt><trkpt lat="40.961414530284934" lon="14.425323201239157"><ele>26.0</ele><time>2026-03-26T17:41:38.999Z</time></trkpt><trkpt lat="40.96147314123435" lon="14.425665126634934"><ele>26.0</ele><time>2026-03-26T17:41:39.999Z</time></trkpt><trkpt lat="40.96153160719033" lon="14.426010253127894"><ele>26.0</ele><time>2026-03-26T17:41:40.999Z</time></trkpt><trkpt lat="40.96159022585086" lon="14.426359159095487"><ele>26.0</ele><time>2026-03-26T17:41:41.999Z</time></trkpt><trkpt lat="40.96164925108066" lon="14.426708411564771"><ele>26.0</ele><time>2026-03-26T17:41:42.999Z</time></trkpt><trkpt lat="40.96170935877945" lon="14.427058178426813"><ele>26.5</ele><time>2026-03-26T17:41:43.999Z</time></trkpt><trkpt lat="40.9617697659524" lon="14.427410085489441"><ele>27.0</ele><time>2026-03-26T17:41:44.999Z</time></trkpt><trkpt lat="40.96183192532607" lon="14.427761625521194"><ele>27.0</ele><time>2026-03-26T17:41:45.999Z</time></trkpt><trkpt lat="40.9618929823079" lon="14.428111447164568"><ele>27.0</ele><time>2026-03-26T17:41:46.999Z</time></trkpt><trkpt lat="40.9619532170047" lon="14.428461939058451"><ele>27.0</ele><time>2026-03-26T17:41:47.999Z</time></trkpt><trkpt lat="40.9620116381029" lon="14.428809619653322"><ele>27.0</ele><time>2026-03-26T17:41:48.999Z</time></trkpt><trkpt lat="40.96207204644342" lon="14.429159271106192"><ele>27.0</ele><time>2026-03-26T17:41:49.999Z</time></trkpt><trkpt lat="40.9621313268352" lon="14.429504905061446"><ele>27.0</ele><time>2026-03-26T17:41:50.999Z</time></trkpt><trkpt lat="40.9621907679027" lon="14.429851990288787"><ele>27.0</ele><time>2026-03-26T17:41:51.999Z</time></trkpt><trkpt lat="40.96225041684674" lon="14.430198714143295"><ele>27.0</ele><time>2026-03-26T17:41:52.999Z</time></trkpt><trkpt lat="40.962308278041085" lon="14.43054398150185"><ele>26.0</ele><time>2026-03-26T17:41:53.999Z</time></trkpt><trkpt lat="40.962365715207135" lon="14.430890842940338"><ele>25.0</ele><time>2026-03-26T17:41:54.999Z</time></trkpt><trkpt lat="40.96242062339791" lon="14.43123581497877"><ele>25.5</ele><time>2026-03-26T17:41:55.999Z</time></trkpt><trkpt lat="40.96247110288264" lon="14.431574679610264"><ele>26.0</ele><time>2026-03-26T17:41:56.999Z</time></trkpt><trkpt lat="40.96252104205837" lon="14.431912671399177"><ele>26.0</ele><time>2026-03-26T17:41:57.999Z</time></trkpt><trkpt lat="40.962573703783114" lon="14.432248784334986"><ele>26.0</ele><time>2026-03-26T17:41:58.999Z</time></trkpt><trkpt lat="40.96262696799703" lon="14.43257968637382"><ele>26.0</ele><time>2026-03-26T17:41:59.999Z</time></trkpt><trkpt lat="40.96268093943421" lon="14.432906767178405"><ele>26.0</ele><time>2026-03-26T17:42:00.999Z</time></trkpt><trkpt lat="40.96273795368962" lon="14.433236542917864"><ele>26.0</ele><time>2026-03-26T17:42:01.999Z</time></trkpt><trkpt lat="40.962792371111696" lon="14.43355813496676"><ele>26.0</ele><time>2026-03-26T17:42:02.999Z</time></trkpt><trkpt lat="40.96284610446195" lon="14.433875547030645"><ele>25.5</ele><time>2026-03-26T17:42:03.999Z</time></trkpt><trkpt lat="40.96289857315364" lon="14.434189953096945"><ele>25.0</ele><time>2026-03-26T17:42:04.999Z</time></trkpt><trkpt lat="40.96295194841673" lon="14.43450703845005"><ele>25.0</ele><time>2026-03-26T17:42:05.999Z</time></trkpt><trkpt lat="40.96300582706646" lon="14.434822270213164"><ele>25.0</ele><time>2026-03-26T17:42:06.999Z</time></trkpt><trkpt lat="40.96305884966153" lon="14.435135184502789"><ele>25.0</ele><time>2026-03-26T17:42:07.999Z</time></trkpt><trkpt lat="40.96311158922965" lon="14.435445299162232"><ele>25.0</ele><time>2026-03-26T17:42:08.999Z</time></trkpt><trkpt lat="40.96316514144638" lon="14.43575451208578"><ele>25.5</ele><time>2026-03-26T17:42:09.999Z</time></trkpt><trkpt lat="40.96321808630427" lon="14.436064365999396"><ele>26.0</ele><time>2026-03-26T17:42:10.999Z</time></trkpt><trkpt lat="40.96327287524099" lon="14.436371128192098"><ele>26.0</ele><time>2026-03-26T17:42:11.999Z</time></trkpt><trkpt lat="40.96333113153989" lon="14.4366782723237"><ele>26.0</ele><time>2026-03-26T17:42:12.999Z</time></trkpt><trkpt lat="40.96338961751517" lon="14.436988795469773"><ele>26.5</ele><time>2026-03-26T17:42:13.999Z</time></trkpt><trkpt lat="40.9634483518657" lon="14.437303472334348"><ele>27.0</ele><time>2026-03-26T17:42:14.999Z</time></trkpt><trkpt lat="40.963509212995625" lon="14.437620792430447"><ele>27.0</ele><time>2026-03-26T17:42:15.999Z</time></trkpt><trkpt lat="40.96357172087328" lon="14.437944629504496"><ele>27.0</ele><time>2026-03-26T17:42:16.999Z</time></trkpt><trkpt lat="40.963631091478575" lon="14.438272800944437"><ele>27.0</ele><time>2026-03-26T17:42:17.999Z</time></trkpt><trkpt lat="40.96368880106182" lon="14.438606658538454"><ele>27.0</ele><time>2026-03-26T17:42:18.999Z</time></trkpt><trkpt lat="40.963746175230526" lon="14.438942440828702"><ele>27.0</ele><time>2026-03-26T17:42:19.999Z</time></trkpt><trkpt lat="40.963803696689695" lon="14.439276344623488"><ele>27.0</ele><time>2026-03-26T17:42:20.999Z</time></trkpt><trkpt lat="40.96386019328576" lon="14.439607105801485"><ele>27.5</ele><time>2026-03-26T17:42:21.999Z</time></trkpt><trkpt lat="40.96391617553552" lon="14.439937664712568"><ele>28.0</ele><time>2026-03-26T17:42:22.999Z</time></trkpt><trkpt lat="40.96397137104013" lon="14.440265263169005"><ele>27.5</ele><time>2026-03-26T17:42:23.999Z</time></trkpt><trkpt lat="40.96402642731994" lon="14.440587695868764"><ele>27.0</ele><time>2026-03-26T17:42:24.999Z</time></trkpt><trkpt lat="40.96408094606497" lon="14.440903322830543"><ele>27.0</ele><time>2026-03-26T17:42:25.999Z</time></trkpt><trkpt lat="40.96413423596279" lon="14.441217541599551"><ele>27.0</ele><time>2026-03-26T17:42:26.999Z</time></trkpt><trkpt lat="40.9641879116475" lon="14.441534761954305"><ele>26.0</ele><time>2026-03-26T17:42:27.999Z</time></trkpt><trkpt lat="40.96424470498143" lon="14.441859421828758"><ele>25.0</ele><time>2026-03-26T17:42:28.999Z</time></trkpt><trkpt lat="40.964299068142964" lon="14.44217694297101"><ele>25.0</ele><time>2026-03-26T17:42:29.999Z</time></trkpt><trkpt lat="40.96435553180048" lon="14.44249813286124"><ele>25.0</ele><time>2026-03-26T17:42:30.999Z</time></trkpt><trkpt lat="40.96441172277067" lon="14.442822170564483"><ele>26.0</ele><time>2026-03-26T17:42:31.999Z</time></trkpt><trkpt lat="40.9644685271688" lon="14.443149315321426"><ele>27.0</ele><time>2026-03-26T17:42:32.999Z</time></trkpt><trkpt lat="40.96452546945723" lon="14.443479009139848"><ele>27.0</ele><time>2026-03-26T17:42:33.999Z</time></trkpt><trkpt lat="40.964582281080006" lon="14.44381007810964"><ele>27.0</ele><time>2026-03-26T17:42:34.999Z</time></trkpt><trkpt lat="40.964639524869945" lon="14.444142933691777"><ele>27.0</ele><time>2026-03-26T17:42:35.999Z</time></trkpt><trkpt lat="40.96469627173328" lon="14.444477364744749"><ele>27.0</ele><time>2026-03-26T17:42:36.999Z</time></trkpt><trkpt lat="40.9647515094978" lon="14.444810591082593"><ele>26.5</ele><time>2026-03-26T17:42:37.999Z</time></trkpt><trkpt lat="40.964806192465346" lon="14.445141191654926"><ele>26.0</ele><time>2026-03-26T17:42:38.999Z</time></trkpt><trkpt lat="40.96486071325688" lon="14.445473647388672"><ele>26.0</ele><time>2026-03-26T17:42:39.999Z</time></trkpt><trkpt lat="40.96491670503749" lon="14.44580833648369"><ele>26.0</ele><time>2026-03-26T17:42:40.999Z</time></trkpt><trkpt lat="40.96497367148118" lon="14.446145200656783"><ele>25.5</ele><time>2026-03-26T17:42:41.999Z</time></trkpt><trkpt lat="40.96503168001866" lon="14.446483979017236"><ele>25.0</ele><time>2026-03-26T17:42:42.999Z</time></trkpt><trkpt lat="40.96509066250996" lon="14.446824423721681"><ele>26.5</ele><time>2026-03-26T17:42:43.999Z</time></trkpt><trkpt lat="40.965151825719296" lon="14.44716286670671"><ele>28.0</ele><time>2026-03-26T17:42:44.999Z</time></trkpt><trkpt lat="40.96521359970915" lon="14.447505441552465"><ele>28.0</ele><time>2026-03-26T17:42:45.999Z</time></trkpt><trkpt lat="40.96527370300798" lon="14.447846587793256"><ele>28.0</ele><time>2026-03-26T17:42:46.999Z</time></trkpt><trkpt lat="40.96533257410152" lon="14.44818343373899"><ele>29.0</ele><time>2026-03-26T17:42:47.999Z</time></trkpt><trkpt lat="40.96538886110997" lon="14.44851112989789"><ele>30.0</ele><time>2026-03-26T17:42:48.999Z</time></trkpt><trkpt lat="40.96544273136446" lon="14.44882776989896"><ele>30.5</ele><time>2026-03-26T17:42:49.999Z</time></trkpt><trkpt lat="40.96549485926893" lon="14.449141187081587"><ele>31.0</ele><time>2026-03-26T17:42:50.999Z</time></trkpt><trkpt lat="40.96554185125023" lon="14.449442055133675"><ele>31.0</ele><time>2026-03-26T17:42:51.999Z</time></trkpt><trkpt lat="40.96558160582689" lon="14.449734292854922"><ele>31.0</ele><time>2026-03-26T17:42:52.999Z</time></trkpt><trkpt lat="40.9656153302414" lon="14.450025906175833"><ele>31.0</ele><time>2026-03-26T17:42:53.999Z</time></trkpt><trkpt lat="40.96564121174755" lon="14.450314624709756"><ele>30.666666666666668</ele><time>2026-03-26T17:42:54.999Z</time></trkpt><trkpt lat="40.965656971193" lon="14.450602150519257"><ele>30.333333333333336</ele><time>2026-03-26T17:42:55.999Z</time></trkpt><trkpt lat="40.96566931107394" lon="14.450895802725528"><ele>30.0</ele><time>2026-03-26T17:42:56.999Z</time></trkpt><trkpt lat="40.965680390535994" lon="14.451192891745945"><ele>30.5</ele><time>2026-03-26T17:42:57.999Z</time></trkpt><trkpt lat="40.965691620423065" lon="14.451491568858444"><ele>31.0</ele><time>2026-03-26T17:42:58.999Z</time></trkpt><trkpt lat="40.96570380316748" lon="14.451791687952692"><ele>31.0</ele><time>2026-03-26T17:42:59.999Z</time></trkpt><trkpt lat="40.96571402111302" lon="14.45207333022936"><ele>31.0</ele><time>2026-03-26T17:43:00.999Z</time></trkpt><trkpt lat="40.96572284251013" lon="14.452346300669834"><ele>31.0</ele><time>2026-03-26T17:43:01.999Z</time></trkpt><trkpt lat="40.965726861645926" lon="14.452621547844968"><ele>30.333333333333336</ele><time>2026-03-26T17:43:02.999Z</time></trkpt><trkpt lat="40.96572301163852" lon="14.452896444815202"><ele>29.666666666666664</ele><time>2026-03-26T17:43:03.999Z</time></trkpt><trkpt lat="40.96571058504375" lon="14.45317314303518"><ele>29.0</ele><time>2026-03-26T17:43:04.999Z</time></trkpt><trkpt lat="40.96568594923674" lon="14.453453665407201"><ele>29.0</ele><time>2026-03-26T17:43:05.999Z</time></trkpt><trkpt lat="40.96565454285776" lon="14.453738383217633"><ele>29.0</ele><time>2026-03-26T17:43:06.999Z</time></trkpt><trkpt lat="40.965620775050965" lon="14.454026969216285"><ele>29.0</ele><time>2026-03-26T17:43:07.999Z</time></trkpt><trkpt lat="40.96558121495011" lon="14.454313721940661"><ele>29.0</ele><time>2026-03-26T17:43:08.999Z</time></trkpt><trkpt lat="40.96553571323948" lon="14.454585077858434"><ele>29.0</ele><time>2026-03-26T17:43:09.999Z</time></trkpt><trkpt lat="40.965486868840536" lon="14.454844949873912"><ele>29.0</ele><time>2026-03-26T17:43:10.999Z</time></trkpt><trkpt lat="40.965434203837816" lon="14.455105983721374"><ele>29.0</ele><time>2026-03-26T17:43:11.999Z</time></trkpt><trkpt lat="40.96537798284603" lon="14.455370746719058"><ele>29.0</ele><time>2026-03-26T17:43:12.999Z</time></trkpt><trkpt lat="40.965316810140855" lon="14.45563967309104"><ele>29.0</ele><time>2026-03-26T17:43:13.999Z</time></trkpt><trkpt lat="40.96524943774764" lon="14.45591513234145"><ele>28.666666666666664</ele><time>2026-03-26T17:43:14.999Z</time></trkpt><trkpt lat="40.96517464861857" lon="14.456188873838514"><ele>28.333333333333336</ele><time>2026-03-26T17:43:15.999Z</time></trkpt><trkpt lat="40.96509207825262" lon="14.456463964766188"><ele>28.0</ele><time>2026-03-26T17:43:16.999Z</time></trkpt><trkpt lat="40.96500262821562" lon="14.45673839365205"><ele>28.0</ele><time>2026-03-26T17:43:17.999Z</time></trkpt><trkpt lat="40.964907612661534" lon="14.45701151352104"><ele>28.0</ele><time>2026-03-26T17:43:18.999Z</time></trkpt><trkpt lat="40.964807389420734" lon="14.457283018344862"><ele>28.5</ele><time>2026-03-26T17:43:19.999Z</time></trkpt><trkpt lat="40.964702175838234" lon="14.457551900322402"><ele>29.0</ele><time>2026-03-26T17:43:20.999Z</time></trkpt><trkpt lat="40.964592653994174" lon="14.45782022177596"><ele>28.0</ele><time>2026-03-26T17:43:21.999Z</time></trkpt><trkpt lat="40.96447821613298" lon="14.458086222995071"><ele>27.0</ele><time>2026-03-26T17:43:22.999Z</time></trkpt><trkpt lat="40.96435819719901" lon="14.458349519298554"><ele>27.0</ele><time>2026-03-26T17:43:23.999Z</time></trkpt><trkpt lat="40.964231323588145" lon="14.458608390674769"><ele>27.0</ele><time>2026-03-26T17:43:24.999Z</time></trkpt><trkpt lat="40.96409682708374" lon="14.45886200341247"><ele>27.5</ele><time>2026-03-26T17:43:25.999Z</time></trkpt><trkpt lat="40.963955597386374" lon="14.459112382774688"><ele>28.0</ele><time>2026-03-26T17:43:26.999Z</time></trkpt><trkpt lat="40.96381170207059" lon="14.459362971193901"><ele>28.0</ele><time>2026-03-26T17:43:27.999Z</time></trkpt><trkpt lat="40.963665654001126" lon="14.459615022528666"><ele>28.0</ele><time>2026-03-26T17:43:28.999Z</time></trkpt><trkpt lat="40.96351805663866" lon="14.459866464619205"><ele>27.5</ele><time>2026-03-26T17:43:29.999Z</time></trkpt><trkpt lat="40.96336830936387" lon="14.460118367061703"><ele>27.0</ele><time>2026-03-26T17:43:30.999Z</time></trkpt><trkpt lat="40.96321937129345" lon="14.46037207431155"><ele>27.5</ele><time>2026-03-26T17:43:31.999Z</time></trkpt><trkpt lat="40.96307333953953" lon="14.460625804950203"><ele>28.0</ele><time>2026-03-26T17:43:32.999Z</time></trkpt><trkpt lat="40.96292670840657" lon="14.460877311783415"><ele>28.0</ele><time>2026-03-26T17:43:33.999Z</time></trkpt><trkpt lat="40.962780982298334" lon="14.461125770223301"><ele>28.0</ele><time>2026-03-26T17:43:34.999Z</time></trkpt><trkpt lat="40.962636583922624" lon="14.4613681931634"><ele>26.5</ele><time>2026-03-26T17:43:35.999Z</time></trkpt><trkpt lat="40.962492585554735" lon="14.461613332866772"><ele>25.0</ele><time>2026-03-26T17:43:36.999Z</time></trkpt><trkpt lat="40.96234827061638" lon="14.461863552974071"><ele>26.5</ele><time>2026-03-26T17:43:37.999Z</time></trkpt><trkpt lat="40.96220567800277" lon="14.462118814490333"><ele>28.0</ele><time>2026-03-26T17:43:38.999Z</time></trkpt><trkpt lat="40.962060639533654" lon="14.462376096552562"><ele>28.0</ele><time>2026-03-26T17:43:39.999Z</time></trkpt><trkpt lat="40.96191404101067" lon="14.462634028517877"><ele>28.0</ele><time>2026-03-26T17:43:40.999Z</time></trkpt><trkpt lat="40.96176735891044" lon="14.462895231131537"><ele>28.5</ele><time>2026-03-26T17:43:41.999Z</time></trkpt><trkpt lat="40.961621606456795" lon="14.46315647204808"><ele>29.0</ele><time>2026-03-26T17:43:42.999Z</time></trkpt><trkpt lat="40.961477635044844" lon="14.463418419353582"><ele>29.0</ele><time>2026-03-26T17:43:43.999Z</time></trkpt><trkpt lat="40.961332218575166" lon="14.463682188210127"><ele>29.0</ele><time>2026-03-26T17:43:44.999Z</time></trkpt><trkpt lat="40.961185927118265" lon="14.463946985667794"><ele>28.5</ele><time>2026-03-26T17:43:45.999Z</time></trkpt><trkpt lat="40.961038599662444" lon="14.464212942091644"><ele>28.0</ele><time>2026-03-26T17:43:46.999Z</time></trkpt><trkpt lat="40.96089140364612" lon="14.46448066976022"><ele>28.0</ele><time>2026-03-26T17:43:47.999Z</time></trkpt><trkpt lat="40.96074556556872" lon="14.46475099368869"><ele>28.0</ele><time>2026-03-26T17:43:48.999Z</time></trkpt><trkpt lat="40.96060195379963" lon="14.465022896751398"><ele>28.0</ele><time>2026-03-26T17:43:49.999Z</time></trkpt><trkpt lat="40.96045800114495" lon="14.46529860577782"><ele>28.0</ele><time>2026-03-26T17:43:50.999Z</time></trkpt><trkpt lat="40.96031243291083" lon="14.465576337347038"><ele>28.0</ele><time>2026-03-26T17:43:51.999Z</time></trkpt><trkpt lat="40.96016649134326" lon="14.465856089573279"><ele>28.0</ele><time>2026-03-26T17:43:52.999Z</time></trkpt><trkpt lat="40.96001843606849" lon="14.466137798243365"><ele>27.5</ele><time>2026-03-26T17:43:53.999Z</time></trkpt><trkpt lat="40.959869013998414" lon="14.466420307573323"><ele>27.0</ele><time>2026-03-26T17:43:54.999Z</time></trkpt><trkpt lat="40.95971976722769" lon="14.46670500062714"><ele>27.0</ele><time>2026-03-26T17:43:55.999Z</time></trkpt><trkpt lat="40.959569823965765" lon="14.466990897148277"><ele>27.0</ele><time>2026-03-26T17:43:56.999Z</time></trkpt><trkpt lat="40.959420434291815" lon="14.467277046938518"><ele>26.5</ele><time>2026-03-26T17:43:57.999Z</time></trkpt><trkpt lat="40.959270239556474" lon="14.467564292436691"><ele>26.0</ele><time>2026-03-26T17:43:58.999Z</time></trkpt><trkpt lat="40.95911958429677" lon="14.46785237675065"><ele>26.0</ele><time>2026-03-26T17:43:59.999Z</time></trkpt><trkpt lat="40.958968328509094" lon="14.468141909078076"><ele>26.0</ele><time>2026-03-26T17:44:00.999Z</time></trkpt><trkpt lat="40.958815783598844" lon="14.468430174058218"><ele>26.0</ele><time>2026-03-26T17:44:01.999Z</time></trkpt><trkpt lat="40.958660821851055" lon="14.468716714401785"><ele>26.0</ele><time>2026-03-26T17:44:02.999Z</time></trkpt><trkpt lat="40.958503542663394" lon="14.469004955867536"><ele>27.0</ele><time>2026-03-26T17:44:03.999Z</time></trkpt><trkpt lat="40.958347479865715" lon="14.46928763714674"><ele>28.0</ele><time>2026-03-26T17:44:04.999Z</time></trkpt><trkpt lat="40.958190522949586" lon="14.469568892231337"><ele>27.5</ele><time>2026-03-26T17:44:05.999Z</time></trkpt><trkpt lat="40.958031987774476" lon="14.4698507601466"><ele>27.0</ele><time>2026-03-26T17:44:06.999Z</time></trkpt><trkpt lat="40.95787480833085" lon="14.470125990250123"><ele>27.0</ele><time>2026-03-26T17:44:07.999Z</time></trkpt><trkpt lat="40.9577169180517" lon="14.470400028812984"><ele>27.0</ele><time>2026-03-26T17:44:08.999Z</time></trkpt><trkpt lat="40.95756308164336" lon="14.470663866740123"><ele>28.0</ele><time>2026-03-26T17:44:09.999Z</time></trkpt><trkpt lat="40.95741118250225" lon="14.470921961025503"><ele>29.0</ele><time>2026-03-26T17:44:10.999Z</time></trkpt><trkpt lat="40.95726394690212" lon="14.471172626770617"><ele>28.0</ele><time>2026-03-26T17:44:11.999Z</time></trkpt><trkpt lat="40.95711875549801" lon="14.471416861673747"><ele>27.0</ele><time>2026-03-26T17:44:12.999Z</time></trkpt><trkpt lat="40.95697408648873" lon="14.471655861941153"><ele>27.0</ele><time>2026-03-26T17:44:13.999Z</time></trkpt><trkpt lat="40.956831195184" lon="14.471890798659501"><ele>27.0</ele><time>2026-03-26T17:44:14.999Z</time></trkpt><trkpt lat="40.95669645733312" lon="14.472109875268826"><ele>27.0</ele><time>2026-03-26T17:44:15.999Z</time></trkpt><trkpt lat="40.95656779677182" lon="14.472325252085898"><ele>27.0</ele><time>2026-03-26T17:44:16.999Z</time></trkpt><trkpt lat="40.956441651745386" lon="14.472538088118142"><ele>27.0</ele><time>2026-03-26T17:44:17.999Z</time></trkpt><trkpt lat="40.95631463268804" lon="14.472746968572926"><ele>27.0</ele><time>2026-03-26T17:44:18.999Z</time></trkpt><trkpt lat="40.95618728750504" lon="14.472957415382783"><ele>27.0</ele><time>2026-03-26T17:44:19.999Z</time></trkpt><trkpt lat="40.95605945780087" lon="14.473166754198958"><ele>27.0</ele><time>2026-03-26T17:44:20.999Z</time></trkpt><trkpt lat="40.955928804502456" lon="14.473376624440553"><ele>27.0</ele><time>2026-03-26T17:44:21.999Z</time></trkpt><trkpt lat="40.95579757613943" lon="14.473590524381104"><ele>27.333333333333336</ele><time>2026-03-26T17:44:22.999Z</time></trkpt><trkpt lat="40.95566420547675" lon="14.473809758042975"><ele>27.666666666666668</ele><time>2026-03-26T17:44:23.999Z</time></trkpt><trkpt lat="40.95553196357952" lon="14.474024143276672"><ele>28.0</ele><time>2026-03-26T17:44:24.999Z</time></trkpt><trkpt lat="40.955396637441694" lon="14.474247359652779"><ele>28.0</ele><time>2026-03-26T17:44:25.999Z</time></trkpt><trkpt lat="40.955260829827935" lon="14.474470462227563"><ele>28.0</ele><time>2026-03-26T17:44:26.999Z</time></trkpt><trkpt lat="40.95512412413696" lon="14.474694672021117"><ele>28.0</ele><time>2026-03-26T17:44:27.999Z</time></trkpt><trkpt lat="40.95498808168729" lon="14.47491955280269"><ele>28.0</ele><time>2026-03-26T17:44:28.999Z</time></trkpt><trkpt lat="40.95485125417488" lon="14.475144083391255"><ele>28.0</ele><time>2026-03-26T17:44:29.999Z</time></trkpt><trkpt lat="40.95471313540027" lon="14.475367505717669"><ele>28.0</ele><time>2026-03-26T17:44:30.999Z</time></trkpt><trkpt lat="40.954574375726025" lon="14.47559149759614"><ele>28.0</ele><time>2026-03-26T17:44:31.999Z</time></trkpt><trkpt lat="40.954434925918456" lon="14.475815470857343"><ele>28.0</ele><time>2026-03-26T17:44:32.999Z</time></trkpt><trkpt lat="40.95429503985709" lon="14.47604260104217"><ele>28.0</ele><time>2026-03-26T17:44:33.999Z</time></trkpt><trkpt lat="40.95415653092619" lon="14.476267428426011"><ele>29.0</ele><time>2026-03-26T17:44:34.999Z</time></trkpt><trkpt lat="40.95401823839659" lon="14.476494110520688"><ele>30.0</ele><time>2026-03-26T17:44:35.999Z</time></trkpt><trkpt lat="40.953879328580044" lon="14.476722702899247"><ele>31.0</ele><time>2026-03-26T17:44:36.999Z</time></trkpt><trkpt lat="40.95374282071043" lon="14.476947793336"><ele>30.333333333333336</ele><time>2026-03-26T17:44:37.999Z</time></trkpt><trkpt lat="40.953609269739395" lon="14.477165066811095"><ele>29.666666666666664</ele><time>2026-03-26T17:44:38.999Z</time></trkpt><trkpt lat="40.95347820307352" lon="14.477378325680657"><ele>29.0</ele><time>2026-03-26T17:44:39.999Z</time></trkpt><trkpt lat="40.953350270847785" lon="14.477586661935248"><ele>29.0</ele><time>2026-03-26T17:44:40.999Z</time></trkpt><trkpt lat="40.95322209301356" lon="14.477798972880372"><ele>29.0</ele><time>2026-03-26T17:44:41.999Z</time></trkpt><trkpt lat="40.95309582388301" lon="14.478009844782523"><ele>29.0</ele><time>2026-03-26T17:44:42.999Z</time></trkpt><trkpt lat="40.952967882095884" lon="14.478223079948524"><ele>29.0</ele><time>2026-03-26T17:44:43.999Z</time></trkpt><trkpt lat="40.952837830463906" lon="14.478439988419366"><ele>29.0</ele><time>2026-03-26T17:44:44.999Z</time></trkpt><trkpt lat="40.95270450718107" lon="14.478661722307312"><ele>29.0</ele><time>2026-03-26T17:44:45.999Z</time></trkpt><trkpt lat="40.95256932964221" lon="14.478885471533035"><ele>29.333333333333332</ele><time>2026-03-26T17:44:46.999Z</time></trkpt><trkpt lat="40.952434676718" lon="14.479111442790161"><ele>29.666666666666664</ele><time>2026-03-26T17:44:47.999Z</time></trkpt><trkpt lat="40.95230147511191" lon="14.479345617761128"><ele>30.0</ele><time>2026-03-26T17:44:48.999Z</time></trkpt><trkpt lat="40.95217157964189" lon="14.479578966649214"><ele>29.333333333333336</ele><time>2026-03-26T17:44:49.999Z</time></trkpt><trkpt lat="40.95204315911903" lon="14.479812332084578"><ele>28.666666666666668</ele><time>2026-03-26T17:44:50.999Z</time></trkpt><trkpt lat="40.95191742654401" lon="14.480041650441583"><ele>28.0</ele><time>2026-03-26T17:44:51.999Z</time></trkpt><trkpt lat="40.9517901434187" lon="14.480266828891612"><ele>28.333333333333336</ele><time>2026-03-26T17:44:52.999Z</time></trkpt><trkpt lat="40.95165843841567" lon="14.480494122733985"><ele>28.666666666666664</ele><time>2026-03-26T17:44:53.999Z</time></trkpt><trkpt lat="40.95152714531299" lon="14.480724093712178"><ele>29.0</ele><time>2026-03-26T17:44:54.999Z</time></trkpt><trkpt lat="40.951396047866744" lon="14.480957792446079"><ele>29.0</ele><time>2026-03-26T17:44:55.999Z</time></trkpt><trkpt lat="40.951264928881194" lon="14.481191938733737"><ele>29.0</ele><time>2026-03-26T17:44:56.999Z</time></trkpt><trkpt lat="40.951132639322054" lon="14.481426671382243"><ele>29.0</ele><time>2026-03-26T17:44:57.999Z</time></trkpt><trkpt lat="40.950998806300795" lon="14.481663280374613"><ele>29.5</ele><time>2026-03-26T17:44:58.999Z</time></trkpt><trkpt lat="40.950864192991716" lon="14.481905146294778"><ele>30.0</ele><time>2026-03-26T17:44:59.999Z</time></trkpt><trkpt lat="40.95072565793088" lon="14.482151878980037"><ele>30.0</ele><time>2026-03-26T17:45:00.999Z</time></trkpt><trkpt lat="40.95058523994331" lon="14.4824014243279"><ele>30.0</ele><time>2026-03-26T17:45:01.999Z</time></trkpt><trkpt lat="40.95044309809149" lon="14.48265365892313"><ele>30.0</ele><time>2026-03-26T17:45:02.999Z</time></trkpt><trkpt lat="40.95030096898713" lon="14.482909522273335"><ele>30.0</ele><time>2026-03-26T17:45:03.999Z</time></trkpt><trkpt lat="40.95015712935861" lon="14.483169648244932"><ele>29.0</ele><time>2026-03-26T17:45:04.999Z</time></trkpt><trkpt lat="40.95000919563978" lon="14.483428488476271"><ele>28.0</ele><time>2026-03-26T17:45:05.999Z</time></trkpt><trkpt lat="40.94986029479326" lon="14.483687528171869"><ele>28.0</ele><time>2026-03-26T17:45:06.999Z</time></trkpt><trkpt lat="40.94970666973791" lon="14.483945741010013"><ele>28.0</ele><time>2026-03-26T17:45:07.999Z</time></trkpt><trkpt lat="40.94954499744245" lon="14.484198323268151"><ele>28.0</ele><time>2026-03-26T17:45:08.999Z</time></trkpt><trkpt lat="40.949381973428565" lon="14.484434454566026"><ele>28.0</ele><time>2026-03-26T17:45:09.999Z</time></trkpt><trkpt lat="40.94920355988253" lon="14.48466947823752"><ele>28.5</ele><time>2026-03-26T17:45:10.999Z</time></trkpt><trkpt lat="40.94902263892772" lon="14.484899982108116"><ele>29.0</ele><time>2026-03-26T17:45:11.999Z</time></trkpt><trkpt lat="40.9488383385122" lon="14.485126229813108"><ele>29.0</ele><time>2026-03-26T17:45:12.999Z</time></trkpt><trkpt lat="40.94865245666537" lon="14.485346431715127"><ele>29.0</ele><time>2026-03-26T17:45:13.999Z</time></trkpt><trkpt lat="40.94846057432482" lon="14.48556040417847"><ele>29.5</ele><time>2026-03-26T17:45:14.999Z</time></trkpt><trkpt lat="40.948261044082656" lon="14.485765400492557"><ele>30.0</ele><time>2026-03-26T17:45:15.999Z</time></trkpt><trkpt lat="40.94805344174247" lon="14.485961212641381"><ele>30.0</ele><time>2026-03-26T17:45:16.999Z</time></trkpt><trkpt lat="40.94784084323053" lon="14.486152280404513"><ele>30.0</ele><time>2026-03-26T17:45:17.999Z</time></trkpt><trkpt lat="40.94762425259695" lon="14.486339556613148"><ele>29.5</ele><time>2026-03-26T17:45:18.999Z</time></trkpt><trkpt lat="40.94740305608672" lon="14.486520073846467"><ele>29.0</ele><time>2026-03-26T17:45:19.999Z</time></trkpt><trkpt lat="40.947178406961406" lon="14.486693657753"><ele>29.0</ele><time>2026-03-26T17:45:20.999Z</time></trkpt><trkpt lat="40.946949831634896" lon="14.486856377713073"><ele>29.0</ele><time>2026-03-26T17:45:21.999Z</time></trkpt><trkpt lat="40.946722417770616" lon="14.487005894961614"><ele>30.0</ele><time>2026-03-26T17:45:22.999Z</time></trkpt><trkpt lat="40.946499502068995" lon="14.487144347266653"><ele>31.0</ele><time>2026-03-26T17:45:23.999Z</time></trkpt><trkpt lat="40.946279903663985" lon="14.487273665566672"><ele>31.0</ele><time>2026-03-26T17:45:24.999Z</time></trkpt><trkpt lat="40.946062228820495" lon="14.487400846069606"><ele>31.0</ele><time>2026-03-26T17:45:25.999Z</time></trkpt><trkpt lat="40.94584842196991" lon="14.487528148457416"><ele>31.0</ele><time>2026-03-26T17:45:26.999Z</time></trkpt><trkpt lat="40.94563956647852" lon="14.48766195103263"><ele>31.0</ele><time>2026-03-26T17:45:27.999Z</time></trkpt><trkpt lat="40.945438230108735" lon="14.48780600361033"><ele>30.666666666666668</ele><time>2026-03-26T17:45:28.999Z</time></trkpt><trkpt lat="40.945247998150194" lon="14.48795706524605"><ele>30.333333333333336</ele><time>2026-03-26T17:45:29.999Z</time></trkpt><trkpt lat="40.94507307486053" lon="14.488106100301476"><ele>30.0</ele><time>2026-03-26T17:45:30.999Z</time></trkpt><trkpt lat="40.94491026961225" lon="14.488250762085409"><ele>31.0</ele><time>2026-03-26T17:45:31.999Z</time></trkpt><trkpt lat="40.944751616039724" lon="14.488396256383426"><ele>32.0</ele><time>2026-03-26T17:45:32.999Z</time></trkpt><trkpt lat="40.94459274466055" lon="14.488546478292662"><ele>33.0</ele><time>2026-03-26T17:45:33.999Z</time></trkpt><trkpt lat="40.94443713786957" lon="14.488699184614356"><ele>33.666666666666664</ele><time>2026-03-26T17:45:34.999Z</time></trkpt><trkpt lat="40.94429850411023" lon="14.488849013658745"><ele>34.33333333333333</ele><time>2026-03-26T17:45:35.999Z</time></trkpt><trkpt lat="40.944155336894624" lon="14.489013806587991"><ele>35.0</ele><time>2026-03-26T17:45:36.999Z</time></trkpt><trkpt lat="40.94401124687428" lon="14.48918822859677"><ele>35.0</ele><time>2026-03-26T17:45:37.999Z</time></trkpt><trkpt lat="40.94387679555007" lon="14.489357423974651"><ele>35.0</ele><time>2026-03-26T17:45:38.999Z</time></trkpt><trkpt lat="40.943753064332434" lon="14.489524798643282"><ele>35.0</ele><time>2026-03-26T17:45:39.999Z</time></trkpt><trkpt lat="40.943630494235975" lon="14.489697809218706"><ele>34.0</ele><time>2026-03-26T17:45:40.999Z</time></trkpt><trkpt lat="40.94351484222074" lon="14.489864113432962"><ele>33.0</ele><time>2026-03-26T17:45:41.999Z</time></trkpt><trkpt lat="40.94340554951466" lon="14.490027290968545"><ele>32.0</ele><time>2026-03-26T17:45:42.999Z</time></trkpt><trkpt lat="40.94330217732362" lon="14.490190544287865"><ele>32.0</ele><time>2026-03-26T17:45:43.999Z</time></trkpt><trkpt lat="40.943198622834984" lon="14.49036033741972"><ele>32.0</ele><time>2026-03-26T17:45:44.999Z</time></trkpt><trkpt lat="40.94309762627997" lon="14.490533677891579"><ele>32.0</ele><time>2026-03-26T17:45:45.999Z</time></trkpt><trkpt lat="40.94300160801826" lon="14.490701413852065"><ele>31.666666666666664</ele><time>2026-03-26T17:45:46.999Z</time></trkpt><trkpt lat="40.94290620705349" lon="14.49086473984613"><ele>31.333333333333336</ele><time>2026-03-26T17:45:47.999Z</time></trkpt><trkpt lat="40.9428080518285" lon="14.491035469470559"><ele>31.0</ele><time>2026-03-26T17:45:48.999Z</time></trkpt><trkpt lat="40.94271149677619" lon="14.491208935479273"><ele>31.0</ele><time>2026-03-26T17:45:49.999Z</time></trkpt><trkpt lat="40.94261062616247" lon="14.491387824335115"><ele>31.0</ele><time>2026-03-26T17:45:50.999Z</time></trkpt><trkpt lat="40.94250636223562" lon="14.491569682266023"><ele>31.0</ele><time>2026-03-26T17:45:51.999Z</time></trkpt><trkpt lat="40.94240076807669" lon="14.49175552227941"><ele>31.0</ele><time>2026-03-26T17:45:52.999Z</time></trkpt><trkpt lat="40.94229683830013" lon="14.491938323374724"><ele>31.0</ele><time>2026-03-26T17:45:53.999Z</time></trkpt><trkpt lat="40.942194341829314" lon="14.492118781387134"><ele>31.0</ele><time>2026-03-26T17:45:54.999Z</time></trkpt><trkpt lat="40.9420907045021" lon="14.492299333939847"><ele>30.333333333333336</ele><time>2026-03-26T17:45:55.999Z</time></trkpt><trkpt lat="40.941985749366594" lon="14.492482065951572"><ele>29.666666666666664</ele><time>2026-03-26T17:45:56.999Z</time></trkpt><trkpt lat="40.941880453824396" lon="14.492669598502257"><ele>29.0</ele><time>2026-03-26T17:45:57.999Z</time></trkpt><trkpt lat="40.94177572515472" lon="14.492856848297723"><ele>29.333333333333332</ele><time>2026-03-26T17:45:58.999Z</time></trkpt><trkpt lat="40.941672798633064" lon="14.493036983967393"><ele>29.666666666666664</ele><time>2026-03-26T17:45:59.999Z</time></trkpt><trkpt lat="40.94156633697678" lon="14.493220331831486"><ele>30.0</ele><time>2026-03-26T17:46:00.999Z</time></trkpt><trkpt lat="40.941458802499504" lon="14.493406487527196"><ele>30.0</ele><time>2026-03-26T17:46:01.999Z</time></trkpt><trkpt lat="40.941349845253164" lon="14.493596107878128"><ele>30.0</ele><time>2026-03-26T17:46:02.999Z</time></trkpt><trkpt lat="40.9412394785983" lon="14.493789085661854"><ele>30.0</ele><time>2026-03-26T17:46:03.999Z</time></trkpt><trkpt lat="40.94112934608363" lon="14.493983971603468"><ele>30.0</ele><time>2026-03-26T17:46:04.999Z</time></trkpt><trkpt lat="40.94101731590037" lon="14.494180784155258"><ele>30.0</ele><time>2026-03-26T17:46:05.999Z</time></trkpt><trkpt lat="40.94090464748308" lon="14.494378317850463"><ele>30.0</ele><time>2026-03-26T17:46:06.999Z</time></trkpt><trkpt lat="40.940791264087224" lon="14.494578120404004"><ele>29.666666666666664</ele><time>2026-03-26T17:46:07.999Z</time></trkpt><trkpt lat="40.94067850916895" lon="14.494777035153492"><ele>29.333333333333332</ele><time>2026-03-26T17:46:08.999Z</time></trkpt><trkpt lat="40.94056859050131" lon="14.494969183339197"><ele>29.0</ele><time>2026-03-26T17:46:09.999Z</time></trkpt><trkpt lat="40.940463149611524" lon="14.495149605187818"><ele>29.0</ele><time>2026-03-26T17:46:10.999Z</time></trkpt><trkpt lat="40.940359230610525" lon="14.495326142252683"><ele>29.0</ele><time>2026-03-26T17:46:11.999Z</time></trkpt><trkpt lat="40.94025799017443" lon="14.495502599623595"><ele>29.0</ele><time>2026-03-26T17:46:12.999Z</time></trkpt><trkpt lat="40.940155288427434" lon="14.495682302167495"><ele>29.0</ele><time>2026-03-26T17:46:13.999Z</time></trkpt><trkpt lat="40.94005165329243" lon="14.49586113821336"><ele>29.0</ele><time>2026-03-26T17:46:14.999Z</time></trkpt><trkpt lat="40.939946232938404" lon="14.496042382438546"><ele>29.0</ele><time>2026-03-26T17:46:15.999Z</time></trkpt><trkpt lat="40.93983915537683" lon="14.496224762780487"><ele>29.0</ele><time>2026-03-26T17:46:16.999Z</time></trkpt><trkpt lat="40.93972917651961" lon="14.496407921866908"><ele>29.0</ele><time>2026-03-26T17:46:17.999Z</time></trkpt><trkpt lat="40.93961654664257" lon="14.496594643499632"><ele>29.0</ele><time>2026-03-26T17:46:18.999Z</time></trkpt><trkpt lat="40.939503171000055" lon="14.496786826258763"><ele>29.0</ele><time>2026-03-26T17:46:19.999Z</time></trkpt><trkpt lat="40.93939088023739" lon="14.496981668476764"><ele>29.0</ele><time>2026-03-26T17:46:20.999Z</time></trkpt><trkpt lat="40.93927752813827" lon="14.497176683574954"><ele>29.0</ele><time>2026-03-26T17:46:21.999Z</time></trkpt><trkpt lat="40.939167342635514" lon="14.497361702757763"><ele>29.0</ele><time>2026-03-26T17:46:22.999Z</time></trkpt><trkpt lat="40.939056331367844" lon="14.497538714775327"><ele>29.0</ele><time>2026-03-26T17:46:23.999Z</time></trkpt><trkpt lat="40.938945484714985" lon="14.497705624743364"><ele>29.0</ele><time>2026-03-26T17:46:24.999Z</time></trkpt><trkpt lat="40.93883495948824" lon="14.497859493623752"><ele>29.333333333333332</ele><time>2026-03-26T17:46:25.999Z</time></trkpt><trkpt lat="40.938720134955396" lon="14.4980091755889"><ele>29.666666666666664</ele><time>2026-03-26T17:46:26.999Z</time></trkpt><trkpt lat="40.93860302711571" lon="14.498149604515733"><ele>30.0</ele><time>2026-03-26T17:46:27.999Z</time></trkpt><trkpt lat="40.9384802554943" lon="14.498287203252191"><ele>30.333333333333336</ele><time>2026-03-26T17:46:28.999Z</time></trkpt><trkpt lat="40.93835116854569" lon="14.498422318068602"><ele>30.666666666666668</ele><time>2026-03-26T17:46:29.999Z</time></trkpt><trkpt lat="40.938218783063995" lon="14.49855255512821"><ele>31.0</ele><time>2026-03-26T17:46:30.999Z</time></trkpt><trkpt lat="40.938085761972914" lon="14.49867465554888"><ele>30.75</ele><time>2026-03-26T17:46:31.999Z</time></trkpt><trkpt lat="40.93795397473091" lon="14.498787533100124"><ele>30.5</ele><time>2026-03-26T17:46:32.999Z</time></trkpt><trkpt lat="40.93782795356528" lon="14.498884015855781"><ele>30.25</ele><time>2026-03-26T17:46:33.999Z</time></trkpt><trkpt lat="40.93771161766016" lon="14.498960884150314"><ele>30.0</ele><time>2026-03-26T17:46:34.999Z</time></trkpt><trkpt lat="40.93760526839645" lon="14.499026353422211"><ele>30.8</ele><time>2026-03-26T17:46:35.999Z</time></trkpt><trkpt lat="40.937510357693185" lon="14.49908579205877"><ele>31.6</ele><time>2026-03-26T17:46:36.999Z</time></trkpt><trkpt lat="40.9374222320351" lon="14.49913523141834"><ele>32.4</ele><time>2026-03-26T17:46:37.999Z</time></trkpt><trkpt lat="40.93732991847463" lon="14.499176138163152"><ele>33.2</ele><time>2026-03-26T17:46:38.999Z</time></trkpt><trkpt lat="40.93724218055661" lon="14.49919759792862"><ele>34.0</ele><time>2026-03-26T17:46:39.999Z</time></trkpt><trkpt lat="40.937147677474485" lon="14.499202159717788"><ele>34.0</ele><time>2026-03-26T17:46:40.999Z</time></trkpt><trkpt lat="40.9370475245365" lon="14.499193633179106"><ele>34.0</ele><time>2026-03-26T17:46:41.999Z</time></trkpt><trkpt lat="40.936942674532034" lon="14.4991622829733"><ele>34.0</ele><time>2026-03-26T17:46:42.999Z</time></trkpt><trkpt lat="40.93684713081604" lon="14.49911278707191"><ele>34.0</ele><time>2026-03-26T17:46:43.999Z</time></trkpt><trkpt lat="40.936764622487075" lon="14.49904193699179"><ele>34.0</ele><time>2026-03-26T17:46:44.999Z</time></trkpt><trkpt lat="40.936690724597526" lon="14.498951515181414"><ele>33.8</ele><time>2026-03-26T17:46:45.999Z</time></trkpt><trkpt lat="40.93662343390597" lon="14.498844959669713"><ele>33.599999999999994</ele><time>2026-03-26T17:46:46.999Z</time></trkpt><trkpt lat="40.936570489431645" lon="14.498728393907452"><ele>33.4</ele><time>2026-03-26T17:46:47.999Z</time></trkpt><trkpt lat="40.9365372697548" lon="14.498601580319733"><ele>33.199999999999996</ele><time>2026-03-26T17:46:48.999Z</time></trkpt><trkpt lat="40.93652485350651" lon="14.498467722873404"><ele>33.0</ele><time>2026-03-26T17:46:49.999Z</time></trkpt><trkpt lat="40.93653008434392" lon="14.498334473461346"><ele>32.6</ele><time>2026-03-26T17:46:50.999Z</time></trkpt><trkpt lat="40.93654118533485" lon="14.49819988371099"><ele>32.199999999999996</ele><time>2026-03-26T17:46:51.999Z</time></trkpt><trkpt lat="40.93655966848956" lon="14.498069518986428"><ele>31.8</ele><time>2026-03-26T17:46:52.999Z</time></trkpt><trkpt lat="40.936569457789744" lon="14.497932786747906"><ele>31.4</ele><time>2026-03-26T17:46:53.999Z</time></trkpt><trkpt lat="40.936563860320504" lon="14.497800242304058"><ele>31.0</ele><time>2026-03-26T17:46:54.999Z</time></trkpt><trkpt lat="40.93665903606144" lon="14.497669887670185"><ele>31.000000000000004</ele><time>2026-03-26T17:46:55.999Z</time></trkpt><trkpt lat="40.93669864580215" lon="14.497551939087419"><ele>31.0</ele><time>2026-03-26T17:46:56.999Z</time></trkpt><trkpt lat="40.93673806639651" lon="14.497439333850322"><ele>31.0</ele><time>2026-03-26T17:46:57.999Z</time></trkpt><trkpt lat="40.9367761513316" lon="14.497336960771426"><ele>31.0</ele><time>2026-03-26T17:46:58.999Z</time></trkpt><trkpt lat="40.93681215824943" lon="14.497246584901406"><ele>31.000000000000004</ele><time>2026-03-26T17:46:59.999Z</time></trkpt><trkpt lat="40.93684599174383" lon="14.49716242768044"><ele>31.0</ele><time>2026-03-26T17:47:00.999Z</time></trkpt><trkpt lat="40.93687726414549" lon="14.497082829643693"><ele>30.833333333333336</ele><time>2026-03-26T17:47:01.999Z</time></trkpt><trkpt lat="40.93690767176606" lon="14.497001745317572"><ele>30.666666666666668</ele><time>2026-03-26T17:47:02.999Z</time></trkpt><trkpt lat="40.93694149166517" lon="14.49691751967876"><ele>30.5</ele><time>2026-03-26T17:47:03.999Z</time></trkpt><trkpt lat="40.93697619893064" lon="14.496840604387286"><ele>30.333333333333336</ele><time>2026-03-26T17:47:04.999Z</time></trkpt><trkpt lat="40.93700592435208" lon="14.49671309057536"><ele>30.166666666666668</ele><time>2026-03-26T17:47:06.999Z</time></trkpt><trkpt lat="40.93703964849474" lon="14.496616881213615"><ele>30.0</ele><time>2026-03-26T17:47:08.999Z</time></trkpt><trkpt lat="40.93707762048032" lon="14.496508036993434"><ele>30.0</ele><time>2026-03-26T17:47:10.999Z</time></trkpt><trkpt lat="40.93713028479796" lon="14.496359348181784"><ele>30.0</ele><time>2026-03-26T17:47:12.999Z</time></trkpt><trkpt lat="40.937165736843305" lon="14.496260600670988"><ele>30.0</ele><time>2026-03-26T17:47:13.999Z</time></trkpt><trkpt lat="40.93720502733034" lon="14.49615312416332"><ele>30.0</ele><time>2026-03-26T17:47:14.999Z</time></trkpt><trkpt lat="40.937248223673784" lon="14.496037780737034"><ele>30.0</ele><time>2026-03-26T17:47:15.999Z</time></trkpt><trkpt lat="40.93728660285021" lon="14.495915365237776"><ele>29.75</ele><time>2026-03-26T17:47:16.999Z</time></trkpt><trkpt lat="40.93731567597682" lon="14.495771075096659"><ele>29.5</ele><time>2026-03-26T17:47:17.999Z</time></trkpt><trkpt lat="40.93735293636346" lon="14.49561559585463"><ele>29.25</ele><time>2026-03-26T17:47:18.999Z</time></trkpt><trkpt lat="40.93739847845353" lon="14.49545373232248"><ele>29.0</ele><time>2026-03-26T17:47:19.999Z</time></trkpt><trkpt lat="40.937449601519035" lon="14.495288634133212"><ele>29.0</ele><time>2026-03-26T17:47:20.999Z</time></trkpt><trkpt lat="40.937499873641386" lon="14.495124812664649"><ele>29.0</ele><time>2026-03-26T17:47:21.999Z</time></trkpt><trkpt lat="40.937541588130244" lon="14.49495980852994"><ele>29.0</ele><time>2026-03-26T17:47:22.999Z</time></trkpt><trkpt lat="40.93757116325333" lon="14.494791684498084"><ele>29.0</ele><time>2026-03-26T17:47:23.999Z</time></trkpt><trkpt lat="40.93758789859196" lon="14.494629995585484"><ele>29.0</ele><time>2026-03-26T17:47:24.999Z</time></trkpt><trkpt lat="40.93759388909527" lon="14.494473478464114"><ele>29.0</ele><time>2026-03-26T17:47:25.999Z</time></trkpt><trkpt lat="40.93758945532582" lon="14.49431830586963"><ele>29.0</ele><time>2026-03-26T17:47:26.999Z</time></trkpt><trkpt lat="40.937575893851935" lon="14.49417251666699"><ele>29.0</ele><time>2026-03-26T17:47:27.999Z</time></trkpt><trkpt lat="40.937555611236775" lon="14.494026010420667"><ele>29.25</ele><time>2026-03-26T17:47:28.999Z</time></trkpt><trkpt lat="40.93752646357378" lon="14.493880536352826"><ele>29.5</ele><time>2026-03-26T17:47:29.999Z</time></trkpt><trkpt lat="40.93748943385727" lon="14.493741154032051"><ele>29.75</ele><time>2026-03-26T17:47:30.999Z</time></trkpt><trkpt lat="40.93744456564057" lon="14.493605954951736"><ele>30.0</ele><time>2026-03-26T17:47:31.999Z</time></trkpt><trkpt lat="40.937392980719075" lon="14.493472718025403"><ele>30.2</ele><time>2026-03-26T17:47:32.999Z</time></trkpt><trkpt lat="40.9373419785633" lon="14.49334633374205"><ele>30.4</ele><time>2026-03-26T17:47:33.999Z</time></trkpt><trkpt lat="40.93729439729563" lon="14.493229482010186"><ele>30.6</ele><time>2026-03-26T17:47:34.999Z</time></trkpt><trkpt lat="40.93725102490149" lon="14.493124195389525"><ele>30.8</ele><time>2026-03-26T17:47:35.999Z</time></trkpt><trkpt lat="40.937211048922094" lon="14.493024595211102"><ele>31.0</ele><time>2026-03-26T17:47:36.999Z</time></trkpt><trkpt lat="40.93717206611073" lon="14.492925670159197"><ele>31.166666666666668</ele><time>2026-03-26T17:47:37.999Z</time></trkpt><trkpt lat="40.937126881046666" lon="14.492816037633574"><ele>31.333333333333336</ele><time>2026-03-26T17:47:38.999Z</time></trkpt><trkpt lat="40.937084351077225" lon="14.492711055839399"><ele>31.5</ele><time>2026-03-26T17:47:39.999Z</time></trkpt><trkpt lat="40.93704272124742" lon="14.492610244744212"><ele>31.666666666666664</ele><time>2026-03-26T17:47:40.999Z</time></trkpt><trkpt lat="40.93700798220959" lon="14.492510503231623"><ele>31.833333333333332</ele><time>2026-03-26T17:47:41.999Z</time></trkpt><trkpt lat="40.93697631990704" lon="14.492403983541921"><ele>32.0</ele><time>2026-03-26T17:47:42.999Z</time></trkpt><trkpt lat="40.93694362024443" lon="14.492289377467388"><ele>31.999999999999996</ele><time>2026-03-26T17:47:43.999Z</time></trkpt><trkpt lat="40.93691330445213" lon="14.49217093390486"><ele>32.0</ele><time>2026-03-26T17:47:44.999Z</time></trkpt><trkpt lat="40.9368880375085" lon="14.492057509116753"><ele>32.0</ele><time>2026-03-26T17:47:45.999Z</time></trkpt><trkpt lat="40.93687303925778" lon="14.491953843300536"><ele>32.0</ele><time>2026-03-26T17:47:46.999Z</time></trkpt><trkpt lat="40.936876717464884" lon="14.491856927946163"><ele>31.999999999999996</ele><time>2026-03-26T17:47:47.999Z</time></trkpt><trkpt lat="40.93689287265961" lon="14.491754838774417"><ele>32.0</ele><time>2026-03-26T17:47:48.999Z</time></trkpt><trkpt lat="40.936925628976105" lon="14.491652627138482"><ele>31.999999999999996</ele><time>2026-03-26T17:47:49.999Z</time></trkpt><trkpt lat="40.93697221696719" lon="14.491559654985778"><ele>32.0</ele><time>2026-03-26T17:47:50.999Z</time></trkpt><trkpt lat="40.937030971610994" lon="14.491484128954955"><ele>32.0</ele><time>2026-03-26T17:47:51.999Z</time></trkpt><trkpt lat="40.937095844877824" lon="14.49142707035973"><ele>32.0</ele><time>2026-03-26T17:47:52.999Z</time></trkpt><trkpt lat="40.93716646914059" lon="14.491382607202763"><ele>31.999999999999996</ele><time>2026-03-26T17:47:53.999Z</time></trkpt><trkpt lat="40.93723834778592" lon="14.491354945384037"><ele>32.0</ele><time>2026-03-26T17:47:54.999Z</time></trkpt><trkpt lat="40.9373051107158" lon="14.491352998869639"><ele>31.999999999999996</ele><time>2026-03-26T17:47:55.999Z</time></trkpt><trkpt lat="40.937430183963706" lon="14.49139162993071"><ele>32.0</ele><time>2026-03-26T17:47:57.999Z</time></trkpt><trkpt lat="40.93748628598679" lon="14.491440337023036"><ele>32.0</ele><time>2026-03-26T17:47:58.999Z</time></trkpt><trkpt lat="40.937538972690206" lon="14.491506387996717"><ele>32.0</ele><time>2026-03-26T17:47:59.999Z</time></trkpt><trkpt lat="40.93758893153557" lon="14.491588928380013"><ele>31.999999999999996</ele><time>2026-03-26T17:48:00.999Z</time></trkpt><trkpt lat="40.93762207028665" lon="14.49169517177467"><ele>32.0</ele><time>2026-03-26T17:48:01.999Z</time></trkpt><trkpt lat="40.93764116125647" lon="14.491810725298674"><ele>31.999999999999996</ele><time>2026-03-26T17:48:02.999Z</time></trkpt><trkpt lat="40.9376430377469" lon="14.49192592132058"><ele>32.0</ele><time>2026-03-26T17:48:03.999Z</time></trkpt><trkpt lat="40.93762922217827" lon="14.492034389994938"><ele>32.0</ele><time>2026-03-26T17:48:04.999Z</time></trkpt><trkpt lat="40.93759725308527" lon="14.492142408188176"><ele>32.0</ele><time>2026-03-26T17:48:05.999Z</time></trkpt><trkpt lat="40.937548278186604" lon="14.492245171338617"><ele>31.999999999999996</ele><time>2026-03-26T17:48:06.999Z</time></trkpt><trkpt lat="40.93748745412767" lon="14.49233713509593"><ele>32.0</ele><time>2026-03-26T17:48:07.999Z</time></trkpt><trkpt lat="40.93741919040007" lon="14.492423033461575"><ele>32.0</ele><time>2026-03-26T17:48:08.999Z</time></trkpt><trkpt lat="40.93733740620711" lon="14.492503592030733"><ele>32.0</ele><time>2026-03-26T17:48:09.999Z</time></trkpt><trkpt lat="40.93724409736017" lon="14.49257931704224"><ele>32.0</ele><time>2026-03-26T17:48:10.999Z</time></trkpt><trkpt lat="40.93714114228028" lon="14.492656070420567"><ele>32.0</ele><time>2026-03-26T17:48:11.999Z</time></trkpt><trkpt lat="40.93702942880981" lon="14.492735321042826"><ele>32.0</ele><time>2026-03-26T17:48:12.999Z</time></trkpt><trkpt lat="40.93691188182502" lon="14.492817703762144"><ele>32.0</ele><time>2026-03-26T17:48:13.999Z</time></trkpt><trkpt lat="40.936793540696264" lon="14.49290281175984"><ele>32.0</ele><time>2026-03-26T17:48:14.999Z</time></trkpt><trkpt lat="40.936676758516704" lon="14.49299003750414"><ele>32.0</ele><time>2026-03-26T17:48:15.999Z</time></trkpt><trkpt lat="40.93655800952264" lon="14.493079677480111"><ele>32.25</ele><time>2026-03-26T17:48:16.999Z</time></trkpt><trkpt lat="40.93643902500295" lon="14.493168597231849"><ele>32.5</ele><time>2026-03-26T17:48:17.999Z</time></trkpt><trkpt lat="40.93632188567368" lon="14.493256696612537"><ele>32.75</ele><time>2026-03-26T17:48:18.999Z</time></trkpt><trkpt lat="40.93620829462565" lon="14.49334209504524"><ele>33.0</ele><time>2026-03-26T17:48:19.999Z</time></trkpt><trkpt lat="40.93609504713699" lon="14.49342823319153"><ele>33.0</ele><time>2026-03-26T17:48:20.999Z</time></trkpt><trkpt lat="40.935979690134914" lon="14.493520874614363"><ele>33.0</ele><time>2026-03-26T17:48:21.999Z</time></trkpt><trkpt lat="40.93585859173878" lon="14.493620040216005"><ele>33.0</ele><time>2026-03-26T17:48:22.999Z</time></trkpt><trkpt lat="40.93573056218995" lon="14.493725581606409"><ele>33.0</ele><time>2026-03-26T17:48:23.999Z</time></trkpt><trkpt lat="40.935594577158355" lon="14.49382858903041"><ele>32.666666666666664</ele><time>2026-03-26T17:48:24.999Z</time></trkpt><trkpt lat="40.93545319057749" lon="14.493927934585296"><ele>32.33333333333333</ele><time>2026-03-26T17:48:25.999Z</time></trkpt><trkpt lat="40.935311291515674" lon="14.494027668485026"><ele>32.0</ele><time>2026-03-26T17:48:26.999Z</time></trkpt><trkpt lat="40.93516864686749" lon="14.494125839745507"><ele>31.666666666666664</ele><time>2026-03-26T17:48:27.999Z</time></trkpt><trkpt lat="40.93502355410934" lon="14.494228609908646"><ele>31.333333333333336</ele><time>2026-03-26T17:48:28.999Z</time></trkpt><trkpt lat="40.93487554180748" lon="14.494336465497009"><ele>31.0</ele><time>2026-03-26T17:48:29.999Z</time></trkpt><trkpt lat="40.93472246230777" lon="14.494444263360936"><ele>31.0</ele><time>2026-03-26T17:48:30.999Z</time></trkpt><trkpt lat="40.934562518076284" lon="14.494558041740738"><ele>31.0</ele><time>2026-03-26T17:48:31.999Z</time></trkpt><trkpt lat="40.934392891525086" lon="14.494674458330392"><ele>31.0</ele><time>2026-03-26T17:48:32.999Z</time></trkpt><trkpt lat="40.934218068146635" lon="14.494794949844152"><ele>31.333333333333336</ele><time>2026-03-26T17:48:33.999Z</time></trkpt><trkpt lat="40.93403763408197" lon="14.494921372241718"><ele>31.666666666666664</ele><time>2026-03-26T17:48:34.999Z</time></trkpt><trkpt lat="40.933852236346695" lon="14.495050675925176"><ele>32.0</ele><time>2026-03-26T17:48:35.999Z</time></trkpt><trkpt lat="40.93366334458254" lon="14.495181681637495"><ele>32.0</ele><time>2026-03-26T17:48:36.999Z</time></trkpt><trkpt lat="40.93347190588486" lon="14.495316361063486"><ele>32.0</ele><time>2026-03-26T17:48:37.999Z</time></trkpt><trkpt lat="40.93327647253676" lon="14.49545512077379"><ele>32.0</ele><time>2026-03-26T17:48:38.999Z</time></trkpt><trkpt lat="40.93307775091955" lon="14.495594479859108"><ele>31.5</ele><time>2026-03-26T17:48:39.999Z</time></trkpt><trkpt lat="40.932875676934295" lon="14.495734009249569"><ele>31.0</ele><time>2026-03-26T17:48:40.999Z</time></trkpt><trkpt lat="40.9326712960726" lon="14.495875720827"><ele>32.5</ele><time>2026-03-26T17:48:41.999Z</time></trkpt><trkpt lat="40.9324635024824" lon="14.496020420068966"><ele>34.0</ele><time>2026-03-26T17:48:42.999Z</time></trkpt><trkpt lat="40.932251870893104" lon="14.496167278441282"><ele>32.5</ele><time>2026-03-26T17:48:43.999Z</time></trkpt><trkpt lat="40.93203853447254" lon="14.496314167991413"><ele>31.0</ele><time>2026-03-26T17:48:44.999Z</time></trkpt><trkpt lat="40.93182389216082" lon="14.496462139548054"><ele>33.0</ele><time>2026-03-26T17:48:45.999Z</time></trkpt><trkpt lat="40.93161139540529" lon="14.49661017026527"><ele>35.0</ele><time>2026-03-26T17:48:46.999Z</time></trkpt><trkpt lat="40.9313958349239" lon="14.496761565818609"><ele>35.0</ele><time>2026-03-26T17:48:47.999Z</time></trkpt><trkpt lat="40.93118009318924" lon="14.49691587707685"><ele>35.0</ele><time>2026-03-26T17:48:48.999Z</time></trkpt><trkpt lat="40.93096363189097" lon="14.497070934095657"><ele>35.5</ele><time>2026-03-26T17:48:49.999Z</time></trkpt><trkpt lat="40.9307437071204" lon="14.49722613536788"><ele>36.0</ele><time>2026-03-26T17:48:50.999Z</time></trkpt><trkpt lat="40.930522294666886" lon="14.49738084217907"><ele>36.0</ele><time>2026-03-26T17:48:51.999Z</time></trkpt><trkpt lat="40.93029779834465" lon="14.497535100444473"><ele>36.0</ele><time>2026-03-26T17:48:52.999Z</time></trkpt><trkpt lat="40.930071952852785" lon="14.497690958495665"><ele>37.0</ele><time>2026-03-26T17:48:53.999Z</time></trkpt><trkpt lat="40.92984693456163" lon="14.497850856750333"><ele>38.0</ele><time>2026-03-26T17:48:54.999Z</time></trkpt><trkpt lat="40.929624892000774" lon="14.498014616067522"><ele>38.0</ele><time>2026-03-26T17:48:55.999Z</time></trkpt><trkpt lat="40.929397133726816" lon="14.498173526706166"><ele>38.0</ele><time>2026-03-26T17:48:56.999Z</time></trkpt><trkpt lat="40.92916915191472" lon="14.498332597720143"><ele>38.0</ele><time>2026-03-26T17:48:57.999Z</time></trkpt><trkpt lat="40.92894248207712" lon="14.49848692645582"><ele>38.0</ele><time>2026-03-26T17:48:58.999Z</time></trkpt><trkpt lat="40.928711310143676" lon="14.498645023694626"><ele>37.5</ele><time>2026-03-26T17:48:59.999Z</time></trkpt><trkpt lat="40.928487078231555" lon="14.498813845945735"><ele>37.0</ele><time>2026-03-26T17:49:00.999Z</time></trkpt><trkpt lat="40.928255574297815" lon="14.498969713940415"><ele>37.0</ele><time>2026-03-26T17:49:01.999Z</time></trkpt><trkpt lat="40.92802473142147" lon="14.499129684143611"><ele>37.0</ele><time>2026-03-26T17:49:02.999Z</time></trkpt><trkpt lat="40.92779737702092" lon="14.499293278635959"><ele>37.0</ele><time>2026-03-26T17:49:03.999Z</time></trkpt><trkpt lat="40.927570770387085" lon="14.499456767935122"><ele>37.0</ele><time>2026-03-26T17:49:04.999Z</time></trkpt><trkpt lat="40.92734397003059" lon="14.499618176687864"><ele>37.5</ele><time>2026-03-26T17:49:05.999Z</time></trkpt><trkpt lat="40.92711868699764" lon="14.499777024293694"><ele>38.0</ele><time>2026-03-26T17:49:06.999Z</time></trkpt><trkpt lat="40.92689164609413" lon="14.499938094730526"><ele>36.5</ele><time>2026-03-26T17:49:07.999Z</time></trkpt><trkpt lat="40.92666581971529" lon="14.500098127642532"><ele>35.0</ele><time>2026-03-26T17:49:08.999Z</time></trkpt><trkpt lat="40.92644073692591" lon="14.500255654047937"><ele>35.0</ele><time>2026-03-26T17:49:09.999Z</time></trkpt><trkpt lat="40.92621841172459" lon="14.500412970140227"><ele>35.0</ele><time>2026-03-26T17:49:10.999Z</time></trkpt><trkpt lat="40.92599929956328" lon="14.500570842992959"><ele>35.0</ele><time>2026-03-26T17:49:11.999Z</time></trkpt><trkpt lat="40.925783564471644" lon="14.50073044724054"><ele>35.0</ele><time>2026-03-26T17:49:12.999Z</time></trkpt><trkpt lat="40.925569967577104" lon="14.500897917807546"><ele>35.0</ele><time>2026-03-26T17:49:13.999Z</time></trkpt><trkpt lat="40.92535688962063" lon="14.50107332608602"><ele>35.0</ele><time>2026-03-26T17:49:14.999Z</time></trkpt><trkpt lat="40.92514496816034" lon="14.501256617701943"><ele>34.0</ele><time>2026-03-26T17:49:15.999Z</time></trkpt><trkpt lat="40.92493398461041" lon="14.501447265072317"><ele>33.0</ele><time>2026-03-26T17:49:16.999Z</time></trkpt><trkpt lat="40.92472236328657" lon="14.501642187494575"><ele>33.0</ele><time>2026-03-26T17:49:17.999Z</time></trkpt><trkpt lat="40.9245109954552" lon="14.501838882992335"><ele>33.0</ele><time>2026-03-26T17:49:18.999Z</time></trkpt><trkpt lat="40.924300163180085" lon="14.502039710050624"><ele>34.0</ele><time>2026-03-26T17:49:19.999Z</time></trkpt><trkpt lat="40.924089921405574" lon="14.502245068509655"><ele>35.0</ele><time>2026-03-26T17:49:20.999Z</time></trkpt><trkpt lat="40.92388360698566" lon="14.502455180836252"><ele>35.0</ele><time>2026-03-26T17:49:21.999Z</time></trkpt><trkpt lat="40.92368451005752" lon="14.502669897122239"><ele>35.0</ele><time>2026-03-26T17:49:22.999Z</time></trkpt><trkpt lat="40.92348718777158" lon="14.502890469206859"><ele>35.5</ele><time>2026-03-26T17:49:23.999Z</time></trkpt><trkpt lat="40.92329176070767" lon="14.503116708237043"><ele>36.0</ele><time>2026-03-26T17:49:24.999Z</time></trkpt><trkpt lat="40.923098712358815" lon="14.50334792757407"><ele>36.0</ele><time>2026-03-26T17:49:25.999Z</time></trkpt><trkpt lat="40.922907125415215" lon="14.503582399040932"><ele>36.0</ele><time>2026-03-26T17:49:26.999Z</time></trkpt><trkpt lat="40.92271927956131" lon="14.503817241160787"><ele>35.0</ele><time>2026-03-26T17:49:27.999Z</time></trkpt><trkpt lat="40.922532692830174" lon="14.504054804225675"><ele>34.0</ele><time>2026-03-26T17:49:28.999Z</time></trkpt><trkpt lat="40.922346582181646" lon="14.504289769832681"><ele>34.0</ele><time>2026-03-26T17:49:29.999Z</time></trkpt><trkpt lat="40.922161167654394" lon="14.504528722443622"><ele>34.0</ele><time>2026-03-26T17:49:30.999Z</time></trkpt><trkpt lat="40.9219808424307" lon="14.504774488870058"><ele>34.0</ele><time>2026-03-26T17:49:31.999Z</time></trkpt><trkpt lat="40.921805817525204" lon="14.505025174522558"><ele>34.0</ele><time>2026-03-26T17:49:32.999Z</time></trkpt><trkpt lat="40.921636425783326" lon="14.505278487932722"><ele>34.0</ele><time>2026-03-26T17:49:33.999Z</time></trkpt><trkpt lat="40.92147236888085" lon="14.505533784060967"><ele>34.0</ele><time>2026-03-26T17:49:34.999Z</time></trkpt><trkpt lat="40.921313298675905" lon="14.50579145528681"><ele>34.0</ele><time>2026-03-26T17:49:35.999Z</time></trkpt><trkpt lat="40.921159049602416" lon="14.506049309275552"><ele>34.0</ele><time>2026-03-26T17:49:36.999Z</time></trkpt><trkpt lat="40.921006481564234" lon="14.50631323071824"><ele>33.5</ele><time>2026-03-26T17:49:37.999Z</time></trkpt><trkpt lat="40.920855624079486" lon="14.506584316101724"><ele>33.0</ele><time>2026-03-26T17:49:38.999Z</time></trkpt><trkpt lat="40.92070751467542" lon="14.506862634801633"><ele>34.5</ele><time>2026-03-26T17:49:39.999Z</time></trkpt><trkpt lat="40.92056120063704" lon="14.507149060408885"><ele>36.0</ele><time>2026-03-26T17:49:40.999Z</time></trkpt><trkpt lat="40.920420629504214" lon="14.507441950391398"><ele>36.0</ele><time>2026-03-26T17:49:41.999Z</time></trkpt><trkpt lat="40.920284630815694" lon="14.507741589896334"><ele>36.0</ele><time>2026-03-26T17:49:42.999Z</time></trkpt><trkpt lat="40.92015118066076" lon="14.508044742314173"><ele>34.5</ele><time>2026-03-26T17:49:43.999Z</time></trkpt><trkpt lat="40.92001848637479" lon="14.508348026746475"><ele>33.0</ele><time>2026-03-26T17:49:44.999Z</time></trkpt><trkpt lat="40.919888126657376" lon="14.508651407868983"><ele>33.5</ele><time>2026-03-26T17:49:45.999Z</time></trkpt><trkpt lat="40.919762908596" lon="14.508955971542287"><ele>34.0</ele><time>2026-03-26T17:49:46.999Z</time></trkpt><trkpt lat="40.91964155107373" lon="14.509264782960964"><ele>33.5</ele><time>2026-03-26T17:49:47.999Z</time></trkpt><trkpt lat="40.91952412709323" lon="14.509579891165926"><ele>33.0</ele><time>2026-03-26T17:49:48.999Z</time></trkpt><trkpt lat="40.919408757567574" lon="14.509899064940507"><ele>33.0</ele><time>2026-03-26T17:49:49.999Z</time></trkpt><trkpt lat="40.91929666334807" lon="14.510222547385611"><ele>33.0</ele><time>2026-03-26T17:49:50.999Z</time></trkpt><trkpt lat="40.91918711614912" lon="14.510557159317033"><ele>33.0</ele><time>2026-03-26T17:49:51.999Z</time></trkpt><trkpt lat="40.91907938763386" lon="14.510898815248044"><ele>33.0</ele><time>2026-03-26T17:49:52.999Z</time></trkpt><trkpt lat="40.91897325968895" lon="14.51124577955338"><ele>33.0</ele><time>2026-03-26T17:49:53.999Z</time></trkpt><trkpt lat="40.91886838379007" lon="14.511596860676148"><ele>33.0</ele><time>2026-03-26T17:49:54.999Z</time></trkpt><trkpt lat="40.91876218540214" lon="14.511949329910662"><ele>33.0</ele><time>2026-03-26T17:49:55.999Z</time></trkpt><trkpt lat="40.918653484711534" lon="14.512304009909156"><ele>33.0</ele><time>2026-03-26T17:49:56.999Z</time></trkpt><trkpt lat="40.91854508616442" lon="14.512655688227323"><ele>33.0</ele><time>2026-03-26T17:49:57.999Z</time></trkpt><trkpt lat="40.91843596084764" lon="14.51300729595558"><ele>33.0</ele><time>2026-03-26T17:49:58.999Z</time></trkpt><trkpt lat="40.91832965864809" lon="14.513357155989848"><ele>34.5</ele><time>2026-03-26T17:49:59.999Z</time></trkpt><trkpt lat="40.91822044338243" lon="14.513706768667278"><ele>36.0</ele><time>2026-03-26T17:50:00.999Z</time></trkpt><trkpt lat="40.91811213484556" lon="14.51405543791541"><ele>36.0</ele><time>2026-03-26T17:50:01.999Z</time></trkpt><trkpt lat="40.918006916316976" lon="14.514399850427582"><ele>36.0</ele><time>2026-03-26T17:50:02.999Z</time></trkpt><trkpt lat="40.917902080304266" lon="14.51474382602057"><ele>36.0</ele><time>2026-03-26T17:50:03.999Z</time></trkpt><trkpt lat="40.917797184440296" lon="14.515086820448069"><ele>36.0</ele><time>2026-03-26T17:50:04.999Z</time></trkpt><trkpt lat="40.917693581425404" lon="14.515427957287956"><ele>36.0</ele><time>2026-03-26T17:50:05.999Z</time></trkpt><trkpt lat="40.917589949308116" lon="14.515769425064484"><ele>36.0</ele><time>2026-03-26T17:50:06.999Z</time></trkpt><trkpt lat="40.917486493621226" lon="14.516112929406287"><ele>36.0</ele><time>2026-03-26T17:50:07.999Z</time></trkpt><trkpt lat="40.91738423734987" lon="14.516452663014666"><ele>36.0</ele><time>2026-03-26T17:50:08.999Z</time></trkpt><trkpt lat="40.91728119731424" lon="14.516792186785567"><ele>36.5</ele><time>2026-03-26T17:50:09.999Z</time></trkpt><trkpt lat="40.917177772803015" lon="14.517129268617552"><ele>37.0</ele><time>2026-03-26T17:50:10.999Z</time></trkpt><trkpt lat="40.91707274601948" lon="14.517467165810588"><ele>37.0</ele><time>2026-03-26T17:50:11.999Z</time></trkpt><trkpt lat="40.91696776265579" lon="14.517805461300165"><ele>37.0</ele><time>2026-03-26T17:50:12.999Z</time></trkpt><trkpt lat="40.91686282355795" lon="14.518143882556917"><ele>37.0</ele><time>2026-03-26T17:50:13.999Z</time></trkpt><trkpt lat="40.91675755935496" lon="14.518483200901693"><ele>37.0</ele><time>2026-03-26T17:50:14.999Z</time></trkpt><trkpt lat="40.9166528661121" lon="14.518822239090003"><ele>37.0</ele><time>2026-03-26T17:50:15.999Z</time></trkpt><trkpt lat="40.91654630526525" lon="14.519163555223495"><ele>37.0</ele><time>2026-03-26T17:50:16.999Z</time></trkpt><trkpt lat="40.91643911370668" lon="14.519503300716748"><ele>37.0</ele><time>2026-03-26T17:50:17.999Z</time></trkpt><trkpt lat="40.91632674823478" lon="14.519842582563982"><ele>37.0</ele><time>2026-03-26T17:50:18.999Z</time></trkpt><trkpt lat="40.91620969880529" lon="14.520180609426069"><ele>36.5</ele><time>2026-03-26T17:50:19.999Z</time></trkpt><trkpt lat="40.91608891239804" lon="14.520518435426505"><ele>36.0</ele><time>2026-03-26T17:50:20.999Z</time></trkpt><trkpt lat="40.915960530486224" lon="14.520852659774206"><ele>36.0</ele><time>2026-03-26T17:50:21.999Z</time></trkpt><trkpt lat="40.91582759178323" lon="14.521186681767647"><ele>36.0</ele><time>2026-03-26T17:50:22.999Z</time></trkpt><trkpt lat="40.91568611976764" lon="14.521514488373446"><ele>35.5</ele><time>2026-03-26T17:50:23.999Z</time></trkpt><trkpt lat="40.91553753759083" lon="14.521841344255789"><ele>35.0</ele><time>2026-03-26T17:50:24.999Z</time></trkpt><trkpt lat="40.91538215248362" lon="14.52216442364089"><ele>34.5</ele><time>2026-03-26T17:50:25.999Z</time></trkpt><trkpt lat="40.91522253860493" lon="14.522481792326838"><ele>34.0</ele><time>2026-03-26T17:50:26.999Z</time></trkpt><trkpt lat="40.91505748183361" lon="14.522795916502243"><ele>35.0</ele><time>2026-03-26T17:50:27.999Z</time></trkpt><trkpt lat="40.91488566113761" lon="14.523104328936135"><ele>36.0</ele><time>2026-03-26T17:50:28.999Z</time></trkpt><trkpt lat="40.914710576186486" lon="14.523408580182304"><ele>36.0</ele><time>2026-03-26T17:50:29.999Z</time></trkpt><trkpt lat="40.91453223065686" lon="14.523707218298203"><ele>36.0</ele><time>2026-03-26T17:50:30.999Z</time></trkpt><trkpt lat="40.91434978466832" lon="14.5239987275662"><ele>35.5</ele><time>2026-03-26T17:50:31.999Z</time></trkpt><trkpt lat="40.91416218081033" lon="14.524283461943952"><ele>35.0</ele><time>2026-03-26T17:50:32.999Z</time></trkpt><trkpt lat="40.91397227357922" lon="14.524562853350952"><ele>35.5</ele><time>2026-03-26T17:50:33.999Z</time></trkpt><trkpt lat="40.91377899223611" lon="14.52483532084742"><ele>36.0</ele><time>2026-03-26T17:50:34.999Z</time></trkpt><trkpt lat="40.913583090458154" lon="14.52510159921499"><ele>37.5</ele><time>2026-03-26T17:50:35.999Z</time></trkpt><trkpt lat="40.9133848095358" lon="14.525363075968494"><ele>39.0</ele><time>2026-03-26T17:50:36.999Z</time></trkpt><trkpt lat="40.913176571955276" lon="14.525617209652358"><ele>39.0</ele><time>2026-03-26T17:50:37.999Z</time></trkpt><trkpt lat="40.91297052822069" lon="14.525860698850963"><ele>39.0</ele><time>2026-03-26T17:50:38.999Z</time></trkpt><trkpt lat="40.91275979423018" lon="14.526099179125017"><ele>38.5</ele><time>2026-03-26T17:50:39.999Z</time></trkpt><trkpt lat="40.91254813054347" lon="14.526335728080706"><ele>38.0</ele><time>2026-03-26T17:50:40.999Z</time></trkpt><trkpt lat="40.91233558571569" lon="14.526567473030514"><ele>38.0</ele><time>2026-03-26T17:50:41.999Z</time></trkpt><trkpt lat="40.912120390350374" lon="14.526789630792088"><ele>38.0</ele><time>2026-03-26T17:50:42.999Z</time></trkpt><trkpt lat="40.9119018418223" lon="14.527004695822196"><ele>39.0</ele><time>2026-03-26T17:50:43.999Z</time></trkpt><trkpt lat="40.91168001984095" lon="14.527212335465153"><ele>40.0</ele><time>2026-03-26T17:50:44.999Z</time></trkpt><trkpt lat="40.91145435651233" lon="14.527411595117643"><ele>40.0</ele><time>2026-03-26T17:50:45.999Z</time></trkpt><trkpt lat="40.91122587581485" lon="14.527606416582127"><ele>40.0</ele><time>2026-03-26T17:50:46.999Z</time></trkpt><trkpt lat="40.91099639145922" lon="14.527797101430401"><ele>38.5</ele><time>2026-03-26T17:50:47.999Z</time></trkpt><trkpt lat="40.910764057052326" lon="14.527979845549792"><ele>37.0</ele><time>2026-03-26T17:50:48.999Z</time></trkpt><trkpt lat="40.9105271986219" lon="14.528149624209526"><ele>37.0</ele><time>2026-03-26T17:50:49.999Z</time></trkpt><trkpt lat="40.91028194528577" lon="14.528309792645645"><ele>37.0</ele><time>2026-03-26T17:50:50.999Z</time></trkpt><trkpt lat="40.9100325223522" lon="14.528464492407503"><ele>37.5</ele><time>2026-03-26T17:50:51.999Z</time></trkpt><trkpt lat="40.90977962293911" lon="14.528613352190535"><ele>38.0</ele><time>2026-03-26T17:50:52.999Z</time></trkpt><trkpt lat="40.90952678604154" lon="14.528756157675655"><ele>38.0</ele><time>2026-03-26T17:50:53.999Z</time></trkpt><trkpt lat="40.90927303148598" lon="14.528894653533715"><ele>38.0</ele><time>2026-03-26T17:50:54.999Z</time></trkpt><trkpt lat="40.909018586425994" lon="14.529031240033717"><ele>39.0</ele><time>2026-03-26T17:50:55.999Z</time></trkpt><trkpt lat="40.908762505383066" lon="14.529162418176954"><ele>40.0</ele><time>2026-03-26T17:50:56.999Z</time></trkpt><trkpt lat="40.908502648063106" lon="14.529288182499451"><ele>39.5</ele><time>2026-03-26T17:50:57.999Z</time></trkpt><trkpt lat="40.90823936166831" lon="14.529407638036243"><ele>39.0</ele><time>2026-03-26T17:50:58.999Z</time></trkpt><trkpt lat="40.90797317631089" lon="14.529519334648421"><ele>38.5</ele><time>2026-03-26T17:50:59.999Z</time></trkpt><trkpt lat="40.90770597542771" lon="14.52962365943675"><ele>38.0</ele><time>2026-03-26T17:51:00.999Z</time></trkpt><trkpt lat="40.907435096278654" lon="14.52972205764005"><ele>38.0</ele><time>2026-03-26T17:51:01.999Z</time></trkpt><trkpt lat="40.90716210025317" lon="14.529812842115032"><ele>38.0</ele><time>2026-03-26T17:51:02.999Z</time></trkpt><trkpt lat="40.906886351331735" lon="14.529901639146477"><ele>39.5</ele><time>2026-03-26T17:51:03.999Z</time></trkpt><trkpt lat="40.90660970848527" lon="14.529989826898541"><ele>41.0</ele><time>2026-03-26T17:51:04.999Z</time></trkpt><trkpt lat="40.90633234012869" lon="14.530085231090512"><ele>41.0</ele><time>2026-03-26T17:51:05.999Z</time></trkpt><trkpt lat="40.90605727924977" lon="14.530183287064956"><ele>41.0</ele><time>2026-03-26T17:51:06.999Z</time></trkpt><trkpt lat="40.90578239448863" lon="14.530279642783796"><ele>40.0</ele><time>2026-03-26T17:51:07.999Z</time></trkpt><trkpt lat="40.90550657666109" lon="14.53037768035681"><ele>39.0</ele><time>2026-03-26T17:51:08.999Z</time></trkpt><trkpt lat="40.90523111715737" lon="14.530473891937051"><ele>39.5</ele><time>2026-03-26T17:51:09.999Z</time></trkpt><trkpt lat="40.904954818189225" lon="14.530569583038226"><ele>40.0</ele><time>2026-03-26T17:51:10.999Z</time></trkpt><trkpt lat="40.90468065244506" lon="14.530663625665369"><ele>40.0</ele><time>2026-03-26T17:51:11.999Z</time></trkpt><trkpt lat="40.90440673621774" lon="14.530756473054405"><ele>40.0</ele><time>2026-03-26T17:51:12.999Z</time></trkpt><trkpt lat="40.904135019594875" lon="14.530845587574232"><ele>39.5</ele><time>2026-03-26T17:51:13.999Z</time></trkpt><trkpt lat="40.90386435673874" lon="14.530925166230647"><ele>39.0</ele><time>2026-03-26T17:51:14.999Z</time></trkpt><trkpt lat="40.90359590885861" lon="14.530998669314373"><ele>39.0</ele><time>2026-03-26T17:51:15.999Z</time></trkpt><trkpt lat="40.90333156095678" lon="14.531075179492897"><ele>39.0</ele><time>2026-03-26T17:51:16.999Z</time></trkpt><trkpt lat="40.903070784983136" lon="14.531156619575986"><ele>39.0</ele><time>2026-03-26T17:51:17.999Z</time></trkpt><trkpt lat="40.90281645547682" lon="14.531241294700031"><ele>39.0</ele><time>2026-03-26T17:51:18.999Z</time></trkpt><trkpt lat="40.90255847952065" lon="14.531327778789072"><ele>39.0</ele><time>2026-03-26T17:51:19.999Z</time></trkpt><trkpt lat="40.902299983080475" lon="14.53141799716932"><ele>39.0</ele><time>2026-03-26T17:51:20.999Z</time></trkpt><trkpt lat="40.90203970201153" lon="14.531513618212651"><ele>39.0</ele><time>2026-03-26T17:51:21.999Z</time></trkpt><trkpt lat="40.90177629915337" lon="14.531614593139526"><ele>39.0</ele><time>2026-03-26T17:51:22.999Z</time></trkpt><trkpt lat="40.90150855458898" lon="14.531714120460391"><ele>39.0</ele><time>2026-03-26T17:51:23.999Z</time></trkpt><trkpt lat="40.901237770713095" lon="14.531814266862417"><ele>39.0</ele><time>2026-03-26T17:51:24.999Z</time></trkpt><trkpt lat="40.90096556538015" lon="14.53191591503068"><ele>39.5</ele><time>2026-03-26T17:51:25.999Z</time></trkpt><trkpt lat="40.90069165276011" lon="14.532014279942151"><ele>40.0</ele><time>2026-03-26T17:51:26.999Z</time></trkpt><trkpt lat="40.900417270192754" lon="14.53210876461238"><ele>40.0</ele><time>2026-03-26T17:51:27.999Z</time></trkpt><trkpt lat="40.90014483994435" lon="14.532196703813629"><ele>40.0</ele><time>2026-03-26T17:51:28.999Z</time></trkpt><trkpt lat="40.89987341532474" lon="14.532277622675066"><ele>40.0</ele><time>2026-03-26T17:51:29.999Z</time></trkpt><trkpt lat="40.89960032224647" lon="14.532351725868898"><ele>40.0</ele><time>2026-03-26T17:51:30.999Z</time></trkpt><trkpt lat="40.89932644613765" lon="14.532422891749777"><ele>41.5</ele><time>2026-03-26T17:51:31.999Z</time></trkpt><trkpt lat="40.899049570844475" lon="14.532490073595289"><ele>43.0</ele><time>2026-03-26T17:51:32.999Z</time></trkpt><trkpt lat="40.8987734884622" lon="14.53255219985823"><ele>43.0</ele><time>2026-03-26T17:51:33.999Z</time></trkpt><trkpt lat="40.89849670977572" lon="14.532611942581587"><ele>43.0</ele><time>2026-03-26T17:51:34.999Z</time></trkpt><trkpt lat="40.89822105360164" lon="14.532669356178003"><ele>42.5</ele><time>2026-03-26T17:51:35.999Z</time></trkpt><trkpt lat="40.89794395880749" lon="14.532725124418135"><ele>42.0</ele><time>2026-03-26T17:51:36.999Z</time></trkpt><trkpt lat="40.89766713508388" lon="14.532775975136598"><ele>42.0</ele><time>2026-03-26T17:51:37.999Z</time></trkpt><trkpt lat="40.89738913212728" lon="14.532823181798102"><ele>42.0</ele><time>2026-03-26T17:51:38.999Z</time></trkpt><trkpt lat="40.89711149740241" lon="14.532868155917022"><ele>42.5</ele><time>2026-03-26T17:51:39.999Z</time></trkpt><trkpt lat="40.896834753953456" lon="14.53290845167134"><ele>43.0</ele><time>2026-03-26T17:51:40.999Z</time></trkpt><trkpt lat="40.89655506882404" lon="14.532943540488764"><ele>43.0</ele><time>2026-03-26T17:51:41.999Z</time></trkpt><trkpt lat="40.896273385665886" lon="14.532975952205895"><ele>43.0</ele><time>2026-03-26T17:51:42.999Z</time></trkpt><trkpt lat="40.89598970676191" lon="14.533004033796407"><ele>42.0</ele><time>2026-03-26T17:51:43.999Z</time></trkpt><trkpt lat="40.89570570178544" lon="14.53302870406393"><ele>41.0</ele><time>2026-03-26T17:51:44.999Z</time></trkpt><trkpt lat="40.89541998324164" lon="14.533051176295324"><ele>41.0</ele><time>2026-03-26T17:51:45.999Z</time></trkpt><trkpt lat="40.895132307190615" lon="14.53306945376266"><ele>41.0</ele><time>2026-03-26T17:51:46.999Z</time></trkpt><trkpt lat="40.894844526314735" lon="14.533085173745448"><ele>42.0</ele><time>2026-03-26T17:51:47.999Z</time></trkpt><trkpt lat="40.89455612860211" lon="14.53310219924965"><ele>43.0</ele><time>2026-03-26T17:51:48.999Z</time></trkpt><trkpt lat="40.894268765896754" lon="14.533119914040121"><ele>42.0</ele><time>2026-03-26T17:51:49.999Z</time></trkpt><trkpt lat="40.89397950527533" lon="14.533138808846113"><ele>41.0</ele><time>2026-03-26T17:51:50.999Z</time></trkpt><trkpt lat="40.89369155578717" lon="14.533156431903196"><ele>41.0</ele><time>2026-03-26T17:51:51.999Z</time></trkpt><trkpt lat="40.89340242057048" lon="14.533174708701889"><ele>41.0</ele><time>2026-03-26T17:51:52.999Z</time></trkpt><trkpt lat="40.89311363373385" lon="14.533192409170836"><ele>41.0</ele><time>2026-03-26T17:51:53.999Z</time></trkpt><trkpt lat="40.89282498447353" lon="14.533209295032524"><ele>41.0</ele><time>2026-03-26T17:51:54.999Z</time></trkpt><trkpt lat="40.89253916325128" lon="14.533225820211282"><ele>42.5</ele><time>2026-03-26T17:51:55.999Z</time></trkpt><trkpt lat="40.89225406980796" lon="14.533241363967615"><ele>44.0</ele><time>2026-03-26T17:51:56.999Z</time></trkpt><trkpt lat="40.891969422371126" lon="14.53325879846993"><ele>44.0</ele><time>2026-03-26T17:51:57.999Z</time></trkpt><trkpt lat="40.89168735287979" lon="14.533276264287112"><ele>44.0</ele><time>2026-03-26T17:51:58.999Z</time></trkpt><trkpt lat="40.891406476199165" lon="14.533294998705356"><ele>44.0</ele><time>2026-03-26T17:51:59.999Z</time></trkpt><trkpt lat="40.89112978597861" lon="14.533310420167506"><ele>44.0</ele><time>2026-03-26T17:52:00.999Z</time></trkpt><trkpt lat="40.89085099142287" lon="14.53332214797794"><ele>44.0</ele><time>2026-03-26T17:52:01.999Z</time></trkpt><trkpt lat="40.890571559068945" lon="14.533329433980523"><ele>44.0</ele><time>2026-03-26T17:52:02.999Z</time></trkpt><trkpt lat="40.8902926617677" lon="14.533336445748493"><ele>44.5</ele><time>2026-03-26T17:52:03.999Z</time></trkpt><trkpt lat="40.8900133195748" lon="14.533344886833104"><ele>45.0</ele><time>2026-03-26T17:52:04.999Z</time></trkpt><trkpt lat="40.88973249535799" lon="14.53335619617751"><ele>45.0</ele><time>2026-03-26T17:52:05.999Z</time></trkpt><trkpt lat="40.88945275951056" lon="14.533369071093441"><ele>45.0</ele><time>2026-03-26T17:52:06.999Z</time></trkpt><trkpt lat="40.88917119801579" lon="14.533383992254656"><ele>45.0</ele><time>2026-03-26T17:52:07.999Z</time></trkpt><trkpt lat="40.88888884793456" lon="14.533399252735661"><ele>45.0</ele><time>2026-03-26T17:52:08.999Z</time></trkpt><trkpt lat="40.888605617358415" lon="14.53341759128698"><ele>45.0</ele><time>2026-03-26T17:52:09.999Z</time></trkpt><trkpt lat="40.88832122806737" lon="14.533435802568306"><ele>45.0</ele><time>2026-03-26T17:52:10.999Z</time></trkpt><trkpt lat="40.88803568870343" lon="14.533453873374844"><ele>45.0</ele><time>2026-03-26T17:52:11.999Z</time></trkpt><trkpt lat="40.88774845653601" lon="14.533471942305747"><ele>45.0</ele><time>2026-03-26T17:52:12.999Z</time></trkpt><trkpt lat="40.887462463581585" lon="14.53348895886506"><ele>45.0</ele><time>2026-03-26T17:52:13.999Z</time></trkpt><trkpt lat="40.887175408193634" lon="14.533506526950509"><ele>45.0</ele><time>2026-03-26T17:52:14.999Z</time></trkpt><trkpt lat="40.88688825094103" lon="14.533524151668376"><ele>44.5</ele><time>2026-03-26T17:52:15.999Z</time></trkpt><trkpt lat="40.88659683465974" lon="14.53354187010018"><ele>44.0</ele><time>2026-03-26T17:52:16.999Z</time></trkpt><trkpt lat="40.88630846872934" lon="14.533558852277695"><ele>44.0</ele><time>2026-03-26T17:52:17.999Z</time></trkpt><trkpt lat="40.88602066579815" lon="14.533574096135055"><ele>44.0</ele><time>2026-03-26T17:52:18.999Z</time></trkpt><trkpt lat="40.88573434763065" lon="14.53358871471836"><ele>43.5</ele><time>2026-03-26T17:52:19.999Z</time></trkpt><trkpt lat="40.88544851422209" lon="14.533604710534215"><ele>43.0</ele><time>2026-03-26T17:52:20.999Z</time></trkpt><trkpt lat="40.88516150920067" lon="14.533621929377693"><ele>43.5</ele><time>2026-03-26T17:52:21.999Z</time></trkpt><trkpt lat="40.88487673649765" lon="14.53363962875917"><ele>44.0</ele><time>2026-03-26T17:52:22.999Z</time></trkpt><trkpt lat="40.884592442818786" lon="14.533657025300577"><ele>44.0</ele><time>2026-03-26T17:52:23.999Z</time></trkpt><trkpt lat="40.88430902634781" lon="14.53367480237164"><ele>44.0</ele><time>2026-03-26T17:52:24.999Z</time></trkpt><trkpt lat="40.884027106908626" lon="14.53369324066109"><ele>44.0</ele><time>2026-03-26T17:52:25.999Z</time></trkpt><trkpt lat="40.8837459679808" lon="14.533712201987749"><ele>44.0</ele><time>2026-03-26T17:52:26.999Z</time></trkpt><trkpt lat="40.88346582779129" lon="14.533727150588412"><ele>45.0</ele><time>2026-03-26T17:52:27.999Z</time></trkpt><trkpt lat="40.88318678545267" lon="14.533739781627865"><ele>46.0</ele><time>2026-03-26T17:52:28.999Z</time></trkpt><trkpt lat="40.882905608692276" lon="14.533755001948467"><ele>46.0</ele><time>2026-03-26T17:52:29.999Z</time></trkpt><trkpt lat="40.882623555080734" lon="14.533770656012544"><ele>46.0</ele><time>2026-03-26T17:52:30.999Z</time></trkpt><trkpt lat="40.88234355821511" lon="14.533787899679284"><ele>46.0</ele><time>2026-03-26T17:52:31.999Z</time></trkpt><trkpt lat="40.88206386374989" lon="14.533806413187483"><ele>46.0</ele><time>2026-03-26T17:52:32.999Z</time></trkpt><trkpt lat="40.88178519123657" lon="14.53382419224627"><ele>46.0</ele><time>2026-03-26T17:52:33.999Z</time></trkpt><trkpt lat="40.88150732762069" lon="14.533842072411689"><ele>46.0</ele><time>2026-03-26T17:52:34.999Z</time></trkpt><trkpt lat="40.881226362456886" lon="14.533861796977797"><ele>46.0</ele><time>2026-03-26T17:52:35.999Z</time></trkpt><trkpt lat="40.88094383415932" lon="14.533879432342031"><ele>46.0</ele><time>2026-03-26T17:52:36.999Z</time></trkpt><trkpt lat="40.88066028185666" lon="14.53389480862538"><ele>46.0</ele><time>2026-03-26T17:52:37.999Z</time></trkpt><trkpt lat="40.8803753976729" lon="14.533909609364066"><ele>46.0</ele><time>2026-03-26T17:52:38.999Z</time></trkpt><trkpt lat="40.88009082785674" lon="14.53392593771982"><ele>46.5</ele><time>2026-03-26T17:52:39.999Z</time></trkpt><trkpt lat="40.8798105152689" lon="14.53394195203826"><ele>47.0</ele><time>2026-03-26T17:52:40.999Z</time></trkpt><trkpt lat="40.87953252761577" lon="14.533955790351213"><ele>48.5</ele><time>2026-03-26T17:52:41.999Z</time></trkpt><trkpt lat="40.87925495015661" lon="14.53397057451648"><ele>50.0</ele><time>2026-03-26T17:52:42.999Z</time></trkpt><trkpt lat="40.87897737586744" lon="14.533986962965248"><ele>50.0</ele><time>2026-03-26T17:52:43.999Z</time></trkpt><trkpt lat="40.87870016586403" lon="14.534003129563986"><ele>50.0</ele><time>2026-03-26T17:52:44.999Z</time></trkpt><trkpt lat="40.878422546984666" lon="14.534019760140636"><ele>48.5</ele><time>2026-03-26T17:52:45.999Z</time></trkpt><trkpt lat="40.87814389336515" lon="14.53403567385072"><ele>47.0</ele><time>2026-03-26T17:52:46.999Z</time></trkpt><trkpt lat="40.877865209641946" lon="14.534051454160556"><ele>47.5</ele><time>2026-03-26T17:52:47.999Z</time></trkpt><trkpt lat="40.877585741622795" lon="14.534068265387722"><ele>48.0</ele><time>2026-03-26T17:52:48.999Z</time></trkpt><trkpt lat="40.877302882598805" lon="14.534085534199534"><ele>48.0</ele><time>2026-03-26T17:52:49.999Z</time></trkpt><trkpt lat="40.877018799390015" lon="14.534102980680089"><ele>48.0</ele><time>2026-03-26T17:52:50.999Z</time></trkpt><trkpt lat="40.876734367051704" lon="14.534121475455315"><ele>46.5</ele><time>2026-03-26T17:52:51.999Z</time></trkpt><trkpt lat="40.876448794498664" lon="14.534139693041203"><ele>45.0</ele><time>2026-03-26T17:52:52.999Z</time></trkpt><trkpt lat="40.87616442180714" lon="14.53415852911484"><ele>45.5</ele><time>2026-03-26T17:52:53.999Z</time></trkpt><trkpt lat="40.87587733026604" lon="14.53417712416987"><ele>46.0</ele><time>2026-03-26T17:52:54.999Z</time></trkpt><trkpt lat="40.875592592492225" lon="14.534194883588016"><ele>46.0</ele><time>2026-03-26T17:52:55.999Z</time></trkpt><trkpt lat="40.87530716960841" lon="14.534211463139643"><ele>46.0</ele><time>2026-03-26T17:52:56.999Z</time></trkpt><trkpt lat="40.8750187553315" lon="14.534228950255255"><ele>46.5</ele><time>2026-03-26T17:52:57.999Z</time></trkpt><trkpt lat="40.8747291035054" lon="14.53424662441759"><ele>47.0</ele><time>2026-03-26T17:52:58.999Z</time></trkpt><trkpt lat="40.87443910390625" lon="14.534264124181576"><ele>47.0</ele><time>2026-03-26T17:52:59.999Z</time></trkpt><trkpt lat="40.874150837657616" lon="14.534283512060908"><ele>47.0</ele><time>2026-03-26T17:53:00.999Z</time></trkpt><trkpt lat="40.87386358508986" lon="14.53430524104677"><ele>47.0</ele><time>2026-03-26T17:53:01.999Z</time></trkpt><trkpt lat="40.87357708076193" lon="14.534331024524548"><ele>47.0</ele><time>2026-03-26T17:53:02.999Z</time></trkpt><trkpt lat="40.87329231879319" lon="14.534359727733486"><ele>47.5</ele><time>2026-03-26T17:53:03.999Z</time></trkpt><trkpt lat="40.87300964463185" lon="14.534395794494632"><ele>48.0</ele><time>2026-03-26T17:53:04.999Z</time></trkpt><trkpt lat="40.87272745840632" lon="14.534438177936638"><ele>47.5</ele><time>2026-03-26T17:53:05.999Z</time></trkpt><trkpt lat="40.87244712204571" lon="14.534483005094605"><ele>47.0</ele><time>2026-03-26T17:53:06.999Z</time></trkpt><trkpt lat="40.872168433821265" lon="14.53452929925953"><ele>47.0</ele><time>2026-03-26T17:53:07.999Z</time></trkpt><trkpt lat="40.871891643200385" lon="14.534579984514396"><ele>47.0</ele><time>2026-03-26T17:53:08.999Z</time></trkpt><trkpt lat="40.87161688142907" lon="14.534633442511277"><ele>47.0</ele><time>2026-03-26T17:53:09.999Z</time></trkpt><trkpt lat="40.871343811071426" lon="14.534688815465772"><ele>47.0</ele><time>2026-03-26T17:53:10.999Z</time></trkpt><trkpt lat="40.87107234399159" lon="14.53474924406878"><ele>47.0</ele><time>2026-03-26T17:53:11.999Z</time></trkpt><trkpt lat="40.870801913490126" lon="14.53481254436408"><ele>47.0</ele><time>2026-03-26T17:53:12.999Z</time></trkpt><trkpt lat="40.87053483235455" lon="14.534878313996495"><ele>47.0</ele><time>2026-03-26T17:53:13.999Z</time></trkpt><trkpt lat="40.870269532187706" lon="14.534950054736871"><ele>47.0</ele><time>2026-03-26T17:53:14.999Z</time></trkpt><trkpt lat="40.87000273850435" lon="14.535026137704415"><ele>48.0</ele><time>2026-03-26T17:53:15.999Z</time></trkpt><trkpt lat="40.86973837438537" lon="14.535105068110338"><ele>49.0</ele><time>2026-03-26T17:53:16.999Z</time></trkpt><trkpt lat="40.869472578622954" lon="14.53518692596602"><ele>48.5</ele><time>2026-03-26T17:53:17.999Z</time></trkpt><trkpt lat="40.869206952198105" lon="14.535270355351608"><ele>48.0</ele><time>2026-03-26T17:53:18.999Z</time></trkpt><trkpt lat="40.86894043076374" lon="14.53535646869846"><ele>47.5</ele><time>2026-03-26T17:53:19.999Z</time></trkpt><trkpt lat="40.86867252129463" lon="14.53544734372995"><ele>47.0</ele><time>2026-03-26T17:53:20.999Z</time></trkpt><trkpt lat="40.86840531793228" lon="14.535541643595497"><ele>47.0</ele><time>2026-03-26T17:53:21.999Z</time></trkpt><trkpt lat="40.86813670977447" lon="14.535638061878018"><ele>47.0</ele><time>2026-03-26T17:53:22.999Z</time></trkpt><trkpt lat="40.86786818926536" lon="14.53573578717657"><ele>48.0</ele><time>2026-03-26T17:53:23.999Z</time></trkpt><trkpt lat="40.8675983405231" lon="14.535833329716057"><ele>49.0</ele><time>2026-03-26T17:53:24.999Z</time></trkpt><trkpt lat="40.867328427042985" lon="14.535929599472675"><ele>49.0</ele><time>2026-03-26T17:53:25.999Z</time></trkpt><trkpt lat="40.86705813609085" lon="14.536027009562218"><ele>49.0</ele><time>2026-03-26T17:53:26.999Z</time></trkpt><trkpt lat="40.866787118958946" lon="14.536126806686172"><ele>50.0</ele><time>2026-03-26T17:53:27.999Z</time></trkpt><trkpt lat="40.86651553303382" lon="14.536227636393026"><ele>51.0</ele><time>2026-03-26T17:53:28.999Z</time></trkpt><trkpt lat="40.86624333532643" lon="14.536324971942692"><ele>51.0</ele><time>2026-03-26T17:53:29.999Z</time></trkpt><trkpt lat="40.86597181278545" lon="14.536419467662506"><ele>51.0</ele><time>2026-03-26T17:53:30.999Z</time></trkpt><trkpt lat="40.86570648062784" lon="14.536512283245271"><ele>52.0</ele><time>2026-03-26T17:53:31.999Z</time></trkpt><trkpt lat="40.865442087495644" lon="14.536607958472787"><ele>53.0</ele><time>2026-03-26T17:53:32.999Z</time></trkpt><trkpt lat="40.86517903502166" lon="14.536705258127189"><ele>52.5</ele><time>2026-03-26T17:53:33.999Z</time></trkpt><trkpt lat="40.864913769796914" lon="14.536801738651398"><ele>52.0</ele><time>2026-03-26T17:53:34.999Z</time></trkpt><trkpt lat="40.86464882500122" lon="14.53689691965729"><ele>52.0</ele><time>2026-03-26T17:53:35.999Z</time></trkpt><trkpt lat="40.864384253200015" lon="14.536991514558473"><ele>52.0</ele><time>2026-03-26T17:53:36.999Z</time></trkpt><trkpt lat="40.864119661058695" lon="14.537088920147522"><ele>51.0</ele><time>2026-03-26T17:53:37.999Z</time></trkpt><trkpt lat="40.86385467115034" lon="14.53718575130349"><ele>50.0</ele><time>2026-03-26T17:53:38.999Z</time></trkpt><trkpt lat="40.863588731525255" lon="14.537281666040418"><ele>50.0</ele><time>2026-03-26T17:53:39.999Z</time></trkpt><trkpt lat="40.86332179862358" lon="14.537377094345773"><ele>50.0</ele><time>2026-03-26T17:53:40.999Z</time></trkpt><trkpt lat="40.863053296954384" lon="14.537473347035217"><ele>50.0</ele><time>2026-03-26T17:53:41.999Z</time></trkpt><trkpt lat="40.86278580548199" lon="14.537570628480495"><ele>50.0</ele><time>2026-03-26T17:53:42.999Z</time></trkpt><trkpt lat="40.862517203577106" lon="14.53766836417892"><ele>51.0</ele><time>2026-03-26T17:53:43.999Z</time></trkpt><trkpt lat="40.862247386609475" lon="14.537766700812433"><ele>52.0</ele><time>2026-03-26T17:53:44.999Z</time></trkpt><trkpt lat="40.86197583901126" lon="14.53786271468611"><ele>51.5</ele><time>2026-03-26T17:53:45.999Z</time></trkpt><trkpt lat="40.86170128149653" lon="14.537957682064041"><ele>51.0</ele><time>2026-03-26T17:53:46.999Z</time></trkpt><trkpt lat="40.861427247973495" lon="14.538054779901936"><ele>51.0</ele><time>2026-03-26T17:53:47.999Z</time></trkpt><trkpt lat="40.861153090072534" lon="14.538153605069668"><ele>51.0</ele><time>2026-03-26T17:53:48.999Z</time></trkpt><trkpt lat="40.86087773660905" lon="14.538253316097098"><ele>50.0</ele><time>2026-03-26T17:53:49.999Z</time></trkpt><trkpt lat="40.86060120846734" lon="14.538354050651487"><ele>49.0</ele><time>2026-03-26T17:53:50.999Z</time></trkpt><trkpt lat="40.86032314126761" lon="14.538454833896308"><ele>49.5</ele><time>2026-03-26T17:53:51.999Z</time></trkpt><trkpt lat="40.86004345023172" lon="14.538553238164164"><ele>50.0</ele><time>2026-03-26T17:53:52.999Z</time></trkpt><trkpt lat="40.859763580582516" lon="14.538651673440064"><ele>50.5</ele><time>2026-03-26T17:53:53.999Z</time></trkpt><trkpt lat="40.8594817090531" lon="14.538752771838007"><ele>51.0</ele><time>2026-03-26T17:53:54.999Z</time></trkpt><trkpt lat="40.859202919382284" lon="14.538856920665324"><ele>51.5</ele><time>2026-03-26T17:53:55.999Z</time></trkpt><trkpt lat="40.85892290900706" lon="14.538961766531147"><ele>52.0</ele><time>2026-03-26T17:53:56.999Z</time></trkpt><trkpt lat="40.85864071367189" lon="14.539065004842977"><ele>53.0</ele><time>2026-03-26T17:53:57.999Z</time></trkpt><trkpt lat="40.858359658890286" lon="14.539166220904244"><ele>54.0</ele><time>2026-03-26T17:53:58.999Z</time></trkpt><trkpt lat="40.858080546116" lon="14.539265034959735"><ele>54.0</ele><time>2026-03-26T17:53:59.999Z</time></trkpt><trkpt lat="40.85780258900786" lon="14.539364021554903"><ele>54.0</ele><time>2026-03-26T17:54:00.999Z</time></trkpt><trkpt lat="40.857533039998614" lon="14.539462127881833"><ele>54.0</ele><time>2026-03-26T17:54:01.999Z</time></trkpt><trkpt lat="40.85728722991443" lon="14.539551965685352"><ele>54.0</ele><time>2026-03-26T17:54:02.999Z</time></trkpt><trkpt lat="40.857042251297706" lon="14.539642185512136"><ele>54.0</ele><time>2026-03-26T17:54:03.999Z</time></trkpt><trkpt lat="40.85679949243738" lon="14.539731237611312"><ele>54.0</ele><time>2026-03-26T17:54:04.999Z</time></trkpt><trkpt lat="40.856557746939174" lon="14.539817012712115"><ele>54.5</ele><time>2026-03-26T17:54:05.999Z</time></trkpt><trkpt lat="40.8563192307467" lon="14.539900490596295"><ele>55.0</ele><time>2026-03-26T17:54:06.999Z</time></trkpt><trkpt lat="40.85608343369274" lon="14.539982290621715"><ele>55.0</ele><time>2026-03-26T17:54:07.999Z</time></trkpt><trkpt lat="40.855848987380305" lon="14.540068196929695"><ele>55.0</ele><time>2026-03-26T17:54:08.999Z</time></trkpt><trkpt lat="40.8556156034543" lon="14.540152577024566"><ele>55.0</ele><time>2026-03-26T17:54:09.999Z</time></trkpt><trkpt lat="40.85538477835018" lon="14.540238421072885"><ele>55.0</ele><time>2026-03-26T17:54:10.999Z</time></trkpt><trkpt lat="40.85515556507698" lon="14.540325081160141"><ele>53.5</ele><time>2026-03-26T17:54:11.999Z</time></trkpt><trkpt lat="40.85492360157539" lon="14.540409699497465"><ele>52.0</ele><time>2026-03-26T17:54:12.999Z</time></trkpt><trkpt lat="40.85468925593235" lon="14.540493881912209"><ele>52.0</ele><time>2026-03-26T17:54:13.999Z</time></trkpt><trkpt lat="40.85445287381598" lon="14.540577945270542"><ele>52.0</ele><time>2026-03-26T17:54:14.999Z</time></trkpt><trkpt lat="40.85421522765861" lon="14.540662113615287"><ele>53.0</ele><time>2026-03-26T17:54:15.999Z</time></trkpt><trkpt lat="40.8539752297192" lon="14.54075061073921"><ele>54.0</ele><time>2026-03-26T17:54:16.999Z</time></trkpt><trkpt lat="40.85373587009055" lon="14.540844505038821"><ele>54.0</ele><time>2026-03-26T17:54:17.999Z</time></trkpt><trkpt lat="40.853494064618076" lon="14.540939670838124"><ele>54.0</ele><time>2026-03-26T17:54:18.999Z</time></trkpt><trkpt lat="40.85325202974819" lon="14.541035073689283"><ele>55.0</ele><time>2026-03-26T17:54:19.999Z</time></trkpt><trkpt lat="40.85300794211982" lon="14.541136733938853"><ele>56.0</ele><time>2026-03-26T17:54:20.999Z</time></trkpt><trkpt lat="40.852762275296485" lon="14.541243767005517"><ele>57.5</ele><time>2026-03-26T17:54:21.999Z</time></trkpt><trkpt lat="40.85251541273961" lon="14.541352418906044"><ele>59.0</ele><time>2026-03-26T17:54:22.999Z</time></trkpt><trkpt lat="40.852272481377156" lon="14.541463280006303"><ele>59.0</ele><time>2026-03-26T17:54:23.999Z</time></trkpt><trkpt lat="40.852029233481154" lon="14.5415784800439"><ele>59.0</ele><time>2026-03-26T17:54:24.999Z</time></trkpt><trkpt lat="40.85178421483506" lon="14.541695850230228"><ele>59.5</ele><time>2026-03-26T17:54:25.999Z</time></trkpt><trkpt lat="40.851538731123675" lon="14.54182348621579"><ele>60.0</ele><time>2026-03-26T17:54:26.999Z</time></trkpt><trkpt lat="40.85129401846783" lon="14.541958083367586"><ele>58.5</ele><time>2026-03-26T17:54:27.999Z</time></trkpt><trkpt lat="40.85104805294283" lon="14.542099858568518"><ele>57.0</ele><time>2026-03-26T17:54:28.999Z</time></trkpt><trkpt lat="40.85080109922156" lon="14.54224200806345"><ele>54.5</ele><time>2026-03-26T17:54:29.999Z</time></trkpt><trkpt lat="40.85055356600852" lon="14.542385271188172"><ele>52.0</ele><time>2026-03-26T17:54:30.999Z</time></trkpt><trkpt lat="40.85030514087247" lon="14.542531286373467"><ele>53.5</ele><time>2026-03-26T17:54:31.999Z</time></trkpt><trkpt lat="40.850056824438035" lon="14.542681235581592"><ele>55.0</ele><time>2026-03-26T17:54:32.999Z</time></trkpt><trkpt lat="40.8498092055638" lon="14.542833588615412"><ele>53.0</ele><time>2026-03-26T17:54:33.999Z</time></trkpt><trkpt lat="40.84956284249561" lon="14.542988609302004"><ele>51.0</ele><time>2026-03-26T17:54:34.999Z</time></trkpt><trkpt lat="40.84931628588749" lon="14.543143390659026"><ele>53.0</ele><time>2026-03-26T17:54:35.999Z</time></trkpt><trkpt lat="40.84906939603097" lon="14.543299907233303"><ele>55.0</ele><time>2026-03-26T17:54:36.999Z</time></trkpt><trkpt lat="40.848820025971065" lon="14.54346113810321"><ele>55.0</ele><time>2026-03-26T17:54:37.999Z</time></trkpt><trkpt lat="40.84857208106295" lon="14.543625911508554"><ele>55.0</ele><time>2026-03-26T17:54:38.999Z</time></trkpt><trkpt lat="40.84832356739933" lon="14.543795229400304"><ele>54.0</ele><time>2026-03-26T17:54:39.999Z</time></trkpt><trkpt lat="40.84807558856854" lon="14.543966971095273"><ele>53.0</ele><time>2026-03-26T17:54:40.999Z</time></trkpt><trkpt lat="40.847828053969515" lon="14.544136224199915"><ele>54.5</ele><time>2026-03-26T17:54:41.999Z</time></trkpt><trkpt lat="40.84758915166312" lon="14.544318190635227"><ele>56.0</ele><time>2026-03-26T17:54:42.999Z</time></trkpt><trkpt lat="40.847350515287964" lon="14.544506958678417"><ele>54.5</ele><time>2026-03-26T17:54:43.999Z</time></trkpt><trkpt lat="40.84711365985379" lon="14.5446968911637"><ele>53.0</ele><time>2026-03-26T17:54:44.999Z</time></trkpt><trkpt lat="40.84688032360609" lon="14.544888321472625"><ele>53.0</ele><time>2026-03-26T17:54:45.999Z</time></trkpt><trkpt lat="40.84664849464774" lon="14.54508277096619"><ele>53.0</ele><time>2026-03-26T17:54:46.999Z</time></trkpt><trkpt lat="40.84642114642708" lon="14.545278785359184"><ele>51.0</ele><time>2026-03-26T17:54:47.999Z</time></trkpt><trkpt lat="40.8461953278731" lon="14.54547746453769"><ele>49.0</ele><time>2026-03-26T17:54:48.999Z</time></trkpt><trkpt lat="40.84597447954268" lon="14.545676719431473"><ele>47.0</ele><time>2026-03-26T17:54:49.999Z</time></trkpt><trkpt lat="40.84575461995642" lon="14.545882017502624"><ele>45.0</ele><time>2026-03-26T17:54:50.999Z</time></trkpt><trkpt lat="40.84553272431227" lon="14.54608992943741"><ele>43.5</ele><time>2026-03-26T17:54:51.999Z</time></trkpt><trkpt lat="40.845314192252246" lon="14.54629784154633"><ele>42.0</ele><time>2026-03-26T17:54:52.999Z</time></trkpt><trkpt lat="40.84509928788161" lon="14.546507398059417"><ele>42.0</ele><time>2026-03-26T17:54:53.999Z</time></trkpt><trkpt lat="40.8448867040801" lon="14.546720367403298"><ele>42.0</ele><time>2026-03-26T17:54:54.999Z</time></trkpt><trkpt lat="40.844675844028025" lon="14.54693508200064"><ele>41.5</ele><time>2026-03-26T17:54:55.999Z</time></trkpt><trkpt lat="40.84446333597725" lon="14.547153876611027"><ele>41.0</ele><time>2026-03-26T17:54:56.999Z</time></trkpt><trkpt lat="40.84424945945487" lon="14.547378736998066"><ele>41.0</ele><time>2026-03-26T17:54:57.999Z</time></trkpt><trkpt lat="40.84403726954779" lon="14.547607876238692"><ele>41.0</ele><time>2026-03-26T17:54:58.999Z</time></trkpt><trkpt lat="40.843826075362145" lon="14.54783968379164"><ele>40.5</ele><time>2026-03-26T17:54:59.999Z</time></trkpt><trkpt lat="40.843616303586664" lon="14.548078321022608"><ele>40.0</ele><time>2026-03-26T17:55:00.999Z</time></trkpt><trkpt lat="40.843409083484275" lon="14.548320235745305"><ele>40.5</ele><time>2026-03-26T17:55:01.999Z</time></trkpt><trkpt lat="40.843202555692315" lon="14.54856278608176"><ele>41.0</ele><time>2026-03-26T17:55:02.999Z</time></trkpt><trkpt lat="40.84299635936648" lon="14.548807566441294"><ele>41.0</ele><time>2026-03-26T17:55:03.999Z</time></trkpt><trkpt lat="40.84278916232479" lon="14.549051032308721"><ele>41.0</ele><time>2026-03-26T17:55:04.999Z</time></trkpt><trkpt lat="40.84258190287914" lon="14.549291595104398"><ele>41.5</ele><time>2026-03-26T17:55:05.999Z</time></trkpt><trkpt lat="40.84237538335721" lon="14.549531781319406"><ele>42.0</ele><time>2026-03-26T17:55:06.999Z</time></trkpt><trkpt lat="40.8421673021191" lon="14.549773026490895"><ele>41.0</ele><time>2026-03-26T17:55:07.999Z</time></trkpt><trkpt lat="40.8419600414635" lon="14.550013042302187"><ele>40.0</ele><time>2026-03-26T17:55:08.999Z</time></trkpt><trkpt lat="40.84175224191923" lon="14.550253973004638"><ele>39.5</ele><time>2026-03-26T17:55:09.999Z</time></trkpt><trkpt lat="40.84154197028543" lon="14.55049362585066"><ele>39.0</ele><time>2026-03-26T17:55:10.999Z</time></trkpt><trkpt lat="40.841330083684326" lon="14.550733813417695"><ele>39.0</ele><time>2026-03-26T17:55:11.999Z</time></trkpt><trkpt lat="40.841116199273785" lon="14.550977498191475"><ele>39.0</ele><time>2026-03-26T17:55:12.999Z</time></trkpt><trkpt lat="40.84090205276771" lon="14.551222272736338"><ele>39.0</ele><time>2026-03-26T17:55:13.999Z</time></trkpt><trkpt lat="40.84068687455909" lon="14.551471116690928"><ele>39.0</ele><time>2026-03-26T17:55:14.999Z</time></trkpt><trkpt lat="40.84047316372351" lon="14.551718919381067"><ele>39.0</ele><time>2026-03-26T17:55:15.999Z</time></trkpt><trkpt lat="40.84026087401609" lon="14.551963512354517"><ele>39.0</ele><time>2026-03-26T17:55:16.999Z</time></trkpt><trkpt lat="40.84004867709739" lon="14.552205191057013"><ele>37.0</ele><time>2026-03-26T17:55:17.999Z</time></trkpt><trkpt lat="40.83983729069517" lon="14.55244604123094"><ele>35.0</ele><time>2026-03-26T17:55:18.999Z</time></trkpt><trkpt lat="40.83962616471818" lon="14.552686179879917"><ele>35.0</ele><time>2026-03-26T17:55:19.999Z</time></trkpt><trkpt lat="40.839412903257575" lon="14.55292497812318"><ele>35.0</ele><time>2026-03-26T17:55:20.999Z</time></trkpt><trkpt lat="40.83919967879292" lon="14.553167726256723"><ele>33.5</ele><time>2026-03-26T17:55:21.999Z</time></trkpt><trkpt lat="40.83898755590782" lon="14.553413649490945"><ele>32.0</ele><time>2026-03-26T17:55:22.999Z</time></trkpt><trkpt lat="40.83877168134133" lon="14.553665813805157"><ele>31.5</ele><time>2026-03-26T17:55:23.999Z</time></trkpt><trkpt lat="40.83855424749195" lon="14.553921529438758"><ele>31.0</ele><time>2026-03-26T17:55:24.999Z</time></trkpt><trkpt lat="40.83833549638868" lon="14.554179998794497"><ele>30.0</ele><time>2026-03-26T17:55:25.999Z</time></trkpt><trkpt lat="40.83811547851363" lon="14.554438861731112"><ele>29.0</ele><time>2026-03-26T17:55:26.999Z</time></trkpt><trkpt lat="40.83789333112927" lon="14.554698266441795"><ele>28.5</ele><time>2026-03-26T17:55:27.999Z</time></trkpt><trkpt lat="40.83766997846864" lon="14.554956929444455"><ele>28.0</ele><time>2026-03-26T17:55:28.999Z</time></trkpt><trkpt lat="40.83744619355796" lon="14.555214241362131"><ele>27.5</ele><time>2026-03-26T17:55:29.999Z</time></trkpt><trkpt lat="40.83722272783605" lon="14.555470579589272"><ele>27.0</ele><time>2026-03-26T17:55:30.999Z</time></trkpt><trkpt lat="40.83700216455098" lon="14.555722893597327"><ele>27.0</ele><time>2026-03-26T17:55:31.999Z</time></trkpt><trkpt lat="40.836781555867404" lon="14.555974640935561"><ele>27.0</ele><time>2026-03-26T17:55:32.999Z</time></trkpt><trkpt lat="40.8365624326882" lon="14.556224631041673"><ele>27.0</ele><time>2026-03-26T17:55:33.999Z</time></trkpt><trkpt lat="40.836345443742864" lon="14.556473944458688"><ele>27.0</ele><time>2026-03-26T17:55:34.999Z</time></trkpt><trkpt lat="40.83612764322697" lon="14.556725336977822"><ele>27.0</ele><time>2026-03-26T17:55:35.999Z</time></trkpt><trkpt lat="40.835910779065934" lon="14.556975446592501"><ele>27.0</ele><time>2026-03-26T17:55:36.999Z</time></trkpt><trkpt lat="40.83569404117007" lon="14.55722393167168"><ele>27.0</ele><time>2026-03-26T17:55:37.999Z</time></trkpt><trkpt lat="40.83547605297182" lon="14.557473509407036"><ele>27.0</ele><time>2026-03-26T17:55:38.999Z</time></trkpt><trkpt lat="40.83525934698428" lon="14.557721462408775"><ele>26.0</ele><time>2026-03-26T17:55:39.999Z</time></trkpt><trkpt lat="40.83504246984429" lon="14.557968647216626"><ele>25.0</ele><time>2026-03-26T17:55:40.999Z</time></trkpt><trkpt lat="40.834822948595026" lon="14.55821842138368"><ele>25.0</ele><time>2026-03-26T17:55:41.999Z</time></trkpt><trkpt lat="40.834602379278365" lon="14.558467902710158"><ele>25.0</ele><time>2026-03-26T17:55:42.999Z</time></trkpt><trkpt lat="40.8343753030095" lon="14.558724661800499"><ele>25.0</ele><time>2026-03-26T17:55:43.999Z</time></trkpt><trkpt lat="40.83414472566962" lon="14.558985152225384"><ele>25.0</ele><time>2026-03-26T17:55:44.999Z</time></trkpt><trkpt lat="40.8339131776547" lon="14.55924744801183"><ele>25.0</ele><time>2026-03-26T17:55:45.999Z</time></trkpt><trkpt lat="40.83368311251418" lon="14.559511795001233"><ele>25.0</ele><time>2026-03-26T17:55:46.999Z</time></trkpt><trkpt lat="40.83345537405759" lon="14.559779905846232"><ele>25.5</ele><time>2026-03-26T17:55:47.999Z</time></trkpt><trkpt lat="40.83322868911702" lon="14.560048925151733"><ele>26.0</ele><time>2026-03-26T17:55:48.999Z</time></trkpt><trkpt lat="40.833004202189656" lon="14.560321879923176"><ele>26.0</ele><time>2026-03-26T17:55:49.999Z</time></trkpt><trkpt lat="40.83278149583635" lon="14.560601851413889"><ele>26.0</ele><time>2026-03-26T17:55:50.999Z</time></trkpt><trkpt lat="40.83256143832768" lon="14.560881951216718"><ele>26.0</ele><time>2026-03-26T17:55:51.999Z</time></trkpt><trkpt lat="40.832342769188735" lon="14.561163910010986"><ele>26.0</ele><time>2026-03-26T17:55:52.999Z</time></trkpt><trkpt lat="40.83212816985837" lon="14.561449012973164"><ele>25.5</ele><time>2026-03-26T17:55:53.999Z</time></trkpt><trkpt lat="40.83191683253866" lon="14.56173525492115"><ele>25.0</ele><time>2026-03-26T17:55:54.999Z</time></trkpt><trkpt lat="40.831708223996905" lon="14.562024409682412"><ele>24.5</ele><time>2026-03-26T17:55:55.999Z</time></trkpt><trkpt lat="40.83150384422758" lon="14.56231614497398"><ele>24.0</ele><time>2026-03-26T17:55:56.999Z</time></trkpt><trkpt lat="40.8313012596252" lon="14.562609134311671"><ele>23.5</ele><time>2026-03-26T17:55:57.999Z</time></trkpt><trkpt lat="40.83110124525537" lon="14.562904763201514"><ele>23.0</ele><time>2026-03-26T17:55:58.999Z</time></trkpt><trkpt lat="40.83090488348922" lon="14.56320401200685"><ele>23.0</ele><time>2026-03-26T17:55:59.999Z</time></trkpt><trkpt lat="40.830711514353375" lon="14.563504954680152"><ele>23.0</ele><time>2026-03-26T17:56:00.999Z</time></trkpt><trkpt lat="40.83052144520578" lon="14.563810592844423"><ele>22.5</ele><time>2026-03-26T17:56:01.999Z</time></trkpt><trkpt lat="40.830331140736746" lon="14.564117197923592"><ele>22.0</ele><time>2026-03-26T17:56:02.999Z</time></trkpt><trkpt lat="40.830139471270776" lon="14.564424401530415"><ele>21.5</ele><time>2026-03-26T17:56:03.999Z</time></trkpt><trkpt lat="40.82994869510464" lon="14.564729264995833"><ele>21.0</ele><time>2026-03-26T17:56:04.999Z</time></trkpt><trkpt lat="40.82975726818162" lon="14.565036547586173"><ele>21.0</ele><time>2026-03-26T17:56:05.999Z</time></trkpt><trkpt lat="40.82956752539711" lon="14.5653451751139"><ele>21.0</ele><time>2026-03-26T17:56:06.999Z</time></trkpt><trkpt lat="40.829376853554116" lon="14.565653262560787"><ele>21.0</ele><time>2026-03-26T17:56:07.999Z</time></trkpt><trkpt lat="40.829186454787326" lon="14.5659583996807"><ele>21.0</ele><time>2026-03-26T17:56:08.999Z</time></trkpt><trkpt lat="40.82899710249051" lon="14.566262685296593"><ele>21.0</ele><time>2026-03-26T17:56:09.999Z</time></trkpt><trkpt lat="40.828808256650106" lon="14.566567877651918"><ele>21.0</ele><time>2026-03-26T17:56:10.999Z</time></trkpt><trkpt lat="40.82861779922939" lon="14.566868708514354"><ele>21.0</ele><time>2026-03-26T17:56:11.999Z</time></trkpt><trkpt lat="40.82842603403164" lon="14.567171048350884"><ele>21.0</ele><time>2026-03-26T17:56:12.999Z</time></trkpt><trkpt lat="40.82823315327468" lon="14.5674709120659"><ele>21.0</ele><time>2026-03-26T17:56:13.999Z</time></trkpt><trkpt lat="40.828040149780875" lon="14.567768299536505"><ele>21.0</ele><time>2026-03-26T17:56:14.999Z</time></trkpt><trkpt lat="40.82784708539119" lon="14.568067305312093"><ele>21.0</ele><time>2026-03-26T17:56:15.999Z</time></trkpt><trkpt lat="40.82765571871568" lon="14.568364699576785"><ele>21.0</ele><time>2026-03-26T17:56:16.999Z</time></trkpt><trkpt lat="40.82746536556782" lon="14.568663421027672"><ele>21.0</ele><time>2026-03-26T17:56:17.999Z</time></trkpt><trkpt lat="40.827276194043485" lon="14.568965598347098"><ele>21.0</ele><time>2026-03-26T17:56:18.999Z</time></trkpt><trkpt lat="40.82708892446195" lon="14.569267985771376"><ele>21.0</ele><time>2026-03-26T17:56:19.999Z</time></trkpt><trkpt lat="40.82690290821311" lon="14.569569127224964"><ele>21.0</ele><time>2026-03-26T17:56:20.999Z</time></trkpt><trkpt lat="40.82671780295397" lon="14.569872353723445"><ele>20.5</ele><time>2026-03-26T17:56:21.999Z</time></trkpt><trkpt lat="40.82653272315265" lon="14.570177858700056"><ele>20.0</ele><time>2026-03-26T17:56:22.999Z</time></trkpt><trkpt lat="40.8263459048301" lon="14.570478208797097"><ele>19.5</ele><time>2026-03-26T17:56:23.999Z</time></trkpt><trkpt lat="40.82615763749389" lon="14.570777323524197"><ele>19.0</ele><time>2026-03-26T17:56:24.999Z</time></trkpt><trkpt lat="40.82596852484221" lon="14.571075584456345"><ele>19.5</ele><time>2026-03-26T17:56:25.999Z</time></trkpt><trkpt lat="40.825779578864974" lon="14.571374646318695"><ele>20.0</ele><time>2026-03-26T17:56:26.999Z</time></trkpt><trkpt lat="40.82559079458199" lon="14.571674156418217"><ele>20.0</ele><time>2026-03-26T17:56:27.999Z</time></trkpt><trkpt lat="40.825403911360624" lon="14.571972787238387"><ele>20.0</ele><time>2026-03-26T17:56:28.999Z</time></trkpt><trkpt lat="40.825218120854814" lon="14.57227301147987"><ele>19.5</ele><time>2026-03-26T17:56:29.999Z</time></trkpt><trkpt lat="40.82503413015762" lon="14.572572918447873"><ele>19.0</ele><time>2026-03-26T17:56:30.999Z</time></trkpt><trkpt lat="40.824852121917644" lon="14.572870293314963"><ele>19.0</ele><time>2026-03-26T17:56:31.999Z</time></trkpt><trkpt lat="40.824672853080585" lon="14.5731638958009"><ele>19.0</ele><time>2026-03-26T17:56:32.999Z</time></trkpt><trkpt lat="40.82449362761774" lon="14.573455490830673"><ele>20.0</ele><time>2026-03-26T17:56:33.999Z</time></trkpt><trkpt lat="40.82431171121462" lon="14.573748251806204"><ele>21.0</ele><time>2026-03-26T17:56:34.999Z</time></trkpt><trkpt lat="40.824128195123876" lon="14.574043018419843"><ele>21.0</ele><time>2026-03-26T17:56:35.999Z</time></trkpt><trkpt lat="40.82394433710954" lon="14.574337888922635"><ele>21.0</ele><time>2026-03-26T17:56:36.999Z</time></trkpt><trkpt lat="40.82375993444107" lon="14.574634538921588"><ele>21.0</ele><time>2026-03-26T17:56:37.999Z</time></trkpt><trkpt lat="40.823575999271654" lon="14.574930340589825"><ele>21.0</ele><time>2026-03-26T17:56:38.999Z</time></trkpt><trkpt lat="40.82339053332591" lon="14.575228556274167"><ele>21.0</ele><time>2026-03-26T17:56:39.999Z</time></trkpt><trkpt lat="40.82320349542554" lon="14.575528483417685"><ele>21.0</ele><time>2026-03-26T17:56:40.999Z</time></trkpt><trkpt lat="40.82301492758634" lon="14.57583004936084"><ele>21.0</ele><time>2026-03-26T17:56:41.999Z</time></trkpt><trkpt lat="40.82282697731133" lon="14.576130757854669"><ele>21.0</ele><time>2026-03-26T17:56:42.999Z</time></trkpt><trkpt lat="40.82263915682005" lon="14.576432612150924"><ele>20.5</ele><time>2026-03-26T17:56:43.999Z</time></trkpt><trkpt lat="40.82244979530985" lon="14.576737277430666"><ele>20.0</ele><time>2026-03-26T17:56:44.999Z</time></trkpt><trkpt lat="40.82226007300543" lon="14.577040660715221"><ele>20.0</ele><time>2026-03-26T17:56:45.999Z</time></trkpt><trkpt lat="40.822069262181195" lon="14.577345598191318"><ele>20.0</ele><time>2026-03-26T17:56:46.999Z</time></trkpt><trkpt lat="40.82188627880377" lon="14.577636930999015"><ele>20.5</ele><time>2026-03-26T17:56:47.999Z</time></trkpt><trkpt lat="40.82171212531486" lon="14.577914176148367"><ele>21.0</ele><time>2026-03-26T17:56:48.999Z</time></trkpt><trkpt lat="40.82153920687789" lon="14.57819048301463"><ele>21.0</ele><time>2026-03-26T17:56:49.999Z</time></trkpt><trkpt lat="40.82136732088484" lon="14.578467803727907"><ele>21.0</ele><time>2026-03-26T17:56:50.999Z</time></trkpt><trkpt lat="40.82119870969126" lon="14.578740248859704"><ele>21.0</ele><time>2026-03-26T17:56:51.999Z</time></trkpt><trkpt lat="40.82103448469863" lon="14.579006621598305"><ele>21.0</ele><time>2026-03-26T17:56:52.999Z</time></trkpt><trkpt lat="40.82087128882609" lon="14.579274362514646"><ele>21.0</ele><time>2026-03-26T17:56:53.999Z</time></trkpt><trkpt lat="40.82070775804324" lon="14.579542000392411"><ele>21.0</ele><time>2026-03-26T17:56:54.999Z</time></trkpt><trkpt lat="40.82054269303902" lon="14.57980775878714"><ele>21.0</ele><time>2026-03-26T17:56:55.999Z</time></trkpt><trkpt lat="40.82037865076732" lon="14.580071326052096"><ele>21.0</ele><time>2026-03-26T17:56:56.999Z</time></trkpt><trkpt lat="40.820214765591324" lon="14.580336403455622"><ele>20.5</ele><time>2026-03-26T17:56:57.999Z</time></trkpt><trkpt lat="40.8200496772565" lon="14.580600881103674"><ele>20.0</ele><time>2026-03-26T17:56:58.999Z</time></trkpt><trkpt lat="40.8198833705421" lon="14.580864519912199"><ele>20.0</ele><time>2026-03-26T17:56:59.999Z</time></trkpt><trkpt lat="40.81971666219058" lon="14.581129750688085"><ele>20.0</ele><time>2026-03-26T17:57:00.999Z</time></trkpt><trkpt lat="40.819548681636974" lon="14.581399622455345"><ele>20.0</ele><time>2026-03-26T17:57:01.999Z</time></trkpt><trkpt lat="40.81938017696523" lon="14.581672966770569"><ele>20.0</ele><time>2026-03-26T17:57:02.999Z</time></trkpt><trkpt lat="40.81921317733737" lon="14.581947320196624"><ele>19.5</ele><time>2026-03-26T17:57:03.999Z</time></trkpt><trkpt lat="40.819057421033655" lon="14.582202342929163"><ele>19.0</ele><time>2026-03-26T17:57:04.999Z</time></trkpt><trkpt lat="40.818909775053605" lon="14.582442931094898"><ele>19.0</ele><time>2026-03-26T17:57:05.999Z</time></trkpt><trkpt lat="40.81877289144161" lon="14.582668757580828"><ele>19.0</ele><time>2026-03-26T17:57:06.999Z</time></trkpt><trkpt lat="40.8186430820564" lon="14.5828806147051"><ele>19.0</ele><time>2026-03-26T17:57:07.999Z</time></trkpt><trkpt lat="40.818518214888144" lon="14.583080102885917"><ele>18.333333333333332</ele><time>2026-03-26T17:57:08.999Z</time></trkpt><trkpt lat="40.818399049854044" lon="14.583266618646663"><ele>17.666666666666668</ele><time>2026-03-26T17:57:09.999Z</time></trkpt><trkpt lat="40.818285752870366" lon="14.583443613102352"><ele>17.0</ele><time>2026-03-26T17:57:10.999Z</time></trkpt><trkpt lat="40.81817833781715" lon="14.583613778665825"><ele>17.333333333333336</ele><time>2026-03-26T17:57:11.999Z</time></trkpt><trkpt lat="40.818082134148945" lon="14.583777502398354"><ele>17.666666666666668</ele><time>2026-03-26T17:57:13Z</time></trkpt><trkpt lat="40.81800187027616" lon="14.583940437032757"><ele>18.0</ele><time>2026-03-26T17:57:14Z</time></trkpt><trkpt lat="40.81792792361307" lon="14.58410830903389"><ele>18.0</ele><time>2026-03-26T17:57:15Z</time></trkpt><trkpt lat="40.81785845040828" lon="14.58427225069889"><ele>18.0</ele><time>2026-03-26T17:57:16Z</time></trkpt><trkpt lat="40.817788667427166" lon="14.584422167681346"><ele>18.0</ele><time>2026-03-26T17:57:17Z</time></trkpt><trkpt lat="40.817692329924974" lon="14.584554140368843"><ele>18.0</ele><time>2026-03-26T17:57:18Z</time></trkpt><trkpt lat="40.8175977813918" lon="14.584705933392037"><ele>18.0</ele><time>2026-03-26T17:57:19Z</time></trkpt><trkpt lat="40.817494898207826" lon="14.584871107245984"><ele>18.0</ele><time>2026-03-26T17:57:20Z</time></trkpt><trkpt lat="40.81738560661372" lon="14.585046569537626"><ele>18.0</ele><time>2026-03-26T17:57:21Z</time></trkpt><trkpt lat="40.81727081187888" lon="14.585230860473851"><ele>17.666666666666668</ele><time>2026-03-26T17:57:22Z</time></trkpt><trkpt lat="40.81715242566287" lon="14.585420827184935"><ele>17.333333333333336</ele><time>2026-03-26T17:57:23Z</time></trkpt><trkpt lat="40.81703083658341" lon="14.585615933359545"><ele>17.0</ele><time>2026-03-26T17:57:24Z</time></trkpt><trkpt lat="40.816905674492986" lon="14.58581763302878"><ele>17.333333333333336</ele><time>2026-03-26T17:57:25Z</time></trkpt><trkpt lat="40.81677893122381" lon="14.586022379194677"><ele>17.666666666666668</ele><time>2026-03-26T17:57:26Z</time></trkpt><trkpt lat="40.81664900490407" lon="14.586232267120785"><ele>18.0</ele><time>2026-03-26T17:57:27Z</time></trkpt><trkpt lat="40.81651701492164" lon="14.586445489326692"><ele>18.0</ele><time>2026-03-26T17:57:28Z</time></trkpt><trkpt lat="40.816383077763895" lon="14.586661856683074"><ele>18.0</ele><time>2026-03-26T17:57:29Z</time></trkpt><trkpt lat="40.81624800932763" lon="14.586880051917245"><ele>18.0</ele><time>2026-03-26T17:57:30Z</time></trkpt><trkpt lat="40.81611076291324" lon="14.587101333647128"><ele>18.0</ele><time>2026-03-26T17:57:31Z</time></trkpt><trkpt lat="40.815971982226166" lon="14.58732418403123"><ele>18.0</ele><time>2026-03-26T17:57:32Z</time></trkpt><trkpt lat="40.81583094063008" lon="14.587550664914703"><ele>18.0</ele><time>2026-03-26T17:57:33Z</time></trkpt><trkpt lat="40.81568954508002" lon="14.587777714317637"><ele>17.333333333333332</ele><time>2026-03-26T17:57:34Z</time></trkpt><trkpt lat="40.81555985208184" lon="14.588018714716378"><ele>16.666666666666664</ele><time>2026-03-26T17:57:35Z</time></trkpt><trkpt lat="40.81541603270939" lon="14.588247313638764"><ele>16.0</ele><time>2026-03-26T17:57:36Z</time></trkpt><trkpt lat="40.81527127957811" lon="14.588475927927439"><ele>16.5</ele><time>2026-03-26T17:57:37Z</time></trkpt><trkpt lat="40.81512493690612" lon="14.588706059019668"><ele>17.0</ele><time>2026-03-26T17:57:38Z</time></trkpt><trkpt lat="40.814976344654546" lon="14.588936291178772"><ele>17.0</ele><time>2026-03-26T17:57:39Z</time></trkpt><trkpt lat="40.814825453849274" lon="14.589163964399031"><ele>17.0</ele><time>2026-03-26T17:57:40Z</time></trkpt><trkpt lat="40.81466106506481" lon="14.589374608587228"><ele>18.0</ele><time>2026-03-26T17:57:41Z</time></trkpt><trkpt lat="40.814505881406184" lon="14.589597045086524"><ele>19.0</ele><time>2026-03-26T17:57:42Z</time></trkpt><trkpt lat="40.81434290413733" lon="14.589813496005151"><ele>18.5</ele><time>2026-03-26T17:57:43Z</time></trkpt><trkpt lat="40.81418072922383" lon="14.590030780552409"><ele>18.0</ele><time>2026-03-26T17:57:44Z</time></trkpt><trkpt lat="40.8140249762886" lon="14.59025714487778"><ele>18.0</ele><time>2026-03-26T17:57:45Z</time></trkpt><trkpt lat="40.813871812919025" lon="14.590483908031194"><ele>18.0</ele><time>2026-03-26T17:57:46Z</time></trkpt><trkpt lat="40.813712368734315" lon="14.59070245965813"><ele>18.0</ele><time>2026-03-26T17:57:47Z</time></trkpt><trkpt lat="40.81355060396681" lon="14.5909179661525"><ele>18.0</ele><time>2026-03-26T17:57:48Z</time></trkpt><trkpt lat="40.81338597777616" lon="14.591129054948977"><ele>18.5</ele><time>2026-03-26T17:57:49Z</time></trkpt><trkpt lat="40.8132213087879" lon="14.591339429366954"><ele>19.0</ele><time>2026-03-26T17:57:50Z</time></trkpt><trkpt lat="40.81306699365713" lon="14.5915670334571"><ele>19.0</ele><time>2026-03-26T17:57:51Z</time></trkpt><trkpt lat="40.81289704548425" lon="14.591774713127194"><ele>19.0</ele><time>2026-03-26T17:57:52Z</time></trkpt><trkpt lat="40.812724687569286" lon="14.591982067207843"><ele>19.5</ele><time>2026-03-26T17:57:53Z</time></trkpt><trkpt lat="40.81255077361664" lon="14.592184960895974"><ele>20.0</ele><time>2026-03-26T17:57:54Z</time></trkpt><trkpt lat="40.81237639477193" lon="14.592387739635667"><ele>20.0</ele><time>2026-03-26T17:57:55Z</time></trkpt><trkpt lat="40.812200760919765" lon="14.59258942007683"><ele>20.0</ele><time>2026-03-26T17:57:56Z</time></trkpt><trkpt lat="40.81201305448025" lon="14.592772693361798"><ele>20.5</ele><time>2026-03-26T17:57:57Z</time></trkpt><trkpt lat="40.811834429873166" lon="14.592969995221525"><ele>21.0</ele><time>2026-03-26T17:57:58Z</time></trkpt><trkpt lat="40.81165545744949" lon="14.59316776221134"><ele>21.0</ele><time>2026-03-26T17:57:59Z</time></trkpt><trkpt lat="40.81147556378947" lon="14.59336656085114"><ele>21.0</ele><time>2026-03-26T17:58:00Z</time></trkpt><trkpt lat="40.81129834628737" lon="14.593562397299602"><ele>19.5</ele><time>2026-03-26T17:58:01Z</time></trkpt><trkpt lat="40.81111781736637" lon="14.593761897956488"><ele>18.0</ele><time>2026-03-26T17:58:02Z</time></trkpt><trkpt lat="40.81093632699519" lon="14.593961856811495"><ele>18.0</ele><time>2026-03-26T17:58:03Z</time></trkpt><trkpt lat="40.81075487923555" lon="14.59416029989059"><ele>18.0</ele><time>2026-03-26T17:58:04Z</time></trkpt><trkpt lat="40.81057309236908" lon="14.594360385195777"><ele>17.5</ele><time>2026-03-26T17:58:05Z</time></trkpt><trkpt lat="40.81039293029846" lon="14.594560077557269"><ele>17.0</ele><time>2026-03-26T17:58:06Z</time></trkpt><trkpt lat="40.81021361689376" lon="14.594757500804493"><ele>16.5</ele><time>2026-03-26T17:58:07Z</time></trkpt><trkpt lat="40.81003520428497" lon="14.594954025658184"><ele>16.0</ele><time>2026-03-26T17:58:08Z</time></trkpt><trkpt lat="40.80986378463692" lon="14.595172960916827"><ele>16.0</ele><time>2026-03-26T17:58:09Z</time></trkpt><trkpt lat="40.809679132913146" lon="14.595377194510656"><ele>16.0</ele><time>2026-03-26T17:58:10Z</time></trkpt><trkpt lat="40.80949266482925" lon="14.595583700842928"><ele>16.5</ele><time>2026-03-26T17:58:11Z</time></trkpt><trkpt lat="40.80930314619777" lon="14.595792141543484"><ele>17.0</ele><time>2026-03-26T17:58:12Z</time></trkpt><trkpt lat="40.80911243216085" lon="14.596002390913698"><ele>17.0</ele><time>2026-03-26T17:58:13Z</time></trkpt><trkpt lat="40.808920562333164" lon="14.596212037916876"><ele>17.0</ele><time>2026-03-26T17:58:14Z</time></trkpt><trkpt lat="40.80872970964715" lon="14.596420185794976"><ele>17.0</ele><time>2026-03-26T17:58:15Z</time></trkpt><trkpt lat="40.808542252726724" lon="14.596630726938256"><ele>17.0</ele><time>2026-03-26T17:58:16Z</time></trkpt><trkpt lat="40.808344624799226" lon="14.596822195441451"><ele>16.5</ele><time>2026-03-26T17:58:17Z</time></trkpt><trkpt lat="40.808157284456634" lon="14.597029052686782"><ele>16.0</ele><time>2026-03-26T17:58:18Z</time></trkpt><trkpt lat="40.80797065941909" lon="14.597234161732043"><ele>16.0</ele><time>2026-03-26T17:58:19Z</time></trkpt><trkpt lat="40.80778427122084" lon="14.59743896512305"><ele>16.0</ele><time>2026-03-26T17:58:20Z</time></trkpt><trkpt lat="40.807598724708335" lon="14.597642850074836"><ele>16.0</ele><time>2026-03-26T17:58:21Z</time></trkpt><trkpt lat="40.80741326658097" lon="14.597846637906938"><ele>16.0</ele><time>2026-03-26T17:58:22Z</time></trkpt><trkpt lat="40.807228886356995" lon="14.59805072551019"><ele>16.0</ele><time>2026-03-26T17:58:23Z</time></trkpt><trkpt lat="40.80705540743538" lon="14.598268538281433"><ele>16.0</ele><time>2026-03-26T17:58:24Z</time></trkpt><trkpt lat="40.80687063543737" lon="14.598471779832725"><ele>17.0</ele><time>2026-03-26T17:58:25Z</time></trkpt><trkpt lat="40.80668736530868" lon="14.598675044322245"><ele>18.0</ele><time>2026-03-26T17:58:26Z</time></trkpt><trkpt lat="40.80650408639711" lon="14.59887920766469"><ele>18.0</ele><time>2026-03-26T17:58:27Z</time></trkpt><trkpt lat="40.80631979113625" lon="14.599083817504752"><ele>18.0</ele><time>2026-03-26T17:58:28Z</time></trkpt><trkpt lat="40.80613425105236" lon="14.599288850980939"><ele>17.5</ele><time>2026-03-26T17:58:29Z</time></trkpt><trkpt lat="40.80594543151183" lon="14.599496112336205"><ele>17.0</ele><time>2026-03-26T17:58:30Z</time></trkpt><trkpt lat="40.80575718479408" lon="14.599702096387183"><ele>17.0</ele><time>2026-03-26T17:58:31Z</time></trkpt><trkpt lat="40.80557273312523" lon="14.59990581407183"><ele>17.0</ele><time>2026-03-26T17:58:32Z</time></trkpt><trkpt lat="40.80538823313361" lon="14.600108532294058"><ele>17.0</ele><time>2026-03-26T17:58:33Z</time></trkpt><trkpt lat="40.80520265564967" lon="14.600311542924764"><ele>17.0</ele><time>2026-03-26T17:58:34Z</time></trkpt><trkpt lat="40.80501846252059" lon="14.600515018605131"><ele>16.5</ele><time>2026-03-26T17:58:35Z</time></trkpt><trkpt lat="40.80483479815555" lon="14.600717748036846"><ele>16.0</ele><time>2026-03-26T17:58:36Z</time></trkpt><trkpt lat="40.8046505243085" lon="14.600920260248213"><ele>16.0</ele><time>2026-03-26T17:58:37Z</time></trkpt><trkpt lat="40.804467930612724" lon="14.601122203935592"><ele>16.0</ele><time>2026-03-26T17:58:38Z</time></trkpt><trkpt lat="40.80428562902658" lon="14.601324265342235"><ele>16.0</ele><time>2026-03-26T17:58:39Z</time></trkpt><trkpt lat="40.804103607136724" lon="14.601525986162834"><ele>16.0</ele><time>2026-03-26T17:58:40Z</time></trkpt><trkpt lat="40.80392037471608" lon="14.601727782143351"><ele>16.0</ele><time>2026-03-26T17:58:41Z</time></trkpt><trkpt lat="40.80373698666954" lon="14.60192984585977"><ele>16.0</ele><time>2026-03-26T17:58:42Z</time></trkpt><trkpt lat="40.803552503531705" lon="14.602131698575203"><ele>17.0</ele><time>2026-03-26T17:58:43Z</time></trkpt><trkpt lat="40.803366990838136" lon="14.60233409594224"><ele>18.0</ele><time>2026-03-26T17:58:44Z</time></trkpt><trkpt lat="40.803182442531345" lon="14.60253476222221"><ele>18.0</ele><time>2026-03-26T17:58:45Z</time></trkpt><trkpt lat="40.803000927457774" lon="14.602735333268368"><ele>18.0</ele><time>2026-03-26T17:58:46Z</time></trkpt><trkpt lat="40.80282209395511" lon="14.602935172121287"><ele>19.0</ele><time>2026-03-26T17:58:47Z</time></trkpt><trkpt lat="40.802641808056286" lon="14.603135525907213"><ele>20.0</ele><time>2026-03-26T17:58:48Z</time></trkpt><trkpt lat="40.80246062724059" lon="14.603334119308615"><ele>20.0</ele><time>2026-03-26T17:58:49Z</time></trkpt><trkpt lat="40.80227820394472" lon="14.603533678366617"><ele>20.0</ele><time>2026-03-26T17:58:50Z</time></trkpt><trkpt lat="40.802094968483566" lon="14.603735279273259"><ele>20.0</ele><time>2026-03-26T17:58:50.999Z</time></trkpt><trkpt lat="40.80191133434651" lon="14.603937900551415"><ele>20.0</ele><time>2026-03-26T17:58:51.999Z</time></trkpt><trkpt lat="40.8017286115209" lon="14.604134412417446"><ele>20.0</ele><time>2026-03-26T17:58:52.999Z</time></trkpt><trkpt lat="40.80154633773817" lon="14.60432872537764"><ele>20.0</ele><time>2026-03-26T17:58:53.999Z</time></trkpt><trkpt lat="40.801363722385325" lon="14.604523407736794"><ele>20.0</ele><time>2026-03-26T17:58:54.999Z</time></trkpt><trkpt lat="40.801180174606365" lon="14.604712753661344"><ele>20.0</ele><time>2026-03-26T17:58:55.999Z</time></trkpt><trkpt lat="40.80099334275951" lon="14.604895347070485"><ele>20.0</ele><time>2026-03-26T17:58:56.999Z</time></trkpt><trkpt lat="40.800801783385026" lon="14.605072321154829"><ele>20.0</ele><time>2026-03-26T17:58:57.999Z</time></trkpt><trkpt lat="40.80060805577077" lon="14.605246032959055"><ele>18.5</ele><time>2026-03-26T17:58:58.999Z</time></trkpt><trkpt lat="40.80041426003372" lon="14.605413952971043"><ele>17.0</ele><time>2026-03-26T17:58:59.999Z</time></trkpt><trkpt lat="40.800217569195716" lon="14.605579169066331"><ele>17.0</ele><time>2026-03-26T17:59:00.999Z</time></trkpt><trkpt lat="40.80002155553063" lon="14.605739369918833"><ele>17.0</ele><time>2026-03-26T17:59:01.999Z</time></trkpt><trkpt lat="40.79982571027226" lon="14.605894164509884"><ele>17.0</ele><time>2026-03-26T17:59:02.999Z</time></trkpt><trkpt lat="40.79963165368084" lon="14.606040975418347"><ele>17.0</ele><time>2026-03-26T17:59:03.999Z</time></trkpt><trkpt lat="40.79943806684676" lon="14.606179622433775"><ele>17.0</ele><time>2026-03-26T17:59:04.999Z</time></trkpt><trkpt lat="40.79924131989583" lon="14.60631634712621"><ele>17.333333333333336</ele><time>2026-03-26T17:59:05.999Z</time></trkpt><trkpt lat="40.79904321890476" lon="14.60644885762964"><ele>17.666666666666668</ele><time>2026-03-26T17:59:06.999Z</time></trkpt><trkpt lat="40.79884371422073" lon="14.606577194167196"><ele>18.0</ele><time>2026-03-26T17:59:07.999Z</time></trkpt><trkpt lat="40.79865203125349" lon="14.606696553395073"><ele>17.666666666666668</ele><time>2026-03-26T17:59:08.999Z</time></trkpt><trkpt lat="40.798464068449896" lon="14.606809048990712"><ele>17.333333333333336</ele><time>2026-03-26T17:59:09.999Z</time></trkpt><trkpt lat="40.79827406021436" lon="14.606915998554184"><ele>17.0</ele><time>2026-03-26T17:59:10.999Z</time></trkpt><trkpt lat="40.79808722913123" lon="14.607016089351204"><ele>17.0</ele><time>2026-03-26T17:59:11.999Z</time></trkpt><trkpt lat="40.79790817719994" lon="14.607108924448008"><ele>17.0</ele><time>2026-03-26T17:59:12.999Z</time></trkpt><trkpt lat="40.79773577469664" lon="14.607195552206012"><ele>17.0</ele><time>2026-03-26T17:59:13.999Z</time></trkpt><trkpt lat="40.79756991172058" lon="14.607275064880483"><ele>17.333333333333336</ele><time>2026-03-26T17:59:14.999Z</time></trkpt><trkpt lat="40.79741282098395" lon="14.607349337306559"><ele>17.666666666666668</ele><time>2026-03-26T17:59:15.999Z</time></trkpt><trkpt lat="40.79726518580032" lon="14.607414404635184"><ele>18.0</ele><time>2026-03-26T17:59:16.999Z</time></trkpt><trkpt lat="40.79713138007728" lon="14.607471421476971"><ele>18.0</ele><time>2026-03-26T17:59:17.999Z</time></trkpt><trkpt lat="40.7970053363012" lon="14.607522488598079"><ele>18.0</ele><time>2026-03-26T17:59:18.999Z</time></trkpt><trkpt lat="40.79687809597131" lon="14.607566618424567"><ele>18.0</ele><time>2026-03-26T17:59:19.999Z</time></trkpt><trkpt lat="40.79673898954626" lon="14.607597862263246"><ele>18.0</ele><time>2026-03-26T17:59:20.999Z</time></trkpt><trkpt lat="40.79659370148011" lon="14.60762707998855"><ele>18.333333333333332</ele><time>2026-03-26T17:59:21.999Z</time></trkpt><trkpt lat="40.79643854305789" lon="14.607665325371416"><ele>18.666666666666664</ele><time>2026-03-26T17:59:22.999Z</time></trkpt><trkpt lat="40.79627847565679" lon="14.607722341110913"><ele>19.0</ele><time>2026-03-26T17:59:24Z</time></trkpt><trkpt lat="40.79610889258243" lon="14.607790521633959"><ele>20.333333333333332</ele><time>2026-03-26T17:59:25Z</time></trkpt><trkpt lat="40.795929635361624" lon="14.607863092716256"><ele>21.666666666666668</ele><time>2026-03-26T17:59:26Z</time></trkpt><trkpt lat="40.795735506990255" lon="14.607938199194997"><ele>23.0</ele><time>2026-03-26T17:59:27Z</time></trkpt><trkpt lat="40.795528763317705" lon="14.608016001861689"><ele>23.0</ele><time>2026-03-26T17:59:28Z</time></trkpt><trkpt lat="40.795311996347664" lon="14.608092374936104"><ele>23.0</ele><time>2026-03-26T17:59:29Z</time></trkpt><trkpt lat="40.79508656229931" lon="14.60816868797599"><ele>20.5</ele><time>2026-03-26T17:59:30Z</time></trkpt><trkpt lat="40.79485546690303" lon="14.608252303920247"><ele>18.0</ele><time>2026-03-26T17:59:31Z</time></trkpt><trkpt lat="40.79461743439375" lon="14.608341319868565"><ele>18.0</ele><time>2026-03-26T17:59:32Z</time></trkpt><trkpt lat="40.79437476559736" lon="14.608434885033278"><ele>18.0</ele><time>2026-03-26T17:59:33Z</time></trkpt><trkpt lat="40.79412872013518" lon="14.608537436064601"><ele>18.0</ele><time>2026-03-26T17:59:34Z</time></trkpt><trkpt lat="40.79388115591812" lon="14.608651713070618"><ele>18.0</ele><time>2026-03-26T17:59:35Z</time></trkpt><trkpt lat="40.79363141012182" lon="14.608778701618567"><ele>17.0</ele><time>2026-03-26T17:59:36Z</time></trkpt><trkpt lat="40.79338309384778" lon="14.6089156729179"><ele>16.0</ele><time>2026-03-26T17:59:37Z</time></trkpt><trkpt lat="40.79313473534483" lon="14.609066258182697"><ele>16.0</ele><time>2026-03-26T17:59:38Z</time></trkpt><trkpt lat="40.79288741746145" lon="14.609229197654804"><ele>16.0</ele><time>2026-03-26T17:59:39Z</time></trkpt><trkpt lat="40.79264211568147" lon="14.609403109096009"><ele>16.5</ele><time>2026-03-26T17:59:40Z</time></trkpt><trkpt lat="40.79239856217166" lon="14.609587573627012"><ele>17.0</ele><time>2026-03-26T17:59:41Z</time></trkpt><trkpt lat="40.79215844737557" lon="14.609783979551853"><ele>17.0</ele><time>2026-03-26T17:59:42Z</time></trkpt><trkpt lat="40.791923152730625" lon="14.609993471205653"><ele>17.0</ele><time>2026-03-26T17:59:43Z</time></trkpt><trkpt lat="40.79169368654602" lon="14.610216418287337"><ele>17.5</ele><time>2026-03-26T17:59:44Z</time></trkpt><trkpt lat="40.791470155193565" lon="14.610450788398898"><ele>18.0</ele><time>2026-03-26T17:59:45Z</time></trkpt><trkpt lat="40.79125141011292" lon="14.610697353301811"><ele>18.0</ele><time>2026-03-26T17:59:46Z</time></trkpt><trkpt lat="40.79103626478073" lon="14.610953285192425"><ele>18.0</ele><time>2026-03-26T17:59:47Z</time></trkpt><trkpt lat="40.79082634233016" lon="14.61121728002549"><ele>17.5</ele><time>2026-03-26T17:59:48Z</time></trkpt><trkpt lat="40.79062316084757" lon="14.611495000276532"><ele>17.0</ele><time>2026-03-26T17:59:49Z</time></trkpt><trkpt lat="40.79042771292648" lon="14.611785165177226"><ele>17.0</ele><time>2026-03-26T17:59:50Z</time></trkpt><trkpt lat="40.79024341111558" lon="14.612083102646524"><ele>17.0</ele><time>2026-03-26T17:59:51Z</time></trkpt><trkpt lat="40.79006548771345" lon="14.612388449482065"><ele>18.0</ele><time>2026-03-26T17:59:52Z</time></trkpt><trkpt lat="40.78989158050227" lon="14.612697989613455"><ele>19.0</ele><time>2026-03-26T17:59:53Z</time></trkpt><trkpt lat="40.789718015136096" lon="14.613008463348937"><ele>20.0</ele><time>2026-03-26T17:59:54Z</time></trkpt><trkpt lat="40.789544946235516" lon="14.61331774122545"><ele>21.0</ele><time>2026-03-26T17:59:55Z</time></trkpt><trkpt lat="40.78937121704496" lon="14.61362315935427"><ele>21.0</ele><time>2026-03-26T17:59:56Z</time></trkpt><trkpt lat="40.78919243260978" lon="14.613919999237664"><ele>21.0</ele><time>2026-03-26T17:59:57Z</time></trkpt><trkpt lat="40.78900743979101" lon="14.614209835126664"><ele>21.0</ele><time>2026-03-26T17:59:58Z</time></trkpt><trkpt lat="40.788813796892114" lon="14.614491140828038"><ele>21.0</ele><time>2026-03-26T17:59:59Z</time></trkpt><trkpt lat="40.7886159719053" lon="14.614766584752909"><ele>21.5</ele><time>2026-03-26T18:00:00Z</time></trkpt><trkpt lat="40.78840563809618" lon="14.61502709216594"><ele>22.0</ele><time>2026-03-26T18:00:01Z</time></trkpt><trkpt lat="40.78818736757331" lon="14.615278619929386"><ele>21.0</ele><time>2026-03-26T18:00:02Z</time></trkpt><trkpt lat="40.78796004471733" lon="14.615519391996239"><ele>20.0</ele><time>2026-03-26T18:00:03Z</time></trkpt><trkpt lat="40.7877255175279" lon="14.6157502116731"><ele>21.0</ele><time>2026-03-26T18:00:04Z</time></trkpt><trkpt lat="40.78748618935414" lon="14.615977470089403"><ele>22.0</ele><time>2026-03-26T18:00:05Z</time></trkpt><trkpt lat="40.78724510321495" lon="14.616202726738887"><ele>22.5</ele><time>2026-03-26T18:00:06Z</time></trkpt><trkpt lat="40.787002018205136" lon="14.616425616453297"><ele>23.0</ele><time>2026-03-26T18:00:07Z</time></trkpt><trkpt lat="40.78675776763134" lon="14.616646962745428"><ele>23.5</ele><time>2026-03-26T18:00:08Z</time></trkpt><trkpt lat="40.786511446841445" lon="14.616867872455558"><ele>24.0</ele><time>2026-03-26T18:00:09Z</time></trkpt><trkpt lat="40.7862669357301" lon="14.617088878272495"><ele>24.0</ele><time>2026-03-26T18:00:10Z</time></trkpt><trkpt lat="40.786023223165614" lon="14.617309969817322"><ele>24.0</ele><time>2026-03-26T18:00:11Z</time></trkpt><trkpt lat="40.78578071464964" lon="14.61752944796609"><ele>23.5</ele><time>2026-03-26T18:00:12Z</time></trkpt><trkpt lat="40.785537669527734" lon="14.61774910129202"><ele>23.0</ele><time>2026-03-26T18:00:13Z</time></trkpt><trkpt lat="40.785297938604664" lon="14.61797206279268"><ele>24.5</ele><time>2026-03-26T18:00:14Z</time></trkpt><trkpt lat="40.78506440079816" lon="14.618199667963161"><ele>26.0</ele><time>2026-03-26T18:00:15Z</time></trkpt><trkpt lat="40.78483822342863" lon="14.618432054202884"><ele>24.0</ele><time>2026-03-26T18:00:16Z</time></trkpt><trkpt lat="40.78461387594628" lon="14.618672118397297"><ele>22.0</ele><time>2026-03-26T18:00:17Z</time></trkpt><trkpt lat="40.78439276709658" lon="14.618919954600363"><ele>23.0</ele><time>2026-03-26T18:00:18Z</time></trkpt><trkpt lat="40.78417684822098" lon="14.619174024190377"><ele>24.0</ele><time>2026-03-26T18:00:19Z</time></trkpt><trkpt lat="40.783966999766605" lon="14.619438042769897"><ele>23.0</ele><time>2026-03-26T18:00:20Z</time></trkpt><trkpt lat="40.78376222718603" lon="14.619710972166393"><ele>22.0</ele><time>2026-03-26T18:00:21Z</time></trkpt><trkpt lat="40.78356167538219" lon="14.619993500603707"><ele>22.0</ele><time>2026-03-26T18:00:22Z</time></trkpt><trkpt lat="40.783366510737935" lon="14.62028295700847"><ele>22.0</ele><time>2026-03-26T18:00:23Z</time></trkpt><trkpt lat="40.78317748657555" lon="14.620580912533708"><ele>22.0</ele><time>2026-03-26T18:00:24Z</time></trkpt><trkpt lat="40.78299147813501" lon="14.62088365637776"><ele>22.0</ele><time>2026-03-26T18:00:25Z</time></trkpt><trkpt lat="40.78280913388231" lon="14.621189514368838"><ele>23.0</ele><time>2026-03-26T18:00:26Z</time></trkpt><trkpt lat="40.78262822828684" lon="14.621497321015251"><ele>24.0</ele><time>2026-03-26T18:00:27Z</time></trkpt><trkpt lat="40.78244922382135" lon="14.621805491102648"><ele>23.5</ele><time>2026-03-26T18:00:28Z</time></trkpt><trkpt lat="40.782270810261714" lon="14.622112340307229"><ele>23.0</ele><time>2026-03-26T18:00:29Z</time></trkpt><trkpt lat="40.78209316854468" lon="14.622414461421887"><ele>23.0</ele><time>2026-03-26T18:00:30Z</time></trkpt><trkpt lat="40.78191752374386" lon="14.622714626486628"><ele>23.0</ele><time>2026-03-26T18:00:31Z</time></trkpt><trkpt lat="40.78174366146855" lon="14.623013022402093"><ele>23.5</ele><time>2026-03-26T18:00:32Z</time></trkpt><trkpt lat="40.78157060595434" lon="14.623309469631257"><ele>24.0</ele><time>2026-03-26T18:00:33Z</time></trkpt><trkpt lat="40.78139812719534" lon="14.623606269046803"><ele>23.0</ele><time>2026-03-26T18:00:34Z</time></trkpt><trkpt lat="40.78122547840395" lon="14.623904295399097"><ele>22.0</ele><time>2026-03-26T18:00:35Z</time></trkpt><trkpt lat="40.78105187147913" lon="14.624203573257372"><ele>23.5</ele><time>2026-03-26T18:00:36Z</time></trkpt><trkpt lat="40.78087860196577" lon="14.624501548882842"><ele>25.0</ele><time>2026-03-26T18:00:37Z</time></trkpt><trkpt lat="40.78070375510154" lon="14.624799693562876"><ele>25.0</ele><time>2026-03-26T18:00:38Z</time></trkpt><trkpt lat="40.78053028052089" lon="14.625098696841254"><ele>25.0</ele><time>2026-03-26T18:00:39Z</time></trkpt><trkpt lat="40.7803561276511" lon="14.625401563046797"><ele>25.5</ele><time>2026-03-26T18:00:40Z</time></trkpt><trkpt lat="40.78017938721372" lon="14.62570538282149"><ele>26.0</ele><time>2026-03-26T18:00:41Z</time></trkpt><trkpt lat="40.780002203421155" lon="14.62601055454213"><ele>26.0</ele><time>2026-03-26T18:00:42Z</time></trkpt><trkpt lat="40.779822999294545" lon="14.626317395986161"><ele>26.0</ele><time>2026-03-26T18:00:43Z</time></trkpt><trkpt lat="40.779642371670185" lon="14.626623943804995"><ele>26.0</ele><time>2026-03-26T18:00:44Z</time></trkpt><trkpt lat="40.779463225547964" lon="14.626933003644114"><ele>26.0</ele><time>2026-03-26T18:00:45Z</time></trkpt><trkpt lat="40.779283342348656" lon="14.627244081349891"><ele>24.0</ele><time>2026-03-26T18:00:46Z</time></trkpt><trkpt lat="40.77910394579387" lon="14.627555061060722"><ele>22.0</ele><time>2026-03-26T18:00:47Z</time></trkpt><trkpt lat="40.77892569507077" lon="14.62786640576507"><ele>22.0</ele><time>2026-03-26T18:00:48Z</time></trkpt><trkpt lat="40.77874757788374" lon="14.628178631549327"><ele>22.0</ele><time>2026-03-26T18:00:49Z</time></trkpt><trkpt lat="40.77856898434311" lon="14.628489681261641"><ele>22.5</ele><time>2026-03-26T18:00:50Z</time></trkpt><trkpt lat="40.77838844212201" lon="14.628799167101002"><ele>23.0</ele><time>2026-03-26T18:00:51Z</time></trkpt><trkpt lat="40.7782084707511" lon="14.629105052421588"><ele>23.0</ele><time>2026-03-26T18:00:52Z</time></trkpt><trkpt lat="40.778029989308244" lon="14.629409618148742"><ele>23.0</ele><time>2026-03-26T18:00:53Z</time></trkpt><trkpt lat="40.77785141339201" lon="14.629712206204736"><ele>22.5</ele><time>2026-03-26T18:00:54Z</time></trkpt><trkpt lat="40.777674779541584" lon="14.630013339813324"><ele>22.0</ele><time>2026-03-26T18:00:55Z</time></trkpt><trkpt lat="40.77749865336952" lon="14.630313803957232"><ele>21.5</ele><time>2026-03-26T18:00:56Z</time></trkpt><trkpt lat="40.777322179291595" lon="14.630614594963372"><ele>21.0</ele><time>2026-03-26T18:00:56.999Z</time></trkpt><trkpt lat="40.77714694272822" lon="14.630915912617708"><ele>21.5</ele><time>2026-03-26T18:00:57.999Z</time></trkpt><trkpt lat="40.77697387616196" lon="14.631219477751943"><ele>22.0</ele><time>2026-03-26T18:00:58.999Z</time></trkpt><trkpt lat="40.77680745109523" lon="14.631529872692866"><ele>22.5</ele><time>2026-03-26T18:00:59.999Z</time></trkpt><trkpt lat="40.77665037991774" lon="14.631847716921868"><ele>23.0</ele><time>2026-03-26T18:01:00.999Z</time></trkpt><trkpt lat="40.77650305856761" lon="14.632174962538526"><ele>23.0</ele><time>2026-03-26T18:01:01.999Z</time></trkpt><trkpt lat="40.776366981493226" lon="14.632510725223263"><ele>23.0</ele><time>2026-03-26T18:01:02.999Z</time></trkpt><trkpt lat="40.77623971053266" lon="14.632856392351602"><ele>22.5</ele><time>2026-03-26T18:01:03.999Z</time></trkpt><trkpt lat="40.77612226110688" lon="14.633213466129433"><ele>22.0</ele><time>2026-03-26T18:01:04.999Z</time></trkpt><trkpt lat="40.776012973327674" lon="14.633575709544703"><ele>22.0</ele><time>2026-03-26T18:01:05.999Z</time></trkpt><trkpt lat="40.775910996234096" lon="14.633942755406528"><ele>22.0</ele><time>2026-03-26T18:01:06.999Z</time></trkpt><trkpt lat="40.775816064850154" lon="14.634315811746857"><ele>22.5</ele><time>2026-03-26T18:01:07.999Z</time></trkpt><trkpt lat="40.77572777835938" lon="14.634694403018644"><ele>23.0</ele><time>2026-03-26T18:01:08.999Z</time></trkpt><trkpt lat="40.77564693721235" lon="14.635077917633716"><ele>22.5</ele><time>2026-03-26T18:01:09.999Z</time></trkpt><trkpt lat="40.77557421674422" lon="14.635464618247271"><ele>22.0</ele><time>2026-03-26T18:01:10.999Z</time></trkpt><trkpt lat="40.7755101797395" lon="14.635855597799669"><ele>22.5</ele><time>2026-03-26T18:01:11.999Z</time></trkpt><trkpt lat="40.775457638336064" lon="14.636247341437796"><ele>23.0</ele><time>2026-03-26T18:01:12.999Z</time></trkpt><trkpt lat="40.77541715817174" lon="14.636642194453204"><ele>22.5</ele><time>2026-03-26T18:01:13.999Z</time></trkpt><trkpt lat="40.77538826571329" lon="14.637034606770614"><ele>22.0</ele><time>2026-03-26T18:01:14.999Z</time></trkpt><trkpt lat="40.77537127641752" lon="14.637427380306335"><ele>23.5</ele><time>2026-03-26T18:01:15.999Z</time></trkpt><trkpt lat="40.775363437309444" lon="14.637820348650635"><ele>25.0</ele><time>2026-03-26T18:01:16.999Z</time></trkpt><trkpt lat="40.775362542514614" lon="14.638209276638491"><ele>25.0</ele><time>2026-03-26T18:01:17.999Z</time></trkpt><trkpt lat="40.77536873280584" lon="14.638597495354864"><ele>25.0</ele><time>2026-03-26T18:01:18.999Z</time></trkpt><trkpt lat="40.775381738849106" lon="14.638986537416839"><ele>24.5</ele><time>2026-03-26T18:01:19.999Z</time></trkpt><trkpt lat="40.775398371924396" lon="14.639368037125413"><ele>24.0</ele><time>2026-03-26T18:01:20.999Z</time></trkpt><trkpt lat="40.775417656663485" lon="14.639746177139456"><ele>23.5</ele><time>2026-03-26T18:01:21.999Z</time></trkpt><trkpt lat="40.77543682155526" lon="14.640121032784375"><ele>23.0</ele><time>2026-03-26T18:01:22.999Z</time></trkpt><trkpt lat="40.7754548556341" lon="14.640494684276645"><ele>23.0</ele><time>2026-03-26T18:01:23.999Z</time></trkpt><trkpt lat="40.775471683576654" lon="14.640867851805066"><ele>23.0</ele><time>2026-03-26T18:01:24.999Z</time></trkpt><trkpt lat="40.775486062334394" lon="14.641242846129852"><ele>22.5</ele><time>2026-03-26T18:01:25.999Z</time></trkpt><trkpt lat="40.77549875137247" lon="14.641618374189406"><ele>22.0</ele><time>2026-03-26T18:01:26.999Z</time></trkpt><trkpt lat="40.77550774768237" lon="14.6419959317095"><ele>23.0</ele><time>2026-03-26T18:01:27.999Z</time></trkpt><trkpt lat="40.77550845668117" lon="14.642373331605794"><ele>24.0</ele><time>2026-03-26T18:01:28.999Z</time></trkpt><trkpt lat="40.77550224473496" lon="14.642750482421357"><ele>23.5</ele><time>2026-03-26T18:01:29.999Z</time></trkpt><trkpt lat="40.775490305325114" lon="14.643127565537323"><ele>23.0</ele><time>2026-03-26T18:01:30.999Z</time></trkpt><trkpt lat="40.77547501534203" lon="14.643505093420174"><ele>23.5</ele><time>2026-03-26T18:01:31.999Z</time></trkpt><trkpt lat="40.775453470345504" lon="14.643882616744808"><ele>24.0</ele><time>2026-03-26T18:01:32.999Z</time></trkpt><trkpt lat="40.775423453749895" lon="14.644260102822281"><ele>25.0</ele><time>2026-03-26T18:01:33.999Z</time></trkpt><trkpt lat="40.775387416846094" lon="14.644638734700411"><ele>26.0</ele><time>2026-03-26T18:01:34.999Z</time></trkpt><trkpt lat="40.77534530460608" lon="14.645016969690213"><ele>27.0</ele><time>2026-03-26T18:01:35.999Z</time></trkpt><trkpt lat="40.77529775035713" lon="14.645392515258118"><ele>28.0</ele><time>2026-03-26T18:01:36.999Z</time></trkpt><trkpt lat="40.77524100548237" lon="14.645764175884649"><ele>29.0</ele><time>2026-03-26T18:01:37.999Z</time></trkpt><trkpt lat="40.77517343039358" lon="14.646134179672707"><ele>30.0</ele><time>2026-03-26T18:01:39Z</time></trkpt><trkpt lat="40.77509667180121" lon="14.646501676707278"><ele>30.0</ele><time>2026-03-26T18:01:40Z</time></trkpt><trkpt lat="40.77501339684726" lon="14.64686914344642"><ele>30.0</ele><time>2026-03-26T18:01:41Z</time></trkpt><trkpt lat="40.77492861116982" lon="14.647235315227638"><ele>32.0</ele><time>2026-03-26T18:01:42Z</time></trkpt><trkpt lat="40.774844731651996" lon="14.647601889540956"><ele>34.0</ele><time>2026-03-26T18:01:43Z</time></trkpt><trkpt lat="40.77476632233087" lon="14.64795606283829"><ele>35.0</ele><time>2026-03-26T18:01:44Z</time></trkpt><trkpt lat="40.7746910857614" lon="14.648303532237245"><ele>36.0</ele><time>2026-03-26T18:01:45Z</time></trkpt><trkpt lat="40.77461618163623" lon="14.648646925892706"><ele>37.0</ele><time>2026-03-26T18:01:46Z</time></trkpt><trkpt lat="40.77454402485764" lon="14.648988898260852"><ele>38.0</ele><time>2026-03-26T18:01:47Z</time></trkpt><trkpt lat="40.77447462574845" lon="14.649335486815012"><ele>41.5</ele><time>2026-03-26T18:01:48Z</time></trkpt><trkpt lat="40.774407176798995" lon="14.649685074597826"><ele>45.0</ele><time>2026-03-26T18:01:49Z</time></trkpt><trkpt lat="40.774340699020485" lon="14.650036808976378"><ele>56.0</ele><time>2026-03-26T18:01:50Z</time></trkpt><trkpt lat="40.774273887749715" lon="14.650389699677417"><ele>67.0</ele><time>2026-03-26T18:01:51Z</time></trkpt><trkpt lat="40.774206311411774" lon="14.650747070492132"><ele>67.0</ele><time>2026-03-26T18:01:52Z</time></trkpt><trkpt lat="40.77413730050864" lon="14.651107061310991"><ele>67.0</ele><time>2026-03-26T18:01:53Z</time></trkpt><trkpt lat="40.774065395856354" lon="14.651465175374623"><ele>80.5</ele><time>2026-03-26T18:01:54Z</time></trkpt><trkpt lat="40.77399076792077" lon="14.651820929140497"><ele>94.0</ele><time>2026-03-26T18:01:55Z</time></trkpt><trkpt lat="40.773914434701005" lon="14.652174619801007"><ele>110.5</ele><time>2026-03-26T18:01:56Z</time></trkpt><trkpt lat="40.77383872713073" lon="14.652527738120014"><ele>127.0</ele><time>2026-03-26T18:01:57Z</time></trkpt><trkpt lat="40.7737648793101" lon="14.652880965113562"><ele>141.5</ele><time>2026-03-26T18:01:58Z</time></trkpt><trkpt lat="40.77369226803033" lon="14.653234356694671"><ele>156.0</ele><time>2026-03-26T18:01:59Z</time></trkpt><trkpt lat="40.77361935363693" lon="14.653585352369907"><ele>160.0</ele><time>2026-03-26T18:02:00Z</time></trkpt><trkpt lat="40.773544957022" lon="14.653933735230712"><ele>164.0</ele><time>2026-03-26T18:02:01Z</time></trkpt><trkpt lat="40.7734694178305" lon="14.65428005212843"><ele>166.0</ele><time>2026-03-26T18:02:02Z</time></trkpt><trkpt lat="40.773384023242755" lon="14.654642115467638"><ele>168.0</ele><time>2026-03-26T18:02:03Z</time></trkpt><trkpt lat="40.773313989440474" lon="14.654985165566197"><ele>164.0</ele><time>2026-03-26T18:02:04Z</time></trkpt><trkpt lat="40.77324660945717" lon="14.655325080158113"><ele>160.0</ele><time>2026-03-26T18:02:05Z</time></trkpt><trkpt lat="40.77319706913148" lon="14.65566588071915"><ele>160.0</ele><time>2026-03-26T18:02:06Z</time></trkpt><trkpt lat="40.77313315656615" lon="14.656005325179596"><ele>160.0</ele><time>2026-03-26T18:02:07Z</time></trkpt><trkpt lat="40.77306930709819" lon="14.656338298200277"><ele>152.0</ele><time>2026-03-26T18:02:08Z</time></trkpt><trkpt lat="40.773005964925325" lon="14.656666702242209"><ele>144.0</ele><time>2026-03-26T18:02:09Z</time></trkpt><trkpt lat="40.77294372127822" lon="14.656988234635003"><ele>138.5</ele><time>2026-03-26T18:02:10Z</time></trkpt><trkpt lat="40.77288091296291" lon="14.657312439176737"><ele>133.0</ele><time>2026-03-26T18:02:11Z</time></trkpt><trkpt lat="40.77282027329049" lon="14.6576301191737"><ele>124.0</ele><time>2026-03-26T18:02:12Z</time></trkpt><trkpt lat="40.7727594076444" lon="14.657951813397256"><ele>115.0</ele><time>2026-03-26T18:02:13.017Z</time></trkpt><trkpt lat="40.772227612715824" lon="14.661039224260321"><ele>93.5</ele><time>2026-03-26T18:02:20Z</time></trkpt><trkpt lat="40.77215888034588" lon="14.661402642493849"><ele>72.0</ele><time>2026-03-26T18:02:21Z</time></trkpt><trkpt lat="40.772103056121985" lon="14.661776731444782"><ele>71.5</ele><time>2026-03-26T18:02:22Z</time></trkpt><trkpt lat="40.772037217913876" lon="14.662091794555327"><ele>71.0</ele><time>2026-03-26T18:02:23Z</time></trkpt><trkpt lat="40.77197710382232" lon="14.662438520468262"><ele>69.5</ele><time>2026-03-26T18:02:24Z</time></trkpt><trkpt lat="40.771916031380755" lon="14.662786565064017"><ele>68.0</ele><time>2026-03-26T18:02:25Z</time></trkpt><trkpt lat="40.77186957137043" lon="14.663139051323649"><ele>67.5</ele><time>2026-03-26T18:02:26Z</time></trkpt><trkpt lat="40.77180387614882" lon="14.663488936099357"><ele>67.0</ele><time>2026-03-26T18:02:27Z</time></trkpt><trkpt lat="40.77173977847604" lon="14.663837747386507"><ele>67.0</ele><time>2026-03-26T18:02:28Z</time></trkpt><trkpt lat="40.77167635531376" lon="14.664188231997104"><ele>67.0</ele><time>2026-03-26T18:02:29Z</time></trkpt><trkpt lat="40.77161405296861" lon="14.664540669972084"><ele>67.5</ele><time>2026-03-26T18:02:30Z</time></trkpt><trkpt lat="40.77155128861499" lon="14.664892504865353"><ele>68.0</ele><time>2026-03-26T18:02:31Z</time></trkpt><trkpt lat="40.7714896934305" lon="14.665248366383102"><ele>67.5</ele><time>2026-03-26T18:02:32Z</time></trkpt><trkpt lat="40.77142516966545" lon="14.665601569971315"><ele>67.0</ele><time>2026-03-26T18:02:33Z</time></trkpt><trkpt lat="40.77135749969795" lon="14.665958938669426"><ele>67.0</ele><time>2026-03-26T18:02:34Z</time></trkpt><trkpt lat="40.77128905720195" lon="14.66631915760516"><ele>67.0</ele><time>2026-03-26T18:02:35Z</time></trkpt><trkpt lat="40.771217531375605" lon="14.66667580484507"><ele>67.0</ele><time>2026-03-26T18:02:36Z</time></trkpt><trkpt lat="40.7711447822062" lon="14.667033864635055"><ele>67.0</ele><time>2026-03-26T18:02:37Z</time></trkpt><trkpt lat="40.77106568504395" lon="14.66739217215339"><ele>67.0</ele><time>2026-03-26T18:02:38Z</time></trkpt><trkpt lat="40.77098260106722" lon="14.667747256476753"><ele>67.0</ele><time>2026-03-26T18:02:39Z</time></trkpt><trkpt lat="40.77089622213648" lon="14.668100313917687"><ele>67.0</ele><time>2026-03-26T18:02:40Z</time></trkpt><trkpt lat="40.77080680497951" lon="14.668451474997024"><ele>67.0</ele><time>2026-03-26T18:02:41Z</time></trkpt><trkpt lat="40.77071334211337" lon="14.668800388270377"><ele>67.5</ele><time>2026-03-26T18:02:42Z</time></trkpt><trkpt lat="40.77061005735068" lon="14.669141144760152"><ele>68.0</ele><time>2026-03-26T18:02:43Z</time></trkpt><trkpt lat="40.77049743132959" lon="14.66947427627886"><ele>68.5</ele><time>2026-03-26T18:02:44Z</time></trkpt><trkpt lat="40.77038282111124" lon="14.669806386153342"><ele>69.0</ele><time>2026-03-26T18:02:45Z</time></trkpt><trkpt lat="40.77026353759952" lon="14.670135260316718"><ele>68.5</ele><time>2026-03-26T18:02:46Z</time></trkpt><trkpt lat="40.770140477212635" lon="14.670462538766618"><ele>68.0</ele><time>2026-03-26T18:02:47Z</time></trkpt><trkpt lat="40.77000974486858" lon="14.670787961501206"><ele>67.5</ele><time>2026-03-26T18:02:48Z</time></trkpt><trkpt lat="40.769873833035284" lon="14.671109770112968"><ele>67.0</ele><time>2026-03-26T18:02:49Z</time></trkpt><trkpt lat="40.76973535956871" lon="14.671432656631326"><ele>67.0</ele><time>2026-03-26T18:02:50Z</time></trkpt><trkpt lat="40.76958982381182" lon="14.671748143955233"><ele>67.0</ele><time>2026-03-26T18:02:51Z</time></trkpt><trkpt lat="40.76944125455682" lon="14.672059106771092"><ele>68.5</ele><time>2026-03-26T18:02:52Z</time></trkpt><trkpt lat="40.76928984916225" lon="14.67236825213146"><ele>70.0</ele><time>2026-03-26T18:02:53Z</time></trkpt><trkpt lat="40.76913284902435" lon="14.672676601224211"><ele>70.5</ele><time>2026-03-26T18:02:54Z</time></trkpt><trkpt lat="40.76898008909056" lon="14.6729876624401"><ele>71.0</ele><time>2026-03-26T18:02:55Z</time></trkpt><trkpt lat="40.76883329286457" lon="14.673302580728494"><ele>70.5</ele><time>2026-03-26T18:02:56Z</time></trkpt><trkpt lat="40.76869214864997" lon="14.673624289598564"><ele>70.0</ele><time>2026-03-26T18:02:57Z</time></trkpt><trkpt lat="40.76855621744196" lon="14.673953794751162"><ele>70.5</ele><time>2026-03-26T18:02:58Z</time></trkpt><trkpt lat="40.76843111774652" lon="14.674287460294243"><ele>71.0</ele><time>2026-03-26T18:02:59Z</time></trkpt><trkpt lat="40.76830757129877" lon="14.674619649848854"><ele>71.5</ele><time>2026-03-26T18:03:00Z</time></trkpt><trkpt lat="40.76818895844273" lon="14.67495556697903"><ele>72.0</ele><time>2026-03-26T18:03:01Z</time></trkpt><trkpt lat="40.7680783475795" lon="14.675292202253992"><ele>71.0</ele><time>2026-03-26T18:03:02Z</time></trkpt><trkpt lat="40.767975086443634" lon="14.675632674515239"><ele>70.0</ele><time>2026-03-26T18:03:02.999Z</time></trkpt><trkpt lat="40.76787841898538" lon="14.67597676787375"><ele>69.5</ele><time>2026-03-26T18:03:03.999Z</time></trkpt><trkpt lat="40.76778739798064" lon="14.676324527245098"><ele>69.0</ele><time>2026-03-26T18:03:04.999Z</time></trkpt><trkpt lat="40.767702928575225" lon="14.676675403984623"><ele>70.5</ele><time>2026-03-26T18:03:05.999Z</time></trkpt><trkpt lat="40.76762432367039" lon="14.677029157265405"><ele>72.0</ele><time>2026-03-26T18:03:06.999Z</time></trkpt><trkpt lat="40.76755319012639" lon="14.677386279994236"><ele>72.0</ele><time>2026-03-26T18:03:07.999Z</time></trkpt><trkpt lat="40.76748890602657" lon="14.67774655644957"><ele>72.0</ele><time>2026-03-26T18:03:08.999Z</time></trkpt><trkpt lat="40.76743178563007" lon="14.678110285261056"><ele>71.5</ele><time>2026-03-26T18:03:09.999Z</time></trkpt><trkpt lat="40.76738098545184" lon="14.678480160893686"><ele>71.0</ele><time>2026-03-26T18:03:10.999Z</time></trkpt><trkpt lat="40.767334365237986" lon="14.678853086697586"><ele>70.5</ele><time>2026-03-26T18:03:11.999Z</time></trkpt><trkpt lat="40.767289594659516" lon="14.679226702281644"><ele>70.0</ele><time>2026-03-26T18:03:12.999Z</time></trkpt><trkpt lat="40.767244883037435" lon="14.679598259604926"><ele>70.0</ele><time>2026-03-26T18:03:13.999Z</time></trkpt><trkpt lat="40.767202752001374" lon="14.679971754260267"><ele>70.0</ele><time>2026-03-26T18:03:14.999Z</time></trkpt><trkpt lat="40.767159574787144" lon="14.680343415276807"><ele>70.0</ele><time>2026-03-26T18:03:15.999Z</time></trkpt><trkpt lat="40.76711339374858" lon="14.68071257616591"><ele>70.0</ele><time>2026-03-26T18:03:16.999Z</time></trkpt><trkpt lat="40.76706707413865" lon="14.681082749987551"><ele>70.0</ele><time>2026-03-26T18:03:17.999Z</time></trkpt><trkpt lat="40.76702198823332" lon="14.681451026699712"><ele>70.0</ele><time>2026-03-26T18:03:18.999Z</time></trkpt><trkpt lat="40.76698126626109" lon="14.681820864824562"><ele>71.0</ele><time>2026-03-26T18:03:19.999Z</time></trkpt><trkpt lat="40.76693972500945" lon="14.682188101598214"><ele>72.0</ele><time>2026-03-26T18:03:20.999Z</time></trkpt><trkpt lat="40.766900428967055" lon="14.682554732344476"><ele>72.0</ele><time>2026-03-26T18:03:21.999Z</time></trkpt><trkpt lat="40.766866674144936" lon="14.68292035711398"><ele>72.0</ele><time>2026-03-26T18:03:22.999Z</time></trkpt><trkpt lat="40.7668400537057" lon="14.683287276752203"><ele>74.5</ele><time>2026-03-26T18:03:23.999Z</time></trkpt><trkpt lat="40.7668256161075" lon="14.683655684423227"><ele>77.0</ele><time>2026-03-26T18:03:24.999Z</time></trkpt><trkpt lat="40.76682135198883" lon="14.68402522982996"><ele>77.0</ele><time>2026-03-26T18:03:25.999Z</time></trkpt><trkpt lat="40.76682022989278" lon="14.684407474281734"><ele>77.0</ele><time>2026-03-26T18:03:26.999Z</time></trkpt><trkpt lat="40.76683926094355" lon="14.684790692453005"><ele>76.5</ele><time>2026-03-26T18:03:28Z</time></trkpt><trkpt lat="40.766795747143725" lon="14.68513754939136"><ele>76.0</ele><time>2026-03-26T18:03:29Z</time></trkpt><trkpt lat="40.76681010839072" lon="14.685508072524762"><ele>76.0</ele><time>2026-03-26T18:03:30Z</time></trkpt><trkpt lat="40.76682716283608" lon="14.685882472395091"><ele>76.0</ele><time>2026-03-26T18:03:31Z</time></trkpt><trkpt lat="40.76685105952579" lon="14.686256067297252"><ele>75.5</ele><time>2026-03-26T18:03:32Z</time></trkpt><trkpt lat="40.766878779669526" lon="14.686633588587336"><ele>75.0</ele><time>2026-03-26T18:03:33Z</time></trkpt><trkpt lat="40.76691093775272" lon="14.687012959851284"><ele>76.0</ele><time>2026-03-26T18:03:34Z</time></trkpt><trkpt lat="40.76694373817542" lon="14.687392352418819"><ele>77.0</ele><time>2026-03-26T18:03:35Z</time></trkpt><trkpt lat="40.7669710647303" lon="14.68777526636275"><ele>77.5</ele><time>2026-03-26T18:03:36Z</time></trkpt><trkpt lat="40.76700040520437" lon="14.688156132958929"><ele>78.0</ele><time>2026-03-26T18:03:37Z</time></trkpt><trkpt lat="40.76703190413737" lon="14.688536565128244"><ele>78.5</ele><time>2026-03-26T18:03:38Z</time></trkpt><trkpt lat="40.76705925680208" lon="14.688918212616322"><ele>79.0</ele><time>2026-03-26T18:03:39Z</time></trkpt><trkpt lat="40.76709109209141" lon="14.689302151835053"><ele>79.0</ele><time>2026-03-26T18:03:40Z</time></trkpt><trkpt lat="40.767119711649926" lon="14.68969071049328"><ele>79.0</ele><time>2026-03-26T18:03:41Z</time></trkpt><trkpt lat="40.767146184076964" lon="14.69007883076281"><ele>79.5</ele><time>2026-03-26T18:03:42Z</time></trkpt><trkpt lat="40.767173388267885" lon="14.690465553628899"><ele>80.0</ele><time>2026-03-26T18:03:43Z</time></trkpt><trkpt lat="40.767203865672705" lon="14.690859537669123"><ele>80.0</ele><time>2026-03-26T18:03:44Z</time></trkpt><trkpt lat="40.767235580684776" lon="14.691250735505156"><ele>80.0</ele><time>2026-03-26T18:03:45Z</time></trkpt><trkpt lat="40.76726587656114" lon="14.691650715867283"><ele>80.5</ele><time>2026-03-26T18:03:46Z</time></trkpt><trkpt lat="40.76729441328003" lon="14.692048982021378"><ele>81.0</ele><time>2026-03-26T18:03:47Z</time></trkpt><trkpt lat="40.76732229212525" lon="14.692449020336163"><ele>82.0</ele><time>2026-03-26T18:03:48Z</time></trkpt><trkpt lat="40.76734957187624" lon="14.692851284036307"><ele>83.0</ele><time>2026-03-26T18:03:49Z</time></trkpt><trkpt lat="40.76737644698974" lon="14.693251745365224"><ele>83.0</ele><time>2026-03-26T18:03:50Z</time></trkpt><trkpt lat="40.767408669788345" lon="14.693663427859565"><ele>83.0</ele><time>2026-03-26T18:03:51Z</time></trkpt><trkpt lat="40.767441228516084" lon="14.694070528956836"><ele>83.5</ele><time>2026-03-26T18:03:52Z</time></trkpt><trkpt lat="40.76746804539264" lon="14.694476695595958"><ele>84.0</ele><time>2026-03-26T18:03:53Z</time></trkpt><trkpt lat="40.76749979420504" lon="14.69488055069224"><ele>84.5</ele><time>2026-03-26T18:03:54Z</time></trkpt><trkpt lat="40.76753269997156" lon="14.695285183219513"><ele>85.0</ele><time>2026-03-26T18:03:55Z</time></trkpt><trkpt lat="40.76756358373386" lon="14.695688247091844"><ele>85.5</ele><time>2026-03-26T18:03:56Z</time></trkpt><trkpt lat="40.76759288857741" lon="14.696088375045793"><ele>86.0</ele><time>2026-03-26T18:03:57Z</time></trkpt><trkpt lat="40.76762155976989" lon="14.696482006635868"><ele>86.0</ele><time>2026-03-26T18:03:58Z</time></trkpt><trkpt lat="40.7676465455086" lon="14.696874311330081"><ele>86.0</ele><time>2026-03-26T18:03:59Z</time></trkpt><trkpt lat="40.76767039415488" lon="14.697257035185935"><ele>86.5</ele><time>2026-03-26T18:04:00Z</time></trkpt><trkpt lat="40.7676910563373" lon="14.69763639806614"><ele>87.0</ele><time>2026-03-26T18:04:01Z</time></trkpt><trkpt lat="40.7676969384117" lon="14.698000180943753"><ele>87.0</ele><time>2026-03-26T18:04:02Z</time></trkpt><trkpt lat="40.76769402034419" lon="14.698363645599782"><ele>87.0</ele><time>2026-03-26T18:04:03Z</time></trkpt><trkpt lat="40.767671263816055" lon="14.698703379879975"><ele>89.5</ele><time>2026-03-26T18:04:04Z</time></trkpt><trkpt lat="40.76763812370337" lon="14.699050962250908"><ele>92.0</ele><time>2026-03-26T18:04:05Z</time></trkpt><trkpt lat="40.76759981154002" lon="14.699378250136919"><ele>94.0</ele><time>2026-03-26T18:04:06Z</time></trkpt><trkpt lat="40.76755108854948" lon="14.699695023196808"><ele>96.0</ele><time>2026-03-26T18:04:07Z</time></trkpt><trkpt lat="40.767492846410846" lon="14.700000308114404"><ele>97.5</ele><time>2026-03-26T18:04:08Z</time></trkpt><trkpt lat="40.767428274111424" lon="14.700292293549438"><ele>99.0</ele><time>2026-03-26T18:04:09Z</time></trkpt><trkpt lat="40.76736328572643" lon="14.70058349183303"><ele>99.0</ele><time>2026-03-26T18:04:10Z</time></trkpt><trkpt lat="40.767302575316045" lon="14.700875038443781"><ele>99.0</ele><time>2026-03-26T18:04:11Z</time></trkpt><trkpt lat="40.76724243165056" lon="14.701169449563137"><ele>100.5</ele><time>2026-03-26T18:04:12Z</time></trkpt><trkpt lat="40.7671805885193" lon="14.701465880786138"><ele>102.0</ele><time>2026-03-26T18:04:13Z</time></trkpt><trkpt lat="40.76711807993043" lon="14.701763445633462"><ele>102.5</ele><time>2026-03-26T18:04:14Z</time></trkpt><trkpt lat="40.76705287915226" lon="14.702062752514937"><ele>103.0</ele><time>2026-03-26T18:04:15Z</time></trkpt><trkpt lat="40.76699221332708" lon="14.702362762080698"><ele>103.0</ele><time>2026-03-26T18:04:16Z</time></trkpt><trkpt lat="40.766938078655066" lon="14.702665423460022"><ele>103.0</ele><time>2026-03-26T18:04:17Z</time></trkpt><trkpt lat="40.766891359476254" lon="14.702975781532484"><ele>113.5</ele><time>2026-03-26T18:04:18Z</time></trkpt><trkpt lat="40.76685067818808" lon="14.703287374365823"><ele>124.0</ele><time>2026-03-26T18:04:19Z</time></trkpt><trkpt lat="40.766819773361156" lon="14.703601157485245"><ele>130.5</ele><time>2026-03-26T18:04:20Z</time></trkpt><trkpt lat="40.76680504878655" lon="14.703913355960053"><ele>137.0</ele><time>2026-03-26T18:04:21Z</time></trkpt><trkpt lat="40.766805312175435" lon="14.7042254629563"><ele>144.5</ele><time>2026-03-26T18:04:22Z</time></trkpt><trkpt lat="40.76681826673389" lon="14.704545641943662"><ele>152.0</ele><time>2026-03-26T18:04:23Z</time></trkpt><trkpt lat="40.76683447385548" lon="14.704870482442644"><ele>152.0</ele><time>2026-03-26T18:04:24Z</time></trkpt><trkpt lat="40.76684827896539" lon="14.705205889095883"><ele>152.0</ele><time>2026-03-26T18:04:25Z</time></trkpt><trkpt lat="40.76689708588443" lon="14.705520108521338"><ele>155.0</ele><time>2026-03-26T18:04:26Z</time></trkpt><trkpt lat="40.76696501632885" lon="14.705833166314656"><ele>158.0</ele><time>2026-03-26T18:04:27Z</time></trkpt><trkpt lat="40.767042159037956" lon="14.706125926493177"><ele>158.0</ele><time>2026-03-26T18:04:28Z</time></trkpt><trkpt lat="40.76712733330942" lon="14.706415739447808"><ele>158.0</ele><time>2026-03-26T18:04:29Z</time></trkpt><trkpt lat="40.767218458943454" lon="14.706678827024582"><ele>169.66666666666666</ele><time>2026-03-26T18:04:30Z</time></trkpt><trkpt lat="40.76731443100632" lon="14.706924407280471"><ele>181.33333333333331</ele><time>2026-03-26T18:04:31Z</time></trkpt><trkpt lat="40.76742056934807" lon="14.707173908143155"><ele>193.0</ele><time>2026-03-26T18:04:32Z</time></trkpt><trkpt lat="40.7675272944821" lon="14.707393319412683"><ele>178.0</ele><time>2026-03-26T18:04:33Z</time></trkpt><trkpt lat="40.76784697838553" lon="14.707927956747511"><ele>178.0</ele><time>2026-03-26T18:04:34Z</time></trkpt><trkpt lat="40.76801273661548" lon="14.70820850282844"><ele>178.0</ele><time>2026-03-26T18:04:35Z</time></trkpt><trkpt lat="40.768177299130535" lon="14.708491594361902"><ele>168.5</ele><time>2026-03-26T18:04:36Z</time></trkpt><trkpt lat="40.768344513110804" lon="14.708783950548888"><ele>159.0</ele><time>2026-03-26T18:04:37Z</time></trkpt><trkpt lat="40.768514142676096" lon="14.70907550589741"><ele>147.0</ele><time>2026-03-26T18:04:38Z</time></trkpt><trkpt lat="40.76868244696592" lon="14.709362480760895"><ele>135.0</ele><time>2026-03-26T18:04:39Z</time></trkpt><trkpt lat="40.768847851220144" lon="14.709648685108592"><ele>129.5</ele><time>2026-03-26T18:04:40Z</time></trkpt><trkpt lat="40.769013501759375" lon="14.709929384841335"><ele>124.0</ele><time>2026-03-26T18:04:41Z</time></trkpt><trkpt lat="40.76917723554271" lon="14.710206321873725"><ele>121.0</ele><time>2026-03-26T18:04:42Z</time></trkpt><trkpt lat="40.769334787455016" lon="14.710437447380405"><ele>118.0</ele><time>2026-03-26T18:04:43Z</time></trkpt><trkpt lat="40.76950442117285" lon="14.710721489766897"><ele>118.0</ele><time>2026-03-26T18:04:44Z</time></trkpt><trkpt lat="40.769676001305676" lon="14.711001685391455"><ele>118.0</ele><time>2026-03-26T18:04:45Z</time></trkpt><trkpt lat="40.76985230926609" lon="14.711298611099112"><ele>121.0</ele><time>2026-03-26T18:04:46Z</time></trkpt><trkpt lat="40.77002715019544" lon="14.711581180674592"><ele>124.0</ele><time>2026-03-26T18:04:47Z</time></trkpt><trkpt lat="40.77019350310313" lon="14.71187316082309"><ele>122.5</ele><time>2026-03-26T18:04:48Z</time></trkpt><trkpt lat="40.770359072113266" lon="14.712167655028994"><ele>121.0</ele><time>2026-03-26T18:04:49Z</time></trkpt><trkpt lat="40.770524452779966" lon="14.71245673252634"><ele>134.0</ele><time>2026-03-26T18:04:50Z</time></trkpt><trkpt lat="40.77068852402923" lon="14.71275221908104"><ele>147.0</ele><time>2026-03-26T18:04:51Z</time></trkpt><trkpt lat="40.770855619122884" lon="14.713059605305729"><ele>147.0</ele><time>2026-03-26T18:04:52Z</time></trkpt><trkpt lat="40.7710224844761" lon="14.71337784779044"><ele>147.0</ele><time>2026-03-26T18:04:53Z</time></trkpt><trkpt lat="40.77118650340475" lon="14.71371029864867"><ele>145.0</ele><time>2026-03-26T18:04:54Z</time></trkpt><trkpt lat="40.77134819840867" lon="14.71404045020529"><ele>143.0</ele><time>2026-03-26T18:04:55Z</time></trkpt><trkpt lat="40.77151024539575" lon="14.71437139035656"><ele>158.5</ele><time>2026-03-26T18:04:56Z</time></trkpt><trkpt lat="40.77167475677627" lon="14.714698968828554"><ele>174.0</ele><time>2026-03-26T18:04:57Z</time></trkpt><trkpt lat="40.77182041653908" lon="14.715040059436522"><ele>162.0</ele><time>2026-03-26T18:04:58Z</time></trkpt><trkpt lat="40.77193037024791" lon="14.715402931472928"><ele>150.0</ele><time>2026-03-26T18:04:59Z</time></trkpt><trkpt lat="40.772032950248665" lon="14.715769429907208"><ele>152.5</ele><time>2026-03-26T18:05:00Z</time></trkpt><trkpt lat="40.77212356921309" lon="14.716134580477833"><ele>155.0</ele><time>2026-03-26T18:05:01Z</time></trkpt><trkpt lat="40.77219820271211" lon="14.716489415426546"><ele>155.0</ele><time>2026-03-26T18:05:02Z</time></trkpt><trkpt lat="40.772139271606086" lon="14.7167850470121"><ele>155.0</ele><time>2026-03-26T18:05:03Z</time></trkpt><trkpt lat="40.77219692974428" lon="14.717156574277354"><ele>153.5</ele><time>2026-03-26T18:05:04Z</time></trkpt><trkpt lat="40.77224555952118" lon="14.717530937177171"><ele>152.0</ele><time>2026-03-26T18:05:05Z</time></trkpt><trkpt lat="40.77228914056439" lon="14.71791019111906"><ele>152.0</ele><time>2026-03-26T18:05:06Z</time></trkpt><trkpt lat="40.772322162808244" lon="14.718293268226704"><ele>152.0</ele><time>2026-03-26T18:05:07Z</time></trkpt><trkpt lat="40.77234277679182" lon="14.718675760746642"><ele>145.0</ele><time>2026-03-26T18:05:08Z</time></trkpt><trkpt lat="40.772356589239884" lon="14.719057964864238"><ele>138.0</ele><time>2026-03-26T18:05:08.999Z</time></trkpt><trkpt lat="40.77236356618388" lon="14.719424274533392"><ele>132.5</ele><time>2026-03-26T18:05:09.999Z</time></trkpt><trkpt lat="40.772357857505085" lon="14.7197087456309"><ele>127.0</ele><time>2026-03-26T18:05:10.999Z</time></trkpt><trkpt lat="40.772409910404875" lon="14.720026892988479"><ele>127.0</ele><time>2026-03-26T18:05:11.999Z</time></trkpt><trkpt lat="40.77241567022916" lon="14.720338502388612"><ele>127.0</ele><time>2026-03-26T18:05:12.999Z</time></trkpt><trkpt lat="40.772429709941335" lon="14.720660471358235"><ele>127.0</ele><time>2026-03-26T18:05:13.999Z</time></trkpt><trkpt lat="40.772438310339325" lon="14.720988273865204"><ele>127.0</ele><time>2026-03-26T18:05:14.999Z</time></trkpt><trkpt lat="40.77245347972706" lon="14.721292195527045"><ele>129.0</ele><time>2026-03-26T18:05:15.999Z</time></trkpt><trkpt lat="40.772461907514185" lon="14.721601408084256"><ele>131.0</ele><time>2026-03-26T18:05:16.999Z</time></trkpt><trkpt lat="40.772471638407715" lon="14.721905801266004"><ele>131.66666666666666</ele><time>2026-03-26T18:05:17.999Z</time></trkpt><trkpt lat="40.77247910976836" lon="14.722175746179756"><ele>132.33333333333334</ele><time>2026-03-26T18:05:18.999Z</time></trkpt><trkpt lat="40.772486079802476" lon="14.722436433491211"><ele>133.0</ele><time>2026-03-26T18:05:19.999Z</time></trkpt><trkpt lat="40.77249176201434" lon="14.72268137476163"><ele>134.0</ele><time>2026-03-26T18:05:20.999Z</time></trkpt><trkpt lat="40.772497497539575" lon="14.722922010048679"><ele>135.0</ele><time>2026-03-26T18:05:21.999Z</time></trkpt><trkpt lat="40.77250389224086" lon="14.723157203507066"><ele>136.0</ele><time>2026-03-26T18:05:22.999Z</time></trkpt><trkpt lat="40.772509485894005" lon="14.72338519013509"><ele>135.66666666666669</ele><time>2026-03-26T18:05:23.999Z</time></trkpt><trkpt lat="40.77251467406657" lon="14.723613210886592"><ele>135.33333333333334</ele><time>2026-03-26T18:05:24.999Z</time></trkpt><trkpt lat="40.77252063722023" lon="14.723838141911756"><ele>135.0</ele><time>2026-03-26T18:05:25.999Z</time></trkpt><trkpt lat="40.772523959239834" lon="14.724052509943336"><ele>135.0</ele><time>2026-03-26T18:05:26.999Z</time></trkpt><trkpt lat="40.77252486647192" lon="14.72426019548742"><ele>135.0</ele><time>2026-03-26T18:05:27.999Z</time></trkpt><trkpt lat="40.772526624607565" lon="14.724467179280172"><ele>135.0</ele><time>2026-03-26T18:05:28.999Z</time></trkpt><trkpt lat="40.77253005119052" lon="14.724678159732484"><ele>134.5</ele><time>2026-03-26T18:05:29.999Z</time></trkpt><trkpt lat="40.77253307432254" lon="14.724880250683698"><ele>134.0</ele><time>2026-03-26T18:05:30.999Z</time></trkpt><trkpt lat="40.77253605095836" lon="14.725065842099376"><ele>133.5</ele><time>2026-03-26T18:05:31.999Z</time></trkpt><trkpt lat="40.7725393288628" lon="14.725232491396234"><ele>133.0</ele><time>2026-03-26T18:05:33Z</time></trkpt><trkpt lat="40.772542599191766" lon="14.725383083580867"><ele>132.8</ele><time>2026-03-26T18:05:34Z</time></trkpt><trkpt lat="40.772546487344314" lon="14.725513648362165"><ele>132.60000000000002</ele><time>2026-03-26T18:05:35Z</time></trkpt><trkpt lat="40.77255081321655" lon="14.725634172361879"><ele>132.39999999999998</ele><time>2026-03-26T18:05:36Z</time></trkpt><trkpt lat="40.77255514784993" lon="14.72575397771457"><ele>132.2</ele><time>2026-03-26T18:05:37Z</time></trkpt><trkpt lat="40.77255901782985" lon="14.725870608304948"><ele>132.0</ele><time>2026-03-26T18:05:38Z</time></trkpt><trkpt lat="40.772560967411515" lon="14.72597827862239"><ele>132.33333333333334</ele><time>2026-03-26T18:05:39Z</time></trkpt><trkpt lat="40.77256223086662" lon="14.726085262169827"><ele>132.66666666666666</ele><time>2026-03-26T18:05:40Z</time></trkpt><trkpt lat="40.77256443553616" lon="14.726191882079354"><ele>133.0</ele><time>2026-03-26T18:05:41Z</time></trkpt><trkpt lat="40.77256911465319" lon="14.726291742180631"><ele>133.33333333333331</ele><time>2026-03-26T18:05:42Z</time></trkpt><trkpt lat="40.7725769120339" lon="14.726384736486251"><ele>133.66666666666666</ele><time>2026-03-26T18:05:43Z</time></trkpt><trkpt lat="40.77258401212216" lon="14.726473345953828"><ele>134.0</ele><time>2026-03-26T18:05:44Z</time></trkpt><trkpt lat="40.772591016556106" lon="14.726633773287181"><ele>134.0</ele><time>2026-03-26T18:05:46Z</time></trkpt><trkpt lat="40.77259366124503" lon="14.726772562364747"><ele>134.0</ele><time>2026-03-26T18:05:48Z</time></trkpt><trkpt lat="40.77259429854214" lon="14.72689400035887"><ele>134.0</ele><time>2026-03-26T18:05:50Z</time></trkpt><trkpt lat="40.77259464394234" lon="14.727000258459299"><ele>134.0</ele><time>2026-03-26T18:05:52Z</time></trkpt><trkpt lat="40.77259117371576" lon="14.727112069761741"><ele>134.0</ele><time>2026-03-26T18:05:55Z</time></trkpt><trkpt lat="40.772581764937975" lon="14.727225344460939"><ele>134.0</ele><time>2026-03-26T18:05:57Z</time></trkpt><trkpt lat="40.77258308589195" lon="14.727379195374574"><ele>134.0</ele><time>2026-03-26T18:05:58Z</time></trkpt><trkpt lat="40.772568088783444" lon="14.72751702501876"><ele>134.0</ele><time>2026-03-26T18:05:59Z</time></trkpt><trkpt lat="40.772552548128544" lon="14.727674885647925"><ele>134.0</ele><time>2026-03-26T18:06:00Z</time></trkpt><trkpt lat="40.77253672168473" lon="14.72784988225584"><ele>134.0</ele><time>2026-03-26T18:06:01Z</time></trkpt><trkpt lat="40.772521946457125" lon="14.72801631384731"><ele>133.75</ele><time>2026-03-26T18:06:02Z</time></trkpt><trkpt lat="40.77251060448797" lon="14.728174536348"><ele>133.5</ele><time>2026-03-26T18:06:03Z</time></trkpt><trkpt lat="40.77249991924794" lon="14.728338246884958"><ele>133.25</ele><time>2026-03-26T18:06:04Z</time></trkpt><trkpt lat="40.77248996614563" lon="14.728509859618429"><ele>133.0</ele><time>2026-03-26T18:06:05Z</time></trkpt><trkpt lat="40.77248195157528" lon="14.728686542222865"><ele>132.5</ele><time>2026-03-26T18:06:06Z</time></trkpt><trkpt lat="40.77247693803651" lon="14.728862902212057"><ele>132.0</ele><time>2026-03-26T18:06:07Z</time></trkpt><trkpt lat="40.77247509615616" lon="14.729034034902718"><ele>131.5</ele><time>2026-03-26T18:06:08Z</time></trkpt><trkpt lat="40.77247576466371" lon="14.729199123952176"><ele>131.0</ele><time>2026-03-26T18:06:09Z</time></trkpt><trkpt lat="40.772477753731096" lon="14.729361240917134"><ele>131.0</ele><time>2026-03-26T18:06:10Z</time></trkpt><trkpt lat="40.772478985424776" lon="14.729528652374604"><ele>131.0</ele><time>2026-03-26T18:06:11Z</time></trkpt><trkpt lat="40.77247926208059" lon="14.729704184371956"><ele>131.0</ele><time>2026-03-26T18:06:12Z</time></trkpt><trkpt lat="40.772475124938445" lon="14.729886770476638"><ele>131.0</ele><time>2026-03-26T18:06:13Z</time></trkpt><trkpt lat="40.77247911083081" lon="14.730076172797451"><ele>130.5</ele><time>2026-03-26T18:06:14Z</time></trkpt><trkpt lat="40.772483616973695" lon="14.730267825163205"><ele>130.0</ele><time>2026-03-26T18:06:15Z</time></trkpt><trkpt lat="40.77248659675193" lon="14.730464986625183"><ele>129.5</ele><time>2026-03-26T18:06:16Z</time></trkpt><trkpt lat="40.7724871375331" lon="14.730659782243555"><ele>129.0</ele><time>2026-03-26T18:06:17Z</time></trkpt><trkpt lat="40.772485229014094" lon="14.730858290257911"><ele>129.0</ele><time>2026-03-26T18:06:18Z</time></trkpt><trkpt lat="40.77248162424819" lon="14.731063644668382"><ele>129.0</ele><time>2026-03-26T18:06:19Z</time></trkpt><trkpt lat="40.77247480818198" lon="14.731273930212538"><ele>129.0</ele><time>2026-03-26T18:06:20Z</time></trkpt><trkpt lat="40.772466906961036" lon="14.73148991223264"><ele>129.0</ele><time>2026-03-26T18:06:21Z</time></trkpt><trkpt lat="40.77245500639541" lon="14.731711434600632"><ele>129.0</ele><time>2026-03-26T18:06:22Z</time></trkpt><trkpt lat="40.772438404856565" lon="14.731946540734594"><ele>129.0</ele><time>2026-03-26T18:06:23Z</time></trkpt><trkpt lat="40.77241529607755" lon="14.732191053660719"><ele>130.0</ele><time>2026-03-26T18:06:24Z</time></trkpt><trkpt lat="40.77239008688746" lon="14.732430090612949"><ele>131.0</ele><time>2026-03-26T18:06:25Z</time></trkpt><trkpt lat="40.772365732360385" lon="14.732654809644787"><ele>132.0</ele><time>2026-03-26T18:06:26Z</time></trkpt><trkpt lat="40.772340604176506" lon="14.732879408444242"><ele>132.33333333333334</ele><time>2026-03-26T18:06:27Z</time></trkpt><trkpt lat="40.7723086763189" lon="14.733116474148577"><ele>132.66666666666669</ele><time>2026-03-26T18:06:28Z</time></trkpt><trkpt lat="40.77226795354012" lon="14.733361727571015"><ele>133.0</ele><time>2026-03-26T18:06:29Z</time></trkpt><trkpt lat="40.77221729972484" lon="14.733612754424604"><ele>134.0</ele><time>2026-03-26T18:06:30Z</time></trkpt><trkpt lat="40.77215582414981" lon="14.733872391823741"><ele>135.0</ele><time>2026-03-26T18:06:31Z</time></trkpt><trkpt lat="40.77208678841933" lon="14.734134837506538"><ele>136.0</ele><time>2026-03-26T18:06:32Z</time></trkpt><trkpt lat="40.772008821603684" lon="14.73440045712387"><ele>137.0</ele><time>2026-03-26T18:06:33Z</time></trkpt><trkpt lat="40.77192328849547" lon="14.734670888552966"><ele>138.0</ele><time>2026-03-26T18:06:34Z</time></trkpt><trkpt lat="40.77183651197085" lon="14.734944162299001"><ele>139.0</ele><time>2026-03-26T18:06:35Z</time></trkpt><trkpt lat="40.77175007898628" lon="14.735222026124328"><ele>143.5</ele><time>2026-03-26T18:06:36Z</time></trkpt><trkpt lat="40.77166328957099" lon="14.735502769515227"><ele>148.0</ele><time>2026-03-26T18:06:37Z</time></trkpt><trkpt lat="40.771575560812366" lon="14.735786673057321"><ele>147.0</ele><time>2026-03-26T18:06:38Z</time></trkpt><trkpt lat="40.771488129593145" lon="14.73607317434954"><ele>146.0</ele><time>2026-03-26T18:06:39Z</time></trkpt><trkpt lat="40.771400982748425" lon="14.736359722356843"><ele>146.0</ele><time>2026-03-26T18:06:40Z</time></trkpt><trkpt lat="40.771314456166536" lon="14.736648778813127"><ele>146.0</ele><time>2026-03-26T18:06:41Z</time></trkpt><trkpt lat="40.77122897122751" lon="14.736941034781925"><ele>146.0</ele><time>2026-03-26T18:06:42Z</time></trkpt><trkpt lat="40.7711478282745" lon="14.737236008595696"><ele>146.0</ele><time>2026-03-26T18:06:43Z</time></trkpt><trkpt lat="40.77107526588967" lon="14.737534413272984"><ele>150.0</ele><time>2026-03-26T18:06:44Z</time></trkpt><trkpt lat="40.7710072768812" lon="14.737837857967957"><ele>154.0</ele><time>2026-03-26T18:06:45Z</time></trkpt><trkpt lat="40.7709420503726" lon="14.7381427264831"><ele>154.0</ele><time>2026-03-26T18:06:46Z</time></trkpt><trkpt lat="40.77088122088815" lon="14.73845322861297"><ele>154.0</ele><time>2026-03-26T18:06:47Z</time></trkpt><trkpt lat="40.77082803841173" lon="14.738771135424967"><ele>157.0</ele><time>2026-03-26T18:06:48Z</time></trkpt><trkpt lat="40.77078111923083" lon="14.739093728519329"><ele>160.0</ele><time>2026-03-26T18:06:49Z</time></trkpt><trkpt lat="40.770737147037735" lon="14.739420600497176"><ele>167.5</ele><time>2026-03-26T18:06:50Z</time></trkpt><trkpt lat="40.770698700253995" lon="14.739755942357743"><ele>175.0</ele><time>2026-03-26T18:06:51Z</time></trkpt><trkpt lat="40.77065881972121" lon="14.740094499376298"><ele>185.0</ele><time>2026-03-26T18:06:52Z</time></trkpt><trkpt lat="40.770617517404204" lon="14.740433842899874"><ele>195.0</ele><time>2026-03-26T18:06:53Z</time></trkpt><trkpt lat="40.770578261861395" lon="14.7407724540841"><ele>196.0</ele><time>2026-03-26T18:06:54Z</time></trkpt><trkpt lat="40.77054100863266" lon="14.741107643648634"><ele>197.0</ele><time>2026-03-26T18:06:55Z</time></trkpt><trkpt lat="40.77050384793447" lon="14.741435959194755"><ele>197.0</ele><time>2026-03-26T18:06:56Z</time></trkpt><trkpt lat="40.77046948350553" lon="14.741758914295385"><ele>197.0</ele><time>2026-03-26T18:06:57Z</time></trkpt><trkpt lat="40.770437951755035" lon="14.742079183648224"><ele>188.5</ele><time>2026-03-26T18:06:58Z</time></trkpt><trkpt lat="40.77040872824063" lon="14.742398107190688"><ele>180.0</ele><time>2026-03-26T18:06:59Z</time></trkpt><trkpt lat="40.77038101008211" lon="14.742718511147629"><ele>176.33333333333334</ele><time>2026-03-26T18:07:00Z</time></trkpt><trkpt lat="40.77029979017008" lon="14.742968703316825"><ele>172.66666666666669</ele><time>2026-03-26T18:07:01Z</time></trkpt><trkpt lat="40.77026481530969" lon="14.743279393568448"><ele>169.0</ele><time>2026-03-26T18:07:02Z</time></trkpt><trkpt lat="40.7702411160433" lon="14.743590767135252"><ele>166.5</ele><time>2026-03-26T18:07:03Z</time></trkpt><trkpt lat="40.77022283252291" lon="14.743889191238244"><ele>164.0</ele><time>2026-03-26T18:07:04Z</time></trkpt><trkpt lat="40.770212508665345" lon="14.74418513050172"><ele>162.0</ele><time>2026-03-26T18:07:05Z</time></trkpt><trkpt lat="40.77020633062239" lon="14.744484379333683"><ele>160.0</ele><time>2026-03-26T18:07:06Z</time></trkpt><trkpt lat="40.77020443224851" lon="14.74478872057714"><ele>160.0</ele><time>2026-03-26T18:07:07Z</time></trkpt><trkpt lat="40.77021561573158" lon="14.745106027321675"><ele>160.0</ele><time>2026-03-26T18:07:08Z</time></trkpt><trkpt lat="40.77023398084501" lon="14.745425143694025"><ele>164.0</ele><time>2026-03-26T18:07:09Z</time></trkpt><trkpt lat="40.77024777998674" lon="14.745740205737802"><ele>168.0</ele><time>2026-03-26T18:07:10Z</time></trkpt><trkpt lat="40.77026462763601" lon="14.746052804089274"><ele>171.5</ele><time>2026-03-26T18:07:11Z</time></trkpt><trkpt lat="40.77029007732316" lon="14.74636377892769"><ele>175.0</ele><time>2026-03-26T18:07:12Z</time></trkpt><trkpt lat="40.77032156776937" lon="14.746682346017497"><ele>170.5</ele><time>2026-03-26T18:07:13Z</time></trkpt><trkpt lat="40.77036367185771" lon="14.747002177028"><ele>166.0</ele><time>2026-03-26T18:07:14Z</time></trkpt><trkpt lat="40.77040106417448" lon="14.747323966680387"><ele>166.0</ele><time>2026-03-26T18:07:15Z</time></trkpt><trkpt lat="40.77044342706425" lon="14.747650275289491"><ele>166.0</ele><time>2026-03-26T18:07:16Z</time></trkpt><trkpt lat="40.770489975705075" lon="14.747979971655482"><ele>165.5</ele><time>2026-03-26T18:07:17Z</time></trkpt><trkpt lat="40.77054390761409" lon="14.748315365569907"><ele>165.0</ele><time>2026-03-26T18:07:18Z</time></trkpt><trkpt lat="40.77060831962283" lon="14.748652558429134"><ele>164.5</ele><time>2026-03-26T18:07:19Z</time></trkpt><trkpt lat="40.77068067014412" lon="14.74898616496072"><ele>164.0</ele><time>2026-03-26T18:07:20Z</time></trkpt><trkpt lat="40.77075568403988" lon="14.749313191692611"><ele>164.5</ele><time>2026-03-26T18:07:21Z</time></trkpt><trkpt lat="40.770832794381086" lon="14.749633151957264"><ele>165.0</ele><time>2026-03-26T18:07:22Z</time></trkpt><trkpt lat="40.7709148944572" lon="14.74994807024934"><ele>164.5</ele><time>2026-03-26T18:07:23Z</time></trkpt><trkpt lat="40.77100231752923" lon="14.750255796333352"><ele>164.0</ele><time>2026-03-26T18:07:24Z</time></trkpt><trkpt lat="40.771096664805825" lon="14.750561099303425"><ele>161.5</ele><time>2026-03-26T18:07:25Z</time></trkpt><trkpt lat="40.77119634605446" lon="14.750862325213314"><ele>159.0</ele><time>2026-03-26T18:07:26Z</time></trkpt><trkpt lat="40.771300563624756" lon="14.751161680066762"><ele>159.0</ele><time>2026-03-26T18:07:27Z</time></trkpt><trkpt lat="40.77140848019063" lon="14.7514587086299"><ele>159.0</ele><time>2026-03-26T18:07:28Z</time></trkpt><trkpt lat="40.77152027511992" lon="14.751755332140101"><ele>160.0</ele><time>2026-03-26T18:07:29Z</time></trkpt><trkpt lat="40.77163494589272" lon="14.752050804718559"><ele>161.0</ele><time>2026-03-26T18:07:30Z</time></trkpt><trkpt lat="40.77174567718458" lon="14.752333110900986"><ele>161.0</ele><time>2026-03-26T18:07:31Z</time></trkpt><trkpt lat="40.77185054782195" lon="14.752604499543324"><ele>161.0</ele><time>2026-03-26T18:07:32Z</time></trkpt><trkpt lat="40.771951059605485" lon="14.752865122338287"><ele>159.0</ele><time>2026-03-26T18:07:33Z</time></trkpt><trkpt lat="40.772052601578906" lon="14.75312548566252"><ele>157.0</ele><time>2026-03-26T18:07:34Z</time></trkpt><trkpt lat="40.77215604986832" lon="14.753391299587728"><ele>155.0</ele><time>2026-03-26T18:07:35Z</time></trkpt><trkpt lat="40.7722596994368" lon="14.753659706687971"><ele>154.5</ele><time>2026-03-26T18:07:36Z</time></trkpt><trkpt lat="40.7723637244708" lon="14.753929831385172"><ele>154.0</ele><time>2026-03-26T18:07:37Z</time></trkpt><trkpt lat="40.772470147990006" lon="14.754201818261153"><ele>154.0</ele><time>2026-03-26T18:07:38Z</time></trkpt><trkpt lat="40.77257880932963" lon="14.754476238682093"><ele>154.0</ele><time>2026-03-26T18:07:39Z</time></trkpt><trkpt lat="40.772689309421956" lon="14.754751929717786"><ele>151.5</ele><time>2026-03-26T18:07:40Z</time></trkpt><trkpt lat="40.77279961338635" lon="14.755027543680894"><ele>149.0</ele><time>2026-03-26T18:07:41Z</time></trkpt><trkpt lat="40.77290928460346" lon="14.755308143301054"><ele>148.0</ele><time>2026-03-26T18:07:42Z</time></trkpt><trkpt lat="40.77301711038482" lon="14.755591445424846"><ele>147.0</ele><time>2026-03-26T18:07:43Z</time></trkpt><trkpt lat="40.773122350430484" lon="14.755877261526285"><ele>147.0</ele><time>2026-03-26T18:07:44Z</time></trkpt><trkpt lat="40.773225565324765" lon="14.75616829958534"><ele>147.0</ele><time>2026-03-26T18:07:45Z</time></trkpt><trkpt lat="40.77332692912351" lon="14.75646075834683"><ele>147.0</ele><time>2026-03-26T18:07:46Z</time></trkpt><trkpt lat="40.77343084903081" lon="14.756753756146663"><ele>147.0</ele><time>2026-03-26T18:07:47Z</time></trkpt><trkpt lat="40.7735322648459" lon="14.757039880404518"><ele>146.5</ele><time>2026-03-26T18:07:48Z</time></trkpt><trkpt lat="40.77363348239634" lon="14.757330357629282"><ele>146.0</ele><time>2026-03-26T18:07:49Z</time></trkpt><trkpt lat="40.77372892522721" lon="14.75762630309751"><ele>147.5</ele><time>2026-03-26T18:07:50Z</time></trkpt><trkpt lat="40.77381620677928" lon="14.757924398126061"><ele>149.0</ele><time>2026-03-26T18:07:51Z</time></trkpt><trkpt lat="40.77389448334776" lon="14.758225563091573"><ele>149.0</ele><time>2026-03-26T18:07:52Z</time></trkpt><trkpt lat="40.77396325814025" lon="14.758528565491199"><ele>149.0</ele><time>2026-03-26T18:07:53Z</time></trkpt><trkpt lat="40.77402372658156" lon="14.758829030758118"><ele>149.5</ele><time>2026-03-26T18:07:54Z</time></trkpt><trkpt lat="40.77407893022174" lon="14.759130115660142"><ele>150.0</ele><time>2026-03-26T18:07:55Z</time></trkpt><trkpt lat="40.77412789551397" lon="14.759435788609112"><ele>150.0</ele><time>2026-03-26T18:07:56Z</time></trkpt><trkpt lat="40.77416975093113" lon="14.759748877134442"><ele>150.0</ele><time>2026-03-26T18:07:57Z</time></trkpt><trkpt lat="40.77420160259237" lon="14.76006399893538"><ele>151.0</ele><time>2026-03-26T18:07:58Z</time></trkpt><trkpt lat="40.774222047091236" lon="14.760381704141334"><ele>152.0</ele><time>2026-03-26T18:07:59Z</time></trkpt><trkpt lat="40.77423321272416" lon="14.760707933477235"><ele>152.0</ele><time>2026-03-26T18:08:00Z</time></trkpt><trkpt lat="40.774236027108316" lon="14.761032407989438"><ele>152.0</ele><time>2026-03-26T18:08:01Z</time></trkpt><trkpt lat="40.77423194863008" lon="14.761363630089802"><ele>153.0</ele><time>2026-03-26T18:08:02Z</time></trkpt><trkpt lat="40.77421864006974" lon="14.761699383496506"><ele>154.0</ele><time>2026-03-26T18:08:03Z</time></trkpt><trkpt lat="40.77419619333774" lon="14.762034970776082"><ele>154.5</ele><time>2026-03-26T18:08:04Z</time></trkpt><trkpt lat="40.77416661117887" lon="14.762372371296596"><ele>155.0</ele><time>2026-03-26T18:08:05Z</time></trkpt><trkpt lat="40.77412772245384" lon="14.762711568934481"><ele>155.5</ele><time>2026-03-26T18:08:06Z</time></trkpt><trkpt lat="40.774079259107864" lon="14.76305052560576"><ele>156.0</ele><time>2026-03-26T18:08:07Z</time></trkpt><trkpt lat="40.7740244273329" lon="14.763388796050307"><ele>156.0</ele><time>2026-03-26T18:08:08Z</time></trkpt><trkpt lat="40.773967452370634" lon="14.763728654806815"><ele>156.0</ele><time>2026-03-26T18:08:09Z</time></trkpt><trkpt lat="40.77390869570824" lon="14.764070708342809"><ele>158.0</ele><time>2026-03-26T18:08:10Z</time></trkpt><trkpt lat="40.77384805372744" lon="14.764412948586084"><ele>160.0</ele><time>2026-03-26T18:08:11Z</time></trkpt><trkpt lat="40.77378738313566" lon="14.764755179082714"><ele>160.0</ele><time>2026-03-26T18:08:12Z</time></trkpt><trkpt lat="40.773726286919164" lon="14.765098058659104"><ele>160.0</ele><time>2026-03-26T18:08:13Z</time></trkpt><trkpt lat="40.77366390635494" lon="14.765442318801558"><ele>162.0</ele><time>2026-03-26T18:08:14Z</time></trkpt><trkpt lat="40.773602791302004" lon="14.765786210316262"><ele>164.0</ele><time>2026-03-26T18:08:15Z</time></trkpt><trkpt lat="40.77354300691016" lon="14.766127716218357"><ele>165.0</ele><time>2026-03-26T18:08:16Z</time></trkpt><trkpt lat="40.773484490685284" lon="14.766467321147129"><ele>166.0</ele><time>2026-03-26T18:08:17Z</time></trkpt><trkpt lat="40.773426796966376" lon="14.766805952030987"><ele>167.0</ele><time>2026-03-26T18:08:18Z</time></trkpt><trkpt lat="40.77337146292923" lon="14.76714221905595"><ele>168.0</ele><time>2026-03-26T18:08:19Z</time></trkpt><trkpt lat="40.77331947260147" lon="14.76747837478011"><ele>169.5</ele><time>2026-03-26T18:08:20Z</time></trkpt><trkpt lat="40.77327250593111" lon="14.767817764945669"><ele>171.0</ele><time>2026-03-26T18:08:21Z</time></trkpt><trkpt lat="40.77323187172279" lon="14.768159825133633"><ele>171.0</ele><time>2026-03-26T18:08:22Z</time></trkpt><trkpt lat="40.77319338623554" lon="14.768503943037402"><ele>171.0</ele><time>2026-03-26T18:08:23Z</time></trkpt><trkpt lat="40.77315297208804" lon="14.768848788598945"><ele>173.0</ele><time>2026-03-26T18:08:24Z</time></trkpt><trkpt lat="40.77311105479783" lon="14.76919127392775"><ele>175.0</ele><time>2026-03-26T18:08:25Z</time></trkpt><trkpt lat="40.77306778649411" lon="14.76952775452059"><ele>178.0</ele><time>2026-03-26T18:08:26Z</time></trkpt><trkpt lat="40.773024243873714" lon="14.769862443790188"><ele>181.0</ele><time>2026-03-26T18:08:27Z</time></trkpt><trkpt lat="40.77298371666029" lon="14.770192268108033"><ele>182.0</ele><time>2026-03-26T18:08:28Z</time></trkpt><trkpt lat="40.77294681321527" lon="14.770518188560269"><ele>183.0</ele><time>2026-03-26T18:08:29Z</time></trkpt><trkpt lat="40.77291122638859" lon="14.770842249809222"><ele>184.0</ele><time>2026-03-26T18:08:30Z</time></trkpt><trkpt lat="40.77287870729452" lon="14.771163789678543"><ele>185.0</ele><time>2026-03-26T18:08:31Z</time></trkpt><trkpt lat="40.772847036149386" lon="14.771485344603635"><ele>185.0</ele><time>2026-03-26T18:08:32Z</time></trkpt><trkpt lat="40.77281233914926" lon="14.771806989018863"><ele>185.0</ele><time>2026-03-26T18:08:33Z</time></trkpt><trkpt lat="40.77277131248652" lon="14.772129972570433"><ele>186.5</ele><time>2026-03-26T18:08:34Z</time></trkpt><trkpt lat="40.77272580628011" lon="14.77245218417854"><ele>188.0</ele><time>2026-03-26T18:08:35Z</time></trkpt><trkpt lat="40.77267887470574" lon="14.772776130118993"><ele>188.0</ele><time>2026-03-26T18:08:36Z</time></trkpt><trkpt lat="40.77263400639671" lon="14.773102953610808"><ele>188.0</ele><time>2026-03-26T18:08:37Z</time></trkpt><trkpt lat="40.77259559794736" lon="14.77343122071811"><ele>190.0</ele><time>2026-03-26T18:08:38Z</time></trkpt><trkpt lat="40.772562135423016" lon="14.773761654981538"><ele>192.0</ele><time>2026-03-26T18:08:39Z</time></trkpt><trkpt lat="40.77253050929084" lon="14.774093129340441"><ele>193.5</ele><time>2026-03-26T18:08:40Z</time></trkpt><trkpt lat="40.772499026603164" lon="14.774424287588117"><ele>195.0</ele><time>2026-03-26T18:08:41Z</time></trkpt><trkpt lat="40.772466799100194" lon="14.774757067839362"><ele>195.0</ele><time>2026-03-26T18:08:42Z</time></trkpt><trkpt lat="40.77243259244677" lon="14.77508765269018"><ele>195.0</ele><time>2026-03-26T18:08:43Z</time></trkpt><trkpt lat="40.77239890500371" lon="14.775413488600247"><ele>196.5</ele><time>2026-03-26T18:08:44Z</time></trkpt><trkpt lat="40.77236440946663" lon="14.775736345492966"><ele>198.0</ele><time>2026-03-26T18:08:45Z</time></trkpt><trkpt lat="40.77232913545842" lon="14.776057881134385"><ele>200.5</ele><time>2026-03-26T18:08:46Z</time></trkpt><trkpt lat="40.77229334417913" lon="14.776379776956535"><ele>203.0</ele><time>2026-03-26T18:08:47Z</time></trkpt><trkpt lat="40.772257391417874" lon="14.77670083974095"><ele>204.5</ele><time>2026-03-26T18:08:48Z</time></trkpt><trkpt lat="40.7722228613613" lon="14.777024669551077"><ele>206.0</ele><time>2026-03-26T18:08:49Z</time></trkpt><trkpt lat="40.772188129970885" lon="14.777351867442569"><ele>206.0</ele><time>2026-03-26T18:08:50Z</time></trkpt><trkpt lat="40.77215319959802" lon="14.777681372440775"><ele>206.0</ele><time>2026-03-26T18:08:51Z</time></trkpt><trkpt lat="40.77211914248191" lon="14.778012251533097"><ele>207.0</ele><time>2026-03-26T18:08:52Z</time></trkpt><trkpt lat="40.772085240674045" lon="14.778347571789867"><ele>208.0</ele><time>2026-03-26T18:08:53Z</time></trkpt><trkpt lat="40.77205159133236" lon="14.778685929825013"><ele>210.0</ele><time>2026-03-26T18:08:54Z</time></trkpt><trkpt lat="40.77201780987033" lon="14.77902922849825"><ele>212.0</ele><time>2026-03-26T18:08:55Z</time></trkpt><trkpt lat="40.7719839060924" lon="14.779377300585367"><ele>214.5</ele><time>2026-03-26T18:08:56Z</time></trkpt><trkpt lat="40.77194914832513" lon="14.779727030627312"><ele>217.0</ele><time>2026-03-26T18:08:57Z</time></trkpt><trkpt lat="40.7719134365986" lon="14.780080821490925"><ele>217.5</ele><time>2026-03-26T18:08:58Z</time></trkpt><trkpt lat="40.77187377579285" lon="14.780436548339967"><ele>218.0</ele><time>2026-03-26T18:08:59Z</time></trkpt><trkpt lat="40.7718341433814" lon="14.78079178087909"><ele>220.0</ele><time>2026-03-26T18:09:00Z</time></trkpt><trkpt lat="40.77179501390122" lon="14.781150024358567"><ele>222.0</ele><time>2026-03-26T18:09:01Z</time></trkpt><trkpt lat="40.771756476873854" lon="14.781503288202513"><ele>224.0</ele><time>2026-03-26T18:09:02Z</time></trkpt><trkpt lat="40.77171684456805" lon="14.781858009986832"><ele>226.0</ele><time>2026-03-26T18:09:03Z</time></trkpt><trkpt lat="40.77167333927923" lon="14.78221168669704"><ele>226.0</ele><time>2026-03-26T18:09:04Z</time></trkpt><trkpt lat="40.771623530001825" lon="14.782564378205903"><ele>226.0</ele><time>2026-03-26T18:09:05Z</time></trkpt><trkpt lat="40.77156280867125" lon="14.782910855343143"><ele>227.0</ele><time>2026-03-26T18:09:06Z</time></trkpt><trkpt lat="40.77148577386219" lon="14.783248152944706"><ele>228.0</ele><time>2026-03-26T18:09:07Z</time></trkpt><trkpt lat="40.77139533435277" lon="14.783579393948436"><ele>228.0</ele><time>2026-03-26T18:09:08Z</time></trkpt><trkpt lat="40.77129591143409" lon="14.783903353901366"><ele>228.0</ele><time>2026-03-26T18:09:09Z</time></trkpt><trkpt lat="40.771186785744746" lon="14.784221398495333"><ele>229.5</ele><time>2026-03-26T18:09:10Z</time></trkpt><trkpt lat="40.771069208732975" lon="14.784532772004308"><ele>231.0</ele><time>2026-03-26T18:09:11Z</time></trkpt><trkpt lat="40.77094179511129" lon="14.78483563591372"><ele>231.5</ele><time>2026-03-26T18:09:12Z</time></trkpt><trkpt lat="40.77080303127789" lon="14.785129018299802"><ele>232.0</ele><time>2026-03-26T18:09:13Z</time></trkpt><trkpt lat="40.77065484223168" lon="14.785412538552976"><ele>233.5</ele><time>2026-03-26T18:09:14Z</time></trkpt><trkpt lat="40.770499083709076" lon="14.785686840052803"><ele>235.0</ele><time>2026-03-26T18:09:15Z</time></trkpt><trkpt lat="40.77033283235171" lon="14.785948156735131"><ele>235.5</ele><time>2026-03-26T18:09:16Z</time></trkpt><trkpt lat="40.77015554415065" lon="14.786198103763056"><ele>236.0</ele><time>2026-03-26T18:09:17Z</time></trkpt><trkpt lat="40.76997046154028" lon="14.78643686591937"><ele>236.0</ele><time>2026-03-26T18:09:18Z</time></trkpt><trkpt lat="40.769780684459484" lon="14.786656633306707"><ele>236.0</ele><time>2026-03-26T18:09:19Z</time></trkpt><trkpt lat="40.769591810257694" lon="14.786858861784674"><ele>236.0</ele><time>2026-03-26T18:09:20Z</time></trkpt><trkpt lat="40.76940850296643" lon="14.787039170629503"><ele>236.0</ele><time>2026-03-26T18:09:21Z</time></trkpt><trkpt lat="40.769227610087306" lon="14.787199099432074"><ele>236.0</ele><time>2026-03-26T18:09:22Z</time></trkpt><trkpt lat="40.769036892834784" lon="14.787348753846002"><ele>236.0</ele><time>2026-03-26T18:09:23Z</time></trkpt><trkpt lat="40.76883663145938" lon="14.787489823737987"><ele>236.0</ele><time>2026-03-26T18:09:24Z</time></trkpt><trkpt lat="40.76862785013018" lon="14.787623528147217"><ele>236.0</ele><time>2026-03-26T18:09:25Z</time></trkpt><trkpt lat="40.768412246826635" lon="14.787751076206321"><ele>236.0</ele><time>2026-03-26T18:09:26Z</time></trkpt><trkpt lat="40.768188926143196" lon="14.787871025903755"><ele>236.0</ele><time>2026-03-26T18:09:27Z</time></trkpt><trkpt lat="40.76795841439397" lon="14.787979959626805"><ele>236.0</ele><time>2026-03-26T18:09:28Z</time></trkpt><trkpt lat="40.76772148691647" lon="14.788078308863609"><ele>235.5</ele><time>2026-03-26T18:09:29Z</time></trkpt><trkpt lat="40.76748103590615" lon="14.788167529156995"><ele>235.0</ele><time>2026-03-26T18:09:30Z</time></trkpt><trkpt lat="40.767236095565956" lon="14.788250438767742"><ele>235.0</ele><time>2026-03-26T18:09:31Z</time></trkpt><trkpt lat="40.76698847498994" lon="14.788329147375162"><ele>235.0</ele><time>2026-03-26T18:09:32Z</time></trkpt><trkpt lat="40.76674017174127" lon="14.788400085827496"><ele>235.0</ele><time>2026-03-26T18:09:33Z</time></trkpt><trkpt lat="40.766503090513474" lon="14.788459789362308"><ele>235.0</ele><time>2026-03-26T18:09:34Z</time></trkpt><trkpt lat="40.76627814222114" lon="14.788510266592164"><ele>235.0</ele><time>2026-03-26T18:09:35Z</time></trkpt><trkpt lat="40.76606067928169" lon="14.788555243231368"><ele>235.0</ele><time>2026-03-26T18:09:36Z</time></trkpt><trkpt lat="40.765846905433825" lon="14.78859667308862"><ele>235.0</ele><time>2026-03-26T18:09:37Z</time></trkpt><trkpt lat="40.765631941119885" lon="14.788637611631465"><ele>235.0</ele><time>2026-03-26T18:09:38Z</time></trkpt><trkpt lat="40.76541380092445" lon="14.788675609350571"><ele>235.0</ele><time>2026-03-26T18:09:39Z</time></trkpt><trkpt lat="40.76519382781218" lon="14.78871145266946"><ele>235.0</ele><time>2026-03-26T18:09:40Z</time></trkpt><trkpt lat="40.76496754424834" lon="14.788740359670603"><ele>233.5</ele><time>2026-03-26T18:09:41Z</time></trkpt><trkpt lat="40.764735489990095" lon="14.788765107200826"><ele>232.0</ele><time>2026-03-26T18:09:42Z</time></trkpt><trkpt lat="40.76449998474234" lon="14.78878814978649"><ele>232.5</ele><time>2026-03-26T18:09:43Z</time></trkpt><trkpt lat="40.76425604788635" lon="14.788805422117955"><ele>233.0</ele><time>2026-03-26T18:09:44Z</time></trkpt><trkpt lat="40.76400475685641" lon="14.788816304604637"><ele>233.0</ele><time>2026-03-26T18:09:45Z</time></trkpt><trkpt lat="40.76374797551005" lon="14.788820770332165"><ele>233.0</ele><time>2026-03-26T18:09:46Z</time></trkpt><trkpt lat="40.763486097868764" lon="14.788815543677089"><ele>235.0</ele><time>2026-03-26T18:09:47Z</time></trkpt><trkpt lat="40.76321940814563" lon="14.78880136993104"><ele>237.0</ele><time>2026-03-26T18:09:48Z</time></trkpt><trkpt lat="40.76295054907303" lon="14.788780075045786"><ele>237.5</ele><time>2026-03-26T18:09:49Z</time></trkpt><trkpt lat="40.76268283335052" lon="14.788750749965637"><ele>238.0</ele><time>2026-03-26T18:09:50Z</time></trkpt><trkpt lat="40.762413088872876" lon="14.78871534216983"><ele>238.0</ele><time>2026-03-26T18:09:51Z</time></trkpt><trkpt lat="40.762144658940265" lon="14.788675772662216"><ele>238.0</ele><time>2026-03-26T18:09:52Z</time></trkpt><trkpt lat="40.76187841735246" lon="14.788632515282643"><ele>239.0</ele><time>2026-03-26T18:09:53Z</time></trkpt><trkpt lat="40.76161339762121" lon="14.788587341247876"><ele>240.0</ele><time>2026-03-26T18:09:54Z</time></trkpt><trkpt lat="40.76134890884364" lon="14.788540156960636"><ele>239.0</ele><time>2026-03-26T18:09:55Z</time></trkpt><trkpt lat="40.761083327706544" lon="14.788489314372104"><ele>238.0</ele><time>2026-03-26T18:09:56Z</time></trkpt><trkpt lat="40.76081927965863" lon="14.788432532025734"><ele>238.0</ele><time>2026-03-26T18:09:57Z</time></trkpt><trkpt lat="40.760553219208" lon="14.788376322058154"><ele>238.0</ele><time>2026-03-26T18:09:58Z</time></trkpt><trkpt lat="40.76028744182426" lon="14.788320447016526"><ele>238.5</ele><time>2026-03-26T18:09:59Z</time></trkpt><trkpt lat="40.76001914859976" lon="14.788264969386566"><ele>239.0</ele><time>2026-03-26T18:10:00Z</time></trkpt><trkpt lat="40.759752459796786" lon="14.788209473742844"><ele>239.0</ele><time>2026-03-26T18:10:01Z</time></trkpt><trkpt lat="40.75948204861092" lon="14.788153802824391"><ele>239.0</ele><time>2026-03-26T18:10:02Z</time></trkpt><trkpt lat="40.75921213641349" lon="14.788099430817736"><ele>240.5</ele><time>2026-03-26T18:10:03Z</time></trkpt><trkpt lat="40.75894152743832" lon="14.788045230402235"><ele>242.0</ele><time>2026-03-26T18:10:04Z</time></trkpt><trkpt lat="40.75866927385202" lon="14.78799163289441"><ele>242.5</ele><time>2026-03-26T18:10:05Z</time></trkpt><trkpt lat="40.7583974676826" lon="14.78793807252923"><ele>243.0</ele><time>2026-03-26T18:10:06Z</time></trkpt><trkpt lat="40.75812735322775" lon="14.787883821893624"><ele>243.0</ele><time>2026-03-26T18:10:07Z</time></trkpt><trkpt lat="40.757860995108835" lon="14.787829182736571"><ele>243.0</ele><time>2026-03-26T18:10:08Z</time></trkpt><trkpt lat="40.75759420782435" lon="14.78777487113217"><ele>241.5</ele><time>2026-03-26T18:10:09Z</time></trkpt><trkpt lat="40.757332583082544" lon="14.787722672730732"><ele>240.0</ele><time>2026-03-26T18:10:10Z</time></trkpt><trkpt lat="40.757074012323116" lon="14.787672781802696"><ele>238.0</ele><time>2026-03-26T18:10:11Z</time></trkpt><trkpt lat="40.75681572381285" lon="14.787622832589722"><ele>236.0</ele><time>2026-03-26T18:10:12Z</time></trkpt><trkpt lat="40.75656026638574" lon="14.787575055798271"><ele>236.0</ele><time>2026-03-26T18:10:13Z</time></trkpt><trkpt lat="40.75632088343779" lon="14.787529498790077"><ele>236.0</ele><time>2026-03-26T18:10:14Z</time></trkpt><trkpt lat="40.75608889239395" lon="14.787485495723558"><ele>235.5</ele><time>2026-03-26T18:10:15Z</time></trkpt><trkpt lat="40.75586168188904" lon="14.78743940228861"><ele>235.0</ele><time>2026-03-26T18:10:16Z</time></trkpt><trkpt lat="40.7556361451192" lon="14.787394045808366"><ele>235.0</ele><time>2026-03-26T18:10:17Z</time></trkpt><trkpt lat="40.75541930185265" lon="14.787351553441379"><ele>235.0</ele><time>2026-03-26T18:10:18Z</time></trkpt><trkpt lat="40.75520805641223" lon="14.787310135417528"><ele>235.0</ele><time>2026-03-26T18:10:19Z</time></trkpt><trkpt lat="40.755005048263016" lon="14.787271095598003"><ele>233.66666666666666</ele><time>2026-03-26T18:10:20Z</time></trkpt><trkpt lat="40.75480356308126" lon="14.78723170111559"><ele>232.33333333333331</ele><time>2026-03-26T18:10:21Z</time></trkpt><trkpt lat="40.75459933031367" lon="14.78719234854618"><ele>231.0</ele><time>2026-03-26T18:10:22Z</time></trkpt><trkpt lat="40.75439224149849" lon="14.787150582798379"><ele>229.66666666666669</ele><time>2026-03-26T18:10:23Z</time></trkpt><trkpt lat="40.754179831471895" lon="14.787107425712989"><ele>228.33333333333334</ele><time>2026-03-26T18:10:24Z</time></trkpt><trkpt lat="40.75396446765576" lon="14.787063925515788"><ele>227.0</ele><time>2026-03-26T18:10:25Z</time></trkpt><trkpt lat="40.75375357785083" lon="14.787020589753086"><ele>227.0</ele><time>2026-03-26T18:10:26Z</time></trkpt><trkpt lat="40.753544719073574" lon="14.786978699372261"><ele>227.0</ele><time>2026-03-26T18:10:27Z</time></trkpt><trkpt lat="40.7533299421576" lon="14.78693645115127"><ele>227.0</ele><time>2026-03-26T18:10:28Z</time></trkpt><trkpt lat="40.753111065021095" lon="14.786893773203374"><ele>226.33333333333334</ele><time>2026-03-26T18:10:29Z</time></trkpt><trkpt lat="40.752887635926434" lon="14.786849670816107"><ele>225.66666666666669</ele><time>2026-03-26T18:10:30Z</time></trkpt><trkpt lat="40.7526686525962" lon="14.786806526831159"><ele>225.0</ele><time>2026-03-26T18:10:31Z</time></trkpt><trkpt lat="40.75245759598119" lon="14.786763527063089"><ele>224.33333333333331</ele><time>2026-03-26T18:10:32Z</time></trkpt><trkpt lat="40.752243665864896" lon="14.786718772549559"><ele>223.66666666666666</ele><time>2026-03-26T18:10:33Z</time></trkpt><trkpt lat="40.752025556731596" lon="14.786673645776062"><ele>223.0</ele><time>2026-03-26T18:10:34Z</time></trkpt><trkpt lat="40.75180420501822" lon="14.786627531908431"><ele>223.0</ele><time>2026-03-26T18:10:35Z</time></trkpt><trkpt lat="40.751578088288475" lon="14.78658080095749"><ele>223.0</ele><time>2026-03-26T18:10:36Z</time></trkpt><trkpt lat="40.75135052043797" lon="14.78653437157826"><ele>223.0</ele><time>2026-03-26T18:10:37Z</time></trkpt><trkpt lat="40.75112316413073" lon="14.786488643140121"><ele>223.0</ele><time>2026-03-26T18:10:38Z</time></trkpt><trkpt lat="40.75089943097497" lon="14.786443683485123"><ele>223.5</ele><time>2026-03-26T18:10:39Z</time></trkpt><trkpt lat="40.7506761210461" lon="14.786400262240388"><ele>224.0</ele><time>2026-03-26T18:10:40Z</time></trkpt><trkpt lat="40.75045090988434" lon="14.78635728634936"><ele>224.0</ele><time>2026-03-26T18:10:41Z</time></trkpt><trkpt lat="40.75022713192537" lon="14.786312409830535"><ele>224.0</ele><time>2026-03-26T18:10:42Z</time></trkpt><trkpt lat="40.7500145265546" lon="14.786268830389611"><ele>224.0</ele><time>2026-03-26T18:10:43Z</time></trkpt><trkpt lat="40.749804701462914" lon="14.786225376262395"><ele>224.0</ele><time>2026-03-26T18:10:44Z</time></trkpt><trkpt lat="40.74959019868643" lon="14.786181981942876"><ele>224.0</ele><time>2026-03-26T18:10:45Z</time></trkpt><trkpt lat="40.74937184316197" lon="14.786137409551717"><ele>224.0</ele><time>2026-03-26T18:10:46Z</time></trkpt><trkpt lat="40.74915065290939" lon="14.786091974747965"><ele>224.0</ele><time>2026-03-26T18:10:47Z</time></trkpt><trkpt lat="40.74892717981355" lon="14.786046507562313"><ele>224.0</ele><time>2026-03-26T18:10:48Z</time></trkpt><trkpt lat="40.74870499981424" lon="14.78600217146997"><ele>223.66666666666669</ele><time>2026-03-26T18:10:49Z</time></trkpt><trkpt lat="40.74848592529823" lon="14.785956795710945"><ele>223.33333333333331</ele><time>2026-03-26T18:10:50Z</time></trkpt><trkpt lat="40.748270022314486" lon="14.785912678867014"><ele>223.0</ele><time>2026-03-26T18:10:51Z</time></trkpt><trkpt lat="40.748055977659845" lon="14.785870306868887"><ele>223.0</ele><time>2026-03-26T18:10:52Z</time></trkpt><trkpt lat="40.74784500142346" lon="14.785828675875926"><ele>223.0</ele><time>2026-03-26T18:10:53Z</time></trkpt><trkpt lat="40.74763524328369" lon="14.785786247148401"><ele>223.0</ele><time>2026-03-26T18:10:54Z</time></trkpt><trkpt lat="40.747422556355225" lon="14.785741584452637"><ele>224.0</ele><time>2026-03-26T18:10:55Z</time></trkpt><trkpt lat="40.747205799875665" lon="14.785693617514985"><ele>225.0</ele><time>2026-03-26T18:10:56Z</time></trkpt><trkpt lat="40.746985950680376" lon="14.785639890358324"><ele>226.0</ele><time>2026-03-26T18:10:57Z</time></trkpt><trkpt lat="40.7467625445299" lon="14.785582088651166"><ele>229.5</ele><time>2026-03-26T18:10:58Z</time></trkpt><trkpt lat="40.746538909497644" lon="14.785519753855358"><ele>233.0</ele><time>2026-03-26T18:10:59Z</time></trkpt><trkpt lat="40.74631293706864" lon="14.785452303293345"><ele>233.0</ele><time>2026-03-26T18:11:00Z</time></trkpt><trkpt lat="40.74609123255076" lon="14.785383653574714"><ele>233.0</ele><time>2026-03-26T18:11:01Z</time></trkpt><trkpt lat="40.74586849959053" lon="14.785310315836313"><ele>230.0</ele><time>2026-03-26T18:11:02Z</time></trkpt><trkpt lat="40.7456421371904" lon="14.78522802304538"><ele>227.0</ele><time>2026-03-26T18:11:03Z</time></trkpt><trkpt lat="40.74541273668411" lon="14.785136441424948"><ele>223.5</ele><time>2026-03-26T18:11:04Z</time></trkpt><trkpt lat="40.745180992242275" lon="14.78503956284222"><ele>220.0</ele><time>2026-03-26T18:11:05Z</time></trkpt><trkpt lat="40.74494765140645" lon="14.784938930906108"><ele>220.0</ele><time>2026-03-26T18:11:06Z</time></trkpt><trkpt lat="40.74470973591845" lon="14.784834085623629"><ele>220.0</ele><time>2026-03-26T18:11:07Z</time></trkpt><trkpt lat="40.74447139350751" lon="14.784719069605124"><ele>221.5</ele><time>2026-03-26T18:11:08Z</time></trkpt><trkpt lat="40.744234415750526" lon="14.784595902628348"><ele>223.0</ele><time>2026-03-26T18:11:09Z</time></trkpt><trkpt lat="40.7440001687078" lon="14.784469106838317"><ele>221.0</ele><time>2026-03-26T18:11:10Z</time></trkpt><trkpt lat="40.74376963447235" lon="14.7843375587628"><ele>219.0</ele><time>2026-03-26T18:11:11Z</time></trkpt><trkpt lat="40.74353853234598" lon="14.784202217466358"><ele>219.0</ele><time>2026-03-26T18:11:12Z</time></trkpt><trkpt lat="40.74331241621863" lon="14.784062521745161"><ele>219.0</ele><time>2026-03-26T18:11:13Z</time></trkpt><trkpt lat="40.74309688685725" lon="14.783924675071841"><ele>219.0</ele><time>2026-03-26T18:11:14Z</time></trkpt><trkpt lat="40.74287875349005" lon="14.78378175432264"><ele>219.0</ele><time>2026-03-26T18:11:15Z</time></trkpt><trkpt lat="40.742661952209254" lon="14.783634447692284"><ele>220.5</ele><time>2026-03-26T18:11:16Z</time></trkpt><trkpt lat="40.74244804658027" lon="14.783478316732433"><ele>222.0</ele><time>2026-03-26T18:11:17Z</time></trkpt><trkpt lat="40.74223679300445" lon="14.783310643514943"><ele>222.0</ele><time>2026-03-26T18:11:18Z</time></trkpt><trkpt lat="40.74203741102407" lon="14.783147318845703"><ele>222.0</ele><time>2026-03-26T18:11:19Z</time></trkpt><trkpt lat="40.74184154371222" lon="14.78298200981535"><ele>221.5</ele><time>2026-03-26T18:11:20Z</time></trkpt><trkpt lat="40.74164178911078" lon="14.782809836700006"><ele>221.0</ele><time>2026-03-26T18:11:21Z</time></trkpt><trkpt lat="40.74144381438687" lon="14.782630013046752"><ele>218.5</ele><time>2026-03-26T18:11:22Z</time></trkpt><trkpt lat="40.74124312121471" lon="14.78244536612636"><ele>216.0</ele><time>2026-03-26T18:11:23Z</time></trkpt><trkpt lat="40.74104539951658" lon="14.78225287300283"><ele>216.0</ele><time>2026-03-26T18:11:24Z</time></trkpt><trkpt lat="40.74084494243539" lon="14.782054221603444"><ele>216.0</ele><time>2026-03-26T18:11:25Z</time></trkpt><trkpt lat="40.740657929997695" lon="14.781861147927001"><ele>214.66666666666669</ele><time>2026-03-26T18:11:26Z</time></trkpt><trkpt lat="40.740477105119005" lon="14.78167350407013"><ele>213.33333333333334</ele><time>2026-03-26T18:11:27Z</time></trkpt><trkpt lat="40.740310041031925" lon="14.781490849236556"><ele>212.0</ele><time>2026-03-26T18:11:28Z</time></trkpt><trkpt lat="40.74014837258827" lon="14.781309165406922"><ele>212.0</ele><time>2026-03-26T18:11:29Z</time></trkpt><trkpt lat="40.739991994893906" lon="14.781129322647631"><ele>212.0</ele><time>2026-03-26T18:11:30Z</time></trkpt><trkpt lat="40.7398398983831" lon="14.780951073298418"><ele>212.0</ele><time>2026-03-26T18:11:31Z</time></trkpt><trkpt lat="40.73968322180247" lon="14.78077379834985"><ele>210.66666666666669</ele><time>2026-03-26T18:11:32Z</time></trkpt><trkpt lat="40.73953290587569" lon="14.780603384022346"><ele>209.33333333333331</ele><time>2026-03-26T18:11:33Z</time></trkpt><trkpt lat="40.73938539496333" lon="14.780438741129858"><ele>208.0</ele><time>2026-03-26T18:11:34Z</time></trkpt><trkpt lat="40.73924092036878" lon="14.78027936166434"><ele>204.66666666666666</ele><time>2026-03-26T18:11:35Z</time></trkpt><trkpt lat="40.73909062060026" lon="14.780113300625814"><ele>201.33333333333331</ele><time>2026-03-26T18:11:36Z</time></trkpt><trkpt lat="40.73893787942101" lon="14.779938450297006"><ele>198.0</ele><time>2026-03-26T18:11:37Z</time></trkpt><trkpt lat="40.73878220529052" lon="14.779760842166032"><ele>198.0</ele><time>2026-03-26T18:11:38Z</time></trkpt><trkpt lat="40.73862205960887" lon="14.779578945781605"><ele>198.0</ele><time>2026-03-26T18:11:39Z</time></trkpt><trkpt lat="40.738457219093654" lon="14.779390743715668"><ele>198.0</ele><time>2026-03-26T18:11:40Z</time></trkpt><trkpt lat="40.73828858848869" lon="14.779198288500762"><ele>196.0</ele><time>2026-03-26T18:11:41Z</time></trkpt><trkpt lat="40.73811942613643" lon="14.779006589532392"><ele>194.0</ele><time>2026-03-26T18:11:42Z</time></trkpt><trkpt lat="40.73794899075478" lon="14.778815890696892"><ele>192.0</ele><time>2026-03-26T18:11:43Z</time></trkpt><trkpt lat="40.73777754722257" lon="14.778621468797411"><ele>189.5</ele><time>2026-03-26T18:11:44Z</time></trkpt><trkpt lat="40.73760428001619" lon="14.778426817275456"><ele>187.0</ele><time>2026-03-26T18:11:45Z</time></trkpt><trkpt lat="40.73742815787126" lon="14.77823075677678"><ele>187.0</ele><time>2026-03-26T18:11:46Z</time></trkpt><trkpt lat="40.73724952610235" lon="14.778039162413155"><ele>187.0</ele><time>2026-03-26T18:11:47Z</time></trkpt><trkpt lat="40.73707242172937" lon="14.77785303148328"><ele>185.66666666666669</ele><time>2026-03-26T18:11:48Z</time></trkpt><trkpt lat="40.736896536264865" lon="14.777673336577273"><ele>184.33333333333334</ele><time>2026-03-26T18:11:49Z</time></trkpt><trkpt lat="40.73671305895999" lon="14.777497070757429"><ele>183.0</ele><time>2026-03-26T18:11:50Z</time></trkpt><trkpt lat="40.73652398614709" lon="14.777324636171816"><ele>182.0</ele><time>2026-03-26T18:11:51Z</time></trkpt><trkpt lat="40.736328707303834" lon="14.777154323691335"><ele>181.0</ele><time>2026-03-26T18:11:52Z</time></trkpt><trkpt lat="40.736125354817766" lon="14.776987826364053"><ele>178.0</ele><time>2026-03-26T18:11:53Z</time></trkpt><trkpt lat="40.73591580793095" lon="14.776826462865063"><ele>175.0</ele><time>2026-03-26T18:11:54Z</time></trkpt><trkpt lat="40.735700007108505" lon="14.77666978204829"><ele>175.0</ele><time>2026-03-26T18:11:55Z</time></trkpt><trkpt lat="40.735476353428176" lon="14.776518529776412"><ele>175.0</ele><time>2026-03-26T18:11:56Z</time></trkpt><trkpt lat="40.73524747852718" lon="14.776374402186194"><ele>175.5</ele><time>2026-03-26T18:11:57Z</time></trkpt><trkpt lat="40.73501216327849" lon="14.77623716579213"><ele>176.0</ele><time>2026-03-26T18:11:58Z</time></trkpt><trkpt lat="40.734770859940966" lon="14.7761056467819"><ele>173.5</ele><time>2026-03-26T18:11:59Z</time></trkpt><trkpt lat="40.73452788579112" lon="14.7759827629813"><ele>171.0</ele><time>2026-03-26T18:12:00Z</time></trkpt><trkpt lat="40.73428088415285" lon="14.775871360052287"><ele>171.0</ele><time>2026-03-26T18:12:01Z</time></trkpt><trkpt lat="40.73402702221192" lon="14.775770103610284"><ele>171.0</ele><time>2026-03-26T18:12:02Z</time></trkpt><trkpt lat="40.73377599399417" lon="14.775680067626192"><ele>171.5</ele><time>2026-03-26T18:12:03Z</time></trkpt><trkpt lat="40.73352483878253" lon="14.775598724873232"><ele>172.0</ele><time>2026-03-26T18:12:04Z</time></trkpt><trkpt lat="40.733273233846575" lon="14.77552751745681"><ele>172.0</ele><time>2026-03-26T18:12:05Z</time></trkpt><trkpt lat="40.73302117636574" lon="14.77546685382356"><ele>172.0</ele><time>2026-03-26T18:12:06Z</time></trkpt><trkpt lat="40.73276780106543" lon="14.775416093968884"><ele>170.0</ele><time>2026-03-26T18:12:07Z</time></trkpt><trkpt lat="40.73251388640219" lon="14.775375658509997"><ele>168.0</ele><time>2026-03-26T18:12:08Z</time></trkpt><trkpt lat="40.73226062551336" lon="14.775346054540089"><ele>168.0</ele><time>2026-03-26T18:12:09Z</time></trkpt><trkpt lat="40.73200859337351" lon="14.775326167710997"><ele>168.0</ele><time>2026-03-26T18:12:10Z</time></trkpt><trkpt lat="40.731760971526576" lon="14.775316309487817"><ele>168.5</ele><time>2026-03-26T18:12:11Z</time></trkpt><trkpt lat="40.731526908784396" lon="14.775312703866515"><ele>169.0</ele><time>2026-03-26T18:12:12Z</time></trkpt><trkpt lat="40.731301593247345" lon="14.77531289423188"><ele>169.0</ele><time>2026-03-26T18:12:13Z</time></trkpt><trkpt lat="40.73107506480155" lon="14.7753177860612"><ele>169.0</ele><time>2026-03-26T18:12:14Z</time></trkpt><trkpt lat="40.73084814862125" lon="14.77532633238637"><ele>171.0</ele><time>2026-03-26T18:12:15Z</time></trkpt><trkpt lat="40.73061988360103" lon="14.775338359885946"><ele>173.0</ele><time>2026-03-26T18:12:16Z</time></trkpt><trkpt lat="40.73039046236552" lon="14.775351373312054"><ele>172.5</ele><time>2026-03-26T18:12:17Z</time></trkpt><trkpt lat="40.7301624713653" lon="14.775367141260082"><ele>172.0</ele><time>2026-03-26T18:12:18Z</time></trkpt><trkpt lat="40.72993519386067" lon="14.775383240625812"><ele>172.0</ele><time>2026-03-26T18:12:19Z</time></trkpt><trkpt lat="40.72970638482161" lon="14.77540202185203"><ele>172.0</ele><time>2026-03-26T18:12:20Z</time></trkpt><trkpt lat="40.72947708286216" lon="14.775419027030262"><ele>169.5</ele><time>2026-03-26T18:12:21Z</time></trkpt><trkpt lat="40.72924393160314" lon="14.775434836825747"><ele>167.0</ele><time>2026-03-26T18:12:22Z</time></trkpt><trkpt lat="40.729007453396875" lon="14.775449514733088"><ele>167.0</ele><time>2026-03-26T18:12:23Z</time></trkpt><trkpt lat="40.72876547869701" lon="14.775464637165758"><ele>167.0</ele><time>2026-03-26T18:12:24Z</time></trkpt><trkpt lat="40.72851925605562" lon="14.775479475492313"><ele>165.0</ele><time>2026-03-26T18:12:25Z</time></trkpt><trkpt lat="40.72826719677048" lon="14.775495374188843"><ele>163.0</ele><time>2026-03-26T18:12:26Z</time></trkpt><trkpt lat="40.72801043590965" lon="14.77551324520001"><ele>163.0</ele><time>2026-03-26T18:12:27Z</time></trkpt><trkpt lat="40.72774729185745" lon="14.775532910603987"><ele>163.0</ele><time>2026-03-26T18:12:28Z</time></trkpt><trkpt lat="40.72748042906546" lon="14.775552261568707"><ele>162.0</ele><time>2026-03-26T18:12:29Z</time></trkpt><trkpt lat="40.72720867648859" lon="14.775570335713697"><ele>161.0</ele><time>2026-03-26T18:12:30Z</time></trkpt><trkpt lat="40.72693603516081" lon="14.775588185769335"><ele>159.0</ele><time>2026-03-26T18:12:31Z</time></trkpt><trkpt lat="40.726666791914596" lon="14.775606362622543"><ele>157.0</ele><time>2026-03-26T18:12:32Z</time></trkpt><trkpt lat="40.726394011567315" lon="14.77562417857993"><ele>157.0</ele><time>2026-03-26T18:12:33Z</time></trkpt><trkpt lat="40.726121891623414" lon="14.775643093585936"><ele>157.0</ele><time>2026-03-26T18:12:34Z</time></trkpt><trkpt lat="40.725848443600704" lon="14.775662656461387"><ele>156.0</ele><time>2026-03-26T18:12:35Z</time></trkpt><trkpt lat="40.72557734792456" lon="14.775682830502799"><ele>155.0</ele><time>2026-03-26T18:12:36Z</time></trkpt><trkpt lat="40.725316928213914" lon="14.775699177139005"><ele>152.0</ele><time>2026-03-26T18:12:37Z</time></trkpt><trkpt lat="40.72506393203246" lon="14.775718515748162"><ele>149.0</ele><time>2026-03-26T18:12:38Z</time></trkpt><trkpt lat="40.724810401891496" lon="14.775744641079255"><ele>149.0</ele><time>2026-03-26T18:12:39Z</time></trkpt><trkpt lat="40.72456083436329" lon="14.775783220167051"><ele>149.0</ele><time>2026-03-26T18:12:40Z</time></trkpt><trkpt lat="40.72431785695165" lon="14.775836027112748"><ele>146.5</ele><time>2026-03-26T18:12:41Z</time></trkpt><trkpt lat="40.72407859983115" lon="14.775904836421878"><ele>144.0</ele><time>2026-03-26T18:12:42Z</time></trkpt><trkpt lat="40.72384365832881" lon="14.775988121611684"><ele>149.0</ele><time>2026-03-26T18:12:43Z</time></trkpt><trkpt lat="40.723615999926196" lon="14.776085311515226"><ele>154.0</ele><time>2026-03-26T18:12:44Z</time></trkpt><trkpt lat="40.72339375625186" lon="14.776193537200173"><ele>158.0</ele><time>2026-03-26T18:12:45Z</time></trkpt><trkpt lat="40.72317623602192" lon="14.776313146648885"><ele>162.0</ele><time>2026-03-26T18:12:46Z</time></trkpt><trkpt lat="40.72296331750021" lon="14.776438098509297"><ele>162.0</ele><time>2026-03-26T18:12:47Z</time></trkpt><trkpt lat="40.72275607803223" lon="14.776562141081076"><ele>162.0</ele><time>2026-03-26T18:12:48Z</time></trkpt><trkpt lat="40.72255642392426" lon="14.776683946572035"><ele>162.0</ele><time>2026-03-26T18:12:49Z</time></trkpt><trkpt lat="40.72236161234027" lon="14.776802608386681"><ele>166.33333333333334</ele><time>2026-03-26T18:12:50Z</time></trkpt><trkpt lat="40.722165130877976" lon="14.776920511458183"><ele>170.66666666666669</ele><time>2026-03-26T18:12:51Z</time></trkpt><trkpt lat="40.721966521459414" lon="14.777037465901152"><ele>175.0</ele><time>2026-03-26T18:12:52Z</time></trkpt><trkpt lat="40.72176674154207" lon="14.77715711639547"><ele>161.0</ele><time>2026-03-26T18:12:53Z</time></trkpt><trkpt lat="40.72156485020443" lon="14.777279175613863"><ele>147.0</ele><time>2026-03-26T18:12:54Z</time></trkpt><trkpt lat="40.72133441830505" lon="14.777407748769027"><ele>147.0</ele><time>2026-03-26T18:12:55Z</time></trkpt><trkpt lat="40.7211088316085" lon="14.77754442018782"><ele>147.0</ele><time>2026-03-26T18:12:56Z</time></trkpt><trkpt lat="40.72089102104174" lon="14.777654938019102"><ele>145.0</ele><time>2026-03-26T18:12:57Z</time></trkpt><trkpt lat="40.72067466914091" lon="14.777747101970677"><ele>143.0</ele><time>2026-03-26T18:12:58Z</time></trkpt><trkpt lat="40.720458061289634" lon="14.777820441768979"><ele>143.0</ele><time>2026-03-26T18:12:59Z</time></trkpt><trkpt lat="40.7202385244674" lon="14.777883184347907"><ele>143.0</ele><time>2026-03-26T18:13:00Z</time></trkpt><trkpt lat="40.720011590505514" lon="14.777925355294602"><ele>142.0</ele><time>2026-03-26T18:13:01Z</time></trkpt><trkpt lat="40.719788307781656" lon="14.777963174517721"><ele>141.0</ele><time>2026-03-26T18:13:02Z</time></trkpt><trkpt lat="40.71956415646727" lon="14.778004732710633"><ele>139.0</ele><time>2026-03-26T18:13:03Z</time></trkpt><trkpt lat="40.7193371432698" lon="14.77805043453554"><ele>137.0</ele><time>2026-03-26T18:13:04Z</time></trkpt><trkpt lat="40.719106365977446" lon="14.778097760803766"><ele>137.0</ele><time>2026-03-26T18:13:05Z</time></trkpt><trkpt lat="40.71887373121127" lon="14.778142415397792"><ele>137.0</ele><time>2026-03-26T18:13:06Z</time></trkpt><trkpt lat="40.7186349698625" lon="14.77818614327221"><ele>138.0</ele><time>2026-03-26T18:13:07Z</time></trkpt><trkpt lat="40.71839245934077" lon="14.778227840529063"><ele>139.0</ele><time>2026-03-26T18:13:08Z</time></trkpt><trkpt lat="40.71814447252108" lon="14.778266383532753"><ele>139.0</ele><time>2026-03-26T18:13:09Z</time></trkpt><trkpt lat="40.71789165140049" lon="14.778299133111586"><ele>139.0</ele><time>2026-03-26T18:13:10Z</time></trkpt><trkpt lat="40.71762917952739" lon="14.778330464516909"><ele>138.5</ele><time>2026-03-26T18:13:11Z</time></trkpt><trkpt lat="40.717363837909716" lon="14.778364132205207"><ele>138.0</ele><time>2026-03-26T18:13:12Z</time></trkpt><trkpt lat="40.71709819334246" lon="14.778400598903959"><ele>135.0</ele><time>2026-03-26T18:13:13Z</time></trkpt><trkpt lat="40.716832294652995" lon="14.778438880896097"><ele>132.0</ele><time>2026-03-26T18:13:14Z</time></trkpt><trkpt lat="40.71656730010602" lon="14.778479848045158"><ele>136.0</ele><time>2026-03-26T18:13:15Z</time></trkpt><trkpt lat="40.71630227363437" lon="14.77852281198121"><ele>140.0</ele><time>2026-03-26T18:13:16Z</time></trkpt><trkpt lat="40.716036763923725" lon="14.778569116014532"><ele>140.0</ele><time>2026-03-26T18:13:17Z</time></trkpt><trkpt lat="40.71577011923934" lon="14.778616529721978"><ele>140.0</ele><time>2026-03-26T18:13:18Z</time></trkpt><trkpt lat="40.71549986179096" lon="14.778660010312668"><ele>134.5</ele><time>2026-03-26T18:13:19Z</time></trkpt><trkpt lat="40.71522981041047" lon="14.778699813636708"><ele>129.0</ele><time>2026-03-26T18:13:20Z</time></trkpt><trkpt lat="40.71495767285346" lon="14.77874193597622"><ele>129.0</ele><time>2026-03-26T18:13:21Z</time></trkpt><trkpt lat="40.7146881321369" lon="14.7787865074361"><ele>129.0</ele><time>2026-03-26T18:13:22Z</time></trkpt><trkpt lat="40.714420970148396" lon="14.778831816887589"><ele>123.0</ele><time>2026-03-26T18:13:23Z</time></trkpt><trkpt lat="40.714155676628565" lon="14.778878894225217"><ele>117.0</ele><time>2026-03-26T18:13:24Z</time></trkpt><trkpt lat="40.71389561857733" lon="14.778925489713238"><ele>117.0</ele><time>2026-03-26T18:13:25Z</time></trkpt><trkpt lat="40.71363469094313" lon="14.7789729408229"><ele>117.0</ele><time>2026-03-26T18:13:26Z</time></trkpt><trkpt lat="40.71337596021624" lon="14.779022876010803"><ele>118.0</ele><time>2026-03-26T18:13:27Z</time></trkpt><trkpt lat="40.713117918067674" lon="14.779074723955231"><ele>119.0</ele><time>2026-03-26T18:13:28Z</time></trkpt><trkpt lat="40.71287094969621" lon="14.779128380081424"><ele>115.5</ele><time>2026-03-26T18:13:29Z</time></trkpt><trkpt lat="40.71263369446667" lon="14.779190325127912"><ele>112.0</ele><time>2026-03-26T18:13:30Z</time></trkpt><trkpt lat="40.71239842476991" lon="14.77926554091514"><ele>117.0</ele><time>2026-03-26T18:13:31Z</time></trkpt><trkpt lat="40.712164962447744" lon="14.779353577071001"><ele>122.0</ele><time>2026-03-26T18:13:32Z</time></trkpt><trkpt lat="40.71193370460714" lon="14.779452910420282"><ele>118.0</ele><time>2026-03-26T18:13:33Z</time></trkpt><trkpt lat="40.71170549003013" lon="14.779558153507583"><ele>114.0</ele><time>2026-03-26T18:13:34Z</time></trkpt><trkpt lat="40.71149023719843" lon="14.779660364822039"><ele>114.0</ele><time>2026-03-26T18:13:35Z</time></trkpt><trkpt lat="40.71128800574388" lon="14.7797539961619"><ele>114.0</ele><time>2026-03-26T18:13:36Z</time></trkpt><trkpt lat="40.711090072293594" lon="14.779842319925814"><ele>114.0</ele><time>2026-03-26T18:13:37Z</time></trkpt><trkpt lat="40.71089062911469" lon="14.779924855785362"><ele>113.0</ele><time>2026-03-26T18:13:38Z</time></trkpt><trkpt lat="40.71068631751843" lon="14.780002061993564"><ele>112.0</ele><time>2026-03-26T18:13:39Z</time></trkpt><trkpt lat="40.7104792240545" lon="14.780065148032394"><ele>111.0</ele><time>2026-03-26T18:13:40Z</time></trkpt><trkpt lat="40.7102649994179" lon="14.780113205363808"><ele>108.0</ele><time>2026-03-26T18:13:41Z</time></trkpt><trkpt lat="40.71004918584802" lon="14.780148155965353"><ele>105.0</ele><time>2026-03-26T18:13:42Z</time></trkpt><trkpt lat="40.70983178900968" lon="14.78016755231607"><ele>102.0</ele><time>2026-03-26T18:13:43Z</time></trkpt><trkpt lat="40.70961194524391" lon="14.780172789506219"><ele>101.0</ele><time>2026-03-26T18:13:44Z</time></trkpt><trkpt lat="40.70938980836878" lon="14.780163883915014"><ele>100.0</ele><time>2026-03-26T18:13:45Z</time></trkpt><trkpt lat="40.70916635485763" lon="14.780142842548722"><ele>99.0</ele><time>2026-03-26T18:13:46Z</time></trkpt><trkpt lat="40.70894357472024" lon="14.780109711082467"><ele>99.0</ele><time>2026-03-26T18:13:47Z</time></trkpt><trkpt lat="40.70872378357686" lon="14.780063953393082"><ele>99.0</ele><time>2026-03-26T18:13:48Z</time></trkpt><trkpt lat="40.708505428549145" lon="14.779999531398115"><ele>99.0</ele><time>2026-03-26T18:13:49Z</time></trkpt><trkpt lat="40.708293157013024" lon="14.77991471881697"><ele>100.66666666666666</ele><time>2026-03-26T18:13:50Z</time></trkpt><trkpt lat="40.7080895670986" lon="14.779816201721573"><ele>102.33333333333333</ele><time>2026-03-26T18:13:51Z</time></trkpt><trkpt lat="40.70789588770776" lon="14.779708043490539"><ele>104.0</ele><time>2026-03-26T18:13:52Z</time></trkpt><trkpt lat="40.70770549158873" lon="14.779596856690889"><ele>104.0</ele><time>2026-03-26T18:13:53Z</time></trkpt><trkpt lat="40.7075139043377" lon="14.7794856938633"><ele>104.0</ele><time>2026-03-26T18:13:54Z</time></trkpt><trkpt lat="40.70732249465251" lon="14.779372485559028"><ele>104.0</ele><time>2026-03-26T18:13:55Z</time></trkpt><trkpt lat="40.70712748592472" lon="14.779258749952376"><ele>100.0</ele><time>2026-03-26T18:13:56Z</time></trkpt><trkpt lat="40.70692516316145" lon="14.779146845517465"><ele>96.0</ele><time>2026-03-26T18:13:57Z</time></trkpt><trkpt lat="40.706719744200804" lon="14.779033851770185"><ele>92.0</ele><time>2026-03-26T18:13:58Z</time></trkpt><trkpt lat="40.7065122974279" lon="14.778918137617467"><ele>92.0</ele><time>2026-03-26T18:13:59Z</time></trkpt><trkpt lat="40.70631329802325" lon="14.77880666068812"><ele>92.0</ele><time>2026-03-26T18:14:00Z</time></trkpt><trkpt lat="40.7061254165051" lon="14.778700828007091"><ele>92.0</ele><time>2026-03-26T18:14:01Z</time></trkpt><trkpt lat="40.70593514557224" lon="14.778602453800415"><ele>91.33333333333334</ele><time>2026-03-26T18:14:02Z</time></trkpt><trkpt lat="40.7057378079055" lon="14.77851983656322"><ele>90.66666666666667</ele><time>2026-03-26T18:14:03Z</time></trkpt><trkpt lat="40.70553045268437" lon="14.778451827776268"><ele>90.0</ele><time>2026-03-26T18:14:04Z</time></trkpt><trkpt lat="40.70531794611277" lon="14.778394653880557"><ele>88.33333333333333</ele><time>2026-03-26T18:14:05Z</time></trkpt><trkpt lat="40.70510177563487" lon="14.778352082595346"><ele>86.66666666666666</ele><time>2026-03-26T18:14:06Z</time></trkpt><trkpt lat="40.70488238082937" lon="14.778324174010129"><ele>85.0</ele><time>2026-03-26T18:14:07Z</time></trkpt><trkpt lat="40.70466553275355" lon="14.778315329719106"><ele>85.0</ele><time>2026-03-26T18:14:08Z</time></trkpt><trkpt lat="40.704451254536295" lon="14.778321263438686"><ele>85.0</ele><time>2026-03-26T18:14:09Z</time></trkpt><trkpt lat="40.70423395646705" lon="14.778334401787255"><ele>85.0</ele><time>2026-03-26T18:14:10Z</time></trkpt><trkpt lat="40.704012922038245" lon="14.778353086078772"><ele>83.66666666666666</ele><time>2026-03-26T18:14:11Z</time></trkpt><trkpt lat="40.703789507024084" lon="14.77837513981196"><ele>82.33333333333333</ele><time>2026-03-26T18:14:12Z</time></trkpt><trkpt lat="40.70357082316574" lon="14.77839611717769"><ele>81.0</ele><time>2026-03-26T18:14:13Z</time></trkpt><trkpt lat="40.70336175904904" lon="14.778416617694834"><ele>80.0</ele><time>2026-03-26T18:14:14Z</time></trkpt><trkpt lat="40.70315326650437" lon="14.778437614027029"><ele>79.0</ele><time>2026-03-26T18:14:15Z</time></trkpt><trkpt lat="40.70294804213671" lon="14.778458912037706"><ele>78.0</ele><time>2026-03-26T18:14:16Z</time></trkpt><trkpt lat="40.70274829190113" lon="14.778479118644174"><ele>78.33333333333333</ele><time>2026-03-26T18:14:17Z</time></trkpt><trkpt lat="40.70254873494358" lon="14.778500064752109"><ele>78.66666666666666</ele><time>2026-03-26T18:14:18Z</time></trkpt><trkpt lat="40.70235125350244" lon="14.778522195714457"><ele>79.0</ele><time>2026-03-26T18:14:19Z</time></trkpt><trkpt lat="40.702150314111044" lon="14.778546168738096"><ele>79.0</ele><time>2026-03-26T18:14:20Z</time></trkpt><trkpt lat="40.701943116947064" lon="14.778570035949034"><ele>79.0</ele><time>2026-03-26T18:14:21Z</time></trkpt><trkpt lat="40.701733911006684" lon="14.778593845489873"><ele>79.0</ele><time>2026-03-26T18:14:22Z</time></trkpt><trkpt lat="40.7015293984457" lon="14.778615418791171"><ele>79.0</ele><time>2026-03-26T18:14:23Z</time></trkpt><trkpt lat="40.70132617861981" lon="14.778639074674924"><ele>79.0</ele><time>2026-03-26T18:14:24Z</time></trkpt><trkpt lat="40.701124213473214" lon="14.778658598028814"><ele>79.0</ele><time>2026-03-26T18:14:25Z</time></trkpt><trkpt lat="40.70092378970826" lon="14.778679405032312"><ele>77.0</ele><time>2026-03-26T18:14:26Z</time></trkpt><trkpt lat="40.70073399067752" lon="14.778697936282954"><ele>75.0</ele><time>2026-03-26T18:14:27Z</time></trkpt><trkpt lat="40.70056236720746" lon="14.778718729462357"><ele>73.0</ele><time>2026-03-26T18:14:28Z</time></trkpt><trkpt lat="40.700382386113205" lon="14.778742555776454"><ele>71.33333333333333</ele><time>2026-03-26T18:14:29Z</time></trkpt><trkpt lat="40.70019491762266" lon="14.778771472362973"><ele>69.66666666666667</ele><time>2026-03-26T18:14:30Z</time></trkpt><trkpt lat="40.70000245918185" lon="14.77880441240273"><ele>68.0</ele><time>2026-03-26T18:14:31Z</time></trkpt><trkpt lat="40.69980540570189" lon="14.778842086639404"><ele>68.0</ele><time>2026-03-26T18:14:32Z</time></trkpt><trkpt lat="40.699604277868836" lon="14.778885261800314"><ele>68.0</ele><time>2026-03-26T18:14:33Z</time></trkpt><trkpt lat="40.69939970686142" lon="14.778934600342357"><ele>68.0</ele><time>2026-03-26T18:14:34Z</time></trkpt><trkpt lat="40.69919263379412" lon="14.778991399117853"><ele>68.33333333333334</ele><time>2026-03-26T18:14:35Z</time></trkpt><trkpt lat="40.698983721962875" lon="14.779056015906264"><ele>68.66666666666667</ele><time>2026-03-26T18:14:36Z</time></trkpt><trkpt lat="40.698775239432535" lon="14.779133903755657"><ele>69.0</ele><time>2026-03-26T18:14:37Z</time></trkpt><trkpt lat="40.698568498353744" lon="14.779223633793517"><ele>70.66666666666667</ele><time>2026-03-26T18:14:38Z</time></trkpt><trkpt lat="40.69836386492614" lon="14.779329460395664"><ele>72.33333333333334</ele><time>2026-03-26T18:14:39Z</time></trkpt><trkpt lat="40.69816931816468" lon="14.779453821833679"><ele>74.0</ele><time>2026-03-26T18:14:40Z</time></trkpt><trkpt lat="40.69798313597414" lon="14.779589285819837"><ele>75.0</ele><time>2026-03-26T18:14:41Z</time></trkpt><trkpt lat="40.69780609547393" lon="14.779726641214063"><ele>76.0</ele><time>2026-03-26T18:14:42Z</time></trkpt><trkpt lat="40.69763513008129" lon="14.779863707045081"><ele>77.0</ele><time>2026-03-26T18:14:43Z</time></trkpt><trkpt lat="40.69746558855729" lon="14.780004611306016"><ele>77.0</ele><time>2026-03-26T18:14:44Z</time></trkpt><trkpt lat="40.69729830144607" lon="14.780150447820386"><ele>77.0</ele><time>2026-03-26T18:14:45Z</time></trkpt><trkpt lat="40.69713581679055" lon="14.780298761401246"><ele>77.0</ele><time>2026-03-26T18:14:46Z</time></trkpt><trkpt lat="40.6969837294673" lon="14.780451401224573"><ele>74.66666666666667</ele><time>2026-03-26T18:14:47Z</time></trkpt><trkpt lat="40.696831016143605" lon="14.780612570935102"><ele>72.33333333333333</ele><time>2026-03-26T18:14:48Z</time></trkpt><trkpt lat="40.69667741138836" lon="14.780775742213676"><ele>70.0</ele><time>2026-03-26T18:14:49Z</time></trkpt><trkpt lat="40.69652564969602" lon="14.780946353396587"><ele>69.66666666666666</ele><time>2026-03-26T18:14:50Z</time></trkpt><trkpt lat="40.69637728376586" lon="14.781127847022047"><ele>69.33333333333333</ele><time>2026-03-26T18:14:51Z</time></trkpt><trkpt lat="40.69622981215388" lon="14.781316521275622"><ele>69.0</ele><time>2026-03-26T18:14:52Z</time></trkpt><trkpt lat="40.696085529861755" lon="14.781507964684847"><ele>65.33333333333333</ele><time>2026-03-26T18:14:53Z</time></trkpt><trkpt lat="40.695951229037846" lon="14.781697184315828"><ele>61.666666666666664</ele><time>2026-03-26T18:14:54Z</time></trkpt><trkpt lat="40.69583118762817" lon="14.781878394549363"><ele>58.0</ele><time>2026-03-26T18:14:55Z</time></trkpt><trkpt lat="40.69572266605972" lon="14.782052195229612"><ele>58.0</ele><time>2026-03-26T18:14:56Z</time></trkpt><trkpt lat="40.69562968974885" lon="14.782222321517901"><ele>58.0</ele><time>2026-03-26T18:14:57Z</time></trkpt><trkpt lat="40.695554167106465" lon="14.782407484284612"><ele>58.0</ele><time>2026-03-26T18:14:58Z</time></trkpt><trkpt lat="40.69550010267523" lon="14.782591484192352"><ele>59.0</ele><time>2026-03-26T18:14:59Z</time></trkpt><trkpt lat="40.695465391254146" lon="14.782771581521873"><ele>60.0</ele><time>2026-03-26T18:15:00Z</time></trkpt><trkpt lat="40.695445695825434" lon="14.782948271979144"><ele>61.0</ele><time>2026-03-26T18:15:01Z</time></trkpt><trkpt lat="40.69544097855908" lon="14.783133427273693"><ele>62.0</ele><time>2026-03-26T18:15:02Z</time></trkpt><trkpt lat="40.69544835890768" lon="14.783334719104202"><ele>62.0</ele><time>2026-03-26T18:15:03Z</time></trkpt><trkpt lat="40.69547169387932" lon="14.783538302439915"><ele>62.0</ele><time>2026-03-26T18:15:04Z</time></trkpt><trkpt lat="40.69550955332027" lon="14.783741214984339"><ele>62.0</ele><time>2026-03-26T18:15:05Z</time></trkpt><trkpt lat="40.69556145236373" lon="14.783931656628404"><ele>62.0</ele><time>2026-03-26T18:15:06Z</time></trkpt><trkpt lat="40.69562864308344" lon="14.784115752663268"><ele>62.0</ele><time>2026-03-26T18:15:07Z</time></trkpt><trkpt lat="40.695709935790475" lon="14.784291378168867"><ele>62.0</ele><time>2026-03-26T18:15:08Z</time></trkpt><trkpt lat="40.69580703992309" lon="14.784457603487757"><ele>62.333333333333336</ele><time>2026-03-26T18:15:09Z</time></trkpt><trkpt lat="40.69591611980707" lon="14.784610659220377"><ele>62.66666666666667</ele><time>2026-03-26T18:15:10Z</time></trkpt><trkpt lat="40.696028790869725" lon="14.784756614931558"><ele>63.0</ele><time>2026-03-26T18:15:11Z</time></trkpt><trkpt lat="40.69614773654296" lon="14.784899576189506"><ele>65.66666666666667</ele><time>2026-03-26T18:15:12Z</time></trkpt><trkpt lat="40.69626606992305" lon="14.785047688323075"><ele>68.33333333333334</ele><time>2026-03-26T18:15:13Z</time></trkpt><trkpt lat="40.69638359350811" lon="14.785208356169415"><ele>71.0</ele><time>2026-03-26T18:15:14Z</time></trkpt><trkpt lat="40.696492957487614" lon="14.78538460442175"><ele>71.66666666666667</ele><time>2026-03-26T18:15:15Z</time></trkpt><trkpt lat="40.69658942135954" lon="14.785572678146865"><ele>72.33333333333333</ele><time>2026-03-26T18:15:16Z</time></trkpt><trkpt lat="40.69666853252072" lon="14.785769989146981"><ele>73.0</ele><time>2026-03-26T18:15:17Z</time></trkpt><trkpt lat="40.69673531334061" lon="14.785975108779931"><ele>73.66666666666666</ele><time>2026-03-26T18:15:18Z</time></trkpt><trkpt lat="40.69679001466215" lon="14.786183109889143"><ele>74.33333333333333</ele><time>2026-03-26T18:15:19Z</time></trkpt><trkpt lat="40.696838011156395" lon="14.786392843891457"><ele>75.0</ele><time>2026-03-26T18:15:20Z</time></trkpt><trkpt lat="40.69688080057224" lon="14.786603735836865"><ele>78.33333333333333</ele><time>2026-03-26T18:15:21Z</time></trkpt><trkpt lat="40.69692084761415" lon="14.78682155612411"><ele>81.66666666666666</ele><time>2026-03-26T18:15:22Z</time></trkpt><trkpt lat="40.69696362095602" lon="14.787045374027496"><ele>85.0</ele><time>2026-03-26T18:15:23Z</time></trkpt><trkpt lat="40.697008800710854" lon="14.787273378204933"><ele>85.0</ele><time>2026-03-26T18:15:24Z</time></trkpt><trkpt lat="40.69705399805722" lon="14.787506056601854"><ele>85.0</ele><time>2026-03-26T18:15:25Z</time></trkpt><trkpt lat="40.69713661413161" lon="14.787996733661235"><ele>86.66666666666666</ele><time>2026-03-26T18:15:27Z</time></trkpt><trkpt lat="40.69717281317251" lon="14.78824993266359"><ele>88.33333333333333</ele><time>2026-03-26T18:15:28Z</time></trkpt><trkpt lat="40.6972048783907" lon="14.788509855943314"><ele>90.0</ele><time>2026-03-26T18:15:29Z</time></trkpt><trkpt lat="40.6972316609601" lon="14.788774453625217"><ele>92.0</ele><time>2026-03-26T18:15:30Z</time></trkpt><trkpt lat="40.69725389780218" lon="14.789044078639915"><ele>94.0</ele><time>2026-03-26T18:15:31Z</time></trkpt><trkpt lat="40.697269307178395" lon="14.789320928835705"><ele>96.0</ele><time>2026-03-26T18:15:32Z</time></trkpt><trkpt lat="40.69727766717524" lon="14.78959735565319"><ele>96.33333333333334</ele><time>2026-03-26T18:15:33Z</time></trkpt><trkpt lat="40.69728155303156" lon="14.7898695087687"><ele>96.66666666666667</ele><time>2026-03-26T18:15:34Z</time></trkpt><trkpt lat="40.69728031755758" lon="14.790132150881258"><ele>97.0</ele><time>2026-03-26T18:15:35Z</time></trkpt><trkpt lat="40.69727250549719" lon="14.790391594948524"><ele>98.33333333333334</ele><time>2026-03-26T18:15:36Z</time></trkpt><trkpt lat="40.69725865266779" lon="14.790656185159252"><ele>99.66666666666666</ele><time>2026-03-26T18:15:37Z</time></trkpt><trkpt lat="40.697242594940356" lon="14.790912700820783"><ele>101.0</ele><time>2026-03-26T18:15:38Z</time></trkpt><trkpt lat="40.69722241786458" lon="14.791157886166518"><ele>102.33333333333333</ele><time>2026-03-26T18:15:39Z</time></trkpt><trkpt lat="40.697202249781284" lon="14.79139949145027"><ele>103.66666666666666</ele><time>2026-03-26T18:15:40Z</time></trkpt><trkpt lat="40.69718133830723" lon="14.791639778455497"><ele>105.0</ele><time>2026-03-26T18:15:41Z</time></trkpt><trkpt lat="40.69715824760509" lon="14.791887510258613"><ele>106.66666666666666</ele><time>2026-03-26T18:15:42Z</time></trkpt><trkpt lat="40.6971372246436" lon="14.792139764245302"><ele>108.33333333333333</ele><time>2026-03-26T18:15:43Z</time></trkpt><trkpt lat="40.697116585258236" lon="14.792395246726562"><ele>110.0</ele><time>2026-03-26T18:15:44Z</time></trkpt><trkpt lat="40.697091025936835" lon="14.792664749513113"><ele>111.66666666666666</ele><time>2026-03-26T18:15:45Z</time></trkpt><trkpt lat="40.697065957791516" lon="14.79293802190782"><ele>113.33333333333334</ele><time>2026-03-26T18:15:46Z</time></trkpt><trkpt lat="40.69704140422683" lon="14.793214650939854"><ele>115.0</ele><time>2026-03-26T18:15:47Z</time></trkpt><trkpt lat="40.69701916607519" lon="14.793496355405479"><ele>115.0</ele><time>2026-03-26T18:15:48Z</time></trkpt><trkpt lat="40.69699728310987" lon="14.793781187688401"><ele>115.0</ele><time>2026-03-26T18:15:49Z</time></trkpt><trkpt lat="40.69697824028597" lon="14.794071553478627"><ele>115.0</ele><time>2026-03-26T18:15:50Z</time></trkpt><trkpt lat="40.69696270679786" lon="14.794361815292364"><ele>114.0</ele><time>2026-03-26T18:15:51Z</time></trkpt><trkpt lat="40.69695059267841" lon="14.79465653759505"><ele>113.0</ele><time>2026-03-26T18:15:52Z</time></trkpt><trkpt lat="40.69694297959625" lon="14.794955946781648"><ele>111.5</ele><time>2026-03-26T18:15:53Z</time></trkpt><trkpt lat="40.696940437932696" lon="14.79525895310607"><ele>110.0</ele><time>2026-03-26T18:15:54Z</time></trkpt><trkpt lat="40.696942711894174" lon="14.79556353075889"><ele>110.0</ele><time>2026-03-26T18:15:55Z</time></trkpt><trkpt lat="40.69694992831469" lon="14.795870542762078"><ele>110.0</ele><time>2026-03-26T18:15:56Z</time></trkpt><trkpt lat="40.69696172209938" lon="14.796182584171413"><ele>111.0</ele><time>2026-03-26T18:15:57Z</time></trkpt><trkpt lat="40.696977445466494" lon="14.796496833332414"><ele>112.0</ele><time>2026-03-26T18:15:58Z</time></trkpt><trkpt lat="40.69699588886694" lon="14.796810750211852"><ele>114.0</ele><time>2026-03-26T18:15:59Z</time></trkpt><trkpt lat="40.69701838049154" lon="14.797122643622677"><ele>116.0</ele><time>2026-03-26T18:16:00Z</time></trkpt><trkpt lat="40.6970444919671" lon="14.797434964051313"><ele>118.0</ele><time>2026-03-26T18:16:01Z</time></trkpt><trkpt lat="40.69707435564179" lon="14.797747075383791"><ele>120.0</ele><time>2026-03-26T18:16:02Z</time></trkpt><trkpt lat="40.6971079679832" lon="14.798062610243614"><ele>120.0</ele><time>2026-03-26T18:16:03Z</time></trkpt><trkpt lat="40.697146973746605" lon="14.798382142103703"><ele>120.0</ele><time>2026-03-26T18:16:04Z</time></trkpt><trkpt lat="40.697195737489" lon="14.79870396110349"><ele>122.5</ele><time>2026-03-26T18:16:05Z</time></trkpt><trkpt lat="40.69725139634271" lon="14.799025014930022"><ele>125.0</ele><time>2026-03-26T18:16:06Z</time></trkpt><trkpt lat="40.69731093446293" lon="14.79934589975041"><ele>125.0</ele><time>2026-03-26T18:16:07Z</time></trkpt><trkpt lat="40.69737020967393" lon="14.79966399658414"><ele>125.0</ele><time>2026-03-26T18:16:08Z</time></trkpt><trkpt lat="40.697429953570094" lon="14.799976268858469"><ele>125.0</ele><time>2026-03-26T18:16:09Z</time></trkpt><trkpt lat="40.69748936914674" lon="14.800283422382602"><ele>125.0</ele><time>2026-03-26T18:16:10Z</time></trkpt><trkpt lat="40.6975515982332" lon="14.800582893508745"><ele>125.0</ele><time>2026-03-26T18:16:11Z</time></trkpt><trkpt lat="40.69761708463541" lon="14.800880134933628"><ele>125.0</ele><time>2026-03-26T18:16:12Z</time></trkpt><trkpt lat="40.69768334218173" lon="14.801179613690058"><ele>126.5</ele><time>2026-03-26T18:16:13Z</time></trkpt><trkpt lat="40.69774891558938" lon="14.801476956799412"><ele>128.0</ele><time>2026-03-26T18:16:14Z</time></trkpt><trkpt lat="40.69781271878353" lon="14.801764671821122"><ele>136.0</ele><time>2026-03-26T18:16:15Z</time></trkpt><trkpt lat="40.697878824930214" lon="14.802053042161935"><ele>144.0</ele><time>2026-03-26T18:16:16Z</time></trkpt><trkpt lat="40.69794701572601" lon="14.802343873874241"><ele>144.0</ele><time>2026-03-26T18:16:17Z</time></trkpt><trkpt lat="40.698014866819456" lon="14.802638099670673"><ele>144.0</ele><time>2026-03-26T18:16:18Z</time></trkpt><trkpt lat="40.69808257566092" lon="14.802932743227897"><ele>142.5</ele><time>2026-03-26T18:16:19Z</time></trkpt><trkpt lat="40.698149886105085" lon="14.803229866990192"><ele>141.0</ele><time>2026-03-26T18:16:20Z</time></trkpt><trkpt lat="40.69821710181855" lon="14.80352941432256"><ele>139.5</ele><time>2026-03-26T18:16:21Z</time></trkpt><trkpt lat="40.698286409212805" lon="14.803830090578998"><ele>138.0</ele><time>2026-03-26T18:16:22Z</time></trkpt><trkpt lat="40.69835780475981" lon="14.804132463063599"><ele>140.0</ele><time>2026-03-26T18:16:23Z</time></trkpt><trkpt lat="40.69842842276585" lon="14.804436131777821"><ele>142.0</ele><time>2026-03-26T18:16:24Z</time></trkpt><trkpt lat="40.6985015275122" lon="14.80473946457169"><ele>142.0</ele><time>2026-03-26T18:16:25Z</time></trkpt><trkpt lat="40.69857523527023" lon="14.805047819370229"><ele>142.0</ele><time>2026-03-26T18:16:26Z</time></trkpt><trkpt lat="40.69864742180479" lon="14.805359285588795"><ele>149.5</ele><time>2026-03-26T18:16:27Z</time></trkpt><trkpt lat="40.698718165997136" lon="14.805673928994777"><ele>157.0</ele><time>2026-03-26T18:16:28Z</time></trkpt><trkpt lat="40.6987847156657" lon="14.805993957025516"><ele>156.0</ele><time>2026-03-26T18:16:29Z</time></trkpt><trkpt lat="40.69884696016003" lon="14.806320685047098"><ele>155.0</ele><time>2026-03-26T18:16:30Z</time></trkpt><trkpt lat="40.69890784472166" lon="14.80665582631367"><ele>154.0</ele><time>2026-03-26T18:16:31Z</time></trkpt><trkpt lat="40.69896437672165" lon="14.806996184999958"><ele>153.0</ele><time>2026-03-26T18:16:32Z</time></trkpt><trkpt lat="40.699019498925985" lon="14.807338823429319"><ele>156.5</ele><time>2026-03-26T18:16:33Z</time></trkpt><trkpt lat="40.69907474013078" lon="14.807685744957512"><ele>160.0</ele><time>2026-03-26T18:16:34Z</time></trkpt><trkpt lat="40.69912548632196" lon="14.808034179386091"><ele>160.0</ele><time>2026-03-26T18:16:35Z</time></trkpt><trkpt lat="40.699171008063495" lon="14.808385815258616"><ele>160.0</ele><time>2026-03-26T18:16:36Z</time></trkpt><trkpt lat="40.69920982370386" lon="14.80873909090335"><ele>164.0</ele><time>2026-03-26T18:16:37Z</time></trkpt><trkpt lat="40.69923935747255" lon="14.809094600517902"><ele>168.0</ele><time>2026-03-26T18:16:38Z</time></trkpt><trkpt lat="40.69926086104718" lon="14.809453358364111"><ele>168.0</ele><time>2026-03-26T18:16:39Z</time></trkpt><trkpt lat="40.69927774697421" lon="14.809813195433867"><ele>168.0</ele><time>2026-03-26T18:16:40Z</time></trkpt><trkpt lat="40.69928814586449" lon="14.810174171241805"><ele>168.0</ele><time>2026-03-26T18:16:41Z</time></trkpt><trkpt lat="40.6992903417085" lon="14.810535406257603"><ele>168.0</ele><time>2026-03-26T18:16:42Z</time></trkpt><trkpt lat="40.699284217098395" lon="14.810898279115996"><ele>165.5</ele><time>2026-03-26T18:16:43Z</time></trkpt><trkpt lat="40.69927351269304" lon="14.811261261532044"><ele>163.0</ele><time>2026-03-26T18:16:44Z</time></trkpt><trkpt lat="40.69925640179473" lon="14.811625408617903"><ele>167.0</ele><time>2026-03-26T18:16:45Z</time></trkpt><trkpt lat="40.699233241127246" lon="14.811990280257824"><ele>171.0</ele><time>2026-03-26T18:16:46Z</time></trkpt><trkpt lat="40.699207281328235" lon="14.812350904318041"><ele>175.5</ele><time>2026-03-26T18:16:47Z</time></trkpt><trkpt lat="40.699180191703505" lon="14.812711292714534"><ele>180.0</ele><time>2026-03-26T18:16:48Z</time></trkpt><trkpt lat="40.6991513994329" lon="14.813067581716249"><ele>180.0</ele><time>2026-03-26T18:16:49Z</time></trkpt><trkpt lat="40.699121610832755" lon="14.813421618276474"><ele>180.0</ele><time>2026-03-26T18:16:50Z</time></trkpt><trkpt lat="40.699090913482415" lon="14.813772244290398"><ele>185.5</ele><time>2026-03-26T18:16:51Z</time></trkpt><trkpt lat="40.69905722488692" lon="14.81412030635174"><ele>191.0</ele><time>2026-03-26T18:16:52Z</time></trkpt><trkpt lat="40.699020663002855" lon="14.814465576717122"><ele>193.5</ele><time>2026-03-26T18:16:53Z</time></trkpt><trkpt lat="40.69898370721887" lon="14.814809560370186"><ele>196.0</ele><time>2026-03-26T18:16:54Z</time></trkpt><trkpt lat="40.69894732298448" lon="14.815151197614322"><ele>195.0</ele><time>2026-03-26T18:16:55Z</time></trkpt><trkpt lat="40.698910927597915" lon="14.81549034220372"><ele>194.0</ele><time>2026-03-26T18:16:56Z</time></trkpt><trkpt lat="40.69887519214755" lon="14.815826628236195"><ele>192.5</ele><time>2026-03-26T18:16:57Z</time></trkpt><trkpt lat="40.69881740861541" lon="14.816356895037323"><ele>191.0</ele><time>2026-03-26T18:16:58Z</time></trkpt><trkpt lat="40.6987823421332" lon="14.81672209839371"><ele>189.5</ele><time>2026-03-26T18:16:59Z</time></trkpt><trkpt lat="40.69874586733642" lon="14.817087425790717"><ele>188.0</ele><time>2026-03-26T18:17:00Z</time></trkpt><trkpt lat="40.698716376177124" lon="14.81745479477277"><ele>187.0</ele><time>2026-03-26T18:17:01Z</time></trkpt><trkpt lat="40.69867536825699" lon="14.817822382570672"><ele>186.0</ele><time>2026-03-26T18:17:02Z</time></trkpt><trkpt lat="40.6986372261803" lon="14.818188316741303"><ele>184.5</ele><time>2026-03-26T18:17:03Z</time></trkpt><trkpt lat="40.69860754495284" lon="14.818555007806362"><ele>183.0</ele><time>2026-03-26T18:17:04Z</time></trkpt><trkpt lat="40.698580748262785" lon="14.818925244032103"><ele>182.5</ele><time>2026-03-26T18:17:05Z</time></trkpt><trkpt lat="40.69855223886195" lon="14.819305430853795"><ele>182.0</ele><time>2026-03-26T18:17:06Z</time></trkpt><trkpt lat="40.698540955605644" lon="14.819532957763348"><ele>181.5</ele><time>2026-03-26T18:17:07Z</time></trkpt><trkpt lat="40.698462866226045" lon="14.819952261042806"><ele>181.0</ele><time>2026-03-26T18:17:08Z</time></trkpt><trkpt lat="40.69845294607088" lon="14.820326042509828"><ele>180.0</ele><time>2026-03-26T18:17:09Z</time></trkpt><trkpt lat="40.69842878158348" lon="14.820677530328956"><ele>179.0</ele><time>2026-03-26T18:17:10Z</time></trkpt><trkpt lat="40.698396032540295" lon="14.821007063452264"><ele>177.5</ele><time>2026-03-26T18:17:11Z</time></trkpt><trkpt lat="40.69836598281176" lon="14.821328960715316"><ele>176.0</ele><time>2026-03-26T18:17:12Z</time></trkpt><trkpt lat="40.69832960179072" lon="14.82165046024799"><ele>176.5</ele><time>2026-03-26T18:17:13Z</time></trkpt><trkpt lat="40.698290582470236" lon="14.82197080679825"><ele>177.0</ele><time>2026-03-26T18:17:14Z</time></trkpt><trkpt lat="40.69824942814177" lon="14.822288025883877"><ele>177.0</ele><time>2026-03-26T18:17:15Z</time></trkpt><trkpt lat="40.69820491165334" lon="14.822605425305044"><ele>177.0</ele><time>2026-03-26T18:17:16Z</time></trkpt><trkpt lat="40.698158101555265" lon="14.822921450159894"><ele>176.5</ele><time>2026-03-26T18:17:17Z</time></trkpt><trkpt lat="40.69810754282125" lon="14.823240656688927"><ele>176.0</ele><time>2026-03-26T18:17:18Z</time></trkpt><trkpt lat="40.698049102081555" lon="14.823565556935526"><ele>175.5</ele><time>2026-03-26T18:17:19Z</time></trkpt><trkpt lat="40.69798355613144" lon="14.823895304335904"><ele>175.0</ele><time>2026-03-26T18:17:20Z</time></trkpt><trkpt lat="40.69791269186895" lon="14.824226978614272"><ele>175.0</ele><time>2026-03-26T18:17:21Z</time></trkpt><trkpt lat="40.69783620656405" lon="14.824562411953497"><ele>175.0</ele><time>2026-03-26T18:17:22Z</time></trkpt><trkpt lat="40.69775407207832" lon="14.824901410282662"><ele>174.5</ele><time>2026-03-26T18:17:23Z</time></trkpt><trkpt lat="40.69766778197101" lon="14.825241209595948"><ele>174.0</ele><time>2026-03-26T18:17:24Z</time></trkpt><trkpt lat="40.69757653353148" lon="14.825582117679781"><ele>174.0</ele><time>2026-03-26T18:17:25Z</time></trkpt><trkpt lat="40.69748087048559" lon="14.825920548385337"><ele>174.0</ele><time>2026-03-26T18:17:26Z</time></trkpt><trkpt lat="40.69737770664983" lon="14.826257170593694"><ele>175.0</ele><time>2026-03-26T18:17:27Z</time></trkpt><trkpt lat="40.6972678971305" lon="14.826589821843882"><ele>176.0</ele><time>2026-03-26T18:17:28Z</time></trkpt><trkpt lat="40.697151654698594" lon="14.826920866828367"><ele>175.0</ele><time>2026-03-26T18:17:29Z</time></trkpt><trkpt lat="40.697030207047455" lon="14.827252003149896"><ele>174.0</ele><time>2026-03-26T18:17:30Z</time></trkpt><trkpt lat="40.69690538200373" lon="14.82757846540182"><ele>175.5</ele><time>2026-03-26T18:17:31Z</time></trkpt><trkpt lat="40.69677676226178" lon="14.82790180045463"><ele>177.0</ele><time>2026-03-26T18:17:32Z</time></trkpt><trkpt lat="40.69664397563848" lon="14.828223677939903"><ele>178.0</ele><time>2026-03-26T18:17:33Z</time></trkpt><trkpt lat="40.696505327207845" lon="14.82854490276067"><ele>179.0</ele><time>2026-03-26T18:17:34Z</time></trkpt><trkpt lat="40.696360681520574" lon="14.828861607441182"><ele>179.0</ele><time>2026-03-26T18:17:35Z</time></trkpt><trkpt lat="40.69620840185822" lon="14.829177233100365"><ele>179.0</ele><time>2026-03-26T18:17:36Z</time></trkpt><trkpt lat="40.696049937696344" lon="14.8294908330323"><ele>177.0</ele><time>2026-03-26T18:17:37Z</time></trkpt><trkpt lat="40.69588559090571" lon="14.829796299465766"><ele>175.0</ele><time>2026-03-26T18:17:38Z</time></trkpt><trkpt lat="40.69571565217353" lon="14.83009796979036"><ele>174.5</ele><time>2026-03-26T18:17:39Z</time></trkpt><trkpt lat="40.69554126622784" lon="14.830398406567808"><ele>174.0</ele><time>2026-03-26T18:17:40Z</time></trkpt><trkpt lat="40.69536223993286" lon="14.830697901468625"><ele>170.0</ele><time>2026-03-26T18:17:41Z</time></trkpt><trkpt lat="40.695178474187074" lon="14.830993704061036"><ele>166.0</ele><time>2026-03-26T18:17:42Z</time></trkpt><trkpt lat="40.69499063301961" lon="14.831285457927553"><ele>166.0</ele><time>2026-03-26T18:17:43Z</time></trkpt><trkpt lat="40.694798659423405" lon="14.831571769948166"><ele>166.0</ele><time>2026-03-26T18:17:44Z</time></trkpt><trkpt lat="40.69460174945575" lon="14.8318544319683"><ele>163.5</ele><time>2026-03-26T18:17:45Z</time></trkpt><trkpt lat="40.69440190568936" lon="14.832132288308735"><ele>161.0</ele><time>2026-03-26T18:17:46Z</time></trkpt><trkpt lat="40.69420054648568" lon="14.832407767546119"><ele>162.5</ele><time>2026-03-26T18:17:47Z</time></trkpt><trkpt lat="40.69399958878469" lon="14.832680880945869"><ele>164.0</ele><time>2026-03-26T18:17:48Z</time></trkpt><trkpt lat="40.69379785778228" lon="14.832954926234866"><ele>164.0</ele><time>2026-03-26T18:17:49Z</time></trkpt><trkpt lat="40.69359492597616" lon="14.833226972906546"><ele>164.0</ele><time>2026-03-26T18:17:50Z</time></trkpt><trkpt lat="40.693390602701726" lon="14.833495581298585"><ele>161.0</ele><time>2026-03-26T18:17:51Z</time></trkpt><trkpt lat="40.693186990765824" lon="14.833765921170635"><ele>158.0</ele><time>2026-03-26T18:17:52Z</time></trkpt><trkpt lat="40.69298454316485" lon="14.834033433968276"><ele>158.0</ele><time>2026-03-26T18:17:53Z</time></trkpt><trkpt lat="40.692782026962846" lon="14.834302061289781"><ele>158.0</ele><time>2026-03-26T18:17:54Z</time></trkpt><trkpt lat="40.69257942042878" lon="14.83457238304299"><ele>157.0</ele><time>2026-03-26T18:17:55Z</time></trkpt><trkpt lat="40.69237731021328" lon="14.834839338138464"><ele>156.0</ele><time>2026-03-26T18:17:56Z</time></trkpt><trkpt lat="40.69217619650651" lon="14.835102217803314"><ele>155.5</ele><time>2026-03-26T18:17:57Z</time></trkpt><trkpt lat="40.69197659051982" lon="14.835366455327865"><ele>155.0</ele><time>2026-03-26T18:17:58Z</time></trkpt><trkpt lat="40.69177907359833" lon="14.835629618040008"><ele>153.5</ele><time>2026-03-26T18:17:59Z</time></trkpt><trkpt lat="40.69158063878671" lon="14.835896861420217"><ele>152.0</ele><time>2026-03-26T18:18:00Z</time></trkpt><trkpt lat="40.69138534678149" lon="14.836162466049"><ele>151.5</ele><time>2026-03-26T18:18:01Z</time></trkpt><trkpt lat="40.69118852952529" lon="14.836428401630378"><ele>151.0</ele><time>2026-03-26T18:18:02Z</time></trkpt><trkpt lat="40.69099224615958" lon="14.836701127476598"><ele>150.5</ele><time>2026-03-26T18:18:03Z</time></trkpt><trkpt lat="40.69079817198563" lon="14.836980516725857"><ele>150.0</ele><time>2026-03-26T18:18:04Z</time></trkpt><trkpt lat="40.69060516247866" lon="14.837266021725156"><ele>150.0</ele><time>2026-03-26T18:18:05Z</time></trkpt><trkpt lat="40.69041430101006" lon="14.837555885767696"><ele>150.0</ele><time>2026-03-26T18:18:06Z</time></trkpt><trkpt lat="40.69022414774773" lon="14.837853179236676"><ele>146.5</ele><time>2026-03-26T18:18:07Z</time></trkpt><trkpt lat="40.69003648646109" lon="14.838156209695622"><ele>143.0</ele><time>2026-03-26T18:18:08Z</time></trkpt><trkpt lat="40.68985397297837" lon="14.83846358963101"><ele>142.5</ele><time>2026-03-26T18:18:09Z</time></trkpt><trkpt lat="40.68967493164691" lon="14.838776756225256"><ele>142.0</ele><time>2026-03-26T18:18:10Z</time></trkpt><trkpt lat="40.68950159024679" lon="14.839092147112202"><ele>140.0</ele><time>2026-03-26T18:18:11Z</time></trkpt><trkpt lat="40.689334243295285" lon="14.839409199694199"><ele>138.0</ele><time>2026-03-26T18:18:12Z</time></trkpt><trkpt lat="40.68917210093077" lon="14.839728647518061"><ele>138.0</ele><time>2026-03-26T18:18:13Z</time></trkpt><trkpt lat="40.689014946053696" lon="14.84005084628074"><ele>138.0</ele><time>2026-03-26T18:18:14Z</time></trkpt><trkpt lat="40.68886263917302" lon="14.84037741464672"><ele>137.5</ele><time>2026-03-26T18:18:15Z</time></trkpt><trkpt lat="40.688714377933316" lon="14.840708698218483"><ele>137.0</ele><time>2026-03-26T18:18:16Z</time></trkpt><trkpt lat="40.688569722696336" lon="14.841043162300357"><ele>134.0</ele><time>2026-03-26T18:18:17Z</time></trkpt><trkpt lat="40.688427518095544" lon="14.841381519990755"><ele>131.0</ele><time>2026-03-26T18:18:18Z</time></trkpt><trkpt lat="40.688288898228144" lon="14.841725066266386"><ele>130.5</ele><time>2026-03-26T18:18:19Z</time></trkpt><trkpt lat="40.68815495975037" lon="14.842074163118697"><ele>130.0</ele><time>2026-03-26T18:18:20Z</time></trkpt><trkpt lat="40.68802646224831" lon="14.842427858891241"><ele>129.5</ele><time>2026-03-26T18:18:21Z</time></trkpt><trkpt lat="40.687901813524434" lon="14.842785728636043"><ele>129.0</ele><time>2026-03-26T18:18:22Z</time></trkpt><trkpt lat="40.68778107745236" lon="14.843147651437706"><ele>128.0</ele><time>2026-03-26T18:18:23Z</time></trkpt><trkpt lat="40.68766222493905" lon="14.843512140930734"><ele>127.0</ele><time>2026-03-26T18:18:24Z</time></trkpt><trkpt lat="40.68754570898574" lon="14.843878340942418"><ele>127.0</ele><time>2026-03-26T18:18:25Z</time></trkpt><trkpt lat="40.68743353499649" lon="14.84424714818012"><ele>127.0</ele><time>2026-03-26T18:18:26Z</time></trkpt><trkpt lat="40.68732655184396" lon="14.84461777273455"><ele>126.5</ele><time>2026-03-26T18:18:27Z</time></trkpt><trkpt lat="40.68722310191413" lon="14.8449878898568"><ele>126.0</ele><time>2026-03-26T18:18:28Z</time></trkpt><trkpt lat="40.687123380403236" lon="14.8453574689137"><ele>125.0</ele><time>2026-03-26T18:18:29Z</time></trkpt><trkpt lat="40.68702703640274" lon="14.845725437753016"><ele>124.0</ele><time>2026-03-26T18:18:30Z</time></trkpt><trkpt lat="40.68693479062081" lon="14.84609043712263"><ele>123.0</ele><time>2026-03-26T18:18:31Z</time></trkpt><trkpt lat="40.68684402391932" lon="14.846452907091468"><ele>122.0</ele><time>2026-03-26T18:18:32Z</time></trkpt><trkpt lat="40.68675370765514" lon="14.846812789477726"><ele>120.5</ele><time>2026-03-26T18:18:33Z</time></trkpt><trkpt lat="40.6866624409281" lon="14.847172460481158"><ele>119.0</ele><time>2026-03-26T18:18:34Z</time></trkpt><trkpt lat="40.68657092775005" lon="14.847531144121644"><ele>115.5</ele><time>2026-03-26T18:18:35Z</time></trkpt><trkpt lat="40.68647909099846" lon="14.847889396661106"><ele>112.0</ele><time>2026-03-26T18:18:36Z</time></trkpt><trkpt lat="40.68638646533938" lon="14.848247510006972"><ele>111.5</ele><time>2026-03-26T18:18:37Z</time></trkpt><trkpt lat="40.686293731047506" lon="14.848607312749666"><ele>111.0</ele><time>2026-03-26T18:18:38Z</time></trkpt><trkpt lat="40.6862015164164" lon="14.848966512005722"><ele>111.5</ele><time>2026-03-26T18:18:39Z</time></trkpt><trkpt lat="40.686108065347014" lon="14.849324741991037"><ele>112.0</ele><time>2026-03-26T18:18:40Z</time></trkpt><trkpt lat="40.68601218173058" lon="14.849679338820204"><ele>111.0</ele><time>2026-03-26T18:18:41Z</time></trkpt><trkpt lat="40.68591250848446" lon="14.850031444175555"><ele>110.0</ele><time>2026-03-26T18:18:42Z</time></trkpt><trkpt lat="40.685808965814125" lon="14.850381023205735"><ele>109.5</ele><time>2026-03-26T18:18:43Z</time></trkpt><trkpt lat="40.685699424746495" lon="14.85072550668673"><ele>109.0</ele><time>2026-03-26T18:18:44Z</time></trkpt><trkpt lat="40.68558292766735" lon="14.851064484953753"><ele>110.5</ele><time>2026-03-26T18:18:45Z</time></trkpt><trkpt lat="40.68546157055505" lon="14.851399848136875"><ele>112.0</ele><time>2026-03-26T18:18:46Z</time></trkpt><trkpt lat="40.6853347909944" lon="14.851731448107701"><ele>112.5</ele><time>2026-03-26T18:18:47Z</time></trkpt><trkpt lat="40.68520016362847" lon="14.852053194362743"><ele>113.0</ele><time>2026-03-26T18:18:48Z</time></trkpt><trkpt lat="40.68505678679379" lon="14.85236327797241"><ele>114.0</ele><time>2026-03-26T18:18:49Z</time></trkpt><trkpt lat="40.68490646310353" lon="14.85266289791675"><ele>115.0</ele><time>2026-03-26T18:18:50Z</time></trkpt><trkpt lat="40.684747746939564" lon="14.852955964593844"><ele>115.0</ele><time>2026-03-26T18:18:51Z</time></trkpt><trkpt lat="40.68458311784971" lon="14.853244398898074"><ele>115.0</ele><time>2026-03-26T18:18:52Z</time></trkpt><trkpt lat="40.68441051267586" lon="14.853526884774736"><ele>114.0</ele><time>2026-03-26T18:18:53Z</time></trkpt><trkpt lat="40.684229166919216" lon="14.853802466039923"><ele>113.0</ele><time>2026-03-26T18:18:54Z</time></trkpt><trkpt lat="40.684038670921744" lon="14.85407242096283"><ele>113.0</ele><time>2026-03-26T18:18:55Z</time></trkpt><trkpt lat="40.68384037576999" lon="14.854337478940142"><ele>113.0</ele><time>2026-03-26T18:18:56Z</time></trkpt><trkpt lat="40.683636742973604" lon="14.85459914515848"><ele>111.5</ele><time>2026-03-26T18:18:57Z</time></trkpt><trkpt lat="40.68342497875097" lon="14.854846967462072"><ele>110.0</ele><time>2026-03-26T18:18:58Z</time></trkpt><trkpt lat="40.683198385035034" lon="14.855069761007494"><ele>110.5</ele><time>2026-03-26T18:18:59Z</time></trkpt><trkpt lat="40.68296748254555" lon="14.855285695402245"><ele>111.0</ele><time>2026-03-26T18:19:00Z</time></trkpt><trkpt lat="40.6827332173076" lon="14.855496010182057"><ele>111.0</ele><time>2026-03-26T18:19:01Z</time></trkpt><trkpt lat="40.68249298357988" lon="14.855695090098726"><ele>111.0</ele><time>2026-03-26T18:19:02Z</time></trkpt><trkpt lat="40.68224675628001" lon="14.855883710613194"><ele>113.0</ele><time>2026-03-26T18:19:03Z</time></trkpt><trkpt lat="40.6819940716389" lon="14.856061603269332"><ele>115.0</ele><time>2026-03-26T18:19:04Z</time></trkpt><trkpt lat="40.68173414247416" lon="14.856225592723993"><ele>115.0</ele><time>2026-03-26T18:19:05Z</time></trkpt><trkpt lat="40.68146939354266" lon="14.856381129924547"><ele>115.0</ele><time>2026-03-26T18:19:06Z</time></trkpt><trkpt lat="40.6812005226472" lon="14.856522081800154"><ele>113.5</ele><time>2026-03-26T18:19:07Z</time></trkpt><trkpt lat="40.68092641658845" lon="14.856648303085132"><ele>112.0</ele><time>2026-03-26T18:19:08Z</time></trkpt><trkpt lat="40.68065029606193" lon="14.856758555799697"><ele>113.0</ele><time>2026-03-26T18:19:09Z</time></trkpt><trkpt lat="40.68037230471159" lon="14.85685486243231"><ele>114.0</ele><time>2026-03-26T18:19:10Z</time></trkpt><trkpt lat="40.680092432629536" lon="14.856934167822972"><ele>114.0</ele><time>2026-03-26T18:19:11Z</time></trkpt><trkpt lat="40.679811723552625" lon="14.856998254179182"><ele>114.0</ele><time>2026-03-26T18:19:12Z</time></trkpt><trkpt lat="40.67953205080852" lon="14.85705189049285"><ele>114.0</ele><time>2026-03-26T18:19:13Z</time></trkpt><trkpt lat="40.67925299439421" lon="14.85710013553306"><ele>114.0</ele><time>2026-03-26T18:19:14Z</time></trkpt><trkpt lat="40.67897220049347" lon="14.85714084893674"><ele>114.0</ele><time>2026-03-26T18:19:15Z</time></trkpt><trkpt lat="40.67869336806963" lon="14.857186218650956"><ele>114.0</ele><time>2026-03-26T18:19:16Z</time></trkpt><trkpt lat="40.678413202852816" lon="14.85722275523608"><ele>115.5</ele><time>2026-03-26T18:19:17Z</time></trkpt><trkpt lat="40.67813381155916" lon="14.857254997991966"><ele>117.0</ele><time>2026-03-26T18:19:18Z</time></trkpt><trkpt lat="40.67785255719239" lon="14.857288152491176"><ele>118.0</ele><time>2026-03-26T18:19:19Z</time></trkpt><trkpt lat="40.6775699642132" lon="14.857320095581986"><ele>119.0</ele><time>2026-03-26T18:19:20Z</time></trkpt><trkpt lat="40.67728674379141" lon="14.85735095987552"><ele>119.0</ele><time>2026-03-26T18:19:21Z</time></trkpt><trkpt lat="40.67700294019716" lon="14.857379098694096"><ele>119.0</ele><time>2026-03-26T18:19:22Z</time></trkpt><trkpt lat="40.67671641834365" lon="14.857398031233208"><ele>125.0</ele><time>2026-03-26T18:19:23Z</time></trkpt><trkpt lat="40.67643143550854" lon="14.857416382652467"><ele>131.0</ele><time>2026-03-26T18:19:24Z</time></trkpt><trkpt lat="40.67614889716354" lon="14.857437436380785"><ele>148.0</ele><time>2026-03-26T18:19:25Z</time></trkpt><trkpt lat="40.67586946064322" lon="14.85745641414995"><ele>165.0</ele><time>2026-03-26T18:19:26Z</time></trkpt><trkpt lat="40.67559418977177" lon="14.857475713454935"><ele>165.0</ele><time>2026-03-26T18:19:27Z</time></trkpt><trkpt lat="40.67532169756811" lon="14.857493745074294"><ele>165.0</ele><time>2026-03-26T18:19:28Z</time></trkpt><trkpt lat="40.67505216548272" lon="14.857512242897487"><ele>170.5</ele><time>2026-03-26T18:19:29Z</time></trkpt><trkpt lat="40.67478572524897" lon="14.857529390016325"><ele>176.0</ele><time>2026-03-26T18:19:30Z</time></trkpt><trkpt lat="40.67452194327859" lon="14.85755329575321"><ele>189.0</ele><time>2026-03-26T18:19:31Z</time></trkpt><trkpt lat="40.67414849633446" lon="14.857622574216592"><ele>202.0</ele><time>2026-03-26T18:19:32Z</time></trkpt><trkpt lat="40.673870677828134" lon="14.857649971819862"><ele>203.0</ele><time>2026-03-26T18:19:33Z</time></trkpt><trkpt lat="40.6735823682658" lon="14.857678503577002"><ele>204.0</ele><time>2026-03-26T18:19:34.051Z</time></trkpt><trkpt lat="40.66952981779115" lon="14.85793012171584"><ele>161.5</ele><time>2026-03-26T18:19:47Z</time></trkpt><trkpt lat="40.669221178034405" lon="14.857959221732692"><ele>119.0</ele><time>2026-03-26T18:19:48Z</time></trkpt><trkpt lat="40.66898164895373" lon="14.858062476876091"><ele>119.0</ele><time>2026-03-26T18:19:49Z</time></trkpt><trkpt lat="40.66870543092074" lon="14.858133651017484"><ele>119.0</ele><time>2026-03-26T18:19:50Z</time></trkpt><trkpt lat="40.66725068746654" lon="14.858271813011442"><ele>170.0</ele><time>2026-03-26T18:19:55.059Z</time></trkpt><trkpt lat="40.665230452346776" lon="14.85849153803662"><ele>170.0</ele><time>2026-03-26T18:19:58.576Z</time></trkpt><trkpt lat="40.664510974406255" lon="14.858574705819887"><ele>131.0</ele><time>2026-03-26T18:19:59.578Z</time></trkpt><trkpt lat="40.66379756186819" lon="14.858704746314038"><ele>74.0</ele><time>2026-03-26T18:20:00.578Z</time></trkpt><trkpt lat="40.662417015251904" lon="14.859116940533088"><ele>74.0</ele><time>2026-03-26T18:20:11Z</time></trkpt><trkpt lat="40.66214031992131" lon="14.859240565261487"><ele>74.0</ele><time>2026-03-26T18:20:12Z</time></trkpt><trkpt lat="40.66193631368801" lon="14.85933525231215"><ele>72.0</ele><time>2026-03-26T18:20:13Z</time></trkpt><trkpt lat="40.66167354841653" lon="14.85948622108183"><ele>70.0</ele><time>2026-03-26T18:20:14Z</time></trkpt><trkpt lat="40.661418641912405" lon="14.859652005513341"><ele>70.0</ele><time>2026-03-26T18:20:15Z</time></trkpt><trkpt lat="40.661170212020394" lon="14.859819757215543"><ele>70.0</ele><time>2026-03-26T18:20:16Z</time></trkpt><trkpt lat="40.660927241955" lon="14.859991237731972"><ele>70.0</ele><time>2026-03-26T18:20:17Z</time></trkpt><trkpt lat="40.66068826722011" lon="14.860170375421777"><ele>70.0</ele><time>2026-03-26T18:20:18Z</time></trkpt><trkpt lat="40.66045100937754" lon="14.86035639697374"><ele>65.0</ele><time>2026-03-26T18:20:19Z</time></trkpt><trkpt lat="40.66021260967071" lon="14.860548987990102"><ele>60.0</ele><time>2026-03-26T18:20:20Z</time></trkpt><trkpt lat="40.65997400305028" lon="14.860743066346739"><ele>60.0</ele><time>2026-03-26T18:20:21Z</time></trkpt><trkpt lat="40.65973533920372" lon="14.86094225700958"><ele>60.0</ele><time>2026-03-26T18:20:22Z</time></trkpt><trkpt lat="40.65949719308846" lon="14.861144964793269"><ele>58.5</ele><time>2026-03-26T18:20:23Z</time></trkpt><trkpt lat="40.65925846008236" lon="14.861348311510666"><ele>57.0</ele><time>2026-03-26T18:20:24Z</time></trkpt><trkpt lat="40.6590169174664" lon="14.861549330260749"><ele>57.0</ele><time>2026-03-26T18:20:25Z</time></trkpt><trkpt lat="40.65877406621094" lon="14.861745264449594"><ele>57.0</ele><time>2026-03-26T18:20:26Z</time></trkpt><trkpt lat="40.65853222641881" lon="14.86194489467926"><ele>54.5</ele><time>2026-03-26T18:20:27Z</time></trkpt><trkpt lat="40.658292907143355" lon="14.862155525846688"><ele>52.0</ele><time>2026-03-26T18:20:28Z</time></trkpt><trkpt lat="40.65806028931642" lon="14.862372274079844"><ele>52.0</ele><time>2026-03-26T18:20:29Z</time></trkpt><trkpt lat="40.65783461678005" lon="14.86260044217923"><ele>52.0</ele><time>2026-03-26T18:20:30Z</time></trkpt><trkpt lat="40.6576141740781" lon="14.86283541290593"><ele>50.5</ele><time>2026-03-26T18:20:31Z</time></trkpt><trkpt lat="40.65740026096032" lon="14.863076436905466"><ele>49.0</ele><time>2026-03-26T18:20:32Z</time></trkpt><trkpt lat="40.65719360192438" lon="14.863325598302579"><ele>48.5</ele><time>2026-03-26T18:20:33Z</time></trkpt><trkpt lat="40.657001246225654" lon="14.86357515723122"><ele>48.0</ele><time>2026-03-26T18:20:34Z</time></trkpt><trkpt lat="40.65682330052687" lon="14.863820907171922"><ele>48.0</ele><time>2026-03-26T18:20:35Z</time></trkpt><trkpt lat="40.656651649943605" lon="14.864068539722014"><ele>48.0</ele><time>2026-03-26T18:20:36Z</time></trkpt><trkpt lat="40.65648539198809" lon="14.864323007479879"><ele>47.5</ele><time>2026-03-26T18:20:37Z</time></trkpt><trkpt lat="40.65632735953623" lon="14.864583481379352"><ele>47.0</ele><time>2026-03-26T18:20:38Z</time></trkpt><trkpt lat="40.65617294989069" lon="14.86484978627646"><ele>46.5</ele><time>2026-03-26T18:20:39Z</time></trkpt><trkpt lat="40.65602056634817" lon="14.86512383520464"><ele>46.0</ele><time>2026-03-26T18:20:40Z</time></trkpt><trkpt lat="40.65587304684386" lon="14.86540618004964"><ele>46.0</ele><time>2026-03-26T18:20:41Z</time></trkpt><trkpt lat="40.655730556641466" lon="14.865699410227641"><ele>46.0</ele><time>2026-03-26T18:20:42Z</time></trkpt><trkpt lat="40.655593350647216" lon="14.866001272167624"><ele>47.0</ele><time>2026-03-26T18:20:43Z</time></trkpt><trkpt lat="40.65545906025483" lon="14.866312933165078"><ele>48.0</ele><time>2026-03-26T18:20:44Z</time></trkpt><trkpt lat="40.65532592094972" lon="14.866628508212614"><ele>45.5</ele><time>2026-03-26T18:20:45Z</time></trkpt><trkpt lat="40.655192566863576" lon="14.866947903375824"><ele>43.0</ele><time>2026-03-26T18:20:46Z</time></trkpt><trkpt lat="40.65505972142461" lon="14.867273608237783"><ele>43.0</ele><time>2026-03-26T18:20:47Z</time></trkpt><trkpt lat="40.654927497837896" lon="14.867599441287231"><ele>43.0</ele><time>2026-03-26T18:20:48Z</time></trkpt><trkpt lat="40.6547955278284" lon="14.867922940131647"><ele>43.0</ele><time>2026-03-26T18:20:49Z</time></trkpt><trkpt lat="40.654663700447855" lon="14.86824767160772"><ele>43.0</ele><time>2026-03-26T18:20:50Z</time></trkpt><trkpt lat="40.65453420419203" lon="14.86856983341142"><ele>41.5</ele><time>2026-03-26T18:20:51Z</time></trkpt><trkpt lat="40.65440453473434" lon="14.86889227929559"><ele>40.0</ele><time>2026-03-26T18:20:52Z</time></trkpt><trkpt lat="40.654275191607006" lon="14.869213772972325"><ele>40.0</ele><time>2026-03-26T18:20:53Z</time></trkpt><trkpt lat="40.65414637929041" lon="14.869532337584094"><ele>40.0</ele><time>2026-03-26T18:20:54Z</time></trkpt><trkpt lat="40.654016861451964" lon="14.869853474498443"><ele>38.5</ele><time>2026-03-26T18:20:55Z</time></trkpt><trkpt lat="40.65388455018255" lon="14.870176117094106"><ele>37.0</ele><time>2026-03-26T18:20:56Z</time></trkpt><trkpt lat="40.653750031458024" lon="14.870497628210105"><ele>36.0</ele><time>2026-03-26T18:20:57Z</time></trkpt><trkpt lat="40.65361322367829" lon="14.87082632440842"><ele>35.0</ele><time>2026-03-26T18:20:58Z</time></trkpt><trkpt lat="40.65347781291347" lon="14.871153278774436"><ele>33.5</ele><time>2026-03-26T18:20:59Z</time></trkpt><trkpt lat="40.65334338064179" lon="14.871478841864768"><ele>32.0</ele><time>2026-03-26T18:21:00Z</time></trkpt><trkpt lat="40.653208822965645" lon="14.871801450266133"><ele>31.5</ele><time>2026-03-26T18:21:01Z</time></trkpt><trkpt lat="40.653073559381525" lon="14.87212374797405"><ele>31.0</ele><time>2026-03-26T18:21:02Z</time></trkpt><trkpt lat="40.65293871589857" lon="14.872445388750696"><ele>31.0</ele><time>2026-03-26T18:21:03Z</time></trkpt><trkpt lat="40.6528033045517" lon="14.872770998462506"><ele>31.0</ele><time>2026-03-26T18:21:04Z</time></trkpt><trkpt lat="40.65266972990185" lon="14.873096871594829"><ele>31.0</ele><time>2026-03-26T18:21:05Z</time></trkpt><trkpt lat="40.65253605575865" lon="14.873422865853884"><ele>31.0</ele><time>2026-03-26T18:21:06Z</time></trkpt><trkpt lat="40.652399347058946" lon="14.873740591731552"><ele>31.0</ele><time>2026-03-26T18:21:07Z</time></trkpt><trkpt lat="40.652261038150506" lon="14.874052481975053"><ele>31.0</ele><time>2026-03-26T18:21:08Z</time></trkpt><trkpt lat="40.65212317445017" lon="14.874359984579053"><ele>31.5</ele><time>2026-03-26T18:21:09Z</time></trkpt><trkpt lat="40.651988189966275" lon="14.874663880831609"><ele>32.0</ele><time>2026-03-26T18:21:10Z</time></trkpt><trkpt lat="40.6518540635554" lon="14.874963004140907"><ele>34.0</ele><time>2026-03-26T18:21:11Z</time></trkpt><trkpt lat="40.651719394258166" lon="14.875262030671049"><ele>36.0</ele><time>2026-03-26T18:21:12Z</time></trkpt><trkpt lat="40.651585137387976" lon="14.87556096611373"><ele>36.0</ele><time>2026-03-26T18:21:13Z</time></trkpt><trkpt lat="40.65144814887854" lon="14.87586471889798"><ele>36.0</ele><time>2026-03-26T18:21:14Z</time></trkpt><trkpt lat="40.65131051179346" lon="14.876175085611829"><ele>36.0</ele><time>2026-03-26T18:21:15Z</time></trkpt><trkpt lat="40.6511721313927" lon="14.87648956326712"><ele>36.0</ele><time>2026-03-26T18:21:16Z</time></trkpt><trkpt lat="40.651032127430426" lon="14.876806526729512"><ele>35.5</ele><time>2026-03-26T18:21:17Z</time></trkpt><trkpt lat="40.65089126725522" lon="14.877126400121359"><ele>35.0</ele><time>2026-03-26T18:21:18Z</time></trkpt><trkpt lat="40.65074970060938" lon="14.877452448605707"><ele>35.5</ele><time>2026-03-26T18:21:19Z</time></trkpt><trkpt lat="40.65060675787189" lon="14.87778038040826"><ele>36.0</ele><time>2026-03-26T18:21:20Z</time></trkpt><trkpt lat="40.650461041459856" lon="14.878108258165277"><ele>37.0</ele><time>2026-03-26T18:21:21Z</time></trkpt><trkpt lat="40.650313576095584" lon="14.878438656620789"><ele>38.0</ele><time>2026-03-26T18:21:22Z</time></trkpt><trkpt lat="40.6501675093292" lon="14.87877155920645"><ele>38.0</ele><time>2026-03-26T18:21:23Z</time></trkpt><trkpt lat="40.650021012150056" lon="14.879104203662234"><ele>38.0</ele><time>2026-03-26T18:21:24Z</time></trkpt><trkpt lat="40.6498739103281" lon="14.879435992708135"><ele>38.0</ele><time>2026-03-26T18:21:25Z</time></trkpt><trkpt lat="40.64972669598384" lon="14.879767804757066"><ele>38.0</ele><time>2026-03-26T18:21:26Z</time></trkpt><trkpt lat="40.64958066978223" lon="14.880100348215416"><ele>39.0</ele><time>2026-03-26T18:21:27Z</time></trkpt><trkpt lat="40.64943406847014" lon="14.880429059905834"><ele>40.0</ele><time>2026-03-26T18:21:28Z</time></trkpt><trkpt lat="40.64928804388109" lon="14.880755094341826"><ele>40.0</ele><time>2026-03-26T18:21:29Z</time></trkpt><trkpt lat="40.6491468030823" lon="14.88107538334691"><ele>40.0</ele><time>2026-03-26T18:21:30Z</time></trkpt><trkpt lat="40.64900944200151" lon="14.881389881302653"><ele>40.0</ele><time>2026-03-26T18:21:31Z</time></trkpt><trkpt lat="40.64888089003515" lon="14.881690836122884"><ele>40.0</ele><time>2026-03-26T18:21:32Z</time></trkpt><trkpt lat="40.64876131638928" lon="14.881973705021192"><ele>40.0</ele><time>2026-03-26T18:21:33Z</time></trkpt><trkpt lat="40.648642626189684" lon="14.882244439257882"><ele>40.0</ele><time>2026-03-26T18:21:34Z</time></trkpt><trkpt lat="40.64852142670619" lon="14.882513184010747"><ele>40.5</ele><time>2026-03-26T18:21:35Z</time></trkpt><trkpt lat="40.64840122971389" lon="14.882780542985621"><ele>41.0</ele><time>2026-03-26T18:21:36Z</time></trkpt><trkpt lat="40.64828124431268" lon="14.883047648970926"><ele>41.0</ele><time>2026-03-26T18:21:37Z</time></trkpt><trkpt lat="40.64816193421869" lon="14.883315769837385"><ele>41.0</ele><time>2026-03-26T18:21:38Z</time></trkpt><trkpt lat="40.64804098764506" lon="14.883585882928413"><ele>41.5</ele><time>2026-03-26T18:21:39Z</time></trkpt><trkpt lat="40.647920614580585" lon="14.88385149695678"><ele>42.0</ele><time>2026-03-26T18:21:40Z</time></trkpt><trkpt lat="40.6478064674433" lon="14.884105670573843"><ele>42.0</ele><time>2026-03-26T18:21:41Z</time></trkpt><trkpt lat="40.647695953235214" lon="14.88436027249762"><ele>42.0</ele><time>2026-03-26T18:21:42Z</time></trkpt><trkpt lat="40.64758267617385" lon="14.884617781586352"><ele>42.0</ele><time>2026-03-26T18:21:43Z</time></trkpt><trkpt lat="40.64746652368027" lon="14.884880600105546"><ele>43.0</ele><time>2026-03-26T18:21:44Z</time></trkpt><trkpt lat="40.64734893392016" lon="14.88514967928524"><ele>44.0</ele><time>2026-03-26T18:21:45Z</time></trkpt><trkpt lat="40.647227118191765" lon="14.885426009554502"><ele>44.0</ele><time>2026-03-26T18:21:46Z</time></trkpt><trkpt lat="40.647101130919935" lon="14.885707289774382"><ele>44.0</ele><time>2026-03-26T18:21:47Z</time></trkpt><trkpt lat="40.646974161231554" lon="14.88599328494077"><ele>43.5</ele><time>2026-03-26T18:21:48Z</time></trkpt><trkpt lat="40.64684699805383" lon="14.886281143213976"><ele>43.0</ele><time>2026-03-26T18:21:49Z</time></trkpt><trkpt lat="40.64671788155091" lon="14.886570770291339"><ele>43.0</ele><time>2026-03-26T18:21:50Z</time></trkpt><trkpt lat="40.64658843868711" lon="14.88686080593478"><ele>43.0</ele><time>2026-03-26T18:21:51Z</time></trkpt><trkpt lat="40.64645858399176" lon="14.887152196077247"><ele>43.0</ele><time>2026-03-26T18:21:52Z</time></trkpt><trkpt lat="40.646328995057495" lon="14.887444680379497"><ele>43.0</ele><time>2026-03-26T18:21:53Z</time></trkpt><trkpt lat="40.64619899081293" lon="14.887737867771488"><ele>43.5</ele><time>2026-03-26T18:21:54Z</time></trkpt><trkpt lat="40.64606793331541" lon="14.888032296514892"><ele>44.0</ele><time>2026-03-26T18:21:55Z</time></trkpt><trkpt lat="40.645936980354804" lon="14.888329607454216"><ele>45.0</ele><time>2026-03-26T18:21:56Z</time></trkpt><trkpt lat="40.64580368340467" lon="14.888630754158097"><ele>46.0</ele><time>2026-03-26T18:21:57Z</time></trkpt><trkpt lat="40.645668538476556" lon="14.888933611483463"><ele>46.0</ele><time>2026-03-26T18:21:57.999Z</time></trkpt><trkpt lat="40.645532026993266" lon="14.889241361202183"><ele>46.0</ele><time>2026-03-26T18:21:58.999Z</time></trkpt><trkpt lat="40.64539437483861" lon="14.889555069674355"><ele>45.0</ele><time>2026-03-26T18:21:59.999Z</time></trkpt><trkpt lat="40.6452550722136" lon="14.889868395626877"><ele>44.0</ele><time>2026-03-26T18:22:00.999Z</time></trkpt><trkpt lat="40.64511474563995" lon="14.890183288242966"><ele>44.0</ele><time>2026-03-26T18:22:01.999Z</time></trkpt><trkpt lat="40.64497260262997" lon="14.890503006313251"><ele>44.0</ele><time>2026-03-26T18:22:02.999Z</time></trkpt><trkpt lat="40.64482991474902" lon="14.8908203268602"><ele>45.0</ele><time>2026-03-26T18:22:03.999Z</time></trkpt><trkpt lat="40.64468704486908" lon="14.89114296895894"><ele>46.0</ele><time>2026-03-26T18:22:04.999Z</time></trkpt><trkpt lat="40.644543281847824" lon="14.891467246453029"><ele>45.0</ele><time>2026-03-26T18:22:05.999Z</time></trkpt><trkpt lat="40.644397529428794" lon="14.891794932352708"><ele>44.0</ele><time>2026-03-26T18:22:07Z</time></trkpt><trkpt lat="40.64425199576829" lon="14.892121132213399"><ele>44.0</ele><time>2026-03-26T18:22:08Z</time></trkpt><trkpt lat="40.64410695417756" lon="14.892442620418949"><ele>44.0</ele><time>2026-03-26T18:22:09Z</time></trkpt><trkpt lat="40.643964410409374" lon="14.892766330568293"><ele>43.5</ele><time>2026-03-26T18:22:10Z</time></trkpt><trkpt lat="40.64382174363633" lon="14.893091591315986"><ele>43.0</ele><time>2026-03-26T18:22:11Z</time></trkpt><trkpt lat="40.6436782614076" lon="14.893414163921689"><ele>42.0</ele><time>2026-03-26T18:22:12Z</time></trkpt><trkpt lat="40.64353108779203" lon="14.893734852339842"><ele>41.0</ele><time>2026-03-26T18:22:13Z</time></trkpt><trkpt lat="40.6433838463467" lon="14.894051285131352"><ele>41.0</ele><time>2026-03-26T18:22:14Z</time></trkpt><trkpt lat="40.643237388223184" lon="14.89436452949288"><ele>41.0</ele><time>2026-03-26T18:22:15Z</time></trkpt><trkpt lat="40.643090155874916" lon="14.89468242958182"><ele>41.0</ele><time>2026-03-26T18:22:16Z</time></trkpt><trkpt lat="40.64294499833883" lon="14.89499729583404"><ele>41.0</ele><time>2026-03-26T18:22:17Z</time></trkpt><trkpt lat="40.64280893742387" lon="14.895310745159621"><ele>40.5</ele><time>2026-03-26T18:22:18Z</time></trkpt><trkpt lat="40.6426824398827" lon="14.895625335567127"><ele>40.0</ele><time>2026-03-26T18:22:19Z</time></trkpt><trkpt lat="40.642534389009036" lon="14.895929644604491"><ele>39.5</ele><time>2026-03-26T18:22:20Z</time></trkpt><trkpt lat="40.64238914841606" lon="14.896239138482878"><ele>39.0</ele><time>2026-03-26T18:22:21Z</time></trkpt><trkpt lat="40.642248124054916" lon="14.896551205033195"><ele>39.0</ele><time>2026-03-26T18:22:22Z</time></trkpt><trkpt lat="40.64210704200132" lon="14.896865269546343"><ele>39.0</ele><time>2026-03-26T18:22:23Z</time></trkpt><trkpt lat="40.64196359696954" lon="14.897183434684402"><ele>38.0</ele><time>2026-03-26T18:22:24Z</time></trkpt><trkpt lat="40.6418209079577" lon="14.897501669973385"><ele>37.0</ele><time>2026-03-26T18:22:25Z</time></trkpt><trkpt lat="40.6416773346649" lon="14.897820309402857"><ele>37.0</ele><time>2026-03-26T18:22:26Z</time></trkpt><trkpt lat="40.641532191999204" lon="14.89814198673416"><ele>37.0</ele><time>2026-03-26T18:22:27Z</time></trkpt><trkpt lat="40.64139030301941" lon="14.898460285926879"><ele>37.5</ele><time>2026-03-26T18:22:28Z</time></trkpt><trkpt lat="40.641249406822496" lon="14.898778770082425"><ele>38.0</ele><time>2026-03-26T18:22:29Z</time></trkpt><trkpt lat="40.641107694061944" lon="14.899096705089372"><ele>38.5</ele><time>2026-03-26T18:22:30Z</time></trkpt><trkpt lat="40.64096432455042" lon="14.899415995253454"><ele>39.0</ele><time>2026-03-26T18:22:31Z</time></trkpt><trkpt lat="40.64082144221708" lon="14.899736754145863"><ele>39.0</ele><time>2026-03-26T18:22:32Z</time></trkpt><trkpt lat="40.64067746819549" lon="14.90005596241968"><ele>39.0</ele><time>2026-03-26T18:22:33Z</time></trkpt><trkpt lat="40.640539697288105" lon="14.900368142798015"><ele>39.0</ele><time>2026-03-26T18:22:34Z</time></trkpt><trkpt lat="40.640399538821725" lon="14.900687417140597"><ele>39.0</ele><time>2026-03-26T18:22:35Z</time></trkpt><trkpt lat="40.64025472577497" lon="14.901007757947687"><ele>39.0</ele><time>2026-03-26T18:22:36Z</time></trkpt><trkpt lat="40.64010822151129" lon="14.901327110181581"><ele>39.0</ele><time>2026-03-26T18:22:37Z</time></trkpt><trkpt lat="40.6399605770232" lon="14.90164747909059"><ele>39.5</ele><time>2026-03-26T18:22:38Z</time></trkpt><trkpt lat="40.639812483753516" lon="14.901967886800424"><ele>40.0</ele><time>2026-03-26T18:22:39Z</time></trkpt><trkpt lat="40.63966339012325" lon="14.902288742856909"><ele>40.0</ele><time>2026-03-26T18:22:40Z</time></trkpt><trkpt lat="40.63951458254667" lon="14.902611569418298"><ele>40.0</ele><time>2026-03-26T18:22:41Z</time></trkpt><trkpt lat="40.639365328697664" lon="14.902934898049155"><ele>40.0</ele><time>2026-03-26T18:22:42Z</time></trkpt><trkpt lat="40.63921633298497" lon="14.903257909880242"><ele>40.0</ele><time>2026-03-26T18:22:43Z</time></trkpt><trkpt lat="40.639067121522174" lon="14.903582992454554"><ele>39.5</ele><time>2026-03-26T18:22:44Z</time></trkpt><trkpt lat="40.63892041559075" lon="14.903906173398779"><ele>39.0</ele><time>2026-03-26T18:22:45Z</time></trkpt><trkpt lat="40.63877404595822" lon="14.904228773469779"><ele>38.0</ele><time>2026-03-26T18:22:46Z</time></trkpt><trkpt lat="40.63862792216447" lon="14.904546151228473"><ele>37.0</ele><time>2026-03-26T18:22:47Z</time></trkpt><trkpt lat="40.638482284607214" lon="14.90486084954073"><ele>38.0</ele><time>2026-03-26T18:22:48Z</time></trkpt><trkpt lat="40.63833778441443" lon="14.905173985508311"><ele>39.0</ele><time>2026-03-26T18:22:49Z</time></trkpt><trkpt lat="40.63819264654971" lon="14.905485501331361"><ele>39.0</ele><time>2026-03-26T18:22:50Z</time></trkpt><trkpt lat="40.63804711065391" lon="14.905796751273622"><ele>39.0</ele><time>2026-03-26T18:22:51Z</time></trkpt><trkpt lat="40.63790146188769" lon="14.906110387921776"><ele>38.5</ele><time>2026-03-26T18:22:52Z</time></trkpt><trkpt lat="40.63775628472027" lon="14.9064289198217"><ele>38.0</ele><time>2026-03-26T18:22:53Z</time></trkpt><trkpt lat="40.637615763849524" lon="14.906749010673511"><ele>39.0</ele><time>2026-03-26T18:22:54Z</time></trkpt><trkpt lat="40.63747572063424" lon="14.907075892271328"><ele>40.0</ele><time>2026-03-26T18:22:55Z</time></trkpt><trkpt lat="40.63733777912195" lon="14.907407685748542"><ele>40.0</ele><time>2026-03-26T18:22:56Z</time></trkpt><trkpt lat="40.63720438221545" lon="14.907742842981001"><ele>40.0</ele><time>2026-03-26T18:22:57Z</time></trkpt><trkpt lat="40.63707509481245" lon="14.908079977625171"><ele>39.0</ele><time>2026-03-26T18:22:58Z</time></trkpt><trkpt lat="40.63694973198502" lon="14.908421102024525"><ele>38.0</ele><time>2026-03-26T18:22:59Z</time></trkpt><trkpt lat="40.63682741212979" lon="14.908763187151852"><ele>38.0</ele><time>2026-03-26T18:23:00Z</time></trkpt><trkpt lat="40.63670525139751" lon="14.909106615492599"><ele>38.0</ele><time>2026-03-26T18:23:01Z</time></trkpt><trkpt lat="40.6365851780551" lon="14.909451411967156"><ele>37.5</ele><time>2026-03-26T18:23:02Z</time></trkpt><trkpt lat="40.63646514774354" lon="14.909797010496918"><ele>37.0</ele><time>2026-03-26T18:23:03Z</time></trkpt><trkpt lat="40.63634768447789" lon="14.910142655067833"><ele>37.0</ele><time>2026-03-26T18:23:04Z</time></trkpt><trkpt lat="40.63623331403017" lon="14.910489627536624"><ele>37.0</ele><time>2026-03-26T18:23:05Z</time></trkpt><trkpt lat="40.63611999619531" lon="14.91083660197214"><ele>38.0</ele><time>2026-03-26T18:23:06Z</time></trkpt><trkpt lat="40.63600699732924" lon="14.911185501948863"><ele>39.0</ele><time>2026-03-26T18:23:07Z</time></trkpt><trkpt lat="40.635893651428276" lon="14.91153378899887"><ele>39.0</ele><time>2026-03-26T18:23:08Z</time></trkpt><trkpt lat="40.63578101591358" lon="14.911880637949158"><ele>39.0</ele><time>2026-03-26T18:23:09Z</time></trkpt><trkpt lat="40.63566840534452" lon="14.912229718990801"><ele>38.5</ele><time>2026-03-26T18:23:10Z</time></trkpt><trkpt lat="40.635555274080716" lon="14.91257605093241"><ele>38.0</ele><time>2026-03-26T18:23:11Z</time></trkpt><trkpt lat="40.63543959398366" lon="14.912922277818213"><ele>38.0</ele><time>2026-03-26T18:23:12Z</time></trkpt><trkpt lat="40.63532297720648" lon="14.91326823472693"><ele>38.0</ele><time>2026-03-26T18:23:13Z</time></trkpt><trkpt lat="40.63520576763769" lon="14.91361656914973"><ele>39.0</ele><time>2026-03-26T18:23:14Z</time></trkpt><trkpt lat="40.63508877117124" lon="14.913963491015743"><ele>40.0</ele><time>2026-03-26T18:23:15Z</time></trkpt><trkpt lat="40.634973586838875" lon="14.914311726124339"><ele>41.0</ele><time>2026-03-26T18:23:16Z</time></trkpt><trkpt lat="40.63485853744443" lon="14.914657230200513"><ele>42.0</ele><time>2026-03-26T18:23:17Z</time></trkpt><trkpt lat="40.634742789137675" lon="14.915005129536945"><ele>42.0</ele><time>2026-03-26T18:23:18Z</time></trkpt><trkpt lat="40.63462764322474" lon="14.915347595627697"><ele>42.0</ele><time>2026-03-26T18:23:19Z</time></trkpt><trkpt lat="40.63451340474116" lon="14.915687880940878"><ele>42.0</ele><time>2026-03-26T18:23:20Z</time></trkpt><trkpt lat="40.63439721330364" lon="14.916029557996357"><ele>42.0</ele><time>2026-03-26T18:23:21Z</time></trkpt><trkpt lat="40.634281144435846" lon="14.916370819754635"><ele>42.0</ele><time>2026-03-26T18:23:22Z</time></trkpt><trkpt lat="40.634167346761515" lon="14.916709520659571"><ele>42.0</ele><time>2026-03-26T18:23:23Z</time></trkpt><trkpt lat="40.63405449408125" lon="14.917047572337562"><ele>43.0</ele><time>2026-03-26T18:23:24Z</time></trkpt><trkpt lat="40.63394342186428" lon="14.917386371947387"><ele>44.0</ele><time>2026-03-26T18:23:25Z</time></trkpt><trkpt lat="40.63383458841076" lon="14.917726060951237"><ele>44.5</ele><time>2026-03-26T18:23:26Z</time></trkpt><trkpt lat="40.6337248857472" lon="14.91806814055142"><ele>45.0</ele><time>2026-03-26T18:23:27Z</time></trkpt><trkpt lat="40.63361649930609" lon="14.918413604219891"><ele>46.5</ele><time>2026-03-26T18:23:28Z</time></trkpt><trkpt lat="40.63350826288061" lon="14.918759548681045"><ele>48.0</ele><time>2026-03-26T18:23:29Z</time></trkpt><trkpt lat="40.63339986616795" lon="14.919103277186512"><ele>47.5</ele><time>2026-03-26T18:23:30Z</time></trkpt><trkpt lat="40.63328692412044" lon="14.919449381414173"><ele>47.0</ele><time>2026-03-26T18:23:31Z</time></trkpt><trkpt lat="40.63317672045733" lon="14.919790128513801"><ele>48.0</ele><time>2026-03-26T18:23:32Z</time></trkpt><trkpt lat="40.63306228915543" lon="14.920127095765595"><ele>49.0</ele><time>2026-03-26T18:23:33Z</time></trkpt><trkpt lat="40.63294588908812" lon="14.92046768391246"><ele>49.0</ele><time>2026-03-26T18:23:34Z</time></trkpt><trkpt lat="40.63283085520602" lon="14.920809056058117"><ele>49.0</ele><time>2026-03-26T18:23:35Z</time></trkpt><trkpt lat="40.63271495214448" lon="14.921152609088404"><ele>48.5</ele><time>2026-03-26T18:23:36Z</time></trkpt><trkpt lat="40.63259888946647" lon="14.92149746991142"><ele>48.0</ele><time>2026-03-26T18:23:37Z</time></trkpt><trkpt lat="40.63248418593283" lon="14.921845784390882"><ele>49.0</ele><time>2026-03-26T18:23:38Z</time></trkpt><trkpt lat="40.63237016349364" lon="14.922194445216368"><ele>50.0</ele><time>2026-03-26T18:23:39Z</time></trkpt><trkpt lat="40.63225550229239" lon="14.922545645051263"><ele>51.0</ele><time>2026-03-26T18:23:40Z</time></trkpt><trkpt lat="40.63214109243348" lon="14.92289793216653"><ele>52.0</ele><time>2026-03-26T18:23:41Z</time></trkpt><trkpt lat="40.632026338383326" lon="14.9232494498098"><ele>51.0</ele><time>2026-03-26T18:23:42Z</time></trkpt><trkpt lat="40.631910616091794" lon="14.923600013341352"><ele>50.0</ele><time>2026-03-26T18:23:43Z</time></trkpt><trkpt lat="40.63179417015738" lon="14.923950683815976"><ele>50.5</ele><time>2026-03-26T18:23:44Z</time></trkpt><trkpt lat="40.63167709800842" lon="14.924299620321193"><ele>51.0</ele><time>2026-03-26T18:23:45Z</time></trkpt><trkpt lat="40.63156042152386" lon="14.924646751903076"><ele>51.0</ele><time>2026-03-26T18:23:46Z</time></trkpt><trkpt lat="40.631444895838506" lon="14.924993936663924"><ele>51.0</ele><time>2026-03-26T18:23:47Z</time></trkpt><trkpt lat="40.63132962816473" lon="14.925341582566954"><ele>52.0</ele><time>2026-03-26T18:23:48Z</time></trkpt><trkpt lat="40.63121290131896" lon="14.925689731055487"><ele>53.0</ele><time>2026-03-26T18:23:49Z</time></trkpt><trkpt lat="40.63109676093683" lon="14.926037129157836"><ele>53.0</ele><time>2026-03-26T18:23:50Z</time></trkpt><trkpt lat="40.630981971443184" lon="14.926383389519325"><ele>53.0</ele><time>2026-03-26T18:23:51Z</time></trkpt><trkpt lat="40.630868856731496" lon="14.926728428015437"><ele>54.0</ele><time>2026-03-26T18:23:52Z</time></trkpt><trkpt lat="40.63075357397961" lon="14.927074125229383"><ele>55.0</ele><time>2026-03-26T18:23:53Z</time></trkpt><trkpt lat="40.63063816006856" lon="14.927420236020561"><ele>55.5</ele><time>2026-03-26T18:23:54Z</time></trkpt><trkpt lat="40.63052270989887" lon="14.927766309786877"><ele>56.0</ele><time>2026-03-26T18:23:55Z</time></trkpt><trkpt lat="40.63040748443441" lon="14.928110248703032"><ele>56.5</ele><time>2026-03-26T18:23:56Z</time></trkpt><trkpt lat="40.63029185309132" lon="14.928455956131922"><ele>57.0</ele><time>2026-03-26T18:23:57Z</time></trkpt><trkpt lat="40.63017703610434" lon="14.928801386042364"><ele>57.0</ele><time>2026-03-26T18:23:58Z</time></trkpt><trkpt lat="40.63006468199101" lon="14.929141740429431"><ele>57.0</ele><time>2026-03-26T18:23:59Z</time></trkpt><trkpt lat="40.629950515610375" lon="14.929485731055534"><ele>58.0</ele><time>2026-03-26T18:24:00Z</time></trkpt><trkpt lat="40.62983413808002" lon="14.929830195014668"><ele>59.0</ele><time>2026-03-26T18:24:01Z</time></trkpt><trkpt lat="40.629717755127224" lon="14.930176234927009"><ele>59.0</ele><time>2026-03-26T18:24:02Z</time></trkpt><trkpt lat="40.62960485842068" lon="14.930517522352593"><ele>59.0</ele><time>2026-03-26T18:24:03Z</time></trkpt><trkpt lat="40.6294927623016" lon="14.930864162638873"><ele>59.0</ele><time>2026-03-26T18:24:03.999Z</time></trkpt><trkpt lat="40.62938196479013" lon="14.931212372015585"><ele>59.0</ele><time>2026-03-26T18:24:04.999Z</time></trkpt><trkpt lat="40.629275366108395" lon="14.931565942275512"><ele>59.0</ele><time>2026-03-26T18:24:05.999Z</time></trkpt><trkpt lat="40.62917094789891" lon="14.931924465216785"><ele>59.0</ele><time>2026-03-26T18:24:06.999Z</time></trkpt><trkpt lat="40.62907185102386" lon="14.932280679050512"><ele>58.5</ele><time>2026-03-26T18:24:07.999Z</time></trkpt><trkpt lat="40.62897620559577" lon="14.932639183507735"><ele>58.0</ele><time>2026-03-26T18:24:08.999Z</time></trkpt><trkpt lat="40.62888795527043" lon="14.932999853179103"><ele>58.0</ele><time>2026-03-26T18:24:09.999Z</time></trkpt><trkpt lat="40.62880838266033" lon="14.933359612853105"><ele>58.0</ele><time>2026-03-26T18:24:10.999Z</time></trkpt><trkpt lat="40.628735878021075" lon="14.93372370628774"><ele>58.0</ele><time>2026-03-26T18:24:11.999Z</time></trkpt><trkpt lat="40.62866874054571" lon="14.934087185515727"><ele>58.0</ele><time>2026-03-26T18:24:12.999Z</time></trkpt><trkpt lat="40.62860634910762" lon="14.934452774195563"><ele>58.0</ele><time>2026-03-26T18:24:13.999Z</time></trkpt><trkpt lat="40.62854978252917" lon="14.934819191107003"><ele>58.0</ele><time>2026-03-26T18:24:14.999Z</time></trkpt><trkpt lat="40.62849893567557" lon="14.935186968529576"><ele>58.0</ele><time>2026-03-26T18:24:15.999Z</time></trkpt><trkpt lat="40.62845385067711" lon="14.935555992594177"><ele>58.0</ele><time>2026-03-26T18:24:16.999Z</time></trkpt><trkpt lat="40.628417950283094" lon="14.935929198030827"><ele>59.0</ele><time>2026-03-26T18:24:17.999Z</time></trkpt><trkpt lat="40.628382882506024" lon="14.936301598639849"><ele>60.0</ele><time>2026-03-26T18:24:18.999Z</time></trkpt><trkpt lat="40.62835237357397" lon="14.936676668872035"><ele>60.0</ele><time>2026-03-26T18:24:19.999Z</time></trkpt><trkpt lat="40.62832586740817" lon="14.937054438035547"><ele>60.0</ele><time>2026-03-26T18:24:20.999Z</time></trkpt><trkpt lat="40.62830432424147" lon="14.937432218794852"><ele>61.5</ele><time>2026-03-26T18:24:21.999Z</time></trkpt><trkpt lat="40.628285873235036" lon="14.937810719897819"><ele>63.0</ele><time>2026-03-26T18:24:22.999Z</time></trkpt><trkpt lat="40.62826932833008" lon="14.938189594033522"><ele>63.5</ele><time>2026-03-26T18:24:23.999Z</time></trkpt><trkpt lat="40.62825144918918" lon="14.938569569592609"><ele>64.0</ele><time>2026-03-26T18:24:24.999Z</time></trkpt><trkpt lat="40.62823439793413" lon="14.93894967483185"><ele>64.0</ele><time>2026-03-26T18:24:25.999Z</time></trkpt><trkpt lat="40.628218081708084" lon="14.939328679063768"><ele>64.0</ele><time>2026-03-26T18:24:26.999Z</time></trkpt><trkpt lat="40.628200800557075" lon="14.939706085128103"><ele>64.0</ele><time>2026-03-26T18:24:27.999Z</time></trkpt><trkpt lat="40.62818310555043" lon="14.940078931249776"><ele>64.0</ele><time>2026-03-26T18:24:28.999Z</time></trkpt><trkpt lat="40.62815952119306" lon="14.940448788627199"><ele>64.0</ele><time>2026-03-26T18:24:29.999Z</time></trkpt><trkpt lat="40.628131148090944" lon="14.940819534908409"><ele>64.0</ele><time>2026-03-26T18:24:30.999Z</time></trkpt><trkpt lat="40.62809939173857" lon="14.941192475170409"><ele>64.5</ele><time>2026-03-26T18:24:31.999Z</time></trkpt><trkpt lat="40.62806356644086" lon="14.941563759093972"><ele>65.0</ele><time>2026-03-26T18:24:32.999Z</time></trkpt><trkpt lat="40.62802257519725" lon="14.941935043808682"><ele>65.0</ele><time>2026-03-26T18:24:33.999Z</time></trkpt><trkpt lat="40.62797332869031" lon="14.942305128330426"><ele>65.0</ele><time>2026-03-26T18:24:34.999Z</time></trkpt><trkpt lat="40.6279163627342" lon="14.942669971554293"><ele>65.0</ele><time>2026-03-26T18:24:35.999Z</time></trkpt><trkpt lat="40.6278539451665" lon="14.943034830553795"><ele>65.0</ele><time>2026-03-26T18:24:36.999Z</time></trkpt><trkpt lat="40.627787228647875" lon="14.943397764334108"><ele>64.0</ele><time>2026-03-26T18:24:37.999Z</time></trkpt><trkpt lat="40.62771465078001" lon="14.943756053729263"><ele>63.0</ele><time>2026-03-26T18:24:38.999Z</time></trkpt><trkpt lat="40.62763663336718" lon="14.944113037268856"><ele>63.0</ele><time>2026-03-26T18:24:39.999Z</time></trkpt><trkpt lat="40.6275545499684" lon="14.944464525400527"><ele>63.0</ele><time>2026-03-26T18:24:40.999Z</time></trkpt><trkpt lat="40.627463113335885" lon="14.944813144183678"><ele>62.5</ele><time>2026-03-26T18:24:41.999Z</time></trkpt><trkpt lat="40.6273635545506" lon="14.945164166342405"><ele>62.0</ele><time>2026-03-26T18:24:42.999Z</time></trkpt><trkpt lat="40.62725848184597" lon="14.945513230153303"><ele>62.0</ele><time>2026-03-26T18:24:44Z</time></trkpt><trkpt lat="40.627149620790924" lon="14.945855051101242"><ele>62.0</ele><time>2026-03-26T18:24:45Z</time></trkpt><trkpt lat="40.62703704894224" lon="14.946191951262378"><ele>62.0</ele><time>2026-03-26T18:24:46Z</time></trkpt><trkpt lat="40.626919799752905" lon="14.946527978729907"><ele>62.0</ele><time>2026-03-26T18:24:47Z</time></trkpt><trkpt lat="40.626798951613324" lon="14.946863865020138"><ele>61.5</ele><time>2026-03-26T18:24:48Z</time></trkpt><trkpt lat="40.62667682171507" lon="14.947196374446378"><ele>61.0</ele><time>2026-03-26T18:24:49Z</time></trkpt><trkpt lat="40.62655360225499" lon="14.947521681693694"><ele>61.0</ele><time>2026-03-26T18:24:50Z</time></trkpt><trkpt lat="40.62642775918289" lon="14.947849638263602"><ele>61.0</ele><time>2026-03-26T18:24:51Z</time></trkpt><trkpt lat="40.62629806865535" lon="14.948180240206675"><ele>61.0</ele><time>2026-03-26T18:24:52Z</time></trkpt><trkpt lat="40.62616708158316" lon="14.948506016028393"><ele>61.0</ele><time>2026-03-26T18:24:53Z</time></trkpt><trkpt lat="40.626036843262504" lon="14.948830156848386"><ele>60.5</ele><time>2026-03-26T18:24:54Z</time></trkpt><trkpt lat="40.62590861700146" lon="14.949153687752798"><ele>60.0</ele><time>2026-03-26T18:24:55Z</time></trkpt><trkpt lat="40.625783034288375" lon="14.94947627896426"><ele>60.0</ele><time>2026-03-26T18:24:56Z</time></trkpt><trkpt lat="40.625656947880145" lon="14.949800763005154"><ele>60.0</ele><time>2026-03-26T18:24:57Z</time></trkpt><trkpt lat="40.62553059475744" lon="14.950123764383363"><ele>60.0</ele><time>2026-03-26T18:24:58Z</time></trkpt><trkpt lat="40.62540336577922" lon="14.95044666848351"><ele>60.0</ele><time>2026-03-26T18:24:59Z</time></trkpt><trkpt lat="40.625274993376344" lon="14.950771547426598"><ele>61.0</ele><time>2026-03-26T18:25:00Z</time></trkpt><trkpt lat="40.6251464383972" lon="14.951097180724998"><ele>62.0</ele><time>2026-03-26T18:25:01Z</time></trkpt><trkpt lat="40.62501823739351" lon="14.951427436788757"><ele>64.0</ele><time>2026-03-26T18:25:02Z</time></trkpt><trkpt lat="40.62488880221447" lon="14.951758609593645"><ele>66.0</ele><time>2026-03-26T18:25:03Z</time></trkpt><trkpt lat="40.62475773640354" lon="14.95208987853226"><ele>66.0</ele><time>2026-03-26T18:25:04Z</time></trkpt><trkpt lat="40.62462120815372" lon="14.952429510782993"><ele>66.0</ele><time>2026-03-26T18:25:05Z</time></trkpt><trkpt lat="40.62448279141859" lon="14.95277724473228"><ele>66.0</ele><time>2026-03-26T18:25:06Z</time></trkpt><trkpt lat="40.62434673998996" lon="14.953125534199579"><ele>66.0</ele><time>2026-03-26T18:25:07Z</time></trkpt><trkpt lat="40.624215280140234" lon="14.953470678200627"><ele>66.0</ele><time>2026-03-26T18:25:08Z</time></trkpt><trkpt lat="40.62408544427826" lon="14.953810868225258"><ele>66.0</ele><time>2026-03-26T18:25:09Z</time></trkpt><trkpt lat="40.62395184268153" lon="14.954156002866496"><ele>67.5</ele><time>2026-03-26T18:25:10Z</time></trkpt><trkpt lat="40.62381825382977" lon="14.954504935382047"><ele>69.0</ele><time>2026-03-26T18:25:11Z</time></trkpt><trkpt lat="40.62368485122007" lon="14.954862239671264"><ele>67.0</ele><time>2026-03-26T18:25:12Z</time></trkpt><trkpt lat="40.62355334171209" lon="14.955224816744193"><ele>65.0</ele><time>2026-03-26T18:25:13Z</time></trkpt><trkpt lat="40.62342202620354" lon="14.955594808949453"><ele>65.5</ele><time>2026-03-26T18:25:14Z</time></trkpt><trkpt lat="40.623294148947004" lon="14.95596826782562"><ele>66.0</ele><time>2026-03-26T18:25:15Z</time></trkpt><trkpt lat="40.62317029662678" lon="14.956345862002134"><ele>65.5</ele><time>2026-03-26T18:25:16Z</time></trkpt><trkpt lat="40.62305019972716" lon="14.95672800070815"><ele>65.0</ele><time>2026-03-26T18:25:17Z</time></trkpt><trkpt lat="40.62293241560432" lon="14.957113111324494"><ele>65.0</ele><time>2026-03-26T18:25:18Z</time></trkpt><trkpt lat="40.62281711439117" lon="14.95749884643644"><ele>65.0</ele><time>2026-03-26T18:25:19Z</time></trkpt><trkpt lat="40.62270531013627" lon="14.957884550970954"><ele>63.5</ele><time>2026-03-26T18:25:20Z</time></trkpt><trkpt lat="40.62259410797003" lon="14.958273250397369"><ele>62.0</ele><time>2026-03-26T18:25:21Z</time></trkpt><trkpt lat="40.62248563143254" lon="14.958663455344665"><ele>61.5</ele><time>2026-03-26T18:25:22Z</time></trkpt><trkpt lat="40.62237918692999" lon="14.959054088071875"><ele>61.0</ele><time>2026-03-26T18:25:23Z</time></trkpt><trkpt lat="40.62227471095341" lon="14.959443595959785"><ele>61.0</ele><time>2026-03-26T18:25:24Z</time></trkpt><trkpt lat="40.622171401060406" lon="14.959831932844613"><ele>61.0</ele><time>2026-03-26T18:25:25Z</time></trkpt><trkpt lat="40.62206900904293" lon="14.960214263373551"><ele>59.5</ele><time>2026-03-26T18:25:26Z</time></trkpt><trkpt lat="40.62196918467341" lon="14.960592240571417"><ele>58.0</ele><time>2026-03-26T18:25:27Z</time></trkpt><trkpt lat="40.62186974576898" lon="14.960964547434298"><ele>58.0</ele><time>2026-03-26T18:25:28Z</time></trkpt><trkpt lat="40.6217693891831" lon="14.961336136112166"><ele>58.0</ele><time>2026-03-26T18:25:29Z</time></trkpt><trkpt lat="40.621669220802126" lon="14.961705652861111"><ele>57.5</ele><time>2026-03-26T18:25:30Z</time></trkpt><trkpt lat="40.621570467119405" lon="14.962073111176167"><ele>57.0</ele><time>2026-03-26T18:25:31Z</time></trkpt><trkpt lat="40.62147447745129" lon="14.962439134199032"><ele>58.0</ele><time>2026-03-26T18:25:32Z</time></trkpt><trkpt lat="40.62138158037228" lon="14.962812148098175"><ele>59.0</ele><time>2026-03-26T18:25:33Z</time></trkpt><trkpt lat="40.621290666372076" lon="14.963187341898692"><ele>58.5</ele><time>2026-03-26T18:25:34Z</time></trkpt><trkpt lat="40.621201952435875" lon="14.963562965464789"><ele>58.0</ele><time>2026-03-26T18:25:35Z</time></trkpt><trkpt lat="40.62111374376447" lon="14.963944269582344"><ele>58.5</ele><time>2026-03-26T18:25:36Z</time></trkpt><trkpt lat="40.62102967525822" lon="14.964330308478136"><ele>59.0</ele><time>2026-03-26T18:25:37Z</time></trkpt><trkpt lat="40.62095063098743" lon="14.96471674706919"><ele>60.0</ele><time>2026-03-26T18:25:38Z</time></trkpt><trkpt lat="40.6208809322473" lon="14.965103171161331"><ele>61.0</ele><time>2026-03-26T18:25:39Z</time></trkpt><trkpt lat="40.620820317091365" lon="14.965487524473842"><ele>62.0</ele><time>2026-03-26T18:25:40Z</time></trkpt><trkpt lat="40.6207705556801" lon="14.965868855504391"><ele>63.0</ele><time>2026-03-26T18:25:41Z</time></trkpt><trkpt lat="40.62072720560227" lon="14.966249773246407"><ele>63.0</ele><time>2026-03-26T18:25:42Z</time></trkpt><trkpt lat="40.62069141004758" lon="14.966629721192442"><ele>63.0</ele><time>2026-03-26T18:25:43Z</time></trkpt><trkpt lat="40.62066121064509" lon="14.96700790769085"><ele>63.5</ele><time>2026-03-26T18:25:44Z</time></trkpt><trkpt lat="40.62063623119055" lon="14.967389102237302"><ele>64.0</ele><time>2026-03-26T18:25:45Z</time></trkpt><trkpt lat="40.62061874781279" lon="14.967767329903394"><ele>64.0</ele><time>2026-03-26T18:25:46Z</time></trkpt><trkpt lat="40.62060593710585" lon="14.96815192819108"><ele>64.0</ele><time>2026-03-26T18:25:47Z</time></trkpt><trkpt lat="40.62059400787504" lon="14.968537773687872"><ele>64.0</ele><time>2026-03-26T18:25:48Z</time></trkpt><trkpt lat="40.62058343501136" lon="14.96892412727095"><ele>64.0</ele><time>2026-03-26T18:25:49Z</time></trkpt><trkpt lat="40.6205734699642" lon="14.969310802022711"><ele>65.5</ele><time>2026-03-26T18:25:50Z</time></trkpt><trkpt lat="40.62056254700972" lon="14.969688635425728"><ele>67.0</ele><time>2026-03-26T18:25:51Z</time></trkpt><trkpt lat="40.620553639313535" lon="14.970048926616974"><ele>67.5</ele><time>2026-03-26T18:25:52Z</time></trkpt><trkpt lat="40.6205431845614" lon="14.97040571291752"><ele>68.0</ele><time>2026-03-26T18:25:53Z</time></trkpt><trkpt lat="40.620530548200634" lon="14.970765300479403"><ele>66.0</ele><time>2026-03-26T18:25:54Z</time></trkpt><trkpt lat="40.620517181403976" lon="14.971127567460401"><ele>64.0</ele><time>2026-03-26T18:25:55Z</time></trkpt><trkpt lat="40.62050160729148" lon="14.971493762786995"><ele>64.5</ele><time>2026-03-26T18:25:56Z</time></trkpt><trkpt lat="40.620483855735" lon="14.971855744219187"><ele>65.0</ele><time>2026-03-26T18:25:57Z</time></trkpt><trkpt lat="40.62046517797193" lon="14.972213818077151"><ele>67.0</ele><time>2026-03-26T18:25:58Z</time></trkpt><trkpt lat="40.620439928342186" lon="14.972573626327161"><ele>69.0</ele><time>2026-03-26T18:25:59Z</time></trkpt><trkpt lat="40.62040396772994" lon="14.972935639367023"><ele>69.0</ele><time>2026-03-26T18:26:00Z</time></trkpt><trkpt lat="40.62036107035897" lon="14.973299048107068"><ele>69.0</ele><time>2026-03-26T18:26:01Z</time></trkpt><trkpt lat="40.62031095852004" lon="14.973667547864993"><ele>69.0</ele><time>2026-03-26T18:26:02Z</time></trkpt><trkpt lat="40.62025449642362" lon="14.974033847965234"><ele>69.0</ele><time>2026-03-26T18:26:03Z</time></trkpt><trkpt lat="40.62019223390535" lon="14.974401312686467"><ele>68.5</ele><time>2026-03-26T18:26:04Z</time></trkpt><trkpt lat="40.62012219681631" lon="14.974768596163589"><ele>68.0</ele><time>2026-03-26T18:26:05Z</time></trkpt><trkpt lat="40.62004288503063" lon="14.975135137009358"><ele>69.5</ele><time>2026-03-26T18:26:06Z</time></trkpt><trkpt lat="40.61995532356947" lon="14.975500053096185"><ele>71.0</ele><time>2026-03-26T18:26:07Z</time></trkpt><trkpt lat="40.619858147362784" lon="14.975860752685668"><ele>71.0</ele><time>2026-03-26T18:26:08Z</time></trkpt><trkpt lat="40.61975373831574" lon="14.976217966304484"><ele>71.0</ele><time>2026-03-26T18:26:09Z</time></trkpt><trkpt lat="40.61963914051319" lon="14.976572990950713"><ele>71.0</ele><time>2026-03-26T18:26:10Z</time></trkpt><trkpt lat="40.61951739595739" lon="14.976921435233608"><ele>71.0</ele><time>2026-03-26T18:26:11Z</time></trkpt><trkpt lat="40.61938917231674" lon="14.977259348977327"><ele>71.0</ele><time>2026-03-26T18:26:12Z</time></trkpt><trkpt lat="40.61925812471915" lon="14.977581409350927"><ele>71.0</ele><time>2026-03-26T18:26:13Z</time></trkpt><trkpt lat="40.619123270053336" lon="14.977889411332924"><ele>71.0</ele><time>2026-03-26T18:26:14Z</time></trkpt><trkpt lat="40.618989409420365" lon="14.978190212514047"><ele>71.0</ele><time>2026-03-26T18:26:15Z</time></trkpt><trkpt lat="40.61885577447156" lon="14.978486343682148"><ele>71.0</ele><time>2026-03-26T18:26:16Z</time></trkpt><trkpt lat="40.61872450188701" lon="14.978781830447243"><ele>71.0</ele><time>2026-03-26T18:26:17Z</time></trkpt><trkpt lat="40.61859808492531" lon="14.979072944508006"><ele>71.0</ele><time>2026-03-26T18:26:18Z</time></trkpt><trkpt lat="40.61847613807798" lon="14.979358766590968"><ele>71.0</ele><time>2026-03-26T18:26:19Z</time></trkpt><trkpt lat="40.61835738923824" lon="14.97964084893666"><ele>71.0</ele><time>2026-03-26T18:26:20Z</time></trkpt><trkpt lat="40.61824199943727" lon="14.979924669709096"><ele>71.0</ele><time>2026-03-26T18:26:21Z</time></trkpt><trkpt lat="40.61813138827626" lon="14.980219151820325"><ele>70.5</ele><time>2026-03-26T18:26:22Z</time></trkpt><trkpt lat="40.61802787918307" lon="14.9805201986907"><ele>70.0</ele><time>2026-03-26T18:26:23Z</time></trkpt><trkpt lat="40.61792972510718" lon="14.980826371422214"><ele>70.0</ele><time>2026-03-26T18:26:24Z</time></trkpt><trkpt lat="40.61783880672017" lon="14.981138827866294"><ele>70.0</ele><time>2026-03-26T18:26:25Z</time></trkpt><trkpt lat="40.61775644782803" lon="14.981453063264377"><ele>71.0</ele><time>2026-03-26T18:26:26Z</time></trkpt><trkpt lat="40.61767915463351" lon="14.981775859029124"><ele>72.0</ele><time>2026-03-26T18:26:27Z</time></trkpt><trkpt lat="40.61761287781004" lon="14.982104493808052"><ele>72.0</ele><time>2026-03-26T18:26:28Z</time></trkpt><trkpt lat="40.61755579264546" lon="14.98243430968945"><ele>72.0</ele><time>2026-03-26T18:26:29Z</time></trkpt><trkpt lat="40.6175078509989" lon="14.982770021154025"><ele>72.5</ele><time>2026-03-26T18:26:30Z</time></trkpt><trkpt lat="40.61746463391093" lon="14.983104830038991"><ele>73.0</ele><time>2026-03-26T18:26:31Z</time></trkpt><trkpt lat="40.617422248476885" lon="14.983439808097708"><ele>71.5</ele><time>2026-03-26T18:26:32Z</time></trkpt><trkpt lat="40.617378921900254" lon="14.983774972528494"><ele>70.0</ele><time>2026-03-26T18:26:33Z</time></trkpt><trkpt lat="40.617335146990264" lon="14.984108184860705"><ele>69.5</ele><time>2026-03-26T18:26:34Z</time></trkpt><trkpt lat="40.617290977860314" lon="14.984443035041032"><ele>69.0</ele><time>2026-03-26T18:26:35Z</time></trkpt><trkpt lat="40.61724371017197" lon="14.984778672530183"><ele>67.5</ele><time>2026-03-26T18:26:36Z</time></trkpt><trkpt lat="40.617187097153476" lon="14.985112549087987"><ele>66.0</ele><time>2026-03-26T18:26:37Z</time></trkpt><trkpt lat="40.617121772353876" lon="14.985443636247524"><ele>66.0</ele><time>2026-03-26T18:26:38Z</time></trkpt><trkpt lat="40.61705051938618" lon="14.98577141838096"><ele>66.0</ele><time>2026-03-26T18:26:39Z</time></trkpt><trkpt lat="40.61697103029146" lon="14.986101448167195"><ele>69.0</ele><time>2026-03-26T18:26:40Z</time></trkpt><trkpt lat="40.61688299715396" lon="14.986428400011974"><ele>72.0</ele><time>2026-03-26T18:26:41Z</time></trkpt><trkpt lat="40.61678469191612" lon="14.986750669902936"><ele>73.0</ele><time>2026-03-26T18:26:42Z</time></trkpt><trkpt lat="40.61667751309999" lon="14.98706842332106"><ele>74.0</ele><time>2026-03-26T18:26:43Z</time></trkpt><trkpt lat="40.61656202322773" lon="14.98738082129662"><ele>77.0</ele><time>2026-03-26T18:26:44Z</time></trkpt><trkpt lat="40.616437148945565" lon="14.987690615005567"><ele>80.0</ele><time>2026-03-26T18:26:45Z</time></trkpt><trkpt lat="40.61630444902215" lon="14.987992926716935"><ele>80.0</ele><time>2026-03-26T18:26:46Z</time></trkpt><trkpt lat="40.61616507533047" lon="14.988290666750359"><ele>80.0</ele><time>2026-03-26T18:26:47Z</time></trkpt><trkpt lat="40.61601927483199" lon="14.988579653334632"><ele>82.0</ele><time>2026-03-26T18:26:48Z</time></trkpt><trkpt lat="40.61586902579052" lon="14.988865210429184"><ele>84.0</ele><time>2026-03-26T18:26:49Z</time></trkpt><trkpt lat="40.615717712527925" lon="14.98914971758558"><ele>88.5</ele><time>2026-03-26T18:26:50Z</time></trkpt><trkpt lat="40.6155640841479" lon="14.989435288697509"><ele>93.0</ele><time>2026-03-26T18:26:51Z</time></trkpt><trkpt lat="40.61540844732085" lon="14.989719817490627"><ele>92.0</ele><time>2026-03-26T18:26:52Z</time></trkpt><trkpt lat="40.61525095096081" lon="14.990005470425265"><ele>91.0</ele><time>2026-03-26T18:26:53Z</time></trkpt><trkpt lat="40.61509494414418" lon="14.990291271052403"><ele>91.0</ele><time>2026-03-26T18:26:54Z</time></trkpt><trkpt lat="40.61493675235334" lon="14.990573938809707"><ele>91.0</ele><time>2026-03-26T18:26:55Z</time></trkpt><trkpt lat="40.61477654566173" lon="14.990855095719327"><ele>92.5</ele><time>2026-03-26T18:26:56Z</time></trkpt><trkpt lat="40.61461113404597" lon="14.99113120451795"><ele>94.0</ele><time>2026-03-26T18:26:57Z</time></trkpt><trkpt lat="40.61443953321098" lon="14.99140489738232"><ele>98.5</ele><time>2026-03-26T18:26:58Z</time></trkpt><trkpt lat="40.61426129047077" lon="14.99167560629185"><ele>103.0</ele><time>2026-03-26T18:26:59Z</time></trkpt><trkpt lat="40.61407707605381" lon="14.991937142972196"><ele>103.0</ele><time>2026-03-26T18:27:00Z</time></trkpt><trkpt lat="40.61388762681199" lon="14.992191103184632"><ele>103.0</ele><time>2026-03-26T18:27:01Z</time></trkpt><trkpt lat="40.613697286156686" lon="14.992433219426898"><ele>100.5</ele><time>2026-03-26T18:27:02Z</time></trkpt><trkpt lat="40.6135043146968" lon="14.992666551755798"><ele>98.0</ele><time>2026-03-26T18:27:03Z</time></trkpt><trkpt lat="40.613309336977316" lon="14.992893312065323"><ele>98.0</ele><time>2026-03-26T18:27:04Z</time></trkpt><trkpt lat="40.61311237850781" lon="14.99311502839793"><ele>98.0</ele><time>2026-03-26T18:27:05Z</time></trkpt><trkpt lat="40.612915406619514" lon="14.993336681285944"><ele>96.5</ele><time>2026-03-26T18:27:06Z</time></trkpt><trkpt lat="40.612714161278845" lon="14.993560928134931"><ele>95.0</ele><time>2026-03-26T18:27:07Z</time></trkpt><trkpt lat="40.6125134900104" lon="14.993785642695201"><ele>95.0</ele><time>2026-03-26T18:27:08Z</time></trkpt><trkpt lat="40.612309844219304" lon="14.99401531160332"><ele>95.0</ele><time>2026-03-26T18:27:09Z</time></trkpt><trkpt lat="40.612107217609264" lon="14.99424547359961"><ele>93.0</ele><time>2026-03-26T18:27:10Z</time></trkpt><trkpt lat="40.61190818148539" lon="14.99447076836324"><ele>91.0</ele><time>2026-03-26T18:27:11Z</time></trkpt><trkpt lat="40.61172329536782" lon="14.994677407923005"><ele>91.0</ele><time>2026-03-26T18:27:12Z</time></trkpt><trkpt lat="40.61154726660348" lon="14.994868663765594"><ele>91.0</ele><time>2026-03-26T18:27:13Z</time></trkpt><trkpt lat="40.61136641339545" lon="14.995062155282774"><ele>88.5</ele><time>2026-03-26T18:27:14Z</time></trkpt><trkpt lat="40.611181424825574" lon="14.995255681999272"><ele>86.0</ele><time>2026-03-26T18:27:15Z</time></trkpt><trkpt lat="40.610988989129005" lon="14.995446879869764"><ele>86.0</ele><time>2026-03-26T18:27:16Z</time></trkpt><trkpt lat="40.610786096090116" lon="14.995627708916798"><ele>86.0</ele><time>2026-03-26T18:27:17Z</time></trkpt><trkpt lat="40.61057877469784" lon="14.99579837471031"><ele>84.0</ele><time>2026-03-26T18:27:18Z</time></trkpt><trkpt lat="40.61036676817361" lon="14.995961753918369"><ele>82.0</ele><time>2026-03-26T18:27:19Z</time></trkpt><trkpt lat="40.61014996927974" lon="14.99611836114488"><ele>82.0</ele><time>2026-03-26T18:27:20Z</time></trkpt><trkpt lat="40.609927428334366" lon="14.996271263593059"><ele>82.0</ele><time>2026-03-26T18:27:21Z</time></trkpt><trkpt lat="40.60969956904349" lon="14.996420430517617"><ele>82.0</ele><time>2026-03-26T18:27:22Z</time></trkpt><trkpt lat="40.60946764410292" lon="14.996568734533714"><ele>82.0</ele><time>2026-03-26T18:27:23Z</time></trkpt><trkpt lat="40.6092369050829" lon="14.996720380363387"><ele>82.0</ele><time>2026-03-26T18:27:24Z</time></trkpt><trkpt lat="40.60901246138519" lon="14.99687356690881"><ele>82.0</ele><time>2026-03-26T18:27:25Z</time></trkpt><trkpt lat="40.608788954849075" lon="14.99702747474458"><ele>81.0</ele><time>2026-03-26T18:27:26Z</time></trkpt><trkpt lat="40.60856790289131" lon="14.997175970301331"><ele>80.0</ele><time>2026-03-26T18:27:27Z</time></trkpt><trkpt lat="40.608349453682486" lon="14.997317199006535"><ele>80.0</ele><time>2026-03-26T18:27:28Z</time></trkpt><trkpt lat="40.60814135930145" lon="14.997451283970493"><ele>80.0</ele><time>2026-03-26T18:27:29Z</time></trkpt><trkpt lat="40.607937588669934" lon="14.997592168012515"><ele>80.0</ele><time>2026-03-26T18:27:30Z</time></trkpt><trkpt lat="40.60773381855957" lon="14.99774290884333"><ele>80.0</ele><time>2026-03-26T18:27:31Z</time></trkpt><trkpt lat="40.607528241434" lon="14.997903664476636"><ele>80.0</ele><time>2026-03-26T18:27:32Z</time></trkpt><trkpt lat="40.60732203533912" lon="14.998076916043546"><ele>80.0</ele><time>2026-03-26T18:27:33Z</time></trkpt><trkpt lat="40.60711731207568" lon="14.998261896131076"><ele>80.5</ele><time>2026-03-26T18:27:34Z</time></trkpt><trkpt lat="40.60691639817088" lon="14.998459125313834"><ele>81.0</ele><time>2026-03-26T18:27:35Z</time></trkpt><trkpt lat="40.60671948853574" lon="14.998663998869077"><ele>81.0</ele><time>2026-03-26T18:27:36Z</time></trkpt><trkpt lat="40.606525619556734" lon="14.998873840414479"><ele>81.0</ele><time>2026-03-26T18:27:37Z</time></trkpt><trkpt lat="40.60633473031858" lon="14.99908651157374"><ele>81.5</ele><time>2026-03-26T18:27:38Z</time></trkpt><trkpt lat="40.606141168486026" lon="14.99930209605371"><ele>82.0</ele><time>2026-03-26T18:27:39Z</time></trkpt><trkpt lat="40.6059452490452" lon="14.999519381120777"><ele>82.0</ele><time>2026-03-26T18:27:40Z</time></trkpt><trkpt lat="40.60574682990931" lon="14.999734777768143"><ele>82.0</ele><time>2026-03-26T18:27:41Z</time></trkpt><trkpt lat="40.605546186007736" lon="14.999945902958432"><ele>82.0</ele><time>2026-03-26T18:27:42Z</time></trkpt><trkpt lat="40.605346337165905" lon="15.000158255690554"><ele>82.0</ele><time>2026-03-26T18:27:43Z</time></trkpt><trkpt lat="40.60514680626504" lon="15.0003763185999"><ele>80.5</ele><time>2026-03-26T18:27:44Z</time></trkpt><trkpt lat="40.60494802269088" lon="15.000598085769601"><ele>79.0</ele><time>2026-03-26T18:27:45Z</time></trkpt><trkpt lat="40.604747808009904" lon="15.000823037493632"><ele>79.0</ele><time>2026-03-26T18:27:46Z</time></trkpt><trkpt lat="40.6045439150522" lon="15.001049772478144"><ele>79.0</ele><time>2026-03-26T18:27:47Z</time></trkpt><trkpt lat="40.60433595776892" lon="15.001277340535024"><ele>79.0</ele><time>2026-03-26T18:27:48Z</time></trkpt><trkpt lat="40.604122485592285" lon="15.001510295611533"><ele>79.0</ele><time>2026-03-26T18:27:49Z</time></trkpt><trkpt lat="40.603907198111145" lon="15.001747438753117"><ele>79.0</ele><time>2026-03-26T18:27:50Z</time></trkpt><trkpt lat="40.603690402540956" lon="15.001988162425054"><ele>79.0</ele><time>2026-03-26T18:27:51Z</time></trkpt><trkpt lat="40.60347399623525" lon="15.002229857976713"><ele>78.0</ele><time>2026-03-26T18:27:52Z</time></trkpt><trkpt lat="40.60326322464973" lon="15.002469229057082"><ele>77.0</ele><time>2026-03-26T18:27:53Z</time></trkpt><trkpt lat="40.603057464844404" lon="15.002712341261908"><ele>77.0</ele><time>2026-03-26T18:27:54Z</time></trkpt><trkpt lat="40.60285535364763" lon="15.00296045146262"><ele>77.0</ele><time>2026-03-26T18:27:55Z</time></trkpt><trkpt lat="40.602659390759285" lon="15.003219054025132"><ele>76.5</ele><time>2026-03-26T18:27:56Z</time></trkpt><trkpt lat="40.60246651602281" lon="15.003482795212213"><ele>76.0</ele><time>2026-03-26T18:27:57Z</time></trkpt><trkpt lat="40.60228226030435" lon="15.003753394131815"><ele>76.0</ele><time>2026-03-26T18:27:58Z</time></trkpt><trkpt lat="40.60210709248316" lon="15.004031096976638"><ele>76.0</ele><time>2026-03-26T18:27:59Z</time></trkpt><trkpt lat="40.601942391218756" lon="15.004316239524437"><ele>73.5</ele><time>2026-03-26T18:28:00Z</time></trkpt><trkpt lat="40.60179034238485" lon="15.00460744402819"><ele>71.0</ele><time>2026-03-26T18:28:01Z</time></trkpt><trkpt lat="40.601646276158725" lon="15.004909715664478"><ele>73.5</ele><time>2026-03-26T18:28:02Z</time></trkpt><trkpt lat="40.601512009767575" lon="15.005222450476413"><ele>76.0</ele><time>2026-03-26T18:28:03Z</time></trkpt><trkpt lat="40.60138647412775" lon="15.005543479190065"><ele>80.5</ele><time>2026-03-26T18:28:04Z</time></trkpt><trkpt lat="40.601270839063524" lon="15.005871996831912"><ele>85.0</ele><time>2026-03-26T18:28:05Z</time></trkpt><trkpt lat="40.60116871080846" lon="15.006203169677772"><ele>80.0</ele><time>2026-03-26T18:28:06Z</time></trkpt><trkpt lat="40.60107965121432" lon="15.006539077801955"><ele>75.0</ele><time>2026-03-26T18:28:07Z</time></trkpt><trkpt lat="40.60100235306423" lon="15.006880342470112"><ele>75.0</ele><time>2026-03-26T18:28:08Z</time></trkpt><trkpt lat="40.60093716672292" lon="15.007226827928147"><ele>75.0</ele><time>2026-03-26T18:28:09Z</time></trkpt><trkpt lat="40.60088521329182" lon="15.007576631794965"><ele>76.5</ele><time>2026-03-26T18:28:10Z</time></trkpt><trkpt lat="40.60084511624965" lon="15.007928452701071"><ele>78.0</ele><time>2026-03-26T18:28:11Z</time></trkpt><trkpt lat="40.600815890075445" lon="15.008281322222862"><ele>79.5</ele><time>2026-03-26T18:28:12Z</time></trkpt><trkpt lat="40.60079448095079" lon="15.00863652618602"><ele>81.0</ele><time>2026-03-26T18:28:13Z</time></trkpt><trkpt lat="40.600778783126806" lon="15.00899409463393"><ele>81.5</ele><time>2026-03-26T18:28:14Z</time></trkpt><trkpt lat="40.60077075300591" lon="15.00935222466208"><ele>82.0</ele><time>2026-03-26T18:28:15Z</time></trkpt><trkpt lat="40.600773276202766" lon="15.00970951327883"><ele>81.0</ele><time>2026-03-26T18:28:16Z</time></trkpt><trkpt lat="40.6007850237409" lon="15.010066954416459"><ele>80.0</ele><time>2026-03-26T18:28:17Z</time></trkpt><trkpt lat="40.60080367029792" lon="15.010423218382877"><ele>80.0</ele><time>2026-03-26T18:28:18Z</time></trkpt><trkpt lat="40.600823581722025" lon="15.01077893889236"><ele>80.0</ele><time>2026-03-26T18:28:19Z</time></trkpt><trkpt lat="40.60084239100366" lon="15.011137356314624"><ele>81.0</ele><time>2026-03-26T18:28:20Z</time></trkpt><trkpt lat="40.600865961009454" lon="15.011496538419904"><ele>82.0</ele><time>2026-03-26T18:28:21Z</time></trkpt><trkpt lat="40.600894542985294" lon="15.01185659916955"><ele>83.0</ele><time>2026-03-26T18:28:22Z</time></trkpt><trkpt lat="40.600923201332435" lon="15.012217350822457"><ele>84.0</ele><time>2026-03-26T18:28:23Z</time></trkpt><trkpt lat="40.60094978910842" lon="15.012581016398139"><ele>84.0</ele><time>2026-03-26T18:28:24Z</time></trkpt><trkpt lat="40.600975508741044" lon="15.012946595204843"><ele>84.0</ele><time>2026-03-26T18:28:25Z</time></trkpt><trkpt lat="40.60100730444996" lon="15.013311786761793"><ele>83.0</ele><time>2026-03-26T18:28:26Z</time></trkpt><trkpt lat="40.60104417440256" lon="15.013677092090282"><ele>82.0</ele><time>2026-03-26T18:28:27Z</time></trkpt><trkpt lat="40.60108927182409" lon="15.014036575346378"><ele>80.5</ele><time>2026-03-26T18:28:28Z</time></trkpt><trkpt lat="40.60114337778105" lon="15.014397862726558"><ele>79.0</ele><time>2026-03-26T18:28:29Z</time></trkpt><trkpt lat="40.601201013919265" lon="15.014758762704988"><ele>88.5</ele><time>2026-03-26T18:28:30Z</time></trkpt><trkpt lat="40.60125942537224" lon="15.015120264812673"><ele>98.0</ele><time>2026-03-26T18:28:31Z</time></trkpt><trkpt lat="40.60131658461309" lon="15.015484449502285"><ele>96.0</ele><time>2026-03-26T18:28:32Z</time></trkpt><trkpt lat="40.601371193352094" lon="15.015842409841305"><ele>94.0</ele><time>2026-03-26T18:28:33Z</time></trkpt><trkpt lat="40.60142724000844" lon="15.01620331921418"><ele>94.0</ele><time>2026-03-26T18:28:34Z</time></trkpt><trkpt lat="40.60148303439137" lon="15.016565686907912"><ele>94.0</ele><time>2026-03-26T18:28:35Z</time></trkpt><trkpt lat="40.6015349701747" lon="15.016923718927911"><ele>93.0</ele><time>2026-03-26T18:28:36Z</time></trkpt><trkpt lat="40.60158332591211" lon="15.017283985760173"><ele>92.0</ele><time>2026-03-26T18:28:37Z</time></trkpt><trkpt lat="40.6016324463898" lon="15.017641374255241"><ele>90.5</ele><time>2026-03-26T18:28:38Z</time></trkpt><trkpt lat="40.60168243457013" lon="15.017994162837697"><ele>89.0</ele><time>2026-03-26T18:28:39Z</time></trkpt><trkpt lat="40.601734467079915" lon="15.018345558610726"><ele>86.5</ele><time>2026-03-26T18:28:40Z</time></trkpt><trkpt lat="40.60178924386918" lon="15.01869071711194"><ele>84.0</ele><time>2026-03-26T18:28:41Z</time></trkpt><trkpt lat="40.601844724217656" lon="15.019032531769545"><ele>81.5</ele><time>2026-03-26T18:28:42Z</time></trkpt><trkpt lat="40.60190008732007" lon="15.019370337220597"><ele>79.0</ele><time>2026-03-26T18:28:43Z</time></trkpt><trkpt lat="40.60195522021302" lon="15.019705442391409"><ele>93.0</ele><time>2026-03-26T18:28:44Z</time></trkpt><trkpt lat="40.60200759047117" lon="15.02003798000506"><ele>107.0</ele><time>2026-03-26T18:28:45Z</time></trkpt><trkpt lat="40.60205970072201" lon="15.020368342188746"><ele>107.0</ele><time>2026-03-26T18:28:46Z</time></trkpt><trkpt lat="40.602111177557404" lon="15.020695938254013"><ele>107.0</ele><time>2026-03-26T18:28:47Z</time></trkpt><trkpt lat="40.60216258792582" lon="15.021025624067708"><ele>103.0</ele><time>2026-03-26T18:28:48Z</time></trkpt><trkpt lat="40.60221797113945" lon="15.021356632938142"><ele>99.0</ele><time>2026-03-26T18:28:49Z</time></trkpt><trkpt lat="40.60227524888442" lon="15.021692206163417"><ele>94.5</ele><time>2026-03-26T18:28:50Z</time></trkpt><trkpt lat="40.60233250126622" lon="15.022034648449822"><ele>90.0</ele><time>2026-03-26T18:28:51Z</time></trkpt><trkpt lat="40.60239074232447" lon="15.022382717038765"><ele>88.0</ele><time>2026-03-26T18:28:52Z</time></trkpt><trkpt lat="40.60244959591339" lon="15.022733840426044"><ele>86.0</ele><time>2026-03-26T18:28:53Z</time></trkpt><trkpt lat="40.60250965150064" lon="15.02308848986008"><ele>86.0</ele><time>2026-03-26T18:28:54Z</time></trkpt><trkpt lat="40.60256974139556" lon="15.023447280696926"><ele>86.0</ele><time>2026-03-26T18:28:55Z</time></trkpt><trkpt lat="40.60262969796731" lon="15.023810095245825"><ele>84.0</ele><time>2026-03-26T18:28:56Z</time></trkpt><trkpt lat="40.602689952794115" lon="15.024175232000758"><ele>82.0</ele><time>2026-03-26T18:28:57Z</time></trkpt><trkpt lat="40.60274862353769" lon="15.024542173397931"><ele>82.0</ele><time>2026-03-26T18:28:58Z</time></trkpt><trkpt lat="40.60280510964475" lon="15.024907049693166"><ele>82.0</ele><time>2026-03-26T18:28:59Z</time></trkpt><trkpt lat="40.60285997823491" lon="15.025273248196664"><ele>85.5</ele><time>2026-03-26T18:29:00Z</time></trkpt><trkpt lat="40.60291143981195" lon="15.025639421621088"><ele>89.0</ele><time>2026-03-26T18:29:01Z</time></trkpt><trkpt lat="40.60295677872617" lon="15.02600355624106"><ele>89.0</ele><time>2026-03-26T18:29:02Z</time></trkpt><trkpt lat="40.60299038820937" lon="15.026366402792087"><ele>89.0</ele><time>2026-03-26T18:29:03Z</time></trkpt><trkpt lat="40.60301727581233" lon="15.026730517788815"><ele>91.0</ele><time>2026-03-26T18:29:04Z</time></trkpt><trkpt lat="40.60304059834357" lon="15.027091881817636"><ele>93.0</ele><time>2026-03-26T18:29:05Z</time></trkpt><trkpt lat="40.60306261690102" lon="15.027452845431203"><ele>94.5</ele><time>2026-03-26T18:29:06Z</time></trkpt><trkpt lat="40.60308392084226" lon="15.027815400931852"><ele>96.0</ele><time>2026-03-26T18:29:07Z</time></trkpt><trkpt lat="40.603101875831236" lon="15.028174534263307"><ele>97.0</ele><time>2026-03-26T18:29:08Z</time></trkpt><trkpt lat="40.603116840782675" lon="15.028533882559064"><ele>98.0</ele><time>2026-03-26T18:29:09Z</time></trkpt><trkpt lat="40.60313143491956" lon="15.028891673297112"><ele>98.0</ele><time>2026-03-26T18:29:10Z</time></trkpt><trkpt lat="40.603145011691254" lon="15.029249615881497"><ele>98.0</ele><time>2026-03-26T18:29:11Z</time></trkpt><trkpt lat="40.603159452240476" lon="15.029609054176811"><ele>98.0</ele><time>2026-03-26T18:29:12Z</time></trkpt><trkpt lat="40.60317614024282" lon="15.029971455695378"><ele>98.0</ele><time>2026-03-26T18:29:13Z</time></trkpt><trkpt lat="40.60319685667847" lon="15.030333062961342"><ele>99.5</ele><time>2026-03-26T18:29:14Z</time></trkpt><trkpt lat="40.6032225259542" lon="15.030693109877216"><ele>101.0</ele><time>2026-03-26T18:29:15Z</time></trkpt><trkpt lat="40.60325376354481" lon="15.031051779553513"><ele>101.0</ele><time>2026-03-26T18:29:16Z</time></trkpt><trkpt lat="40.603291625663296" lon="15.03140792656617"><ele>101.0</ele><time>2026-03-26T18:29:17Z</time></trkpt><trkpt lat="40.60333806256963" lon="15.031763232619944"><ele>99.5</ele><time>2026-03-26T18:29:18Z</time></trkpt><trkpt lat="40.603392265316515" lon="15.03211859835752"><ele>98.0</ele><time>2026-03-26T18:29:19Z</time></trkpt><trkpt lat="40.603455814354284" lon="15.032467292067283"><ele>95.0</ele><time>2026-03-26T18:29:20Z</time></trkpt><trkpt lat="40.603528702460316" lon="15.032813609101936"><ele>92.0</ele><time>2026-03-26T18:29:21Z</time></trkpt><trkpt lat="40.60361004873239" lon="15.033159133336374"><ele>98.5</ele><time>2026-03-26T18:29:22Z</time></trkpt><trkpt lat="40.60370007127863" lon="15.033504013256323"><ele>105.0</ele><time>2026-03-26T18:29:23Z</time></trkpt><trkpt lat="40.60379851119506" lon="15.03384561653725"><ele>100.5</ele><time>2026-03-26T18:29:24Z</time></trkpt><trkpt lat="40.60390476694904" lon="15.03418260057153"><ele>96.0</ele><time>2026-03-26T18:29:25Z</time></trkpt><trkpt lat="40.60401725463178" lon="15.034519169841264"><ele>96.0</ele><time>2026-03-26T18:29:26Z</time></trkpt><trkpt lat="40.60413393082939" lon="15.034851192583396"><ele>96.0</ele><time>2026-03-26T18:29:27Z</time></trkpt><trkpt lat="40.60425737067497" lon="15.035184168973009"><ele>92.0</ele><time>2026-03-26T18:29:28Z</time></trkpt><trkpt lat="40.60437745452719" lon="15.035510481793956"><ele>88.0</ele><time>2026-03-26T18:29:29Z</time></trkpt><trkpt lat="40.60449278144284" lon="15.035829690973635"><ele>96.5</ele><time>2026-03-26T18:29:30Z</time></trkpt><trkpt lat="40.604607930954835" lon="15.036143566335262"><ele>105.0</ele><time>2026-03-26T18:29:31Z</time></trkpt><trkpt lat="40.604723527271396" lon="15.036454932819225"><ele>100.0</ele><time>2026-03-26T18:29:32Z</time></trkpt><trkpt lat="40.604838472323564" lon="15.03676643377945"><ele>95.0</ele><time>2026-03-26T18:29:33Z</time></trkpt><trkpt lat="40.604953325947896" lon="15.037078808641198"><ele>95.0</ele><time>2026-03-26T18:29:34Z</time></trkpt><trkpt lat="40.60506754255306" lon="15.037390331585023"><ele>95.0</ele><time>2026-03-26T18:29:35Z</time></trkpt><trkpt lat="40.60518281706078" lon="15.037701404035287"><ele>91.5</ele><time>2026-03-26T18:29:36Z</time></trkpt><trkpt lat="40.60529934987076" lon="15.038015377044005"><ele>88.0</ele><time>2026-03-26T18:29:37Z</time></trkpt><trkpt lat="40.605417107841234" lon="15.038332094131306"><ele>97.5</ele><time>2026-03-26T18:29:38Z</time></trkpt><trkpt lat="40.60553475286049" lon="15.038649318814244"><ele>107.0</ele><time>2026-03-26T18:29:39Z</time></trkpt><trkpt lat="40.60565371554421" lon="15.038968120312413"><ele>103.5</ele><time>2026-03-26T18:29:40Z</time></trkpt><trkpt lat="40.60577275466892" lon="15.039288244302151"><ele>100.0</ele><time>2026-03-26T18:29:41Z</time></trkpt><trkpt lat="40.60589205292719" lon="15.039611158823206"><ele>100.0</ele><time>2026-03-26T18:29:42Z</time></trkpt><trkpt lat="40.60601039514065" lon="15.039934306208282"><ele>100.0</ele><time>2026-03-26T18:29:43Z</time></trkpt><trkpt lat="40.6061247039116" lon="15.04026164763207"><ele>104.0</ele><time>2026-03-26T18:29:44Z</time></trkpt><trkpt lat="40.606235202275215" lon="15.040595197353763"><ele>108.0</ele><time>2026-03-26T18:29:45Z</time></trkpt><trkpt lat="40.60633822029364" lon="15.040931067514755"><ele>108.0</ele><time>2026-03-26T18:29:46Z</time></trkpt><trkpt lat="40.606432398852995" lon="15.041268721336383"><ele>108.0</ele><time>2026-03-26T18:29:47Z</time></trkpt><trkpt lat="40.606518651663414" lon="15.041610294336149"><ele>102.0</ele><time>2026-03-26T18:29:48Z</time></trkpt><trkpt lat="40.606596478970395" lon="15.041951822400856"><ele>96.0</ele><time>2026-03-26T18:29:49Z</time></trkpt><trkpt lat="40.60666770949632" lon="15.042293016529271"><ele>90.5</ele><time>2026-03-26T18:29:50Z</time></trkpt><trkpt lat="40.60673264467394" lon="15.042628268685473"><ele>85.0</ele><time>2026-03-26T18:29:51Z</time></trkpt><trkpt lat="40.60679065508963" lon="15.042961590945577"><ele>85.0</ele><time>2026-03-26T18:29:52Z</time></trkpt><trkpt lat="40.60684347602867" lon="15.043291655346502"><ele>85.0</ele><time>2026-03-26T18:29:53Z</time></trkpt><trkpt lat="40.606892165001454" lon="15.04361907444084"><ele>83.5</ele><time>2026-03-26T18:29:54Z</time></trkpt><trkpt lat="40.60694070502007" lon="15.043951207986755"><ele>82.0</ele><time>2026-03-26T18:29:55Z</time></trkpt><trkpt lat="40.60698904181159" lon="15.044280138772715"><ele>84.0</ele><time>2026-03-26T18:29:56Z</time></trkpt><trkpt lat="40.60703794160298" lon="15.044607766900972"><ele>86.0</ele><time>2026-03-26T18:29:57Z</time></trkpt><trkpt lat="40.607086559381344" lon="15.044937041219383"><ele>82.5</ele><time>2026-03-26T18:29:58Z</time></trkpt><trkpt lat="40.60713495048114" lon="15.045267069733486"><ele>79.0</ele><time>2026-03-26T18:29:59Z</time></trkpt><trkpt lat="40.60718398932509" lon="15.045602689601047"><ele>78.5</ele><time>2026-03-26T18:30:00Z</time></trkpt><trkpt lat="40.60723383109173" lon="15.045941774123813"><ele>78.0</ele><time>2026-03-26T18:30:01Z</time></trkpt><trkpt lat="40.60728396176788" lon="15.046283734600271"><ele>78.0</ele><time>2026-03-26T18:30:02Z</time></trkpt><trkpt lat="40.60733355640299" lon="15.046626975973723"><ele>78.0</ele><time>2026-03-26T18:30:03Z</time></trkpt><trkpt lat="40.60738316553464" lon="15.04697025770701"><ele>77.5</ele><time>2026-03-26T18:30:04Z</time></trkpt><trkpt lat="40.60743059731086" lon="15.047302041276353"><ele>77.0</ele><time>2026-03-26T18:30:05Z</time></trkpt><trkpt lat="40.60747614354009" lon="15.047623767710027"><ele>77.0</ele><time>2026-03-26T18:30:06Z</time></trkpt><trkpt lat="40.60752010076477" lon="15.047948170565972"><ele>77.0</ele><time>2026-03-26T18:30:07Z</time></trkpt><trkpt lat="40.60756162380303" lon="15.048271997949387"><ele>77.0</ele><time>2026-03-26T18:30:08Z</time></trkpt><trkpt lat="40.60759785086775" lon="15.048597096898964"><ele>77.0</ele><time>2026-03-26T18:30:09Z</time></trkpt><trkpt lat="40.60762893911651" lon="15.048925454808229"><ele>77.5</ele><time>2026-03-26T18:30:10Z</time></trkpt><trkpt lat="40.607653630658774" lon="15.049258002778709"><ele>78.0</ele><time>2026-03-26T18:30:11Z</time></trkpt><trkpt lat="40.60767243935094" lon="15.049594846035713"><ele>78.0</ele><time>2026-03-26T18:30:12Z</time></trkpt><trkpt lat="40.607688619251036" lon="15.04993338720631"><ele>78.0</ele><time>2026-03-26T18:30:13Z</time></trkpt><trkpt lat="40.60770362639458" lon="15.050275499201927"><ele>77.0</ele><time>2026-03-26T18:30:14Z</time></trkpt><trkpt lat="40.60771627727989" lon="15.050621745738942"><ele>76.0</ele><time>2026-03-26T18:30:15Z</time></trkpt><trkpt lat="40.60772391619885" lon="15.050970318606822"><ele>75.5</ele><time>2026-03-26T18:30:16Z</time></trkpt><trkpt lat="40.607728695697546" lon="15.051318989525258"><ele>75.0</ele><time>2026-03-26T18:30:17Z</time></trkpt><trkpt lat="40.607732136717985" lon="15.051670002353635"><ele>77.0</ele><time>2026-03-26T18:30:18Z</time></trkpt><trkpt lat="40.607731836673835" lon="15.052027435395079"><ele>79.0</ele><time>2026-03-26T18:30:19Z</time></trkpt><trkpt lat="40.60772999495461" lon="15.052390571870687"><ele>79.0</ele><time>2026-03-26T18:30:20Z</time></trkpt><trkpt lat="40.60772770835508" lon="15.05275699168452"><ele>79.0</ele><time>2026-03-26T18:30:21Z</time></trkpt><trkpt lat="40.60772697856419" lon="15.053126996074546"><ele>79.5</ele><time>2026-03-26T18:30:22Z</time></trkpt><trkpt lat="40.607727233187305" lon="15.053500753537069"><ele>80.0</ele><time>2026-03-26T18:30:23Z</time></trkpt><trkpt lat="40.60772735077032" lon="15.053873248782883"><ele>80.0</ele><time>2026-03-26T18:30:24Z</time></trkpt><trkpt lat="40.60772606288899" lon="15.054244490265846"><ele>80.0</ele><time>2026-03-26T18:30:25Z</time></trkpt><trkpt lat="40.60772383480243" lon="15.054615363536964"><ele>81.0</ele><time>2026-03-26T18:30:26Z</time></trkpt><trkpt lat="40.60772134864646" lon="15.054986687368288"><ele>82.0</ele><time>2026-03-26T18:30:27Z</time></trkpt><trkpt lat="40.60772137914088" lon="15.055357239383518"><ele>82.0</ele><time>2026-03-26T18:30:28Z</time></trkpt><trkpt lat="40.607723127523144" lon="15.055726809592079"><ele>82.0</ele><time>2026-03-26T18:30:29Z</time></trkpt><trkpt lat="40.60772213302364" lon="15.056096611067975"><ele>81.5</ele><time>2026-03-26T18:30:30Z</time></trkpt><trkpt lat="40.60772022134658" lon="15.056463112048968"><ele>81.0</ele><time>2026-03-26T18:30:31Z</time></trkpt><trkpt lat="40.60771945798805" lon="15.056827610984824"><ele>79.5</ele><time>2026-03-26T18:30:32Z</time></trkpt><trkpt lat="40.607717266329956" lon="15.05719533216999"><ele>78.0</ele><time>2026-03-26T18:30:33Z</time></trkpt><trkpt lat="40.60771393049717" lon="15.05756127997604"><ele>77.5</ele><time>2026-03-26T18:30:34Z</time></trkpt><trkpt lat="40.60771016975976" lon="15.057928596998892"><ele>77.0</ele><time>2026-03-26T18:30:35Z</time></trkpt><trkpt lat="40.607707764908156" lon="15.058290914299187"><ele>77.0</ele><time>2026-03-26T18:30:36Z</time></trkpt><trkpt lat="40.607706124157936" lon="15.058648736801892"><ele>77.0</ele><time>2026-03-26T18:30:37Z</time></trkpt><trkpt lat="40.60770420548799" lon="15.059006304828822"><ele>77.0</ele><time>2026-03-26T18:30:38Z</time></trkpt><trkpt lat="40.60770332560398" lon="15.059364216894759"><ele>77.0</ele><time>2026-03-26T18:30:39Z</time></trkpt><trkpt lat="40.60770298953601" lon="15.059720833929815"><ele>77.0</ele><time>2026-03-26T18:30:40Z</time></trkpt><trkpt lat="40.607702105381414" lon="15.0600764385574"><ele>77.0</ele><time>2026-03-26T18:30:41Z</time></trkpt><trkpt lat="40.60770178138899" lon="15.060433032972846"><ele>78.0</ele><time>2026-03-26T18:30:42Z</time></trkpt><trkpt lat="40.60770204517718" lon="15.060789369297929"><ele>79.0</ele><time>2026-03-26T18:30:43Z</time></trkpt><trkpt lat="40.60770171007703" lon="15.06114526220266"><ele>79.0</ele><time>2026-03-26T18:30:44Z</time></trkpt><trkpt lat="40.60770151661628" lon="15.061507355672273"><ele>79.0</ele><time>2026-03-26T18:30:45Z</time></trkpt><trkpt lat="40.60770134420778" lon="15.061873335539728"><ele>78.0</ele><time>2026-03-26T18:30:46Z</time></trkpt><trkpt lat="40.60770043565102" lon="15.062240344987616"><ele>77.0</ele><time>2026-03-26T18:30:47Z</time></trkpt><trkpt lat="40.607700730359525" lon="15.062607956723989"><ele>76.0</ele><time>2026-03-26T18:30:48Z</time></trkpt><trkpt lat="40.60770053517506" lon="15.06298073222233"><ele>75.0</ele><time>2026-03-26T18:30:49Z</time></trkpt><trkpt lat="40.60769915748193" lon="15.063352151644196"><ele>74.5</ele><time>2026-03-26T18:30:50Z</time></trkpt><trkpt lat="40.607697182703696" lon="15.06372057133824"><ele>74.0</ele><time>2026-03-26T18:30:51Z</time></trkpt><trkpt lat="40.60769671438053" lon="15.064084937822411"><ele>72.5</ele><time>2026-03-26T18:30:52Z</time></trkpt><trkpt lat="40.60769741997407" lon="15.064449123020829"><ele>71.0</ele><time>2026-03-26T18:30:53Z</time></trkpt><trkpt lat="40.607699925711366" lon="15.064809750451197"><ele>71.0</ele><time>2026-03-26T18:30:54Z</time></trkpt><trkpt lat="40.60769928981024" lon="15.065173680012547"><ele>71.0</ele><time>2026-03-26T18:30:55Z</time></trkpt><trkpt lat="40.607699407496156" lon="15.06553974744078"><ele>70.5</ele><time>2026-03-26T18:30:56Z</time></trkpt><trkpt lat="40.60769756678376" lon="15.065905826139328"><ele>70.0</ele><time>2026-03-26T18:30:57Z</time></trkpt><trkpt lat="40.607695622174155" lon="15.066270481094156"><ele>69.5</ele><time>2026-03-26T18:30:58Z</time></trkpt><trkpt lat="40.607693575162465" lon="15.06663414615938"><ele>69.0</ele><time>2026-03-26T18:30:59Z</time></trkpt><trkpt lat="40.607692910497086" lon="15.066999577624163"><ele>69.0</ele><time>2026-03-26T18:31:00Z</time></trkpt><trkpt lat="40.60769741892041" lon="15.067366603001682"><ele>69.0</ele><time>2026-03-26T18:31:01Z</time></trkpt><trkpt lat="40.60770491461652" lon="15.067733853160258"><ele>69.0</ele><time>2026-03-26T18:31:02Z</time></trkpt><trkpt lat="40.607718153002764" lon="15.0681007212561"><ele>69.0</ele><time>2026-03-26T18:31:03Z</time></trkpt><trkpt lat="40.60773614309914" lon="15.068466171264056"><ele>69.0</ele><time>2026-03-26T18:31:04Z</time></trkpt><trkpt lat="40.60775745049782" lon="15.068828910468465"><ele>69.0</ele><time>2026-03-26T18:31:05Z</time></trkpt><trkpt lat="40.60778332641362" lon="15.069192876285662"><ele>69.0</ele><time>2026-03-26T18:31:06Z</time></trkpt><trkpt lat="40.60780844117861" lon="15.069555666734873"><ele>69.0</ele><time>2026-03-26T18:31:07Z</time></trkpt><trkpt lat="40.60783756583478" lon="15.069917995314523"><ele>70.0</ele><time>2026-03-26T18:31:08Z</time></trkpt><trkpt lat="40.60787037617344" lon="15.07028190279501"><ele>71.0</ele><time>2026-03-26T18:31:09Z</time></trkpt><trkpt lat="40.60790891177986" lon="15.070649543252905"><ele>72.0</ele><time>2026-03-26T18:31:10Z</time></trkpt><trkpt lat="40.60795440314384" lon="15.071014309247307"><ele>73.0</ele><time>2026-03-26T18:31:11Z</time></trkpt><trkpt lat="40.60800501332894" lon="15.071379358303107"><ele>74.5</ele><time>2026-03-26T18:31:12Z</time></trkpt><trkpt lat="40.608058751725714" lon="15.071745803424239"><ele>76.0</ele><time>2026-03-26T18:31:13Z</time></trkpt><trkpt lat="40.60811734142063" lon="15.072113560994596"><ele>76.0</ele><time>2026-03-26T18:31:14Z</time></trkpt><trkpt lat="40.60817857974542" lon="15.072482127833792"><ele>76.0</ele><time>2026-03-26T18:31:15Z</time></trkpt><trkpt lat="40.60824315882697" lon="15.072849123558681"><ele>76.0</ele><time>2026-03-26T18:31:16Z</time></trkpt><trkpt lat="40.6083100055598" lon="15.07321783695073"><ele>76.0</ele><time>2026-03-26T18:31:17Z</time></trkpt><trkpt lat="40.60837835313965" lon="15.073584793514128"><ele>75.5</ele><time>2026-03-26T18:31:18Z</time></trkpt><trkpt lat="40.60844866453626" lon="15.07395048247483"><ele>75.0</ele><time>2026-03-26T18:31:19Z</time></trkpt><trkpt lat="40.608520240555606" lon="15.074314186470216"><ele>77.0</ele><time>2026-03-26T18:31:20Z</time></trkpt><trkpt lat="40.60859430163395" lon="15.074678617069528"><ele>79.0</ele><time>2026-03-26T18:31:21Z</time></trkpt><trkpt lat="40.608667182099474" lon="15.075038838964282"><ele>79.5</ele><time>2026-03-26T18:31:22Z</time></trkpt><trkpt lat="40.60873980362864" lon="15.075395094586186"><ele>80.0</ele><time>2026-03-26T18:31:23Z</time></trkpt><trkpt lat="40.60881132311962" lon="15.07575010886724"><ele>80.5</ele><time>2026-03-26T18:31:24Z</time></trkpt><trkpt lat="40.60887780973686" lon="15.076102350676495"><ele>81.0</ele><time>2026-03-26T18:31:25Z</time></trkpt><trkpt lat="40.608942273369756" lon="15.076461503668465"><ele>81.0</ele><time>2026-03-26T18:31:26Z</time></trkpt><trkpt lat="40.60900915662157" lon="15.076814910311276"><ele>81.0</ele><time>2026-03-26T18:31:27Z</time></trkpt><trkpt lat="40.6090742805893" lon="15.0771647522732"><ele>81.5</ele><time>2026-03-26T18:31:28Z</time></trkpt><trkpt lat="40.60913418580614" lon="15.077517989364392"><ele>82.0</ele><time>2026-03-26T18:31:29Z</time></trkpt><trkpt lat="40.609190820086006" lon="15.07787375673721"><ele>82.0</ele><time>2026-03-26T18:31:30Z</time></trkpt><trkpt lat="40.60924459954434" lon="15.078232401041939"><ele>82.0</ele><time>2026-03-26T18:31:31Z</time></trkpt><trkpt lat="40.60929474938391" lon="15.078592203474932"><ele>84.0</ele><time>2026-03-26T18:31:32Z</time></trkpt><trkpt lat="40.609341591806775" lon="15.07895156878686"><ele>86.0</ele><time>2026-03-26T18:31:33Z</time></trkpt><trkpt lat="40.60938629405091" lon="15.079309748480519"><ele>86.5</ele><time>2026-03-26T18:31:34Z</time></trkpt><trkpt lat="40.60942920812901" lon="15.079666037922319"><ele>87.0</ele><time>2026-03-26T18:31:35Z</time></trkpt><trkpt lat="40.60946760428293" lon="15.080023841405355"><ele>88.0</ele><time>2026-03-26T18:31:36Z</time></trkpt><trkpt lat="40.609501371705875" lon="15.080380849507453"><ele>89.0</ele><time>2026-03-26T18:31:37Z</time></trkpt><trkpt lat="40.60953044447041" lon="15.080739530772389"><ele>89.5</ele><time>2026-03-26T18:31:38Z</time></trkpt><trkpt lat="40.60955588504045" lon="15.081097372225809"><ele>90.0</ele><time>2026-03-26T18:31:39Z</time></trkpt><trkpt lat="40.609575500717995" lon="15.08145889365561"><ele>90.5</ele><time>2026-03-26T18:31:40Z</time></trkpt><trkpt lat="40.60959271899513" lon="15.081820037383867"><ele>91.0</ele><time>2026-03-26T18:31:41Z</time></trkpt><trkpt lat="40.60960533277685" lon="15.082181288157432"><ele>91.0</ele><time>2026-03-26T18:31:42Z</time></trkpt><trkpt lat="40.60961311000787" lon="15.082541321791046"><ele>91.0</ele><time>2026-03-26T18:31:43Z</time></trkpt><trkpt lat="40.60961698188621" lon="15.082902138884393"><ele>90.5</ele><time>2026-03-26T18:31:44Z</time></trkpt><trkpt lat="40.60961505547598" lon="15.083266270500742"><ele>90.0</ele><time>2026-03-26T18:31:45Z</time></trkpt><trkpt lat="40.60960876839864" lon="15.083630106375299"><ele>90.0</ele><time>2026-03-26T18:31:46Z</time></trkpt><trkpt lat="40.609597192499336" lon="15.083996692736845"><ele>90.0</ele><time>2026-03-26T18:31:47Z</time></trkpt><trkpt lat="40.609582487593606" lon="15.084367452006347"><ele>90.0</ele><time>2026-03-26T18:31:48Z</time></trkpt><trkpt lat="40.609565718826126" lon="15.08473946053681"><ele>90.0</ele><time>2026-03-26T18:31:49Z</time></trkpt><trkpt lat="40.60954808902172" lon="15.085110951239502"><ele>88.5</ele><time>2026-03-26T18:31:50Z</time></trkpt><trkpt lat="40.60952747733646" lon="15.08548084976322"><ele>87.0</ele><time>2026-03-26T18:31:51Z</time></trkpt><trkpt lat="40.609505820733894" lon="15.085850412024536"><ele>85.5</ele><time>2026-03-26T18:31:52Z</time></trkpt><trkpt lat="40.60948465413184" lon="15.08622040422979"><ele>84.0</ele><time>2026-03-26T18:31:53Z</time></trkpt><trkpt lat="40.60946436069571" lon="15.086589122734035"><ele>85.5</ele><time>2026-03-26T18:31:54Z</time></trkpt><trkpt lat="40.60944395293691" lon="15.086958549317842"><ele>87.0</ele><time>2026-03-26T18:31:55Z</time></trkpt><trkpt lat="40.609421435321586" lon="15.087323764538095"><ele>88.5</ele><time>2026-03-26T18:31:56Z</time></trkpt><trkpt lat="40.60939741545089" lon="15.087683763758486"><ele>90.0</ele><time>2026-03-26T18:31:57Z</time></trkpt><trkpt lat="40.609372600254034" lon="15.088039448917177"><ele>90.5</ele><time>2026-03-26T18:31:58Z</time></trkpt><trkpt lat="40.60934569509534" lon="15.088389694494143"><ele>91.0</ele><time>2026-03-26T18:31:59Z</time></trkpt><trkpt lat="40.60931483621434" lon="15.088739440492944"><ele>91.0</ele><time>2026-03-26T18:32:00Z</time></trkpt><trkpt lat="40.60927861752122" lon="15.089087114938039"><ele>91.0</ele><time>2026-03-26T18:32:01Z</time></trkpt><trkpt lat="40.60923335237377" lon="15.089433893420294"><ele>92.5</ele><time>2026-03-26T18:32:02Z</time></trkpt><trkpt lat="40.609178930482535" lon="15.089778249209518"><ele>94.0</ele><time>2026-03-26T18:32:03Z</time></trkpt><trkpt lat="40.60911516318711" lon="15.090114946538979"><ele>95.0</ele><time>2026-03-26T18:32:04Z</time></trkpt><trkpt lat="40.609043997664024" lon="15.090456698996027"><ele>96.0</ele><time>2026-03-26T18:32:05Z</time></trkpt><trkpt lat="40.60896688959358" lon="15.090798957081876"><ele>96.0</ele><time>2026-03-26T18:32:06Z</time></trkpt><trkpt lat="40.6088821505401" lon="15.091140922691215"><ele>96.0</ele><time>2026-03-26T18:32:07Z</time></trkpt><trkpt lat="40.60879049093092" lon="15.09148157636145"><ele>96.0</ele><time>2026-03-26T18:32:08Z</time></trkpt><trkpt lat="40.60869346118438" lon="15.091818633095672"><ele>96.0</ele><time>2026-03-26T18:32:09Z</time></trkpt><trkpt lat="40.608591635063696" lon="15.092157487029876"><ele>95.0</ele><time>2026-03-26T18:32:10Z</time></trkpt><trkpt lat="40.60848441606842" lon="15.09249434410535"><ele>94.0</ele><time>2026-03-26T18:32:11Z</time></trkpt><trkpt lat="40.6083745843691" lon="15.092824281440876"><ele>94.0</ele><time>2026-03-26T18:32:12Z</time></trkpt><trkpt lat="40.608264020323965" lon="15.093151595215636"><ele>94.0</ele><time>2026-03-26T18:32:13Z</time></trkpt><trkpt lat="40.6081513999243" lon="15.093471356390152"><ele>94.5</ele><time>2026-03-26T18:32:14Z</time></trkpt><trkpt lat="40.608039598505655" lon="15.093787354923153"><ele>95.0</ele><time>2026-03-26T18:32:15Z</time></trkpt><trkpt lat="40.60793022644731" lon="15.0941023326779"><ele>95.0</ele><time>2026-03-26T18:32:16Z</time></trkpt><trkpt lat="40.607822732763545" lon="15.094419083768456"><ele>95.0</ele><time>2026-03-26T18:32:17Z</time></trkpt><trkpt lat="40.607719077658906" lon="15.09474027564908"><ele>95.5</ele><time>2026-03-26T18:32:18Z</time></trkpt><trkpt lat="40.607617257131785" lon="15.095063223805399"><ele>96.0</ele><time>2026-03-26T18:32:19Z</time></trkpt><trkpt lat="40.60751655107477" lon="15.095387230924677"><ele>96.0</ele><time>2026-03-26T18:32:20Z</time></trkpt><trkpt lat="40.60741615733634" lon="15.095716524178878"><ele>96.0</ele><time>2026-03-26T18:32:21Z</time></trkpt><trkpt lat="40.60731741637886" lon="15.096048237422313"><ele>96.0</ele><time>2026-03-26T18:32:22Z</time></trkpt><trkpt lat="40.60722197931182" lon="15.096387934074583"><ele>96.0</ele><time>2026-03-26T18:32:23Z</time></trkpt><trkpt lat="40.60713053940794" lon="15.096728693698442"><ele>96.0</ele><time>2026-03-26T18:32:24Z</time></trkpt><trkpt lat="40.607042225800754" lon="15.097071003540757"><ele>96.0</ele><time>2026-03-26T18:32:25Z</time></trkpt><trkpt lat="40.60695856551635" lon="15.0974083794548"><ele>95.0</ele><time>2026-03-26T18:32:26Z</time></trkpt><trkpt lat="40.6068807392316" lon="15.097740784302523"><ele>94.0</ele><time>2026-03-26T18:32:27Z</time></trkpt><trkpt lat="40.60680777700689" lon="15.098075467650093"><ele>95.0</ele><time>2026-03-26T18:32:28Z</time></trkpt><trkpt lat="40.60673901603871" lon="15.098408795177408"><ele>96.0</ele><time>2026-03-26T18:32:29Z</time></trkpt><trkpt lat="40.60667263394413" lon="15.098739654306483"><ele>96.0</ele><time>2026-03-26T18:32:30Z</time></trkpt><trkpt lat="40.60660913188583" lon="15.09906910040625"><ele>96.0</ele><time>2026-03-26T18:32:31Z</time></trkpt><trkpt lat="40.60654911431045" lon="15.099392181866595"><ele>96.0</ele><time>2026-03-26T18:32:32Z</time></trkpt><trkpt lat="40.606489879319625" lon="15.09971216914119"><ele>96.0</ele><time>2026-03-26T18:32:33Z</time></trkpt><trkpt lat="40.60643304539969" lon="15.100034652056253"><ele>95.5</ele><time>2026-03-26T18:32:34Z</time></trkpt><trkpt lat="40.6063767009379" lon="15.10036028947329"><ele>95.0</ele><time>2026-03-26T18:32:35Z</time></trkpt><trkpt lat="40.606322301596414" lon="15.100686016495471"><ele>95.5</ele><time>2026-03-26T18:32:36Z</time></trkpt><trkpt lat="40.60626988103897" lon="15.101013387051385"><ele>96.0</ele><time>2026-03-26T18:32:37Z</time></trkpt><trkpt lat="40.60622015591188" lon="15.101344732301522"><ele>95.0</ele><time>2026-03-26T18:32:38Z</time></trkpt><trkpt lat="40.60617237568271" lon="15.101677987618466"><ele>94.0</ele><time>2026-03-26T18:32:39Z</time></trkpt><trkpt lat="40.606126738337274" lon="15.10201196295578"><ele>94.0</ele><time>2026-03-26T18:32:40Z</time></trkpt><trkpt lat="40.606085399177964" lon="15.102347758016952"><ele>94.0</ele><time>2026-03-26T18:32:41Z</time></trkpt><trkpt lat="40.6060516386813" lon="15.102685640668504"><ele>95.0</ele><time>2026-03-26T18:32:42Z</time></trkpt><trkpt lat="40.606025390569926" lon="15.103027998986873"><ele>96.0</ele><time>2026-03-26T18:32:43Z</time></trkpt><trkpt lat="40.60600556097563" lon="15.103373058836915"><ele>97.0</ele><time>2026-03-26T18:32:44Z</time></trkpt><trkpt lat="40.60599312388807" lon="15.103721115172155"><ele>98.0</ele><time>2026-03-26T18:32:45Z</time></trkpt><trkpt lat="40.60598843312533" lon="15.104069833690641"><ele>98.5</ele><time>2026-03-26T18:32:46Z</time></trkpt><trkpt lat="40.60599007398458" lon="15.104421697790974"><ele>99.0</ele><time>2026-03-26T18:32:47Z</time></trkpt><trkpt lat="40.60599863438207" lon="15.104773820741691"><ele>99.5</ele><time>2026-03-26T18:32:48Z</time></trkpt><trkpt lat="40.606012220593726" lon="15.105127525773062"><ele>100.0</ele><time>2026-03-26T18:32:49Z</time></trkpt><trkpt lat="40.60602927704078" lon="15.105482679491287"><ele>99.5</ele><time>2026-03-26T18:32:50Z</time></trkpt><trkpt lat="40.6060489322213" lon="15.105836294409164"><ele>99.0</ele><time>2026-03-26T18:32:51Z</time></trkpt><trkpt lat="40.60607190651512" lon="15.106192831924213"><ele>99.0</ele><time>2026-03-26T18:32:52Z</time></trkpt><trkpt lat="40.60609491486552" lon="15.106550574211527"><ele>99.0</ele><time>2026-03-26T18:32:53Z</time></trkpt><trkpt lat="40.60611543268727" lon="15.106904240787157"><ele>96.5</ele><time>2026-03-26T18:32:54Z</time></trkpt><trkpt lat="40.60613587549633" lon="15.107256013799075"><ele>94.0</ele><time>2026-03-26T18:32:55Z</time></trkpt><trkpt lat="40.60615756243858" lon="15.107604820215274"><ele>95.5</ele><time>2026-03-26T18:32:56Z</time></trkpt><trkpt lat="40.606177433138775" lon="15.10794962411813"><ele>97.0</ele><time>2026-03-26T18:32:57Z</time></trkpt><trkpt lat="40.60619613843681" lon="15.10829385065625"><ele>98.5</ele><time>2026-03-26T18:32:58Z</time></trkpt><trkpt lat="40.606215182877754" lon="15.10863753189782"><ele>100.0</ele><time>2026-03-26T18:32:59Z</time></trkpt><trkpt lat="40.60623512499703" lon="15.10898064702671"><ele>102.0</ele><time>2026-03-26T18:33:00Z</time></trkpt><trkpt lat="40.606253871809926" lon="15.109320729542256"><ele>104.0</ele><time>2026-03-26T18:33:01Z</time></trkpt><trkpt lat="40.60627061800451" lon="15.109664783987013"><ele>104.5</ele><time>2026-03-26T18:33:02Z</time></trkpt><trkpt lat="40.606285347000615" lon="15.110012031765674"><ele>105.0</ele><time>2026-03-26T18:33:03Z</time></trkpt><trkpt lat="40.606299781565355" lon="15.110359831655108"><ele>105.0</ele><time>2026-03-26T18:33:04Z</time></trkpt><trkpt lat="40.60631599343777" lon="15.110708973226142"><ele>105.0</ele><time>2026-03-26T18:33:05Z</time></trkpt><trkpt lat="40.60633264047513" lon="15.111060478206515"><ele>105.0</ele><time>2026-03-26T18:33:06Z</time></trkpt><trkpt lat="40.606351081272" lon="15.111409889684847"><ele>105.0</ele><time>2026-03-26T18:33:07Z</time></trkpt><trkpt lat="40.60637213850882" lon="15.111759311278423"><ele>105.0</ele><time>2026-03-26T18:33:08Z</time></trkpt><trkpt lat="40.60639377763378" lon="15.112104823646975"><ele>105.0</ele><time>2026-03-26T18:33:09Z</time></trkpt><trkpt lat="40.606415187489894" lon="15.112451186497413"><ele>106.0</ele><time>2026-03-26T18:33:10Z</time></trkpt><trkpt lat="40.60643581801727" lon="15.112798206124385"><ele>107.0</ele><time>2026-03-26T18:33:11Z</time></trkpt><trkpt lat="40.60645625184774" lon="15.113144492756266"><ele>107.0</ele><time>2026-03-26T18:33:12Z</time></trkpt><trkpt lat="40.60647701110411" lon="15.113491380056137"><ele>107.0</ele><time>2026-03-26T18:33:13Z</time></trkpt><trkpt lat="40.606496240914375" lon="15.113839802962348"><ele>107.0</ele><time>2026-03-26T18:33:14Z</time></trkpt><trkpt lat="40.606515913442315" lon="15.114188277741187"><ele>107.0</ele><time>2026-03-26T18:33:15Z</time></trkpt><trkpt lat="40.606534752791326" lon="15.114537738436342"><ele>107.0</ele><time>2026-03-26T18:33:16Z</time></trkpt><trkpt lat="40.60655321434126" lon="15.11488655169141"><ele>107.0</ele><time>2026-03-26T18:33:17Z</time></trkpt><trkpt lat="40.606572449970926" lon="15.115236435150203"><ele>107.5</ele><time>2026-03-26T18:33:18Z</time></trkpt><trkpt lat="40.60659414410463" lon="15.115589715255492"><ele>108.0</ele><time>2026-03-26T18:33:19Z</time></trkpt><trkpt lat="40.606616542997244" lon="15.115939305374528"><ele>106.5</ele><time>2026-03-26T18:33:20Z</time></trkpt><trkpt lat="40.60663795891949" lon="15.11629084588934"><ele>105.0</ele><time>2026-03-26T18:33:21Z</time></trkpt><trkpt lat="40.60666007905346" lon="15.116636939810686"><ele>105.0</ele><time>2026-03-26T18:33:22Z</time></trkpt><trkpt lat="40.60668601586213" lon="15.11698862999914"><ele>105.0</ele><time>2026-03-26T18:33:23Z</time></trkpt><trkpt lat="40.60671777838021" lon="15.117344176441263"><ele>106.5</ele><time>2026-03-26T18:33:24Z</time></trkpt><trkpt lat="40.606753541439446" lon="15.117702920154601"><ele>108.0</ele><time>2026-03-26T18:33:25Z</time></trkpt><trkpt lat="40.606792043268996" lon="15.118059517707373"><ele>108.0</ele><time>2026-03-26T18:33:26Z</time></trkpt><trkpt lat="40.60682806473829" lon="15.118418162744723"><ele>108.0</ele><time>2026-03-26T18:33:27Z</time></trkpt><trkpt lat="40.60686238588835" lon="15.118779212405611"><ele>107.5</ele><time>2026-03-26T18:33:28Z</time></trkpt><trkpt lat="40.60689667579519" lon="15.119141376772825"><ele>107.0</ele><time>2026-03-26T18:33:29Z</time></trkpt><trkpt lat="40.606933605124" lon="15.119508982381333"><ele>107.0</ele><time>2026-03-26T18:33:30Z</time></trkpt><trkpt lat="40.60696603761182" lon="15.11988151819063"><ele>107.0</ele><time>2026-03-26T18:33:31Z</time></trkpt><trkpt lat="40.60699973581409" lon="15.120253050700134"><ele>106.5</ele><time>2026-03-26T18:33:32Z</time></trkpt><trkpt lat="40.607033973418694" lon="15.120591804161418"><ele>106.0</ele><time>2026-03-26T18:33:33Z</time></trkpt><trkpt lat="40.607067462774495" lon="15.120953217598103"><ele>106.0</ele><time>2026-03-26T18:33:34Z</time></trkpt><trkpt lat="40.60710109429536" lon="15.12131580462258"><ele>106.0</ele><time>2026-03-26T18:33:35Z</time></trkpt><trkpt lat="40.60713418477242" lon="15.121679965691865"><ele>104.5</ele><time>2026-03-26T18:33:36Z</time></trkpt><trkpt lat="40.60716602560915" lon="15.122042835784782"><ele>103.0</ele><time>2026-03-26T18:33:37Z</time></trkpt><trkpt lat="40.60719625900568" lon="15.122407687012377"><ele>96.0</ele><time>2026-03-26T18:33:38Z</time></trkpt><trkpt lat="40.6072265301528" lon="15.12276815095357"><ele>89.0</ele><time>2026-03-26T18:33:39Z</time></trkpt><trkpt lat="40.607257458438525" lon="15.123125040793843"><ele>88.5</ele><time>2026-03-26T18:33:40Z</time></trkpt><trkpt lat="40.60729000608669" lon="15.123482984410925"><ele>88.0</ele><time>2026-03-26T18:33:41Z</time></trkpt><trkpt lat="40.607319613464476" lon="15.12384642766699"><ele>93.5</ele><time>2026-03-26T18:33:42Z</time></trkpt><trkpt lat="40.6073482160715" lon="15.12420768047759"><ele>99.0</ele><time>2026-03-26T18:33:43Z</time></trkpt><trkpt lat="40.60737761818538" lon="15.124569725098802"><ele>100.5</ele><time>2026-03-26T18:33:44Z</time></trkpt><trkpt lat="40.60740929617452" lon="15.12492699847685"><ele>102.0</ele><time>2026-03-26T18:33:45Z</time></trkpt><trkpt lat="40.60744256615375" lon="15.125282167668976"><ele>102.0</ele><time>2026-03-26T18:33:46Z</time></trkpt><trkpt lat="40.607476583905765" lon="15.125637754241813"><ele>102.0</ele><time>2026-03-26T18:33:47Z</time></trkpt><trkpt lat="40.60751445276676" lon="15.125991008978755"><ele>101.0</ele><time>2026-03-26T18:33:48Z</time></trkpt><trkpt lat="40.60755845063392" lon="15.126343805355027"><ele>100.0</ele><time>2026-03-26T18:33:49Z</time></trkpt><trkpt lat="40.60760875426393" lon="15.126699896532658"><ele>100.0</ele><time>2026-03-26T18:33:50Z</time></trkpt><trkpt lat="40.60766442125163" lon="15.12705468053194"><ele>100.0</ele><time>2026-03-26T18:33:51Z</time></trkpt><trkpt lat="40.60772546373635" lon="15.127413122851596"><ele>99.5</ele><time>2026-03-26T18:33:52Z</time></trkpt><trkpt lat="40.60778995751331" lon="15.12777157077193"><ele>99.0</ele><time>2026-03-26T18:33:53Z</time></trkpt><trkpt lat="40.60785904719512" lon="15.128132299984262"><ele>89.0</ele><time>2026-03-26T18:33:54Z</time></trkpt><trkpt lat="40.607935626711885" lon="15.128488554941564"><ele>79.0</ele><time>2026-03-26T18:33:55Z</time></trkpt><trkpt lat="40.60801559933395" lon="15.128839751758582"><ele>68.5</ele><time>2026-03-26T18:33:56Z</time></trkpt><trkpt lat="40.60810045768147" lon="15.129179505693953"><ele>58.0</ele><time>2026-03-26T18:33:57Z</time></trkpt><trkpt lat="40.60818708382467" lon="15.12951482957813"><ele>57.0</ele><time>2026-03-26T18:33:58Z</time></trkpt><trkpt lat="40.608281621903856" lon="15.129911425757324"><ele>56.0</ele><time>2026-03-26T18:33:59Z</time></trkpt><trkpt lat="40.6083882228902" lon="15.130251738325503"><ele>56.0</ele><time>2026-03-26T18:34:00Z</time></trkpt><trkpt lat="40.608494719038596" lon="15.13059607502849"><ele>56.0</ele><time>2026-03-26T18:34:01Z</time></trkpt><trkpt lat="40.60861458407653" lon="15.130933329419065"><ele>64.5</ele><time>2026-03-26T18:34:02Z</time></trkpt><trkpt lat="40.608736286467185" lon="15.131266326495798"><ele>73.0</ele><time>2026-03-26T18:34:03Z</time></trkpt><trkpt lat="40.608861168759375" lon="15.13159268226835"><ele>81.5</ele><time>2026-03-26T18:34:04Z</time></trkpt><trkpt lat="40.60899891177826" lon="15.131926819553488"><ele>90.0</ele><time>2026-03-26T18:34:05Z</time></trkpt><trkpt lat="40.60914508775226" lon="15.132240726423534"><ele>95.5</ele><time>2026-03-26T18:34:06Z</time></trkpt><trkpt lat="40.6092913429068" lon="15.132564006354578"><ele>101.0</ele><time>2026-03-26T18:34:07Z</time></trkpt><trkpt lat="40.60943910929323" lon="15.132885908189898"><ele>101.0</ele><time>2026-03-26T18:34:08Z</time></trkpt><trkpt lat="40.60962783453384" lon="15.133148040556451"><ele>101.0</ele><time>2026-03-26T18:34:09Z</time></trkpt><trkpt lat="40.609818435137775" lon="15.133494744404407"><ele>101.0</ele><time>2026-03-26T18:34:10Z</time></trkpt><trkpt lat="40.61000381297794" lon="15.133813669305214"><ele>101.0</ele><time>2026-03-26T18:34:11Z</time></trkpt><trkpt lat="40.610178280357225" lon="15.134127188994086"><ele>88.0</ele><time>2026-03-26T18:34:12Z</time></trkpt><trkpt lat="40.61023753322024" lon="15.134738473229332"><ele>85.5</ele><time>2026-03-26T18:34:14Z</time></trkpt><trkpt lat="40.61033791401621" lon="15.135025049005558"><ele>83.0</ele><time>2026-03-26T18:34:15Z</time></trkpt><trkpt lat="40.61057608326447" lon="15.135508332820168"><ele>78.0</ele><time>2026-03-26T18:34:16Z</time></trkpt><trkpt lat="40.61071987835808" lon="15.135884624477454"><ele>73.0</ele><time>2026-03-26T18:34:17Z</time></trkpt><trkpt lat="40.610862171190846" lon="15.13619421262161"><ele>73.0</ele><time>2026-03-26T18:34:18Z</time></trkpt><trkpt lat="40.611008827388396" lon="15.13651686797694"><ele>73.0</ele><time>2026-03-26T18:34:19Z</time></trkpt><trkpt lat="40.61114635764537" lon="15.13684778627027"><ele>71.0</ele><time>2026-03-26T18:34:20Z</time></trkpt><trkpt lat="40.611290040451784" lon="15.137179317360934"><ele>69.0</ele><time>2026-03-26T18:34:21Z</time></trkpt><trkpt lat="40.61143007346064" lon="15.13750387598677"><ele>68.0</ele><time>2026-03-26T18:34:22Z</time></trkpt><trkpt lat="40.61157078219411" lon="15.137836019397636"><ele>67.0</ele><time>2026-03-26T18:34:23Z</time></trkpt><trkpt lat="40.6117133915727" lon="15.13816945269468"><ele>66.5</ele><time>2026-03-26T18:34:24Z</time></trkpt><trkpt lat="40.61185002451187" lon="15.138506776389217"><ele>66.0</ele><time>2026-03-26T18:34:25Z</time></trkpt><trkpt lat="40.61199028274895" lon="15.138837873257744"><ele>69.0</ele><time>2026-03-26T18:34:26Z</time></trkpt><trkpt lat="40.61213063708971" lon="15.139164674787507"><ele>72.0</ele><time>2026-03-26T18:34:27Z</time></trkpt><trkpt lat="40.61226532459383" lon="15.13949709758176"><ele>72.0</ele><time>2026-03-26T18:34:28Z</time></trkpt><trkpt lat="40.61239611006284" lon="15.13983259349442"><ele>72.0</ele><time>2026-03-26T18:34:29Z</time></trkpt><trkpt lat="40.61251989178683" lon="15.14016820901852"><ele>70.5</ele><time>2026-03-26T18:34:30Z</time></trkpt><trkpt lat="40.61263984312044" lon="15.140505048339689"><ele>69.0</ele><time>2026-03-26T18:34:31Z</time></trkpt><trkpt lat="40.61275230176469" lon="15.140844871520544"><ele>72.0</ele><time>2026-03-26T18:34:32Z</time></trkpt><trkpt lat="40.61285849029609" lon="15.141190703306135"><ele>75.0</ele><time>2026-03-26T18:34:33Z</time></trkpt><trkpt lat="40.612959820413245" lon="15.14154695015401"><ele>71.5</ele><time>2026-03-26T18:34:34Z</time></trkpt><trkpt lat="40.61305379104094" lon="15.141908916867996"><ele>68.0</ele><time>2026-03-26T18:34:35Z</time></trkpt><trkpt lat="40.613137361274084" lon="15.142265773942439"><ele>65.0</ele><time>2026-03-26T18:34:36Z</time></trkpt><trkpt lat="40.61320264580459" lon="15.142610787638768"><ele>62.0</ele><time>2026-03-26T18:34:37Z</time></trkpt><trkpt lat="40.613256697302766" lon="15.142938199644755"><ele>60.5</ele><time>2026-03-26T18:34:38Z</time></trkpt><trkpt lat="40.613289434045164" lon="15.14327450558082"><ele>59.0</ele><time>2026-03-26T18:34:39Z</time></trkpt><trkpt lat="40.613335954479076" lon="15.143616677022608"><ele>59.0</ele><time>2026-03-26T18:34:40Z</time></trkpt><trkpt lat="40.61337460540523" lon="15.143960836593132"><ele>59.0</ele><time>2026-03-26T18:34:41Z</time></trkpt><trkpt lat="40.61340184158814" lon="15.14430341225124"><ele>58.5</ele><time>2026-03-26T18:34:42Z</time></trkpt><trkpt lat="40.61341991349552" lon="15.144653545020482"><ele>58.0</ele><time>2026-03-26T18:34:43Z</time></trkpt><trkpt lat="40.613431805907084" lon="15.145006243816184"><ele>57.5</ele><time>2026-03-26T18:34:44Z</time></trkpt><trkpt lat="40.613435324805025" lon="15.145363445314576"><ele>57.0</ele><time>2026-03-26T18:34:45Z</time></trkpt><trkpt lat="40.61343327774977" lon="15.145721069699443"><ele>58.0</ele><time>2026-03-26T18:34:46Z</time></trkpt><trkpt lat="40.613429126468695" lon="15.146082059388128"><ele>59.0</ele><time>2026-03-26T18:34:47Z</time></trkpt><trkpt lat="40.61342215563269" lon="15.146444822001177"><ele>60.0</ele><time>2026-03-26T18:34:48Z</time></trkpt><trkpt lat="40.61340917900526" lon="15.146808595054964"><ele>61.0</ele><time>2026-03-26T18:34:49Z</time></trkpt><trkpt lat="40.61339451348666" lon="15.147174994022519"><ele>61.5</ele><time>2026-03-26T18:34:50Z</time></trkpt><trkpt lat="40.61338353046263" lon="15.147543985502239"><ele>62.0</ele><time>2026-03-26T18:34:51Z</time></trkpt><trkpt lat="40.61337977095116" lon="15.147912814004979"><ele>63.0</ele><time>2026-03-26T18:34:52Z</time></trkpt><trkpt lat="40.61338290025123" lon="15.148289260685226"><ele>64.0</ele><time>2026-03-26T18:34:53Z</time></trkpt><trkpt lat="40.61339202202087" lon="15.14866657190121"><ele>64.0</ele><time>2026-03-26T18:34:54Z</time></trkpt><trkpt lat="40.61340871904781" lon="15.14904186775789"><ele>64.0</ele><time>2026-03-26T18:34:55Z</time></trkpt><trkpt lat="40.613438014162064" lon="15.149413412571853"><ele>63.5</ele><time>2026-03-26T18:34:56Z</time></trkpt><trkpt lat="40.61347772416443" lon="15.149782677302944"><ele>63.0</ele><time>2026-03-26T18:34:57Z</time></trkpt><trkpt lat="40.61352637332487" lon="15.150151053194383"><ele>62.0</ele><time>2026-03-26T18:34:58Z</time></trkpt><trkpt lat="40.61358265922355" lon="15.150519881424628"><ele>61.0</ele><time>2026-03-26T18:34:59Z</time></trkpt><trkpt lat="40.613646988755576" lon="15.150888811163181"><ele>64.0</ele><time>2026-03-26T18:35:00Z</time></trkpt><trkpt lat="40.6137203311882" lon="15.151256085055616"><ele>67.0</ele><time>2026-03-26T18:35:01Z</time></trkpt><trkpt lat="40.61380225903701" lon="15.15162476985479"><ele>67.0</ele><time>2026-03-26T18:35:02Z</time></trkpt><trkpt lat="40.61389188505698" lon="15.151993450865337"><ele>67.0</ele><time>2026-03-26T18:35:03Z</time></trkpt><trkpt lat="40.61398663697006" lon="15.152360728782986"><ele>63.5</ele><time>2026-03-26T18:35:04Z</time></trkpt><trkpt lat="40.614081600872474" lon="15.152727154265229"><ele>60.0</ele><time>2026-03-26T18:35:05Z</time></trkpt><trkpt lat="40.61417399076463" lon="15.153095328023513"><ele>57.5</ele><time>2026-03-26T18:35:06Z</time></trkpt><trkpt lat="40.61426697881469" lon="15.15346433374558"><ele>55.0</ele><time>2026-03-26T18:35:07Z</time></trkpt><trkpt lat="40.61435947934437" lon="15.153832655723654"><ele>55.0</ele><time>2026-03-26T18:35:08Z</time></trkpt><trkpt lat="40.61445465387551" lon="15.154201422180796"><ele>55.0</ele><time>2026-03-26T18:35:09Z</time></trkpt><trkpt lat="40.61455118626607" lon="15.154567635557028"><ele>53.5</ele><time>2026-03-26T18:35:10Z</time></trkpt><trkpt lat="40.61464951209009" lon="15.154932064221367"><ele>52.0</ele><time>2026-03-26T18:35:11Z</time></trkpt><trkpt lat="40.614746653986806" lon="15.155296094683782"><ele>52.0</ele><time>2026-03-26T18:35:12Z</time></trkpt><trkpt lat="40.61484462412698" lon="15.15566107387137"><ele>52.0</ele><time>2026-03-26T18:35:13Z</time></trkpt><trkpt lat="40.61494267687165" lon="15.15602506436567"><ele>52.0</ele><time>2026-03-26T18:35:14Z</time></trkpt><trkpt lat="40.615038929094474" lon="15.156394118292559"><ele>52.0</ele><time>2026-03-26T18:35:15Z</time></trkpt><trkpt lat="40.61513413250939" lon="15.156757732009977"><ele>52.0</ele><time>2026-03-26T18:35:16Z</time></trkpt><trkpt lat="40.61523177775907" lon="15.157128416904154"><ele>52.0</ele><time>2026-03-26T18:35:17Z</time></trkpt><trkpt lat="40.615327564066135" lon="15.157492949989196"><ele>51.0</ele><time>2026-03-26T18:35:18Z</time></trkpt><trkpt lat="40.61542427011663" lon="15.157859536463073"><ele>50.0</ele><time>2026-03-26T18:35:19Z</time></trkpt><trkpt lat="40.61552218567979" lon="15.158223416971579"><ele>50.0</ele><time>2026-03-26T18:35:20Z</time></trkpt><trkpt lat="40.6156189301757" lon="15.158587058779233"><ele>50.0</ele><time>2026-03-26T18:35:21Z</time></trkpt><trkpt lat="40.61571652998004" lon="15.15895048154931"><ele>50.5</ele><time>2026-03-26T18:35:22Z</time></trkpt><trkpt lat="40.615813776024574" lon="15.159309922730287"><ele>51.0</ele><time>2026-03-26T18:35:23Z</time></trkpt><trkpt lat="40.61591052971957" lon="15.159670213887427"><ele>51.5</ele><time>2026-03-26T18:35:24Z</time></trkpt><trkpt lat="40.61600845525484" lon="15.160028367068307"><ele>52.0</ele><time>2026-03-26T18:35:25Z</time></trkpt><trkpt lat="40.61610582054586" lon="15.160392257919051"><ele>52.5</ele><time>2026-03-26T18:35:26Z</time></trkpt><trkpt lat="40.61620102859606" lon="15.160748085341602"><ele>53.0</ele><time>2026-03-26T18:35:27Z</time></trkpt><trkpt lat="40.61629684991889" lon="15.161112074060899"><ele>53.0</ele><time>2026-03-26T18:35:28Z</time></trkpt><trkpt lat="40.616391282921654" lon="15.16146943213308"><ele>53.0</ele><time>2026-03-26T18:35:29Z</time></trkpt><trkpt lat="40.61648689216656" lon="15.161830971128412"><ele>53.0</ele><time>2026-03-26T18:35:30Z</time></trkpt><trkpt lat="40.616583537707236" lon="15.162189228237274"><ele>53.0</ele><time>2026-03-26T18:35:31Z</time></trkpt><trkpt lat="40.61668071313399" lon="15.162545625004778"><ele>53.0</ele><time>2026-03-26T18:35:32Z</time></trkpt><trkpt lat="40.616778871453995" lon="15.16290535651677"><ele>53.0</ele><time>2026-03-26T18:35:33Z</time></trkpt><trkpt lat="40.6168760276375" lon="15.163264021300796"><ele>53.0</ele><time>2026-03-26T18:35:34Z</time></trkpt><trkpt lat="40.61697123682037" lon="15.163618442018075"><ele>53.0</ele><time>2026-03-26T18:35:35Z</time></trkpt><trkpt lat="40.617064353004146" lon="15.163975827240375"><ele>52.0</ele><time>2026-03-26T18:35:36Z</time></trkpt><trkpt lat="40.617157498084964" lon="15.16433255221001"><ele>51.0</ele><time>2026-03-26T18:35:37Z</time></trkpt><trkpt lat="40.61725046817899" lon="15.164691113335664"><ele>51.0</ele><time>2026-03-26T18:35:38Z</time></trkpt><trkpt lat="40.61734360195622" lon="15.165047902745972"><ele>51.0</ele><time>2026-03-26T18:35:39Z</time></trkpt><trkpt lat="40.617438983081286" lon="15.165404807394902"><ele>50.5</ele><time>2026-03-26T18:35:40Z</time></trkpt><trkpt lat="40.617536489126195" lon="15.165759747480962"><ele>50.0</ele><time>2026-03-26T18:35:41Z</time></trkpt><trkpt lat="40.61763537143294" lon="15.166117628551394"><ele>50.0</ele><time>2026-03-26T18:35:42Z</time></trkpt><trkpt lat="40.61773498371554" lon="15.166477491906923"><ele>50.0</ele><time>2026-03-26T18:35:43Z</time></trkpt><trkpt lat="40.61783706811257" lon="15.166836699699658"><ele>50.5</ele><time>2026-03-26T18:35:44Z</time></trkpt><trkpt lat="40.6179412009991" lon="15.16719232253573"><ele>51.0</ele><time>2026-03-26T18:35:45Z</time></trkpt><trkpt lat="40.61804475487623" lon="15.167551459017645"><ele>51.0</ele><time>2026-03-26T18:35:46Z</time></trkpt><trkpt lat="40.61814349606505" lon="15.16791182433882"><ele>51.0</ele><time>2026-03-26T18:35:47Z</time></trkpt><trkpt lat="40.61824215728628" lon="15.168271363425644"><ele>51.0</ele><time>2026-03-26T18:35:48Z</time></trkpt><trkpt lat="40.61834423450951" lon="15.168629492258239"><ele>51.0</ele><time>2026-03-26T18:35:49Z</time></trkpt><trkpt lat="40.618450481906464" lon="15.168983819284993"><ele>52.0</ele><time>2026-03-26T18:35:50Z</time></trkpt><trkpt lat="40.61855689773215" lon="15.169334314614018"><ele>53.0</ele><time>2026-03-26T18:35:51Z</time></trkpt><trkpt lat="40.618665941572864" lon="15.169691468759444"><ele>55.0</ele><time>2026-03-26T18:35:52Z</time></trkpt><trkpt lat="40.61877560194291" lon="15.17004726964223"><ele>57.0</ele><time>2026-03-26T18:35:53Z</time></trkpt><trkpt lat="40.618890141158566" lon="15.170400828484437"><ele>57.5</ele><time>2026-03-26T18:35:54Z</time></trkpt><trkpt lat="40.61901127985702" lon="15.170752308636333"><ele>58.0</ele><time>2026-03-26T18:35:55Z</time></trkpt><trkpt lat="40.61913833664409" lon="15.171097979204552"><ele>58.0</ele><time>2026-03-26T18:35:56Z</time></trkpt><trkpt lat="40.61926902887876" lon="15.171440860110925"><ele>58.0</ele><time>2026-03-26T18:35:57Z</time></trkpt><trkpt lat="40.619403865214025" lon="15.171781391898122"><ele>66.5</ele><time>2026-03-26T18:35:58Z</time></trkpt><trkpt lat="40.61954931760579" lon="15.172140647167312"><ele>75.0</ele><time>2026-03-26T18:35:59Z</time></trkpt><trkpt lat="40.61969788902675" lon="15.172496798500413"><ele>78.0</ele><time>2026-03-26T18:36:00Z</time></trkpt><trkpt lat="40.619850534574326" lon="15.172847594945916"><ele>81.0</ele><time>2026-03-26T18:36:01Z</time></trkpt><trkpt lat="40.620004179146854" lon="15.173201879733453"><ele>82.5</ele><time>2026-03-26T18:36:02Z</time></trkpt><trkpt lat="40.62015702932317" lon="15.173556500198949"><ele>84.0</ele><time>2026-03-26T18:36:03Z</time></trkpt><trkpt lat="40.62029944696938" lon="15.173899734786596"><ele>94.5</ele><time>2026-03-26T18:36:04Z</time></trkpt><trkpt lat="40.62044686765793" lon="15.174248296815575"><ele>105.0</ele><time>2026-03-26T18:36:05Z</time></trkpt><trkpt lat="40.62059898530273" lon="15.174599105868845"><ele>109.0</ele><time>2026-03-26T18:36:06Z</time></trkpt><trkpt lat="40.620752965713116" lon="15.174951923081146"><ele>113.0</ele><time>2026-03-26T18:36:07Z</time></trkpt><trkpt lat="40.62090685865143" lon="15.175305942906341"><ele>113.0</ele><time>2026-03-26T18:36:08Z</time></trkpt><trkpt lat="40.62106026953166" lon="15.175658101662423"><ele>113.0</ele><time>2026-03-26T18:36:09Z</time></trkpt><trkpt lat="40.62121301199628" lon="15.176010475790191"><ele>123.0</ele><time>2026-03-26T18:36:10Z</time></trkpt><trkpt lat="40.621589716854494" lon="15.176148901155786"><ele>133.0</ele><time>2026-03-26T18:36:11Z</time></trkpt><trkpt lat="40.621792466964614" lon="15.176464025086412"><ele>133.5</ele><time>2026-03-26T18:36:12Z</time></trkpt><trkpt lat="40.621996769383344" lon="15.176777203020796"><ele>134.0</ele><time>2026-03-26T18:36:13Z</time></trkpt><trkpt lat="40.62220212571929" lon="15.177088379033634"><ele>125.0</ele><time>2026-03-26T18:36:14Z</time></trkpt><trkpt lat="40.622409165984536" lon="15.177395646447808"><ele>116.0</ele><time>2026-03-26T18:36:15Z</time></trkpt><trkpt lat="40.62261938869369" lon="15.177698314834455"><ele>115.5</ele><time>2026-03-26T18:36:16Z</time></trkpt><trkpt lat="40.62282783821973" lon="15.17800627554503"><ele>115.0</ele><time>2026-03-26T18:36:17Z</time></trkpt><trkpt lat="40.623037742951475" lon="15.178316826966388"><ele>108.0</ele><time>2026-03-26T18:36:18Z</time></trkpt><trkpt lat="40.623251122556056" lon="15.178623914339074"><ele>101.0</ele><time>2026-03-26T18:36:19Z</time></trkpt><trkpt lat="40.623464848037116" lon="15.178932944615847"><ele>94.5</ele><time>2026-03-26T18:36:20Z</time></trkpt><trkpt lat="40.623676156757625" lon="15.179245601820547"><ele>88.0</ele><time>2026-03-26T18:36:21Z</time></trkpt><trkpt lat="40.62388477349572" lon="15.17955986979778"><ele>84.0</ele><time>2026-03-26T18:36:22Z</time></trkpt><trkpt lat="40.624094417073636" lon="15.179874185824598"><ele>80.0</ele><time>2026-03-26T18:36:23Z</time></trkpt><trkpt lat="40.62429537834296" lon="15.18018817345338"><ele>79.0</ele><time>2026-03-26T18:36:24Z</time></trkpt><trkpt lat="40.62449129865846" lon="15.180498781261386"><ele>78.0</ele><time>2026-03-26T18:36:25Z</time></trkpt><trkpt lat="40.624684232112536" lon="15.180812575561253"><ele>74.5</ele><time>2026-03-26T18:36:26Z</time></trkpt><trkpt lat="40.624874858339346" lon="15.181130135581308"><ele>71.0</ele><time>2026-03-26T18:36:27Z</time></trkpt><trkpt lat="40.62506060230156" lon="15.18145434608302"><ele>71.0</ele><time>2026-03-26T18:36:28Z</time></trkpt><trkpt lat="40.624846613298985" lon="15.18119273385222"><ele>71.0</ele><time>2026-03-26T18:36:29Z</time></trkpt><trkpt lat="40.62515806497714" lon="15.181689608759314"><ele>68.5</ele><time>2026-03-26T18:36:30Z</time></trkpt><trkpt lat="40.62533491742125" lon="15.182061006872408"><ele>66.0</ele><time>2026-03-26T18:36:31Z</time></trkpt><trkpt lat="40.62549000293105" lon="15.182386214765213"><ele>65.5</ele><time>2026-03-26T18:36:32Z</time></trkpt><trkpt lat="40.625638782941046" lon="15.182696554793077"><ele>65.0</ele><time>2026-03-26T18:36:33Z</time></trkpt><trkpt lat="40.62578451681124" lon="15.183008002670253"><ele>65.0</ele><time>2026-03-26T18:36:34Z</time></trkpt><trkpt lat="40.62591368008806" lon="15.183326279514127"><ele>65.0</ele><time>2026-03-26T18:36:35Z</time></trkpt><trkpt lat="40.626021507817896" lon="15.183641710872452"><ele>65.0</ele><time>2026-03-26T18:36:36Z</time></trkpt><trkpt lat="40.62612579901306" lon="15.183963657285151"><ele>65.0</ele><time>2026-03-26T18:36:37Z</time></trkpt><trkpt lat="40.626232355514205" lon="15.184290804700726"><ele>65.0</ele><time>2026-03-26T18:36:38Z</time></trkpt><trkpt lat="40.62632955165113" lon="15.18462061913274"><ele>65.0</ele><time>2026-03-26T18:36:39Z</time></trkpt><trkpt lat="40.62642187368999" lon="15.184957989060504"><ele>65.0</ele><time>2026-03-26T18:36:40Z</time></trkpt><trkpt lat="40.62650881816824" lon="15.185297024700189"><ele>65.0</ele><time>2026-03-26T18:36:41Z</time></trkpt><trkpt lat="40.626586507438994" lon="15.185642494274896"><ele>63.0</ele><time>2026-03-26T18:36:42Z</time></trkpt><trkpt lat="40.62665688966304" lon="15.185989869637902"><ele>61.0</ele><time>2026-03-26T18:36:43Z</time></trkpt><trkpt lat="40.626722900901896" lon="15.186340208819514"><ele>61.0</ele><time>2026-03-26T18:36:44Z</time></trkpt><trkpt lat="40.62678186687073" lon="15.186695948912497"><ele>61.0</ele><time>2026-03-26T18:36:45Z</time></trkpt><trkpt lat="40.626835520344876" lon="15.187053966064335"><ele>61.0</ele><time>2026-03-26T18:36:46Z</time></trkpt><trkpt lat="40.626882397013524" lon="15.187417752724848"><ele>61.0</ele><time>2026-03-26T18:36:47Z</time></trkpt><trkpt lat="40.62692438378114" lon="15.187777726209182"><ele>61.0</ele><time>2026-03-26T18:36:48Z</time></trkpt><trkpt lat="40.62695322734727" lon="15.188148929240937"><ele>61.0</ele><time>2026-03-26T18:36:49Z</time></trkpt><trkpt lat="40.626976394293436" lon="15.188521983718086"><ele>62.5</ele><time>2026-03-26T18:36:50Z</time></trkpt><trkpt lat="40.62699367082901" lon="15.188890598061493"><ele>64.0</ele><time>2026-03-26T18:36:51Z</time></trkpt><trkpt lat="40.62700301403739" lon="15.1892625440904"><ele>64.0</ele><time>2026-03-26T18:36:52Z</time></trkpt><trkpt lat="40.62700606192602" lon="15.189636165099545"><ele>64.0</ele><time>2026-03-26T18:36:53Z</time></trkpt><trkpt lat="40.626999921499745" lon="15.190011528010764"><ele>63.0</ele><time>2026-03-26T18:36:54Z</time></trkpt><trkpt lat="40.62698489577803" lon="15.190389908048497"><ele>62.0</ele><time>2026-03-26T18:36:55Z</time></trkpt><trkpt lat="40.62696622195262" lon="15.190762564733092"><ele>62.0</ele><time>2026-03-26T18:36:56Z</time></trkpt><trkpt lat="40.62694184835606" lon="15.191135583461525"><ele>62.0</ele><time>2026-03-26T18:36:57Z</time></trkpt><trkpt lat="40.62691297484674" lon="15.191511335057276"><ele>62.5</ele><time>2026-03-26T18:36:58Z</time></trkpt><trkpt lat="40.626881951255065" lon="15.191884798574957"><ele>63.0</ele><time>2026-03-26T18:36:59Z</time></trkpt><trkpt lat="40.62684915816199" lon="15.192255687885922"><ele>64.0</ele><time>2026-03-26T18:37:00Z</time></trkpt><trkpt lat="40.62681209740486" lon="15.192625550437786"><ele>65.0</ele><time>2026-03-26T18:37:01Z</time></trkpt><trkpt lat="40.62677008748693" lon="15.192995820127395"><ele>67.0</ele><time>2026-03-26T18:37:02Z</time></trkpt><trkpt lat="40.62672356600418" lon="15.193364503088368"><ele>69.0</ele><time>2026-03-26T18:37:03Z</time></trkpt><trkpt lat="40.62667501686368" lon="15.193732561367431"><ele>70.5</ele><time>2026-03-26T18:37:04Z</time></trkpt><trkpt lat="40.62662457319682" lon="15.19409998244226"><ele>72.0</ele><time>2026-03-26T18:37:05Z</time></trkpt><trkpt lat="40.6265744111744" lon="15.194469266026415"><ele>73.0</ele><time>2026-03-26T18:37:06Z</time></trkpt><trkpt lat="40.62652371012565" lon="15.194838677555232"><ele>74.0</ele><time>2026-03-26T18:37:07Z</time></trkpt><trkpt lat="40.626472324913216" lon="15.195207705869445"><ele>74.0</ele><time>2026-03-26T18:37:08Z</time></trkpt><trkpt lat="40.62642044222864" lon="15.195577315357417"><ele>74.0</ele><time>2026-03-26T18:37:09Z</time></trkpt><trkpt lat="40.62636863568723" lon="15.19594471645977"><ele>76.0</ele><time>2026-03-26T18:37:10Z</time></trkpt><trkpt lat="40.62631881989162" lon="15.196312919383235"><ele>78.0</ele><time>2026-03-26T18:37:11Z</time></trkpt><trkpt lat="40.62626853535863" lon="15.196685266214532"><ele>79.0</ele><time>2026-03-26T18:37:12Z</time></trkpt><trkpt lat="40.62621940809935" lon="15.197057179340753"><ele>80.0</ele><time>2026-03-26T18:37:13Z</time></trkpt><trkpt lat="40.62617558412316" lon="15.197429064883343"><ele>75.5</ele><time>2026-03-26T18:37:14Z</time></trkpt><trkpt lat="40.62613754286865" lon="15.197803658563046"><ele>71.0</ele><time>2026-03-26T18:37:15Z</time></trkpt><trkpt lat="40.62610828115696" lon="15.198175868973186"><ele>71.0</ele><time>2026-03-26T18:37:16Z</time></trkpt><trkpt lat="40.62608828362918" lon="15.198543960182489"><ele>71.0</ele><time>2026-03-26T18:37:17Z</time></trkpt><trkpt lat="40.62607563274958" lon="15.198916208767717"><ele>71.5</ele><time>2026-03-26T18:37:18Z</time></trkpt><trkpt lat="40.62606928337992" lon="15.199289304151113"><ele>72.0</ele><time>2026-03-26T18:37:19Z</time></trkpt><trkpt lat="40.62607043116646" lon="15.199663941228547"><ele>72.5</ele><time>2026-03-26T18:37:20Z</time></trkpt><trkpt lat="40.62607925230942" lon="15.200039076991954"><ele>73.0</ele><time>2026-03-26T18:37:21Z</time></trkpt><trkpt lat="40.6260967533328" lon="15.20042403973637"><ele>74.5</ele><time>2026-03-26T18:37:22Z</time></trkpt><trkpt lat="40.62611677856693" lon="15.200811940116717"><ele>76.0</ele><time>2026-03-26T18:37:23Z</time></trkpt><trkpt lat="40.626138276235416" lon="15.201156417073499"><ele>85.5</ele><time>2026-03-26T18:37:24Z</time></trkpt><trkpt lat="40.626171188669794" lon="15.201524755358266"><ele>95.0</ele><time>2026-03-26T18:37:25Z</time></trkpt><trkpt lat="40.62619653845074" lon="15.201865282532525"><ele>95.0</ele><time>2026-03-26T18:37:26Z</time></trkpt><trkpt lat="40.62623124707923" lon="15.202230567562028"><ele>95.0</ele><time>2026-03-26T18:37:27Z</time></trkpt><trkpt lat="40.62626002991057" lon="15.20258676233801"><ele>96.5</ele><time>2026-03-26T18:37:28Z</time></trkpt><trkpt lat="40.62633098197258" lon="15.202938722149"><ele>98.0</ele><time>2026-03-26T18:37:29Z</time></trkpt><trkpt lat="40.62639101150116" lon="15.203274232702539"><ele>99.0</ele><time>2026-03-26T18:37:30Z</time></trkpt><trkpt lat="40.62645736561036" lon="15.203621000559695"><ele>100.0</ele><time>2026-03-26T18:37:31Z</time></trkpt><trkpt lat="40.62652619129961" lon="15.203963937079356"><ele>98.0</ele><time>2026-03-26T18:37:32Z</time></trkpt><trkpt lat="40.6266493014349" lon="15.20451245546856"><ele>96.0</ele><time>2026-03-26T18:37:33Z</time></trkpt><trkpt lat="40.62672631730825" lon="15.204872623421666"><ele>93.5</ele><time>2026-03-26T18:37:34Z</time></trkpt><trkpt lat="40.62680917384426" lon="15.205235448209898"><ele>91.0</ele><time>2026-03-26T18:37:35Z</time></trkpt><trkpt lat="40.62688921570161" lon="15.205599707895399"><ele>87.5</ele><time>2026-03-26T18:37:36Z</time></trkpt><trkpt lat="40.62697439712223" lon="15.205966633420314"><ele>84.0</ele><time>2026-03-26T18:37:37Z</time></trkpt><trkpt lat="40.62705943248743" lon="15.206336415467291"><ele>79.5</ele><time>2026-03-26T18:37:38Z</time></trkpt><trkpt lat="40.627118829959436" lon="15.20664374112845"><ele>75.0</ele><time>2026-03-26T18:37:39Z</time></trkpt><trkpt lat="40.62720239255536" lon="15.206980802196853"><ele>76.0</ele><time>2026-03-26T18:37:40Z</time></trkpt><trkpt lat="40.627279923777635" lon="15.207340916143105"><ele>77.0</ele><time>2026-03-26T18:37:41Z</time></trkpt><trkpt lat="40.62735409639047" lon="15.207699413888609"><ele>77.0</ele><time>2026-03-26T18:37:42Z</time></trkpt><trkpt lat="40.62742843776382" lon="15.20805431245817"><ele>77.0</ele><time>2026-03-26T18:37:43Z</time></trkpt><trkpt lat="40.62750560021873" lon="15.20839945413231"><ele>77.0</ele><time>2026-03-26T18:37:44Z</time></trkpt><trkpt lat="40.627581290125505" lon="15.208749288770639"><ele>77.0</ele><time>2026-03-26T18:37:45Z</time></trkpt><trkpt lat="40.62766236803703" lon="15.2090930284385"><ele>77.0</ele><time>2026-03-26T18:37:46Z</time></trkpt><trkpt lat="40.627734725475825" lon="15.2094438300212"><ele>77.0</ele><time>2026-03-26T18:37:47Z</time></trkpt><trkpt lat="40.62780148617106" lon="15.209789416329551"><ele>86.5</ele><time>2026-03-26T18:37:48Z</time></trkpt><trkpt lat="40.62786054127097" lon="15.210113058534947"><ele>96.0</ele><time>2026-03-26T18:37:49Z</time></trkpt><trkpt lat="40.627913940703735" lon="15.210438750754726"><ele>96.5</ele><time>2026-03-26T18:37:50Z</time></trkpt><trkpt lat="40.6279659064658" lon="15.2107638962194"><ele>97.0</ele><time>2026-03-26T18:37:51Z</time></trkpt><trkpt lat="40.62804428649911" lon="15.211061945063243"><ele>97.0</ele><time>2026-03-26T18:37:52Z</time></trkpt><trkpt lat="40.62810436327114" lon="15.211384743673534"><ele>97.0</ele><time>2026-03-26T18:37:53Z</time></trkpt><trkpt lat="40.62816412023042" lon="15.211710164373255"><ele>100.0</ele><time>2026-03-26T18:37:54Z</time></trkpt><trkpt lat="40.62822271438707" lon="15.212028415082088"><ele>103.0</ele><time>2026-03-26T18:37:55Z</time></trkpt><trkpt lat="40.62828329163736" lon="15.21235233075348"><ele>105.5</ele><time>2026-03-26T18:37:56Z</time></trkpt><trkpt lat="40.62831383167977" lon="15.212683060466494"><ele>108.0</ele><time>2026-03-26T18:37:57Z</time></trkpt><trkpt lat="40.62833950439416" lon="15.213003585202356"><ele>113.0</ele><time>2026-03-26T18:37:58Z</time></trkpt><trkpt lat="40.62828234099467" lon="15.213725727446286"><ele>115.0</ele><time>2026-03-26T18:37:59Z</time></trkpt><trkpt lat="40.6282978168626" lon="15.214071554661464"><ele>117.0</ele><time>2026-03-26T18:38:00Z</time></trkpt><trkpt lat="40.62831217933535" lon="15.214415658239407"><ele>117.0</ele><time>2026-03-26T18:38:01Z</time></trkpt><trkpt lat="40.628325116554734" lon="15.214763087211693"><ele>117.0</ele><time>2026-03-26T18:38:02Z</time></trkpt><trkpt lat="40.628337230075616" lon="15.215119451262787"><ele>120.0</ele><time>2026-03-26T18:38:03Z</time></trkpt><trkpt lat="40.62834545699474" lon="15.215493383019666"><ele>123.0</ele><time>2026-03-26T18:38:04Z</time></trkpt><trkpt lat="40.62835279475193" lon="15.215865959987775"><ele>128.0</ele><time>2026-03-26T18:38:05Z</time></trkpt><trkpt lat="40.6283587888654" lon="15.216238592888748"><ele>133.0</ele><time>2026-03-26T18:38:06Z</time></trkpt><trkpt lat="40.628360753565325" lon="15.216621094909803"><ele>135.5</ele><time>2026-03-26T18:38:07Z</time></trkpt><trkpt lat="40.6283653159489" lon="15.21700944679484"><ele>138.0</ele><time>2026-03-26T18:38:08Z</time></trkpt><trkpt lat="40.62837165027028" lon="15.217406469554955"><ele>138.0</ele><time>2026-03-26T18:38:09Z</time></trkpt><trkpt lat="40.62838083194928" lon="15.217803980963078"><ele>138.0</ele><time>2026-03-26T18:38:10Z</time></trkpt><trkpt lat="40.628390296935855" lon="15.218201477374766"><ele>137.0</ele><time>2026-03-26T18:38:11Z</time></trkpt><trkpt lat="40.62840047371999" lon="15.218607767288425"><ele>136.0</ele><time>2026-03-26T18:38:12Z</time></trkpt><trkpt lat="40.628410700053315" lon="15.219016713457792"><ele>133.0</ele><time>2026-03-26T18:38:13Z</time></trkpt><trkpt lat="40.62842012218049" lon="15.219432102604287"><ele>130.0</ele><time>2026-03-26T18:38:14Z</time></trkpt><trkpt lat="40.62843053961" lon="15.219847685417156"><ele>124.0</ele><time>2026-03-26T18:38:15Z</time></trkpt><trkpt lat="40.62843953111643" lon="15.220262871142745"><ele>118.0</ele><time>2026-03-26T18:38:16Z</time></trkpt><trkpt lat="40.62844898605669" lon="15.220686735577495"><ele>111.0</ele><time>2026-03-26T18:38:17Z</time></trkpt><trkpt lat="40.62845904024976" lon="15.221116021307662"><ele>104.0</ele><time>2026-03-26T18:38:18Z</time></trkpt><trkpt lat="40.62846900984632" lon="15.221550731367444"><ele>97.0</ele><time>2026-03-26T18:38:19Z</time></trkpt><trkpt lat="40.62848135569437" lon="15.22197746725828"><ele>90.0</ele><time>2026-03-26T18:38:20Z</time></trkpt><trkpt lat="40.628489388739084" lon="15.222397546927363"><ele>85.5</ele><time>2026-03-26T18:38:21Z</time></trkpt><trkpt lat="40.628497566037055" lon="15.222819443787898"><ele>81.0</ele><time>2026-03-26T18:38:22Z</time></trkpt><trkpt lat="40.628508298573756" lon="15.2232451060777"><ele>81.0</ele><time>2026-03-26T18:38:23Z</time></trkpt><trkpt lat="40.628375944378384" lon="15.222865459854294"><ele>81.0</ele><time>2026-03-26T18:38:24Z</time></trkpt><trkpt lat="40.628420308277676" lon="15.223294128558301"><ele>77.0</ele><time>2026-03-26T18:38:25Z</time></trkpt><trkpt lat="40.62842033526104" lon="15.223666688324302"><ele>73.0</ele><time>2026-03-26T18:38:26Z</time></trkpt><trkpt lat="40.62842491115584" lon="15.22404495169175"><ele>71.5</ele><time>2026-03-26T18:38:27Z</time></trkpt><trkpt lat="40.62842996607342" lon="15.224413059137675"><ele>70.0</ele><time>2026-03-26T18:38:28Z</time></trkpt><trkpt lat="40.62843308602859" lon="15.224777348235074"><ele>72.5</ele><time>2026-03-26T18:38:29Z</time></trkpt><trkpt lat="40.62843449456238" lon="15.225143626605085"><ele>75.0</ele><time>2026-03-26T18:38:30Z</time></trkpt><trkpt lat="40.62844016565684" lon="15.225499875126289"><ele>75.0</ele><time>2026-03-26T18:38:31Z</time></trkpt><trkpt lat="40.628442239430576" lon="15.22584838333277"><ele>75.0</ele><time>2026-03-26T18:38:32Z</time></trkpt><trkpt lat="40.62844365519534" lon="15.226188270611672"><ele>74.5</ele><time>2026-03-26T18:38:33Z</time></trkpt><trkpt lat="40.62845831799554" lon="15.226514599895689"><ele>74.0</ele><time>2026-03-26T18:38:34Z</time></trkpt><trkpt lat="40.62846045871229" lon="15.22685278661588"><ele>74.0</ele><time>2026-03-26T18:38:35Z</time></trkpt><trkpt lat="40.62846055680867" lon="15.227193741706113"><ele>74.0</ele><time>2026-03-26T18:38:36Z</time></trkpt><trkpt lat="40.62846111223747" lon="15.227538062005923"><ele>75.5</ele><time>2026-03-26T18:38:37Z</time></trkpt><trkpt lat="40.62846561504395" lon="15.227884380359924"><ele>77.0</ele><time>2026-03-26T18:38:38Z</time></trkpt><trkpt lat="40.62845982398129" lon="15.228225939790958"><ele>79.5</ele><time>2026-03-26T18:38:39Z</time></trkpt><trkpt lat="40.62846315072849" lon="15.22857715080501"><ele>82.0</ele><time>2026-03-26T18:38:40Z</time></trkpt><trkpt lat="40.628467400655936" lon="15.228921710236271"><ele>87.0</ele><time>2026-03-26T18:38:41Z</time></trkpt><trkpt lat="40.62846457294622" lon="15.22925944755054"><ele>92.0</ele><time>2026-03-26T18:38:42Z</time></trkpt><trkpt lat="40.62845578434771" lon="15.229604985181895"><ele>95.5</ele><time>2026-03-26T18:38:43Z</time></trkpt><trkpt lat="40.62844779662832" lon="15.229950862658503"><ele>99.0</ele><time>2026-03-26T18:38:44Z</time></trkpt><trkpt lat="40.62843202845135" lon="15.230297882207422"><ele>101.5</ele><time>2026-03-26T18:38:45Z</time></trkpt><trkpt lat="40.6284152281644" lon="15.230641457632721"><ele>104.0</ele><time>2026-03-26T18:38:46Z</time></trkpt><trkpt lat="40.628392084253655" lon="15.230989223797694"><ele>104.0</ele><time>2026-03-26T18:38:47Z</time></trkpt><trkpt lat="40.628363023771904" lon="15.231336483573525"><ele>104.0</ele><time>2026-03-26T18:38:48Z</time></trkpt><trkpt lat="40.62832397690204" lon="15.23168591822422"><ele>105.0</ele><time>2026-03-26T18:38:49Z</time></trkpt><trkpt lat="40.62828388104623" lon="15.232034590256399"><ele>106.0</ele><time>2026-03-26T18:38:50Z</time></trkpt><trkpt lat="40.62823410071616" lon="15.23238072417956"><ele>106.0</ele><time>2026-03-26T18:38:51Z</time></trkpt><trkpt lat="40.62817063113712" lon="15.23272372938558"><ele>106.0</ele><time>2026-03-26T18:38:52Z</time></trkpt><trkpt lat="40.62809980038394" lon="15.233068998039078"><ele>106.5</ele><time>2026-03-26T18:38:53Z</time></trkpt><trkpt lat="40.6280177387934" lon="15.233425665133947"><ele>107.0</ele><time>2026-03-26T18:38:54Z</time></trkpt><trkpt lat="40.62792928444604" lon="15.233769300002031"><ele>106.5</ele><time>2026-03-26T18:38:55Z</time></trkpt><trkpt lat="40.627833151002704" lon="15.234119256736676"><ele>106.0</ele><time>2026-03-26T18:38:56Z</time></trkpt><trkpt lat="40.62772534045917" lon="15.234459745055842"><ele>109.5</ele><time>2026-03-26T18:38:57Z</time></trkpt><trkpt lat="40.627610334207034" lon="15.234792870142668"><ele>113.0</ele><time>2026-03-26T18:38:58Z</time></trkpt><trkpt lat="40.62748247773249" lon="15.235127120665581"><ele>113.0</ele><time>2026-03-26T18:38:59Z</time></trkpt><trkpt lat="40.62735062313915" lon="15.235459121751232"><ele>113.0</ele><time>2026-03-26T18:39:00Z</time></trkpt><trkpt lat="40.627209284538054" lon="15.235782121943279"><ele>110.0</ele><time>2026-03-26T18:39:01Z</time></trkpt><trkpt lat="40.627059356131696" lon="15.236099267974904"><ele>107.0</ele><time>2026-03-26T18:39:02Z</time></trkpt><trkpt lat="40.62690104760176" lon="15.236406920966239"><ele>114.5</ele><time>2026-03-26T18:39:03Z</time></trkpt><trkpt lat="40.6267364504266" lon="15.236706954569089"><ele>122.0</ele><time>2026-03-26T18:39:04Z</time></trkpt><trkpt lat="40.626568653412086" lon="15.237001804470228"><ele>122.0</ele><time>2026-03-26T18:39:05Z</time></trkpt><trkpt lat="40.62639330372477" lon="15.237272990235159"><ele>122.0</ele><time>2026-03-26T18:39:06Z</time></trkpt><trkpt lat="40.62621424129188" lon="15.237539662373656"><ele>133.0</ele><time>2026-03-26T18:39:07Z</time></trkpt><trkpt lat="40.62602654465729" lon="15.237804094784247"><ele>144.0</ele><time>2026-03-26T18:39:08Z</time></trkpt><trkpt lat="40.62582881833091" lon="15.238075227177822"><ele>142.5</ele><time>2026-03-26T18:39:09Z</time></trkpt><trkpt lat="40.625628126636194" lon="15.238345660274781"><ele>141.0</ele><time>2026-03-26T18:39:10Z</time></trkpt><trkpt lat="40.62541872135607" lon="15.238616692861731"><ele>154.0</ele><time>2026-03-26T18:39:11Z</time></trkpt><trkpt lat="40.6252234309637" lon="15.238875626125278"><ele>167.0</ele><time>2026-03-26T18:39:12Z</time></trkpt><trkpt lat="40.62500737355513" lon="15.239146769558191"><ele>167.0</ele><time>2026-03-26T18:39:13Z</time></trkpt><trkpt lat="40.62480362531513" lon="15.239434949729105"><ele>167.0</ele><time>2026-03-26T18:39:14Z</time></trkpt><trkpt lat="40.62459670433908" lon="15.239707967582213"><ele>166.0</ele><time>2026-03-26T18:39:15Z</time></trkpt><trkpt lat="40.624385458874706" lon="15.23998036869035"><ele>165.0</ele><time>2026-03-26T18:39:16Z</time></trkpt><trkpt lat="40.624174739766445" lon="15.240245187736893"><ele>165.0</ele><time>2026-03-26T18:39:17Z</time></trkpt><trkpt lat="40.62395880388531" lon="15.240513640590285"><ele>165.0</ele><time>2026-03-26T18:39:18Z</time></trkpt><trkpt lat="40.623745107993656" lon="15.240781382369743"><ele>161.0</ele><time>2026-03-26T18:39:19Z</time></trkpt><trkpt lat="40.62353477498852" lon="15.241049669660697"><ele>157.0</ele><time>2026-03-26T18:39:20Z</time></trkpt><trkpt lat="40.623321884583014" lon="15.241320760278644"><ele>159.0</ele><time>2026-03-26T18:39:21Z</time></trkpt><trkpt lat="40.62311199169589" lon="15.24159227960803"><ele>161.0</ele><time>2026-03-26T18:39:22Z</time></trkpt><trkpt lat="40.62256806600816" lon="15.240957904009692"><ele>161.0</ele><time>2026-03-26T18:39:23Z</time></trkpt><trkpt lat="40.62232231334919" lon="15.241141414122406"><ele>161.0</ele><time>2026-03-26T18:39:24Z</time></trkpt><trkpt lat="40.622074772653676" lon="15.241327647036707"><ele>157.5</ele><time>2026-03-26T18:39:25Z</time></trkpt><trkpt lat="40.62182675647854" lon="15.241517039224822"><ele>154.0</ele><time>2026-03-26T18:39:26Z</time></trkpt><trkpt lat="40.62157769805463" lon="15.24170425356784"><ele>154.0</ele><time>2026-03-26T18:39:27Z</time></trkpt><trkpt lat="40.62132794677262" lon="15.24189574766264"><ele>154.0</ele><time>2026-03-26T18:39:28Z</time></trkpt><trkpt lat="40.62107393815851" lon="15.242086632748416"><ele>155.5</ele><time>2026-03-26T18:39:29Z</time></trkpt><trkpt lat="40.620816181106065" lon="15.242271689743244"><ele>157.0</ele><time>2026-03-26T18:39:30Z</time></trkpt><trkpt lat="40.620555576519884" lon="15.242449602368417"><ele>146.5</ele><time>2026-03-26T18:39:31Z</time></trkpt><trkpt lat="40.620292369227" lon="15.242631819600478"><ele>136.0</ele><time>2026-03-26T18:39:32Z</time></trkpt><trkpt lat="40.6200325151265" lon="15.24281755289275"><ele>136.0</ele><time>2026-03-26T18:39:33Z</time></trkpt><trkpt lat="40.61977226654995" lon="15.243001029172403"><ele>136.0</ele><time>2026-03-26T18:39:34Z</time></trkpt><trkpt lat="40.61951297666078" lon="15.243183988293008"><ele>130.0</ele><time>2026-03-26T18:39:35Z</time></trkpt><trkpt lat="40.619259232310924" lon="15.243367534894798"><ele>124.0</ele><time>2026-03-26T18:39:36Z</time></trkpt><trkpt lat="40.61901189825079" lon="15.243547951931946"><ele>124.0</ele><time>2026-03-26T18:39:37Z</time></trkpt><trkpt lat="40.618767022226045" lon="15.243725405558202"><ele>124.0</ele><time>2026-03-26T18:39:38Z</time></trkpt><trkpt lat="40.618444357412486" lon="15.243944169375869"><ele>117.5</ele><time>2026-03-26T18:39:39Z</time></trkpt><trkpt lat="40.61812713578909" lon="15.244071171036653"><ele>111.0</ele><time>2026-03-26T18:39:40Z</time></trkpt><trkpt lat="40.61790690757648" lon="15.244235143937232"><ele>116.5</ele><time>2026-03-26T18:39:41Z</time></trkpt><trkpt lat="40.61768442233174" lon="15.244395673828828"><ele>122.0</ele><time>2026-03-26T18:39:42Z</time></trkpt><trkpt lat="40.61745946599201" lon="15.244560898938172"><ele>122.0</ele><time>2026-03-26T18:39:43Z</time></trkpt><trkpt lat="40.61723338034838" lon="15.244732723962127"><ele>122.0</ele><time>2026-03-26T18:39:44Z</time></trkpt><trkpt lat="40.61700939823958" lon="15.244909046859826"><ele>127.0</ele><time>2026-03-26T18:39:45Z</time></trkpt><trkpt lat="40.61678542943079" lon="15.245090137225944"><ele>132.0</ele><time>2026-03-26T18:39:46Z</time></trkpt><trkpt lat="40.6165562930946" lon="15.245277185657374"><ele>132.0</ele><time>2026-03-26T18:39:47Z</time></trkpt><trkpt lat="40.61632448775099" lon="15.245477081022372"><ele>132.0</ele><time>2026-03-26T18:39:48Z</time></trkpt><trkpt lat="40.616065136371965" lon="15.245776153888414"><ele>143.5</ele><time>2026-03-26T18:39:49Z</time></trkpt><trkpt lat="40.615825117230905" lon="15.245992402655835"><ele>155.0</ele><time>2026-03-26T18:39:50Z</time></trkpt><trkpt lat="40.61564686697995" lon="15.246128897853227"><ele>155.0</ele><time>2026-03-26T18:39:51Z</time></trkpt><trkpt lat="40.615428213678015" lon="15.246367509270817"><ele>155.0</ele><time>2026-03-26T18:39:52Z</time></trkpt><trkpt lat="40.615215912286615" lon="15.246617776432611"><ele>154.0</ele><time>2026-03-26T18:39:53Z</time></trkpt><trkpt lat="40.615011444269655" lon="15.246877041283744"><ele>153.0</ele><time>2026-03-26T18:39:54Z</time></trkpt><trkpt lat="40.61481408434433" lon="15.24714223420474"><ele>153.5</ele><time>2026-03-26T18:39:55Z</time></trkpt><trkpt lat="40.61462442497032" lon="15.247416125050801"><ele>154.0</ele><time>2026-03-26T18:39:56Z</time></trkpt><trkpt lat="40.614445167720916" lon="15.247695438801367"><ele>155.5</ele><time>2026-03-26T18:39:57Z</time></trkpt><trkpt lat="40.61427428148489" lon="15.247970282366458"><ele>157.0</ele><time>2026-03-26T18:39:58Z</time></trkpt><trkpt lat="40.6141079518259" lon="15.248254013102509"><ele>157.0</ele><time>2026-03-26T18:39:59Z</time></trkpt><trkpt lat="40.613953684619425" lon="15.248535128789788"><ele>157.0</ele><time>2026-03-26T18:40:00Z</time></trkpt><trkpt lat="40.61381339064715" lon="15.248814947249562"><ele>161.0</ele><time>2026-03-26T18:40:01Z</time></trkpt><trkpt lat="40.613685546852594" lon="15.249093899905448"><ele>165.0</ele><time>2026-03-26T18:40:02Z</time></trkpt><trkpt lat="40.61356513049995" lon="15.249372266673483"><ele>165.0</ele><time>2026-03-26T18:40:03Z</time></trkpt><trkpt lat="40.613459761758385" lon="15.249656398121346"><ele>165.0</ele><time>2026-03-26T18:40:04Z</time></trkpt><trkpt lat="40.613354220260945" lon="15.24994132345712"><ele>154.0</ele><time>2026-03-26T18:40:05Z</time></trkpt><trkpt lat="40.613256191819445" lon="15.250230082017046"><ele>143.0</ele><time>2026-03-26T18:40:06Z</time></trkpt><trkpt lat="40.613169930905514" lon="15.250517247547226"><ele>133.0</ele><time>2026-03-26T18:40:07Z</time></trkpt><trkpt lat="40.61308199668025" lon="15.25081314595195"><ele>123.0</ele><time>2026-03-26T18:40:08Z</time></trkpt><trkpt lat="40.612998181955945" lon="15.251117263368148"><ele>123.0</ele><time>2026-03-26T18:40:09Z</time></trkpt><trkpt lat="40.61292363090429" lon="15.25142216894353"><ele>123.0</ele><time>2026-03-26T18:40:10Z</time></trkpt><trkpt lat="40.61285503820436" lon="15.251734380260185"><ele>124.0</ele><time>2026-03-26T18:40:11Z</time></trkpt><trkpt lat="40.612791668874806" lon="15.252053158447337"><ele>125.0</ele><time>2026-03-26T18:40:12Z</time></trkpt><trkpt lat="40.612733481522476" lon="15.252376996909716"><ele>125.0</ele><time>2026-03-26T18:40:13Z</time></trkpt><trkpt lat="40.61268217554438" lon="15.252706378923696"><ele>125.0</ele><time>2026-03-26T18:40:14Z</time></trkpt><trkpt lat="40.6126387998672" lon="15.25302972806638"><ele>118.0</ele><time>2026-03-26T18:40:15Z</time></trkpt><trkpt lat="40.612481049181035" lon="15.253830445108889"><ele>116.5</ele><time>2026-03-26T18:40:16Z</time></trkpt><trkpt lat="40.61244748191059" lon="15.254198319585692"><ele>115.0</ele><time>2026-03-26T18:40:17Z</time></trkpt><trkpt lat="40.61243670066531" lon="15.254549789198641"><ele>113.0</ele><time>2026-03-26T18:40:18Z</time></trkpt><trkpt lat="40.61241459858958" lon="15.254877402695673"><ele>111.0</ele><time>2026-03-26T18:40:19Z</time></trkpt><trkpt lat="40.612413859730786" lon="15.255226544091121"><ele>111.0</ele><time>2026-03-26T18:40:20Z</time></trkpt><trkpt lat="40.61242397745165" lon="15.255564826667426"><ele>111.0</ele><time>2026-03-26T18:40:21Z</time></trkpt><trkpt lat="40.61243607607115" lon="15.255904723189518"><ele>108.5</ele><time>2026-03-26T18:40:22Z</time></trkpt><trkpt lat="40.61245131918731" lon="15.256242162917758"><ele>106.0</ele><time>2026-03-26T18:40:23Z</time></trkpt><trkpt lat="40.6124733190465" lon="15.256577959489746"><ele>102.0</ele><time>2026-03-26T18:40:24Z</time></trkpt><trkpt lat="40.61250283129309" lon="15.256912629355126"><ele>98.0</ele><time>2026-03-26T18:40:25Z</time></trkpt><trkpt lat="40.612536544831386" lon="15.257252765477295"><ele>98.5</ele><time>2026-03-26T18:40:26Z</time></trkpt><trkpt lat="40.61257384045169" lon="15.257593279283016"><ele>99.0</ele><time>2026-03-26T18:40:27Z</time></trkpt><trkpt lat="40.61260952292484" lon="15.257935030587952"><ele>100.5</ele><time>2026-03-26T18:40:28Z</time></trkpt><trkpt lat="40.61265013166592" lon="15.25827333895673"><ele>102.0</ele><time>2026-03-26T18:40:29Z</time></trkpt><trkpt lat="40.61269340242248" lon="15.258612510644527"><ele>102.0</ele><time>2026-03-26T18:40:30Z</time></trkpt><trkpt lat="40.612742936630085" lon="15.258949199179257"><ele>102.0</ele><time>2026-03-26T18:40:31Z</time></trkpt><trkpt lat="40.61278826697309" lon="15.259286668551283"><ele>100.5</ele><time>2026-03-26T18:40:32Z</time></trkpt><trkpt lat="40.61283309803619" lon="15.259619362776938"><ele>99.0</ele><time>2026-03-26T18:40:33Z</time></trkpt><trkpt lat="40.61287523103341" lon="15.25995402704041"><ele>106.5</ele><time>2026-03-26T18:40:34Z</time></trkpt><trkpt lat="40.61291988274961" lon="15.260285552584332"><ele>114.0</ele><time>2026-03-26T18:40:35Z</time></trkpt><trkpt lat="40.612970150210465" lon="15.260602538485964"><ele>123.0</ele><time>2026-03-26T18:40:36Z</time></trkpt><trkpt lat="40.61301741595149" lon="15.2609364072538"><ele>132.0</ele><time>2026-03-26T18:40:37Z</time></trkpt><trkpt lat="40.61306562004843" lon="15.261259028186963"><ele>136.5</ele><time>2026-03-26T18:40:38Z</time></trkpt><trkpt lat="40.61310779778962" lon="15.2615866883737"><ele>141.0</ele><time>2026-03-26T18:40:39Z</time></trkpt><trkpt lat="40.613156421983156" lon="15.261914416690102"><ele>141.0</ele><time>2026-03-26T18:40:40Z</time></trkpt><trkpt lat="40.61320108201145" lon="15.26223945954805"><ele>141.0</ele><time>2026-03-26T18:40:41Z</time></trkpt><trkpt lat="40.61325007363012" lon="15.262564783966425"><ele>140.5</ele><time>2026-03-26T18:40:42Z</time></trkpt><trkpt lat="40.613294805843566" lon="15.26288399047194"><ele>140.0</ele><time>2026-03-26T18:40:43Z</time></trkpt><trkpt lat="40.61333728058135" lon="15.26321167576671"><ele>140.0</ele><time>2026-03-26T18:40:44Z</time></trkpt><trkpt lat="40.613384664378806" lon="15.263532845094623"><ele>140.0</ele><time>2026-03-26T18:40:45Z</time></trkpt><trkpt lat="40.61343047923901" lon="15.263856981773626"><ele>141.0</ele><time>2026-03-26T18:40:46Z</time></trkpt><trkpt lat="40.61347327414923" lon="15.264183047302271"><ele>142.0</ele><time>2026-03-26T18:40:47Z</time></trkpt><trkpt lat="40.61351795411829" lon="15.264503826338021"><ele>139.5</ele><time>2026-03-26T18:40:48Z</time></trkpt><trkpt lat="40.61356740175817" lon="15.264828346744261"><ele>137.0</ele><time>2026-03-26T18:40:49Z</time></trkpt><trkpt lat="40.61361319160986" lon="15.265156007039971"><ele>147.5</ele><time>2026-03-26T18:40:50Z</time></trkpt><trkpt lat="40.613661312067826" lon="15.265479380948793"><ele>158.0</ele><time>2026-03-26T18:40:51Z</time></trkpt><trkpt lat="40.61370454760937" lon="15.265809254592032"><ele>159.0</ele><time>2026-03-26T18:40:52Z</time></trkpt><trkpt lat="40.61374573938255" lon="15.266146764209036"><ele>160.0</ele><time>2026-03-26T18:40:53Z</time></trkpt><trkpt lat="40.61379255363205" lon="15.266480485467321"><ele>160.0</ele><time>2026-03-26T18:40:54Z</time></trkpt><trkpt lat="40.61383392941866" lon="15.266814392459306"><ele>160.0</ele><time>2026-03-26T18:40:55Z</time></trkpt><trkpt lat="40.613880465010624" lon="15.267145592233232"><ele>160.5</ele><time>2026-03-26T18:40:56Z</time></trkpt><trkpt lat="40.61392842726306" lon="15.2674801311169"><ele>161.0</ele><time>2026-03-26T18:40:57Z</time></trkpt><trkpt lat="40.61397717847817" lon="15.267813228189034"><ele>162.5</ele><time>2026-03-26T18:40:58Z</time></trkpt><trkpt lat="40.61402514018043" lon="15.268147357242531"><ele>164.0</ele><time>2026-03-26T18:40:59Z</time></trkpt><trkpt lat="40.6140709458056" lon="15.26848990585625"><ele>164.0</ele><time>2026-03-26T18:41:00Z</time></trkpt><trkpt lat="40.61412196717042" lon="15.26883870944865"><ele>164.0</ele><time>2026-03-26T18:41:01Z</time></trkpt><trkpt lat="40.61417326025767" lon="15.26919343346701"><ele>166.0</ele><time>2026-03-26T18:41:02Z</time></trkpt><trkpt lat="40.61422289774407" lon="15.269550381242023"><ele>168.0</ele><time>2026-03-26T18:41:03Z</time></trkpt><trkpt lat="40.61426246231971" lon="15.26991651296534"><ele>169.5</ele><time>2026-03-26T18:41:04Z</time></trkpt><trkpt lat="40.61431121888002" lon="15.270264364221962"><ele>171.0</ele><time>2026-03-26T18:41:05Z</time></trkpt><trkpt lat="40.614349112741145" lon="15.27063351410415"><ele>171.0</ele><time>2026-03-26T18:41:06Z</time></trkpt><trkpt lat="40.614383023841214" lon="15.270994638032546"><ele>171.0</ele><time>2026-03-26T18:41:07Z</time></trkpt><trkpt lat="40.6144178928363" lon="15.271352788093576"><ele>169.5</ele><time>2026-03-26T18:41:08Z</time></trkpt><trkpt lat="40.614442679802984" lon="15.271712930158962"><ele>168.0</ele><time>2026-03-26T18:41:09Z</time></trkpt><trkpt lat="40.61446182046372" lon="15.272082533441854"><ele>168.0</ele><time>2026-03-26T18:41:10Z</time></trkpt><trkpt lat="40.61447826357938" lon="15.272448529686612"><ele>168.0</ele><time>2026-03-26T18:41:11Z</time></trkpt><trkpt lat="40.61448781413384" lon="15.272803128898257"><ele>168.0</ele><time>2026-03-26T18:41:12Z</time></trkpt><trkpt lat="40.614482709044246" lon="15.273163829625862"><ele>168.0</ele><time>2026-03-26T18:41:13Z</time></trkpt><trkpt lat="40.61447202792252" lon="15.273528856872296"><ele>168.0</ele><time>2026-03-26T18:41:14Z</time></trkpt><trkpt lat="40.61445285763047" lon="15.273892317195907"><ele>168.0</ele><time>2026-03-26T18:41:15Z</time></trkpt><trkpt lat="40.6144266795297" lon="15.274256199236893"><ele>168.0</ele><time>2026-03-26T18:41:16Z</time></trkpt><trkpt lat="40.614393211858555" lon="15.274622900769202"><ele>168.0</ele><time>2026-03-26T18:41:17Z</time></trkpt><trkpt lat="40.61435114711857" lon="15.274982077549536"><ele>168.0</ele><time>2026-03-26T18:41:18Z</time></trkpt><trkpt lat="40.61430155375671" lon="15.275349465858445"><ele>168.0</ele><time>2026-03-26T18:41:19Z</time></trkpt><trkpt lat="40.61424535717274" lon="15.275716489058796"><ele>167.5</ele><time>2026-03-26T18:41:20Z</time></trkpt><trkpt lat="40.61418958571611" lon="15.27607702612294"><ele>167.0</ele><time>2026-03-26T18:41:21Z</time></trkpt><trkpt lat="40.61412915278097" lon="15.276433174093459"><ele>166.0</ele><time>2026-03-26T18:41:22Z</time></trkpt><trkpt lat="40.61406023553085" lon="15.276800428001104"><ele>165.0</ele><time>2026-03-26T18:41:23Z</time></trkpt><trkpt lat="40.613985924547904" lon="15.277161196365181"><ele>165.5</ele><time>2026-03-26T18:41:24Z</time></trkpt><trkpt lat="40.613904692757544" lon="15.277515796237635"><ele>166.0</ele><time>2026-03-26T18:41:25Z</time></trkpt><trkpt lat="40.613815171812234" lon="15.277866946639458"><ele>164.5</ele><time>2026-03-26T18:41:26Z</time></trkpt><trkpt lat="40.6137247012746" lon="15.278216707345678"><ele>163.0</ele><time>2026-03-26T18:41:27Z</time></trkpt><trkpt lat="40.61362502749164" lon="15.278561879104615"><ele>163.0</ele><time>2026-03-26T18:41:28Z</time></trkpt><trkpt lat="40.613514585372094" lon="15.27890641685052"><ele>163.0</ele><time>2026-03-26T18:41:29Z</time></trkpt><trkpt lat="40.61340268838249" lon="15.27924524235719"><ele>165.0</ele><time>2026-03-26T18:41:30Z</time></trkpt><trkpt lat="40.61327944325405" lon="15.279581029091844"><ele>167.0</ele><time>2026-03-26T18:41:31Z</time></trkpt><trkpt lat="40.61315455108505" lon="15.279910748091535"><ele>167.0</ele><time>2026-03-26T18:41:32Z</time></trkpt><trkpt lat="40.61302271757662" lon="15.280240452855825"><ele>167.0</ele><time>2026-03-26T18:41:33Z</time></trkpt><trkpt lat="40.61288746039787" lon="15.280563212050428"><ele>165.0</ele><time>2026-03-26T18:41:34Z</time></trkpt><trkpt lat="40.61274820416309" lon="15.280885505524827"><ele>163.0</ele><time>2026-03-26T18:41:35Z</time></trkpt><trkpt lat="40.612608500268536" lon="15.281206315524209"><ele>163.0</ele><time>2026-03-26T18:41:36Z</time></trkpt><trkpt lat="40.61246648367502" lon="15.281520905190737"><ele>163.0</ele><time>2026-03-26T18:41:37Z</time></trkpt><trkpt lat="40.61231959824568" lon="15.281834340101161"><ele>163.0</ele><time>2026-03-26T18:41:38Z</time></trkpt><trkpt lat="40.612171938070055" lon="15.282150092113294"><ele>163.0</ele><time>2026-03-26T18:41:39Z</time></trkpt><trkpt lat="40.61202354454045" lon="15.28245919061449"><ele>156.0</ele><time>2026-03-26T18:41:40Z</time></trkpt><trkpt lat="40.61187232048113" lon="15.282768612074229"><ele>149.0</ele><time>2026-03-26T18:41:41Z</time></trkpt><trkpt lat="40.61172531620546" lon="15.283076381714938"><ele>155.0</ele><time>2026-03-26T18:41:42Z</time></trkpt><trkpt lat="40.61158147602179" lon="15.283391035736905"><ele>161.0</ele><time>2026-03-26T18:41:43Z</time></trkpt><trkpt lat="40.611445540223265" lon="15.283706239328263"><ele>161.5</ele><time>2026-03-26T18:41:44Z</time></trkpt><trkpt lat="40.61131336236123" lon="15.284027398347384"><ele>162.0</ele><time>2026-03-26T18:41:45Z</time></trkpt><trkpt lat="40.611181422730866" lon="15.284356690433723"><ele>153.5</ele><time>2026-03-26T18:41:46Z</time></trkpt><trkpt lat="40.61105561097166" lon="15.28468159417209"><ele>145.0</ele><time>2026-03-26T18:41:47Z</time></trkpt><trkpt lat="40.61093446623691" lon="15.285002947015006"><ele>144.5</ele><time>2026-03-26T18:41:48Z</time></trkpt><trkpt lat="40.61081756312108" lon="15.285326345532829"><ele>144.0</ele><time>2026-03-26T18:41:49Z</time></trkpt><trkpt lat="40.61070774210977" lon="15.285649999839366"><ele>144.0</ele><time>2026-03-26T18:41:50Z</time></trkpt><trkpt lat="40.61060448439904" lon="15.285983043333681"><ele>144.0</ele><time>2026-03-26T18:41:51Z</time></trkpt><trkpt lat="40.61051167523341" lon="15.286321669759774"><ele>146.5</ele><time>2026-03-26T18:41:52Z</time></trkpt><trkpt lat="40.610425709795614" lon="15.286665991547759"><ele>149.0</ele><time>2026-03-26T18:41:53Z</time></trkpt><trkpt lat="40.610346600287464" lon="15.287014847556266"><ele>155.5</ele><time>2026-03-26T18:41:54Z</time></trkpt><trkpt lat="40.610269485013085" lon="15.287358219435172"><ele>162.0</ele><time>2026-03-26T18:41:55Z</time></trkpt><trkpt lat="40.61020239119964" lon="15.287713244571583"><ele>162.0</ele><time>2026-03-26T18:41:56Z</time></trkpt><trkpt lat="40.61014497520607" lon="15.288070878015139"><ele>162.0</ele><time>2026-03-26T18:41:57Z</time></trkpt><trkpt lat="40.610098205841794" lon="15.288430371459832"><ele>162.0</ele><time>2026-03-26T18:41:58Z</time></trkpt><trkpt lat="40.610061817390175" lon="15.28879292046306"><ele>162.0</ele><time>2026-03-26T18:41:59Z</time></trkpt><trkpt lat="40.610033733394246" lon="15.289159692581862"><ele>163.0</ele><time>2026-03-26T18:42:00Z</time></trkpt><trkpt lat="40.610012204023924" lon="15.289524892759042"><ele>164.0</ele><time>2026-03-26T18:42:01Z</time></trkpt><trkpt lat="40.60999664576427" lon="15.289890075052908"><ele>165.5</ele><time>2026-03-26T18:42:02Z</time></trkpt><trkpt lat="40.609987294533234" lon="15.290247034254234"><ele>167.0</ele><time>2026-03-26T18:42:03Z</time></trkpt><trkpt lat="40.60998179361019" lon="15.290605736537653"><ele>168.0</ele><time>2026-03-26T18:42:04Z</time></trkpt><trkpt lat="40.60997670787346" lon="15.290960793980654"><ele>169.0</ele><time>2026-03-26T18:42:05Z</time></trkpt><trkpt lat="40.609967086857495" lon="15.291318840551908"><ele>170.0</ele><time>2026-03-26T18:42:06Z</time></trkpt><trkpt lat="40.609953049348135" lon="15.291680335043264"><ele>171.0</ele><time>2026-03-26T18:42:07Z</time></trkpt><trkpt lat="40.60993355729307" lon="15.29204372182039"><ele>171.5</ele><time>2026-03-26T18:42:08Z</time></trkpt><trkpt lat="40.60990515211144" lon="15.2924057566313"><ele>172.0</ele><time>2026-03-26T18:42:09Z</time></trkpt><trkpt lat="40.609866827333555" lon="15.292768353901627"><ele>173.0</ele><time>2026-03-26T18:42:10Z</time></trkpt><trkpt lat="40.60981551412375" lon="15.293131308639161"><ele>174.0</ele><time>2026-03-26T18:42:11Z</time></trkpt><trkpt lat="40.60975007451547" lon="15.293493631460244"><ele>174.0</ele><time>2026-03-26T18:42:12Z</time></trkpt><trkpt lat="40.60967221721825" lon="15.293852423025308"><ele>174.0</ele><time>2026-03-26T18:42:13Z</time></trkpt><trkpt lat="40.609581203869055" lon="15.294212317493955"><ele>177.0</ele><time>2026-03-26T18:42:14Z</time></trkpt><trkpt lat="40.609476710063724" lon="15.294566042859556"><ele>180.0</ele><time>2026-03-26T18:42:15Z</time></trkpt><trkpt lat="40.60935930898216" lon="15.294912689061588"><ele>180.0</ele><time>2026-03-26T18:42:16Z</time></trkpt><trkpt lat="40.6092292157263" lon="15.295253486521995"><ele>180.0</ele><time>2026-03-26T18:42:17Z</time></trkpt><trkpt lat="40.609086423678505" lon="15.295585944475974"><ele>177.0</ele><time>2026-03-26T18:42:18Z</time></trkpt><trkpt lat="40.608933805060936" lon="15.29590798482702"><ele>174.0</ele><time>2026-03-26T18:42:19Z</time></trkpt><trkpt lat="40.608770423817596" lon="15.296224630505286"><ele>163.0</ele><time>2026-03-26T18:42:20Z</time></trkpt><trkpt lat="40.60859946898245" lon="15.296516003242688"><ele>152.0</ele><time>2026-03-26T18:42:21Z</time></trkpt><trkpt lat="40.608421707464736" lon="15.2967969371307"><ele>152.0</ele><time>2026-03-26T18:42:22Z</time></trkpt><trkpt lat="40.60823546461446" lon="15.297060617913983"><ele>152.0</ele><time>2026-03-26T18:42:23Z</time></trkpt><trkpt lat="40.60805025012667" lon="15.297302728813529"><ele>151.0</ele><time>2026-03-26T18:42:24Z</time></trkpt><trkpt lat="40.60786802352829" lon="15.297512445491515"><ele>150.0</ele><time>2026-03-26T18:42:25Z</time></trkpt><trkpt lat="40.60768132962547" lon="15.297728475211684"><ele>151.0</ele><time>2026-03-26T18:42:26Z</time></trkpt><trkpt lat="40.60748732988273" lon="15.29795073669595"><ele>152.0</ele><time>2026-03-26T18:42:27Z</time></trkpt><trkpt lat="40.60729163986323" lon="15.29816023574063"><ele>152.0</ele><time>2026-03-26T18:42:28Z</time></trkpt><trkpt lat="40.607095263461716" lon="15.298366361881236"><ele>152.0</ele><time>2026-03-26T18:42:29Z</time></trkpt><trkpt lat="40.60689980507543" lon="15.298570479613158"><ele>156.0</ele><time>2026-03-26T18:42:30Z</time></trkpt><trkpt lat="40.606703620109684" lon="15.298774536358588"><ele>160.0</ele><time>2026-03-26T18:42:31Z</time></trkpt><trkpt lat="40.606508149841055" lon="15.298975733921159"><ele>167.5</ele><time>2026-03-26T18:42:32Z</time></trkpt><trkpt lat="40.60631394237913" lon="15.29917496560586"><ele>175.0</ele><time>2026-03-26T18:42:33Z</time></trkpt><trkpt lat="40.60612018271503" lon="15.299375643232205"><ele>177.0</ele><time>2026-03-26T18:42:34Z</time></trkpt><trkpt lat="40.60592311115711" lon="15.299576644911244"><ele>179.0</ele><time>2026-03-26T18:42:35Z</time></trkpt><trkpt lat="40.60572287036074" lon="15.299777619007603"><ele>179.0</ele><time>2026-03-26T18:42:36Z</time></trkpt><trkpt lat="40.60552273098478" lon="15.299980242722542"><ele>179.0</ele><time>2026-03-26T18:42:37Z</time></trkpt><trkpt lat="40.60532296409254" lon="15.300188318397288"><ele>166.5</ele><time>2026-03-26T18:42:38Z</time></trkpt><trkpt lat="40.60511940477442" lon="15.300404322414419"><ele>154.0</ele><time>2026-03-26T18:42:39Z</time></trkpt><trkpt lat="40.60491233548699" lon="15.300621316596013"><ele>154.0</ele><time>2026-03-26T18:42:40Z</time></trkpt><trkpt lat="40.60470361186727" lon="15.300840426010351"><ele>154.0</ele><time>2026-03-26T18:42:41Z</time></trkpt><trkpt lat="40.60449388492918" lon="15.301063420528395"><ele>185.0</ele><time>2026-03-26T18:42:42Z</time></trkpt><trkpt lat="40.60428297001307" lon="15.30128954872604"><ele>216.0</ele><time>2026-03-26T18:42:43Z</time></trkpt><trkpt lat="40.604075697728646" lon="15.301517721070402"><ele>223.5</ele><time>2026-03-26T18:42:44Z</time></trkpt><trkpt lat="40.60386486221179" lon="15.301746346470424"><ele>231.0</ele><time>2026-03-26T18:42:45Z</time></trkpt><trkpt lat="40.603656319770906" lon="15.301973819193462"><ele>232.5</ele><time>2026-03-26T18:42:46Z</time></trkpt><trkpt lat="40.60344539725738" lon="15.302192720913954"><ele>234.0</ele><time>2026-03-26T18:42:47Z</time></trkpt><trkpt lat="40.603235169300206" lon="15.302418647220504"><ele>234.0</ele><time>2026-03-26T18:42:48Z</time></trkpt><trkpt lat="40.60303058972609" lon="15.302648056300072"><ele>234.0</ele><time>2026-03-26T18:42:49Z</time></trkpt><trkpt lat="40.60282948940999" lon="15.302877634341614"><ele>232.0</ele><time>2026-03-26T18:42:50Z</time></trkpt><trkpt lat="40.602634488510425" lon="15.30310761683089"><ele>230.0</ele><time>2026-03-26T18:42:51Z</time></trkpt><trkpt lat="40.60247973258847" lon="15.303339559999145"><ele>230.0</ele><time>2026-03-26T18:42:52Z</time></trkpt><trkpt lat="40.6022990328155" lon="15.303569868985097"><ele>230.0</ele><time>2026-03-26T18:42:53Z</time></trkpt><trkpt lat="40.60185464089811" lon="15.303968559696866"><ele>253.0</ele><time>2026-03-26T18:42:54Z</time></trkpt><trkpt lat="40.60165358475136" lon="15.304245851977816"><ele>276.0</ele><time>2026-03-26T18:42:55Z</time></trkpt><trkpt lat="40.601453149791865" lon="15.304532697434373"><ele>271.0</ele><time>2026-03-26T18:42:56Z</time></trkpt><trkpt lat="40.60126038101666" lon="15.304835068081461"><ele>266.0</ele><time>2026-03-26T18:42:57Z</time></trkpt><trkpt lat="40.601069210644845" lon="15.30514453975654"><ele>279.0</ele><time>2026-03-26T18:42:58Z</time></trkpt><trkpt lat="40.6008841197052" lon="15.305460264755338"><ele>292.0</ele><time>2026-03-26T18:42:59Z</time></trkpt><trkpt lat="40.6007013626859" lon="15.305781398975544"><ele>292.0</ele><time>2026-03-26T18:43:00Z</time></trkpt><trkpt lat="40.60052819240512" lon="15.30611129705536"><ele>292.0</ele><time>2026-03-26T18:43:01Z</time></trkpt><trkpt lat="40.60037333281339" lon="15.30644433123197"><ele>298.0</ele><time>2026-03-26T18:43:02Z</time></trkpt><trkpt lat="40.60021473604514" lon="15.30679436476331"><ele>304.0</ele><time>2026-03-26T18:43:03.032Z</time></trkpt><trkpt lat="40.59947386033585" lon="15.309269199267638"><ele>227.0</ele><time>2026-03-26T18:43:06.577Z</time></trkpt><trkpt lat="40.59927102005885" lon="15.310178205775268"><ele>236.0</ele><time>2026-03-26T18:43:07.579Z</time></trkpt><trkpt lat="40.59910453177158" lon="15.311096895791549"><ele>234.0</ele><time>2026-03-26T18:43:08.578Z</time></trkpt><trkpt lat="40.5989574897835" lon="15.312022882996924"><ele>208.0</ele><time>2026-03-26T18:43:09.579Z</time></trkpt><trkpt lat="40.5988184757978" lon="15.31294860047113"><ele>220.0</ele><time>2026-03-26T18:43:10.577Z</time></trkpt><trkpt lat="40.5986548444327" lon="15.313969279183958"><ele>220.0</ele><time>2026-03-26T18:43:25Z</time></trkpt><trkpt lat="40.59852286467582" lon="15.31433866033731"><ele>220.0</ele><time>2026-03-26T18:43:26Z</time></trkpt><trkpt lat="40.59849259984247" lon="15.314671130705388"><ele>216.0</ele><time>2026-03-26T18:43:27Z</time></trkpt><trkpt lat="40.598436343442614" lon="15.314990923403034"><ele>212.0</ele><time>2026-03-26T18:43:28Z</time></trkpt><trkpt lat="40.59837261643934" lon="15.315310361371067"><ele>205.0</ele><time>2026-03-26T18:43:29Z</time></trkpt><trkpt lat="40.598301463925104" lon="15.315625488777744"><ele>198.0</ele><time>2026-03-26T18:43:30Z</time></trkpt><trkpt lat="40.59821688500461" lon="15.315929110278102"><ele>198.0</ele><time>2026-03-26T18:43:31Z</time></trkpt><trkpt lat="40.5981258603951" lon="15.316227752960419"><ele>198.0</ele><time>2026-03-26T18:43:32Z</time></trkpt><trkpt lat="40.598024875054605" lon="15.316518723091217"><ele>190.0</ele><time>2026-03-26T18:43:33Z</time></trkpt><trkpt lat="40.59791367678482" lon="15.316803665407846"><ele>182.0</ele><time>2026-03-26T18:43:34Z</time></trkpt><trkpt lat="40.597794995292034" lon="15.317084853435313"><ele>196.5</ele><time>2026-03-26T18:43:35Z</time></trkpt><trkpt lat="40.59767033695118" lon="15.317357052951499"><ele>211.0</ele><time>2026-03-26T18:43:36Z</time></trkpt><trkpt lat="40.597542698098735" lon="15.31763262554281"><ele>211.0</ele><time>2026-03-26T18:43:37Z</time></trkpt><trkpt lat="40.59740502950825" lon="15.317905532468844"><ele>211.0</ele><time>2026-03-26T18:43:38Z</time></trkpt><trkpt lat="40.597279092143026" lon="15.31818429129749"><ele>201.0</ele><time>2026-03-26T18:43:39Z</time></trkpt><trkpt lat="40.59715107989906" lon="15.318458221894518"><ele>191.0</ele><time>2026-03-26T18:43:40Z</time></trkpt><trkpt lat="40.59702002015299" lon="15.318730442564148"><ele>207.0</ele><time>2026-03-26T18:43:41Z</time></trkpt><trkpt lat="40.596889122126356" lon="15.31900432448775"><ele>223.0</ele><time>2026-03-26T18:43:42Z</time></trkpt><trkpt lat="40.596757789855424" lon="15.319282111820904"><ele>223.0</ele><time>2026-03-26T18:43:43Z</time></trkpt><trkpt lat="40.59663674246742" lon="15.319549218383147"><ele>223.0</ele><time>2026-03-26T18:43:44Z</time></trkpt><trkpt lat="40.59650686728109" lon="15.319818352977832"><ele>210.5</ele><time>2026-03-26T18:43:45Z</time></trkpt><trkpt lat="40.596368703075875" lon="15.320086233880632"><ele>198.0</ele><time>2026-03-26T18:43:46Z</time></trkpt><trkpt lat="40.5962246498696" lon="15.320357575455526"><ele>207.5</ele><time>2026-03-26T18:43:47Z</time></trkpt><trkpt lat="40.59607697977934" lon="15.320627223265342"><ele>217.0</ele><time>2026-03-26T18:43:48Z</time></trkpt><trkpt lat="40.59591670885049" lon="15.320896071715122"><ele>217.0</ele><time>2026-03-26T18:43:49Z</time></trkpt><trkpt lat="40.59575303167054" lon="15.321159837437207"><ele>217.0</ele><time>2026-03-26T18:43:50Z</time></trkpt><trkpt lat="40.59558171042436" lon="15.32141895108978"><ele>226.0</ele><time>2026-03-26T18:43:51Z</time></trkpt><trkpt lat="40.59540336963733" lon="15.321671208980021"><ele>235.0</ele><time>2026-03-26T18:43:52Z</time></trkpt><trkpt lat="40.595219840994254" lon="15.321918452259743"><ele>235.0</ele><time>2026-03-26T18:43:53Z</time></trkpt><trkpt lat="40.59503330621462" lon="15.322153045430325"><ele>235.0</ele><time>2026-03-26T18:43:54Z</time></trkpt><trkpt lat="40.5948393327853" lon="15.322389042873523"><ele>242.5</ele><time>2026-03-26T18:43:55Z</time></trkpt><trkpt lat="40.59464907224042" lon="15.322621778428617"><ele>250.0</ele><time>2026-03-26T18:43:56Z</time></trkpt><trkpt lat="40.59445246513605" lon="15.322849570346895"><ele>233.0</ele><time>2026-03-26T18:43:57Z</time></trkpt><trkpt lat="40.5942574983005" lon="15.323079730482062"><ele>216.0</ele><time>2026-03-26T18:43:58Z</time></trkpt><trkpt lat="40.59406080268446" lon="15.323304365924658"><ele>216.0</ele><time>2026-03-26T18:43:59Z</time></trkpt><trkpt lat="40.59386368257542" lon="15.323529233855647"><ele>216.0</ele><time>2026-03-26T18:44:00Z</time></trkpt><trkpt lat="40.59367005896719" lon="15.323755498835164"><ele>220.5</ele><time>2026-03-26T18:44:01Z</time></trkpt><trkpt lat="40.59348319934051" lon="15.323975521779136"><ele>225.0</ele><time>2026-03-26T18:44:02Z</time></trkpt><trkpt lat="40.59331466178366" lon="15.32418260006434"><ele>225.0</ele><time>2026-03-26T18:44:03Z</time></trkpt><trkpt lat="40.59316007340957" lon="15.32438177577211"><ele>225.0</ele><time>2026-03-26T18:44:04Z</time></trkpt><trkpt lat="40.5930208467129" lon="15.324583440675198"><ele>225.0</ele><time>2026-03-26T18:44:05Z</time></trkpt><trkpt lat="40.59288363414313" lon="15.324787980260268"><ele>230.0</ele><time>2026-03-26T18:44:06Z</time></trkpt><trkpt lat="40.59275046045204" lon="15.32499955453328"><ele>235.0</ele><time>2026-03-26T18:44:07Z</time></trkpt><trkpt lat="40.592619527084835" lon="15.325213371339075"><ele>240.0</ele><time>2026-03-26T18:44:08Z</time></trkpt><trkpt lat="40.59249955858185" lon="15.325434123217363"><ele>230.66666666666669</ele><time>2026-03-26T18:44:09Z</time></trkpt><trkpt lat="40.59237787281551" lon="15.32566011847259"><ele>221.33333333333334</ele><time>2026-03-26T18:44:10Z</time></trkpt><trkpt lat="40.59225849579467" lon="15.325897002444343"><ele>212.0</ele><time>2026-03-26T18:44:11Z</time></trkpt><trkpt lat="40.59214584662369" lon="15.326136783115603"><ele>212.0</ele><time>2026-03-26T18:44:12Z</time></trkpt><trkpt lat="40.592038887575" lon="15.326382335049361"><ele>212.0</ele><time>2026-03-26T18:44:13Z</time></trkpt><trkpt lat="40.59193900922127" lon="15.326638761557737"><ele>212.0</ele><time>2026-03-26T18:44:14Z</time></trkpt><trkpt lat="40.591841103649465" lon="15.326896376317373"><ele>215.33333333333334</ele><time>2026-03-26T18:44:15Z</time></trkpt><trkpt lat="40.591745135432305" lon="15.32715055312663"><ele>218.66666666666669</ele><time>2026-03-26T18:44:16Z</time></trkpt><trkpt lat="40.591654383695115" lon="15.327404620645062"><ele>222.0</ele><time>2026-03-26T18:44:17Z</time></trkpt><trkpt lat="40.59157044820056" lon="15.327639878224923"><ele>222.0</ele><time>2026-03-26T18:44:18Z</time></trkpt><trkpt lat="40.59148669003991" lon="15.327881184438267"><ele>222.0</ele><time>2026-03-26T18:44:19Z</time></trkpt><trkpt lat="40.59140150030532" lon="15.328119299175691"><ele>222.0</ele><time>2026-03-26T18:44:20Z</time></trkpt><trkpt lat="40.591315692297805" lon="15.328366406526689"><ele>218.33333333333331</ele><time>2026-03-26T18:44:21Z</time></trkpt><trkpt lat="40.591230034838354" lon="15.328616069289582"><ele>214.66666666666666</ele><time>2026-03-26T18:44:22Z</time></trkpt><trkpt lat="40.59114415425162" lon="15.328870505282742"><ele>211.0</ele><time>2026-03-26T18:44:23Z</time></trkpt><trkpt lat="40.59105603388096" lon="15.329133556230024"><ele>226.5</ele><time>2026-03-26T18:44:24Z</time></trkpt><trkpt lat="40.590967371652596" lon="15.329403970481877"><ele>242.0</ele><time>2026-03-26T18:44:25Z</time></trkpt><trkpt lat="40.590877483840366" lon="15.329679595718579"><ele>235.0</ele><time>2026-03-26T18:44:26Z</time></trkpt><trkpt lat="40.59078316166826" lon="15.329952821883685"><ele>228.0</ele><time>2026-03-26T18:44:27Z</time></trkpt><trkpt lat="40.59068456178791" lon="15.330229537403127"><ele>228.0</ele><time>2026-03-26T18:44:28Z</time></trkpt><trkpt lat="40.5905792274284" lon="15.330504820084698"><ele>228.0</ele><time>2026-03-26T18:44:29Z</time></trkpt><trkpt lat="40.590469865946396" lon="15.330779505722031"><ele>219.5</ele><time>2026-03-26T18:44:30Z</time></trkpt><trkpt lat="40.590356255086846" lon="15.331057359173002"><ele>211.0</ele><time>2026-03-26T18:44:31Z</time></trkpt><trkpt lat="40.59023733422888" lon="15.331332928774142"><ele>227.0</ele><time>2026-03-26T18:44:32Z</time></trkpt><trkpt lat="40.59011221927417" lon="15.331609207567132"><ele>243.0</ele><time>2026-03-26T18:44:33Z</time></trkpt><trkpt lat="40.58998062290423" lon="15.331885724067906"><ele>243.0</ele><time>2026-03-26T18:44:34Z</time></trkpt><trkpt lat="40.589838328221475" lon="15.33215697203717"><ele>243.0</ele><time>2026-03-26T18:44:35Z</time></trkpt><trkpt lat="40.589689744481106" lon="15.332418452221951"><ele>254.5</ele><time>2026-03-26T18:44:36Z</time></trkpt><trkpt lat="40.58953697352905" lon="15.332675080713015"><ele>266.0</ele><time>2026-03-26T18:44:37Z</time></trkpt><trkpt lat="40.589377099296904" lon="15.332917762400921"><ele>252.0</ele><time>2026-03-26T18:44:38Z</time></trkpt><trkpt lat="40.5892153320943" lon="15.333155467427762"><ele>238.0</ele><time>2026-03-26T18:44:39Z</time></trkpt><trkpt lat="40.58905563583007" lon="15.333382431318203"><ele>238.0</ele><time>2026-03-26T18:44:40Z</time></trkpt><trkpt lat="40.5888999939436" lon="15.333601316962861"><ele>238.0</ele><time>2026-03-26T18:44:41Z</time></trkpt><trkpt lat="40.58874772696343" lon="15.333811739371393"><ele>238.0</ele><time>2026-03-26T18:44:42Z</time></trkpt><trkpt lat="40.5885942145738" lon="15.33401206251719"><ele>253.0</ele><time>2026-03-26T18:44:43Z</time></trkpt><trkpt lat="40.58843578003186" lon="15.334239678995544"><ele>268.0</ele><time>2026-03-26T18:44:44Z</time></trkpt><trkpt lat="40.58828162805815" lon="15.334452206405835"><ele>268.0</ele><time>2026-03-26T18:44:45Z</time></trkpt><trkpt lat="40.588127617112626" lon="15.334668224525867"><ele>268.0</ele><time>2026-03-26T18:44:46Z</time></trkpt><trkpt lat="40.58797433918354" lon="15.334884252548553"><ele>274.5</ele><time>2026-03-26T18:44:47Z</time></trkpt><trkpt lat="40.5878237752291" lon="15.335102659862265"><ele>281.0</ele><time>2026-03-26T18:44:48Z</time></trkpt><trkpt lat="40.587675892519755" lon="15.33532741814245"><ele>268.6666666666667</ele><time>2026-03-26T18:44:49Z</time></trkpt><trkpt lat="40.58753139493331" lon="15.335554787198966"><ele>256.3333333333333</ele><time>2026-03-26T18:44:50Z</time></trkpt><trkpt lat="40.587387963250144" lon="15.33578016753075"><ele>244.0</ele><time>2026-03-26T18:44:51Z</time></trkpt><trkpt lat="40.58724231707865" lon="15.33601091230268"><ele>244.0</ele><time>2026-03-26T18:44:52Z</time></trkpt><trkpt lat="40.58709753038" lon="15.336241382752737"><ele>244.0</ele><time>2026-03-26T18:44:53Z</time></trkpt><trkpt lat="40.58695199059988" lon="15.336471607982208"><ele>260.0</ele><time>2026-03-26T18:44:54Z</time></trkpt><trkpt lat="40.586807484427155" lon="15.336702314538856"><ele>276.0</ele><time>2026-03-26T18:44:55Z</time></trkpt><trkpt lat="40.5866607908623" lon="15.336936441621528"><ele>276.0</ele><time>2026-03-26T18:44:56Z</time></trkpt><trkpt lat="40.58651360607414" lon="15.337169722791733"><ele>276.0</ele><time>2026-03-26T18:44:57Z</time></trkpt><trkpt lat="40.58636629792229" lon="15.33740622191885"><ele>286.5</ele><time>2026-03-26T18:44:58Z</time></trkpt><trkpt lat="40.58621930239822" lon="15.337645080922691"><ele>297.0</ele><time>2026-03-26T18:44:59Z</time></trkpt><trkpt lat="40.5860730729982" lon="15.337885621967432"><ele>280.0</ele><time>2026-03-26T18:45:00Z</time></trkpt><trkpt lat="40.585926514136546" lon="15.33812731564502"><ele>263.0</ele><time>2026-03-26T18:45:01Z</time></trkpt><trkpt lat="40.58577730634058" lon="15.338369990162317"><ele>263.0</ele><time>2026-03-26T18:45:02Z</time></trkpt><trkpt lat="40.585625035184435" lon="15.338612340750435"><ele>263.0</ele><time>2026-03-26T18:45:03Z</time></trkpt><trkpt lat="40.585473835392825" lon="15.338852963426945"><ele>270.0</ele><time>2026-03-26T18:45:04Z</time></trkpt><trkpt lat="40.58532258350916" lon="15.339095637548352"><ele>277.0</ele><time>2026-03-26T18:45:05Z</time></trkpt><trkpt lat="40.58517052188821" lon="15.339333602026684"><ele>277.0</ele><time>2026-03-26T18:45:06Z</time></trkpt><trkpt lat="40.58501516895243" lon="15.339574143538155"><ele>277.0</ele><time>2026-03-26T18:45:07Z</time></trkpt><trkpt lat="40.58485740263424" lon="15.33980993966473"><ele>262.5</ele><time>2026-03-26T18:45:08Z</time></trkpt><trkpt lat="40.584692930435295" lon="15.340040323828253"><ele>248.0</ele><time>2026-03-26T18:45:09Z</time></trkpt><trkpt lat="40.584522430438994" lon="15.340267010501714"><ele>254.5</ele><time>2026-03-26T18:45:10Z</time></trkpt><trkpt lat="40.584348814571506" lon="15.340489678813142"><ele>261.0</ele><time>2026-03-26T18:45:11Z</time></trkpt><trkpt lat="40.584169614598586" lon="15.340707719375152"><ele>261.0</ele><time>2026-03-26T18:45:12Z</time></trkpt><trkpt lat="40.583984724059654" lon="15.340922957993172"><ele>261.0</ele><time>2026-03-26T18:45:13Z</time></trkpt><trkpt lat="40.58379707659966" lon="15.341131818919608"><ele>259.5</ele><time>2026-03-26T18:45:14Z</time></trkpt><trkpt lat="40.58360333955453" lon="15.341333730764116"><ele>258.0</ele><time>2026-03-26T18:45:15Z</time></trkpt><trkpt lat="40.5834086365156" lon="15.34152847003842"><ele>258.0</ele><time>2026-03-26T18:45:16Z</time></trkpt><trkpt lat="40.58321045474853" lon="15.341715887954734"><ele>258.0</ele><time>2026-03-26T18:45:17Z</time></trkpt><trkpt lat="40.58300945098525" lon="15.341896798087424"><ele>282.5</ele><time>2026-03-26T18:45:18Z</time></trkpt><trkpt lat="40.58280699603972" lon="15.342066625473535"><ele>307.0</ele><time>2026-03-26T18:45:19Z</time></trkpt><trkpt lat="40.58261094229195" lon="15.342199844385977"><ele>299.66666666666663</ele><time>2026-03-26T18:45:20Z</time></trkpt><trkpt lat="40.58241877144159" lon="15.342314430683377"><ele>292.3333333333333</ele><time>2026-03-26T18:45:21Z</time></trkpt><trkpt lat="40.58223234883844" lon="15.34243952582644"><ele>285.0</ele><time>2026-03-26T18:45:22Z</time></trkpt><trkpt lat="40.58204217820842" lon="15.342565766552442"><ele>308.0</ele><time>2026-03-26T18:45:23Z</time></trkpt><trkpt lat="40.581857577219715" lon="15.342686788140531"><ele>331.0</ele><time>2026-03-26T18:45:24Z</time></trkpt><trkpt lat="40.58166694183938" lon="15.342811825406045"><ele>354.0</ele><time>2026-03-26T18:45:25Z</time></trkpt><trkpt lat="40.581475564203146" lon="15.342932178885874"><ele>354.0</ele><time>2026-03-26T18:45:26Z</time></trkpt><trkpt lat="40.58128304237477" lon="15.343047434038507"><ele>354.0</ele><time>2026-03-26T18:45:27Z</time></trkpt><trkpt lat="40.581092485132494" lon="15.34316527700296"><ele>354.0</ele><time>2026-03-26T18:45:28Z</time></trkpt><trkpt lat="40.58090274209936" lon="15.343284042211726"><ele>367.66666666666663</ele><time>2026-03-26T18:45:29Z</time></trkpt><trkpt lat="40.58071590046338" lon="15.343405339230577"><ele>381.3333333333333</ele><time>2026-03-26T18:45:30Z</time></trkpt><trkpt lat="40.58052636876564" lon="15.343525683863005"><ele>395.0</ele><time>2026-03-26T18:45:31Z</time></trkpt><trkpt lat="40.580336883601674" lon="15.343646868681223"><ele>424.0</ele><time>2026-03-26T18:45:32Z</time></trkpt><trkpt lat="40.5797238376024" lon="15.343860273891442"><ele>402.5</ele><time>2026-03-26T18:45:33Z</time></trkpt><trkpt lat="40.579477045022905" lon="15.343981872036013"><ele>381.0</ele><time>2026-03-26T18:45:34Z</time></trkpt><trkpt lat="40.57922530602578" lon="15.344102685603186"><ele>381.0</ele><time>2026-03-26T18:45:35Z</time></trkpt><trkpt lat="40.57896743001492" lon="15.344227938012258"><ele>381.0</ele><time>2026-03-26T18:45:36Z</time></trkpt><trkpt lat="40.57871160175852" lon="15.344354957884526"><ele>357.0</ele><time>2026-03-26T18:45:37Z</time></trkpt><trkpt lat="40.57845700034167" lon="15.344483181547306"><ele>333.0</ele><time>2026-03-26T18:45:38Z</time></trkpt><trkpt lat="40.5781986546277" lon="15.344613177969327"><ele>326.5</ele><time>2026-03-26T18:45:39Z</time></trkpt><trkpt lat="40.57793954360037" lon="15.344744172682436"><ele>320.0</ele><time>2026-03-26T18:45:40Z</time></trkpt><trkpt lat="40.57767543441959" lon="15.344876875380445"><ele>299.0</ele><time>2026-03-26T18:45:41Z</time></trkpt><trkpt lat="40.577412120873305" lon="15.345009582593232"><ele>278.0</ele><time>2026-03-26T18:45:42Z</time></trkpt><trkpt lat="40.577146929072114" lon="15.345139826727634"><ele>268.33333333333337</ele><time>2026-03-26T18:45:43Z</time></trkpt><trkpt lat="40.576881637295095" lon="15.345273562028265"><ele>258.6666666666667</ele><time>2026-03-26T18:45:44Z</time></trkpt><trkpt lat="40.57672943195471" lon="15.34527464675705"><ele>249.0</ele><time>2026-03-26T18:45:45Z</time></trkpt><trkpt lat="40.576449073737344" lon="15.345431804900505"><ele>249.0</ele><time>2026-03-26T18:45:46Z</time></trkpt><trkpt lat="40.57622833382838" lon="15.345531186869579"><ele>249.0</ele><time>2026-03-26T18:45:47Z</time></trkpt><trkpt lat="40.575986262722466" lon="15.345658450476412"><ele>238.5</ele><time>2026-03-26T18:45:48Z</time></trkpt><trkpt lat="40.575743729827536" lon="15.345773977986765"><ele>228.0</ele><time>2026-03-26T18:45:49Z</time></trkpt><trkpt lat="40.575507586125646" lon="15.345885475401625"><ele>227.5</ele><time>2026-03-26T18:45:50Z</time></trkpt><trkpt lat="40.57527166665557" lon="15.346005923762345"><ele>227.0</ele><time>2026-03-26T18:45:51Z</time></trkpt><trkpt lat="40.575048717245146" lon="15.346123707163901"><ele>227.0</ele><time>2026-03-26T18:45:52Z</time></trkpt><trkpt lat="40.574841730601094" lon="15.346246576044894"><ele>227.0</ele><time>2026-03-26T18:45:53Z</time></trkpt><trkpt lat="40.57464591693107" lon="15.34637453639024"><ele>227.0</ele><time>2026-03-26T18:45:54Z</time></trkpt><trkpt lat="40.57445435545325" lon="15.34651095965588"><ele>231.0</ele><time>2026-03-26T18:45:55Z</time></trkpt><trkpt lat="40.574262877021965" lon="15.346657821998836"><ele>235.0</ele><time>2026-03-26T18:45:56Z</time></trkpt><trkpt lat="40.57407420310246" lon="15.34681455506838"><ele>239.0</ele><time>2026-03-26T18:45:57Z</time></trkpt><trkpt lat="40.57388869039499" lon="15.34698300206782"><ele>239.0</ele><time>2026-03-26T18:45:58Z</time></trkpt><trkpt lat="40.573706915359494" lon="15.347162752652666"><ele>239.0</ele><time>2026-03-26T18:45:59Z</time></trkpt><trkpt lat="40.57353021990397" lon="15.347350730894556"><ele>242.5</ele><time>2026-03-26T18:46:00Z</time></trkpt><trkpt lat="40.573360659261134" lon="15.347542407825378"><ele>246.0</ele><time>2026-03-26T18:46:01Z</time></trkpt><trkpt lat="40.57318377319419" lon="15.347741842405648"><ele>246.0</ele><time>2026-03-26T18:46:02Z</time></trkpt><trkpt lat="40.57301019675105" lon="15.347943653915426"><ele>246.0</ele><time>2026-03-26T18:46:03Z</time></trkpt><trkpt lat="40.57283585990823" lon="15.348146070628777"><ele>244.0</ele><time>2026-03-26T18:46:04Z</time></trkpt><trkpt lat="40.572661661915475" lon="15.348343807020424"><ele>242.0</ele><time>2026-03-26T18:46:05Z</time></trkpt><trkpt lat="40.572487978679476" lon="15.348539731307987"><ele>242.0</ele><time>2026-03-26T18:46:06Z</time></trkpt><trkpt lat="40.57231586233105" lon="15.348735585553698"><ele>242.0</ele><time>2026-03-26T18:46:07Z</time></trkpt><trkpt lat="40.57214610943768" lon="15.348928198007643"><ele>236.0</ele><time>2026-03-26T18:46:08Z</time></trkpt><trkpt lat="40.57197487316418" lon="15.349119737887886"><ele>230.0</ele><time>2026-03-26T18:46:09Z</time></trkpt><trkpt lat="40.571803256168685" lon="15.349313395920074"><ele>230.0</ele><time>2026-03-26T18:46:10Z</time></trkpt><trkpt lat="40.57163138030574" lon="15.349509874976729"><ele>230.0</ele><time>2026-03-26T18:46:11Z</time></trkpt><trkpt lat="40.57145663892496" lon="15.349710132943732"><ele>229.5</ele><time>2026-03-26T18:46:12Z</time></trkpt><trkpt lat="40.571284083294174" lon="15.349910923748148"><ele>229.0</ele><time>2026-03-26T18:46:13Z</time></trkpt><trkpt lat="40.57111075691314" lon="15.350112332870536"><ele>230.0</ele><time>2026-03-26T18:46:14Z</time></trkpt><trkpt lat="40.57093443988277" lon="15.35031660496285"><ele>231.0</ele><time>2026-03-26T18:46:15Z</time></trkpt><trkpt lat="40.570756781066564" lon="15.350522774257097"><ele>238.0</ele><time>2026-03-26T18:46:16Z</time></trkpt><trkpt lat="40.57058172042976" lon="15.350731835952885"><ele>245.0</ele><time>2026-03-26T18:46:17Z</time></trkpt><trkpt lat="40.57041606931605" lon="15.350950052371198"><ele>244.5</ele><time>2026-03-26T18:46:18Z</time></trkpt><trkpt lat="40.57025661881062" lon="15.351174908869035"><ele>244.0</ele><time>2026-03-26T18:46:19Z</time></trkpt><trkpt lat="40.570102659333166" lon="15.351403514046853"><ele>247.0</ele><time>2026-03-26T18:46:20Z</time></trkpt><trkpt lat="40.56995336475572" lon="15.351636694303293"><ele>250.0</ele><time>2026-03-26T18:46:21Z</time></trkpt><trkpt lat="40.56980793641101" lon="15.351873739754486"><ele>250.0</ele><time>2026-03-26T18:46:22Z</time></trkpt><trkpt lat="40.569667181843606" lon="15.352116867660941"><ele>250.0</ele><time>2026-03-26T18:46:23Z</time></trkpt><trkpt lat="40.56953161847059" lon="15.352366475165601"><ele>254.5</ele><time>2026-03-26T18:46:24Z</time></trkpt><trkpt lat="40.569401120902924" lon="15.352620548457828"><ele>259.0</ele><time>2026-03-26T18:46:25Z</time></trkpt><trkpt lat="40.56927721727303" lon="15.352877325670914"><ele>264.0</ele><time>2026-03-26T18:46:26Z</time></trkpt><trkpt lat="40.56916052328907" lon="15.3531410380911"><ele>269.0</ele><time>2026-03-26T18:46:27Z</time></trkpt><trkpt lat="40.569049505818626" lon="15.353411126866643"><ele>269.0</ele><time>2026-03-26T18:46:28Z</time></trkpt><trkpt lat="40.56894323285224" lon="15.353685073586341"><ele>269.0</ele><time>2026-03-26T18:46:29Z</time></trkpt><trkpt lat="40.568840691797405" lon="15.353963817485049"><ele>273.5</ele><time>2026-03-26T18:46:30Z</time></trkpt><trkpt lat="40.56874499550837" lon="15.354245805592486"><ele>278.0</ele><time>2026-03-26T18:46:31Z</time></trkpt><trkpt lat="40.5686540665572" lon="15.354529642323431"><ele>290.5</ele><time>2026-03-26T18:46:32Z</time></trkpt><trkpt lat="40.56856965459861" lon="15.354821385410203"><ele>303.0</ele><time>2026-03-26T18:46:33Z</time></trkpt><trkpt lat="40.568493204326785" lon="15.355119533775609"><ele>303.0</ele><time>2026-03-26T18:46:34Z</time></trkpt><trkpt lat="40.568426209213264" lon="15.355421965783954"><ele>303.0</ele><time>2026-03-26T18:46:35Z</time></trkpt><trkpt lat="40.568366595315275" lon="15.355730305472186"><ele>310.5</ele><time>2026-03-26T18:46:36Z</time></trkpt><trkpt lat="40.56831246130615" lon="15.356045153735307"><ele>318.0</ele><time>2026-03-26T18:46:37Z</time></trkpt><trkpt lat="40.56826308903862" lon="15.356366541192186"><ele>327.0</ele><time>2026-03-26T18:46:38Z</time></trkpt><trkpt lat="40.56821543506488" lon="15.356693366324235"><ele>336.0</ele><time>2026-03-26T18:46:39Z</time></trkpt><trkpt lat="40.56817008009804" lon="15.357024784346635"><ele>350.5</ele><time>2026-03-26T18:46:40Z</time></trkpt><trkpt lat="40.56809607825785" lon="15.357301906384611"><ele>365.0</ele><time>2026-03-26T18:46:41Z</time></trkpt><trkpt lat="40.56805193030782" lon="15.35762818121042"><ele>365.0</ele><time>2026-03-26T18:46:42Z</time></trkpt><trkpt lat="40.56800815338887" lon="15.357964678329449"><ele>365.0</ele><time>2026-03-26T18:46:43Z</time></trkpt><trkpt lat="40.56795996297777" lon="15.35830176454106"><ele>382.0</ele><time>2026-03-26T18:46:44Z</time></trkpt><trkpt lat="40.56791108651309" lon="15.358639178300825"><ele>399.0</ele><time>2026-03-26T18:46:45Z</time></trkpt><trkpt lat="40.56786416293016" lon="15.358972739410898"><ele>422.5</ele><time>2026-03-26T18:46:46Z</time></trkpt><trkpt lat="40.56782075486109" lon="15.359300971117502"><ele>446.0</ele><time>2026-03-26T18:46:47Z</time></trkpt><trkpt lat="40.56777681902084" lon="15.359625841535356"><ele>465.5</ele><time>2026-03-26T18:46:48Z</time></trkpt><trkpt lat="40.56773173288641" lon="15.359947066346338"><ele>485.0</ele><time>2026-03-26T18:46:49Z</time></trkpt><trkpt lat="40.56768996040836" lon="15.36026570146277"><ele>497.5</ele><time>2026-03-26T18:46:50Z</time></trkpt><trkpt lat="40.56764530532941" lon="15.360587785203442"><ele>510.0</ele><time>2026-03-26T18:46:51Z</time></trkpt><trkpt lat="40.56759974728647" lon="15.36090938976352"><ele>510.0</ele><time>2026-03-26T18:46:52Z</time></trkpt><trkpt lat="40.56755369043785" lon="15.361231836573607"><ele>510.0</ele><time>2026-03-26T18:46:53Z</time></trkpt><trkpt lat="40.56750964271563" lon="15.361556421241344"><ele>510.0</ele><time>2026-03-26T18:46:54Z</time></trkpt><trkpt lat="40.56746476920604" lon="15.361881092561358"><ele>510.0</ele><time>2026-03-26T18:46:55Z</time></trkpt><trkpt lat="40.56741711084746" lon="15.36220106445"><ele>509.5</ele><time>2026-03-26T18:46:56Z</time></trkpt><trkpt lat="40.56737142245217" lon="15.362519313509393"><ele>509.0</ele><time>2026-03-26T18:46:57Z</time></trkpt><trkpt lat="40.567326233140896" lon="15.36282823185905"><ele>508.5</ele><time>2026-03-26T18:46:58Z</time></trkpt><trkpt lat="40.567281369304304" lon="15.363136605503104"><ele>508.0</ele><time>2026-03-26T18:46:59Z</time></trkpt><trkpt lat="40.56724092929915" lon="15.363453499792309"><ele>508.0</ele><time>2026-03-26T18:47:00Z</time></trkpt><trkpt lat="40.567196709829254" lon="15.36377368517369"><ele>508.0</ele><time>2026-03-26T18:47:01Z</time></trkpt><trkpt lat="40.56715177484869" lon="15.364092277376109"><ele>505.5</ele><time>2026-03-26T18:47:02Z</time></trkpt><trkpt lat="40.567107206724295" lon="15.364414960196122"><ele>503.0</ele><time>2026-03-26T18:47:03Z</time></trkpt><trkpt lat="40.5670611470259" lon="15.364736978615657"><ele>514.0</ele><time>2026-03-26T18:47:04Z</time></trkpt><trkpt lat="40.56701381151118" lon="15.365055878044119"><ele>525.0</ele><time>2026-03-26T18:47:05Z</time></trkpt><trkpt lat="40.5669675407158" lon="15.365376396879823"><ele>518.0</ele><time>2026-03-26T18:47:06Z</time></trkpt><trkpt lat="40.5669247232005" lon="15.365704600968835"><ele>511.0</ele><time>2026-03-26T18:47:07Z</time></trkpt><trkpt lat="40.5668793058181" lon="15.366045113691667"><ele>301.0</ele><time>2026-03-26T18:47:08.024Z</time></trkpt><trkpt lat="40.565385608819845" lon="15.376484884613165"><ele>312.66666666666663</ele><time>2026-03-26T18:47:44Z</time></trkpt><trkpt lat="40.56534871024312" lon="15.376767856278795"><ele>324.3333333333333</ele><time>2026-03-26T18:47:45Z</time></trkpt><trkpt lat="40.56531673944532" lon="15.377009513739429"><ele>336.0</ele><time>2026-03-26T18:47:46Z</time></trkpt><trkpt lat="40.56527373535906" lon="15.377290464042998"><ele>336.0</ele><time>2026-03-26T18:47:47Z</time></trkpt><trkpt lat="40.56521520771759" lon="15.3775740395406"><ele>336.0</ele><time>2026-03-26T18:47:48Z</time></trkpt><trkpt lat="40.565142520335456" lon="15.377862284327087"><ele>331.5</ele><time>2026-03-26T18:47:49Z</time></trkpt><trkpt lat="40.56506072321586" lon="15.37814307240936"><ele>327.0</ele><time>2026-03-26T18:47:50Z</time></trkpt><trkpt lat="40.564967671818856" lon="15.378414675867594"><ele>327.0</ele><time>2026-03-26T18:47:51Z</time></trkpt><trkpt lat="40.56486946945299" lon="15.378683214038675"><ele>327.0</ele><time>2026-03-26T18:47:52Z</time></trkpt><trkpt lat="40.56476341928295" lon="15.378949456034103"><ele>322.5</ele><time>2026-03-26T18:47:53Z</time></trkpt><trkpt lat="40.56464411780353" lon="15.37921043911598"><ele>318.0</ele><time>2026-03-26T18:47:54Z</time></trkpt><trkpt lat="40.564524014265125" lon="15.37946181249761"><ele>322.0</ele><time>2026-03-26T18:47:55Z</time></trkpt><trkpt lat="40.564385214031574" lon="15.3797126155105"><ele>326.0</ele><time>2026-03-26T18:47:56Z</time></trkpt><trkpt lat="40.56423951671461" lon="15.379956376224282"><ele>326.0</ele><time>2026-03-26T18:47:57Z</time></trkpt><trkpt lat="40.56408729141254" lon="15.380193094002554"><ele>326.0</ele><time>2026-03-26T18:47:58Z</time></trkpt><trkpt lat="40.56392751131265" lon="15.380425274434453"><ele>330.5</ele><time>2026-03-26T18:47:59Z</time></trkpt><trkpt lat="40.56376361824212" lon="15.380653626579036"><ele>335.0</ele><time>2026-03-26T18:48:00Z</time></trkpt><trkpt lat="40.563591953889436" lon="15.380876099614827"><ele>335.0</ele><time>2026-03-26T18:48:01Z</time></trkpt><trkpt lat="40.5634142373804" lon="15.381093580290933"><ele>335.0</ele><time>2026-03-26T18:48:02Z</time></trkpt><trkpt lat="40.5632317095314" lon="15.381306738456857"><ele>339.0</ele><time>2026-03-26T18:48:03Z</time></trkpt><trkpt lat="40.56304585934442" lon="15.381515742768379"><ele>343.0</ele><time>2026-03-26T18:48:04Z</time></trkpt><trkpt lat="40.56285493424746" lon="15.381718260108302"><ele>343.0</ele><time>2026-03-26T18:48:05Z</time></trkpt><trkpt lat="40.56266170500553" lon="15.381914378307236"><ele>343.0</ele><time>2026-03-26T18:48:06Z</time></trkpt><trkpt lat="40.5624650340481" lon="15.382109561445596"><ele>334.0</ele><time>2026-03-26T18:48:07Z</time></trkpt><trkpt lat="40.56226757203509" lon="15.382304306805976"><ele>325.0</ele><time>2026-03-26T18:48:08Z</time></trkpt><trkpt lat="40.56206988643702" lon="15.382498288333485"><ele>335.0</ele><time>2026-03-26T18:48:09Z</time></trkpt><trkpt lat="40.56187307340802" lon="15.382697341853873"><ele>345.0</ele><time>2026-03-26T18:48:10Z</time></trkpt><trkpt lat="40.561681197729236" lon="15.382904020444412"><ele>336.5</ele><time>2026-03-26T18:48:11Z</time></trkpt><trkpt lat="40.56149895254773" lon="15.383119085534092"><ele>328.0</ele><time>2026-03-26T18:48:12Z</time></trkpt><trkpt lat="40.56133090084279" lon="15.383342842780037"><ele>340.0</ele><time>2026-03-26T18:48:13Z</time></trkpt><trkpt lat="40.56116609185684" lon="15.383572630668647"><ele>352.0</ele><time>2026-03-26T18:48:14Z</time></trkpt><trkpt lat="40.561009833276415" lon="15.383811700454428"><ele>345.0</ele><time>2026-03-26T18:48:15Z</time></trkpt><trkpt lat="40.56086605978908" lon="15.38405642432352"><ele>338.0</ele><time>2026-03-26T18:48:16Z</time></trkpt><trkpt lat="40.56073374291698" lon="15.384307046752069"><ele>338.0</ele><time>2026-03-26T18:48:17Z</time></trkpt><trkpt lat="40.56061277997354" lon="15.384562903592817"><ele>338.0</ele><time>2026-03-26T18:48:18Z</time></trkpt><trkpt lat="40.560501170529044" lon="15.384823806574982"><ele>334.0</ele><time>2026-03-26T18:48:19Z</time></trkpt><trkpt lat="40.56039743949602" lon="15.385091458744249"><ele>330.0</ele><time>2026-03-26T18:48:20Z</time></trkpt><trkpt lat="40.56030113873598" lon="15.385365064295886"><ele>340.5</ele><time>2026-03-26T18:48:21Z</time></trkpt><trkpt lat="40.560211185913644" lon="15.38564313716237"><ele>351.0</ele><time>2026-03-26T18:48:22Z</time></trkpt><trkpt lat="40.56012477087774" lon="15.38592313368814"><ele>351.0</ele><time>2026-03-26T18:48:23Z</time></trkpt><trkpt lat="40.56004160940097" lon="15.386209048610205"><ele>351.0</ele><time>2026-03-26T18:48:24Z</time></trkpt><trkpt lat="40.5599611769432" lon="15.386496235734016"><ele>347.5</ele><time>2026-03-26T18:48:25Z</time></trkpt><trkpt lat="40.559879187708816" lon="15.386783464573218"><ele>344.0</ele><time>2026-03-26T18:48:26Z</time></trkpt><trkpt lat="40.5597943626629" lon="15.387073545571855"><ele>342.0</ele><time>2026-03-26T18:48:27Z</time></trkpt><trkpt lat="40.55970983379163" lon="15.387366444117632"><ele>340.0</ele><time>2026-03-26T18:48:28Z</time></trkpt><trkpt lat="40.559625084566406" lon="15.387660673388016"><ele>340.0</ele><time>2026-03-26T18:48:29Z</time></trkpt><trkpt lat="40.55953661833246" lon="15.387954693519282"><ele>340.0</ele><time>2026-03-26T18:48:30Z</time></trkpt><trkpt lat="40.55945554330646" lon="15.388256850816544"><ele>338.0</ele><time>2026-03-26T18:48:31Z</time></trkpt><trkpt lat="40.55936918675128" lon="15.388557616237637"><ele>336.0</ele><time>2026-03-26T18:48:32Z</time></trkpt><trkpt lat="40.55927500156399" lon="15.388852012311764"><ele>336.0</ele><time>2026-03-26T18:48:33Z</time></trkpt><trkpt lat="40.55918622945923" lon="15.389152989633072"><ele>336.0</ele><time>2026-03-26T18:48:34Z</time></trkpt><trkpt lat="40.559098523393345" lon="15.389454031052004"><ele>332.5</ele><time>2026-03-26T18:48:35Z</time></trkpt><trkpt lat="40.55900680232364" lon="15.389753601328652"><ele>329.0</ele><time>2026-03-26T18:48:36Z</time></trkpt><trkpt lat="40.55890875332646" lon="15.390048806123666"><ele>329.0</ele><time>2026-03-26T18:48:37Z</time></trkpt><trkpt lat="40.558803212476484" lon="15.39033639989382"><ele>329.0</ele><time>2026-03-26T18:48:38Z</time></trkpt><trkpt lat="40.5586914054576" lon="15.390619526211527"><ele>340.0</ele><time>2026-03-26T18:48:39Z</time></trkpt><trkpt lat="40.558572313682006" lon="15.390896860864588"><ele>351.0</ele><time>2026-03-26T18:48:40Z</time></trkpt><trkpt lat="40.55844526018228" lon="15.391171652588916"><ele>347.0</ele><time>2026-03-26T18:48:41Z</time></trkpt><trkpt lat="40.558313543602345" lon="15.39144099761179"><ele>343.0</ele><time>2026-03-26T18:48:42Z</time></trkpt><trkpt lat="40.558176216808526" lon="15.391706917384692"><ele>343.0</ele><time>2026-03-26T18:48:43Z</time></trkpt><trkpt lat="40.55803321245821" lon="15.391966341067643"><ele>343.0</ele><time>2026-03-26T18:48:44Z</time></trkpt><trkpt lat="40.55788219954879" lon="15.392219608609537"><ele>342.5</ele><time>2026-03-26T18:48:45Z</time></trkpt><trkpt lat="40.55772608874626" lon="15.392466786481721"><ele>342.0</ele><time>2026-03-26T18:48:46Z</time></trkpt><trkpt lat="40.55756438293738" lon="15.392708600119256"><ele>342.0</ele><time>2026-03-26T18:48:47Z</time></trkpt><trkpt lat="40.55739730315432" lon="15.392945523262666"><ele>342.0</ele><time>2026-03-26T18:48:48Z</time></trkpt><trkpt lat="40.55722423248512" lon="15.393176974727945"><ele>343.0</ele><time>2026-03-26T18:48:49Z</time></trkpt><trkpt lat="40.55704657835591" lon="15.39340285623823"><ele>344.0</ele><time>2026-03-26T18:48:50Z</time></trkpt><trkpt lat="40.55686438779844" lon="15.393622340894833"><ele>339.0</ele><time>2026-03-26T18:48:51Z</time></trkpt><trkpt lat="40.556677582291044" lon="15.393839159981578"><ele>334.0</ele><time>2026-03-26T18:48:52Z</time></trkpt><trkpt lat="40.55648838791107" lon="15.394054290307615"><ele>334.0</ele><time>2026-03-26T18:48:53Z</time></trkpt><trkpt lat="40.556296363050734" lon="15.394270019816927"><ele>334.0</ele><time>2026-03-26T18:48:54Z</time></trkpt><trkpt lat="40.556104340169085" lon="15.394487833384279"><ele>334.0</ele><time>2026-03-26T18:48:55Z</time></trkpt><trkpt lat="40.555915005675736" lon="15.394705646433533"><ele>334.0</ele><time>2026-03-26T18:48:56Z</time></trkpt><trkpt lat="40.55572820801152" lon="15.39492394484531"><ele>334.0</ele><time>2026-03-26T18:48:57Z</time></trkpt><trkpt lat="40.55554295027" lon="15.395146199053022"><ele>334.0</ele><time>2026-03-26T18:48:58Z</time></trkpt><trkpt lat="40.555362770852966" lon="15.395373800666839"><ele>334.5</ele><time>2026-03-26T18:48:59Z</time></trkpt><trkpt lat="40.555186288317714" lon="15.395610059929199"><ele>335.0</ele><time>2026-03-26T18:49:00Z</time></trkpt><trkpt lat="40.555016174209946" lon="15.395854198941878"><ele>335.0</ele><time>2026-03-26T18:49:01Z</time></trkpt><trkpt lat="40.55485227771515" lon="15.396106915413577"><ele>335.0</ele><time>2026-03-26T18:49:02Z</time></trkpt><trkpt lat="40.55469394821655" lon="15.396363954642627"><ele>334.5</ele><time>2026-03-26T18:49:03Z</time></trkpt><trkpt lat="40.55454001418487" lon="15.396626651300103"><ele>334.0</ele><time>2026-03-26T18:49:04Z</time></trkpt><trkpt lat="40.554391850823656" lon="15.396891160670112"><ele>334.0</ele><time>2026-03-26T18:49:05Z</time></trkpt><trkpt lat="40.55425091629105" lon="15.397157948153641"><ele>334.0</ele><time>2026-03-26T18:49:06Z</time></trkpt><trkpt lat="40.554115945651695" lon="15.397429714756736"><ele>321.0</ele><time>2026-03-26T18:49:07Z</time></trkpt><trkpt lat="40.55398764853573" lon="15.397704082052657"><ele>308.0</ele><time>2026-03-26T18:49:08Z</time></trkpt><trkpt lat="40.553863680323715" lon="15.39798000628093"><ele>295.5</ele><time>2026-03-26T18:49:09Z</time></trkpt><trkpt lat="40.55374561397005" lon="15.398254710580986"><ele>283.0</ele><time>2026-03-26T18:49:10Z</time></trkpt><trkpt lat="40.55363467960117" lon="15.39852886789662"><ele>283.0</ele><time>2026-03-26T18:49:11Z</time></trkpt><trkpt lat="40.55352859377109" lon="15.398803426243104"><ele>283.0</ele><time>2026-03-26T18:49:12Z</time></trkpt><trkpt lat="40.55342546230958" lon="15.39907635771444"><ele>283.5</ele><time>2026-03-26T18:49:13Z</time></trkpt><trkpt lat="40.553325106381166" lon="15.39934379066201"><ele>284.0</ele><time>2026-03-26T18:49:14Z</time></trkpt><trkpt lat="40.55322537650098" lon="15.39960845749181"><ele>289.6666666666667</ele><time>2026-03-26T18:49:15Z</time></trkpt><trkpt lat="40.55312656503889" lon="15.399873091253037"><ele>295.3333333333333</ele><time>2026-03-26T18:49:16Z</time></trkpt><trkpt lat="40.55302908731698" lon="15.40013563700242"><ele>301.0</ele><time>2026-03-26T18:49:17Z</time></trkpt><trkpt lat="40.5529309872415" lon="15.40039944760302"><ele>323.0</ele><time>2026-03-26T18:49:18Z</time></trkpt><trkpt lat="40.55283214522854" lon="15.400664646499218"><ele>345.0</ele><time>2026-03-26T18:49:19Z</time></trkpt><trkpt lat="40.55273116471583" lon="15.40093438792242"><ele>345.0</ele><time>2026-03-26T18:49:20Z</time></trkpt><trkpt lat="40.55263163362422" lon="15.401205471445099"><ele>345.0</ele><time>2026-03-26T18:49:21Z</time></trkpt><trkpt lat="40.552530543485894" lon="15.401483148195968"><ele>342.0</ele><time>2026-03-26T18:49:22Z</time></trkpt><trkpt lat="40.55242677473563" lon="15.401762574492906"><ele>339.0</ele><time>2026-03-26T18:49:23Z</time></trkpt><trkpt lat="40.55232347615508" lon="15.402044830844474"><ele>335.0</ele><time>2026-03-26T18:49:24Z</time></trkpt><trkpt lat="40.55221887550968" lon="15.402329242465601"><ele>331.0</ele><time>2026-03-26T18:49:25Z</time></trkpt><trkpt lat="40.55211074662552" lon="15.402616981193098"><ele>338.0</ele><time>2026-03-26T18:49:26Z</time></trkpt><trkpt lat="40.55200153204756" lon="15.402907987850968"><ele>345.0</ele><time>2026-03-26T18:49:27Z</time></trkpt><trkpt lat="40.55189197245757" lon="15.403201364959477"><ele>345.0</ele><time>2026-03-26T18:49:28Z</time></trkpt><trkpt lat="40.551780648379676" lon="15.403492716203727"><ele>345.0</ele><time>2026-03-26T18:49:29Z</time></trkpt><trkpt lat="40.55167017752345" lon="15.403785298337503"><ele>340.0</ele><time>2026-03-26T18:49:30Z</time></trkpt><trkpt lat="40.551559857026334" lon="15.404082033415431"><ele>335.0</ele><time>2026-03-26T18:49:31Z</time></trkpt><trkpt lat="40.551449032596466" lon="15.404381788331495"><ele>330.5</ele><time>2026-03-26T18:49:32Z</time></trkpt><trkpt lat="40.55133454684578" lon="15.404686157032456"><ele>326.0</ele><time>2026-03-26T18:49:33Z</time></trkpt><trkpt lat="40.55121782769691" lon="15.404992022754792"><ele>335.0</ele><time>2026-03-26T18:49:34Z</time></trkpt><trkpt lat="40.55110096767788" lon="15.405300440285458"><ele>344.0</ele><time>2026-03-26T18:49:35Z</time></trkpt><trkpt lat="40.550984157487136" lon="15.405610919515984"><ele>344.0</ele><time>2026-03-26T18:49:36Z</time></trkpt><trkpt lat="40.55086337957119" lon="15.405920497879077"><ele>344.0</ele><time>2026-03-26T18:49:37Z</time></trkpt><trkpt lat="40.550738679959245" lon="15.406226472788099"><ele>339.0</ele><time>2026-03-26T18:49:38Z</time></trkpt><trkpt lat="40.55061102399007" lon="15.406528116469527"><ele>334.0</ele><time>2026-03-26T18:49:39Z</time></trkpt><trkpt lat="40.550480100165515" lon="15.406827746989277"><ele>342.5</ele><time>2026-03-26T18:49:40Z</time></trkpt><trkpt lat="40.55034609190694" lon="15.40712183749949"><ele>351.0</ele><time>2026-03-26T18:49:41Z</time></trkpt><trkpt lat="40.55020744745962" lon="15.407412932022083"><ele>351.0</ele><time>2026-03-26T18:49:42Z</time></trkpt><trkpt lat="40.55006367111444" lon="15.407699444286031"><ele>351.0</ele><time>2026-03-26T18:49:43Z</time></trkpt><trkpt lat="40.54991699911901" lon="15.407985024415098"><ele>342.5</ele><time>2026-03-26T18:49:44Z</time></trkpt><trkpt lat="40.5497692407484" lon="15.408263374506014"><ele>334.0</ele><time>2026-03-26T18:49:45Z</time></trkpt><trkpt lat="40.549619447954" lon="15.408539618389899"><ele>340.0</ele><time>2026-03-26T18:49:46Z</time></trkpt><trkpt lat="40.549466905949295" lon="15.408813509137214"><ele>346.0</ele><time>2026-03-26T18:49:47Z</time></trkpt><trkpt lat="40.54931125345939" lon="15.409082955955885"><ele>346.0</ele><time>2026-03-26T18:49:48Z</time></trkpt><trkpt lat="40.54915314622755" lon="15.409350895519125"><ele>346.0</ele><time>2026-03-26T18:49:49Z</time></trkpt><trkpt lat="40.54899151326734" lon="15.409616652407196"><ele>349.5</ele><time>2026-03-26T18:49:50Z</time></trkpt><trkpt lat="40.54882633662438" lon="15.409877965746135"><ele>353.0</ele><time>2026-03-26T18:49:51Z</time></trkpt><trkpt lat="40.54866241872668" lon="15.410131256235056"><ele>353.0</ele><time>2026-03-26T18:49:52Z</time></trkpt><trkpt lat="40.54849723286671" lon="15.410385161443605"><ele>353.0</ele><time>2026-03-26T18:49:53Z</time></trkpt><trkpt lat="40.548333039842696" lon="15.410637881585327"><ele>344.0</ele><time>2026-03-26T18:49:54Z</time></trkpt><trkpt lat="40.548171948939576" lon="15.410887103413978"><ele>335.0</ele><time>2026-03-26T18:49:55Z</time></trkpt><trkpt lat="40.54801260618247" lon="15.411134981186779"><ele>341.0</ele><time>2026-03-26T18:49:56Z</time></trkpt><trkpt lat="40.54785483512005" lon="15.411376845273837"><ele>347.0</ele><time>2026-03-26T18:49:57Z</time></trkpt><trkpt lat="40.54769624108466" lon="15.411614507176004"><ele>347.0</ele><time>2026-03-26T18:49:58Z</time></trkpt><trkpt lat="40.547539076786606" lon="15.411848788604688"><ele>347.0</ele><time>2026-03-26T18:49:59Z</time></trkpt><trkpt lat="40.54738301493061" lon="15.412079119922554"><ele>338.5</ele><time>2026-03-26T18:50:00Z</time></trkpt><trkpt lat="40.54722560631592" lon="15.412305537059371"><ele>330.0</ele><time>2026-03-26T18:50:01Z</time></trkpt><trkpt lat="40.54706567296807" lon="15.412528903132404"><ele>342.0</ele><time>2026-03-26T18:50:02Z</time></trkpt><trkpt lat="40.546903271331736" lon="15.41274858103593"><ele>354.0</ele><time>2026-03-26T18:50:03Z</time></trkpt><trkpt lat="40.54673591842717" lon="15.412964986172188"><ele>349.0</ele><time>2026-03-26T18:50:04Z</time></trkpt><trkpt lat="40.546566008559715" lon="15.413175904614334"><ele>344.0</ele><time>2026-03-26T18:50:05Z</time></trkpt><trkpt lat="40.54639294636924" lon="15.413381352840481"><ele>344.0</ele><time>2026-03-26T18:50:06Z</time></trkpt><trkpt lat="40.54621465231074" lon="15.413582958015361"><ele>344.0</ele><time>2026-03-26T18:50:07Z</time></trkpt><trkpt lat="40.546033835711214" lon="15.413778288448178"><ele>349.0</ele><time>2026-03-26T18:50:08Z</time></trkpt><trkpt lat="40.545848425329986" lon="15.413967526377675"><ele>354.0</ele><time>2026-03-26T18:50:09Z</time></trkpt><trkpt lat="40.54565721925077" lon="15.414149740861784"><ele>354.0</ele><time>2026-03-26T18:50:10Z</time></trkpt><trkpt lat="40.54545809745113" lon="15.414328917010767"><ele>354.0</ele><time>2026-03-26T18:50:11Z</time></trkpt><trkpt lat="40.54525627008012" lon="15.414499841041795"><ele>353.5</ele><time>2026-03-26T18:50:12Z</time></trkpt><trkpt lat="40.54504983633435" lon="15.414667486811588"><ele>353.0</ele><time>2026-03-26T18:50:13Z</time></trkpt><trkpt lat="40.544838255764404" lon="15.414829778579742"><ele>353.0</ele><time>2026-03-26T18:50:14Z</time></trkpt><trkpt lat="40.54462326895524" lon="15.4149846689336"><ele>353.0</ele><time>2026-03-26T18:50:15Z</time></trkpt><trkpt lat="40.54440100095263" lon="15.415135885373953"><ele>358.5</ele><time>2026-03-26T18:50:16Z</time></trkpt><trkpt lat="40.54417551522416" lon="15.41527823701048"><ele>364.0</ele><time>2026-03-26T18:50:17Z</time></trkpt><trkpt lat="40.5439459693259" lon="15.415414432646445"><ele>360.5</ele><time>2026-03-26T18:50:18Z</time></trkpt><trkpt lat="40.54371606306781" lon="15.415546541645512"><ele>357.0</ele><time>2026-03-26T18:50:19Z</time></trkpt><trkpt lat="40.54348669031887" lon="15.41567695953738"><ele>357.0</ele><time>2026-03-26T18:50:20Z</time></trkpt><trkpt lat="40.54325969093018" lon="15.415804150872798"><ele>357.0</ele><time>2026-03-26T18:50:21Z</time></trkpt><trkpt lat="40.54303341711432" lon="15.415930144112602"><ele>364.0</ele><time>2026-03-26T18:50:22Z</time></trkpt><trkpt lat="40.54280769200288" lon="15.416053826639986"><ele>371.0</ele><time>2026-03-26T18:50:23Z</time></trkpt><trkpt lat="40.54258470068607" lon="15.41617483859395"><ele>371.0</ele><time>2026-03-26T18:50:24Z</time></trkpt><trkpt lat="40.54236463182836" lon="15.416292131731558"><ele>371.0</ele><time>2026-03-26T18:50:25Z</time></trkpt><trkpt lat="40.54214543032246" lon="15.416409585873577"><ele>366.5</ele><time>2026-03-26T18:50:26Z</time></trkpt><trkpt lat="40.5419276305441" lon="15.416524543948572"><ele>362.0</ele><time>2026-03-26T18:50:27Z</time></trkpt><trkpt lat="40.541708246714876" lon="15.416643618860999"><ele>362.0</ele><time>2026-03-26T18:50:28Z</time></trkpt><trkpt lat="40.541489446198646" lon="15.416761127511483"><ele>362.0</ele><time>2026-03-26T18:50:29Z</time></trkpt><trkpt lat="40.54127208555902" lon="15.41688041406499"><ele>367.0</ele><time>2026-03-26T18:50:30Z</time></trkpt><trkpt lat="40.54105625563113" lon="15.416999554741027"><ele>372.0</ele><time>2026-03-26T18:50:31Z</time></trkpt><trkpt lat="40.54084039181132" lon="15.417120359238508"><ele>365.5</ele><time>2026-03-26T18:50:32Z</time></trkpt><trkpt lat="40.54062499200711" lon="15.417242947078458"><ele>359.0</ele><time>2026-03-26T18:50:33Z</time></trkpt><trkpt lat="40.54041163992791" lon="15.417369707908135"><ele>363.5</ele><time>2026-03-26T18:50:34Z</time></trkpt><trkpt lat="40.54020029112073" lon="15.417502353018937"><ele>368.0</ele><time>2026-03-26T18:50:35Z</time></trkpt><trkpt lat="40.539988750533254" lon="15.417642019312682"><ele>368.0</ele><time>2026-03-26T18:50:36Z</time></trkpt><trkpt lat="40.539775085084294" lon="15.417788209801246"><ele>368.0</ele><time>2026-03-26T18:50:37Z</time></trkpt><trkpt lat="40.53956219307143" lon="15.41793749752377"><ele>368.0</ele><time>2026-03-26T18:50:38Z</time></trkpt><trkpt lat="40.53934932143202" lon="15.418095157081229"><ele>368.0</ele><time>2026-03-26T18:50:39Z</time></trkpt><trkpt lat="40.539137274181435" lon="15.418260851071429"><ele>368.0</ele><time>2026-03-26T18:50:40Z</time></trkpt><trkpt lat="40.538927391743655" lon="15.418433943120952"><ele>368.0</ele><time>2026-03-26T18:50:41Z</time></trkpt><trkpt lat="40.538719363393994" lon="15.418612195714882"><ele>369.5</ele><time>2026-03-26T18:50:42Z</time></trkpt><trkpt lat="40.53851274300456" lon="15.418797347776174"><ele>371.0</ele><time>2026-03-26T18:50:43Z</time></trkpt><trkpt lat="40.53831063705055" lon="15.41898893137759"><ele>371.0</ele><time>2026-03-26T18:50:44Z</time></trkpt><trkpt lat="40.53811047217323" lon="15.41918241847143"><ele>371.0</ele><time>2026-03-26T18:50:45Z</time></trkpt><trkpt lat="40.537912646448405" lon="15.41937423671866"><ele>372.5</ele><time>2026-03-26T18:50:46Z</time></trkpt><trkpt lat="40.53771169759729" lon="15.41956724895024"><ele>374.0</ele><time>2026-03-26T18:50:47Z</time></trkpt><trkpt lat="40.53751003319622" lon="15.419760097300225"><ele>374.0</ele><time>2026-03-26T18:50:48Z</time></trkpt><trkpt lat="40.53730637843173" lon="15.419953249776974"><ele>374.0</ele><time>2026-03-26T18:50:49Z</time></trkpt><trkpt lat="40.5371004647602" lon="15.420151238638503"><ele>377.5</ele><time>2026-03-26T18:50:50Z</time></trkpt><trkpt lat="40.536894962872346" lon="15.420352630193689"><ele>381.0</ele><time>2026-03-26T18:50:51Z</time></trkpt><trkpt lat="40.53668738320251" lon="15.420556846144054"><ele>381.0</ele><time>2026-03-26T18:50:52Z</time></trkpt><trkpt lat="40.536479378086256" lon="15.420759338056419"><ele>381.0</ele><time>2026-03-26T18:50:53Z</time></trkpt><trkpt lat="40.536270701499014" lon="15.420969013070684"><ele>396.0</ele><time>2026-03-26T18:50:54Z</time></trkpt><trkpt lat="40.53605941574261" lon="15.421180137908042"><ele>411.0</ele><time>2026-03-26T18:50:55Z</time></trkpt><trkpt lat="40.535847822112636" lon="15.421392257802916"><ele>411.0</ele><time>2026-03-26T18:50:56Z</time></trkpt><trkpt lat="40.53563591129108" lon="15.421605976887523"><ele>411.0</ele><time>2026-03-26T18:50:57Z</time></trkpt><trkpt lat="40.53542323260565" lon="15.421821421423967"><ele>425.0</ele><time>2026-03-26T18:50:58Z</time></trkpt><trkpt lat="40.535209830949995" lon="15.422036379207448"><ele>439.0</ele><time>2026-03-26T18:50:59Z</time></trkpt><trkpt lat="40.53499598986876" lon="15.422252726296481"><ele>439.0</ele><time>2026-03-26T18:51:00Z</time></trkpt><trkpt lat="40.53478458988898" lon="15.42247036012644"><ele>439.0</ele><time>2026-03-26T18:51:01Z</time></trkpt><trkpt lat="40.53457834222564" lon="15.42268556437818"><ele>439.5</ele><time>2026-03-26T18:51:02Z</time></trkpt><trkpt lat="40.534379783926234" lon="15.42289602881606"><ele>440.0</ele><time>2026-03-26T18:51:03Z</time></trkpt><trkpt lat="40.534190960641496" lon="15.42309841989039"><ele>440.0</ele><time>2026-03-26T18:51:04Z</time></trkpt><trkpt lat="40.53400972647458" lon="15.423296757121577"><ele>440.0</ele><time>2026-03-26T18:51:05Z</time></trkpt><trkpt lat="40.53380899741077" lon="15.423371795751555"><ele>440.0</ele><time>2026-03-26T18:51:06Z</time></trkpt><trkpt lat="40.53364472750893" lon="15.423553321959858"><ele>434.3333333333333</ele><time>2026-03-26T18:51:07Z</time></trkpt><trkpt lat="40.533479776099455" lon="15.42374917385403"><ele>428.66666666666663</ele><time>2026-03-26T18:51:08Z</time></trkpt><trkpt lat="40.53331243227013" lon="15.42395020314883"><ele>423.0</ele><time>2026-03-26T18:51:09Z</time></trkpt><trkpt lat="40.53314919194977" lon="15.424156717014114"><ele>410.0</ele><time>2026-03-26T18:51:10Z</time></trkpt><trkpt lat="40.53301066029786" lon="15.424390236264482"><ele>397.0</ele><time>2026-03-26T18:51:11Z</time></trkpt><trkpt lat="40.53284178916642" lon="15.424612521846507"><ele>393.0</ele><time>2026-03-26T18:51:12Z</time></trkpt><trkpt lat="40.53269001287191" lon="15.424847454796181"><ele>389.0</ele><time>2026-03-26T18:51:13Z</time></trkpt><trkpt lat="40.53253949586103" lon="15.425086035632681"><ele>389.0</ele><time>2026-03-26T18:51:14Z</time></trkpt><trkpt lat="40.53239283220266" lon="15.425332183695012"><ele>389.0</ele><time>2026-03-26T18:51:15Z</time></trkpt><trkpt lat="40.53224837799287" lon="15.42557952379173"><ele>383.0</ele><time>2026-03-26T18:51:16Z</time></trkpt><trkpt lat="40.532108044352164" lon="15.42582947720795"><ele>377.0</ele><time>2026-03-26T18:51:17Z</time></trkpt><trkpt lat="40.5319667522398" lon="15.426084109089743"><ele>387.0</ele><time>2026-03-26T18:51:18Z</time></trkpt><trkpt lat="40.53182771777085" lon="15.426335825849696"><ele>397.0</ele><time>2026-03-26T18:51:19Z</time></trkpt><trkpt lat="40.53168871156579" lon="15.426588409478185"><ele>397.0</ele><time>2026-03-26T18:51:20Z</time></trkpt><trkpt lat="40.5315491201666" lon="15.426846129015878"><ele>397.0</ele><time>2026-03-26T18:51:21Z</time></trkpt><trkpt lat="40.531410863608336" lon="15.42710886927708"><ele>400.5</ele><time>2026-03-26T18:51:22Z</time></trkpt><trkpt lat="40.53127571314241" lon="15.427371585939994"><ele>404.0</ele><time>2026-03-26T18:51:23Z</time></trkpt><trkpt lat="40.53114528739832" lon="15.427640247227528"><ele>404.0</ele><time>2026-03-26T18:51:24Z</time></trkpt><trkpt lat="40.5310188342447" lon="15.427908780692325"><ele>404.0</ele><time>2026-03-26T18:51:25Z</time></trkpt><trkpt lat="40.530897464902004" lon="15.428178024363488"><ele>393.0</ele><time>2026-03-26T18:51:26Z</time></trkpt><trkpt lat="40.53078211143954" lon="15.428450259053209"><ele>382.0</ele><time>2026-03-26T18:51:27Z</time></trkpt><trkpt lat="40.53067273373747" lon="15.428726992075644"><ele>362.5</ele><time>2026-03-26T18:51:28Z</time></trkpt><trkpt lat="40.530569588979674" lon="15.429008119520931"><ele>343.0</ele><time>2026-03-26T18:51:29Z</time></trkpt><trkpt lat="40.53047211841764" lon="15.429294054682645"><ele>339.0</ele><time>2026-03-26T18:51:30Z</time></trkpt><trkpt lat="40.53038076114083" lon="15.429583483520991"><ele>335.0</ele><time>2026-03-26T18:51:31Z</time></trkpt><trkpt lat="40.530296561205674" lon="15.429877539802874"><ele>335.0</ele><time>2026-03-26T18:51:32Z</time></trkpt><trkpt lat="40.5302215933805" lon="15.430173259673815"><ele>335.0</ele><time>2026-03-26T18:51:33Z</time></trkpt><trkpt lat="40.53015370091363" lon="15.430473642216572"><ele>319.0</ele><time>2026-03-26T18:51:34Z</time></trkpt><trkpt lat="40.53009493001132" lon="15.430772549662251"><ele>303.0</ele><time>2026-03-26T18:51:35Z</time></trkpt><trkpt lat="40.530043584928244" lon="15.431073127579877"><ele>295.5</ele><time>2026-03-26T18:51:36Z</time></trkpt><trkpt lat="40.5299972904094" lon="15.431373865506554"><ele>288.0</ele><time>2026-03-26T18:51:37Z</time></trkpt><trkpt lat="40.52995755632961" lon="15.431678626849104"><ele>288.0</ele><time>2026-03-26T18:51:38Z</time></trkpt><trkpt lat="40.52992744716945" lon="15.431982651179187"><ele>288.0</ele><time>2026-03-26T18:51:39Z</time></trkpt><trkpt lat="40.52990534062236" lon="15.432288171665618"><ele>293.5</ele><time>2026-03-26T18:51:40Z</time></trkpt><trkpt lat="40.529890622821604" lon="15.432595629611496"><ele>299.0</ele><time>2026-03-26T18:51:41Z</time></trkpt><trkpt lat="40.52988263173368" lon="15.432902913732388"><ele>312.0</ele><time>2026-03-26T18:51:42Z</time></trkpt><trkpt lat="40.529881328288035" lon="15.433211925181116"><ele>325.0</ele><time>2026-03-26T18:51:43Z</time></trkpt><trkpt lat="40.52988849181064" lon="15.433520847589218"><ele>344.0</ele><time>2026-03-26T18:51:44Z</time></trkpt><trkpt lat="40.52990478979208" lon="15.433829186535268"><ele>363.0</ele><time>2026-03-26T18:51:45Z</time></trkpt><trkpt lat="40.5299312285988" lon="15.434137002688075"><ele>363.0</ele><time>2026-03-26T18:51:46Z</time></trkpt><trkpt lat="40.52996339983371" lon="15.43444540801993"><ele>363.0</ele><time>2026-03-26T18:51:47Z</time></trkpt><trkpt lat="40.53000211744473" lon="15.434752615082498"><ele>376.5</ele><time>2026-03-26T18:51:48Z</time></trkpt><trkpt lat="40.530047919615306" lon="15.43506126385533"><ele>390.0</ele><time>2026-03-26T18:51:49Z</time></trkpt><trkpt lat="40.530098033169466" lon="15.4353700499108"><ele>395.5</ele><time>2026-03-26T18:51:50Z</time></trkpt><trkpt lat="40.530155634751466" lon="15.435673661787064"><ele>401.0</ele><time>2026-03-26T18:51:51Z</time></trkpt><trkpt lat="40.53022033406626" lon="15.435976248493732"><ele>401.0</ele><time>2026-03-26T18:51:52Z</time></trkpt><trkpt lat="40.53028853005029" lon="15.436277463655198"><ele>401.0</ele><time>2026-03-26T18:51:53Z</time></trkpt><trkpt lat="40.5303595515287" lon="15.436575546727894"><ele>392.0</ele><time>2026-03-26T18:51:54Z</time></trkpt><trkpt lat="40.530431800367325" lon="15.43686719515202"><ele>383.0</ele><time>2026-03-26T18:51:55Z</time></trkpt><trkpt lat="40.53050568088205" lon="15.437163860960284"><ele>382.0</ele><time>2026-03-26T18:51:56Z</time></trkpt><trkpt lat="40.53058263465422" lon="15.437458620834159"><ele>381.0</ele><time>2026-03-26T18:51:57Z</time></trkpt><trkpt lat="40.530659597348176" lon="15.437749453954027"><ele>388.0</ele><time>2026-03-26T18:51:58Z</time></trkpt><trkpt lat="40.5307348067937" lon="15.438036684731712"><ele>395.0</ele><time>2026-03-26T18:51:59Z</time></trkpt><trkpt lat="40.53080887006198" lon="15.438324620891898"><ele>395.0</ele><time>2026-03-26T18:52:00Z</time></trkpt><trkpt lat="40.530880841487686" lon="15.438611330158704"><ele>395.0</ele><time>2026-03-26T18:52:01Z</time></trkpt><trkpt lat="40.530951904479146" lon="15.438900356393567"><ele>403.5</ele><time>2026-03-26T18:52:02Z</time></trkpt><trkpt lat="40.531019008674534" lon="15.439193564681084"><ele>412.0</ele><time>2026-03-26T18:52:03Z</time></trkpt><trkpt lat="40.53108221657737" lon="15.439487628911706"><ele>419.0</ele><time>2026-03-26T18:52:04Z</time></trkpt><trkpt lat="40.53114095910233" lon="15.439784406528094"><ele>426.0</ele><time>2026-03-26T18:52:05Z</time></trkpt><trkpt lat="40.53119250637403" lon="15.440084752297656"><ele>418.0</ele><time>2026-03-26T18:52:06Z</time></trkpt><trkpt lat="40.53123670246912" lon="15.440388776298205"><ele>410.0</ele><time>2026-03-26T18:52:07Z</time></trkpt><trkpt lat="40.53127476303747" lon="15.440693842081917"><ele>410.0</ele><time>2026-03-26T18:52:08Z</time></trkpt><trkpt lat="40.53130663006913" lon="15.441000961404708"><ele>410.0</ele><time>2026-03-26T18:52:09Z</time></trkpt><trkpt lat="40.53133370842097" lon="15.441308613270152"><ele>407.0</ele><time>2026-03-26T18:52:10Z</time></trkpt><trkpt lat="40.53135264229555" lon="15.441614670816136"><ele>404.0</ele><time>2026-03-26T18:52:11Z</time></trkpt><trkpt lat="40.53136694333026" lon="15.441921609620437"><ele>401.5</ele><time>2026-03-26T18:52:12Z</time></trkpt><trkpt lat="40.531375264245085" lon="15.442228456847017"><ele>399.0</ele><time>2026-03-26T18:52:13Z</time></trkpt><trkpt lat="40.531375959973296" lon="15.442535754105633"><ele>399.0</ele><time>2026-03-26T18:52:14Z</time></trkpt><trkpt lat="40.531372080661235" lon="15.442844469418217"><ele>399.0</ele><time>2026-03-26T18:52:15Z</time></trkpt><trkpt lat="40.53136684198737" lon="15.443153568723048"><ele>403.5</ele><time>2026-03-26T18:52:16Z</time></trkpt><trkpt lat="40.53135902453602" lon="15.443457883554807"><ele>408.0</ele><time>2026-03-26T18:52:17Z</time></trkpt><trkpt lat="40.53135008054095" lon="15.44376662921655"><ele>411.0</ele><time>2026-03-26T18:52:18Z</time></trkpt><trkpt lat="40.531341203870944" lon="15.444074667049488"><ele>414.0</ele><time>2026-03-26T18:52:19Z</time></trkpt><trkpt lat="40.531331565429866" lon="15.444381984426167"><ele>409.5</ele><time>2026-03-26T18:52:20Z</time></trkpt><trkpt lat="40.53132011609357" lon="15.444691805346494"><ele>405.0</ele><time>2026-03-26T18:52:21Z</time></trkpt><trkpt lat="40.53130834231605" lon="15.444999882215246"><ele>405.0</ele><time>2026-03-26T18:52:22Z</time></trkpt><trkpt lat="40.531295951179445" lon="15.445305943191096"><ele>405.0</ele><time>2026-03-26T18:52:23Z</time></trkpt><trkpt lat="40.53128499320311" lon="15.445611036776763"><ele>396.0</ele><time>2026-03-26T18:52:24Z</time></trkpt><trkpt lat="40.531275212602644" lon="15.445911625802562"><ele>387.0</ele><time>2026-03-26T18:52:25Z</time></trkpt><trkpt lat="40.531267623837614" lon="15.446211385522242"><ele>390.0</ele><time>2026-03-26T18:52:26Z</time></trkpt><trkpt lat="40.531257185769974" lon="15.44650633333722"><ele>393.0</ele><time>2026-03-26T18:52:27Z</time></trkpt><trkpt lat="40.53124563170557" lon="15.446799680093639"><ele>396.0</ele><time>2026-03-26T18:52:28Z</time></trkpt><trkpt lat="40.53123361006672" lon="15.44709422020459"><ele>418.0</ele><time>2026-03-26T18:52:29Z</time></trkpt><trkpt lat="40.53122117821592" lon="15.447389717303322"><ele>440.0</ele><time>2026-03-26T18:52:30Z</time></trkpt><trkpt lat="40.53120783363541" lon="15.447685260095914"><ele>444.0</ele><time>2026-03-26T18:52:31Z</time></trkpt><trkpt lat="40.531194395443876" lon="15.447977675027783"><ele>448.0</ele><time>2026-03-26T18:52:32Z</time></trkpt><trkpt lat="40.531183759851984" lon="15.448270191827698"><ele>452.0</ele><time>2026-03-26T18:52:33Z</time></trkpt><trkpt lat="40.53117426388505" lon="15.448563700300515"><ele>454.5</ele><time>2026-03-26T18:52:34Z</time></trkpt><trkpt lat="40.5311636074447" lon="15.448855374572508"><ele>457.0</ele><time>2026-03-26T18:52:35Z</time></trkpt><trkpt lat="40.53115603137971" lon="15.44916004274768"><ele>457.0</ele><time>2026-03-26T18:52:36Z</time></trkpt><trkpt lat="40.53114788830636" lon="15.449462767885416"><ele>457.0</ele><time>2026-03-26T18:52:37Z</time></trkpt><trkpt lat="40.53114391804801" lon="15.449766067115545"><ele>457.5</ele><time>2026-03-26T18:52:38Z</time></trkpt><trkpt lat="40.53114375157401" lon="15.450071211955985"><ele>458.0</ele><time>2026-03-26T18:52:39Z</time></trkpt><trkpt lat="40.53114877380525" lon="15.450380155497799"><ele>456.5</ele><time>2026-03-26T18:52:40Z</time></trkpt><trkpt lat="40.53115713695103" lon="15.450687702048548"><ele>455.0</ele><time>2026-03-26T18:52:41Z</time></trkpt><trkpt lat="40.531169750903466" lon="15.45099438633126"><ele>458.5</ele><time>2026-03-26T18:52:42Z</time></trkpt><trkpt lat="40.53118628921374" lon="15.451301931990082"><ele>462.0</ele><time>2026-03-26T18:52:43Z</time></trkpt><trkpt lat="40.531206825313674" lon="15.451611204895505"><ele>448.0</ele><time>2026-03-26T18:52:44Z</time></trkpt><trkpt lat="40.531233835354215" lon="15.451923163165011"><ele>434.0</ele><time>2026-03-26T18:52:45Z</time></trkpt><trkpt lat="40.5312687341615" lon="15.452236816203028"><ele>430.5</ele><time>2026-03-26T18:52:46Z</time></trkpt><trkpt lat="40.53131002001457" lon="15.452549767522068"><ele>427.0</ele><time>2026-03-26T18:52:47Z</time></trkpt><trkpt lat="40.531358653156154" lon="15.452861629838162"><ele>417.0</ele><time>2026-03-26T18:52:48Z</time></trkpt><trkpt lat="40.5314136123313" lon="15.453172909943632"><ele>407.0</ele><time>2026-03-26T18:52:49Z</time></trkpt><trkpt lat="40.53147283653709" lon="15.453481212131317"><ele>407.0</ele><time>2026-03-26T18:52:50Z</time></trkpt><trkpt lat="40.53153464191022" lon="15.453789680774248"><ele>407.0</ele><time>2026-03-26T18:52:51Z</time></trkpt><trkpt lat="40.53160175045061" lon="15.454096781075577"><ele>407.0</ele><time>2026-03-26T18:52:52Z</time></trkpt><trkpt lat="40.531676098727374" lon="15.45439857882846"><ele>407.0</ele><time>2026-03-26T18:52:53Z</time></trkpt><trkpt lat="40.53175731636064" lon="15.454696879418522"><ele>421.5</ele><time>2026-03-26T18:52:54Z</time></trkpt><trkpt lat="40.53184219886945" lon="15.454993423771365"><ele>436.0</ele><time>2026-03-26T18:52:55Z</time></trkpt><trkpt lat="40.53193054631046" lon="15.455286656403963"><ele>438.0</ele><time>2026-03-26T18:52:56Z</time></trkpt><trkpt lat="40.53202191001897" lon="15.455578958825873"><ele>440.0</ele><time>2026-03-26T18:52:57Z</time></trkpt><trkpt lat="40.53211672193277" lon="15.455868634517383"><ele>440.0</ele><time>2026-03-26T18:52:58Z</time></trkpt><trkpt lat="40.53221630324552" lon="15.45615453777765"><ele>440.0</ele><time>2026-03-26T18:52:59Z</time></trkpt><trkpt lat="40.53232065693086" lon="15.45643761729007"><ele>446.5</ele><time>2026-03-26T18:53:00Z</time></trkpt><trkpt lat="40.5324282769669" lon="15.456717834082824"><ele>453.0</ele><time>2026-03-26T18:53:01Z</time></trkpt><trkpt lat="40.53253606165971" lon="15.456997623766563"><ele>458.5</ele><time>2026-03-26T18:53:02Z</time></trkpt><trkpt lat="40.5326426102542" lon="15.457275210516375"><ele>464.0</ele><time>2026-03-26T18:53:03Z</time></trkpt><trkpt lat="40.53274508795348" lon="15.457553058381068"><ele>464.0</ele><time>2026-03-26T18:53:04Z</time></trkpt><trkpt lat="40.53284388848128" lon="15.45783143564714"><ele>464.0</ele><time>2026-03-26T18:53:05Z</time></trkpt><trkpt lat="40.532936827295856" lon="15.458113262218"><ele>453.0</ele><time>2026-03-26T18:53:06Z</time></trkpt><trkpt lat="40.53302378294861" lon="15.45839783884373"><ele>442.0</ele><time>2026-03-26T18:53:07Z</time></trkpt><trkpt lat="40.53310502223026" lon="15.458686292415841"><ele>448.5</ele><time>2026-03-26T18:53:08Z</time></trkpt><trkpt lat="40.53317979668366" lon="15.458978909095805"><ele>455.0</ele><time>2026-03-26T18:53:09Z</time></trkpt><trkpt lat="40.533246006474016" lon="15.459273937737716"><ele>455.0</ele><time>2026-03-26T18:53:10Z</time></trkpt><trkpt lat="40.533302702904734" lon="15.459572986168835"><ele>455.0</ele><time>2026-03-26T18:53:11Z</time></trkpt><trkpt lat="40.53335158923259" lon="15.459874071766897"><ele>463.5</ele><time>2026-03-26T18:53:12Z</time></trkpt><trkpt lat="40.53339501037728" lon="15.460174487382357"><ele>472.0</ele><time>2026-03-26T18:53:13Z</time></trkpt><trkpt lat="40.53343040683225" lon="15.460479234090297"><ele>478.0</ele><time>2026-03-26T18:53:14Z</time></trkpt><trkpt lat="40.53345726329264" lon="15.460787437827095"><ele>484.0</ele><time>2026-03-26T18:53:15Z</time></trkpt><trkpt lat="40.53347553189888" lon="15.461095217864907"><ele>486.5</ele><time>2026-03-26T18:53:16Z</time></trkpt><trkpt lat="40.533485210725125" lon="15.461409100276631"><ele>489.0</ele><time>2026-03-26T18:53:17Z</time></trkpt><trkpt lat="40.53348830427995" lon="15.461725433655422"><ele>489.0</ele><time>2026-03-26T18:53:18Z</time></trkpt><trkpt lat="40.53348817060513" lon="15.46204248996577"><ele>489.0</ele><time>2026-03-26T18:53:19Z</time></trkpt><trkpt lat="40.533486066156854" lon="15.462360564419878"><ele>489.0</ele><time>2026-03-26T18:53:20Z</time></trkpt><trkpt lat="40.53348201780214" lon="15.462678910643147"><ele>489.0</ele><time>2026-03-26T18:53:21Z</time></trkpt><trkpt lat="40.533475897328636" lon="15.462997653766509"><ele>491.0</ele><time>2026-03-26T18:53:22Z</time></trkpt><trkpt lat="40.533466964476936" lon="15.463316483780785"><ele>493.0</ele><time>2026-03-26T18:53:23Z</time></trkpt><trkpt lat="40.53345903950304" lon="15.463635070320546"><ele>493.5</ele><time>2026-03-26T18:53:24Z</time></trkpt><trkpt lat="40.53345233737655" lon="15.463952838997333"><ele>494.0</ele><time>2026-03-26T18:53:25Z</time></trkpt><trkpt lat="40.53344703573274" lon="15.464263850887487"><ele>494.0</ele><time>2026-03-26T18:53:26Z</time></trkpt><trkpt lat="40.53344288488075" lon="15.46456978490676"><ele>494.0</ele><time>2026-03-26T18:53:27Z</time></trkpt><trkpt lat="40.533369552576744" lon="15.464937496777127"><ele>489.5</ele><time>2026-03-26T18:53:28Z</time></trkpt><trkpt lat="40.533356468137946" lon="15.465236480686704"><ele>485.0</ele><time>2026-03-26T18:53:29Z</time></trkpt><trkpt lat="40.53334126797252" lon="15.465532693423759"><ele>482.66666666666663</ele><time>2026-03-26T18:53:30Z</time></trkpt><trkpt lat="40.5333244881206" lon="15.465819748307718"><ele>480.33333333333337</ele><time>2026-03-26T18:53:31Z</time></trkpt><trkpt lat="40.533428297450456" lon="15.46601387549178"><ele>478.0</ele><time>2026-03-26T18:53:32Z</time></trkpt><trkpt lat="40.533334449124695" lon="15.466304120064024"><ele>476.33333333333337</ele><time>2026-03-26T18:53:33Z</time></trkpt><trkpt lat="40.53331410021989" lon="15.46658569601718"><ele>474.66666666666663</ele><time>2026-03-26T18:53:34Z</time></trkpt><trkpt lat="40.53330302497148" lon="15.466873963238555"><ele>473.0</ele><time>2026-03-26T18:53:35Z</time></trkpt><trkpt lat="40.53328940872515" lon="15.46716206325598"><ele>472.66666666666663</ele><time>2026-03-26T18:53:36Z</time></trkpt><trkpt lat="40.5332773949432" lon="15.467447556861309"><ele>472.33333333333337</ele><time>2026-03-26T18:53:37Z</time></trkpt><trkpt lat="40.5332646429574" lon="15.467732411653547"><ele>472.0</ele><time>2026-03-26T18:53:38Z</time></trkpt><trkpt lat="40.5332506592453" lon="15.468020823868798"><ele>470.0</ele><time>2026-03-26T18:53:39Z</time></trkpt><trkpt lat="40.53323660056753" lon="15.468311862894462"><ele>468.0</ele><time>2026-03-26T18:53:40Z</time></trkpt><trkpt lat="40.53322249476367" lon="15.46860771313488"><ele>466.0</ele><time>2026-03-26T18:53:41Z</time></trkpt><trkpt lat="40.53320719048815" lon="15.468906018134296"><ele>465.0</ele><time>2026-03-26T18:53:42Z</time></trkpt><trkpt lat="40.533193969245175" lon="15.469208273637516"><ele>464.0</ele><time>2026-03-26T18:53:43Z</time></trkpt><trkpt lat="40.53318104869788" lon="15.469512783603742"><ele>462.5</ele><time>2026-03-26T18:53:44Z</time></trkpt><trkpt lat="40.5331677031193" lon="15.469819202507397"><ele>461.0</ele><time>2026-03-26T18:53:45Z</time></trkpt><trkpt lat="40.53315395018569" lon="15.470127750364407"><ele>461.0</ele><time>2026-03-26T18:53:46Z</time></trkpt><trkpt lat="40.53313784971586" lon="15.470440155877602"><ele>461.0</ele><time>2026-03-26T18:53:47Z</time></trkpt><trkpt lat="40.53311673293827" lon="15.470753337057658"><ele>460.5</ele><time>2026-03-26T18:53:48Z</time></trkpt><trkpt lat="40.53308733338477" lon="15.471064742713867"><ele>460.0</ele><time>2026-03-26T18:53:49Z</time></trkpt><trkpt lat="40.53304864249294" lon="15.471376537269297"><ele>460.0</ele><time>2026-03-26T18:53:50Z</time></trkpt><trkpt lat="40.53300249847028" lon="15.471687030096751"><ele>460.0</ele><time>2026-03-26T18:53:51Z</time></trkpt><trkpt lat="40.53294968169898" lon="15.471996355263638"><ele>454.5</ele><time>2026-03-26T18:53:52Z</time></trkpt><trkpt lat="40.53289094034865" lon="15.472304467632272"><ele>449.0</ele><time>2026-03-26T18:53:53Z</time></trkpt><trkpt lat="40.532835336524336" lon="15.472612467021978"><ele>470.5</ele><time>2026-03-26T18:53:54Z</time></trkpt><trkpt lat="40.53277780272756" lon="15.472920615125393"><ele>492.0</ele><time>2026-03-26T18:53:55Z</time></trkpt><trkpt lat="40.53271761873816" lon="15.473227900500317"><ele>492.0</ele><time>2026-03-26T18:53:56Z</time></trkpt><trkpt lat="40.532659793942436" lon="15.47353239628644"><ele>492.0</ele><time>2026-03-26T18:53:57Z</time></trkpt><trkpt lat="40.532600506501815" lon="15.473835658140276"><ele>487.5</ele><time>2026-03-26T18:53:58Z</time></trkpt><trkpt lat="40.53254247058414" lon="15.474138863319753"><ele>483.0</ele><time>2026-03-26T18:53:59Z</time></trkpt><trkpt lat="40.53248667823804" lon="15.474442791575793"><ele>475.5</ele><time>2026-03-26T18:54:00Z</time></trkpt><trkpt lat="40.53243358841033" lon="15.474749102037936"><ele>468.0</ele><time>2026-03-26T18:54:01Z</time></trkpt><trkpt lat="40.53238620782713" lon="15.47505827606515"><ele>468.0</ele><time>2026-03-26T18:54:02Z</time></trkpt><trkpt lat="40.53234155271486" lon="15.475370513678055"><ele>468.0</ele><time>2026-03-26T18:54:03Z</time></trkpt><trkpt lat="40.5323023060269" lon="15.475685663720034"><ele>466.0</ele><time>2026-03-26T18:54:04Z</time></trkpt><trkpt lat="40.53227045907564" lon="15.476005590575557"><ele>464.0</ele><time>2026-03-26T18:54:05Z</time></trkpt><trkpt lat="40.532245267446264" lon="15.476329930629722"><ele>463.0</ele><time>2026-03-26T18:54:06Z</time></trkpt><trkpt lat="40.53222583878705" lon="15.476657430993578"><ele>462.0</ele><time>2026-03-26T18:54:07Z</time></trkpt><trkpt lat="40.53221168357385" lon="15.476985300577049"><ele>462.5</ele><time>2026-03-26T18:54:08Z</time></trkpt><trkpt lat="40.53219975049084" lon="15.477313530317135"><ele>463.0</ele><time>2026-03-26T18:54:09Z</time></trkpt><trkpt lat="40.53218922330228" lon="15.47764195495054"><ele>457.0</ele><time>2026-03-26T18:54:10Z</time></trkpt><trkpt lat="40.53217922113657" lon="15.477965696060911"><ele>451.0</ele><time>2026-03-26T18:54:11Z</time></trkpt><trkpt lat="40.5321703939095" lon="15.47828802386735"><ele>451.0</ele><time>2026-03-26T18:54:12Z</time></trkpt><trkpt lat="40.53216139760302" lon="15.478606213165229"><ele>451.0</ele><time>2026-03-26T18:54:13Z</time></trkpt><trkpt lat="40.532154206204154" lon="15.47892153621091"><ele>446.5</ele><time>2026-03-26T18:54:14Z</time></trkpt><trkpt lat="40.532147226292736" lon="15.479229278485782"><ele>442.0</ele><time>2026-03-26T18:54:15Z</time></trkpt><trkpt lat="40.532140884867005" lon="15.47953612629668"><ele>442.5</ele><time>2026-03-26T18:54:16Z</time></trkpt><trkpt lat="40.53213198743222" lon="15.479842050592122"><ele>443.0</ele><time>2026-03-26T18:54:17Z</time></trkpt><trkpt lat="40.53212205348858" lon="15.480148590732844"><ele>447.0</ele><time>2026-03-26T18:54:18Z</time></trkpt><trkpt lat="40.532107945056396" lon="15.48045429623336"><ele>451.0</ele><time>2026-03-26T18:54:19Z</time></trkpt><trkpt lat="40.53208905047797" lon="15.48076052190824"><ele>451.0</ele><time>2026-03-26T18:54:20Z</time></trkpt><trkpt lat="40.532065505910076" lon="15.481068311884457"><ele>451.0</ele><time>2026-03-26T18:54:21Z</time></trkpt><trkpt lat="40.532034788149325" lon="15.481376014158036"><ele>449.0</ele><time>2026-03-26T18:54:22Z</time></trkpt><trkpt lat="40.53199591010725" lon="15.481684929614968"><ele>447.0</ele><time>2026-03-26T18:54:23Z</time></trkpt><trkpt lat="40.53194827370348" lon="15.481993472943703"><ele>455.5</ele><time>2026-03-26T18:54:24Z</time></trkpt><trkpt lat="40.53189172126268" lon="15.482299296078946"><ele>464.0</ele><time>2026-03-26T18:54:25Z</time></trkpt><trkpt lat="40.531831156194485" lon="15.482607641540039"><ele>464.0</ele><time>2026-03-26T18:54:26Z</time></trkpt><trkpt lat="40.53175794687718" lon="15.482912720230823"><ele>464.0</ele><time>2026-03-26T18:54:27Z</time></trkpt><trkpt lat="40.53167859403684" lon="15.48321556495707"><ele>468.0</ele><time>2026-03-26T18:54:28Z</time></trkpt><trkpt lat="40.531592980047655" lon="15.48351414281888"><ele>472.0</ele><time>2026-03-26T18:54:29Z</time></trkpt><trkpt lat="40.53149903690073" lon="15.483811911616444"><ele>475.0</ele><time>2026-03-26T18:54:30Z</time></trkpt><trkpt lat="40.531398244736174" lon="15.484103143781724"><ele>478.0</ele><time>2026-03-26T18:54:31Z</time></trkpt><trkpt lat="40.531289483826356" lon="15.484390894988787"><ele>477.5</ele><time>2026-03-26T18:54:32Z</time></trkpt><trkpt lat="40.53117082549607" lon="15.484675321857893"><ele>477.0</ele><time>2026-03-26T18:54:33Z</time></trkpt><trkpt lat="40.531043888060125" lon="15.484952882677765"><ele>477.0</ele><time>2026-03-26T18:54:34Z</time></trkpt><trkpt lat="40.5309080759789" lon="15.485222865103676"><ele>477.0</ele><time>2026-03-26T18:54:35Z</time></trkpt><trkpt lat="40.5307629937141" lon="15.485485410099798"><ele>481.0</ele><time>2026-03-26T18:54:36Z</time></trkpt><trkpt lat="40.53061253574463" lon="15.485744078592193"><ele>485.0</ele><time>2026-03-26T18:54:37Z</time></trkpt><trkpt lat="40.53045719686934" lon="15.48600054287404"><ele>482.5</ele><time>2026-03-26T18:54:38Z</time></trkpt><trkpt lat="40.53029650908723" lon="15.486250609613535"><ele>480.0</ele><time>2026-03-26T18:54:39Z</time></trkpt><trkpt lat="40.530132692177844" lon="15.486494243583682"><ele>480.0</ele><time>2026-03-26T18:54:40Z</time></trkpt><trkpt lat="40.52996560677736" lon="15.486731273759384"><ele>480.0</ele><time>2026-03-26T18:54:41Z</time></trkpt><trkpt lat="40.52979484954449" lon="15.486965347824025"><ele>481.5</ele><time>2026-03-26T18:54:42Z</time></trkpt><trkpt lat="40.52962277592279" lon="15.487192890336356"><ele>483.0</ele><time>2026-03-26T18:54:43Z</time></trkpt><trkpt lat="40.52945075366171" lon="15.487417011975952"><ele>478.5</ele><time>2026-03-26T18:54:44Z</time></trkpt><trkpt lat="40.529278556611494" lon="15.487640009205982"><ele>474.0</ele><time>2026-03-26T18:54:45Z</time></trkpt><trkpt lat="40.529106726288894" lon="15.487860973160348"><ele>476.0</ele><time>2026-03-26T18:54:46Z</time></trkpt><trkpt lat="40.52893465272658" lon="15.488079206104587"><ele>478.0</ele><time>2026-03-26T18:54:47Z</time></trkpt><trkpt lat="40.528763647873674" lon="15.488295226361057"><ele>478.0</ele><time>2026-03-26T18:54:48Z</time></trkpt><trkpt lat="40.52859395429682" lon="15.488508313079564"><ele>478.0</ele><time>2026-03-26T18:54:49Z</time></trkpt><trkpt lat="40.52842564216327" lon="15.488722885906292"><ele>479.0</ele><time>2026-03-26T18:54:50Z</time></trkpt><trkpt lat="40.52825872829919" lon="15.488939258859293"><ele>480.0</ele><time>2026-03-26T18:54:51Z</time></trkpt><trkpt lat="40.528090913432315" lon="15.489154564526919"><ele>480.0</ele><time>2026-03-26T18:54:52Z</time></trkpt><trkpt lat="40.52792252527983" lon="15.489369019082302"><ele>480.0</ele><time>2026-03-26T18:54:53Z</time></trkpt><trkpt lat="40.527752800813346" lon="15.489585496785843"><ele>482.5</ele><time>2026-03-26T18:54:54Z</time></trkpt><trkpt lat="40.52758263123762" lon="15.489804449260323"><ele>485.0</ele><time>2026-03-26T18:54:55Z</time></trkpt><trkpt lat="40.52741547476934" lon="15.490030984949454"><ele>485.0</ele><time>2026-03-26T18:54:56Z</time></trkpt><trkpt lat="40.52725027000276" lon="15.490263503789794"><ele>485.0</ele><time>2026-03-26T18:54:57Z</time></trkpt><trkpt lat="40.52709020170552" lon="15.49050107355761"><ele>488.5</ele><time>2026-03-26T18:54:58Z</time></trkpt><trkpt lat="40.526934955425595" lon="15.490747366457615"><ele>492.0</ele><time>2026-03-26T18:54:59Z</time></trkpt><trkpt lat="40.526785314994406" lon="15.491000782867385"><ele>491.5</ele><time>2026-03-26T18:55:00Z</time></trkpt><trkpt lat="40.526640376312045" lon="15.491257881626396"><ele>491.0</ele><time>2026-03-26T18:55:01Z</time></trkpt><trkpt lat="40.52649976824036" lon="15.491522202664497"><ele>491.0</ele><time>2026-03-26T18:55:02Z</time></trkpt><trkpt lat="40.52636618832164" lon="15.49179141926732"><ele>491.0</ele><time>2026-03-26T18:55:03Z</time></trkpt><trkpt lat="40.526237414720335" lon="15.492066347568674"><ele>491.5</ele><time>2026-03-26T18:55:04Z</time></trkpt><trkpt lat="40.5261157155484" lon="15.492344720295629"><ele>492.0</ele><time>2026-03-26T18:55:05Z</time></trkpt><trkpt lat="40.526000990688395" lon="15.492631421887063"><ele>492.0</ele><time>2026-03-26T18:55:06Z</time></trkpt><trkpt lat="40.52589107529963" lon="15.492925370903944"><ele>492.0</ele><time>2026-03-26T18:55:07Z</time></trkpt><trkpt lat="40.525787812601926" lon="15.493221464005533"><ele>492.0</ele><time>2026-03-26T18:55:08Z</time></trkpt><trkpt lat="40.52568876508802" lon="15.493523255817406"><ele>492.0</ele><time>2026-03-26T18:55:09Z</time></trkpt><trkpt lat="40.52559551939787" lon="15.493827227627962"><ele>492.0</ele><time>2026-03-26T18:55:10Z</time></trkpt><trkpt lat="40.52550798728536" lon="15.494132934875404"><ele>492.0</ele><time>2026-03-26T18:55:11Z</time></trkpt><trkpt lat="40.52542111215656" lon="15.494442114581544"><ele>490.5</ele><time>2026-03-26T18:55:12Z</time></trkpt><trkpt lat="40.52533520530687" lon="15.494751945273485"><ele>489.0</ele><time>2026-03-26T18:55:13Z</time></trkpt><trkpt lat="40.52525233600123" lon="15.49506090306687"><ele>489.0</ele><time>2026-03-26T18:55:14Z</time></trkpt><trkpt lat="40.52516976057114" lon="15.495368299187312"><ele>489.0</ele><time>2026-03-26T18:55:15Z</time></trkpt><trkpt lat="40.5250880954404" lon="15.495675218612055"><ele>489.0</ele><time>2026-03-26T18:55:16Z</time></trkpt><trkpt lat="40.52500673785201" lon="15.495980179068605"><ele>489.0</ele><time>2026-03-26T18:55:17Z</time></trkpt><trkpt lat="40.52492550549334" lon="15.49628416092421"><ele>488.5</ele><time>2026-03-26T18:55:18Z</time></trkpt><trkpt lat="40.52484248808366" lon="15.496584859007708"><ele>488.0</ele><time>2026-03-26T18:55:19Z</time></trkpt><trkpt lat="40.524756251354084" lon="15.49688510093156"><ele>489.0</ele><time>2026-03-26T18:55:20Z</time></trkpt><trkpt lat="40.52466548449496" lon="15.497182195771448"><ele>490.0</ele><time>2026-03-26T18:55:21Z</time></trkpt><trkpt lat="40.524569926955266" lon="15.497477343422343"><ele>486.0</ele><time>2026-03-26T18:55:22Z</time></trkpt><trkpt lat="40.524468304773784" lon="15.497769385279657"><ele>482.0</ele><time>2026-03-26T18:55:23Z</time></trkpt><trkpt lat="40.52436117614181" lon="15.498056053133192"><ele>482.0</ele><time>2026-03-26T18:55:24Z</time></trkpt><trkpt lat="40.524249546018765" lon="15.498337172074171"><ele>482.0</ele><time>2026-03-26T18:55:25Z</time></trkpt><trkpt lat="40.52413341714959" lon="15.498608984725925"><ele>484.0</ele><time>2026-03-26T18:55:26Z</time></trkpt><trkpt lat="40.52401240637428" lon="15.498876537599259"><ele>486.0</ele><time>2026-03-26T18:55:27Z</time></trkpt><trkpt lat="40.52389254293797" lon="15.499125778996316"><ele>486.0</ele><time>2026-03-26T18:55:28Z</time></trkpt><trkpt lat="40.52376895092022" lon="15.49936835337004"><ele>486.0</ele><time>2026-03-26T18:55:29Z</time></trkpt><trkpt lat="40.523641416892595" lon="15.49960838757322"><ele>486.0</ele><time>2026-03-26T18:55:30Z</time></trkpt><trkpt lat="40.52351171220956" lon="15.499839918965042"><ele>484.33333333333337</ele><time>2026-03-26T18:55:31Z</time></trkpt><trkpt lat="40.523377236930926" lon="15.500069215607718"><ele>482.6666666666667</ele><time>2026-03-26T18:55:32Z</time></trkpt><trkpt lat="40.523238430856814" lon="15.500298537663582"><ele>481.0</ele><time>2026-03-26T18:55:33Z</time></trkpt><trkpt lat="40.52309443015078" lon="15.500526844613534"><ele>481.0</ele><time>2026-03-26T18:55:34Z</time></trkpt><trkpt lat="40.522946624505266" lon="15.500755385056621"><ele>481.0</ele><time>2026-03-26T18:55:35Z</time></trkpt><trkpt lat="40.52279733979704" lon="15.500984348535685"><ele>479.5</ele><time>2026-03-26T18:55:36Z</time></trkpt><trkpt lat="40.52264575925312" lon="15.501214423350524"><ele>478.0</ele><time>2026-03-26T18:55:37Z</time></trkpt><trkpt lat="40.522489203529" lon="15.501452897656844"><ele>478.0</ele><time>2026-03-26T18:55:38Z</time></trkpt><trkpt lat="40.52233105456825" lon="15.50169641333411"><ele>478.0</ele><time>2026-03-26T18:55:39Z</time></trkpt><trkpt lat="40.52217105787093" lon="15.501943364523134"><ele>479.5</ele><time>2026-03-26T18:55:40Z</time></trkpt><trkpt lat="40.522008489955695" lon="15.502195264262255"><ele>481.0</ele><time>2026-03-26T18:55:41Z</time></trkpt><trkpt lat="40.521843136204325" lon="15.502452799135947"><ele>481.0</ele><time>2026-03-26T18:55:42Z</time></trkpt><trkpt lat="40.521675035169565" lon="15.502711975379906"><ele>481.0</ele><time>2026-03-26T18:55:43Z</time></trkpt><trkpt lat="40.521503681213765" lon="15.502970983638855"><ele>482.5</ele><time>2026-03-26T18:55:44Z</time></trkpt><trkpt lat="40.52133038529857" lon="15.503230269638102"><ele>484.0</ele><time>2026-03-26T18:55:45Z</time></trkpt><trkpt lat="40.52115491301888" lon="15.503491867999049"><ele>482.0</ele><time>2026-03-26T18:55:46Z</time></trkpt><trkpt lat="40.52098024560185" lon="15.503754459441819"><ele>480.0</ele><time>2026-03-26T18:55:47Z</time></trkpt><trkpt lat="40.520806216877986" lon="15.504019229778843"><ele>480.0</ele><time>2026-03-26T18:55:48Z</time></trkpt><trkpt lat="40.52063115790235" lon="15.504284425939357"><ele>480.0</ele><time>2026-03-26T18:55:49Z</time></trkpt><trkpt lat="40.5204551254766" lon="15.504548613392695"><ele>481.5</ele><time>2026-03-26T18:55:50Z</time></trkpt><trkpt lat="40.52027798558558" lon="15.504812069616554"><ele>483.0</ele><time>2026-03-26T18:55:51Z</time></trkpt><trkpt lat="40.52010035376257" lon="15.505074937053575"><ele>483.0</ele><time>2026-03-26T18:55:52Z</time></trkpt><trkpt lat="40.51992422119716" lon="15.505336405481206"><ele>483.0</ele><time>2026-03-26T18:55:53Z</time></trkpt><trkpt lat="40.51974379822327" lon="15.50559033888464"><ele>482.0</ele><time>2026-03-26T18:55:54Z</time></trkpt><trkpt lat="40.519561390474365" lon="15.50583879236798"><ele>481.0</ele><time>2026-03-26T18:55:55Z</time></trkpt><trkpt lat="40.51937677079715" lon="15.50608058889887"><ele>482.5</ele><time>2026-03-26T18:55:56Z</time></trkpt><trkpt lat="40.51918794033125" lon="15.506319463113476"><ele>484.0</ele><time>2026-03-26T18:55:57Z</time></trkpt><trkpt lat="40.51899692476506" lon="15.506552027063792"><ele>484.0</ele><time>2026-03-26T18:55:58Z</time></trkpt><trkpt lat="40.51880382534263" lon="15.506779419066206"><ele>484.0</ele><time>2026-03-26T18:55:59Z</time></trkpt><trkpt lat="40.51860832170349" lon="15.507002791959902"><ele>484.5</ele><time>2026-03-26T18:56:00Z</time></trkpt><trkpt lat="40.51841161611434" lon="15.507221209986165"><ele>485.0</ele><time>2026-03-26T18:56:01Z</time></trkpt><trkpt lat="40.51821350182659" lon="15.507439966987512"><ele>485.0</ele><time>2026-03-26T18:56:02Z</time></trkpt><trkpt lat="40.518015502830984" lon="15.507659579165157"><ele>485.0</ele><time>2026-03-26T18:56:03Z</time></trkpt><trkpt lat="40.51781927533068" lon="15.50788098270147"><ele>483.0</ele><time>2026-03-26T18:56:04Z</time></trkpt><trkpt lat="40.51762402281277" lon="15.508102562610837"><ele>481.0</ele><time>2026-03-26T18:56:05Z</time></trkpt><trkpt lat="40.517428076932525" lon="15.508322401387053"><ele>481.0</ele><time>2026-03-26T18:56:06Z</time></trkpt><trkpt lat="40.51723278160365" lon="15.508543834050785"><ele>481.0</ele><time>2026-03-26T18:56:07Z</time></trkpt><trkpt lat="40.51703905130903" lon="15.508766293591277"><ele>479.5</ele><time>2026-03-26T18:56:08Z</time></trkpt><trkpt lat="40.516844762830644" lon="15.508988940658014"><ele>478.0</ele><time>2026-03-26T18:56:09Z</time></trkpt><trkpt lat="40.51665053254309" lon="15.50921108116152"><ele>478.0</ele><time>2026-03-26T18:56:10Z</time></trkpt><trkpt lat="40.51645606388031" lon="15.509434448872216"><ele>478.0</ele><time>2026-03-26T18:56:11Z</time></trkpt><trkpt lat="40.516262735459705" lon="15.50965772761814"><ele>477.5</ele><time>2026-03-26T18:56:12Z</time></trkpt><trkpt lat="40.516068129677095" lon="15.509880573330722"><ele>477.0</ele><time>2026-03-26T18:56:13Z</time></trkpt><trkpt lat="40.51587085938364" lon="15.510103789010834"><ele>477.0</ele><time>2026-03-26T18:56:14Z</time></trkpt><trkpt lat="40.515674731478214" lon="15.510324787548393"><ele>477.0</ele><time>2026-03-26T18:56:15Z</time></trkpt><trkpt lat="40.51548071992393" lon="15.510544615593263"><ele>473.5</ele><time>2026-03-26T18:56:16Z</time></trkpt><trkpt lat="40.5152900833312" lon="15.51076304290429"><ele>470.0</ele><time>2026-03-26T18:56:17Z</time></trkpt><trkpt lat="40.51509895205409" lon="15.510982370889444"><ele>470.0</ele><time>2026-03-26T18:56:18Z</time></trkpt><trkpt lat="40.51491106132685" lon="15.511197721268609"><ele>470.0</ele><time>2026-03-26T18:56:19Z</time></trkpt><trkpt lat="40.51472257809796" lon="15.511411779129377"><ele>468.5</ele><time>2026-03-26T18:56:20Z</time></trkpt><trkpt lat="40.51453356827453" lon="15.51162616281629"><ele>467.0</ele><time>2026-03-26T18:56:21Z</time></trkpt><trkpt lat="40.51434466593274" lon="15.51184014166188"><ele>467.0</ele><time>2026-03-26T18:56:22Z</time></trkpt><trkpt lat="40.5141549161203" lon="15.512054373021105"><ele>467.0</ele><time>2026-03-26T18:56:23Z</time></trkpt><trkpt lat="40.51396533716066" lon="15.512271616658289"><ele>468.0</ele><time>2026-03-26T18:56:24Z</time></trkpt><trkpt lat="40.51377650257844" lon="15.512490228677178"><ele>469.0</ele><time>2026-03-26T18:56:25Z</time></trkpt><trkpt lat="40.51358598541557" lon="15.5127092193374"><ele>469.0</ele><time>2026-03-26T18:56:26Z</time></trkpt><trkpt lat="40.513392928580735" lon="15.512930141932777"><ele>469.0</ele><time>2026-03-26T18:56:27Z</time></trkpt><trkpt lat="40.51319946068746" lon="15.513149043155613"><ele>469.0</ele><time>2026-03-26T18:56:28Z</time></trkpt><trkpt lat="40.5130054190382" lon="15.513366276442932"><ele>469.0</ele><time>2026-03-26T18:56:29Z</time></trkpt><trkpt lat="40.512810405108105" lon="15.51358553401408"><ele>470.0</ele><time>2026-03-26T18:56:30Z</time></trkpt><trkpt lat="40.51261575629159" lon="15.513804530674015"><ele>471.0</ele><time>2026-03-26T18:56:31Z</time></trkpt><trkpt lat="40.51242029649324" lon="15.514025922829488"><ele>471.0</ele><time>2026-03-26T18:56:32Z</time></trkpt><trkpt lat="40.51222489868253" lon="15.514245667371648"><ele>471.0</ele><time>2026-03-26T18:56:33Z</time></trkpt><trkpt lat="40.51202803138026" lon="15.514466948636402"><ele>470.0</ele><time>2026-03-26T18:56:34Z</time></trkpt><trkpt lat="40.511830836310686" lon="15.514686946742557"><ele>469.0</ele><time>2026-03-26T18:56:35Z</time></trkpt><trkpt lat="40.51163378232718" lon="15.51490449232859"><ele>469.0</ele><time>2026-03-26T18:56:36Z</time></trkpt><trkpt lat="40.51143503680845" lon="15.515121596133001"><ele>469.0</ele><time>2026-03-26T18:56:37Z</time></trkpt><trkpt lat="40.51123620596899" lon="15.51533737655537"><ele>468.5</ele><time>2026-03-26T18:56:38Z</time></trkpt><trkpt lat="40.51103572204111" lon="15.51555436676159"><ele>468.0</ele><time>2026-03-26T18:56:39Z</time></trkpt><trkpt lat="40.51083558037723" lon="15.515769186948681"><ele>468.0</ele><time>2026-03-26T18:56:40Z</time></trkpt><trkpt lat="40.51063360155046" lon="15.515981726996218"><ele>468.0</ele><time>2026-03-26T18:56:41Z</time></trkpt><trkpt lat="40.51043015271693" lon="15.516191866328546"><ele>466.0</ele><time>2026-03-26T18:56:42Z</time></trkpt><trkpt lat="40.51022343015227" lon="15.516402246309633"><ele>464.0</ele><time>2026-03-26T18:56:43Z</time></trkpt><trkpt lat="40.51001866794305" lon="15.516606124093151"><ele>464.0</ele><time>2026-03-26T18:56:44Z</time></trkpt><trkpt lat="40.509813318574295" lon="15.516804144687413"><ele>464.0</ele><time>2026-03-26T18:56:45Z</time></trkpt><trkpt lat="40.50960798470939" lon="15.516997357407154"><ele>463.5</ele><time>2026-03-26T18:56:46Z</time></trkpt><trkpt lat="40.5094050044317" lon="15.517186526277053"><ele>463.0</ele><time>2026-03-26T18:56:47Z</time></trkpt><trkpt lat="40.509201851832586" lon="15.517372897650459"><ele>463.0</ele><time>2026-03-26T18:56:48Z</time></trkpt><trkpt lat="40.508998310149764" lon="15.517555058536074"><ele>463.0</ele><time>2026-03-26T18:56:49Z</time></trkpt><trkpt lat="40.50879263074599" lon="15.51773425082173"><ele>462.5</ele><time>2026-03-26T18:56:50Z</time></trkpt><trkpt lat="40.508584978814945" lon="15.517908596895778"><ele>462.0</ele><time>2026-03-26T18:56:51Z</time></trkpt><trkpt lat="40.50837496332531" lon="15.51807967416539"><ele>462.0</ele><time>2026-03-26T18:56:52Z</time></trkpt><trkpt lat="40.50816212170599" lon="15.518246859151962"><ele>462.0</ele><time>2026-03-26T18:56:53Z</time></trkpt><trkpt lat="40.50794732302389" lon="15.51840955753462"><ele>461.0</ele><time>2026-03-26T18:56:54Z</time></trkpt><trkpt lat="40.50772996494648" lon="15.518570397614704"><ele>460.0</ele><time>2026-03-26T18:56:55Z</time></trkpt><trkpt lat="40.50751140326092" lon="15.518727287461667"><ele>459.0</ele><time>2026-03-26T18:56:56Z</time></trkpt><trkpt lat="40.50729178752369" lon="15.518877708230237"><ele>458.0</ele><time>2026-03-26T18:56:57Z</time></trkpt><trkpt lat="40.50706846330236" lon="15.519026682262838"><ele>458.0</ele><time>2026-03-26T18:56:58Z</time></trkpt><trkpt lat="40.50684455874918" lon="15.51917250016376"><ele>458.0</ele><time>2026-03-26T18:56:59Z</time></trkpt><trkpt lat="40.506620122924254" lon="15.519315158919582"><ele>458.0</ele><time>2026-03-26T18:57:00Z</time></trkpt><trkpt lat="40.506395847856446" lon="15.51945338863978"><ele>458.0</ele><time>2026-03-26T18:57:01Z</time></trkpt><trkpt lat="40.50617007900505" lon="15.519586362874294"><ele>457.5</ele><time>2026-03-26T18:57:02Z</time></trkpt><trkpt lat="40.50594340791244" lon="15.519713485747436"><ele>457.0</ele><time>2026-03-26T18:57:03Z</time></trkpt><trkpt lat="40.505716675567186" lon="15.51983561739898"><ele>457.0</ele><time>2026-03-26T18:57:04Z</time></trkpt><trkpt lat="40.50549265319894" lon="15.519954265725548"><ele>457.0</ele><time>2026-03-26T18:57:05Z</time></trkpt><trkpt lat="40.505269372386344" lon="15.520073137499498"><ele>455.0</ele><time>2026-03-26T18:57:06Z</time></trkpt><trkpt lat="40.50504466768097" lon="15.520187539282782"><ele>453.0</ele><time>2026-03-26T18:57:07Z</time></trkpt><trkpt lat="40.504818931005644" lon="15.520296885463148"><ele>455.0</ele><time>2026-03-26T18:57:08Z</time></trkpt><trkpt lat="40.504590661107585" lon="15.520401525556853"><ele>457.0</ele><time>2026-03-26T18:57:09Z</time></trkpt><trkpt lat="40.50436271819843" lon="15.520506570004034"><ele>457.0</ele><time>2026-03-26T18:57:10Z</time></trkpt><trkpt lat="40.50413202731368" lon="15.52060873674043"><ele>457.0</ele><time>2026-03-26T18:57:11Z</time></trkpt><trkpt lat="40.50390094230031" lon="15.520709178737393"><ele>457.0</ele><time>2026-03-26T18:57:12Z</time></trkpt><trkpt lat="40.50367027016965" lon="15.520808979664643"><ele>457.0</ele><time>2026-03-26T18:57:13Z</time></trkpt><trkpt lat="40.50344253944927" lon="15.520905400411086"><ele>457.0</ele><time>2026-03-26T18:57:14Z</time></trkpt><trkpt lat="40.50321511653335" lon="15.520999001643517"><ele>457.0</ele><time>2026-03-26T18:57:15Z</time></trkpt><trkpt lat="40.502988650135215" lon="15.521088544680145"><ele>458.5</ele><time>2026-03-26T18:57:16Z</time></trkpt><trkpt lat="40.5027628350609" lon="15.521174652353993"><ele>460.0</ele><time>2026-03-26T18:57:17Z</time></trkpt><trkpt lat="40.50253570482345" lon="15.521260053969073"><ele>461.0</ele><time>2026-03-26T18:57:18Z</time></trkpt><trkpt lat="40.50230772941962" lon="15.521344971323634"><ele>462.0</ele><time>2026-03-26T18:57:19Z</time></trkpt><trkpt lat="40.50208009406793" lon="15.521428828794056"><ele>463.0</ele><time>2026-03-26T18:57:20Z</time></trkpt><trkpt lat="40.501847979260305" lon="15.521512253299562"><ele>464.0</ele><time>2026-03-26T18:57:21Z</time></trkpt><trkpt lat="40.5016142103219" lon="15.521592594359523"><ele>464.0</ele><time>2026-03-26T18:57:22Z</time></trkpt><trkpt lat="40.501377416993634" lon="15.521669828129678"><ele>464.0</ele><time>2026-03-26T18:57:23Z</time></trkpt><trkpt lat="40.50113862823359" lon="15.521742867798354"><ele>464.0</ele><time>2026-03-26T18:57:24Z</time></trkpt><trkpt lat="40.50089819999956" lon="15.521812149677078"><ele>464.0</ele><time>2026-03-26T18:57:25Z</time></trkpt><trkpt lat="40.500656861275196" lon="15.521879811986521"><ele>464.5</ele><time>2026-03-26T18:57:26Z</time></trkpt><trkpt lat="40.500415572375566" lon="15.521945250221028"><ele>465.0</ele><time>2026-03-26T18:57:27Z</time></trkpt><trkpt lat="40.50017433382566" lon="15.522009814373842"><ele>467.0</ele><time>2026-03-26T18:57:28Z</time></trkpt><trkpt lat="40.49993284804835" lon="15.522072642739642"><ele>469.0</ele><time>2026-03-26T18:57:29Z</time></trkpt><trkpt lat="40.49968851588574" lon="15.522132329822249"><ele>467.5</ele><time>2026-03-26T18:57:30Z</time></trkpt><trkpt lat="40.499442604878816" lon="15.522185512849617"><ele>466.0</ele><time>2026-03-26T18:57:31Z</time></trkpt><trkpt lat="40.499195154222775" lon="15.522233525191892"><ele>466.0</ele><time>2026-03-26T18:57:32Z</time></trkpt><trkpt lat="40.498948386603466" lon="15.522274400803687"><ele>466.0</ele><time>2026-03-26T18:57:33Z</time></trkpt><trkpt lat="40.49869842102077" lon="15.522310356476751"><ele>464.5</ele><time>2026-03-26T18:57:34Z</time></trkpt><trkpt lat="40.49844640630262" lon="15.522343902853054"><ele>463.0</ele><time>2026-03-26T18:57:35Z</time></trkpt><trkpt lat="40.49819460207352" lon="15.522370694864374"><ele>463.0</ele><time>2026-03-26T18:57:36Z</time></trkpt><trkpt lat="40.4979427493226" lon="15.522394603425608"><ele>463.0</ele><time>2026-03-26T18:57:37Z</time></trkpt><trkpt lat="40.49769320705027" lon="15.522419193233517"><ele>460.5</ele><time>2026-03-26T18:57:38Z</time></trkpt><trkpt lat="40.497444381679024" lon="15.522439299056936"><ele>458.0</ele><time>2026-03-26T18:57:39Z</time></trkpt><trkpt lat="40.497199303743066" lon="15.522460917438538"><ele>454.5</ele><time>2026-03-26T18:57:40Z</time></trkpt><trkpt lat="40.496955238711976" lon="15.522478830572986"><ele>451.0</ele><time>2026-03-26T18:57:41Z</time></trkpt><trkpt lat="40.49671129348088" lon="15.522495769131268"><ele>451.0</ele><time>2026-03-26T18:57:42Z</time></trkpt><trkpt lat="40.49646994655435" lon="15.52251255503067"><ele>451.0</ele><time>2026-03-26T18:57:43Z</time></trkpt><trkpt lat="40.49623314287068" lon="15.522520014633258"><ele>448.5</ele><time>2026-03-26T18:57:44Z</time></trkpt><trkpt lat="40.49599384614104" lon="15.522535935305912"><ele>446.0</ele><time>2026-03-26T18:57:45Z</time></trkpt><trkpt lat="40.495755829296236" lon="15.52255515539629"><ele>446.0</ele><time>2026-03-26T18:57:46Z</time></trkpt><trkpt lat="40.495518752050586" lon="15.52257955968397"><ele>446.0</ele><time>2026-03-26T18:57:47Z</time></trkpt><trkpt lat="40.49528206371283" lon="15.522605931529945"><ele>445.5</ele><time>2026-03-26T18:57:48Z</time></trkpt><trkpt lat="40.495046675294134" lon="15.522636306136768"><ele>445.0</ele><time>2026-03-26T18:57:49Z</time></trkpt><trkpt lat="40.49481205421947" lon="15.522669933616555"><ele>444.0</ele><time>2026-03-26T18:57:50Z</time></trkpt><trkpt lat="40.49457676655951" lon="15.522706823203215"><ele>443.0</ele><time>2026-03-26T18:57:51Z</time></trkpt><trkpt lat="40.49434110857897" lon="15.522749149609329"><ele>443.0</ele><time>2026-03-26T18:57:52Z</time></trkpt><trkpt lat="40.4941046626085" lon="15.522796632253383"><ele>443.0</ele><time>2026-03-26T18:57:53Z</time></trkpt><trkpt lat="40.49386867060139" lon="15.52284920088816"><ele>442.0</ele><time>2026-03-26T18:57:54Z</time></trkpt><trkpt lat="40.49363220990482" lon="15.522908789396492"><ele>441.0</ele><time>2026-03-26T18:57:55Z</time></trkpt><trkpt lat="40.493395635733016" lon="15.522978227741824"><ele>441.0</ele><time>2026-03-26T18:57:56Z</time></trkpt><trkpt lat="40.49316017569992" lon="15.523056648215096"><ele>441.0</ele><time>2026-03-26T18:57:57Z</time></trkpt><trkpt lat="40.49292522476028" lon="15.523141878973727"><ele>441.5</ele><time>2026-03-26T18:57:58Z</time></trkpt><trkpt lat="40.492690229554704" lon="15.523238712769448"><ele>442.0</ele><time>2026-03-26T18:57:59Z</time></trkpt><trkpt lat="40.492457808630505" lon="15.523341012189203"><ele>442.0</ele><time>2026-03-26T18:58:00Z</time></trkpt><trkpt lat="40.49222816692578" lon="15.523455584915096"><ele>442.0</ele><time>2026-03-26T18:58:01Z</time></trkpt><trkpt lat="40.49200089853659" lon="15.523583357766826"><ele>442.0</ele><time>2026-03-26T18:58:02Z</time></trkpt><trkpt lat="40.49177770858798" lon="15.523719657444373"><ele>442.0</ele><time>2026-03-26T18:58:03Z</time></trkpt><trkpt lat="40.491558142130216" lon="15.523864637797738"><ele>441.5</ele><time>2026-03-26T18:58:04Z</time></trkpt><trkpt lat="40.49134202975453" lon="15.524018907153645"><ele>441.0</ele><time>2026-03-26T18:58:05Z</time></trkpt><trkpt lat="40.49113025985413" lon="15.524182330704468"><ele>442.0</ele><time>2026-03-26T18:58:06Z</time></trkpt><trkpt lat="40.49092275549562" lon="15.524355069410127"><ele>443.0</ele><time>2026-03-26T18:58:07Z</time></trkpt><trkpt lat="40.490719676576134" lon="15.524533446893834"><ele>442.5</ele><time>2026-03-26T18:58:08Z</time></trkpt><trkpt lat="40.4905207081089" lon="15.524719009598412"><ele>442.0</ele><time>2026-03-26T18:58:09Z</time></trkpt><trkpt lat="40.49032868119189" lon="15.524915008709236"><ele>443.5</ele><time>2026-03-26T18:58:10Z</time></trkpt><trkpt lat="40.490143635541585" lon="15.525117681169212"><ele>445.0</ele><time>2026-03-26T18:58:11Z</time></trkpt><trkpt lat="40.4899620548028" lon="15.525326125571917"><ele>445.0</ele><time>2026-03-26T18:58:12Z</time></trkpt><trkpt lat="40.48978513001993" lon="15.525538800807956"><ele>445.0</ele><time>2026-03-26T18:58:13Z</time></trkpt><trkpt lat="40.48961193883554" lon="15.525758207839836"><ele>445.0</ele><time>2026-03-26T18:58:14Z</time></trkpt><trkpt lat="40.48944102004288" lon="15.525976230929022"><ele>445.0</ele><time>2026-03-26T18:58:15Z</time></trkpt><trkpt lat="40.489273487903375" lon="15.526198649317772"><ele>445.5</ele><time>2026-03-26T18:58:16Z</time></trkpt><trkpt lat="40.48910957275925" lon="15.526422369150541"><ele>446.0</ele><time>2026-03-26T18:58:17Z</time></trkpt><trkpt lat="40.488948616947866" lon="15.526650037738639"><ele>446.0</ele><time>2026-03-26T18:58:18Z</time></trkpt><trkpt lat="40.4887887931676" lon="15.526880026641686"><ele>446.0</ele><time>2026-03-26T18:58:19Z</time></trkpt><trkpt lat="40.48863077543334" lon="15.527112821703696"><ele>447.0</ele><time>2026-03-26T18:58:20Z</time></trkpt><trkpt lat="40.48847362644054" lon="15.527343155343683"><ele>448.0</ele><time>2026-03-26T18:58:21Z</time></trkpt><trkpt lat="40.488317512232" lon="15.527575399615905"><ele>448.0</ele><time>2026-03-26T18:58:22Z</time></trkpt><trkpt lat="40.48815983559544" lon="15.527808276604006"><ele>448.0</ele><time>2026-03-26T18:58:23Z</time></trkpt><trkpt lat="40.488001467850324" lon="15.528039574519843"><ele>449.0</ele><time>2026-03-26T18:58:24Z</time></trkpt><trkpt lat="40.48783969152202" lon="15.52826397770919"><ele>450.0</ele><time>2026-03-26T18:58:25Z</time></trkpt><trkpt lat="40.48767578752902" lon="15.528487678033478"><ele>450.0</ele><time>2026-03-26T18:58:26Z</time></trkpt><trkpt lat="40.487512202697616" lon="15.5287114661543"><ele>450.0</ele><time>2026-03-26T18:58:27Z</time></trkpt><trkpt lat="40.48734877614428" lon="15.528931971878542"><ele>451.5</ele><time>2026-03-26T18:58:28Z</time></trkpt><trkpt lat="40.48718546632896" lon="15.529149876148127"><ele>453.0</ele><time>2026-03-26T18:58:29Z</time></trkpt><trkpt lat="40.487020467911584" lon="15.529365707998377"><ele>454.5</ele><time>2026-03-26T18:58:30Z</time></trkpt><trkpt lat="40.48685270119169" lon="15.52957568768676"><ele>456.0</ele><time>2026-03-26T18:58:31Z</time></trkpt><trkpt lat="40.48668168669406" lon="15.529782333666407"><ele>456.0</ele><time>2026-03-26T18:58:32Z</time></trkpt><trkpt lat="40.48650729515264" lon="15.529982137020022"><ele>456.0</ele><time>2026-03-26T18:58:33Z</time></trkpt><trkpt lat="40.48632894374851" lon="15.530177224595274"><ele>455.0</ele><time>2026-03-26T18:58:34Z</time></trkpt><trkpt lat="40.48614575316132" lon="15.53036711514899"><ele>454.0</ele><time>2026-03-26T18:58:35Z</time></trkpt><trkpt lat="40.485958142088606" lon="15.530551021232245"><ele>456.0</ele><time>2026-03-26T18:58:36Z</time></trkpt><trkpt lat="40.485766427808755" lon="15.530730432266486"><ele>458.0</ele><time>2026-03-26T18:58:37Z</time></trkpt><trkpt lat="40.485570782961936" lon="15.530905851883533"><ele>458.5</ele><time>2026-03-26T18:58:38Z</time></trkpt><trkpt lat="40.485369157338255" lon="15.53107630241129"><ele>459.0</ele><time>2026-03-26T18:58:39Z</time></trkpt><trkpt lat="40.48516396556045" lon="15.53124169143947"><ele>461.5</ele><time>2026-03-26T18:58:40Z</time></trkpt><trkpt lat="40.4849539297637" lon="15.531401936271669"><ele>464.0</ele><time>2026-03-26T18:58:41Z</time></trkpt><trkpt lat="40.48474063497169" lon="15.531556482567362"><ele>462.5</ele><time>2026-03-26T18:58:42Z</time></trkpt><trkpt lat="40.48452329384479" lon="15.531708921806384"><ele>461.0</ele><time>2026-03-26T18:58:43Z</time></trkpt><trkpt lat="40.48430221847245" lon="15.531857739870327"><ele>461.0</ele><time>2026-03-26T18:58:44Z</time></trkpt><trkpt lat="40.48408034126339" lon="15.532003312304159"><ele>461.0</ele><time>2026-03-26T18:58:45Z</time></trkpt><trkpt lat="40.48385696207338" lon="15.532146836728701"><ele>463.5</ele><time>2026-03-26T18:58:46Z</time></trkpt><trkpt lat="40.48362996503793" lon="15.532288315445802"><ele>466.0</ele><time>2026-03-26T18:58:47Z</time></trkpt><trkpt lat="40.48340488238267" lon="15.53243255477591"><ele>466.0</ele><time>2026-03-26T18:58:48Z</time></trkpt><trkpt lat="40.483178836191684" lon="15.532575178214"><ele>466.0</ele><time>2026-03-26T18:58:49Z</time></trkpt><trkpt lat="40.482951738103814" lon="15.532713171867051"><ele>464.0</ele><time>2026-03-26T18:58:50Z</time></trkpt><trkpt lat="40.48272279960321" lon="15.532851366080312"><ele>462.0</ele><time>2026-03-26T18:58:51Z</time></trkpt><trkpt lat="40.482491998593595" lon="15.532989149993334"><ele>462.5</ele><time>2026-03-26T18:58:52Z</time></trkpt><trkpt lat="40.48226428689375" lon="15.533127985628173"><ele>463.0</ele><time>2026-03-26T18:58:53Z</time></trkpt><trkpt lat="40.482034093958724" lon="15.533264728826634"><ele>463.0</ele><time>2026-03-26T18:58:54Z</time></trkpt><trkpt lat="40.4818027884558" lon="15.533399671347302"><ele>463.0</ele><time>2026-03-26T18:58:55Z</time></trkpt><trkpt lat="40.4815702473793" lon="15.533535223805725"><ele>463.0</ele><time>2026-03-26T18:58:56Z</time></trkpt><trkpt lat="40.48133667010907" lon="15.533669620353592"><ele>463.0</ele><time>2026-03-26T18:58:57Z</time></trkpt><trkpt lat="40.48110359559511" lon="15.533804127117401"><ele>463.5</ele><time>2026-03-26T18:58:58Z</time></trkpt><trkpt lat="40.480870526607525" lon="15.533939561946852"><ele>464.0</ele><time>2026-03-26T18:58:59Z</time></trkpt><trkpt lat="40.480636927268755" lon="15.53407210854537"><ele>460.0</ele><time>2026-03-26T18:59:00Z</time></trkpt><trkpt lat="40.480404223181814" lon="15.53420227525886"><ele>456.0</ele><time>2026-03-26T18:59:01Z</time></trkpt><trkpt lat="40.4801731354852" lon="15.53433140785839"><ele>456.0</ele><time>2026-03-26T18:59:02Z</time></trkpt><trkpt lat="40.479943361485766" lon="15.53446169572808"><ele>456.0</ele><time>2026-03-26T18:59:03Z</time></trkpt><trkpt lat="40.47971590893729" lon="15.534591266839584"><ele>460.0</ele><time>2026-03-26T18:59:04Z</time></trkpt><trkpt lat="40.47949021290901" lon="15.534718606960508"><ele>464.0</ele><time>2026-03-26T18:59:05Z</time></trkpt><trkpt lat="40.479266114905776" lon="15.53484215750455"><ele>464.0</ele><time>2026-03-26T18:59:06Z</time></trkpt><trkpt lat="40.479044251991105" lon="15.534964814179023"><ele>464.0</ele><time>2026-03-26T18:59:07Z</time></trkpt><trkpt lat="40.47882070832824" lon="15.53508391244904"><ele>460.0</ele><time>2026-03-26T18:59:08Z</time></trkpt><trkpt lat="40.47859561673888" lon="15.53520143842258"><ele>456.0</ele><time>2026-03-26T18:59:09Z</time></trkpt><trkpt lat="40.47836917914255" lon="15.535318809308269"><ele>460.5</ele><time>2026-03-26T18:59:10Z</time></trkpt><trkpt lat="40.47814278548848" lon="15.53543582486547"><ele>465.0</ele><time>2026-03-26T18:59:11Z</time></trkpt><trkpt lat="40.47791560387666" lon="15.5355517164254"><ele>465.0</ele><time>2026-03-26T18:59:12Z</time></trkpt><trkpt lat="40.477688256930236" lon="15.535666489220388"><ele>465.0</ele><time>2026-03-26T18:59:13Z</time></trkpt><trkpt lat="40.4774604787948" lon="15.535777439256474"><ele>465.0</ele><time>2026-03-26T18:59:14Z</time></trkpt><trkpt lat="40.477231399011636" lon="15.535891322849512"><ele>465.0</ele><time>2026-03-26T18:59:15Z</time></trkpt><trkpt lat="40.4770025199055" lon="15.536006155010487"><ele>461.0</ele><time>2026-03-26T18:59:16Z</time></trkpt><trkpt lat="40.47677128391745" lon="15.536118846044584"><ele>457.0</ele><time>2026-03-26T18:59:17Z</time></trkpt><trkpt lat="40.47653964844362" lon="15.536234662516446"><ele>459.0</ele><time>2026-03-26T18:59:18Z</time></trkpt><trkpt lat="40.47630876077148" lon="15.536349671073104"><ele>461.0</ele><time>2026-03-26T18:59:19Z</time></trkpt><trkpt lat="40.47607815569707" lon="15.53646314638153"><ele>461.0</ele><time>2026-03-26T18:59:20Z</time></trkpt><trkpt lat="40.47585031028021" lon="15.536574289087481"><ele>461.0</ele><time>2026-03-26T18:59:21Z</time></trkpt><trkpt lat="40.475622985773754" lon="15.536683963161163"><ele>457.5</ele><time>2026-03-26T18:59:22Z</time></trkpt><trkpt lat="40.47539844919189" lon="15.536789909578763"><ele>454.0</ele><time>2026-03-26T18:59:23Z</time></trkpt><trkpt lat="40.47517421526239" lon="15.536894479877363"><ele>454.0</ele><time>2026-03-26T18:59:24Z</time></trkpt><trkpt lat="40.47494853069791" lon="15.536998334936918"><ele>454.0</ele><time>2026-03-26T18:59:25Z</time></trkpt><trkpt lat="40.47472182186285" lon="15.537096419100516"><ele>457.5</ele><time>2026-03-26T18:59:26Z</time></trkpt><trkpt lat="40.47449638335204" lon="15.53719192142003"><ele>461.0</ele><time>2026-03-26T18:59:27Z</time></trkpt><trkpt lat="40.47427133014652" lon="15.537282401896801"><ele>461.0</ele><time>2026-03-26T18:59:28Z</time></trkpt><trkpt lat="40.47404660728524" lon="15.537367696425317"><ele>461.0</ele><time>2026-03-26T18:59:29Z</time></trkpt><trkpt lat="40.47382320623445" lon="15.537448544571856"><ele>457.5</ele><time>2026-03-26T18:59:30Z</time></trkpt><trkpt lat="40.4735999215263" lon="15.53752296875707"><ele>454.0</ele><time>2026-03-26T18:59:31Z</time></trkpt><trkpt lat="40.473381038379564" lon="15.537589235699699"><ele>454.0</ele><time>2026-03-26T18:59:32Z</time></trkpt><trkpt lat="40.47316477061236" lon="15.53764891212159"><ele>454.0</ele><time>2026-03-26T18:59:33Z</time></trkpt><trkpt lat="40.472947895678445" lon="15.537704971114628"><ele>454.0</ele><time>2026-03-26T18:59:34Z</time></trkpt><trkpt lat="40.472730069417466" lon="15.537753401734106"><ele>454.0</ele><time>2026-03-26T18:59:35Z</time></trkpt><trkpt lat="40.47251023652929" lon="15.537800448047467"><ele>454.0</ele><time>2026-03-26T18:59:36Z</time></trkpt><trkpt lat="40.472288800939566" lon="15.537841121063375"><ele>454.0</ele><time>2026-03-26T18:59:37Z</time></trkpt><trkpt lat="40.47206372687054" lon="15.537881095393582"><ele>456.5</ele><time>2026-03-26T18:59:38Z</time></trkpt><trkpt lat="40.47183664350853" lon="15.537917012193857"><ele>459.0</ele><time>2026-03-26T18:59:39Z</time></trkpt><trkpt lat="40.47160631729368" lon="15.537951158828806"><ele>459.0</ele><time>2026-03-26T18:59:40Z</time></trkpt><trkpt lat="40.471374294809856" lon="15.537985372359916"><ele>459.0</ele><time>2026-03-26T18:59:41Z</time></trkpt><trkpt lat="40.471139635910006" lon="15.538021712190666"><ele>458.0</ele><time>2026-03-26T18:59:42Z</time></trkpt><trkpt lat="40.47090270993517" lon="15.538058070546565"><ele>457.0</ele><time>2026-03-26T18:59:43Z</time></trkpt><trkpt lat="40.47066115071972" lon="15.538094466720416"><ele>457.0</ele><time>2026-03-26T18:59:44Z</time></trkpt><trkpt lat="40.47041973712652" lon="15.538128216858427"><ele>457.0</ele><time>2026-03-26T18:59:45Z</time></trkpt><trkpt lat="40.47017935692577" lon="15.538165121593037"><ele>457.0</ele><time>2026-03-26T18:59:46Z</time></trkpt><trkpt lat="40.46994000194324" lon="15.538207574249284"><ele>457.0</ele><time>2026-03-26T18:59:47Z</time></trkpt><trkpt lat="40.46970216227814" lon="15.538253738937348"><ele>458.5</ele><time>2026-03-26T18:59:48Z</time></trkpt><trkpt lat="40.469463359161395" lon="15.538303472808884"><ele>460.0</ele><time>2026-03-26T18:59:49Z</time></trkpt><trkpt lat="40.46922671913138" lon="15.538356686880245"><ele>460.0</ele><time>2026-03-26T18:59:50Z</time></trkpt><trkpt lat="40.468992474521855" lon="15.538412798493448"><ele>460.0</ele><time>2026-03-26T18:59:51Z</time></trkpt><trkpt lat="40.46876041905419" lon="15.538472426357083"><ele>460.0</ele><time>2026-03-26T18:59:52Z</time></trkpt><trkpt lat="40.46852921636863" lon="15.53853811788383"><ele>460.0</ele><time>2026-03-26T18:59:53Z</time></trkpt><trkpt lat="40.468301982603386" lon="15.538605655819328"><ele>460.0</ele><time>2026-03-26T18:59:54Z</time></trkpt><trkpt lat="40.46807507873429" lon="15.538677668367846"><ele>460.0</ele><time>2026-03-26T18:59:55Z</time></trkpt><trkpt lat="40.46784781194809" lon="15.538758716739547"><ele>460.5</ele><time>2026-03-26T18:59:56Z</time></trkpt><trkpt lat="40.46761912686346" lon="15.538829794478538"><ele>461.0</ele><time>2026-03-26T18:59:57Z</time></trkpt><trkpt lat="40.46739094527252" lon="15.538893049741834"><ele>461.0</ele><time>2026-03-26T18:59:58Z</time></trkpt><trkpt lat="40.4671620681308" lon="15.53895935674376"><ele>461.0</ele><time>2026-03-26T18:59:59Z</time></trkpt><trkpt lat="40.46693085466052" lon="15.539027080767491"><ele>460.5</ele><time>2026-03-26T19:00:00Z</time></trkpt><trkpt lat="40.46669968028299" lon="15.53909736383813"><ele>460.0</ele><time>2026-03-26T19:00:01Z</time></trkpt><trkpt lat="40.466467774051395" lon="15.539165238699525"><ele>459.5</ele><time>2026-03-26T19:00:02Z</time></trkpt><trkpt lat="40.466237628141144" lon="15.53923374209078"><ele>459.0</ele><time>2026-03-26T19:00:03Z</time></trkpt><trkpt lat="40.466007683073684" lon="15.539304472298012"><ele>459.0</ele><time>2026-03-26T19:00:04Z</time></trkpt><trkpt lat="40.46577750107772" lon="15.539374643065429"><ele>459.0</ele><time>2026-03-26T19:00:05Z</time></trkpt><trkpt lat="40.46554949961952" lon="15.539443516899404"><ele>458.0</ele><time>2026-03-26T19:00:06Z</time></trkpt><trkpt lat="40.46532168642192" lon="15.53951579843365"><ele>457.0</ele><time>2026-03-26T19:00:07Z</time></trkpt><trkpt lat="40.4650955722519" lon="15.539591545809387"><ele>461.5</ele><time>2026-03-26T19:00:08Z</time></trkpt><trkpt lat="40.464872212384236" lon="15.539668686480933"><ele>466.0</ele><time>2026-03-26T19:00:09Z</time></trkpt><trkpt lat="40.464652547455685" lon="15.539749308176109"><ele>465.5</ele><time>2026-03-26T19:00:10Z</time></trkpt><trkpt lat="40.46443502577407" lon="15.539830234327441"><ele>465.0</ele><time>2026-03-26T19:00:11Z</time></trkpt><trkpt lat="40.46421593103927" lon="15.539912759703585"><ele>465.0</ele><time>2026-03-26T19:00:12Z</time></trkpt><trkpt lat="40.46399708912727" lon="15.539995366030462"><ele>465.0</ele><time>2026-03-26T19:00:13Z</time></trkpt><trkpt lat="40.463779132401925" lon="15.540080030751819"><ele>463.0</ele><time>2026-03-26T19:00:14Z</time></trkpt><trkpt lat="40.46355817483585" lon="15.540173236742095"><ele>461.0</ele><time>2026-03-26T19:00:15Z</time></trkpt><trkpt lat="40.463339273321566" lon="15.540271311239435"><ele>461.0</ele><time>2026-03-26T19:00:16Z</time></trkpt><trkpt lat="40.463118439036684" lon="15.5403732110848"><ele>461.0</ele><time>2026-03-26T19:00:17Z</time></trkpt><trkpt lat="40.462897088992385" lon="15.540478828172285"><ele>468.0</ele><time>2026-03-26T19:00:18Z</time></trkpt><trkpt lat="40.46267750371835" lon="15.54058894148178"><ele>475.0</ele><time>2026-03-26T19:00:19Z</time></trkpt><trkpt lat="40.462457765679" lon="15.540703456378004"><ele>475.0</ele><time>2026-03-26T19:00:20Z</time></trkpt><trkpt lat="40.46223892567322" lon="15.540821100289968"><ele>475.0</ele><time>2026-03-26T19:00:21Z</time></trkpt><trkpt lat="40.46201913298663" lon="15.54093674518353"><ele>470.5</ele><time>2026-03-26T19:00:22Z</time></trkpt><trkpt lat="40.46179996441384" lon="15.541053499313056"><ele>466.0</ele><time>2026-03-26T19:00:23Z</time></trkpt><trkpt lat="40.46158002042833" lon="15.541172478142238"><ele>469.0</ele><time>2026-03-26T19:00:24Z</time></trkpt><trkpt lat="40.461359892111545" lon="15.541292876528143"><ele>472.0</ele><time>2026-03-26T19:00:25Z</time></trkpt><trkpt lat="40.46114002462257" lon="15.54141289634652"><ele>472.0</ele><time>2026-03-26T19:00:26Z</time></trkpt><trkpt lat="40.46092184369388" lon="15.541533096346214"><ele>472.0</ele><time>2026-03-26T19:00:27Z</time></trkpt><trkpt lat="40.46070325715824" lon="15.54165126272257"><ele>472.0</ele><time>2026-03-26T19:00:28Z</time></trkpt><trkpt lat="40.460485401745814" lon="15.541768872904736"><ele>472.0</ele><time>2026-03-26T19:00:29Z</time></trkpt><trkpt lat="40.46026799797546" lon="15.541885942649195"><ele>470.0</ele><time>2026-03-26T19:00:30Z</time></trkpt><trkpt lat="40.46005193494285" lon="15.542001619740232"><ele>468.0</ele><time>2026-03-26T19:00:31Z</time></trkpt><trkpt lat="40.45983785290177" lon="15.542115444113794"><ele>470.5</ele><time>2026-03-26T19:00:32Z</time></trkpt><trkpt lat="40.45962395341285" lon="15.542226732797392"><ele>473.0</ele><time>2026-03-26T19:00:33Z</time></trkpt><trkpt lat="40.459411230141775" lon="15.542332387326308"><ele>473.0</ele><time>2026-03-26T19:00:34Z</time></trkpt><trkpt lat="40.45919804700627" lon="15.542432040926098"><ele>473.0</ele><time>2026-03-26T19:00:35Z</time></trkpt><trkpt lat="40.45898667333876" lon="15.542521460486165"><ele>473.0</ele><time>2026-03-26T19:00:36Z</time></trkpt><trkpt lat="40.45877599887638" lon="15.542607328511481"><ele>472.0</ele><time>2026-03-26T19:00:37Z</time></trkpt><trkpt lat="40.4585629917554" lon="15.542685074995852"><ele>471.0</ele><time>2026-03-26T19:00:38Z</time></trkpt><trkpt lat="40.45834839658162" lon="15.542755483004076"><ele>470.0</ele><time>2026-03-26T19:00:39Z</time></trkpt><trkpt lat="40.458134533858804" lon="15.542819601671173"><ele>469.3333333333333</ele><time>2026-03-26T19:00:40Z</time></trkpt><trkpt lat="40.457918821577145" lon="15.542874074639665"><ele>468.66666666666663</ele><time>2026-03-26T19:00:41Z</time></trkpt><trkpt lat="40.457699290145634" lon="15.542924174590214"><ele>468.0</ele><time>2026-03-26T19:00:42Z</time></trkpt><trkpt lat="40.4574773937767" lon="15.54296920873042"><ele>469.66666666666663</ele><time>2026-03-26T19:00:43Z</time></trkpt><trkpt lat="40.45725497828401" lon="15.543008815887415"><ele>471.3333333333333</ele><time>2026-03-26T19:00:44Z</time></trkpt><trkpt lat="40.45703393848897" lon="15.543041778248034"><ele>473.0</ele><time>2026-03-26T19:00:45Z</time></trkpt><trkpt lat="40.456811505079344" lon="15.543067702712808"><ele>473.0</ele><time>2026-03-26T19:00:46Z</time></trkpt><trkpt lat="40.45658737372724" lon="15.543085569061992"><ele>473.0</ele><time>2026-03-26T19:00:47Z</time></trkpt><trkpt lat="40.45636298399553" lon="15.543098811377208"><ele>473.0</ele><time>2026-03-26T19:00:48Z</time></trkpt><trkpt lat="40.45613770770549" lon="15.543110506084837"><ele>473.5</ele><time>2026-03-26T19:00:49Z</time></trkpt><trkpt lat="40.45590835327562" lon="15.543117866745135"><ele>474.0</ele><time>2026-03-26T19:00:50Z</time></trkpt><trkpt lat="40.455675840810564" lon="15.543123588953566"><ele>473.0</ele><time>2026-03-26T19:00:51Z</time></trkpt><trkpt lat="40.45544091556192" lon="15.543127694166964"><ele>472.0</ele><time>2026-03-26T19:00:52Z</time></trkpt><trkpt lat="40.45520377554235" lon="15.5431316415887"><ele>472.0</ele><time>2026-03-26T19:00:53Z</time></trkpt><trkpt lat="40.454965632078085" lon="15.54313690555099"><ele>472.0</ele><time>2026-03-26T19:00:54Z</time></trkpt><trkpt lat="40.454727438152844" lon="15.543144099506286"><ele>470.5</ele><time>2026-03-26T19:00:55Z</time></trkpt><trkpt lat="40.45448983766384" lon="15.54315449165647"><ele>469.0</ele><time>2026-03-26T19:00:56Z</time></trkpt><trkpt lat="40.45425395539295" lon="15.54316832752749"><ele>469.0</ele><time>2026-03-26T19:00:57Z</time></trkpt><trkpt lat="40.454020145240854" lon="15.543188396378953"><ele>469.0</ele><time>2026-03-26T19:00:58Z</time></trkpt><trkpt lat="40.45378713912827" lon="15.543216248434142"><ele>469.0</ele><time>2026-03-26T19:00:59Z</time></trkpt><trkpt lat="40.4535577416816" lon="15.543249360649714"><ele>469.0</ele><time>2026-03-26T19:01:00Z</time></trkpt><trkpt lat="40.453330115571056" lon="15.543291518419895"><ele>469.0</ele><time>2026-03-26T19:01:01Z</time></trkpt><trkpt lat="40.45310529561916" lon="15.543342815152965"><ele>469.0</ele><time>2026-03-26T19:01:02Z</time></trkpt><trkpt lat="40.452881310045505" lon="15.543400300522702"><ele>467.0</ele><time>2026-03-26T19:01:03Z</time></trkpt><trkpt lat="40.45265874625322" lon="15.543465252951822"><ele>465.0</ele><time>2026-03-26T19:01:04Z</time></trkpt><trkpt lat="40.45243743983421" lon="15.54353843219628"><ele>465.0</ele><time>2026-03-26T19:01:05Z</time></trkpt><trkpt lat="40.45221668037046" lon="15.543619004665139"><ele>465.0</ele><time>2026-03-26T19:01:06Z</time></trkpt><trkpt lat="40.45199796580263" lon="15.543709029435282"><ele>472.0</ele><time>2026-03-26T19:01:07Z</time></trkpt><trkpt lat="40.45178009471656" lon="15.543806840243755"><ele>479.0</ele><time>2026-03-26T19:01:08Z</time></trkpt><trkpt lat="40.451562008975145" lon="15.543911302589516"><ele>479.0</ele><time>2026-03-26T19:01:09Z</time></trkpt><trkpt lat="40.451345823274686" lon="15.54402130096533"><ele>479.0</ele><time>2026-03-26T19:01:10Z</time></trkpt><trkpt lat="40.45113007967416" lon="15.544139567586553"><ele>470.5</ele><time>2026-03-26T19:01:11Z</time></trkpt><trkpt lat="40.450916074588186" lon="15.544265559912636"><ele>462.0</ele><time>2026-03-26T19:01:12Z</time></trkpt><trkpt lat="40.45070455115376" lon="15.544402190138847"><ele>465.5</ele><time>2026-03-26T19:01:13Z</time></trkpt><trkpt lat="40.450495680125066" lon="15.544548264366812"><ele>469.0</ele><time>2026-03-26T19:01:14Z</time></trkpt><trkpt lat="40.45028959558175" lon="15.544698773986266"><ele>469.0</ele><time>2026-03-26T19:01:15Z</time></trkpt><trkpt lat="40.45008593971521" lon="15.544855872106776"><ele>469.0</ele><time>2026-03-26T19:01:16Z</time></trkpt><trkpt lat="40.449884041055064" lon="15.54501830994009"><ele>469.0</ele><time>2026-03-26T19:01:17Z</time></trkpt><trkpt lat="40.44968530412292" lon="15.545181635686056"><ele>469.0</ele><time>2026-03-26T19:01:18Z</time></trkpt><trkpt lat="40.44948777329563" lon="15.545348774358875"><ele>471.0</ele><time>2026-03-26T19:01:19Z</time></trkpt><trkpt lat="40.44929138543047" lon="15.54551645376429"><ele>473.0</ele><time>2026-03-26T19:01:20Z</time></trkpt><trkpt lat="40.44909857865097" lon="15.545681728930223"><ele>473.0</ele><time>2026-03-26T19:01:21Z</time></trkpt><trkpt lat="40.44890626090553" lon="15.545842880006669"><ele>473.0</ele><time>2026-03-26T19:01:22Z</time></trkpt><trkpt lat="40.44871524625155" lon="15.546004484035116"><ele>476.5</ele><time>2026-03-26T19:01:23Z</time></trkpt><trkpt lat="40.44852635777643" lon="15.546166754713514"><ele>480.0</ele><time>2026-03-26T19:01:24Z</time></trkpt><trkpt lat="40.448338093978506" lon="15.546328849761274"><ele>480.0</ele><time>2026-03-26T19:01:25Z</time></trkpt><trkpt lat="40.44814904737358" lon="15.546487965136922"><ele>480.0</ele><time>2026-03-26T19:01:26Z</time></trkpt><trkpt lat="40.44796271854379" lon="15.546646715866522"><ele>480.0</ele><time>2026-03-26T19:01:27Z</time></trkpt><trkpt lat="40.44777615703473" lon="15.546803778208812"><ele>481.0</ele><time>2026-03-26T19:01:28Z</time></trkpt><trkpt lat="40.44758911769379" lon="15.546957699216525"><ele>482.0</ele><time>2026-03-26T19:01:29Z</time></trkpt><trkpt lat="40.447402663986495" lon="15.547113584678495"><ele>483.0</ele><time>2026-03-26T19:01:30Z</time></trkpt><trkpt lat="40.44721762066826" lon="15.547271763129986"><ele>477.0</ele><time>2026-03-26T19:01:31Z</time></trkpt><trkpt lat="40.447034917159925" lon="15.54743103745675"><ele>471.0</ele><time>2026-03-26T19:01:32Z</time></trkpt><trkpt lat="40.446851996531215" lon="15.547591402225747"><ele>465.0</ele><time>2026-03-26T19:01:33Z</time></trkpt><trkpt lat="40.4466661194526" lon="15.547745262065936"><ele>466.66666666666663</ele><time>2026-03-26T19:01:34Z</time></trkpt><trkpt lat="40.446477927924136" lon="15.54790005651421"><ele>468.3333333333333</ele><time>2026-03-26T19:01:35Z</time></trkpt><trkpt lat="40.44628858666761" lon="15.548054655030704"><ele>470.0</ele><time>2026-03-26T19:01:36Z</time></trkpt><trkpt lat="40.44609843531929" lon="15.548208904752101"><ele>470.0</ele><time>2026-03-26T19:01:37Z</time></trkpt><trkpt lat="40.44590783938083" lon="15.548359096202667"><ele>470.0</ele><time>2026-03-26T19:01:38Z</time></trkpt><trkpt lat="40.44571599163642" lon="15.548509259550533"><ele>470.0</ele><time>2026-03-26T19:01:39Z</time></trkpt><trkpt lat="40.44552351970633" lon="15.548657816708694"><ele>469.5</ele><time>2026-03-26T19:01:40Z</time></trkpt><trkpt lat="40.44532603175333" lon="15.548802092208607"><ele>469.0</ele><time>2026-03-26T19:01:41Z</time></trkpt><trkpt lat="40.445124760414636" lon="15.548938719620724"><ele>469.0</ele><time>2026-03-26T19:01:42Z</time></trkpt><trkpt lat="40.44492106142052" lon="15.54907000710832"><ele>469.0</ele><time>2026-03-26T19:01:43Z</time></trkpt><trkpt lat="40.44471358840647" lon="15.549193065846488"><ele>466.0</ele><time>2026-03-26T19:01:44Z</time></trkpt><trkpt lat="40.44450481401118" lon="15.549313330363162"><ele>463.0</ele><time>2026-03-26T19:01:45Z</time></trkpt><trkpt lat="40.44429694727523" lon="15.549431446792962"><ele>465.5</ele><time>2026-03-26T19:01:46Z</time></trkpt><trkpt lat="40.44408663672817" lon="15.549549210016878"><ele>468.0</ele><time>2026-03-26T19:01:47Z</time></trkpt><trkpt lat="40.44387629566102" lon="15.549667156231957"><ele>467.0</ele><time>2026-03-26T19:01:48Z</time></trkpt><trkpt lat="40.443668057483535" lon="15.549787212720116"><ele>466.0</ele><time>2026-03-26T19:01:49Z</time></trkpt><trkpt lat="40.4434591745827" lon="15.549903879319057"><ele>466.0</ele><time>2026-03-26T19:01:50Z</time></trkpt><trkpt lat="40.443247777457515" lon="15.550019350449078"><ele>466.0</ele><time>2026-03-26T19:01:51Z</time></trkpt><trkpt lat="40.44303533332151" lon="15.550130676865557"><ele>464.5</ele><time>2026-03-26T19:01:52Z</time></trkpt><trkpt lat="40.442823669646494" lon="15.55024364745085"><ele>463.0</ele><time>2026-03-26T19:01:53Z</time></trkpt><trkpt lat="40.44261270364236" lon="15.550358805484592"><ele>466.5</ele><time>2026-03-26T19:01:54Z</time></trkpt><trkpt lat="40.44240271779547" lon="15.55047607240414"><ele>470.0</ele><time>2026-03-26T19:01:55Z</time></trkpt><trkpt lat="40.44219177693299" lon="15.550592819895039"><ele>468.5</ele><time>2026-03-26T19:01:56Z</time></trkpt><trkpt lat="40.44198019994815" lon="15.550710929818"><ele>467.0</ele><time>2026-03-26T19:01:57Z</time></trkpt><trkpt lat="40.44176841023279" lon="15.550829903295883"><ele>467.0</ele><time>2026-03-26T19:01:58Z</time></trkpt><trkpt lat="40.44155597088792" lon="15.550954518159866"><ele>467.0</ele><time>2026-03-26T19:01:59Z</time></trkpt><trkpt lat="40.4413443461636" lon="15.551081742707007"><ele>468.0</ele><time>2026-03-26T19:02:00Z</time></trkpt><trkpt lat="40.441131145446384" lon="15.551214192800826"><ele>469.0</ele><time>2026-03-26T19:02:01Z</time></trkpt><trkpt lat="40.440922822413015" lon="15.551357445009824"><ele>469.0</ele><time>2026-03-26T19:02:02Z</time></trkpt><trkpt lat="40.440717887517934" lon="15.551509242823817"><ele>469.0</ele><time>2026-03-26T19:02:03Z</time></trkpt><trkpt lat="40.440513504616135" lon="15.55166691413746"><ele>466.5</ele><time>2026-03-26T19:02:04Z</time></trkpt><trkpt lat="40.44031214394929" lon="15.551831701444701"><ele>464.0</ele><time>2026-03-26T19:02:05Z</time></trkpt><trkpt lat="40.44011390446133" lon="15.552000829745303"><ele>465.5</ele><time>2026-03-26T19:02:06Z</time></trkpt><trkpt lat="40.439920013433294" lon="15.552176437063476"><ele>467.0</ele><time>2026-03-26T19:02:07Z</time></trkpt><trkpt lat="40.43973035427368" lon="15.55235876861193"><ele>465.0</ele><time>2026-03-26T19:02:08Z</time></trkpt><trkpt lat="40.439544482510755" lon="15.55254625157122"><ele>463.0</ele><time>2026-03-26T19:02:09Z</time></trkpt><trkpt lat="40.439361651492234" lon="15.552738055234457"><ele>464.0</ele><time>2026-03-26T19:02:10Z</time></trkpt><trkpt lat="40.43918267328396" lon="15.552931924931041"><ele>465.0</ele><time>2026-03-26T19:02:11Z</time></trkpt><trkpt lat="40.439006006876106" lon="15.553121811697286"><ele>465.0</ele><time>2026-03-26T19:02:12Z</time></trkpt><trkpt lat="40.438832604753664" lon="15.553315588217773"><ele>465.0</ele><time>2026-03-26T19:02:13Z</time></trkpt><trkpt lat="40.43865966830467" lon="15.55351249634689"><ele>464.5</ele><time>2026-03-26T19:02:14Z</time></trkpt><trkpt lat="40.43848490652704" lon="15.553707112332924"><ele>464.0</ele><time>2026-03-26T19:02:15Z</time></trkpt><trkpt lat="40.43830881407232" lon="15.553901771506066"><ele>464.0</ele><time>2026-03-26T19:02:16Z</time></trkpt><trkpt lat="40.43812645904166" lon="15.554089094062336"><ele>464.0</ele><time>2026-03-26T19:02:17Z</time></trkpt><trkpt lat="40.43793772671239" lon="15.554270641874442"><ele>463.0</ele><time>2026-03-26T19:02:18Z</time></trkpt><trkpt lat="40.43774441753988" lon="15.554448835845806"><ele>462.0</ele><time>2026-03-26T19:02:19Z</time></trkpt><trkpt lat="40.43754443111865" lon="15.554619981610342"><ele>462.0</ele><time>2026-03-26T19:02:20Z</time></trkpt><trkpt lat="40.437340903317924" lon="15.554785473144081"><ele>462.0</ele><time>2026-03-26T19:02:21Z</time></trkpt><trkpt lat="40.43713227106354" lon="15.554944379705613"><ele>460.0</ele><time>2026-03-26T19:02:22Z</time></trkpt><trkpt lat="40.43691900566223" lon="15.555096567561645"><ele>458.0</ele><time>2026-03-26T19:02:23Z</time></trkpt><trkpt lat="40.436701906615035" lon="15.555239838211158"><ele>459.0</ele><time>2026-03-26T19:02:24Z</time></trkpt><trkpt lat="40.436481716393196" lon="15.555379126481801"><ele>460.0</ele><time>2026-03-26T19:02:25Z</time></trkpt><trkpt lat="40.43625868721689" lon="15.555511176782758"><ele>460.0</ele><time>2026-03-26T19:02:26Z</time></trkpt><trkpt lat="40.43603430005212" lon="15.55563604434998"><ele>460.0</ele><time>2026-03-26T19:02:27Z</time></trkpt><trkpt lat="40.43580775507372" lon="15.555752225771327"><ele>460.0</ele><time>2026-03-26T19:02:28Z</time></trkpt><trkpt lat="40.43558116336316" lon="15.555861522594094"><ele>460.0</ele><time>2026-03-26T19:02:29Z</time></trkpt><trkpt lat="40.43535368802827" lon="15.55596831975898"><ele>458.0</ele><time>2026-03-26T19:02:30Z</time></trkpt><trkpt lat="40.43512662402274" lon="15.556074508429353"><ele>456.0</ele><time>2026-03-26T19:02:31Z</time></trkpt><trkpt lat="40.43489880451007" lon="15.55618159733017"><ele>457.5</ele><time>2026-03-26T19:02:32Z</time></trkpt><trkpt lat="40.4346730151179" lon="15.556288317433378"><ele>459.0</ele><time>2026-03-26T19:02:33Z</time></trkpt><trkpt lat="40.43444628336584" lon="15.556393691352891"><ele>459.0</ele><time>2026-03-26T19:02:34Z</time></trkpt><trkpt lat="40.43421979839942" lon="15.556498851154585"><ele>459.0</ele><time>2026-03-26T19:02:35Z</time></trkpt><trkpt lat="40.4339922560494" lon="15.556603584845227"><ele>459.0</ele><time>2026-03-26T19:02:36Z</time></trkpt><trkpt lat="40.433766073156" lon="15.556707726403204"><ele>459.0</ele><time>2026-03-26T19:02:37Z</time></trkpt><trkpt lat="40.43354264586382" lon="15.556810514331547"><ele>459.0</ele><time>2026-03-26T19:02:38Z</time></trkpt><trkpt lat="40.43332054648341" lon="15.556914524531475"><ele>459.0</ele><time>2026-03-26T19:02:39Z</time></trkpt><trkpt lat="40.43309690258999" lon="15.557017786368034"><ele>459.5</ele><time>2026-03-26T19:02:40Z</time></trkpt><trkpt lat="40.43287528428679" lon="15.557122496517119"><ele>460.0</ele><time>2026-03-26T19:02:41Z</time></trkpt><trkpt lat="40.43265311009798" lon="15.557225433793182"><ele>460.0</ele><time>2026-03-26T19:02:42Z</time></trkpt><trkpt lat="40.432429957754245" lon="15.557330023968865"><ele>460.0</ele><time>2026-03-26T19:02:43Z</time></trkpt><trkpt lat="40.43220835869708" lon="15.557434528520524"><ele>462.0</ele><time>2026-03-26T19:02:44Z</time></trkpt><trkpt lat="40.43198882985561" lon="15.557539133512114"><ele>464.0</ele><time>2026-03-26T19:02:45Z</time></trkpt><trkpt lat="40.4317695456842" lon="15.557645175820532"><ele>464.0</ele><time>2026-03-26T19:02:46Z</time></trkpt><trkpt lat="40.43155157492856" lon="15.55775235429447"><ele>464.0</ele><time>2026-03-26T19:02:47Z</time></trkpt><trkpt lat="40.43133493356612" lon="15.557857814115165"><ele>465.5</ele><time>2026-03-26T19:02:48Z</time></trkpt><trkpt lat="40.43111645463391" lon="15.55796008892321"><ele>467.0</ele><time>2026-03-26T19:02:49Z</time></trkpt><trkpt lat="40.43089571553846" lon="15.558059687837838"><ele>467.0</ele><time>2026-03-26T19:02:50Z</time></trkpt><trkpt lat="40.43067808285131" lon="15.558155200171774"><ele>467.0</ele><time>2026-03-26T19:02:51Z</time></trkpt><trkpt lat="40.430461773622135" lon="15.558251166476225"><ele>467.5</ele><time>2026-03-26T19:02:52Z</time></trkpt><trkpt lat="40.43024704216311" lon="15.558342526467237"><ele>468.0</ele><time>2026-03-26T19:02:53Z</time></trkpt><trkpt lat="40.43003056939481" lon="15.558426066972192"><ele>468.0</ele><time>2026-03-26T19:02:54Z</time></trkpt><trkpt lat="40.42981347208363" lon="15.558508261685345"><ele>468.0</ele><time>2026-03-26T19:02:55Z</time></trkpt><trkpt lat="40.42959542945315" lon="15.558592044680312"><ele>468.0</ele><time>2026-03-26T19:02:56Z</time></trkpt><trkpt lat="40.42937526965803" lon="15.558666996220234"><ele>468.0</ele><time>2026-03-26T19:02:57Z</time></trkpt><trkpt lat="40.429154771237236" lon="15.558731331108064"><ele>468.33333333333337</ele><time>2026-03-26T19:02:58Z</time></trkpt><trkpt lat="40.42893420350012" lon="15.558786281361302"><ele>468.6666666666667</ele><time>2026-03-26T19:02:59Z</time></trkpt><trkpt lat="40.428714789975636" lon="15.558833687646748"><ele>469.0</ele><time>2026-03-26T19:03:00Z</time></trkpt><trkpt lat="40.42849570752056" lon="15.558875577902022"><ele>469.6666666666667</ele><time>2026-03-26T19:03:01Z</time></trkpt><trkpt lat="40.428278469847044" lon="15.558907347717772"><ele>470.33333333333337</ele><time>2026-03-26T19:03:02Z</time></trkpt><trkpt lat="40.42806103705759" lon="15.55893488929912"><ele>471.0</ele><time>2026-03-26T19:03:03Z</time></trkpt><trkpt lat="40.42784646838986" lon="15.558956193019593"><ele>471.0</ele><time>2026-03-26T19:03:04Z</time></trkpt><trkpt lat="40.42763316769187" lon="15.558971103803175"><ele>471.0</ele><time>2026-03-26T19:03:05Z</time></trkpt><trkpt lat="40.427421748344244" lon="15.558978481101834"><ele>471.0</ele><time>2026-03-26T19:03:06Z</time></trkpt><trkpt lat="40.427212053648624" lon="15.558974176514406"><ele>471.33333333333337</ele><time>2026-03-26T19:03:07Z</time></trkpt><trkpt lat="40.427002802099246" lon="15.558960901480267"><ele>471.6666666666667</ele><time>2026-03-26T19:03:08Z</time></trkpt><trkpt lat="40.42679405817226" lon="15.558941661012256"><ele>472.0</ele><time>2026-03-26T19:03:09Z</time></trkpt><trkpt lat="40.42658685905739" lon="15.558934768900498"><ele>472.0</ele><time>2026-03-26T19:03:10Z</time></trkpt><trkpt lat="40.426386330478344" lon="15.55893187170743"><ele>472.0</ele><time>2026-03-26T19:03:11Z</time></trkpt><trkpt lat="40.42619408294015" lon="15.558916393160397"><ele>472.0</ele><time>2026-03-26T19:03:12Z</time></trkpt><trkpt lat="40.42600470696008" lon="15.558906530729477"><ele>472.0</ele><time>2026-03-26T19:03:13Z</time></trkpt><trkpt lat="40.42581694173343" lon="15.558903577590813"><ele>472.0</ele><time>2026-03-26T19:03:14Z</time></trkpt><trkpt lat="40.42563095410849" lon="15.558903607837754"><ele>472.0</ele><time>2026-03-26T19:03:15Z</time></trkpt><trkpt lat="40.425449694895775" lon="15.558898673716568"><ele>471.6666666666667</ele><time>2026-03-26T19:03:16Z</time></trkpt><trkpt lat="40.42526832286049" lon="15.558890136963981"><ele>471.33333333333337</ele><time>2026-03-26T19:03:17Z</time></trkpt><trkpt lat="40.425086140010485" lon="15.558881376515124"><ele>471.0</ele><time>2026-03-26T19:03:18Z</time></trkpt><trkpt lat="40.42490493591161" lon="15.55887287043337"><ele>471.0</ele><time>2026-03-26T19:03:19Z</time></trkpt><trkpt lat="40.42473348739935" lon="15.558864710049578"><ele>471.0</ele><time>2026-03-26T19:03:20Z</time></trkpt><trkpt lat="40.424570920697825" lon="15.558859683089233"><ele>471.0</ele><time>2026-03-26T19:03:21Z</time></trkpt><trkpt lat="40.424422824547555" lon="15.558855684614976"><ele>471.5</ele><time>2026-03-26T19:03:22Z</time></trkpt><trkpt lat="40.42428358099285" lon="15.558847526702626"><ele>472.0</ele><time>2026-03-26T19:03:23Z</time></trkpt><trkpt lat="40.424160384951044" lon="15.558839861041116"><ele>472.5</ele><time>2026-03-26T19:03:24Z</time></trkpt><trkpt lat="40.42405147867118" lon="15.558834216987721"><ele>473.0</ele><time>2026-03-26T19:03:25Z</time></trkpt><trkpt lat="40.423950418282764" lon="15.558831470576374"><ele>472.99999999999994</ele><time>2026-03-26T19:03:26Z</time></trkpt><trkpt lat="40.42385715943065" lon="15.5588294654086"><ele>473.0</ele><time>2026-03-26T19:03:27Z</time></trkpt><trkpt lat="40.423771252409686" lon="15.558826932268522"><ele>473.0</ele><time>2026-03-26T19:03:28Z</time></trkpt><trkpt lat="40.42369375841098" lon="15.558825541172377"><ele>473.0</ele><time>2026-03-26T19:03:29Z</time></trkpt><trkpt lat="40.42362911566837" lon="15.558823579279693"><ele>472.99999999999994</ele><time>2026-03-26T19:03:30Z</time></trkpt><trkpt lat="40.42353704988281" lon="15.558822043221754"><ele>473.0</ele><time>2026-03-26T19:03:32Z</time></trkpt><trkpt lat="40.42347215675468" lon="15.558824629275504"><ele>473.16666666666663</ele><time>2026-03-26T19:03:34Z</time></trkpt><trkpt lat="40.42339325799482" lon="15.558823568745046"><ele>473.3333333333333</ele><time>2026-03-26T19:03:37Z</time></trkpt><trkpt lat="40.42332812230323" lon="15.55881825852586"><ele>473.5</ele><time>2026-03-26T19:03:39Z</time></trkpt><trkpt lat="40.423245287314366" lon="15.558802252647443"><ele>473.66666666666663</ele><time>2026-03-26T19:03:41Z</time></trkpt><trkpt lat="40.423114435638915" lon="15.558812337716498"><ele>473.8333333333333</ele><time>2026-03-26T19:03:43Z</time></trkpt><trkpt lat="40.42303821659103" lon="15.558818130722251"><ele>474.0</ele><time>2026-03-26T19:03:44Z</time></trkpt><trkpt lat="40.422957341072625" lon="15.55882738851919"><ele>474.0</ele><time>2026-03-26T19:03:45Z</time></trkpt><trkpt lat="40.42287278230643" lon="15.55883631903142"><ele>474.0</ele><time>2026-03-26T19:03:46Z</time></trkpt><trkpt lat="40.42279715652766" lon="15.55884712728219"><ele>474.0</ele><time>2026-03-26T19:03:47Z</time></trkpt><trkpt lat="40.422725944756436" lon="15.558856956364316"><ele>474.0</ele><time>2026-03-26T19:03:48Z</time></trkpt><trkpt lat="40.42266144522078" lon="15.558867714206048"><ele>474.0</ele><time>2026-03-26T19:03:49Z</time></trkpt><trkpt lat="40.42256298691608" lon="15.5588749497429"><ele>474.0</ele><time>2026-03-26T19:03:51Z</time></trkpt><trkpt lat="40.42248852112523" lon="15.558881840780357"><ele>474.0</ele><time>2026-03-26T19:03:53Z</time></trkpt><trkpt lat="40.422423658200756" lon="15.558883558776964"><ele>474.0</ele><time>2026-03-26T19:03:55Z</time></trkpt><trkpt lat="40.422332748760674" lon="15.558887615097326"><ele>474.0</ele><time>2026-03-26T19:03:57Z</time></trkpt><trkpt lat="40.422246949195696" lon="15.558895027144517"><ele>474.0</ele><time>2026-03-26T19:03:59Z</time></trkpt><trkpt lat="40.422152528507205" lon="15.558907185525262"><ele>474.0</ele><time>2026-03-26T19:04:01Z</time></trkpt><trkpt lat="40.4220530669698" lon="15.558921088548157"><ele>474.0</ele><time>2026-03-26T19:04:03Z</time></trkpt><trkpt lat="40.42196024836755" lon="15.558934260932514"><ele>473.4</ele><time>2026-03-26T19:04:05Z</time></trkpt><trkpt lat="40.42185055657598" lon="15.558951503157537"><ele>472.79999999999995</ele><time>2026-03-26T19:04:07Z</time></trkpt><trkpt lat="40.4217625005036" lon="15.558968598184551"><ele>472.20000000000005</ele><time>2026-03-26T19:04:09Z</time></trkpt><trkpt lat="40.42169825480713" lon="15.55897692177309"><ele>471.6</ele><time>2026-03-26T19:04:11Z</time></trkpt><trkpt lat="40.42160380099167" lon="15.558995942159779"><ele>471.0</ele><time>2026-03-26T19:04:14Z</time></trkpt><trkpt lat="40.42148497293765" lon="15.559017474909323"><ele>471.0</ele><time>2026-03-26T19:04:16Z</time></trkpt><trkpt lat="40.42141811240753" lon="15.559029321356087"><ele>471.0</ele><time>2026-03-26T19:04:17Z</time></trkpt><trkpt lat="40.42136045039786" lon="15.559062715510949"><ele>471.0</ele><time>2026-03-26T19:04:18Z</time></trkpt><trkpt lat="40.4212572666255" lon="15.559089279740933"><ele>471.0</ele><time>2026-03-26T19:04:20Z</time></trkpt><trkpt lat="40.421164168669975" lon="15.559048414750285"><ele>471.0</ele><time>2026-03-26T19:04:22Z</time></trkpt><trkpt lat="40.421072965532055" lon="15.55904337668392"><ele>471.0</ele><time>2026-03-26T19:04:24Z</time></trkpt><trkpt lat="40.42095942798192" lon="15.559026769095537"><ele>470.4</ele><time>2026-03-26T19:04:26Z</time></trkpt><trkpt lat="40.42084429630232" lon="15.558995630428411"><ele>469.8</ele><time>2026-03-26T19:04:28Z</time></trkpt><trkpt lat="40.42074017990436" lon="15.558962765680201"><ele>469.19999999999993</ele><time>2026-03-26T19:04:30Z</time></trkpt><trkpt lat="40.42062640401141" lon="15.558909756426887"><ele>468.59999999999997</ele><time>2026-03-26T19:04:32Z</time></trkpt><trkpt lat="40.420565768955925" lon="15.558876929584548"><ele>468.0</ele><time>2026-03-26T19:04:33Z</time></trkpt><trkpt lat="40.42050650301994" lon="15.55884099867268"><ele>467.1666666666667</ele><time>2026-03-26T19:04:34Z</time></trkpt><trkpt lat="40.42044629394841" lon="15.558803430057374"><ele>466.33333333333337</ele><time>2026-03-26T19:04:35Z</time></trkpt><trkpt lat="40.42038695481475" lon="15.558761211214318"><ele>465.5</ele><time>2026-03-26T19:04:36Z</time></trkpt><trkpt lat="40.420331930333575" lon="15.558716597488177"><ele>464.6666666666667</ele><time>2026-03-26T19:04:37Z</time></trkpt><trkpt lat="40.42024119391098" lon="15.558630333268127"><ele>463.83333333333337</ele><time>2026-03-26T19:04:39Z</time></trkpt><trkpt lat="40.42016675885575" lon="15.558544466279852"><ele>463.0</ele><time>2026-03-26T19:04:41Z</time></trkpt><trkpt lat="40.420094168103475" lon="15.558453576822078"><ele>462.59999999999997</ele><time>2026-03-26T19:04:43Z</time></trkpt><trkpt lat="40.42002927654662" lon="15.558359814014304"><ele>462.19999999999993</ele><time>2026-03-26T19:04:45Z</time></trkpt><trkpt lat="40.41997147025792" lon="15.558266336857747"><ele>461.8</ele><time>2026-03-26T19:04:47Z</time></trkpt><trkpt lat="40.41992015632515" lon="15.558167448450252"><ele>461.4</ele><time>2026-03-26T19:04:49Z</time></trkpt><trkpt lat="40.41987490027015" lon="15.558067861898502"><ele>461.0</ele><time>2026-03-26T19:04:51Z</time></trkpt><trkpt lat="40.419834012350485" lon="15.557973563337004"><ele>460.99999999999994</ele><time>2026-03-26T19:04:53Z</time></trkpt><trkpt lat="40.41979994518657" lon="15.557888110429712"><ele>461.0</ele><time>2026-03-26T19:04:55Z</time></trkpt><trkpt lat="40.41976166801247" lon="15.557786640237824"><ele>461.0</ele><time>2026-03-26T19:04:58Z</time></trkpt><trkpt lat="40.419738312672834" lon="15.557706237679701"><ele>461.0</ele><time>2026-03-26T19:05:03Z</time></trkpt><trkpt lat="40.41971269618858" lon="15.557613807377338"><ele>460.99999999999994</ele><time>2026-03-26T19:05:07Z</time></trkpt><trkpt lat="40.41968851608028" lon="15.557519349891916"><ele>461.0</ele><time>2026-03-26T19:05:11Z</time></trkpt><trkpt lat="40.41964758919789" lon="15.557434644754707"><ele>460.49999999999994</ele><time>2026-03-26T19:05:18Z</time></trkpt><trkpt lat="40.419602150473935" lon="15.557376255676129"><ele>460.0</ele><time>2026-03-26T19:05:22Z</time></trkpt><trkpt lat="40.419597876189826" lon="15.55727280884636"><ele>459.5</ele><time>2026-03-26T19:05:24Z</time></trkpt><trkpt lat="40.41958044962442" lon="15.557177540894598"><ele>459.0</ele><time>2026-03-26T19:05:26Z</time></trkpt><trkpt lat="40.41956597068448" lon="15.557091423299205"><ele>458.49999999999994</ele><time>2026-03-26T19:05:28Z</time></trkpt><trkpt lat="40.41955521970887" lon="15.556982221860643"><ele>458.0</ele><time>2026-03-26T19:05:31Z</time></trkpt><trkpt lat="40.41957524599152" lon="15.556864157033317"><ele>457.57142857142856</ele><time>2026-03-26T19:05:34Z</time></trkpt><trkpt lat="40.41958109040787" lon="15.55677962576159"><ele>457.14285714285717</ele><time>2026-03-26T19:05:36Z</time></trkpt><trkpt lat="40.419574738639646" lon="15.556695072488012"><ele>456.7142857142857</ele><time>2026-03-26T19:05:38Z</time></trkpt><trkpt lat="40.419545905032535" lon="15.556617096565644"><ele>456.2857142857143</ele><time>2026-03-26T19:05:40Z</time></trkpt><trkpt lat="40.41949678980573" lon="15.556554794986448"><ele>455.8571428571429</ele><time>2026-03-26T19:05:42Z</time></trkpt><trkpt lat="40.41943071435245" lon="15.556530338754202"><ele>455.42857142857144</ele><time>2026-03-26T19:05:44Z</time></trkpt><trkpt lat="40.41935487479534" lon="15.556543904401153"><ele>455.0</ele><time>2026-03-26T19:05:46Z</time></trkpt><trkpt lat="40.419295308698096" lon="15.556601895286168"><ele>455.0</ele><time>2026-03-26T19:05:48Z</time></trkpt><trkpt lat="40.41926592072141" lon="15.556695801151086"><ele>455.0</ele><time>2026-03-26T19:05:50Z</time></trkpt><trkpt lat="40.419273561317" lon="15.556806016887425"><ele>455.0</ele><time>2026-03-26T19:05:52Z</time></trkpt><trkpt lat="40.41933128591689" lon="15.556905948433165"><ele>455.0</ele><time>2026-03-26T19:05:54Z</time></trkpt><trkpt lat="40.41941462467447" lon="15.557003809036635"><ele>455.0</ele><time>2026-03-26T19:05:56Z</time></trkpt><trkpt lat="40.41948702618358" lon="15.55713878488389"><ele>455.6</ele><time>2026-03-26T19:05:58Z</time></trkpt><trkpt lat="40.419532544742204" lon="15.557207180966445"><ele>456.2</ele><time>2026-03-26T19:05:59Z</time></trkpt><trkpt lat="40.41953697109023" lon="15.557328271411007"><ele>456.79999999999995</ele><time>2026-03-26T19:06:00Z</time></trkpt><trkpt lat="40.419554275667025" lon="15.557443320709996"><ele>457.4</ele><time>2026-03-26T19:06:01Z</time></trkpt><trkpt lat="40.41957108727415" lon="15.55756941741083"><ele>458.0</ele><time>2026-03-26T19:06:02Z</time></trkpt><trkpt lat="40.41958559703161" lon="15.557703803430718"><ele>458.0</ele><time>2026-03-26T19:06:03Z</time></trkpt><trkpt lat="40.419596457808574" lon="15.557848854005275"><ele>458.0</ele><time>2026-03-26T19:06:04Z</time></trkpt><trkpt lat="40.419602445906555" lon="15.557998870055547"><ele>458.0</ele><time>2026-03-26T19:06:05Z</time></trkpt><trkpt lat="40.419600859927264" lon="15.558149267923882"><ele>458.0</ele><time>2026-03-26T19:06:06Z</time></trkpt><trkpt lat="40.41959093689241" lon="15.558304187144593"><ele>458.75</ele><time>2026-03-26T19:06:07Z</time></trkpt><trkpt lat="40.41956974295081" lon="15.558466254556453"><ele>459.5</ele><time>2026-03-26T19:06:08Z</time></trkpt><trkpt lat="40.419538459244585" lon="15.558636897118593"><ele>460.25</ele><time>2026-03-26T19:06:09Z</time></trkpt><trkpt lat="40.419495107233786" lon="15.558807128251726"><ele>461.0</ele><time>2026-03-26T19:06:10Z</time></trkpt><trkpt lat="40.41943941270466" lon="15.558980219715371"><ele>461.5</ele><time>2026-03-26T19:06:11Z</time></trkpt><trkpt lat="40.41937050237363" lon="15.559148280137823"><ele>462.0</ele><time>2026-03-26T19:06:12Z</time></trkpt><trkpt lat="40.41928789380742" lon="15.559307658299113"><ele>462.5</ele><time>2026-03-26T19:06:13Z</time></trkpt><trkpt lat="40.41919230381782" lon="15.559450755342276"><ele>463.0</ele><time>2026-03-26T19:06:14Z</time></trkpt><trkpt lat="40.41908855818558" lon="15.559576669621205"><ele>463.25</ele><time>2026-03-26T19:06:15Z</time></trkpt><trkpt lat="40.418975908973586" lon="15.55968631874997"><ele>463.5</ele><time>2026-03-26T19:06:16Z</time></trkpt><trkpt lat="40.41885442626111" lon="15.559784131462678"><ele>463.75</ele><time>2026-03-26T19:06:17Z</time></trkpt><trkpt lat="40.418722827543476" lon="15.559869591303233"><ele>464.0</ele><time>2026-03-26T19:06:18Z</time></trkpt><trkpt lat="40.418581203631604" lon="15.55994047443635"><ele>464.0</ele><time>2026-03-26T19:06:19Z</time></trkpt><trkpt lat="40.418429081421955" lon="15.56000211852727"><ele>464.0</ele><time>2026-03-26T19:06:20Z</time></trkpt><trkpt lat="40.41827032753526" lon="15.56006071561412"><ele>464.0</ele><time>2026-03-26T19:06:21Z</time></trkpt><trkpt lat="40.41810536233665" lon="15.560124073496219"><ele>462.3333333333333</ele><time>2026-03-26T19:06:22Z</time></trkpt><trkpt lat="40.41793277377338" lon="15.560188826634642"><ele>460.66666666666663</ele><time>2026-03-26T19:06:23Z</time></trkpt><trkpt lat="40.41775576157888" lon="15.560253091369415"><ele>459.0</ele><time>2026-03-26T19:06:24Z</time></trkpt><trkpt lat="40.41757534052948" lon="15.560319956904666"><ele>458.66666666666663</ele><time>2026-03-26T19:06:25Z</time></trkpt><trkpt lat="40.417389941939945" lon="15.560389506853449"><ele>458.3333333333333</ele><time>2026-03-26T19:06:26Z</time></trkpt><trkpt lat="40.417201165632285" lon="15.560455721474217"><ele>458.0</ele><time>2026-03-26T19:06:27Z</time></trkpt><trkpt lat="40.417007922294395" lon="15.560522934886558"><ele>458.0</ele><time>2026-03-26T19:06:28Z</time></trkpt><trkpt lat="40.41680934601507" lon="15.560592260261375"><ele>458.0</ele><time>2026-03-26T19:06:29Z</time></trkpt><trkpt lat="40.41660793583885" lon="15.560664139227612"><ele>458.0</ele><time>2026-03-26T19:06:30Z</time></trkpt><trkpt lat="40.416403624873325" lon="15.560735961336384"><ele>457.3333333333333</ele><time>2026-03-26T19:06:31Z</time></trkpt><trkpt lat="40.41619622621901" lon="15.560805059203327"><ele>456.66666666666663</ele><time>2026-03-26T19:06:32Z</time></trkpt><trkpt lat="40.4159844694966" lon="15.560878196660102"><ele>456.0</ele><time>2026-03-26T19:06:33Z</time></trkpt><trkpt lat="40.41577075535938" lon="15.560950910011437"><ele>456.0</ele><time>2026-03-26T19:06:34Z</time></trkpt><trkpt lat="40.4155547369518" lon="15.561023303283775"><ele>456.0</ele><time>2026-03-26T19:06:35Z</time></trkpt><trkpt lat="40.41533621087351" lon="15.56109847864602"><ele>456.0</ele><time>2026-03-26T19:06:36Z</time></trkpt><trkpt lat="40.41511980023567" lon="15.561175493020318"><ele>456.5</ele><time>2026-03-26T19:06:37Z</time></trkpt><trkpt lat="40.41490044601483" lon="15.561252073698752"><ele>457.0</ele><time>2026-03-26T19:06:38Z</time></trkpt><trkpt lat="40.41468132365404" lon="15.561333457405231"><ele>456.0</ele><time>2026-03-26T19:06:39Z</time></trkpt><trkpt lat="40.414461948474965" lon="15.561418870482017"><ele>455.0</ele><time>2026-03-26T19:06:40Z</time></trkpt><trkpt lat="40.41424693013581" lon="15.561511286873593"><ele>455.0</ele><time>2026-03-26T19:06:41Z</time></trkpt><trkpt lat="40.41403737665232" lon="15.561613231425905"><ele>455.0</ele><time>2026-03-26T19:06:42Z</time></trkpt><trkpt lat="40.41383343255335" lon="15.561718979839764"><ele>455.0</ele><time>2026-03-26T19:06:43Z</time></trkpt><trkpt lat="40.41363356318241" lon="15.561829714660492"><ele>455.0</ele><time>2026-03-26T19:06:44Z</time></trkpt><trkpt lat="40.41343677048261" lon="15.56194529303356"><ele>455.0</ele><time>2026-03-26T19:06:45Z</time></trkpt><trkpt lat="40.41324130675904" lon="15.562064601658554"><ele>455.0</ele><time>2026-03-26T19:06:46Z</time></trkpt><trkpt lat="40.41304630889733" lon="15.562189038006474"><ele>455.0</ele><time>2026-03-26T19:06:47Z</time></trkpt><trkpt lat="40.41285048204675" lon="15.562316244576904"><ele>455.0</ele><time>2026-03-26T19:06:48Z</time></trkpt><trkpt lat="40.41265697213759" lon="15.5624413965228"><ele>455.0</ele><time>2026-03-26T19:06:49Z</time></trkpt><trkpt lat="40.41246837713698" lon="15.562563142329406"><ele>455.0</ele><time>2026-03-26T19:06:50Z</time></trkpt><trkpt lat="40.412280852707156" lon="15.56268286707551"><ele>455.0</ele><time>2026-03-26T19:06:51Z</time></trkpt><trkpt lat="40.412095579226545" lon="15.562806624046978"><ele>455.0</ele><time>2026-03-26T19:06:52Z</time></trkpt><trkpt lat="40.41191219071335" lon="15.56294022173964"><ele>454.0</ele><time>2026-03-26T19:06:53Z</time></trkpt><trkpt lat="40.41172952897737" lon="15.563087720606957"><ele>453.0</ele><time>2026-03-26T19:06:54Z</time></trkpt><trkpt lat="40.41154872480295" lon="15.563254187488699"><ele>452.0</ele><time>2026-03-26T19:06:55Z</time></trkpt><trkpt lat="40.411369106824054" lon="15.563411616186276"><ele>452.0</ele><time>2026-03-26T19:06:56Z</time></trkpt><trkpt lat="40.411199081717456" lon="15.563576579152906"><ele>452.0</ele><time>2026-03-26T19:06:57Z</time></trkpt><trkpt lat="40.41102773561883" lon="15.563746845467483"><ele>452.0</ele><time>2026-03-26T19:06:58Z</time></trkpt><trkpt lat="40.41085951827134" lon="15.563922701422127"><ele>452.0</ele><time>2026-03-26T19:06:59Z</time></trkpt><trkpt lat="40.41069341463104" lon="15.564108442290271"><ele>452.0</ele><time>2026-03-26T19:07:00Z</time></trkpt><trkpt lat="40.41053028726366" lon="15.564299050407623"><ele>452.0</ele><time>2026-03-26T19:07:01Z</time></trkpt><trkpt lat="40.410369119669" lon="15.564492595338468"><ele>451.3333333333333</ele><time>2026-03-26T19:07:02Z</time></trkpt><trkpt lat="40.410209593411686" lon="15.564687076808765"><ele>450.66666666666663</ele><time>2026-03-26T19:07:03Z</time></trkpt><trkpt lat="40.41005173508927" lon="15.564889770528339"><ele>450.0</ele><time>2026-03-26T19:07:04Z</time></trkpt><trkpt lat="40.4098980680226" lon="15.565098323877708"><ele>450.0</ele><time>2026-03-26T19:07:05Z</time></trkpt><trkpt lat="40.409749716242516" lon="15.565317618597332"><ele>450.0</ele><time>2026-03-26T19:07:06Z</time></trkpt><trkpt lat="40.409608220800365" lon="15.565545785132935"><ele>450.0</ele><time>2026-03-26T19:07:07Z</time></trkpt><trkpt lat="40.4094724487281" lon="15.565778460403985"><ele>449.5</ele><time>2026-03-26T19:07:08Z</time></trkpt><trkpt lat="40.40933999155422" lon="15.566017472043425"><ele>449.0</ele><time>2026-03-26T19:07:09Z</time></trkpt><trkpt lat="40.40921043020224" lon="15.5662614444071"><ele>449.0</ele><time>2026-03-26T19:07:10Z</time></trkpt><trkpt lat="40.40908133401764" lon="15.56650863391499"><ele>449.0</ele><time>2026-03-26T19:07:11Z</time></trkpt><trkpt lat="40.408952881190416" lon="15.566754998584626"><ele>449.0</ele><time>2026-03-26T19:07:12Z</time></trkpt><trkpt lat="40.40882762261058" lon="15.567005206236699"><ele>449.0</ele><time>2026-03-26T19:07:13Z</time></trkpt><trkpt lat="40.4087032872188" lon="15.56725552814344"><ele>448.0</ele><time>2026-03-26T19:07:14Z</time></trkpt><trkpt lat="40.40857527771413" lon="15.56750476150612"><ele>447.0</ele><time>2026-03-26T19:07:15Z</time></trkpt><trkpt lat="40.40845223186077" lon="15.567755538488882"><ele>447.0</ele><time>2026-03-26T19:07:16Z</time></trkpt><trkpt lat="40.40832760480538" lon="15.568008950800824"><ele>447.0</ele><time>2026-03-26T19:07:17Z</time></trkpt><trkpt lat="40.40820410167076" lon="15.568262478084405"><ele>447.0</ele><time>2026-03-26T19:07:18Z</time></trkpt><trkpt lat="40.408077425220526" lon="15.568516314240945"><ele>447.0</ele><time>2026-03-26T19:07:19Z</time></trkpt><trkpt lat="40.407949654811205" lon="15.568768812218105"><ele>447.0</ele><time>2026-03-26T19:07:20Z</time></trkpt><trkpt lat="40.40782137835289" lon="15.569021450574505"><ele>447.0</ele><time>2026-03-26T19:07:21Z</time></trkpt><trkpt lat="40.40769265051035" lon="15.569276565971714"><ele>447.0</ele><time>2026-03-26T19:07:22Z</time></trkpt><trkpt lat="40.40756233608871" lon="15.56953368266482"><ele>447.0</ele><time>2026-03-26T19:07:23Z</time></trkpt><trkpt lat="40.40743148530327" lon="15.56979010756805"><ele>447.0</ele><time>2026-03-26T19:07:24Z</time></trkpt><trkpt lat="40.4072976425992" lon="15.57004642628849"><ele>447.0</ele><time>2026-03-26T19:07:25Z</time></trkpt><trkpt lat="40.407160646226004" lon="15.570302330063548"><ele>447.0</ele><time>2026-03-26T19:07:26Z</time></trkpt><trkpt lat="40.407023540963436" lon="15.570557662013504"><ele>447.0</ele><time>2026-03-26T19:07:27Z</time></trkpt><trkpt lat="40.406883991141314" lon="15.570805626706715"><ele>447.0</ele><time>2026-03-26T19:07:28Z</time></trkpt><trkpt lat="40.406740681544335" lon="15.571051761874267"><ele>447.0</ele><time>2026-03-26T19:07:29Z</time></trkpt><trkpt lat="40.40659680285997" lon="15.571291689294956"><ele>447.0</ele><time>2026-03-26T19:07:30Z</time></trkpt><trkpt lat="40.406450416712666" lon="15.571527790425383"><ele>447.0</ele><time>2026-03-26T19:07:31Z</time></trkpt><trkpt lat="40.406302191313856" lon="15.571757766226254"><ele>447.0</ele><time>2026-03-26T19:07:32Z</time></trkpt><trkpt lat="40.406152913158564" lon="15.571980571531787"><ele>447.0</ele><time>2026-03-26T19:07:33Z</time></trkpt><trkpt lat="40.40600326836505" lon="15.572199471680001"><ele>447.0</ele><time>2026-03-26T19:07:34Z</time></trkpt><trkpt lat="40.40585403526453" lon="15.572413376450209"><ele>447.0</ele><time>2026-03-26T19:07:35Z</time></trkpt><trkpt lat="40.40570479430537" lon="15.572624782923269"><ele>447.0</ele><time>2026-03-26T19:07:36Z</time></trkpt><trkpt lat="40.40555811095155" lon="15.572835880800149"><ele>447.33333333333337</ele><time>2026-03-26T19:07:37Z</time></trkpt><trkpt lat="40.40540831025334" lon="15.57304642587909"><ele>447.6666666666667</ele><time>2026-03-26T19:07:38Z</time></trkpt><trkpt lat="40.40526481344414" lon="15.573253497722433"><ele>448.0</ele><time>2026-03-26T19:07:39Z</time></trkpt><trkpt lat="40.405122848395784" lon="15.573457956353144"><ele>448.0</ele><time>2026-03-26T19:07:40Z</time></trkpt><trkpt lat="40.4049793278137" lon="15.573665659728656"><ele>448.0</ele><time>2026-03-26T19:07:41Z</time></trkpt><trkpt lat="40.404836126297205" lon="15.573875746513824"><ele>448.0</ele><time>2026-03-26T19:07:42Z</time></trkpt><trkpt lat="40.40468802841368" lon="15.574087603227738"><ele>448.0</ele><time>2026-03-26T19:07:43Z</time></trkpt><trkpt lat="40.40453638799053" lon="15.574298971081863"><ele>448.0</ele><time>2026-03-26T19:07:44Z</time></trkpt><trkpt lat="40.40438437081413" lon="15.574509420445544"><ele>448.0</ele><time>2026-03-26T19:07:45Z</time></trkpt><trkpt lat="40.40422935388116" lon="15.574726641701536"><ele>447.5</ele><time>2026-03-26T19:07:46Z</time></trkpt><trkpt lat="40.40407106395971" lon="15.574952436488475"><ele>447.0</ele><time>2026-03-26T19:07:47Z</time></trkpt><trkpt lat="40.40391136965709" lon="15.575184661007196"><ele>447.5</ele><time>2026-03-26T19:07:48Z</time></trkpt><trkpt lat="40.40374842354794" lon="15.575418962859676"><ele>448.0</ele><time>2026-03-26T19:07:49Z</time></trkpt><trkpt lat="40.403582221753936" lon="15.575656200908544"><ele>448.0</ele><time>2026-03-26T19:07:50Z</time></trkpt><trkpt lat="40.40341049305791" lon="15.575892754275372"><ele>448.0</ele><time>2026-03-26T19:07:51Z</time></trkpt><trkpt lat="40.40323391457272" lon="15.576125865396614"><ele>448.0</ele><time>2026-03-26T19:07:52Z</time></trkpt><trkpt lat="40.40305624986723" lon="15.576360385406675"><ele>448.0</ele><time>2026-03-26T19:07:53Z</time></trkpt><trkpt lat="40.40287440671168" lon="15.576594354218127"><ele>448.0</ele><time>2026-03-26T19:07:54Z</time></trkpt><trkpt lat="40.402687039072674" lon="15.576830338523537"><ele>448.0</ele><time>2026-03-26T19:07:55Z</time></trkpt><trkpt lat="40.402495476109166" lon="15.577058735320747"><ele>448.0</ele><time>2026-03-26T19:07:56Z</time></trkpt><trkpt lat="40.40230133419447" lon="15.577285506544404"><ele>448.0</ele><time>2026-03-26T19:07:57Z</time></trkpt><trkpt lat="40.40210631549026" lon="15.577506863565679"><ele>448.0</ele><time>2026-03-26T19:07:58Z</time></trkpt><trkpt lat="40.401905336548936" lon="15.57772061381504"><ele>448.0</ele><time>2026-03-26T19:07:59Z</time></trkpt><trkpt lat="40.40170159280259" lon="15.577927113722362"><ele>448.0</ele><time>2026-03-26T19:08:00Z</time></trkpt><trkpt lat="40.401494520807944" lon="15.578130717678775"><ele>448.0</ele><time>2026-03-26T19:08:01Z</time></trkpt><trkpt lat="40.4012870228921" lon="15.578329759698965"><ele>448.5</ele><time>2026-03-26T19:08:02Z</time></trkpt><trkpt lat="40.40107533746844" lon="15.578525024525637"><ele>449.0</ele><time>2026-03-26T19:08:03Z</time></trkpt><trkpt lat="40.4008600366881" lon="15.57871428805865"><ele>449.0</ele><time>2026-03-26T19:08:04Z</time></trkpt><trkpt lat="40.40064170684432" lon="15.57889851575827"><ele>449.0</ele><time>2026-03-26T19:08:05Z</time></trkpt><trkpt lat="40.40042225180896" lon="15.579072875826231"><ele>449.0</ele><time>2026-03-26T19:08:06Z</time></trkpt><trkpt lat="40.40019982083854" lon="15.579245183502463"><ele>449.0</ele><time>2026-03-26T19:08:07Z</time></trkpt><trkpt lat="40.39997638929821" lon="15.579412154828484"><ele>448.5</ele><time>2026-03-26T19:08:08Z</time></trkpt><trkpt lat="40.399750843720504" lon="15.579575807852601"><ele>448.0</ele><time>2026-03-26T19:08:09Z</time></trkpt><trkpt lat="40.3995213280352" lon="15.57974080785046"><ele>449.0</ele><time>2026-03-26T19:08:10Z</time></trkpt><trkpt lat="40.399291508721255" lon="15.579905962710201"><ele>450.0</ele><time>2026-03-26T19:08:11Z</time></trkpt><trkpt lat="40.39906125699798" lon="15.580073714510949"><ele>451.0</ele><time>2026-03-26T19:08:12Z</time></trkpt><trkpt lat="40.39883247054349" lon="15.580245390505079"><ele>452.0</ele><time>2026-03-26T19:08:13Z</time></trkpt><trkpt lat="40.39860342055607" lon="15.580416243361778"><ele>452.0</ele><time>2026-03-26T19:08:14Z</time></trkpt><trkpt lat="40.398373705880346" lon="15.580587151632473"><ele>452.0</ele><time>2026-03-26T19:08:15Z</time></trkpt><trkpt lat="40.398144901381905" lon="15.58075402161848"><ele>451.0</ele><time>2026-03-26T19:08:16Z</time></trkpt><trkpt lat="40.39791678348216" lon="15.580921299112678"><ele>450.0</ele><time>2026-03-26T19:08:17Z</time></trkpt><trkpt lat="40.39769173673912" lon="15.58109063045894"><ele>451.5</ele><time>2026-03-26T19:08:18Z</time></trkpt><trkpt lat="40.39746738772" lon="15.581257962630923"><ele>453.0</ele><time>2026-03-26T19:08:19Z</time></trkpt><trkpt lat="40.39724607299978" lon="15.58142515449416"><ele>452.0</ele><time>2026-03-26T19:08:20Z</time></trkpt><trkpt lat="40.397024767017776" lon="15.581590619217124"><ele>451.0</ele><time>2026-03-26T19:08:21Z</time></trkpt><trkpt lat="40.39681003194495" lon="15.581763955720172"><ele>451.0</ele><time>2026-03-26T19:08:22Z</time></trkpt><trkpt lat="40.3965941413379" lon="15.581926939026937"><ele>451.0</ele><time>2026-03-26T19:08:23Z</time></trkpt><trkpt lat="40.39637838506213" lon="15.58208732944607"><ele>450.0</ele><time>2026-03-26T19:08:24Z</time></trkpt><trkpt lat="40.3961631158935" lon="15.582248627521283"><ele>449.0</ele><time>2026-03-26T19:08:25Z</time></trkpt><trkpt lat="40.39594875232291" lon="15.582412781814996"><ele>449.0</ele><time>2026-03-26T19:08:26Z</time></trkpt><trkpt lat="40.39573515088194" lon="15.582578672099482"><ele>449.0</ele><time>2026-03-26T19:08:27Z</time></trkpt><trkpt lat="40.3955212417388" lon="15.582745683084392"><ele>448.5</ele><time>2026-03-26T19:08:28Z</time></trkpt><trkpt lat="40.39530784523935" lon="15.582913953002295"><ele>448.0</ele><time>2026-03-26T19:08:29Z</time></trkpt><trkpt lat="40.39509413863297" lon="15.583082601444652"><ele>448.0</ele><time>2026-03-26T19:08:30Z</time></trkpt><trkpt lat="40.3948792219011" lon="15.583252568180608"><ele>448.0</ele><time>2026-03-26T19:08:31Z</time></trkpt><trkpt lat="40.39466188158706" lon="15.583421772408213"><ele>448.0</ele><time>2026-03-26T19:08:32Z</time></trkpt><trkpt lat="40.394441833944605" lon="15.583589482122015"><ele>448.0</ele><time>2026-03-26T19:08:33Z</time></trkpt><trkpt lat="40.39422108465791" lon="15.583756520522288"><ele>448.0</ele><time>2026-03-26T19:08:34Z</time></trkpt><trkpt lat="40.394000800333465" lon="15.583922459663397"><ele>448.0</ele><time>2026-03-26T19:08:35Z</time></trkpt><trkpt lat="40.39377973205717" lon="15.58408676541065"><ele>448.5</ele><time>2026-03-26T19:08:36Z</time></trkpt><trkpt lat="40.39355876803182" lon="15.584252089405348"><ele>449.0</ele><time>2026-03-26T19:08:37Z</time></trkpt><trkpt lat="40.39333591677584" lon="15.584416945203051"><ele>449.0</ele><time>2026-03-26T19:08:38Z</time></trkpt><trkpt lat="40.39311399177946" lon="15.584584384955436"><ele>449.0</ele><time>2026-03-26T19:08:39Z</time></trkpt><trkpt lat="40.392893644609394" lon="15.584751636508978"><ele>448.0</ele><time>2026-03-26T19:08:40Z</time></trkpt><trkpt lat="40.39267271414533" lon="15.584921194507395"><ele>447.0</ele><time>2026-03-26T19:08:41Z</time></trkpt><trkpt lat="40.39245280202704" lon="15.585089401864137"><ele>447.0</ele><time>2026-03-26T19:08:42Z</time></trkpt><trkpt lat="40.392232026403285" lon="15.585255556728448"><ele>447.0</ele><time>2026-03-26T19:08:43Z</time></trkpt><trkpt lat="40.39201059518795" lon="15.585421282890195"><ele>448.0</ele><time>2026-03-26T19:08:44Z</time></trkpt><trkpt lat="40.391787705022686" lon="15.585588470820579"><ele>449.0</ele><time>2026-03-26T19:08:45Z</time></trkpt><trkpt lat="40.39156378949567" lon="15.585759366417086"><ele>449.0</ele><time>2026-03-26T19:08:46Z</time></trkpt><trkpt lat="40.391341528552985" lon="15.585931237839095"><ele>449.0</ele><time>2026-03-26T19:08:47Z</time></trkpt><trkpt lat="40.39111913294212" lon="15.586101413057303"><ele>450.0</ele><time>2026-03-26T19:08:48Z</time></trkpt><trkpt lat="40.390896229627" lon="15.586272415614541"><ele>451.0</ele><time>2026-03-26T19:08:49Z</time></trkpt><trkpt lat="40.39067656810908" lon="15.586443836202161"><ele>450.0</ele><time>2026-03-26T19:08:50Z</time></trkpt><trkpt lat="40.39045651158117" lon="15.586616695710251"><ele>449.0</ele><time>2026-03-26T19:08:51Z</time></trkpt><trkpt lat="40.39024135842421" lon="15.586791154370982"><ele>449.0</ele><time>2026-03-26T19:08:52Z</time></trkpt><trkpt lat="40.39002988635923" lon="15.586963585162726"><ele>449.0</ele><time>2026-03-26T19:08:53Z</time></trkpt><trkpt lat="40.389819715712825" lon="15.58713153767752"><ele>449.0</ele><time>2026-03-26T19:08:54Z</time></trkpt><trkpt lat="40.389612230209394" lon="15.587305224185238"><ele>449.0</ele><time>2026-03-26T19:08:55Z</time></trkpt><trkpt lat="40.38940587371087" lon="15.587473410100989"><ele>449.0</ele><time>2026-03-26T19:08:56Z</time></trkpt><trkpt lat="40.38919902219226" lon="15.58764111346941"><ele>449.0</ele><time>2026-03-26T19:08:57Z</time></trkpt><trkpt lat="40.38899400092693" lon="15.587808356114166"><ele>450.0</ele><time>2026-03-26T19:08:58Z</time></trkpt><trkpt lat="40.388786474924835" lon="15.587974041420775"><ele>451.0</ele><time>2026-03-26T19:08:59Z</time></trkpt><trkpt lat="40.38858118440197" lon="15.588146799784912"><ele>451.0</ele><time>2026-03-26T19:09:00Z</time></trkpt><trkpt lat="40.388373904597884" lon="15.588317152767187"><ele>451.0</ele><time>2026-03-26T19:09:01Z</time></trkpt><trkpt lat="40.388164944215475" lon="15.588487698751436"><ele>450.5</ele><time>2026-03-26T19:09:02Z</time></trkpt><trkpt lat="40.38795599154513" lon="15.5886588338883"><ele>450.0</ele><time>2026-03-26T19:09:03Z</time></trkpt><trkpt lat="40.387746021118396" lon="15.58882972971231"><ele>449.5</ele><time>2026-03-26T19:09:04Z</time></trkpt><trkpt lat="40.38753555338662" lon="15.589001203951101"><ele>449.0</ele><time>2026-03-26T19:09:05Z</time></trkpt><trkpt lat="40.38732501106984" lon="15.589168024239964"><ele>449.0</ele><time>2026-03-26T19:09:06Z</time></trkpt><trkpt lat="40.387114314570404" lon="15.589338772645835"><ele>449.0</ele><time>2026-03-26T19:09:07Z</time></trkpt><trkpt lat="40.386906505725186" lon="15.589510954024224"><ele>450.0</ele><time>2026-03-26T19:09:08Z</time></trkpt><trkpt lat="40.38670128682906" lon="15.589681797754377"><ele>451.0</ele><time>2026-03-26T19:09:09Z</time></trkpt><trkpt lat="40.386494828547804" lon="15.589850974323623"><ele>450.0</ele><time>2026-03-26T19:09:10Z</time></trkpt><trkpt lat="40.38628838359706" lon="15.590018551769418"><ele>449.0</ele><time>2026-03-26T19:09:11Z</time></trkpt><trkpt lat="40.38608229293219" lon="15.590185173391053"><ele>449.0</ele><time>2026-03-26T19:09:12Z</time></trkpt><trkpt lat="40.38587958774246" lon="15.590350414837385"><ele>449.0</ele><time>2026-03-26T19:09:13Z</time></trkpt><trkpt lat="40.385678605345646" lon="15.590508592209112"><ele>450.5</ele><time>2026-03-26T19:09:14Z</time></trkpt><trkpt lat="40.38548009587227" lon="15.590669325885685"><ele>452.0</ele><time>2026-03-26T19:09:15Z</time></trkpt><trkpt lat="40.38528147567201" lon="15.590826540345608"><ele>452.0</ele><time>2026-03-26T19:09:16Z</time></trkpt><trkpt lat="40.38508435138719" lon="15.590985913983776"><ele>452.0</ele><time>2026-03-26T19:09:17Z</time></trkpt><trkpt lat="40.38488833437777" lon="15.591145447001903"><ele>451.5</ele><time>2026-03-26T19:09:18Z</time></trkpt><trkpt lat="40.384692617975446" lon="15.591302900367316"><ele>451.0</ele><time>2026-03-26T19:09:19Z</time></trkpt><trkpt lat="40.38449824580783" lon="15.59146153653931"><ele>451.0</ele><time>2026-03-26T19:09:20Z</time></trkpt><trkpt lat="40.38430376484474" lon="15.591620926600646"><ele>451.0</ele><time>2026-03-26T19:09:21Z</time></trkpt><trkpt lat="40.38410849506887" lon="15.591780869633148"><ele>451.0</ele><time>2026-03-26T19:09:22Z</time></trkpt><trkpt lat="40.383912308143195" lon="15.591942449537378"><ele>451.0</ele><time>2026-03-26T19:09:23Z</time></trkpt><trkpt lat="40.38371202934616" lon="15.592099203017186"><ele>451.0</ele><time>2026-03-26T19:09:24Z</time></trkpt><trkpt lat="40.383512229000225" lon="15.592258688556935"><ele>451.0</ele><time>2026-03-26T19:09:25Z</time></trkpt><trkpt lat="40.38331072905501" lon="15.592416563537318"><ele>451.0</ele><time>2026-03-26T19:09:26Z</time></trkpt><trkpt lat="40.383111011353826" lon="15.592580124496918"><ele>451.0</ele><time>2026-03-26T19:09:27Z</time></trkpt><trkpt lat="40.38291334486489" lon="15.592746030225685"><ele>451.0</ele><time>2026-03-26T19:09:28Z</time></trkpt><trkpt lat="40.38271483956685" lon="15.59290850053654"><ele>451.0</ele><time>2026-03-26T19:09:29Z</time></trkpt><trkpt lat="40.38251361195096" lon="15.59307191645839"><ele>451.0</ele><time>2026-03-26T19:09:30Z</time></trkpt><trkpt lat="40.38231019065086" lon="15.593236035860631"><ele>451.0</ele><time>2026-03-26T19:09:31Z</time></trkpt><trkpt lat="40.38210474002809" lon="15.593400226835525"><ele>451.5</ele><time>2026-03-26T19:09:32Z</time></trkpt><trkpt lat="40.381895281679675" lon="15.59355839571018"><ele>452.0</ele><time>2026-03-26T19:09:33Z</time></trkpt><trkpt lat="40.38168156048541" lon="15.593716782574328"><ele>452.5</ele><time>2026-03-26T19:09:34Z</time></trkpt><trkpt lat="40.38146522831346" lon="15.593871673948957"><ele>453.0</ele><time>2026-03-26T19:09:35Z</time></trkpt><trkpt lat="40.381246658450685" lon="15.59402533118202"><ele>452.0</ele><time>2026-03-26T19:09:36Z</time></trkpt><trkpt lat="40.38102962571759" lon="15.5941828837991"><ele>451.0</ele><time>2026-03-26T19:09:37Z</time></trkpt><trkpt lat="40.38081172533856" lon="15.594339504660216"><ele>451.0</ele><time>2026-03-26T19:09:38Z</time></trkpt><trkpt lat="40.380595356728605" lon="15.594496080923477"><ele>451.0</ele><time>2026-03-26T19:09:39Z</time></trkpt><trkpt lat="40.38037839453646" lon="15.59465140501794"><ele>451.5</ele><time>2026-03-26T19:09:40Z</time></trkpt><trkpt lat="40.380162405574076" lon="15.594807641280454"><ele>452.0</ele><time>2026-03-26T19:09:41Z</time></trkpt><trkpt lat="40.37994615140219" lon="15.594966059410083"><ele>452.0</ele><time>2026-03-26T19:09:42Z</time></trkpt><trkpt lat="40.379729559340916" lon="15.595123884344698"><ele>452.0</ele><time>2026-03-26T19:09:43Z</time></trkpt><trkpt lat="40.37951509897133" lon="15.595283014235383"><ele>452.5</ele><time>2026-03-26T19:09:44Z</time></trkpt><trkpt lat="40.37929997135337" lon="15.595438538511575"><ele>453.0</ele><time>2026-03-26T19:09:45Z</time></trkpt><trkpt lat="40.37908134471271" lon="15.59559571172127"><ele>453.0</ele><time>2026-03-26T19:09:46Z</time></trkpt><trkpt lat="40.37886336807903" lon="15.595754823838957"><ele>453.0</ele><time>2026-03-26T19:09:47Z</time></trkpt><trkpt lat="40.37864750276093" lon="15.595916345440854"><ele>452.5</ele><time>2026-03-26T19:09:48Z</time></trkpt><trkpt lat="40.37843053358879" lon="15.596078350113288"><ele>452.0</ele><time>2026-03-26T19:09:49Z</time></trkpt><trkpt lat="40.378213495765614" lon="15.596236440188518"><ele>452.0</ele><time>2026-03-26T19:09:50Z</time></trkpt><trkpt lat="40.3779966847877" lon="15.596396998730471"><ele>452.0</ele><time>2026-03-26T19:09:51Z</time></trkpt><trkpt lat="40.377780373370065" lon="15.596553971290993"><ele>452.0</ele><time>2026-03-26T19:09:52Z</time></trkpt><trkpt lat="40.37756505809399" lon="15.59670960838568"><ele>452.0</ele><time>2026-03-26T19:09:53Z</time></trkpt><trkpt lat="40.37735066151712" lon="15.596865775487984"><ele>452.0</ele><time>2026-03-26T19:09:54Z</time></trkpt><trkpt lat="40.377138401279225" lon="15.597022887795129"><ele>452.0</ele><time>2026-03-26T19:09:55Z</time></trkpt><trkpt lat="40.37692464802607" lon="15.597177393618935"><ele>452.0</ele><time>2026-03-26T19:09:56Z</time></trkpt><trkpt lat="40.37671366096188" lon="15.59733494030666"><ele>452.0</ele><time>2026-03-26T19:09:57Z</time></trkpt><trkpt lat="40.37650461866438" lon="15.597493136414748"><ele>451.0</ele><time>2026-03-26T19:09:58Z</time></trkpt><trkpt lat="40.37629531579183" lon="15.597649278979087"><ele>450.0</ele><time>2026-03-26T19:09:59Z</time></trkpt><trkpt lat="40.376085275384945" lon="15.59780221388849"><ele>450.5</ele><time>2026-03-26T19:10:00Z</time></trkpt><trkpt lat="40.37587492285309" lon="15.597946522752336"><ele>451.0</ele><time>2026-03-26T19:10:01Z</time></trkpt><trkpt lat="40.37566688706531" lon="15.598099101087056"><ele>451.5</ele><time>2026-03-26T19:10:02Z</time></trkpt><trkpt lat="40.37545760217742" lon="15.598249583794972"><ele>452.0</ele><time>2026-03-26T19:10:03Z</time></trkpt><trkpt lat="40.375246540541525" lon="15.598394245772988"><ele>452.0</ele><time>2026-03-26T19:10:04Z</time></trkpt><trkpt lat="40.375035302002416" lon="15.598535976151796"><ele>452.0</ele><time>2026-03-26T19:10:05Z</time></trkpt><trkpt lat="40.37482324988519" lon="15.598672566183305"><ele>451.5</ele><time>2026-03-26T19:10:06Z</time></trkpt><trkpt lat="40.3746094059856" lon="15.598803303931124"><ele>451.0</ele><time>2026-03-26T19:10:07Z</time></trkpt><trkpt lat="40.3743946045336" lon="15.598928685884703"><ele>451.0</ele><time>2026-03-26T19:10:08Z</time></trkpt><trkpt lat="40.37418013821852" lon="15.599055613688519"><ele>451.0</ele><time>2026-03-26T19:10:09Z</time></trkpt><trkpt lat="40.37396620132751" lon="15.599178839387921"><ele>451.5</ele><time>2026-03-26T19:10:10Z</time></trkpt><trkpt lat="40.373752708873695" lon="15.59929724164996"><ele>452.0</ele><time>2026-03-26T19:10:11Z</time></trkpt><trkpt lat="40.37353934240689" lon="15.59941119612568"><ele>452.0</ele><time>2026-03-26T19:10:12Z</time></trkpt><trkpt lat="40.373325948173125" lon="15.599520437702163"><ele>452.0</ele><time>2026-03-26T19:10:13Z</time></trkpt><trkpt lat="40.37311220352506" lon="15.599622943115081"><ele>452.0</ele><time>2026-03-26T19:10:14Z</time></trkpt><trkpt lat="40.37289652289371" lon="15.599723799008917"><ele>452.0</ele><time>2026-03-26T19:10:15Z</time></trkpt><trkpt lat="40.3726770912275" lon="15.599818922889147"><ele>452.0</ele><time>2026-03-26T19:10:16Z</time></trkpt><trkpt lat="40.372458040733065" lon="15.599914036169265"><ele>452.0</ele><time>2026-03-26T19:10:17Z</time></trkpt><trkpt lat="40.372237210937925" lon="15.600008694654834"><ele>453.0</ele><time>2026-03-26T19:10:18Z</time></trkpt><trkpt lat="40.37201654062225" lon="15.600106648371257"><ele>454.0</ele><time>2026-03-26T19:10:19Z</time></trkpt><trkpt lat="40.37179481537531" lon="15.600204604570203"><ele>454.0</ele><time>2026-03-26T19:10:20Z</time></trkpt><trkpt lat="40.37157256172846" lon="15.600301014980708"><ele>454.0</ele><time>2026-03-26T19:10:21Z</time></trkpt><trkpt lat="40.37135018696586" lon="15.600397785717695"><ele>454.5</ele><time>2026-03-26T19:10:22Z</time></trkpt><trkpt lat="40.37112626290555" lon="15.600494886483943"><ele>455.0</ele><time>2026-03-26T19:10:23Z</time></trkpt><trkpt lat="40.370901957733096" lon="15.600592661441825"><ele>455.0</ele><time>2026-03-26T19:10:24Z</time></trkpt><trkpt lat="40.37067569826355" lon="15.600692531467518"><ele>455.0</ele><time>2026-03-26T19:10:25Z</time></trkpt><trkpt lat="40.3704494309381" lon="15.600796043541424"><ele>454.5</ele><time>2026-03-26T19:10:26Z</time></trkpt><trkpt lat="40.37022701607782" lon="15.60091056234735"><ele>454.0</ele><time>2026-03-26T19:10:27Z</time></trkpt><trkpt lat="40.37000163954234" lon="15.601021204650612"><ele>454.0</ele><time>2026-03-26T19:10:28Z</time></trkpt><trkpt lat="40.36977868402834" lon="15.601140566478636"><ele>454.0</ele><time>2026-03-26T19:10:29Z</time></trkpt><trkpt lat="40.36955705447463" lon="15.601265065486773"><ele>455.0</ele><time>2026-03-26T19:10:30Z</time></trkpt><trkpt lat="40.369336622125665" lon="15.601392815650005"><ele>456.0</ele><time>2026-03-26T19:10:31Z</time></trkpt><trkpt lat="40.36911538349334" lon="15.601520817903928"><ele>456.0</ele><time>2026-03-26T19:10:32Z</time></trkpt><trkpt lat="40.36889509516804" lon="15.601650423138324"><ele>456.0</ele><time>2026-03-26T19:10:33Z</time></trkpt><trkpt lat="40.368676046649284" lon="15.601787175457954"><ele>455.5</ele><time>2026-03-26T19:10:34Z</time></trkpt><trkpt lat="40.368459318509835" lon="15.601925361388313"><ele>455.0</ele><time>2026-03-26T19:10:35Z</time></trkpt><trkpt lat="40.36824234791082" lon="15.602069522633647"><ele>455.0</ele><time>2026-03-26T19:10:36Z</time></trkpt><trkpt lat="40.36802804370639" lon="15.602220881027252"><ele>455.0</ele><time>2026-03-26T19:10:37Z</time></trkpt><trkpt lat="40.36780955960806" lon="15.602373826661918"><ele>455.5</ele><time>2026-03-26T19:10:38Z</time></trkpt><trkpt lat="40.36759390954431" lon="15.602532666841991"><ele>456.0</ele><time>2026-03-26T19:10:39Z</time></trkpt><trkpt lat="40.367381407202075" lon="15.602699221247947"><ele>456.0</ele><time>2026-03-26T19:10:40Z</time></trkpt><trkpt lat="40.36716966616061" lon="15.60286866024289"><ele>456.0</ele><time>2026-03-26T19:10:41Z</time></trkpt><trkpt lat="40.36695868551467" lon="15.603040154778386"><ele>456.0</ele><time>2026-03-26T19:10:42Z</time></trkpt><trkpt lat="40.36674907815277" lon="15.603214547811634"><ele>456.0</ele><time>2026-03-26T19:10:43Z</time></trkpt><trkpt lat="40.36654144256103" lon="15.603396795411939"><ele>456.5</ele><time>2026-03-26T19:10:44Z</time></trkpt><trkpt lat="40.36633388246094" lon="15.603580653416136"><ele>457.0</ele><time>2026-03-26T19:10:45Z</time></trkpt><trkpt lat="40.366131810885875" lon="15.60377026210656"><ele>457.0</ele><time>2026-03-26T19:10:46Z</time></trkpt><trkpt lat="40.36593237638753" lon="15.603963749626436"><ele>457.0</ele><time>2026-03-26T19:10:47Z</time></trkpt><trkpt lat="40.365733813043" lon="15.604162112656716"><ele>457.0</ele><time>2026-03-26T19:10:48Z</time></trkpt><trkpt lat="40.36553575229818" lon="15.604357821892991"><ele>457.0</ele><time>2026-03-26T19:10:49Z</time></trkpt><trkpt lat="40.365337691035904" lon="15.604553757266798"><ele>456.5</ele><time>2026-03-26T19:10:50Z</time></trkpt><trkpt lat="40.365139832846204" lon="15.604752115747262"><ele>456.0</ele><time>2026-03-26T19:10:51Z</time></trkpt><trkpt lat="40.364944686229194" lon="15.604953198103932"><ele>456.0</ele><time>2026-03-26T19:10:52Z</time></trkpt><trkpt lat="40.364751187899955" lon="15.605159617444794"><ele>456.0</ele><time>2026-03-26T19:10:53Z</time></trkpt><trkpt lat="40.36456006212559" lon="15.605367324867386"><ele>456.0</ele><time>2026-03-26T19:10:54Z</time></trkpt><trkpt lat="40.364368556856526" lon="15.6055730672289"><ele>456.0</ele><time>2026-03-26T19:10:55Z</time></trkpt><trkpt lat="40.36417710388373" lon="15.605774814374328"><ele>456.0</ele><time>2026-03-26T19:10:56Z</time></trkpt><trkpt lat="40.36398667951331" lon="15.605978159972015"><ele>456.0</ele><time>2026-03-26T19:10:57Z</time></trkpt><trkpt lat="40.363797306306985" lon="15.60618150497368"><ele>456.5</ele><time>2026-03-26T19:10:58Z</time></trkpt><trkpt lat="40.363605566265164" lon="15.606384677316575"><ele>457.0</ele><time>2026-03-26T19:10:59Z</time></trkpt><trkpt lat="40.36341165814368" lon="15.60658536546767"><ele>457.0</ele><time>2026-03-26T19:11:00Z</time></trkpt><trkpt lat="40.36322192000109" lon="15.606791767479244"><ele>457.0</ele><time>2026-03-26T19:11:01Z</time></trkpt><trkpt lat="40.36303048155385" lon="15.606995249850467"><ele>457.0</ele><time>2026-03-26T19:11:02Z</time></trkpt><trkpt lat="40.362845735012364" lon="15.607201205587"><ele>457.0</ele><time>2026-03-26T19:11:03Z</time></trkpt><trkpt lat="40.36265642509354" lon="15.607403847286434"><ele>457.0</ele><time>2026-03-26T19:11:04Z</time></trkpt><trkpt lat="40.362468402986785" lon="15.607608120682233"><ele>457.0</ele><time>2026-03-26T19:11:05Z</time></trkpt><trkpt lat="40.36227831080101" lon="15.607812371578168"><ele>456.5</ele><time>2026-03-26T19:11:06Z</time></trkpt><trkpt lat="40.362085241211396" lon="15.608011616380582"><ele>456.0</ele><time>2026-03-26T19:11:07Z</time></trkpt><trkpt lat="40.36188825816771" lon="15.60820613231585"><ele>456.0</ele><time>2026-03-26T19:11:08Z</time></trkpt><trkpt lat="40.36169143419115" lon="15.608404316710818"><ele>456.0</ele><time>2026-03-26T19:11:09Z</time></trkpt><trkpt lat="40.361494870757795" lon="15.608601726529315"><ele>456.0</ele><time>2026-03-26T19:11:10Z</time></trkpt><trkpt lat="40.36129532445947" lon="15.60879426244615"><ele>456.0</ele><time>2026-03-26T19:11:11Z</time></trkpt><trkpt lat="40.36109282576542" lon="15.608985844172636"><ele>456.0</ele><time>2026-03-26T19:11:12Z</time></trkpt><trkpt lat="40.360886567648144" lon="15.609172268859034"><ele>456.0</ele><time>2026-03-26T19:11:13Z</time></trkpt><trkpt lat="40.360679205860016" lon="15.60935425590114"><ele>456.5</ele><time>2026-03-26T19:11:14Z</time></trkpt><trkpt lat="40.3604686836635" lon="15.60953453877839"><ele>457.0</ele><time>2026-03-26T19:11:15Z</time></trkpt><trkpt lat="40.36025768849275" lon="15.60971261025055"><ele>457.0</ele><time>2026-03-26T19:11:16Z</time></trkpt><trkpt lat="40.360045209628844" lon="15.609888611478153"><ele>457.0</ele><time>2026-03-26T19:11:17Z</time></trkpt><trkpt lat="40.35983111750994" lon="15.610060703506585"><ele>457.0</ele><time>2026-03-26T19:11:18Z</time></trkpt><trkpt lat="40.359613308586994" lon="15.610229709119118"><ele>457.0</ele><time>2026-03-26T19:11:19Z</time></trkpt><trkpt lat="40.359395117913564" lon="15.610397784434314"><ele>457.0</ele><time>2026-03-26T19:11:20Z</time></trkpt><trkpt lat="40.35917785536217" lon="15.610567722932222"><ele>457.0</ele><time>2026-03-26T19:11:21Z</time></trkpt><trkpt lat="40.358960337695116" lon="15.610736728028613"><ele>456.0</ele><time>2026-03-26T19:11:22Z</time></trkpt><trkpt lat="40.35874384157372" lon="15.61090536515403"><ele>455.0</ele><time>2026-03-26T19:11:23Z</time></trkpt><trkpt lat="40.358526613959825" lon="15.611071846256978"><ele>456.0</ele><time>2026-03-26T19:11:24Z</time></trkpt><trkpt lat="40.35831006713758" lon="15.611239044623996"><ele>457.0</ele><time>2026-03-26T19:11:25Z</time></trkpt><trkpt lat="40.35809477107327" lon="15.61140493186684"><ele>456.5</ele><time>2026-03-26T19:11:26Z</time></trkpt><trkpt lat="40.35787779353708" lon="15.611569272996197"><ele>456.0</ele><time>2026-03-26T19:11:27Z</time></trkpt><trkpt lat="40.35766209002437" lon="15.611731899321878"><ele>456.0</ele><time>2026-03-26T19:11:28Z</time></trkpt><trkpt lat="40.357445415910895" lon="15.611895454387332"><ele>456.0</ele><time>2026-03-26T19:11:29Z</time></trkpt><trkpt lat="40.35722677775288" lon="15.612059925983253"><ele>457.0</ele><time>2026-03-26T19:11:30Z</time></trkpt><trkpt lat="40.35700831076043" lon="15.612225041648914"><ele>458.0</ele><time>2026-03-26T19:11:31Z</time></trkpt><trkpt lat="40.35679202783048" lon="15.612388768851963"><ele>458.0</ele><time>2026-03-26T19:11:32Z</time></trkpt><trkpt lat="40.35657494586916" lon="15.61255114449447"><ele>458.0</ele><time>2026-03-26T19:11:33Z</time></trkpt><trkpt lat="40.356359804899085" lon="15.612715550859807"><ele>458.0</ele><time>2026-03-26T19:11:34Z</time></trkpt><trkpt lat="40.35614736961007" lon="15.612878348684953"><ele>458.0</ele><time>2026-03-26T19:11:35Z</time></trkpt><trkpt lat="40.35593428970668" lon="15.613039717727954"><ele>458.0</ele><time>2026-03-26T19:11:36Z</time></trkpt><trkpt lat="40.35572000993609" lon="15.613202975573701"><ele>458.0</ele><time>2026-03-26T19:11:37Z</time></trkpt><trkpt lat="40.35550640615075" lon="15.61336403737976"><ele>458.5</ele><time>2026-03-26T19:11:38Z</time></trkpt><trkpt lat="40.355299571291575" lon="15.613528284492139"><ele>459.0</ele><time>2026-03-26T19:11:39Z</time></trkpt><trkpt lat="40.35508903797771" lon="15.613688430368791"><ele>459.0</ele><time>2026-03-26T19:11:40Z</time></trkpt><trkpt lat="40.354879703095975" lon="15.613845034379878"><ele>459.0</ele><time>2026-03-26T19:11:41Z</time></trkpt><trkpt lat="40.35467071617882" lon="15.614006216471529"><ele>458.5</ele><time>2026-03-26T19:11:42Z</time></trkpt><trkpt lat="40.35446078653736" lon="15.614164608824666"><ele>458.0</ele><time>2026-03-26T19:11:43Z</time></trkpt><trkpt lat="40.354249555545564" lon="15.614321238790353"><ele>458.0</ele><time>2026-03-26T19:11:44Z</time></trkpt><trkpt lat="40.35403924338813" lon="15.614480013283194"><ele>458.0</ele><time>2026-03-26T19:11:45Z</time></trkpt><trkpt lat="40.353827730186346" lon="15.614639140007819"><ele>458.0</ele><time>2026-03-26T19:11:46Z</time></trkpt><trkpt lat="40.35361516081838" lon="15.614799492198504"><ele>458.0</ele><time>2026-03-26T19:11:47Z</time></trkpt><trkpt lat="40.35340273376752" lon="15.614959803538962"><ele>458.0</ele><time>2026-03-26T19:11:48Z</time></trkpt><trkpt lat="40.35319084581509" lon="15.615119489415207"><ele>458.0</ele><time>2026-03-26T19:11:49Z</time></trkpt><trkpt lat="40.35297793773386" lon="15.615281304535442"><ele>459.5</ele><time>2026-03-26T19:11:50Z</time></trkpt><trkpt lat="40.35276581308846" lon="15.615442807906604"><ele>461.0</ele><time>2026-03-26T19:11:51Z</time></trkpt><trkpt lat="40.352552334158695" lon="15.615606446266302"><ele>461.0</ele><time>2026-03-26T19:11:52Z</time></trkpt><trkpt lat="40.3523386725208" lon="15.615771291096117"><ele>461.0</ele><time>2026-03-26T19:11:53Z</time></trkpt><trkpt lat="40.35212427548949" lon="15.615936767262331"><ele>461.0</ele><time>2026-03-26T19:11:54Z</time></trkpt><trkpt lat="40.351910219673336" lon="15.616099695947684"><ele>461.0</ele><time>2026-03-26T19:11:55Z</time></trkpt><trkpt lat="40.351695705084275" lon="15.616262639257597"><ele>461.0</ele><time>2026-03-26T19:11:56Z</time></trkpt><trkpt lat="40.35148184973046" lon="15.616424480011796"><ele>461.0</ele><time>2026-03-26T19:11:57Z</time></trkpt><trkpt lat="40.35126853900813" lon="15.616588201719594"><ele>460.5</ele><time>2026-03-26T19:11:58Z</time></trkpt><trkpt lat="40.3510559513937" lon="15.61675352528793"><ele>460.0</ele><time>2026-03-26T19:11:59Z</time></trkpt><trkpt lat="40.350842880012095" lon="15.61691758330166"><ele>460.5</ele><time>2026-03-26T19:12:00Z</time></trkpt><trkpt lat="40.350630587034026" lon="15.617080986851708"><ele>461.0</ele><time>2026-03-26T19:12:01Z</time></trkpt><trkpt lat="40.35041828951338" lon="15.61724421795857"><ele>462.0</ele><time>2026-03-26T19:12:02Z</time></trkpt><trkpt lat="40.35020367616119" lon="15.617405923276353"><ele>463.0</ele><time>2026-03-26T19:12:03Z</time></trkpt><trkpt lat="40.34998674866177" lon="15.617565536588348"><ele>463.0</ele><time>2026-03-26T19:12:04Z</time></trkpt><trkpt lat="40.34977008940922" lon="15.617728826840471"><ele>463.0</ele><time>2026-03-26T19:12:05Z</time></trkpt><trkpt lat="40.349554710385696" lon="15.61789250205189"><ele>462.5</ele><time>2026-03-26T19:12:06Z</time></trkpt><trkpt lat="40.34934045878086" lon="15.61805589953586"><ele>462.0</ele><time>2026-03-26T19:12:07Z</time></trkpt><trkpt lat="40.34912763973382" lon="15.618223818731165"><ele>462.0</ele><time>2026-03-26T19:12:08Z</time></trkpt><trkpt lat="40.34890814088344" lon="15.6183862217777"><ele>462.0</ele><time>2026-03-26T19:12:09Z</time></trkpt><trkpt lat="40.34869148639993" lon="15.618544016153914"><ele>462.0</ele><time>2026-03-26T19:12:10Z</time></trkpt><trkpt lat="40.34847630891529" lon="15.618704755288437"><ele>462.0</ele><time>2026-03-26T19:12:11Z</time></trkpt><trkpt lat="40.34826034099643" lon="15.618866813866974"><ele>462.0</ele><time>2026-03-26T19:12:12Z</time></trkpt><trkpt lat="40.34804675371052" lon="15.619029111929343"><ele>462.0</ele><time>2026-03-26T19:12:13Z</time></trkpt><trkpt lat="40.3478341483015" lon="15.619190639649005"><ele>463.0</ele><time>2026-03-26T19:12:14Z</time></trkpt><trkpt lat="40.34762182317323" lon="15.619353721204009"><ele>464.0</ele><time>2026-03-26T19:12:15Z</time></trkpt><trkpt lat="40.347412359767254" lon="15.61951857350828"><ele>464.0</ele><time>2026-03-26T19:12:16Z</time></trkpt><trkpt lat="40.34720022158533" lon="15.61968157175239"><ele>464.0</ele><time>2026-03-26T19:12:17Z</time></trkpt><trkpt lat="40.346988021846606" lon="15.619841614618693"><ele>464.0</ele><time>2026-03-26T19:12:18Z</time></trkpt><trkpt lat="40.346776186984975" lon="15.620002167964651"><ele>464.0</ele><time>2026-03-26T19:12:19Z</time></trkpt><trkpt lat="40.34656313678698" lon="15.620160966194002"><ele>465.5</ele><time>2026-03-26T19:12:20Z</time></trkpt><trkpt lat="40.34635074620654" lon="15.620319724406366"><ele>467.0</ele><time>2026-03-26T19:12:21Z</time></trkpt><trkpt lat="40.34613810170956" lon="15.620478618838984"><ele>467.0</ele><time>2026-03-26T19:12:22Z</time></trkpt><trkpt lat="40.34592640872568" lon="15.62063733701563"><ele>467.0</ele><time>2026-03-26T19:12:23Z</time></trkpt><trkpt lat="40.3457149730204" lon="15.620796340171742"><ele>467.5</ele><time>2026-03-26T19:12:24Z</time></trkpt><trkpt lat="40.34550256781474" lon="15.62095394480615"><ele>468.0</ele><time>2026-03-26T19:12:25Z</time></trkpt><trkpt lat="40.34529096044112" lon="15.621106672292067"><ele>468.5</ele><time>2026-03-26T19:12:26Z</time></trkpt><trkpt lat="40.345079281921" lon="15.621256445062567"><ele>469.0</ele><time>2026-03-26T19:12:27Z</time></trkpt><trkpt lat="40.344866725811414" lon="15.62140343841872"><ele>468.5</ele><time>2026-03-26T19:12:28Z</time></trkpt><trkpt lat="40.344652958418195" lon="15.621550174446304"><ele>468.0</ele><time>2026-03-26T19:12:29Z</time></trkpt><trkpt lat="40.344436658531954" lon="15.62168783481836"><ele>468.0</ele><time>2026-03-26T19:12:30Z</time></trkpt><trkpt lat="40.34421909382738" lon="15.621821050487709"><ele>468.0</ele><time>2026-03-26T19:12:31Z</time></trkpt><trkpt lat="40.34400080757564" lon="15.621951327730107"><ele>469.0</ele><time>2026-03-26T19:12:32Z</time></trkpt><trkpt lat="40.343785018089505" lon="15.622082505566526"><ele>470.0</ele><time>2026-03-26T19:12:33Z</time></trkpt><trkpt lat="40.343564469210556" lon="15.622207492177075"><ele>470.0</ele><time>2026-03-26T19:12:34Z</time></trkpt><trkpt lat="40.34334565011504" lon="15.62233027658664"><ele>470.0</ele><time>2026-03-26T19:12:35Z</time></trkpt><trkpt lat="40.34312597823975" lon="15.622452594097933"><ele>470.0</ele><time>2026-03-26T19:12:36Z</time></trkpt><trkpt lat="40.3429047703784" lon="15.622572232709752"><ele>470.0</ele><time>2026-03-26T19:12:37Z</time></trkpt><trkpt lat="40.34268379839849" lon="15.622687832973543"><ele>470.0</ele><time>2026-03-26T19:12:38Z</time></trkpt><trkpt lat="40.34246172805775" lon="15.622803284071916"><ele>470.0</ele><time>2026-03-26T19:12:39Z</time></trkpt><trkpt lat="40.3422379660997" lon="15.622921228707735"><ele>471.5</ele><time>2026-03-26T19:12:40Z</time></trkpt><trkpt lat="40.342011959571174" lon="15.623036245191864"><ele>473.0</ele><time>2026-03-26T19:12:41Z</time></trkpt><trkpt lat="40.34178870504604" lon="15.623162752614531"><ele>473.0</ele><time>2026-03-26T19:12:42Z</time></trkpt><trkpt lat="40.34156648272156" lon="15.62329223296503"><ele>473.0</ele><time>2026-03-26T19:12:43Z</time></trkpt><trkpt lat="40.34134477548394" lon="15.62342776795055"><ele>473.0</ele><time>2026-03-26T19:12:44Z</time></trkpt><trkpt lat="40.34112377349981" lon="15.623563718505062"><ele>473.0</ele><time>2026-03-26T19:12:45Z</time></trkpt><trkpt lat="40.3409034261433" lon="15.62370299520815"><ele>473.5</ele><time>2026-03-26T19:12:46Z</time></trkpt><trkpt lat="40.340687066178425" lon="15.623845623345034"><ele>474.0</ele><time>2026-03-26T19:12:47Z</time></trkpt><trkpt lat="40.3404728455436" lon="15.623989377056121"><ele>475.0</ele><time>2026-03-26T19:12:48Z</time></trkpt><trkpt lat="40.340259548144466" lon="15.624135056578707"><ele>476.0</ele><time>2026-03-26T19:12:49Z</time></trkpt><trkpt lat="40.34004687864318" lon="15.624283371027355"><ele>476.0</ele><time>2026-03-26T19:12:50Z</time></trkpt><trkpt lat="40.33983285249236" lon="15.624428010959546"><ele>476.0</ele><time>2026-03-26T19:12:51Z</time></trkpt><trkpt lat="40.3396184471332" lon="15.624571894031314"><ele>476.0</ele><time>2026-03-26T19:12:52Z</time></trkpt><trkpt lat="40.339404171303784" lon="15.624718156153794"><ele>476.0</ele><time>2026-03-26T19:12:53Z</time></trkpt><trkpt lat="40.339188251812686" lon="15.624865120018596"><ele>476.0</ele><time>2026-03-26T19:12:54Z</time></trkpt><trkpt lat="40.338972417681006" lon="15.625012234060405"><ele>476.0</ele><time>2026-03-26T19:12:55Z</time></trkpt><trkpt lat="40.338756684195445" lon="15.62516136253399"><ele>476.0</ele><time>2026-03-26T19:12:56Z</time></trkpt><trkpt lat="40.338539088990736" lon="15.625310897916107"><ele>476.0</ele><time>2026-03-26T19:12:57Z</time></trkpt><trkpt lat="40.3383230887158" lon="15.625461922351887"><ele>477.0</ele><time>2026-03-26T19:12:58Z</time></trkpt><trkpt lat="40.33810709310627" lon="15.625614244755882"><ele>478.0</ele><time>2026-03-26T19:12:59Z</time></trkpt><trkpt lat="40.337891319492236" lon="15.62576886200921"><ele>478.5</ele><time>2026-03-26T19:13:00Z</time></trkpt><trkpt lat="40.337675677319645" lon="15.625926098191021"><ele>479.0</ele><time>2026-03-26T19:13:01Z</time></trkpt><trkpt lat="40.33746233042717" lon="15.626086431225051"><ele>479.0</ele><time>2026-03-26T19:13:02Z</time></trkpt><trkpt lat="40.337251952656196" lon="15.626251728191763"><ele>479.0</ele><time>2026-03-26T19:13:03Z</time></trkpt><trkpt lat="40.33704179400332" lon="15.626420425665158"><ele>478.5</ele><time>2026-03-26T19:13:04Z</time></trkpt><trkpt lat="40.33683285282999" lon="15.626590619280325"><ele>478.0</ele><time>2026-03-26T19:13:05Z</time></trkpt><trkpt lat="40.33662382253327" lon="15.626764130157596"><ele>478.0</ele><time>2026-03-26T19:13:06Z</time></trkpt><trkpt lat="40.336416377493386" lon="15.626943753225994"><ele>478.0</ele><time>2026-03-26T19:13:07Z</time></trkpt><trkpt lat="40.33620980388911" lon="15.627130253684808"><ele>479.5</ele><time>2026-03-26T19:13:08Z</time></trkpt><trkpt lat="40.336003771259406" lon="15.627322225168664"><ele>481.0</ele><time>2026-03-26T19:13:09Z</time></trkpt><trkpt lat="40.33579995012413" lon="15.627520119262892"><ele>481.0</ele><time>2026-03-26T19:13:10Z</time></trkpt><trkpt lat="40.33559508754841" lon="15.627719153180388"><ele>481.0</ele><time>2026-03-26T19:13:11Z</time></trkpt><trkpt lat="40.33539133421263" lon="15.627922831807696"><ele>481.0</ele><time>2026-03-26T19:13:12Z</time></trkpt><trkpt lat="40.335185426892664" lon="15.628123841419717"><ele>481.0</ele><time>2026-03-26T19:13:13Z</time></trkpt><trkpt lat="40.33498077370011" lon="15.628330742332539"><ele>481.0</ele><time>2026-03-26T19:13:14Z</time></trkpt><trkpt lat="40.3347745724344" lon="15.628534517255575"><ele>481.0</ele><time>2026-03-26T19:13:15Z</time></trkpt><trkpt lat="40.334571945689625" lon="15.628745316656362"><ele>480.5</ele><time>2026-03-26T19:13:16Z</time></trkpt><trkpt lat="40.33436824247167" lon="15.628953769718166"><ele>480.0</ele><time>2026-03-26T19:13:17Z</time></trkpt><trkpt lat="40.33416248179415" lon="15.629166408115228"><ele>480.0</ele><time>2026-03-26T19:13:18Z</time></trkpt><trkpt lat="40.333955176667196" lon="15.629378234679493"><ele>480.0</ele><time>2026-03-26T19:13:19Z</time></trkpt><trkpt lat="40.33374826502761" lon="15.629587620996654"><ele>481.0</ele><time>2026-03-26T19:13:20Z</time></trkpt><trkpt lat="40.333541752822654" lon="15.629793868793556"><ele>482.0</ele><time>2026-03-26T19:13:21Z</time></trkpt><trkpt lat="40.333335167077514" lon="15.630001373637892"><ele>482.0</ele><time>2026-03-26T19:13:22Z</time></trkpt><trkpt lat="40.33312963720618" lon="15.630208466039509"><ele>482.0</ele><time>2026-03-26T19:13:23Z</time></trkpt><trkpt lat="40.33292544663168" lon="15.630413581857612"><ele>483.0</ele><time>2026-03-26T19:13:24Z</time></trkpt><trkpt lat="40.33272242227587" lon="15.630615324919516"><ele>484.0</ele><time>2026-03-26T19:13:25Z</time></trkpt><trkpt lat="40.332514334638084" lon="15.630818854325181"><ele>484.0</ele><time>2026-03-26T19:13:26Z</time></trkpt><trkpt lat="40.33230737437769" lon="15.631019629030675"><ele>484.0</ele><time>2026-03-26T19:13:27Z</time></trkpt><trkpt lat="40.332098174926884" lon="15.631218338993882"><ele>483.5</ele><time>2026-03-26T19:13:28Z</time></trkpt><trkpt lat="40.331886578433746" lon="15.631412967036026"><ele>483.0</ele><time>2026-03-26T19:13:29Z</time></trkpt><trkpt lat="40.331672771056056" lon="15.631600422719462"><ele>483.0</ele><time>2026-03-26T19:13:30Z</time></trkpt><trkpt lat="40.3314562420964" lon="15.631778111782129"><ele>483.0</ele><time>2026-03-26T19:13:31Z</time></trkpt><trkpt lat="40.33123923943962" lon="15.631952321566432"><ele>483.5</ele><time>2026-03-26T19:13:32Z</time></trkpt><trkpt lat="40.331021975160716" lon="15.632125636527958"><ele>484.0</ele><time>2026-03-26T19:13:33Z</time></trkpt><trkpt lat="40.330799669353475" lon="15.632292746477187"><ele>484.0</ele><time>2026-03-26T19:13:34Z</time></trkpt><trkpt lat="40.330575238621485" lon="15.632458568185745"><ele>484.0</ele><time>2026-03-26T19:13:35Z</time></trkpt><trkpt lat="40.330348905519244" lon="15.632621171114677"><ele>484.0</ele><time>2026-03-26T19:13:36Z</time></trkpt><trkpt lat="40.33011881211441" lon="15.63278315623831"><ele>484.0</ele><time>2026-03-26T19:13:37Z</time></trkpt><trkpt lat="40.329883327165604" lon="15.632942721262157"><ele>484.5</ele><time>2026-03-26T19:13:38Z</time></trkpt><trkpt lat="40.3296436496037" lon="15.633101545649696"><ele>485.0</ele><time>2026-03-26T19:13:39Z</time></trkpt><trkpt lat="40.32939923091493" lon="15.63325815532603"><ele>485.0</ele><time>2026-03-26T19:13:40Z</time></trkpt><trkpt lat="40.32915236439469" lon="15.633416626763353"><ele>485.0</ele><time>2026-03-26T19:13:41Z</time></trkpt><trkpt lat="40.32890435687567" lon="15.633575088857295"><ele>485.0</ele><time>2026-03-26T19:13:42Z</time></trkpt><trkpt lat="40.328655709011606" lon="15.633734138911318"><ele>485.0</ele><time>2026-03-26T19:13:43Z</time></trkpt><trkpt lat="40.328406115784034" lon="15.63389260911455"><ele>485.0</ele><time>2026-03-26T19:13:44Z</time></trkpt><trkpt lat="40.32815627296184" lon="15.634052541515505"><ele>485.0</ele><time>2026-03-26T19:13:45Z</time></trkpt><trkpt lat="40.32790534751534" lon="15.634212888962198"><ele>484.5</ele><time>2026-03-26T19:13:46Z</time></trkpt><trkpt lat="40.32765319504768" lon="15.634372482900595"><ele>484.0</ele><time>2026-03-26T19:13:47Z</time></trkpt><trkpt lat="40.3274025853003" lon="15.634534980767128"><ele>484.0</ele><time>2026-03-26T19:13:48Z</time></trkpt><trkpt lat="40.3271495312701" lon="15.634697304214036"><ele>484.0</ele><time>2026-03-26T19:13:49Z</time></trkpt><trkpt lat="40.32689653723211" lon="15.63485825158488"><ele>484.0</ele><time>2026-03-26T19:13:50Z</time></trkpt><trkpt lat="40.32664341855013" lon="15.635015331027528"><ele>484.0</ele><time>2026-03-26T19:13:51Z</time></trkpt><trkpt lat="40.32639417479765" lon="15.635169479510106"><ele>484.5</ele><time>2026-03-26T19:13:52Z</time></trkpt><trkpt lat="40.32614508316476" lon="15.635325334105357"><ele>485.0</ele><time>2026-03-26T19:13:53Z</time></trkpt><trkpt lat="40.32589834896413" lon="15.635484266929934"><ele>485.0</ele><time>2026-03-26T19:13:54Z</time></trkpt><trkpt lat="40.325649865344175" lon="15.635644213438669"><ele>485.0</ele><time>2026-03-26T19:13:55Z</time></trkpt><trkpt lat="40.32540058973591" lon="15.635805291802534"><ele>486.0</ele><time>2026-03-26T19:13:56Z</time></trkpt><trkpt lat="40.325151402219284" lon="15.63596582811158"><ele>487.0</ele><time>2026-03-26T19:13:57Z</time></trkpt><trkpt lat="40.324905209317954" lon="15.63612687115129"><ele>487.0</ele><time>2026-03-26T19:13:58Z</time></trkpt><trkpt lat="40.32466022253736" lon="15.636290030451203"><ele>487.0</ele><time>2026-03-26T19:13:59Z</time></trkpt><trkpt lat="40.32441481341818" lon="15.636443419540212"><ele>487.0</ele><time>2026-03-26T19:14:00Z</time></trkpt><trkpt lat="40.324169652727704" lon="15.636597256000313"><ele>487.0</ele><time>2026-03-26T19:14:01Z</time></trkpt><trkpt lat="40.323923256298315" lon="15.636744895869455"><ele>486.0</ele><time>2026-03-26T19:14:02Z</time></trkpt><trkpt lat="40.3236740790852" lon="15.636889536695634"><ele>485.0</ele><time>2026-03-26T19:14:03Z</time></trkpt><trkpt lat="40.323423117641525" lon="15.637028813939596"><ele>485.0</ele><time>2026-03-26T19:14:04Z</time></trkpt><trkpt lat="40.32316957575811" lon="15.63716007515226"><ele>485.0</ele><time>2026-03-26T19:14:05Z</time></trkpt><trkpt lat="40.322914934219526" lon="15.63728700237994"><ele>484.5</ele><time>2026-03-26T19:14:06Z</time></trkpt><trkpt lat="40.32265355984129" lon="15.637410672948675"><ele>484.0</ele><time>2026-03-26T19:14:07Z</time></trkpt><trkpt lat="40.3223986989272" lon="15.637528766899692"><ele>484.5</ele><time>2026-03-26T19:14:08Z</time></trkpt><trkpt lat="40.3221376125408" lon="15.637649044884224"><ele>485.0</ele><time>2026-03-26T19:14:09Z</time></trkpt><trkpt lat="40.32187696184787" lon="15.637768622017433"><ele>485.5</ele><time>2026-03-26T19:14:10Z</time></trkpt><trkpt lat="40.32161772288554" lon="15.63788639246097"><ele>486.0</ele><time>2026-03-26T19:14:11Z</time></trkpt><trkpt lat="40.32135998177442" lon="15.638001402001695"><ele>486.0</ele><time>2026-03-26T19:14:12Z</time></trkpt><trkpt lat="40.32110163847463" lon="15.638116301825034"><ele>486.0</ele><time>2026-03-26T19:14:13Z</time></trkpt><trkpt lat="40.320841195109644" lon="15.638232528448299"><ele>486.0</ele><time>2026-03-26T19:14:14Z</time></trkpt><trkpt lat="40.32058107434863" lon="15.638346086275993"><ele>486.0</ele><time>2026-03-26T19:14:15Z</time></trkpt><trkpt lat="40.320320312528196" lon="15.638458987423604"><ele>486.0</ele><time>2026-03-26T19:14:16Z</time></trkpt><trkpt lat="40.32005874163282" lon="15.638573521888572"><ele>486.0</ele><time>2026-03-26T19:14:17Z</time></trkpt><trkpt lat="40.319797768694215" lon="15.638688034397177"><ele>485.5</ele><time>2026-03-26T19:14:18Z</time></trkpt><trkpt lat="40.31953820298266" lon="15.638801196480491"><ele>485.0</ele><time>2026-03-26T19:14:19Z</time></trkpt><trkpt lat="40.31928076230699" lon="15.63891253240789"><ele>485.0</ele><time>2026-03-26T19:14:20Z</time></trkpt><trkpt lat="40.31902242686542" lon="15.639024072724158"><ele>485.0</ele><time>2026-03-26T19:14:21Z</time></trkpt><trkpt lat="40.31876271848015" lon="15.63913646811204"><ele>485.0</ele><time>2026-03-26T19:14:22Z</time></trkpt><trkpt lat="40.318502218952574" lon="15.639249170676873"><ele>485.0</ele><time>2026-03-26T19:14:23Z</time></trkpt><trkpt lat="40.318240683347376" lon="15.639364593736166"><ele>484.5</ele><time>2026-03-26T19:14:24Z</time></trkpt><trkpt lat="40.31798019127241" lon="15.639478846339395"><ele>484.0</ele><time>2026-03-26T19:14:25Z</time></trkpt><trkpt lat="40.317717902169896" lon="15.639593897606494"><ele>484.0</ele><time>2026-03-26T19:14:26Z</time></trkpt><trkpt lat="40.3174566817547" lon="15.639707520271957"><ele>484.0</ele><time>2026-03-26T19:14:27Z</time></trkpt><trkpt lat="40.31719439806894" lon="15.639821503080178"><ele>483.0</ele><time>2026-03-26T19:14:28Z</time></trkpt><trkpt lat="40.31693335670368" lon="15.63993527391713"><ele>482.0</ele><time>2026-03-26T19:14:29Z</time></trkpt><trkpt lat="40.31667306084803" lon="15.640049670600133"><ele>482.0</ele><time>2026-03-26T19:14:30Z</time></trkpt><trkpt lat="40.316412676073796" lon="15.640162926488857"><ele>482.0</ele><time>2026-03-26T19:14:31Z</time></trkpt><trkpt lat="40.316154191283005" lon="15.640275685209104"><ele>483.0</ele><time>2026-03-26T19:14:32Z</time></trkpt><trkpt lat="40.315897375129595" lon="15.640387457062157"><ele>484.0</ele><time>2026-03-26T19:14:33Z</time></trkpt><trkpt lat="40.31564080972955" lon="15.640498966298185"><ele>482.5</ele><time>2026-03-26T19:14:34Z</time></trkpt><trkpt lat="40.315384900173754" lon="15.640610781939538"><ele>481.0</ele><time>2026-03-26T19:14:35Z</time></trkpt><trkpt lat="40.31512924688865" lon="15.64072405548974"><ele>481.0</ele><time>2026-03-26T19:14:36Z</time></trkpt><trkpt lat="40.3148733948558" lon="15.640837386910926"><ele>481.0</ele><time>2026-03-26T19:14:37Z</time></trkpt><trkpt lat="40.31461777732718" lon="15.640948705500934"><ele>481.0</ele><time>2026-03-26T19:14:38Z</time></trkpt><trkpt lat="40.31436445588316" lon="15.641059515809632"><ele>481.0</ele><time>2026-03-26T19:14:39Z</time></trkpt><trkpt lat="40.314114776913904" lon="15.641165693966979"><ele>481.0</ele><time>2026-03-26T19:14:40Z</time></trkpt><trkpt lat="40.313866644498944" lon="15.641267829955686"><ele>481.0</ele><time>2026-03-26T19:14:41Z</time></trkpt><trkpt lat="40.313619404484776" lon="15.64137320653104"><ele>481.0</ele><time>2026-03-26T19:14:42Z</time></trkpt><trkpt lat="40.31337421388242" lon="15.64147823744837"><ele>481.0</ele><time>2026-03-26T19:14:43Z</time></trkpt><trkpt lat="40.313130456110734" lon="15.641584967401698"><ele>480.5</ele><time>2026-03-26T19:14:44Z</time></trkpt><trkpt lat="40.31288706096406" lon="15.641693476555302"><ele>480.0</ele><time>2026-03-26T19:14:45Z</time></trkpt><trkpt lat="40.31264371002535" lon="15.641800608639763"><ele>480.0</ele><time>2026-03-26T19:14:46Z</time></trkpt><trkpt lat="40.312399241261275" lon="15.641907446071645"><ele>480.0</ele><time>2026-03-26T19:14:47Z</time></trkpt><trkpt lat="40.31215613202754" lon="15.642014785253735"><ele>480.0</ele><time>2026-03-26T19:14:48Z</time></trkpt><trkpt lat="40.31191405257361" lon="15.642120053529778"><ele>480.0</ele><time>2026-03-26T19:14:49Z</time></trkpt><trkpt lat="40.311672085827816" lon="15.64222488803049"><ele>480.0</ele><time>2026-03-26T19:14:50Z</time></trkpt><trkpt lat="40.31143065511834" lon="15.642329843964436"><ele>480.0</ele><time>2026-03-26T19:14:51Z</time></trkpt><trkpt lat="40.31118952486168" lon="15.642435676793301"><ele>480.5</ele><time>2026-03-26T19:14:52Z</time></trkpt><trkpt lat="40.31094873715917" lon="15.642542678196053"><ele>481.0</ele><time>2026-03-26T19:14:53Z</time></trkpt><trkpt lat="40.31070564702237" lon="15.642648333404974"><ele>481.0</ele><time>2026-03-26T19:14:54Z</time></trkpt><trkpt lat="40.31046077713461" lon="15.642750053814149"><ele>481.0</ele><time>2026-03-26T19:14:55Z</time></trkpt><trkpt lat="40.31021588957048" lon="15.642854786152157"><ele>480.5</ele><time>2026-03-26T19:14:56Z</time></trkpt><trkpt lat="40.30997029538974" lon="15.64296298341393"><ele>480.0</ele><time>2026-03-26T19:14:57Z</time></trkpt><trkpt lat="40.309723222158226" lon="15.643070071383326"><ele>478.5</ele><time>2026-03-26T19:14:58Z</time></trkpt><trkpt lat="40.30947512282604" lon="15.643178247779849"><ele>477.0</ele><time>2026-03-26T19:14:59Z</time></trkpt><trkpt lat="40.30922619133671" lon="15.643290559184251"><ele>477.0</ele><time>2026-03-26T19:15:00Z</time></trkpt><trkpt lat="40.308975137051846" lon="15.643395935719562"><ele>477.0</ele><time>2026-03-26T19:15:01Z</time></trkpt><trkpt lat="40.30872436865965" lon="15.643503157900161"><ele>477.0</ele><time>2026-03-26T19:15:02Z</time></trkpt><trkpt lat="40.30847203317928" lon="15.643609914151778"><ele>477.0</ele><time>2026-03-26T19:15:03Z</time></trkpt><trkpt lat="40.30821848669261" lon="15.643718326493754"><ele>475.5</ele><time>2026-03-26T19:15:04Z</time></trkpt><trkpt lat="40.30796751511342" lon="15.643830422035064"><ele>474.0</ele><time>2026-03-26T19:15:05Z</time></trkpt><trkpt lat="40.307716143639325" lon="15.643941743237306"><ele>474.0</ele><time>2026-03-26T19:15:06Z</time></trkpt><trkpt lat="40.307463046122386" lon="15.644047798553219"><ele>474.0</ele><time>2026-03-26T19:15:07Z</time></trkpt><trkpt lat="40.30720973509574" lon="15.644153249533856"><ele>473.5</ele><time>2026-03-26T19:15:08Z</time></trkpt><trkpt lat="40.30695971919517" lon="15.644250312021118"><ele>473.0</ele><time>2026-03-26T19:15:09Z</time></trkpt><trkpt lat="40.30670694260862" lon="15.644353311685792"><ele>473.0</ele><time>2026-03-26T19:15:10Z</time></trkpt><trkpt lat="40.30645498293544" lon="15.644452403334205"><ele>473.0</ele><time>2026-03-26T19:15:11Z</time></trkpt><trkpt lat="40.30620550053383" lon="15.644551490154738"><ele>472.0</ele><time>2026-03-26T19:15:12Z</time></trkpt><trkpt lat="40.30595712254687" lon="15.644647178720906"><ele>471.0</ele><time>2026-03-26T19:15:13Z</time></trkpt><trkpt lat="40.305707933724484" lon="15.644743848225046"><ele>473.0</ele><time>2026-03-26T19:15:14Z</time></trkpt><trkpt lat="40.30545925888076" lon="15.644835828058659"><ele>475.0</ele><time>2026-03-26T19:15:15Z</time></trkpt><trkpt lat="40.3052164024633" lon="15.644931333271996"><ele>475.0</ele><time>2026-03-26T19:15:16Z</time></trkpt><trkpt lat="40.30497713905304" lon="15.64502390641526"><ele>475.0</ele><time>2026-03-26T19:15:17Z</time></trkpt><trkpt lat="40.30474019000888" lon="15.645112061430957"><ele>474.5</ele><time>2026-03-26T19:15:18Z</time></trkpt><trkpt lat="40.30450635235315" lon="15.64519799539721"><ele>474.0</ele><time>2026-03-26T19:15:19Z</time></trkpt><trkpt lat="40.30427368396937" lon="15.645282739432325"><ele>473.5</ele><time>2026-03-26T19:15:20Z</time></trkpt><trkpt lat="40.30404538349656" lon="15.645366383700189"><ele>473.0</ele><time>2026-03-26T19:15:21Z</time></trkpt><trkpt lat="40.30381939269766" lon="15.645450161132688"><ele>473.0</ele><time>2026-03-26T19:15:22Z</time></trkpt><trkpt lat="40.30359505283666" lon="15.645532552661074"><ele>473.0</ele><time>2026-03-26T19:15:23Z</time></trkpt><trkpt lat="40.30337493223" lon="15.645615036977524"><ele>473.0</ele><time>2026-03-26T19:15:24Z</time></trkpt><trkpt lat="40.30315754214486" lon="15.645695722189313"><ele>473.0</ele><time>2026-03-26T19:15:25Z</time></trkpt><trkpt lat="40.30294414299579" lon="15.645773507476186"><ele>473.0</ele><time>2026-03-26T19:15:26Z</time></trkpt><trkpt lat="40.30273252591915" lon="15.64585063315517"><ele>474.0</ele><time>2026-03-26T19:15:27Z</time></trkpt><trkpt lat="40.302522421075906" lon="15.645924587577579"><ele>475.0</ele><time>2026-03-26T19:15:28Z</time></trkpt><trkpt lat="40.302315025697816" lon="15.646000221237168"><ele>476.0</ele><time>2026-03-26T19:15:29Z</time></trkpt><trkpt lat="40.302116356689424" lon="15.646071862603987"><ele>476.66666666666663</ele><time>2026-03-26T19:15:30Z</time></trkpt><trkpt lat="40.301928417771286" lon="15.646147321933025"><ele>477.33333333333337</ele><time>2026-03-26T19:15:31Z</time></trkpt><trkpt lat="40.3017449836736" lon="15.646210885167303"><ele>478.0</ele><time>2026-03-26T19:15:32Z</time></trkpt><trkpt lat="40.301567693813375" lon="15.646277068929011"><ele>478.0</ele><time>2026-03-26T19:15:33Z</time></trkpt><trkpt lat="40.30139536817218" lon="15.646344128708174"><ele>478.0</ele><time>2026-03-26T19:15:34Z</time></trkpt><trkpt lat="40.30122073865139" lon="15.646404746253031"><ele>478.0</ele><time>2026-03-26T19:15:35Z</time></trkpt><trkpt lat="40.30104639665862" lon="15.646464108035223"><ele>478.0</ele><time>2026-03-26T19:15:36Z</time></trkpt><trkpt lat="40.30087217932243" lon="15.646518521539466"><ele>478.0</ele><time>2026-03-26T19:15:37Z</time></trkpt><trkpt lat="40.30069743574247" lon="15.64657269861516"><ele>478.0</ele><time>2026-03-26T19:15:38Z</time></trkpt><trkpt lat="40.300534796916395" lon="15.64662167254135"><ele>477.75</ele><time>2026-03-26T19:15:39Z</time></trkpt><trkpt lat="40.300391558523316" lon="15.64667081037676"><ele>477.5</ele><time>2026-03-26T19:15:40Z</time></trkpt><trkpt lat="40.30026672369873" lon="15.646712905038498"><ele>477.25</ele><time>2026-03-26T19:15:41Z</time></trkpt><trkpt lat="40.30015778234996" lon="15.646752472862701"><ele>477.0</ele><time>2026-03-26T19:15:42Z</time></trkpt><trkpt lat="40.3000589043069" lon="15.646786087189726"><ele>477.0</ele><time>2026-03-26T19:15:43Z</time></trkpt><trkpt lat="40.299964155217246" lon="15.646815565038107"><ele>477.00000000000006</ele><time>2026-03-26T19:15:44Z</time></trkpt><trkpt lat="40.29987381169147" lon="15.64684170604041"><ele>477.00000000000006</ele><time>2026-03-26T19:15:45Z</time></trkpt><trkpt lat="40.29978288578087" lon="15.646852954271454"><ele>477.0</ele><time>2026-03-26T19:15:46Z</time></trkpt><trkpt lat="40.29968675398802" lon="15.646853802266309"><ele>477.0</ele><time>2026-03-26T19:15:47Z</time></trkpt><trkpt lat="40.29959147763188" lon="15.64683783754177"><ele>476.8333333333333</ele><time>2026-03-26T19:15:48Z</time></trkpt><trkpt lat="40.299500174388605" lon="15.646810295135387"><ele>476.66666666666663</ele><time>2026-03-26T19:15:49Z</time></trkpt><trkpt lat="40.29941488705986" lon="15.646773878332484"><ele>476.5</ele><time>2026-03-26T19:15:50Z</time></trkpt><trkpt lat="40.29933600474722" lon="15.646724297732606"><ele>476.3333333333333</ele><time>2026-03-26T19:15:51Z</time></trkpt><trkpt lat="40.29926707223078" lon="15.646660093252796"><ele>476.16666666666663</ele><time>2026-03-26T19:15:52Z</time></trkpt><trkpt lat="40.29920884550498" lon="15.646581255961484"><ele>476.0</ele><time>2026-03-26T19:15:53Z</time></trkpt><trkpt lat="40.29916915435138" lon="15.64648524900104"><ele>475.99999999999994</ele><time>2026-03-26T19:15:54Z</time></trkpt><trkpt lat="40.29914852566195" lon="15.646382997102087"><ele>476.0</ele><time>2026-03-26T19:15:55Z</time></trkpt><trkpt lat="40.29914318942725" lon="15.646269445981467"><ele>476.0</ele><time>2026-03-26T19:15:56Z</time></trkpt><trkpt lat="40.299154002067006" lon="15.646158209065693"><ele>476.0</ele><time>2026-03-26T19:15:57Z</time></trkpt><trkpt lat="40.29918148091259" lon="15.646055947207692"><ele>475.99999999999994</ele><time>2026-03-26T19:15:58Z</time></trkpt><trkpt lat="40.29921872685629" lon="15.645971473585213"><ele>476.0</ele><time>2026-03-26T19:15:59Z</time></trkpt><trkpt lat="40.299262396150176" lon="15.645899507525858"><ele>475.8333333333333</ele><time>2026-03-26T19:16:00Z</time></trkpt><trkpt lat="40.2993083312131" lon="15.645837728916474"><ele>475.66666666666663</ele><time>2026-03-26T19:16:01Z</time></trkpt><trkpt lat="40.29939268053512" lon="15.645711668275418"><ele>475.5</ele><time>2026-03-26T19:16:03Z</time></trkpt><trkpt lat="40.29943151384864" lon="15.645631890601374"><ele>475.33333333333337</ele><time>2026-03-26T19:16:04Z</time></trkpt><trkpt lat="40.29946379198984" lon="15.645546445152256"><ele>475.1666666666667</ele><time>2026-03-26T19:16:05Z</time></trkpt><trkpt lat="40.29948494994587" lon="15.64546425818458"><ele>475.0</ele><time>2026-03-26T19:16:06Z</time></trkpt><trkpt lat="40.29949455460117" lon="15.645378246809507"><ele>475.00000000000006</ele><time>2026-03-26T19:16:07Z</time></trkpt><trkpt lat="40.2994984527938" lon="15.645286759789657"><ele>475.0</ele><time>2026-03-26T19:16:08Z</time></trkpt><trkpt lat="40.29949764060344" lon="15.645198737090368"><ele>475.0</ele><time>2026-03-26T19:16:09Z</time></trkpt><trkpt lat="40.299486657544946" lon="15.64506396593956"><ele>475.0</ele><time>2026-03-26T19:16:11Z</time></trkpt><trkpt lat="40.29946332913562" lon="15.644970744538268"><ele>475.00000000000006</ele><time>2026-03-26T19:16:13Z</time></trkpt><trkpt lat="40.299425508909245" lon="15.64489434880155"><ele>475.0</ele><time>2026-03-26T19:16:16Z</time></trkpt><trkpt lat="40.29934590860845" lon="15.644843133085574"><ele>475.00000000000006</ele><time>2026-03-26T19:16:31Z</time></trkpt><trkpt lat="40.29925676108203" lon="15.644878662477641"><ele>475.0</ele><time>2026-03-26T19:16:33Z</time></trkpt><trkpt lat="40.29920302164523" lon="15.644927616043422"><ele>475.0</ele><time>2026-03-26T19:16:34Z</time></trkpt><trkpt lat="40.29914454133529" lon="15.64499092177377"><ele>475.0</ele><time>2026-03-26T19:16:35Z</time></trkpt><trkpt lat="40.299074293971195" lon="15.645067105656567"><ele>475.00000000000006</ele><time>2026-03-26T19:16:36Z</time></trkpt><trkpt lat="40.29899513013145" lon="15.645159477117936"><ele>475.0</ele><time>2026-03-26T19:16:37Z</time></trkpt><trkpt lat="40.298901318548936" lon="15.645263501715052"><ele>475.25</ele><time>2026-03-26T19:16:38Z</time></trkpt><trkpt lat="40.29879698572952" lon="15.645379303015167"><ele>475.5</ele><time>2026-03-26T19:16:39Z</time></trkpt><trkpt lat="40.298687306804275" lon="15.645501428806663"><ele>475.75</ele><time>2026-03-26T19:16:40Z</time></trkpt><trkpt lat="40.298573809691824" lon="15.645629239014296"><ele>476.0</ele><time>2026-03-26T19:16:41Z</time></trkpt><trkpt lat="40.29846079194376" lon="15.645753579533011"><ele>476.0</ele><time>2026-03-26T19:16:42Z</time></trkpt><trkpt lat="40.29835410257786" lon="15.64587048368489"><ele>476.0</ele><time>2026-03-26T19:16:43Z</time></trkpt><trkpt lat="40.29825520944487" lon="15.645984403043789"><ele>476.0</ele><time>2026-03-26T19:16:44Z</time></trkpt><trkpt lat="40.29816208833371" lon="15.646090633114879"><ele>476.0</ele><time>2026-03-26T19:16:45Z</time></trkpt><trkpt lat="40.29807353078055" lon="15.646192037430236"><ele>476.5</ele><time>2026-03-26T19:16:46Z</time></trkpt><trkpt lat="40.29798802274872" lon="15.646287418428987"><ele>477.0</ele><time>2026-03-26T19:16:47Z</time></trkpt><trkpt lat="40.29789870494995" lon="15.646384090520542"><ele>477.5</ele><time>2026-03-26T19:16:48Z</time></trkpt><trkpt lat="40.29780828264876" lon="15.646488768314372"><ele>478.0</ele><time>2026-03-26T19:16:49Z</time></trkpt><trkpt lat="40.29771809883884" lon="15.646600151440843"><ele>478.0</ele><time>2026-03-26T19:16:50Z</time></trkpt><trkpt lat="40.29763389129997" lon="15.646701499510842"><ele>478.0</ele><time>2026-03-26T19:16:51Z</time></trkpt><trkpt lat="40.297551095299085" lon="15.64679968416257"><ele>478.0</ele><time>2026-03-26T19:16:52Z</time></trkpt><trkpt lat="40.29746461078402" lon="15.64690377810443"><ele>478.0</ele><time>2026-03-26T19:16:53Z</time></trkpt><trkpt lat="40.29737309958954" lon="15.64701086831231"><ele>478.25</ele><time>2026-03-26T19:16:54Z</time></trkpt><trkpt lat="40.297277583843716" lon="15.647123695909551"><ele>478.5</ele><time>2026-03-26T19:16:55Z</time></trkpt><trkpt lat="40.29717714017674" lon="15.64724148281281"><ele>478.75</ele><time>2026-03-26T19:16:56Z</time></trkpt><trkpt lat="40.29707230272581" lon="15.647360975844915"><ele>479.0</ele><time>2026-03-26T19:16:57Z</time></trkpt><trkpt lat="40.29697286630715" lon="15.647477335976486"><ele>479.0</ele><time>2026-03-26T19:16:58Z</time></trkpt><trkpt lat="40.29688278319659" lon="15.6475814871464"><ele>479.0</ele><time>2026-03-26T19:16:59Z</time></trkpt><trkpt lat="40.29680457846655" lon="15.647672866653226"><ele>479.0</ele><time>2026-03-26T19:17:00Z</time></trkpt><trkpt lat="40.29672568302029" lon="15.647763184303281"><ele>479.0</ele><time>2026-03-26T19:17:01Z</time></trkpt><trkpt lat="40.296648928489844" lon="15.64785518693458"><ele>479.0</ele><time>2026-03-26T19:17:02Z</time></trkpt><trkpt lat="40.2965740702488" lon="15.647939139989909"><ele>479.0</ele><time>2026-03-26T19:17:03Z</time></trkpt><trkpt lat="40.296502396555354" lon="15.648012316405682"><ele>479.0</ele><time>2026-03-26T19:17:04Z</time></trkpt><trkpt lat="40.29643340315629" lon="15.648080081907269"><ele>479.0</ele><time>2026-03-26T19:17:05Z</time></trkpt><trkpt lat="40.296372344310065" lon="15.64814524354279"><ele>479.0</ele><time>2026-03-26T19:17:06Z</time></trkpt><trkpt lat="40.29629192178324" lon="15.648216509442442"><ele>479.0</ele><time>2026-03-26T19:17:07Z</time></trkpt><trkpt lat="40.2961483211253" lon="15.648323654802738"><ele>479.0</ele><time>2026-03-26T19:17:08Z</time></trkpt><trkpt lat="40.29603620827247" lon="15.648416554561635"><ele>479.0</ele><time>2026-03-26T19:17:09Z</time></trkpt><trkpt lat="40.29591634508253" lon="15.64851496329968"><ele>479.0</ele><time>2026-03-26T19:17:10Z</time></trkpt><trkpt lat="40.29578928724905" lon="15.648612731763127"><ele>479.0</ele><time>2026-03-26T19:17:11Z</time></trkpt><trkpt lat="40.29564927820774" lon="15.648703908195706"><ele>479.0</ele><time>2026-03-26T19:17:12Z</time></trkpt><trkpt lat="40.29550199010114" lon="15.648793016346353"><ele>479.0</ele><time>2026-03-26T19:17:13Z</time></trkpt><trkpt lat="40.29535087747193" lon="15.648882702225396"><ele>479.0</ele><time>2026-03-26T19:17:14Z</time></trkpt><trkpt lat="40.295193122979626" lon="15.64896824718275"><ele>479.0</ele><time>2026-03-26T19:17:15Z</time></trkpt><trkpt lat="40.295036036831156" lon="15.649048232598478"><ele>479.0</ele><time>2026-03-26T19:17:16Z</time></trkpt><trkpt lat="40.29488113894443" lon="15.649120233832116"><ele>479.0</ele><time>2026-03-26T19:17:17Z</time></trkpt><trkpt lat="40.294721394259604" lon="15.649187634783129"><ele>479.3333333333333</ele><time>2026-03-26T19:17:18Z</time></trkpt><trkpt lat="40.29456466180217" lon="15.649264561680301"><ele>479.66666666666663</ele><time>2026-03-26T19:17:19Z</time></trkpt><trkpt lat="40.29440331509658" lon="15.649336323177467"><ele>480.0</ele><time>2026-03-26T19:17:20Z</time></trkpt><trkpt lat="40.29424077813736" lon="15.64941279380622"><ele>480.0</ele><time>2026-03-26T19:17:21Z</time></trkpt><trkpt lat="40.294075021456095" lon="15.649488163529684"><ele>480.0</ele><time>2026-03-26T19:17:22Z</time></trkpt><trkpt lat="40.29390597954362" lon="15.649556855447868"><ele>480.0</ele><time>2026-03-26T19:17:23Z</time></trkpt><trkpt lat="40.293732923217746" lon="15.649638892813465"><ele>480.33333333333337</ele><time>2026-03-26T19:17:24Z</time></trkpt><trkpt lat="40.293560942962266" lon="15.64972594005358"><ele>480.6666666666667</ele><time>2026-03-26T19:17:25Z</time></trkpt><trkpt lat="40.293391592444394" lon="15.649805528239996"><ele>481.0</ele><time>2026-03-26T19:17:26Z</time></trkpt><trkpt lat="40.29323189248208" lon="15.64987910406903"><ele>481.33333333333337</ele><time>2026-03-26T19:17:27Z</time></trkpt><trkpt lat="40.29307349105805" lon="15.649945874314533"><ele>481.66666666666663</ele><time>2026-03-26T19:17:28Z</time></trkpt><trkpt lat="40.29292507060252" lon="15.65001361613242"><ele>482.0</ele><time>2026-03-26T19:17:29Z</time></trkpt><trkpt lat="40.29279368191172" lon="15.650070060015798"><ele>482.0</ele><time>2026-03-26T19:17:30Z</time></trkpt><trkpt lat="40.292646406859994" lon="15.65013817479363"><ele>482.0</ele><time>2026-03-26T19:17:31Z</time></trkpt><trkpt lat="40.292498328323056" lon="15.650206007805236"><ele>482.0</ele><time>2026-03-26T19:17:32Z</time></trkpt><trkpt lat="40.292347543009484" lon="15.650275104406738"><ele>481.66666666666663</ele><time>2026-03-26T19:17:33Z</time></trkpt><trkpt lat="40.29220538715242" lon="15.650344925281763"><ele>481.33333333333337</ele><time>2026-03-26T19:17:34Z</time></trkpt><trkpt lat="40.29206468026461" lon="15.650411331087543"><ele>481.0</ele><time>2026-03-26T19:17:35Z</time></trkpt><trkpt lat="40.291917947747194" lon="15.650479465889703"><ele>481.0</ele><time>2026-03-26T19:17:36Z</time></trkpt><trkpt lat="40.2917654710047" lon="15.65054658822007"><ele>481.0</ele><time>2026-03-26T19:17:37Z</time></trkpt><trkpt lat="40.2916418674023" lon="15.650602507081299"><ele>481.0</ele><time>2026-03-26T19:17:38Z</time></trkpt><trkpt lat="40.29151162225786" lon="15.650674601806676"><ele>481.0</ele><time>2026-03-26T19:17:39Z</time></trkpt><trkpt lat="40.29136729202464" lon="15.650725550093288"><ele>481.0</ele><time>2026-03-26T19:17:40Z</time></trkpt><trkpt lat="40.29124664560841" lon="15.650782357372703"><ele>481.0</ele><time>2026-03-26T19:17:41Z</time></trkpt><trkpt lat="40.29112130105119" lon="15.650844501256076"><ele>481.0</ele><time>2026-03-26T19:17:42Z</time></trkpt><trkpt lat="40.2909976825061" lon="15.65090907981298"><ele>481.0</ele><time>2026-03-26T19:17:43Z</time></trkpt><trkpt lat="40.29087624379029" lon="15.65097516245746"><ele>481.0</ele><time>2026-03-26T19:17:44Z</time></trkpt><trkpt lat="40.290762843134615" lon="15.651039564994887"><ele>481.0</ele><time>2026-03-26T19:17:45Z</time></trkpt><trkpt lat="40.29065315169934" lon="15.651100966863504"><ele>481.0</ele><time>2026-03-26T19:17:46Z</time></trkpt><trkpt lat="40.29053708263858" lon="15.651170491735176"><ele>481.0</ele><time>2026-03-26T19:17:47Z</time></trkpt><trkpt lat="40.290423283969396" lon="15.651234513250701"><ele>481.25</ele><time>2026-03-26T19:17:48Z</time></trkpt><trkpt lat="40.29031103445485" lon="15.651297161154595"><ele>481.5</ele><time>2026-03-26T19:17:49Z</time></trkpt><trkpt lat="40.290195502215745" lon="15.65136464183757"><ele>481.75</ele><time>2026-03-26T19:17:50Z</time></trkpt><trkpt lat="40.290082602605395" lon="15.651424478883277"><ele>482.0</ele><time>2026-03-26T19:17:51Z</time></trkpt><trkpt lat="40.289978102056885" lon="15.651484234979748"><ele>482.0</ele><time>2026-03-26T19:17:52Z</time></trkpt><trkpt lat="40.289878708411436" lon="15.651543609144944"><ele>482.00000000000006</ele><time>2026-03-26T19:17:53Z</time></trkpt><trkpt lat="40.28978202459957" lon="15.651600305930296"><ele>482.00000000000006</ele><time>2026-03-26T19:17:54Z</time></trkpt><trkpt lat="40.28969512453048" lon="15.651651170002351"><ele>482.0</ele><time>2026-03-26T19:17:55Z</time></trkpt><trkpt lat="40.28961551414483" lon="15.651699332426238"><ele>482.0</ele><time>2026-03-26T19:17:56Z</time></trkpt><trkpt lat="40.28953514145134" lon="15.651744777283444"><ele>482.0</ele><time>2026-03-26T19:17:57Z</time></trkpt><trkpt lat="40.28944488026929" lon="15.651791804751246"><ele>482.00000000000006</ele><time>2026-03-26T19:17:58Z</time></trkpt><trkpt lat="40.2893505501515" lon="15.651844969290345"><ele>482.00000000000006</ele><time>2026-03-26T19:17:59Z</time></trkpt><trkpt lat="40.28925935460952" lon="15.65189506964722"><ele>482.0</ele><time>2026-03-26T19:18:00Z</time></trkpt><trkpt lat="40.289175943728104" lon="15.651942246087833"><ele>482.0</ele><time>2026-03-26T19:18:01Z</time></trkpt><trkpt lat="40.2891029245412" lon="15.651984789853442"><ele>481.8333333333333</ele><time>2026-03-26T19:18:02Z</time></trkpt><trkpt lat="40.2890427027768" lon="15.652017884865803"><ele>481.66666666666663</ele><time>2026-03-26T19:18:03Z</time></trkpt><trkpt lat="40.28893386989607" lon="15.6520846740108"><ele>481.5</ele><time>2026-03-26T19:18:05Z</time></trkpt><trkpt lat="40.28883453501228" lon="15.652145850930562"><ele>481.33333333333337</ele><time>2026-03-26T19:18:07Z</time></trkpt><trkpt lat="40.288753616741616" lon="15.652192411006224"><ele>481.1666666666667</ele><time>2026-03-26T19:18:09Z</time></trkpt><trkpt lat="40.28869599324621" lon="15.652231811466075"><ele>481.0</ele><time>2026-03-26T19:18:12Z</time></trkpt><trkpt lat="40.28871092790506" lon="15.652388776339176"><ele>481.00000000000006</ele><time>2026-03-26T19:18:16Z</time></trkpt><trkpt lat="40.28878874407623" lon="15.65250390847438"><ele>481.0</ele><time>2026-03-26T19:18:18Z</time></trkpt><trkpt lat="40.28883377746423" lon="15.652570192148653"><ele>481.0</ele><time>2026-03-26T19:18:19Z</time></trkpt><trkpt lat="40.28885407290714" lon="15.652656809923478"><ele>481.0</ele><time>2026-03-26T19:18:20Z</time></trkpt><trkpt lat="40.28887730256126" lon="15.65274097562264"><ele>481.00000000000006</ele><time>2026-03-26T19:18:21Z</time></trkpt><trkpt lat="40.28890662576086" lon="15.65283734142035"><ele>481.0</ele><time>2026-03-26T19:18:22Z</time></trkpt><trkpt lat="40.288930529707514" lon="15.652924558066571"><ele>481.00000000000006</ele><time>2026-03-26T19:18:23Z</time></trkpt><trkpt lat="40.288959638458536" lon="15.653033769481095"><ele>481.0</ele><time>2026-03-26T19:18:24Z</time></trkpt><trkpt lat="40.28899860700575" lon="15.653141885814698"><ele>481.0</ele><time>2026-03-26T19:18:25Z</time></trkpt><trkpt lat="40.28904998559045" lon="15.653240488103863"><ele>481.0</ele><time>2026-03-26T19:18:26Z</time></trkpt><trkpt lat="40.28909719038113" lon="15.65332116331809"><ele>481.00000000000006</ele><time>2026-03-26T19:18:27Z</time></trkpt><trkpt lat="40.289155549997865" lon="15.65338623721706"><ele>481.0</ele><time>2026-03-26T19:18:28Z</time></trkpt><trkpt lat="40.28918310911398" lon="15.653470608265913"><ele>481.00000000000006</ele><time>2026-03-26T19:18:29Z</time></trkpt><trkpt lat="40.28923364618361" lon="15.653524417672957"><ele>481.0</ele><time>2026-03-26T19:18:30Z</time></trkpt><trkpt lat="40.289288884167185" lon="15.65365660951623"><ele>481.0</ele><time>2026-03-26T19:18:32Z</time></trkpt><trkpt lat="40.28931949390455" lon="15.653730142754961"><ele>481.0</ele><time>2026-03-26T19:18:34Z</time></trkpt><trkpt lat="40.289273042416205" lon="15.65378818493753"><ele>481.00000000000006</ele><time>2026-03-26T19:18:36Z</time></trkpt><trkpt lat="40.289158809439336" lon="15.653853240034813"><ele>481.0</ele><time>2026-03-26T19:18:38Z</time></trkpt><trkpt lat="40.289077608082195" lon="15.653893151742691"><ele>481.25</ele><time>2026-03-26T19:18:39Z</time></trkpt><trkpt lat="40.28898207065071" lon="15.653940505815086"><ele>481.5</ele><time>2026-03-26T19:18:40Z</time></trkpt><trkpt lat="40.2888814025607" lon="15.6539934006907"><ele>481.75</ele><time>2026-03-26T19:18:41Z</time></trkpt><trkpt lat="40.28877232309781" lon="15.654050174938257"><ele>482.0</ele><time>2026-03-26T19:18:42Z</time></trkpt><trkpt lat="40.28865638541225" lon="15.654114599084698"><ele>482.0</ele><time>2026-03-26T19:18:43Z</time></trkpt><trkpt lat="40.288534654642966" lon="15.654179714421966"><ele>482.0</ele><time>2026-03-26T19:18:44Z</time></trkpt><trkpt lat="40.28841443035172" lon="15.654245864306315"><ele>482.0</ele><time>2026-03-26T19:18:45Z</time></trkpt><trkpt lat="40.28830078890124" lon="15.654311061877813"><ele>482.0</ele><time>2026-03-26T19:18:46Z</time></trkpt><trkpt lat="40.28818709683922" lon="15.654371660736228"><ele>482.25</ele><time>2026-03-26T19:18:47Z</time></trkpt><trkpt lat="40.28807591759021" lon="15.6544257499184"><ele>482.5</ele><time>2026-03-26T19:18:48Z</time></trkpt><trkpt lat="40.28795995434452" lon="15.654483103941962"><ele>482.75</ele><time>2026-03-26T19:18:49Z</time></trkpt><trkpt lat="40.287845012673124" lon="15.654530039499928"><ele>483.0</ele><time>2026-03-26T19:18:50Z</time></trkpt><trkpt lat="40.287737228280704" lon="15.654581040999567"><ele>483.0</ele><time>2026-03-26T19:18:51Z</time></trkpt><trkpt lat="40.28763728949599" lon="15.654627118412092"><ele>482.99999999999994</ele><time>2026-03-26T19:18:52Z</time></trkpt><trkpt lat="40.287546494420795" lon="15.654669160299566"><ele>482.99999999999994</ele><time>2026-03-26T19:18:53Z</time></trkpt><trkpt lat="40.287451192429586" lon="15.654687103532357"><ele>483.0</ele><time>2026-03-26T19:18:54Z</time></trkpt><trkpt lat="40.28736024169585" lon="15.65475041275219"><ele>483.0</ele><time>2026-03-26T19:18:55Z</time></trkpt><trkpt lat="40.2872613397726" lon="15.654792704776304"><ele>483.0</ele><time>2026-03-26T19:18:56Z</time></trkpt><trkpt lat="40.2871732733984" lon="15.654830041310582"><ele>483.0</ele><time>2026-03-26T19:18:57Z</time></trkpt><trkpt lat="40.28709388692933" lon="15.654857870479258"><ele>483.0</ele><time>2026-03-26T19:18:58Z</time></trkpt><trkpt lat="40.28701723005916" lon="15.654869671403954"><ele>483.0</ele><time>2026-03-26T19:18:59Z</time></trkpt><trkpt lat="40.286933870133694" lon="15.654862318364295"><ele>483.0</ele><time>2026-03-26T19:19:00Z</time></trkpt><trkpt lat="40.28685139723601" lon="15.654809804113698"><ele>483.0</ele><time>2026-03-26T19:19:01Z</time></trkpt><trkpt lat="40.286757831554525" lon="15.654793743278193"><ele>483.0</ele><time>2026-03-26T19:19:02Z</time></trkpt><trkpt lat="40.28667180325416" lon="15.654749309499445"><ele>483.0</ele><time>2026-03-26T19:19:03Z</time></trkpt><trkpt lat="40.286594503402576" lon="15.654711628982975"><ele>483.0</ele><time>2026-03-26T19:19:04Z</time></trkpt><trkpt lat="40.286520707548526" lon="15.654681153020787"><ele>483.0</ele><time>2026-03-26T19:19:05Z</time></trkpt><trkpt lat="40.28643118967921" lon="15.654653462266745"><ele>483.0</ele><time>2026-03-26T19:19:06Z</time></trkpt><trkpt lat="40.2863445477567" lon="15.65464099988571"><ele>483.0</ele><time>2026-03-26T19:19:07Z</time></trkpt><trkpt lat="40.28626071877258" lon="15.654625683460075"><ele>483.59999999999997</ele><time>2026-03-26T19:19:08Z</time></trkpt><trkpt lat="40.2861844887125" lon="15.654612533407862"><ele>484.19999999999993</ele><time>2026-03-26T19:19:09Z</time></trkpt><trkpt lat="40.28611375278746" lon="15.654609619102468"><ele>484.8</ele><time>2026-03-26T19:19:10Z</time></trkpt><trkpt lat="40.28600199536314" lon="15.654645178002337"><ele>485.4</ele><time>2026-03-26T19:19:12Z</time></trkpt><trkpt lat="40.28591263142314" lon="15.654748693021679"><ele>486.0</ele><time>2026-03-26T19:19:14Z</time></trkpt><trkpt lat="40.285866848585556" lon="15.65481748154989"><ele>486.0</ele><time>2026-03-26T19:19:15Z</time></trkpt><trkpt lat="40.28581977854671" lon="15.654890356299969"><ele>486.0</ele><time>2026-03-26T19:19:16Z</time></trkpt><trkpt lat="40.285774683111754" lon="15.654960639519395"><ele>486.0</ele><time>2026-03-26T19:19:17Z</time></trkpt><trkpt lat="40.28573234632046" lon="15.655025883723466"><ele>486.0</ele><time>2026-03-26T19:19:18Z</time></trkpt><trkpt lat="40.28569682731305" lon="15.655094160051442"><ele>486.0</ele><time>2026-03-26T19:19:19Z</time></trkpt><trkpt lat="40.28562339462605" lon="15.655198946601496"><ele>486.0</ele><time>2026-03-26T19:19:21Z</time></trkpt><trkpt lat="40.285553949337896" lon="15.65527660991505"><ele>486.1428571428571</ele><time>2026-03-26T19:19:23Z</time></trkpt><trkpt lat="40.28549810943679" lon="15.65532716125432"><ele>486.28571428571433</ele><time>2026-03-26T19:19:31Z</time></trkpt><trkpt lat="40.285430239047855" lon="15.655387024588038"><ele>486.42857142857144</ele><time>2026-03-26T19:19:34Z</time></trkpt><trkpt lat="40.28537211445119" lon="15.65542221385609"><ele>486.57142857142856</ele><time>2026-03-26T19:19:35Z</time></trkpt><trkpt lat="40.28533607464392" lon="15.655490151558869"><ele>486.71428571428567</ele><time>2026-03-26T19:19:36Z</time></trkpt><trkpt lat="40.285290486098965" lon="15.655550251900378"><ele>486.8571428571429</ele><time>2026-03-26T19:19:37Z</time></trkpt><trkpt lat="40.285230544779296" lon="15.655646054973223"><ele>487.0</ele><time>2026-03-26T19:19:38Z</time></trkpt><trkpt lat="40.28516921707652" lon="15.655734876598146"><ele>487.0</ele><time>2026-03-26T19:19:39Z</time></trkpt><trkpt lat="40.28510735964288" lon="15.65582781069817"><ele>487.00000000000006</ele><time>2026-03-26T19:19:40Z</time></trkpt><trkpt lat="40.28502638287863" lon="15.655919924538269"><ele>487.00000000000006</ele><time>2026-03-26T19:19:41Z</time></trkpt><trkpt lat="40.28496779520642" lon="15.656021728001182"><ele>487.0</ele><time>2026-03-26T19:19:42Z</time></trkpt><trkpt lat="40.284904535593455" lon="15.656124015049357"><ele>487.0</ele><time>2026-03-26T19:19:43Z</time></trkpt><trkpt lat="40.284841270986426" lon="15.656220014719953"><ele>487.0</ele><time>2026-03-26T19:19:44Z</time></trkpt><trkpt lat="40.28478268924525" lon="15.656308514195478"><ele>487.0</ele><time>2026-03-26T19:19:45Z</time></trkpt><trkpt lat="40.28472876399727" lon="15.656386953757114"><ele>487.0</ele><time>2026-03-26T19:19:46Z</time></trkpt><trkpt lat="40.284685828237116" lon="15.656462741889987"><ele>487.0</ele><time>2026-03-26T19:19:47Z</time></trkpt><trkpt lat="40.284643239461516" lon="15.656526532578882"><ele>487.0</ele><time>2026-03-26T19:19:48Z</time></trkpt><trkpt lat="40.28459967607935" lon="15.65658881176334"><ele>487.0</ele><time>2026-03-26T19:19:49Z</time></trkpt><trkpt lat="40.28455889140388" lon="15.656659259590407"><ele>487.0</ele><time>2026-03-26T19:19:50Z</time></trkpt><trkpt lat="40.284484147278036" lon="15.65677383962056"><ele>487.0</ele><time>2026-03-26T19:19:52Z</time></trkpt><trkpt lat="40.28443477701898" lon="15.656845838117658"><ele>487.00000000000006</ele><time>2026-03-26T19:19:54Z</time></trkpt><trkpt lat="40.28439152463063" lon="15.656906374804834"><ele>487.00000000000006</ele><time>2026-03-26T19:20:00Z</time></trkpt><trkpt lat="40.28433805779475" lon="15.657014911864687"><ele>487.0</ele><time>2026-03-26T19:20:02Z</time></trkpt><trkpt lat="40.28434423198309" lon="15.65721167463513"><ele>487.0</ele><time>2026-03-26T19:20:04Z</time></trkpt><trkpt lat="40.28433962441025" lon="15.657355207668392"><ele>491.0</ele><time>2026-03-26T19:20:06Z</time></trkpt><trkpt lat="40.284337374633445" lon="15.65744517307252"><ele>491.0</ele><time>2026-03-26T19:20:08Z</time></trkpt><trkpt lat="40.284329900965865" lon="15.657529844148382"><ele>491.0</ele><time>2026-03-26T19:20:18Z</time></trkpt><trkpt lat="40.28431951890742" lon="15.657613581591667"><ele>491.0</ele><time>2026-03-26T19:20:54Z</time></trkpt></trkseg></trk></gpx>